<?xml version="1.0" encoding="UTF-8" standalone="no" ?>
<gpx xmlns="http://www.topografix.com/GPX/1/1" xmlns:xsi="http://www.w3.org/2001/XMLSchema-instance" xsi:schemaLocation="http://www.topografix.com/GPX/1/1 http://www.topografix.com/GPX/1/1/gpx.xsd" version="1.1" creator="VisuGPX - https://www.visugpx.com">
  <metadata>
    <name>#velotaf24/9 ❄️🌧️</name>
  </metadata>
  <trk>
    <name><![CDATA[#velotaf24/9 ❄️🌧️_1]]></name>
    <trkseg>
      <trkpt lat="50.0227" lon="4.32039">
        <ele>263</ele>
        <time>2024-04-16T04:46:22Z</time>
      </trkpt>
      <trkpt lat="50.02269" lon="4.32034">
        <ele>256.4</ele>
        <time>2024-04-16T04:46:23Z</time>
      </trkpt>
      <trkpt lat="50.02269" lon="4.3203">
        <ele>256.6</ele>
        <time>2024-04-16T04:46:24Z</time>
      </trkpt>
      <trkpt lat="50.02269" lon="4.32026">
        <ele>256.4</ele>
        <time>2024-04-16T04:46:25Z</time>
      </trkpt>
      <trkpt lat="50.02269" lon="4.32022">
        <ele>256</ele>
        <time>2024-04-16T04:46:26Z</time>
      </trkpt>
      <trkpt lat="50.02269" lon="4.32018">
        <ele>256.4</ele>
        <time>2024-04-16T04:46:27Z</time>
      </trkpt>
      <trkpt lat="50.02269" lon="4.32015">
        <ele>256.6</ele>
        <time>2024-04-16T04:46:28Z</time>
      </trkpt>
      <trkpt lat="50.02268" lon="4.32011">
        <ele>256.4</ele>
        <time>2024-04-16T04:46:29Z</time>
      </trkpt>
      <trkpt lat="50.02267" lon="4.32008">
        <ele>256.8</ele>
        <time>2024-04-16T04:46:30Z</time>
      </trkpt>
      <trkpt lat="50.02266" lon="4.32005">
        <ele>257</ele>
        <time>2024-04-16T04:46:31Z</time>
      </trkpt>
      <trkpt lat="50.02265" lon="4.32002">
        <ele>257.2</ele>
        <time>2024-04-16T04:46:32Z</time>
      </trkpt>
      <trkpt lat="50.02263" lon="4.31999">
        <ele>257.2</ele>
        <time>2024-04-16T04:46:33Z</time>
      </trkpt>
      <trkpt lat="50.02262" lon="4.31995">
        <ele>257.2</ele>
        <time>2024-04-16T04:46:34Z</time>
      </trkpt>
      <trkpt lat="50.02261" lon="4.31992">
        <ele>257.6</ele>
        <time>2024-04-16T04:46:35Z</time>
      </trkpt>
      <trkpt lat="50.02259" lon="4.3199">
        <ele>257.8</ele>
        <time>2024-04-16T04:46:36Z</time>
      </trkpt>
      <trkpt lat="50.02258" lon="4.31987">
        <ele>257.6</ele>
        <time>2024-04-16T04:46:37Z</time>
      </trkpt>
      <trkpt lat="50.02256" lon="4.31984">
        <ele>257.4</ele>
        <time>2024-04-16T04:46:38Z</time>
      </trkpt>
      <trkpt lat="50.02255" lon="4.31982">
        <ele>257.4</ele>
        <time>2024-04-16T04:46:39Z</time>
      </trkpt>
      <trkpt lat="50.02254" lon="4.31979">
        <ele>257.6</ele>
        <time>2024-04-16T04:46:40Z</time>
      </trkpt>
      <trkpt lat="50.02254" lon="4.31976">
        <ele>257.4</ele>
        <time>2024-04-16T04:46:41Z</time>
      </trkpt>
      <trkpt lat="50.02254" lon="4.31973">
        <ele>257.2</ele>
        <time>2024-04-16T04:46:42Z</time>
      </trkpt>
      <trkpt lat="50.02256" lon="4.31969">
        <ele>257.2</ele>
        <time>2024-04-16T04:46:43Z</time>
      </trkpt>
      <trkpt lat="50.02258" lon="4.31965">
        <ele>257.2</ele>
        <time>2024-04-16T04:46:44Z</time>
      </trkpt>
      <trkpt lat="50.0226" lon="4.3196">
        <ele>257.4</ele>
        <time>2024-04-16T04:46:45Z</time>
      </trkpt>
      <trkpt lat="50.02262" lon="4.31955">
        <ele>257.2</ele>
        <time>2024-04-16T04:46:46Z</time>
      </trkpt>
      <trkpt lat="50.02265" lon="4.31951">
        <ele>257.4</ele>
        <time>2024-04-16T04:46:47Z</time>
      </trkpt>
      <trkpt lat="50.02267" lon="4.31946">
        <ele>257.2</ele>
        <time>2024-04-16T04:46:48Z</time>
      </trkpt>
      <trkpt lat="50.02269" lon="4.31941">
        <ele>257.4</ele>
        <time>2024-04-16T04:46:49Z</time>
      </trkpt>
      <trkpt lat="50.02271" lon="4.31935">
        <ele>257.6</ele>
        <time>2024-04-16T04:46:50Z</time>
      </trkpt>
      <trkpt lat="50.02273" lon="4.3193">
        <ele>257.6</ele>
        <time>2024-04-16T04:46:51Z</time>
      </trkpt>
      <trkpt lat="50.02275" lon="4.31924">
        <ele>257.6</ele>
        <time>2024-04-16T04:46:52Z</time>
      </trkpt>
      <trkpt lat="50.02277" lon="4.31918">
        <ele>257.6</ele>
        <time>2024-04-16T04:46:53Z</time>
      </trkpt>
      <trkpt lat="50.02279" lon="4.31913">
        <ele>258</ele>
        <time>2024-04-16T04:46:54Z</time>
      </trkpt>
      <trkpt lat="50.02281" lon="4.31908">
        <ele>258</ele>
        <time>2024-04-16T04:46:55Z</time>
      </trkpt>
      <trkpt lat="50.02283" lon="4.31904">
        <ele>258.2</ele>
        <time>2024-04-16T04:46:56Z</time>
      </trkpt>
      <trkpt lat="50.02285" lon="4.31899">
        <ele>258.6</ele>
        <time>2024-04-16T04:46:57Z</time>
      </trkpt>
      <trkpt lat="50.02287" lon="4.31895">
        <ele>258.8</ele>
        <time>2024-04-16T04:46:58Z</time>
      </trkpt>
      <trkpt lat="50.02289" lon="4.3189">
        <ele>259.2</ele>
        <time>2024-04-16T04:46:59Z</time>
      </trkpt>
      <trkpt lat="50.02291" lon="4.31886">
        <ele>259.4</ele>
        <time>2024-04-16T04:47:00Z</time>
      </trkpt>
      <trkpt lat="50.02293" lon="4.31881">
        <ele>259.4</ele>
        <time>2024-04-16T04:47:01Z</time>
      </trkpt>
      <trkpt lat="50.02295" lon="4.31877">
        <ele>259.8</ele>
        <time>2024-04-16T04:47:02Z</time>
      </trkpt>
      <trkpt lat="50.02297" lon="4.31872">
        <ele>260</ele>
        <time>2024-04-16T04:47:03Z</time>
      </trkpt>
      <trkpt lat="50.02299" lon="4.31868">
        <ele>260.2</ele>
        <time>2024-04-16T04:47:04Z</time>
      </trkpt>
      <trkpt lat="50.023" lon="4.31864">
        <ele>261</ele>
        <time>2024-04-16T04:47:05Z</time>
      </trkpt>
      <trkpt lat="50.02302" lon="4.31859">
        <ele>261.6</ele>
        <time>2024-04-16T04:47:06Z</time>
      </trkpt>
      <trkpt lat="50.02303" lon="4.31854">
        <ele>261.8</ele>
        <time>2024-04-16T04:47:07Z</time>
      </trkpt>
      <trkpt lat="50.02303" lon="4.31849">
        <ele>262.2</ele>
        <time>2024-04-16T04:47:08Z</time>
      </trkpt>
      <trkpt lat="50.02303" lon="4.31845">
        <ele>262.2</ele>
        <time>2024-04-16T04:47:09Z</time>
      </trkpt>
      <trkpt lat="50.02302" lon="4.3184">
        <ele>262.2</ele>
        <time>2024-04-16T04:47:10Z</time>
      </trkpt>
      <trkpt lat="50.023" lon="4.31836">
        <ele>262.4</ele>
        <time>2024-04-16T04:47:11Z</time>
      </trkpt>
      <trkpt lat="50.02298" lon="4.31832">
        <ele>262.4</ele>
        <time>2024-04-16T04:47:12Z</time>
      </trkpt>
      <trkpt lat="50.02297" lon="4.31827">
        <ele>262.8</ele>
        <time>2024-04-16T04:47:13Z</time>
      </trkpt>
      <trkpt lat="50.02295" lon="4.31822">
        <ele>262.8</ele>
        <time>2024-04-16T04:47:14Z</time>
      </trkpt>
      <trkpt lat="50.02293" lon="4.31818">
        <ele>263.2</ele>
        <time>2024-04-16T04:47:15Z</time>
      </trkpt>
      <trkpt lat="50.02291" lon="4.31814">
        <ele>263.4</ele>
        <time>2024-04-16T04:47:16Z</time>
      </trkpt>
      <trkpt lat="50.02289" lon="4.3181">
        <ele>263.4</ele>
        <time>2024-04-16T04:47:17Z</time>
      </trkpt>
      <trkpt lat="50.02287" lon="4.31806">
        <ele>263.4</ele>
        <time>2024-04-16T04:47:18Z</time>
      </trkpt>
      <trkpt lat="50.02285" lon="4.31802">
        <ele>263.8</ele>
        <time>2024-04-16T04:47:19Z</time>
      </trkpt>
      <trkpt lat="50.02283" lon="4.31798">
        <ele>263.8</ele>
        <time>2024-04-16T04:47:20Z</time>
      </trkpt>
      <trkpt lat="50.02281" lon="4.31794">
        <ele>264.2</ele>
        <time>2024-04-16T04:47:21Z</time>
      </trkpt>
      <trkpt lat="50.02279" lon="4.3179">
        <ele>264.4</ele>
        <time>2024-04-16T04:47:22Z</time>
      </trkpt>
      <trkpt lat="50.02276" lon="4.31785">
        <ele>264.6</ele>
        <time>2024-04-16T04:47:23Z</time>
      </trkpt>
      <trkpt lat="50.02274" lon="4.31781">
        <ele>264.6</ele>
        <time>2024-04-16T04:47:24Z</time>
      </trkpt>
      <trkpt lat="50.02272" lon="4.31777">
        <ele>264.8</ele>
        <time>2024-04-16T04:47:25Z</time>
      </trkpt>
      <trkpt lat="50.0227" lon="4.31773">
        <ele>265</ele>
        <time>2024-04-16T04:47:26Z</time>
      </trkpt>
      <trkpt lat="50.02268" lon="4.31769">
        <ele>265.2</ele>
        <time>2024-04-16T04:47:27Z</time>
      </trkpt>
      <trkpt lat="50.02266" lon="4.31764">
        <ele>265</ele>
        <time>2024-04-16T04:47:28Z</time>
      </trkpt>
      <trkpt lat="50.02263" lon="4.3176">
        <ele>265.2</ele>
        <time>2024-04-16T04:47:29Z</time>
      </trkpt>
      <trkpt lat="50.02261" lon="4.31756">
        <ele>265.6</ele>
        <time>2024-04-16T04:47:30Z</time>
      </trkpt>
      <trkpt lat="50.02259" lon="4.31751">
        <ele>265.8</ele>
        <time>2024-04-16T04:47:31Z</time>
      </trkpt>
      <trkpt lat="50.02257" lon="4.31747">
        <ele>265.8</ele>
        <time>2024-04-16T04:47:32Z</time>
      </trkpt>
      <trkpt lat="50.02255" lon="4.31742">
        <ele>266</ele>
        <time>2024-04-16T04:47:33Z</time>
      </trkpt>
      <trkpt lat="50.02253" lon="4.31738">
        <ele>266.2</ele>
        <time>2024-04-16T04:47:34Z</time>
      </trkpt>
      <trkpt lat="50.02251" lon="4.31733">
        <ele>266.2</ele>
        <time>2024-04-16T04:47:35Z</time>
      </trkpt>
      <trkpt lat="50.02249" lon="4.31729">
        <ele>266.2</ele>
        <time>2024-04-16T04:47:36Z</time>
      </trkpt>
      <trkpt lat="50.02247" lon="4.31725">
        <ele>266.4</ele>
        <time>2024-04-16T04:47:37Z</time>
      </trkpt>
      <trkpt lat="50.02245" lon="4.3172">
        <ele>267</ele>
        <time>2024-04-16T04:47:38Z</time>
      </trkpt>
      <trkpt lat="50.02243" lon="4.31715">
        <ele>267</ele>
        <time>2024-04-16T04:47:39Z</time>
      </trkpt>
      <trkpt lat="50.02241" lon="4.31711">
        <ele>267.8</ele>
        <time>2024-04-16T04:47:40Z</time>
      </trkpt>
      <trkpt lat="50.02239" lon="4.31706">
        <ele>268</ele>
        <time>2024-04-16T04:47:41Z</time>
      </trkpt>
      <trkpt lat="50.02237" lon="4.31701">
        <ele>268.2</ele>
        <time>2024-04-16T04:47:42Z</time>
      </trkpt>
      <trkpt lat="50.02235" lon="4.31697">
        <ele>268.4</ele>
        <time>2024-04-16T04:47:43Z</time>
      </trkpt>
      <trkpt lat="50.02233" lon="4.31692">
        <ele>268.6</ele>
        <time>2024-04-16T04:47:44Z</time>
      </trkpt>
      <trkpt lat="50.02231" lon="4.31687">
        <ele>268.8</ele>
        <time>2024-04-16T04:47:45Z</time>
      </trkpt>
      <trkpt lat="50.02229" lon="4.31683">
        <ele>269</ele>
        <time>2024-04-16T04:47:46Z</time>
      </trkpt>
      <trkpt lat="50.02227" lon="4.31678">
        <ele>269</ele>
        <time>2024-04-16T04:47:47Z</time>
      </trkpt>
      <trkpt lat="50.02225" lon="4.31673">
        <ele>269</ele>
        <time>2024-04-16T04:47:48Z</time>
      </trkpt>
      <trkpt lat="50.02223" lon="4.31668">
        <ele>269.6</ele>
        <time>2024-04-16T04:47:49Z</time>
      </trkpt>
      <trkpt lat="50.02221" lon="4.31663">
        <ele>269.8</ele>
        <time>2024-04-16T04:47:50Z</time>
      </trkpt>
      <trkpt lat="50.02218" lon="4.31659">
        <ele>270</ele>
        <time>2024-04-16T04:47:51Z</time>
      </trkpt>
      <trkpt lat="50.02216" lon="4.31654">
        <ele>270.4</ele>
        <time>2024-04-16T04:47:52Z</time>
      </trkpt>
      <trkpt lat="50.02214" lon="4.31649">
        <ele>270.4</ele>
        <time>2024-04-16T04:47:53Z</time>
      </trkpt>
      <trkpt lat="50.02212" lon="4.31644">
        <ele>270.8</ele>
        <time>2024-04-16T04:47:54Z</time>
      </trkpt>
      <trkpt lat="50.0221" lon="4.3164">
        <ele>270.8</ele>
        <time>2024-04-16T04:47:55Z</time>
      </trkpt>
      <trkpt lat="50.02207" lon="4.31635">
        <ele>271.2</ele>
        <time>2024-04-16T04:47:56Z</time>
      </trkpt>
      <trkpt lat="50.02204" lon="4.31631">
        <ele>271.4</ele>
        <time>2024-04-16T04:47:57Z</time>
      </trkpt>
      <trkpt lat="50.02201" lon="4.31627">
        <ele>271.6</ele>
        <time>2024-04-16T04:47:58Z</time>
      </trkpt>
      <trkpt lat="50.02198" lon="4.31623">
        <ele>271.8</ele>
        <time>2024-04-16T04:47:59Z</time>
      </trkpt>
      <trkpt lat="50.02195" lon="4.31619">
        <ele>272</ele>
        <time>2024-04-16T04:48:00Z</time>
      </trkpt>
      <trkpt lat="50.02192" lon="4.31615">
        <ele>272</ele>
        <time>2024-04-16T04:48:01Z</time>
      </trkpt>
      <trkpt lat="50.02188" lon="4.31612">
        <ele>272</ele>
        <time>2024-04-16T04:48:02Z</time>
      </trkpt>
      <trkpt lat="50.02185" lon="4.31609">
        <ele>272</ele>
        <time>2024-04-16T04:48:03Z</time>
      </trkpt>
      <trkpt lat="50.02182" lon="4.31606">
        <ele>272.2</ele>
        <time>2024-04-16T04:48:04Z</time>
      </trkpt>
      <trkpt lat="50.02178" lon="4.31603">
        <ele>272.2</ele>
        <time>2024-04-16T04:48:05Z</time>
      </trkpt>
      <trkpt lat="50.02174" lon="4.316">
        <ele>272.4</ele>
        <time>2024-04-16T04:48:06Z</time>
      </trkpt>
      <trkpt lat="50.0217" lon="4.31598">
        <ele>272.4</ele>
        <time>2024-04-16T04:48:07Z</time>
      </trkpt>
      <trkpt lat="50.02166" lon="4.31596">
        <ele>272.6</ele>
        <time>2024-04-16T04:48:08Z</time>
      </trkpt>
      <trkpt lat="50.02162" lon="4.31594">
        <ele>272.8</ele>
        <time>2024-04-16T04:48:09Z</time>
      </trkpt>
      <trkpt lat="50.02158" lon="4.31592">
        <ele>273</ele>
        <time>2024-04-16T04:48:10Z</time>
      </trkpt>
      <trkpt lat="50.02154" lon="4.31591">
        <ele>273.2</ele>
        <time>2024-04-16T04:48:11Z</time>
      </trkpt>
      <trkpt lat="50.0215" lon="4.31589">
        <ele>273.4</ele>
        <time>2024-04-16T04:48:12Z</time>
      </trkpt>
      <trkpt lat="50.02146" lon="4.31587">
        <ele>273.6</ele>
        <time>2024-04-16T04:48:13Z</time>
      </trkpt>
      <trkpt lat="50.02142" lon="4.31585">
        <ele>273.6</ele>
        <time>2024-04-16T04:48:14Z</time>
      </trkpt>
      <trkpt lat="50.02137" lon="4.31583">
        <ele>274</ele>
        <time>2024-04-16T04:48:15Z</time>
      </trkpt>
      <trkpt lat="50.02133" lon="4.31581">
        <ele>273.8</ele>
        <time>2024-04-16T04:48:16Z</time>
      </trkpt>
      <trkpt lat="50.02129" lon="4.31579">
        <ele>274</ele>
        <time>2024-04-16T04:48:17Z</time>
      </trkpt>
      <trkpt lat="50.02124" lon="4.31577">
        <ele>274.4</ele>
        <time>2024-04-16T04:48:18Z</time>
      </trkpt>
      <trkpt lat="50.02119" lon="4.31575">
        <ele>274.6</ele>
        <time>2024-04-16T04:48:19Z</time>
      </trkpt>
      <trkpt lat="50.02115" lon="4.31573">
        <ele>274.8</ele>
        <time>2024-04-16T04:48:20Z</time>
      </trkpt>
      <trkpt lat="50.02111" lon="4.31572">
        <ele>275</ele>
        <time>2024-04-16T04:48:21Z</time>
      </trkpt>
      <trkpt lat="50.02106" lon="4.3157">
        <ele>275.2</ele>
        <time>2024-04-16T04:48:22Z</time>
      </trkpt>
      <trkpt lat="50.02102" lon="4.31568">
        <ele>275.2</ele>
        <time>2024-04-16T04:48:23Z</time>
      </trkpt>
      <trkpt lat="50.02098" lon="4.31566">
        <ele>275.6</ele>
        <time>2024-04-16T04:48:24Z</time>
      </trkpt>
      <trkpt lat="50.02094" lon="4.31564">
        <ele>275.8</ele>
        <time>2024-04-16T04:48:25Z</time>
      </trkpt>
      <trkpt lat="50.02089" lon="4.31562">
        <ele>275.8</ele>
        <time>2024-04-16T04:48:26Z</time>
      </trkpt>
      <trkpt lat="50.02085" lon="4.3156">
        <ele>275.8</ele>
        <time>2024-04-16T04:48:27Z</time>
      </trkpt>
      <trkpt lat="50.02081" lon="4.31558">
        <ele>275.8</ele>
        <time>2024-04-16T04:48:28Z</time>
      </trkpt>
      <trkpt lat="50.02077" lon="4.31556">
        <ele>276.2</ele>
        <time>2024-04-16T04:48:29Z</time>
      </trkpt>
      <trkpt lat="50.02072" lon="4.31554">
        <ele>276.4</ele>
        <time>2024-04-16T04:48:30Z</time>
      </trkpt>
      <trkpt lat="50.02068" lon="4.31552">
        <ele>276.4</ele>
        <time>2024-04-16T04:48:31Z</time>
      </trkpt>
      <trkpt lat="50.02064" lon="4.3155">
        <ele>276.4</ele>
        <time>2024-04-16T04:48:32Z</time>
      </trkpt>
      <trkpt lat="50.0206" lon="4.31549">
        <ele>276.6</ele>
        <time>2024-04-16T04:48:33Z</time>
      </trkpt>
      <trkpt lat="50.02056" lon="4.31547">
        <ele>276.4</ele>
        <time>2024-04-16T04:48:34Z</time>
      </trkpt>
      <trkpt lat="50.02051" lon="4.31545">
        <ele>276.6</ele>
        <time>2024-04-16T04:48:35Z</time>
      </trkpt>
      <trkpt lat="50.02047" lon="4.31543">
        <ele>276.8</ele>
        <time>2024-04-16T04:48:36Z</time>
      </trkpt>
      <trkpt lat="50.02043" lon="4.31541">
        <ele>277</ele>
        <time>2024-04-16T04:48:37Z</time>
      </trkpt>
      <trkpt lat="50.02038" lon="4.31539">
        <ele>277.6</ele>
        <time>2024-04-16T04:48:38Z</time>
      </trkpt>
      <trkpt lat="50.02034" lon="4.31537">
        <ele>277.8</ele>
        <time>2024-04-16T04:48:39Z</time>
      </trkpt>
      <trkpt lat="50.0203" lon="4.31535">
        <ele>278.2</ele>
        <time>2024-04-16T04:48:40Z</time>
      </trkpt>
      <trkpt lat="50.02025" lon="4.31534">
        <ele>278.6</ele>
        <time>2024-04-16T04:48:41Z</time>
      </trkpt>
      <trkpt lat="50.02021" lon="4.31532">
        <ele>278.8</ele>
        <time>2024-04-16T04:48:42Z</time>
      </trkpt>
      <trkpt lat="50.02016" lon="4.3153">
        <ele>279</ele>
        <time>2024-04-16T04:48:43Z</time>
      </trkpt>
      <trkpt lat="50.02012" lon="4.31528">
        <ele>279.2</ele>
        <time>2024-04-16T04:48:44Z</time>
      </trkpt>
      <trkpt lat="50.02008" lon="4.31526">
        <ele>279.2</ele>
        <time>2024-04-16T04:48:45Z</time>
      </trkpt>
      <trkpt lat="50.02003" lon="4.31525">
        <ele>279.4</ele>
        <time>2024-04-16T04:48:46Z</time>
      </trkpt>
      <trkpt lat="50.01999" lon="4.31523">
        <ele>279.6</ele>
        <time>2024-04-16T04:48:47Z</time>
      </trkpt>
      <trkpt lat="50.01994" lon="4.31522">
        <ele>279.6</ele>
        <time>2024-04-16T04:48:48Z</time>
      </trkpt>
      <trkpt lat="50.0199" lon="4.3152">
        <ele>279.6</ele>
        <time>2024-04-16T04:48:49Z</time>
      </trkpt>
      <trkpt lat="50.01986" lon="4.31519">
        <ele>279.8</ele>
        <time>2024-04-16T04:48:50Z</time>
      </trkpt>
      <trkpt lat="50.01981" lon="4.31517">
        <ele>279.8</ele>
        <time>2024-04-16T04:48:51Z</time>
      </trkpt>
      <trkpt lat="50.01977" lon="4.31516">
        <ele>279.6</ele>
        <time>2024-04-16T04:48:52Z</time>
      </trkpt>
      <trkpt lat="50.01973" lon="4.31514">
        <ele>279.8</ele>
        <time>2024-04-16T04:48:53Z</time>
      </trkpt>
      <trkpt lat="50.01968" lon="4.31513">
        <ele>280</ele>
        <time>2024-04-16T04:48:54Z</time>
      </trkpt>
      <trkpt lat="50.01964" lon="4.31511">
        <ele>280</ele>
        <time>2024-04-16T04:48:55Z</time>
      </trkpt>
      <trkpt lat="50.0196" lon="4.3151">
        <ele>280.2</ele>
        <time>2024-04-16T04:48:56Z</time>
      </trkpt>
      <trkpt lat="50.01955" lon="4.31508">
        <ele>280.8</ele>
        <time>2024-04-16T04:48:57Z</time>
      </trkpt>
      <trkpt lat="50.0195" lon="4.31507">
        <ele>281.2</ele>
        <time>2024-04-16T04:48:58Z</time>
      </trkpt>
      <trkpt lat="50.01946" lon="4.31505">
        <ele>281.4</ele>
        <time>2024-04-16T04:48:59Z</time>
      </trkpt>
      <trkpt lat="50.01941" lon="4.31503">
        <ele>281.6</ele>
        <time>2024-04-16T04:49:00Z</time>
      </trkpt>
      <trkpt lat="50.01936" lon="4.31502">
        <ele>281.6</ele>
        <time>2024-04-16T04:49:01Z</time>
      </trkpt>
      <trkpt lat="50.01932" lon="4.315">
        <ele>282</ele>
        <time>2024-04-16T04:49:02Z</time>
      </trkpt>
      <trkpt lat="50.01927" lon="4.31498">
        <ele>282.2</ele>
        <time>2024-04-16T04:49:03Z</time>
      </trkpt>
      <trkpt lat="50.01922" lon="4.31497">
        <ele>282.4</ele>
        <time>2024-04-16T04:49:04Z</time>
      </trkpt>
      <trkpt lat="50.01917" lon="4.31495">
        <ele>282.6</ele>
        <time>2024-04-16T04:49:05Z</time>
      </trkpt>
      <trkpt lat="50.01912" lon="4.31493">
        <ele>282.6</ele>
        <time>2024-04-16T04:49:06Z</time>
      </trkpt>
      <trkpt lat="50.01907" lon="4.31491">
        <ele>282.8</ele>
        <time>2024-04-16T04:49:07Z</time>
      </trkpt>
      <trkpt lat="50.01902" lon="4.3149">
        <ele>282.8</ele>
        <time>2024-04-16T04:49:08Z</time>
      </trkpt>
      <trkpt lat="50.01897" lon="4.31488">
        <ele>283</ele>
        <time>2024-04-16T04:49:09Z</time>
      </trkpt>
      <trkpt lat="50.01892" lon="4.31486">
        <ele>283</ele>
        <time>2024-04-16T04:49:10Z</time>
      </trkpt>
      <trkpt lat="50.01887" lon="4.31485">
        <ele>283</ele>
        <time>2024-04-16T04:49:11Z</time>
      </trkpt>
      <trkpt lat="50.01882" lon="4.31483">
        <ele>283</ele>
        <time>2024-04-16T04:49:12Z</time>
      </trkpt>
      <trkpt lat="50.01877" lon="4.31481">
        <ele>283</ele>
        <time>2024-04-16T04:49:13Z</time>
      </trkpt>
      <trkpt lat="50.01872" lon="4.31479">
        <ele>283.4</ele>
        <time>2024-04-16T04:49:14Z</time>
      </trkpt>
      <trkpt lat="50.01867" lon="4.31477">
        <ele>283.4</ele>
        <time>2024-04-16T04:49:15Z</time>
      </trkpt>
      <trkpt lat="50.01862" lon="4.31475">
        <ele>283.6</ele>
        <time>2024-04-16T04:49:16Z</time>
      </trkpt>
      <trkpt lat="50.01857" lon="4.31472">
        <ele>283.6</ele>
        <time>2024-04-16T04:49:17Z</time>
      </trkpt>
      <trkpt lat="50.01852" lon="4.3147">
        <ele>283.8</ele>
        <time>2024-04-16T04:49:18Z</time>
      </trkpt>
      <trkpt lat="50.01847" lon="4.31467">
        <ele>284</ele>
        <time>2024-04-16T04:49:19Z</time>
      </trkpt>
      <trkpt lat="50.01842" lon="4.31465">
        <ele>284</ele>
        <time>2024-04-16T04:49:20Z</time>
      </trkpt>
      <trkpt lat="50.01837" lon="4.31462">
        <ele>284</ele>
        <time>2024-04-16T04:49:21Z</time>
      </trkpt>
      <trkpt lat="50.01832" lon="4.3146">
        <ele>284</ele>
        <time>2024-04-16T04:49:22Z</time>
      </trkpt>
      <trkpt lat="50.01827" lon="4.31458">
        <ele>284</ele>
        <time>2024-04-16T04:49:23Z</time>
      </trkpt>
      <trkpt lat="50.01822" lon="4.31455">
        <ele>284</ele>
        <time>2024-04-16T04:49:24Z</time>
      </trkpt>
      <trkpt lat="50.01817" lon="4.31453">
        <ele>284</ele>
        <time>2024-04-16T04:49:25Z</time>
      </trkpt>
      <trkpt lat="50.01812" lon="4.31451">
        <ele>284.2</ele>
        <time>2024-04-16T04:49:26Z</time>
      </trkpt>
      <trkpt lat="50.01807" lon="4.31448">
        <ele>284.4</ele>
        <time>2024-04-16T04:49:27Z</time>
      </trkpt>
      <trkpt lat="50.01802" lon="4.31446">
        <ele>284.6</ele>
        <time>2024-04-16T04:49:28Z</time>
      </trkpt>
      <trkpt lat="50.01797" lon="4.31443">
        <ele>284.6</ele>
        <time>2024-04-16T04:49:29Z</time>
      </trkpt>
      <trkpt lat="50.01793" lon="4.31441">
        <ele>284.6</ele>
        <time>2024-04-16T04:49:30Z</time>
      </trkpt>
      <trkpt lat="50.01788" lon="4.31438">
        <ele>285</ele>
        <time>2024-04-16T04:49:31Z</time>
      </trkpt>
      <trkpt lat="50.01783" lon="4.31435">
        <ele>285</ele>
        <time>2024-04-16T04:49:32Z</time>
      </trkpt>
      <trkpt lat="50.01778" lon="4.31432">
        <ele>285.2</ele>
        <time>2024-04-16T04:49:33Z</time>
      </trkpt>
      <trkpt lat="50.01774" lon="4.31429">
        <ele>285.2</ele>
        <time>2024-04-16T04:49:34Z</time>
      </trkpt>
      <trkpt lat="50.01769" lon="4.31425">
        <ele>285.2</ele>
        <time>2024-04-16T04:49:35Z</time>
      </trkpt>
      <trkpt lat="50.01765" lon="4.31421">
        <ele>285.4</ele>
        <time>2024-04-16T04:49:36Z</time>
      </trkpt>
      <trkpt lat="50.0176" lon="4.31417">
        <ele>285.4</ele>
        <time>2024-04-16T04:49:37Z</time>
      </trkpt>
      <trkpt lat="50.01756" lon="4.31413">
        <ele>286</ele>
        <time>2024-04-16T04:49:38Z</time>
      </trkpt>
      <trkpt lat="50.01752" lon="4.3141">
        <ele>286.8</ele>
        <time>2024-04-16T04:49:39Z</time>
      </trkpt>
      <trkpt lat="50.01747" lon="4.31406">
        <ele>287</ele>
        <time>2024-04-16T04:49:40Z</time>
      </trkpt>
      <trkpt lat="50.01743" lon="4.31402">
        <ele>287.2</ele>
        <time>2024-04-16T04:49:41Z</time>
      </trkpt>
      <trkpt lat="50.01738" lon="4.31398">
        <ele>287.2</ele>
        <time>2024-04-16T04:49:42Z</time>
      </trkpt>
      <trkpt lat="50.01734" lon="4.31394">
        <ele>287.2</ele>
        <time>2024-04-16T04:49:43Z</time>
      </trkpt>
      <trkpt lat="50.01729" lon="4.3139">
        <ele>287.4</ele>
        <time>2024-04-16T04:49:44Z</time>
      </trkpt>
      <trkpt lat="50.01725" lon="4.31387">
        <ele>287.4</ele>
        <time>2024-04-16T04:49:45Z</time>
      </trkpt>
      <trkpt lat="50.0172" lon="4.31383">
        <ele>287.4</ele>
        <time>2024-04-16T04:49:46Z</time>
      </trkpt>
      <trkpt lat="50.01715" lon="4.3138">
        <ele>287.4</ele>
        <time>2024-04-16T04:49:47Z</time>
      </trkpt>
      <trkpt lat="50.0171" lon="4.31376">
        <ele>287.6</ele>
        <time>2024-04-16T04:49:48Z</time>
      </trkpt>
      <trkpt lat="50.01705" lon="4.31373">
        <ele>287.8</ele>
        <time>2024-04-16T04:49:49Z</time>
      </trkpt>
      <trkpt lat="50.017" lon="4.31371">
        <ele>287.8</ele>
        <time>2024-04-16T04:49:50Z</time>
      </trkpt>
      <trkpt lat="50.01695" lon="4.31368">
        <ele>287.8</ele>
        <time>2024-04-16T04:49:51Z</time>
      </trkpt>
      <trkpt lat="50.0169" lon="4.31366">
        <ele>288</ele>
        <time>2024-04-16T04:49:52Z</time>
      </trkpt>
      <trkpt lat="50.01685" lon="4.31363">
        <ele>287.8</ele>
        <time>2024-04-16T04:49:53Z</time>
      </trkpt>
      <trkpt lat="50.0168" lon="4.31361">
        <ele>288.2</ele>
        <time>2024-04-16T04:49:54Z</time>
      </trkpt>
      <trkpt lat="50.01675" lon="4.31359">
        <ele>288.4</ele>
        <time>2024-04-16T04:49:55Z</time>
      </trkpt>
      <trkpt lat="50.0167" lon="4.31356">
        <ele>288.6</ele>
        <time>2024-04-16T04:49:56Z</time>
      </trkpt>
      <trkpt lat="50.01665" lon="4.31353">
        <ele>289.2</ele>
        <time>2024-04-16T04:49:57Z</time>
      </trkpt>
      <trkpt lat="50.0166" lon="4.3135">
        <ele>289.4</ele>
        <time>2024-04-16T04:49:58Z</time>
      </trkpt>
      <trkpt lat="50.01655" lon="4.31347">
        <ele>289.8</ele>
        <time>2024-04-16T04:49:59Z</time>
      </trkpt>
      <trkpt lat="50.0165" lon="4.31344">
        <ele>290</ele>
        <time>2024-04-16T04:50:00Z</time>
      </trkpt>
      <trkpt lat="50.01646" lon="4.31341">
        <ele>290</ele>
        <time>2024-04-16T04:50:01Z</time>
      </trkpt>
      <trkpt lat="50.01641" lon="4.31337">
        <ele>290.2</ele>
        <time>2024-04-16T04:50:02Z</time>
      </trkpt>
      <trkpt lat="50.01636" lon="4.31332">
        <ele>290.2</ele>
        <time>2024-04-16T04:50:03Z</time>
      </trkpt>
      <trkpt lat="50.01632" lon="4.31328">
        <ele>290.6</ele>
        <time>2024-04-16T04:50:04Z</time>
      </trkpt>
      <trkpt lat="50.01627" lon="4.31324">
        <ele>290.4</ele>
        <time>2024-04-16T04:50:05Z</time>
      </trkpt>
      <trkpt lat="50.01623" lon="4.31319">
        <ele>290.8</ele>
        <time>2024-04-16T04:50:06Z</time>
      </trkpt>
      <trkpt lat="50.01619" lon="4.31315">
        <ele>291.2</ele>
        <time>2024-04-16T04:50:07Z</time>
      </trkpt>
      <trkpt lat="50.01615" lon="4.31311">
        <ele>291.2</ele>
        <time>2024-04-16T04:50:08Z</time>
      </trkpt>
      <trkpt lat="50.01611" lon="4.31306">
        <ele>291.4</ele>
        <time>2024-04-16T04:50:09Z</time>
      </trkpt>
      <trkpt lat="50.01607" lon="4.31302">
        <ele>291.6</ele>
        <time>2024-04-16T04:50:10Z</time>
      </trkpt>
      <trkpt lat="50.01602" lon="4.31298">
        <ele>291.8</ele>
        <time>2024-04-16T04:50:11Z</time>
      </trkpt>
      <trkpt lat="50.01598" lon="4.31294">
        <ele>292</ele>
        <time>2024-04-16T04:50:12Z</time>
      </trkpt>
      <trkpt lat="50.01594" lon="4.3129">
        <ele>292</ele>
        <time>2024-04-16T04:50:13Z</time>
      </trkpt>
      <trkpt lat="50.0159" lon="4.31286">
        <ele>292.4</ele>
        <time>2024-04-16T04:50:14Z</time>
      </trkpt>
      <trkpt lat="50.01587" lon="4.3128">
        <ele>292.6</ele>
        <time>2024-04-16T04:50:15Z</time>
      </trkpt>
      <trkpt lat="50.01585" lon="4.31273">
        <ele>292.8</ele>
        <time>2024-04-16T04:50:16Z</time>
      </trkpt>
      <trkpt lat="50.01583" lon="4.31266">
        <ele>292.8</ele>
        <time>2024-04-16T04:50:17Z</time>
      </trkpt>
      <trkpt lat="50.01583" lon="4.31259">
        <ele>293.2</ele>
        <time>2024-04-16T04:50:18Z</time>
      </trkpt>
      <trkpt lat="50.01583" lon="4.31251">
        <ele>293.2</ele>
        <time>2024-04-16T04:50:19Z</time>
      </trkpt>
      <trkpt lat="50.01584" lon="4.31242">
        <ele>293.8</ele>
        <time>2024-04-16T04:50:20Z</time>
      </trkpt>
      <trkpt lat="50.01585" lon="4.31233">
        <ele>293.8</ele>
        <time>2024-04-16T04:50:21Z</time>
      </trkpt>
      <trkpt lat="50.01586" lon="4.31225">
        <ele>293.8</ele>
        <time>2024-04-16T04:50:22Z</time>
      </trkpt>
      <trkpt lat="50.01588" lon="4.31216">
        <ele>294</ele>
        <time>2024-04-16T04:50:23Z</time>
      </trkpt>
      <trkpt lat="50.0159" lon="4.31207">
        <ele>294</ele>
        <time>2024-04-16T04:50:24Z</time>
      </trkpt>
      <trkpt lat="50.01592" lon="4.31198">
        <ele>294</ele>
        <time>2024-04-16T04:50:25Z</time>
      </trkpt>
      <trkpt lat="50.01593" lon="4.31189">
        <ele>294</ele>
        <time>2024-04-16T04:50:26Z</time>
      </trkpt>
      <trkpt lat="50.01595" lon="4.31181">
        <ele>294.2</ele>
        <time>2024-04-16T04:50:27Z</time>
      </trkpt>
      <trkpt lat="50.01597" lon="4.31172">
        <ele>294</ele>
        <time>2024-04-16T04:50:28Z</time>
      </trkpt>
      <trkpt lat="50.01599" lon="4.31163">
        <ele>294.2</ele>
        <time>2024-04-16T04:50:29Z</time>
      </trkpt>
      <trkpt lat="50.01601" lon="4.31153">
        <ele>294.2</ele>
        <time>2024-04-16T04:50:30Z</time>
      </trkpt>
      <trkpt lat="50.01604" lon="4.31143">
        <ele>294</ele>
        <time>2024-04-16T04:50:31Z</time>
      </trkpt>
      <trkpt lat="50.01606" lon="4.31133">
        <ele>294</ele>
        <time>2024-04-16T04:50:32Z</time>
      </trkpt>
      <trkpt lat="50.01609" lon="4.31123">
        <ele>294</ele>
        <time>2024-04-16T04:50:33Z</time>
      </trkpt>
      <trkpt lat="50.01611" lon="4.31113">
        <ele>294</ele>
        <time>2024-04-16T04:50:34Z</time>
      </trkpt>
      <trkpt lat="50.01614" lon="4.31102">
        <ele>293.8</ele>
        <time>2024-04-16T04:50:35Z</time>
      </trkpt>
      <trkpt lat="50.01616" lon="4.31091">
        <ele>293.6</ele>
        <time>2024-04-16T04:50:36Z</time>
      </trkpt>
      <trkpt lat="50.01619" lon="4.3108">
        <ele>293.6</ele>
        <time>2024-04-16T04:50:37Z</time>
      </trkpt>
      <trkpt lat="50.01621" lon="4.3107">
        <ele>293.2</ele>
        <time>2024-04-16T04:50:38Z</time>
      </trkpt>
      <trkpt lat="50.01623" lon="4.31059">
        <ele>293.2</ele>
        <time>2024-04-16T04:50:39Z</time>
      </trkpt>
      <trkpt lat="50.01626" lon="4.31048">
        <ele>293</ele>
        <time>2024-04-16T04:50:40Z</time>
      </trkpt>
      <trkpt lat="50.01629" lon="4.31037">
        <ele>292.8</ele>
        <time>2024-04-16T04:50:41Z</time>
      </trkpt>
      <trkpt lat="50.01632" lon="4.31026">
        <ele>292.6</ele>
        <time>2024-04-16T04:50:42Z</time>
      </trkpt>
      <trkpt lat="50.01634" lon="4.31015">
        <ele>292.2</ele>
        <time>2024-04-16T04:50:43Z</time>
      </trkpt>
      <trkpt lat="50.01637" lon="4.31004">
        <ele>291.8</ele>
        <time>2024-04-16T04:50:44Z</time>
      </trkpt>
      <trkpt lat="50.01639" lon="4.30992">
        <ele>291.6</ele>
        <time>2024-04-16T04:50:45Z</time>
      </trkpt>
      <trkpt lat="50.01641" lon="4.3098">
        <ele>291.6</ele>
        <time>2024-04-16T04:50:46Z</time>
      </trkpt>
      <trkpt lat="50.01644" lon="4.30969">
        <ele>291.4</ele>
        <time>2024-04-16T04:50:47Z</time>
      </trkpt>
      <trkpt lat="50.01646" lon="4.30957">
        <ele>291.2</ele>
        <time>2024-04-16T04:50:48Z</time>
      </trkpt>
      <trkpt lat="50.01648" lon="4.30945">
        <ele>290.8</ele>
        <time>2024-04-16T04:50:49Z</time>
      </trkpt>
      <trkpt lat="50.01651" lon="4.30933">
        <ele>290</ele>
        <time>2024-04-16T04:50:50Z</time>
      </trkpt>
      <trkpt lat="50.01653" lon="4.30921">
        <ele>289.4</ele>
        <time>2024-04-16T04:50:51Z</time>
      </trkpt>
      <trkpt lat="50.01656" lon="4.30909">
        <ele>289.2</ele>
        <time>2024-04-16T04:50:52Z</time>
      </trkpt>
      <trkpt lat="50.01658" lon="4.30897">
        <ele>288.8</ele>
        <time>2024-04-16T04:50:53Z</time>
      </trkpt>
      <trkpt lat="50.01661" lon="4.30885">
        <ele>288.4</ele>
        <time>2024-04-16T04:50:54Z</time>
      </trkpt>
      <trkpt lat="50.01664" lon="4.30873">
        <ele>288.4</ele>
        <time>2024-04-16T04:50:55Z</time>
      </trkpt>
      <trkpt lat="50.01666" lon="4.30861">
        <ele>288.4</ele>
        <time>2024-04-16T04:50:56Z</time>
      </trkpt>
      <trkpt lat="50.01668" lon="4.30849">
        <ele>288.2</ele>
        <time>2024-04-16T04:50:57Z</time>
      </trkpt>
      <trkpt lat="50.01671" lon="4.30837">
        <ele>288</ele>
        <time>2024-04-16T04:50:58Z</time>
      </trkpt>
      <trkpt lat="50.01674" lon="4.30825">
        <ele>287.8</ele>
        <time>2024-04-16T04:50:59Z</time>
      </trkpt>
      <trkpt lat="50.01676" lon="4.30814">
        <ele>287.8</ele>
        <time>2024-04-16T04:51:00Z</time>
      </trkpt>
      <trkpt lat="50.01679" lon="4.30802">
        <ele>287.6</ele>
        <time>2024-04-16T04:51:01Z</time>
      </trkpt>
      <trkpt lat="50.01682" lon="4.3079">
        <ele>287.6</ele>
        <time>2024-04-16T04:51:02Z</time>
      </trkpt>
      <trkpt lat="50.01684" lon="4.30779">
        <ele>287.6</ele>
        <time>2024-04-16T04:51:03Z</time>
      </trkpt>
      <trkpt lat="50.01687" lon="4.30768">
        <ele>287.4</ele>
        <time>2024-04-16T04:51:04Z</time>
      </trkpt>
      <trkpt lat="50.01689" lon="4.30758">
        <ele>287.4</ele>
        <time>2024-04-16T04:51:05Z</time>
      </trkpt>
      <trkpt lat="50.01691" lon="4.30747">
        <ele>287.6</ele>
        <time>2024-04-16T04:51:06Z</time>
      </trkpt>
      <trkpt lat="50.01693" lon="4.30737">
        <ele>287.4</ele>
        <time>2024-04-16T04:51:07Z</time>
      </trkpt>
      <trkpt lat="50.01695" lon="4.30727">
        <ele>287.6</ele>
        <time>2024-04-16T04:51:08Z</time>
      </trkpt>
      <trkpt lat="50.01697" lon="4.30717">
        <ele>287.6</ele>
        <time>2024-04-16T04:51:09Z</time>
      </trkpt>
      <trkpt lat="50.01699" lon="4.30708">
        <ele>287.6</ele>
        <time>2024-04-16T04:51:10Z</time>
      </trkpt>
      <trkpt lat="50.01702" lon="4.30698">
        <ele>287.6</ele>
        <time>2024-04-16T04:51:11Z</time>
      </trkpt>
      <trkpt lat="50.01704" lon="4.30688">
        <ele>287.6</ele>
        <time>2024-04-16T04:51:12Z</time>
      </trkpt>
      <trkpt lat="50.01706" lon="4.30678">
        <ele>287.6</ele>
        <time>2024-04-16T04:51:13Z</time>
      </trkpt>
      <trkpt lat="50.01708" lon="4.30668">
        <ele>287.8</ele>
        <time>2024-04-16T04:51:14Z</time>
      </trkpt>
      <trkpt lat="50.0171" lon="4.30658">
        <ele>287.8</ele>
        <time>2024-04-16T04:51:15Z</time>
      </trkpt>
      <trkpt lat="50.01712" lon="4.30648">
        <ele>287.8</ele>
        <time>2024-04-16T04:51:16Z</time>
      </trkpt>
      <trkpt lat="50.01714" lon="4.30638">
        <ele>287.8</ele>
        <time>2024-04-16T04:51:17Z</time>
      </trkpt>
      <trkpt lat="50.01716" lon="4.30628">
        <ele>287.8</ele>
        <time>2024-04-16T04:51:18Z</time>
      </trkpt>
      <trkpt lat="50.01718" lon="4.30618">
        <ele>287.8</ele>
        <time>2024-04-16T04:51:19Z</time>
      </trkpt>
      <trkpt lat="50.0172" lon="4.30608">
        <ele>288</ele>
        <time>2024-04-16T04:51:20Z</time>
      </trkpt>
      <trkpt lat="50.01722" lon="4.30599">
        <ele>288.2</ele>
        <time>2024-04-16T04:51:21Z</time>
      </trkpt>
      <trkpt lat="50.01724" lon="4.3059">
        <ele>288.2</ele>
        <time>2024-04-16T04:51:22Z</time>
      </trkpt>
      <trkpt lat="50.01726" lon="4.3058">
        <ele>288.2</ele>
        <time>2024-04-16T04:51:23Z</time>
      </trkpt>
      <trkpt lat="50.01728" lon="4.30571">
        <ele>288.4</ele>
        <time>2024-04-16T04:51:24Z</time>
      </trkpt>
      <trkpt lat="50.0173" lon="4.30561">
        <ele>288.2</ele>
        <time>2024-04-16T04:51:25Z</time>
      </trkpt>
      <trkpt lat="50.01732" lon="4.30552">
        <ele>288.4</ele>
        <time>2024-04-16T04:51:26Z</time>
      </trkpt>
      <trkpt lat="50.01734" lon="4.30542">
        <ele>288.4</ele>
        <time>2024-04-16T04:51:27Z</time>
      </trkpt>
      <trkpt lat="50.01736" lon="4.30533">
        <ele>288.6</ele>
        <time>2024-04-16T04:51:28Z</time>
      </trkpt>
      <trkpt lat="50.01738" lon="4.30523">
        <ele>288.8</ele>
        <time>2024-04-16T04:51:29Z</time>
      </trkpt>
      <trkpt lat="50.0174" lon="4.30514">
        <ele>288.8</ele>
        <time>2024-04-16T04:51:30Z</time>
      </trkpt>
      <trkpt lat="50.01742" lon="4.30504">
        <ele>289</ele>
        <time>2024-04-16T04:51:31Z</time>
      </trkpt>
      <trkpt lat="50.01744" lon="4.30495">
        <ele>289.2</ele>
        <time>2024-04-16T04:51:32Z</time>
      </trkpt>
      <trkpt lat="50.01746" lon="4.30485">
        <ele>289.4</ele>
        <time>2024-04-16T04:51:33Z</time>
      </trkpt>
      <trkpt lat="50.01748" lon="4.30475">
        <ele>289.8</ele>
        <time>2024-04-16T04:51:34Z</time>
      </trkpt>
      <trkpt lat="50.0175" lon="4.30465">
        <ele>289.8</ele>
        <time>2024-04-16T04:51:35Z</time>
      </trkpt>
      <trkpt lat="50.01752" lon="4.30456">
        <ele>290</ele>
        <time>2024-04-16T04:51:36Z</time>
      </trkpt>
      <trkpt lat="50.01754" lon="4.30446">
        <ele>290</ele>
        <time>2024-04-16T04:51:37Z</time>
      </trkpt>
      <trkpt lat="50.01756" lon="4.30437">
        <ele>290</ele>
        <time>2024-04-16T04:51:38Z</time>
      </trkpt>
      <trkpt lat="50.01757" lon="4.30429">
        <ele>290.2</ele>
        <time>2024-04-16T04:51:39Z</time>
      </trkpt>
      <trkpt lat="50.01759" lon="4.3042">
        <ele>290.2</ele>
        <time>2024-04-16T04:51:40Z</time>
      </trkpt>
      <trkpt lat="50.0176" lon="4.30412">
        <ele>290.2</ele>
        <time>2024-04-16T04:51:41Z</time>
      </trkpt>
      <trkpt lat="50.0176" lon="4.30404">
        <ele>290.6</ele>
        <time>2024-04-16T04:51:42Z</time>
      </trkpt>
      <trkpt lat="50.0176" lon="4.30395">
        <ele>290.8</ele>
        <time>2024-04-16T04:51:43Z</time>
      </trkpt>
      <trkpt lat="50.01759" lon="4.30387">
        <ele>291</ele>
        <time>2024-04-16T04:51:44Z</time>
      </trkpt>
      <trkpt lat="50.01758" lon="4.30378">
        <ele>291</ele>
        <time>2024-04-16T04:51:45Z</time>
      </trkpt>
      <trkpt lat="50.01756" lon="4.30369">
        <ele>291</ele>
        <time>2024-04-16T04:51:46Z</time>
      </trkpt>
      <trkpt lat="50.01754" lon="4.3036">
        <ele>291</ele>
        <time>2024-04-16T04:51:47Z</time>
      </trkpt>
      <trkpt lat="50.01752" lon="4.30351">
        <ele>291.2</ele>
        <time>2024-04-16T04:51:48Z</time>
      </trkpt>
      <trkpt lat="50.0175" lon="4.30341">
        <ele>291</ele>
        <time>2024-04-16T04:51:49Z</time>
      </trkpt>
      <trkpt lat="50.01748" lon="4.30332">
        <ele>291.2</ele>
        <time>2024-04-16T04:51:50Z</time>
      </trkpt>
      <trkpt lat="50.01746" lon="4.30323">
        <ele>291.2</ele>
        <time>2024-04-16T04:51:51Z</time>
      </trkpt>
      <trkpt lat="50.01743" lon="4.30315">
        <ele>291.2</ele>
        <time>2024-04-16T04:51:52Z</time>
      </trkpt>
      <trkpt lat="50.01741" lon="4.30306">
        <ele>291.2</ele>
        <time>2024-04-16T04:51:53Z</time>
      </trkpt>
      <trkpt lat="50.0174" lon="4.30297">
        <ele>291</ele>
        <time>2024-04-16T04:51:54Z</time>
      </trkpt>
      <trkpt lat="50.01738" lon="4.30288">
        <ele>291.2</ele>
        <time>2024-04-16T04:51:55Z</time>
      </trkpt>
      <trkpt lat="50.01736" lon="4.30279">
        <ele>291.4</ele>
        <time>2024-04-16T04:51:56Z</time>
      </trkpt>
      <trkpt lat="50.01734" lon="4.30271">
        <ele>291.4</ele>
        <time>2024-04-16T04:51:57Z</time>
      </trkpt>
      <trkpt lat="50.01732" lon="4.30262">
        <ele>291.4</ele>
        <time>2024-04-16T04:51:58Z</time>
      </trkpt>
      <trkpt lat="50.01731" lon="4.30252">
        <ele>291.4</ele>
        <time>2024-04-16T04:51:59Z</time>
      </trkpt>
      <trkpt lat="50.01729" lon="4.30243">
        <ele>291.6</ele>
        <time>2024-04-16T04:52:00Z</time>
      </trkpt>
      <trkpt lat="50.01727" lon="4.30234">
        <ele>291.6</ele>
        <time>2024-04-16T04:52:01Z</time>
      </trkpt>
      <trkpt lat="50.01725" lon="4.30225">
        <ele>291.4</ele>
        <time>2024-04-16T04:52:02Z</time>
      </trkpt>
      <trkpt lat="50.01723" lon="4.30215">
        <ele>291.4</ele>
        <time>2024-04-16T04:52:03Z</time>
      </trkpt>
      <trkpt lat="50.01721" lon="4.30206">
        <ele>291.6</ele>
        <time>2024-04-16T04:52:04Z</time>
      </trkpt>
      <trkpt lat="50.01719" lon="4.30196">
        <ele>291.6</ele>
        <time>2024-04-16T04:52:05Z</time>
      </trkpt>
      <trkpt lat="50.01717" lon="4.30187">
        <ele>291.6</ele>
        <time>2024-04-16T04:52:06Z</time>
      </trkpt>
      <trkpt lat="50.01715" lon="4.30177">
        <ele>291.6</ele>
        <time>2024-04-16T04:52:07Z</time>
      </trkpt>
      <trkpt lat="50.01713" lon="4.30167">
        <ele>291.8</ele>
        <time>2024-04-16T04:52:08Z</time>
      </trkpt>
      <trkpt lat="50.01711" lon="4.30157">
        <ele>291.8</ele>
        <time>2024-04-16T04:52:09Z</time>
      </trkpt>
      <trkpt lat="50.01708" lon="4.30147">
        <ele>291.8</ele>
        <time>2024-04-16T04:52:10Z</time>
      </trkpt>
      <trkpt lat="50.01706" lon="4.30137">
        <ele>291.8</ele>
        <time>2024-04-16T04:52:11Z</time>
      </trkpt>
      <trkpt lat="50.01704" lon="4.30128">
        <ele>291.8</ele>
        <time>2024-04-16T04:52:12Z</time>
      </trkpt>
      <trkpt lat="50.01701" lon="4.30118">
        <ele>291.8</ele>
        <time>2024-04-16T04:52:13Z</time>
      </trkpt>
      <trkpt lat="50.01699" lon="4.30108">
        <ele>291.8</ele>
        <time>2024-04-16T04:52:14Z</time>
      </trkpt>
      <trkpt lat="50.01696" lon="4.30098">
        <ele>291.6</ele>
        <time>2024-04-16T04:52:15Z</time>
      </trkpt>
      <trkpt lat="50.01694" lon="4.30088">
        <ele>291.6</ele>
        <time>2024-04-16T04:52:16Z</time>
      </trkpt>
      <trkpt lat="50.01691" lon="4.30078">
        <ele>291.6</ele>
        <time>2024-04-16T04:52:17Z</time>
      </trkpt>
      <trkpt lat="50.01689" lon="4.30068">
        <ele>291.6</ele>
        <time>2024-04-16T04:52:18Z</time>
      </trkpt>
      <trkpt lat="50.01687" lon="4.30058">
        <ele>291.8</ele>
        <time>2024-04-16T04:52:19Z</time>
      </trkpt>
      <trkpt lat="50.01684" lon="4.30047">
        <ele>291.8</ele>
        <time>2024-04-16T04:52:20Z</time>
      </trkpt>
      <trkpt lat="50.01682" lon="4.30037">
        <ele>291.8</ele>
        <time>2024-04-16T04:52:21Z</time>
      </trkpt>
      <trkpt lat="50.01679" lon="4.30027">
        <ele>291.8</ele>
        <time>2024-04-16T04:52:22Z</time>
      </trkpt>
      <trkpt lat="50.01677" lon="4.30017">
        <ele>291.8</ele>
        <time>2024-04-16T04:52:23Z</time>
      </trkpt>
      <trkpt lat="50.01675" lon="4.30007">
        <ele>291.8</ele>
        <time>2024-04-16T04:52:24Z</time>
      </trkpt>
      <trkpt lat="50.01673" lon="4.29997">
        <ele>291.8</ele>
        <time>2024-04-16T04:52:25Z</time>
      </trkpt>
      <trkpt lat="50.01671" lon="4.29987">
        <ele>291.8</ele>
        <time>2024-04-16T04:52:26Z</time>
      </trkpt>
      <trkpt lat="50.01669" lon="4.29978">
        <ele>291.8</ele>
        <time>2024-04-16T04:52:27Z</time>
      </trkpt>
      <trkpt lat="50.01667" lon="4.29969">
        <ele>292</ele>
        <time>2024-04-16T04:52:28Z</time>
      </trkpt>
      <trkpt lat="50.01665" lon="4.29959">
        <ele>292.2</ele>
        <time>2024-04-16T04:52:29Z</time>
      </trkpt>
      <trkpt lat="50.01663" lon="4.2995">
        <ele>292.4</ele>
        <time>2024-04-16T04:52:30Z</time>
      </trkpt>
      <trkpt lat="50.01661" lon="4.29941">
        <ele>292.6</ele>
        <time>2024-04-16T04:52:31Z</time>
      </trkpt>
      <trkpt lat="50.0166" lon="4.29932">
        <ele>292.8</ele>
        <time>2024-04-16T04:52:32Z</time>
      </trkpt>
      <trkpt lat="50.01658" lon="4.29922">
        <ele>292.8</ele>
        <time>2024-04-16T04:52:33Z</time>
      </trkpt>
      <trkpt lat="50.01656" lon="4.29912">
        <ele>292.8</ele>
        <time>2024-04-16T04:52:34Z</time>
      </trkpt>
      <trkpt lat="50.01654" lon="4.29901">
        <ele>293</ele>
        <time>2024-04-16T04:52:35Z</time>
      </trkpt>
      <trkpt lat="50.01652" lon="4.2989">
        <ele>293</ele>
        <time>2024-04-16T04:52:36Z</time>
      </trkpt>
      <trkpt lat="50.01649" lon="4.29881">
        <ele>292.8</ele>
        <time>2024-04-16T04:52:37Z</time>
      </trkpt>
      <trkpt lat="50.01647" lon="4.2987">
        <ele>292.6</ele>
        <time>2024-04-16T04:52:38Z</time>
      </trkpt>
      <trkpt lat="50.01645" lon="4.2986">
        <ele>292.2</ele>
        <time>2024-04-16T04:52:39Z</time>
      </trkpt>
      <trkpt lat="50.01642" lon="4.29849">
        <ele>292</ele>
        <time>2024-04-16T04:52:40Z</time>
      </trkpt>
      <trkpt lat="50.0164" lon="4.2984">
        <ele>291.8</ele>
        <time>2024-04-16T04:52:41Z</time>
      </trkpt>
      <trkpt lat="50.01638" lon="4.2983">
        <ele>291.8</ele>
        <time>2024-04-16T04:52:42Z</time>
      </trkpt>
      <trkpt lat="50.01636" lon="4.2982">
        <ele>291.6</ele>
        <time>2024-04-16T04:52:43Z</time>
      </trkpt>
      <trkpt lat="50.01634" lon="4.2981">
        <ele>291.4</ele>
        <time>2024-04-16T04:52:44Z</time>
      </trkpt>
      <trkpt lat="50.01632" lon="4.298">
        <ele>291.4</ele>
        <time>2024-04-16T04:52:45Z</time>
      </trkpt>
      <trkpt lat="50.0163" lon="4.2979">
        <ele>291.4</ele>
        <time>2024-04-16T04:52:46Z</time>
      </trkpt>
      <trkpt lat="50.01628" lon="4.2978">
        <ele>291.4</ele>
        <time>2024-04-16T04:52:47Z</time>
      </trkpt>
      <trkpt lat="50.01626" lon="4.29771">
        <ele>291.2</ele>
        <time>2024-04-16T04:52:48Z</time>
      </trkpt>
      <trkpt lat="50.01624" lon="4.29761">
        <ele>291.2</ele>
        <time>2024-04-16T04:52:49Z</time>
      </trkpt>
      <trkpt lat="50.01622" lon="4.29752">
        <ele>291.2</ele>
        <time>2024-04-16T04:52:50Z</time>
      </trkpt>
      <trkpt lat="50.01621" lon="4.29742">
        <ele>291.2</ele>
        <time>2024-04-16T04:52:51Z</time>
      </trkpt>
      <trkpt lat="50.01619" lon="4.29732">
        <ele>291.2</ele>
        <time>2024-04-16T04:52:52Z</time>
      </trkpt>
      <trkpt lat="50.01617" lon="4.29722">
        <ele>291.2</ele>
        <time>2024-04-16T04:52:53Z</time>
      </trkpt>
      <trkpt lat="50.01615" lon="4.29712">
        <ele>291.4</ele>
        <time>2024-04-16T04:52:54Z</time>
      </trkpt>
      <trkpt lat="50.01613" lon="4.29703">
        <ele>291.2</ele>
        <time>2024-04-16T04:52:55Z</time>
      </trkpt>
      <trkpt lat="50.01611" lon="4.29693">
        <ele>291.4</ele>
        <time>2024-04-16T04:52:56Z</time>
      </trkpt>
      <trkpt lat="50.01609" lon="4.29683">
        <ele>291.4</ele>
        <time>2024-04-16T04:52:57Z</time>
      </trkpt>
      <trkpt lat="50.01606" lon="4.29673">
        <ele>291.2</ele>
        <time>2024-04-16T04:52:58Z</time>
      </trkpt>
      <trkpt lat="50.01605" lon="4.29663">
        <ele>291.4</ele>
        <time>2024-04-16T04:52:59Z</time>
      </trkpt>
      <trkpt lat="50.01602" lon="4.29653">
        <ele>291.4</ele>
        <time>2024-04-16T04:53:00Z</time>
      </trkpt>
      <trkpt lat="50.016" lon="4.29643">
        <ele>291.4</ele>
        <time>2024-04-16T04:53:01Z</time>
      </trkpt>
      <trkpt lat="50.01598" lon="4.29632">
        <ele>291.4</ele>
        <time>2024-04-16T04:53:02Z</time>
      </trkpt>
      <trkpt lat="50.01596" lon="4.29622">
        <ele>291.2</ele>
        <time>2024-04-16T04:53:03Z</time>
      </trkpt>
      <trkpt lat="50.01594" lon="4.29611">
        <ele>291.2</ele>
        <time>2024-04-16T04:53:04Z</time>
      </trkpt>
      <trkpt lat="50.01592" lon="4.29599">
        <ele>290.8</ele>
        <time>2024-04-16T04:53:05Z</time>
      </trkpt>
      <trkpt lat="50.01589" lon="4.29588">
        <ele>290.8</ele>
        <time>2024-04-16T04:53:06Z</time>
      </trkpt>
      <trkpt lat="50.01587" lon="4.29576">
        <ele>290.6</ele>
        <time>2024-04-16T04:53:07Z</time>
      </trkpt>
      <trkpt lat="50.01584" lon="4.29565">
        <ele>290.4</ele>
        <time>2024-04-16T04:53:08Z</time>
      </trkpt>
      <trkpt lat="50.01582" lon="4.29554">
        <ele>290.4</ele>
        <time>2024-04-16T04:53:09Z</time>
      </trkpt>
      <trkpt lat="50.0158" lon="4.29543">
        <ele>290.4</ele>
        <time>2024-04-16T04:53:10Z</time>
      </trkpt>
      <trkpt lat="50.01578" lon="4.29533">
        <ele>290.2</ele>
        <time>2024-04-16T04:53:11Z</time>
      </trkpt>
      <trkpt lat="50.01575" lon="4.29523">
        <ele>290.2</ele>
        <time>2024-04-16T04:53:12Z</time>
      </trkpt>
      <trkpt lat="50.01573" lon="4.29512">
        <ele>290.2</ele>
        <time>2024-04-16T04:53:13Z</time>
      </trkpt>
      <trkpt lat="50.01571" lon="4.29502">
        <ele>290.2</ele>
        <time>2024-04-16T04:53:14Z</time>
      </trkpt>
      <trkpt lat="50.01569" lon="4.29492">
        <ele>290.2</ele>
        <time>2024-04-16T04:53:15Z</time>
      </trkpt>
      <trkpt lat="50.01566" lon="4.29482">
        <ele>290</ele>
        <time>2024-04-16T04:53:16Z</time>
      </trkpt>
      <trkpt lat="50.01564" lon="4.29472">
        <ele>290</ele>
        <time>2024-04-16T04:53:17Z</time>
      </trkpt>
      <trkpt lat="50.01562" lon="4.29462">
        <ele>290</ele>
        <time>2024-04-16T04:53:18Z</time>
      </trkpt>
      <trkpt lat="50.0156" lon="4.29452">
        <ele>290</ele>
        <time>2024-04-16T04:53:19Z</time>
      </trkpt>
      <trkpt lat="50.01557" lon="4.29442">
        <ele>290</ele>
        <time>2024-04-16T04:53:20Z</time>
      </trkpt>
      <trkpt lat="50.01555" lon="4.29432">
        <ele>290</ele>
        <time>2024-04-16T04:53:21Z</time>
      </trkpt>
      <trkpt lat="50.01553" lon="4.29422">
        <ele>290</ele>
        <time>2024-04-16T04:53:22Z</time>
      </trkpt>
      <trkpt lat="50.01551" lon="4.29412">
        <ele>289.8</ele>
        <time>2024-04-16T04:53:23Z</time>
      </trkpt>
      <trkpt lat="50.01548" lon="4.29402">
        <ele>289.6</ele>
        <time>2024-04-16T04:53:24Z</time>
      </trkpt>
      <trkpt lat="50.01546" lon="4.29392">
        <ele>289.6</ele>
        <time>2024-04-16T04:53:25Z</time>
      </trkpt>
      <trkpt lat="50.01544" lon="4.29382">
        <ele>289</ele>
        <time>2024-04-16T04:53:26Z</time>
      </trkpt>
      <trkpt lat="50.01542" lon="4.29372">
        <ele>288.6</ele>
        <time>2024-04-16T04:53:27Z</time>
      </trkpt>
      <trkpt lat="50.0154" lon="4.29362">
        <ele>288.2</ele>
        <time>2024-04-16T04:53:28Z</time>
      </trkpt>
      <trkpt lat="50.01537" lon="4.29352">
        <ele>288.2</ele>
        <time>2024-04-16T04:53:29Z</time>
      </trkpt>
      <trkpt lat="50.01535" lon="4.29342">
        <ele>288</ele>
        <time>2024-04-16T04:53:30Z</time>
      </trkpt>
      <trkpt lat="50.01533" lon="4.29332">
        <ele>288</ele>
        <time>2024-04-16T04:53:31Z</time>
      </trkpt>
      <trkpt lat="50.01531" lon="4.29322">
        <ele>288</ele>
        <time>2024-04-16T04:53:32Z</time>
      </trkpt>
      <trkpt lat="50.01529" lon="4.29312">
        <ele>288</ele>
        <time>2024-04-16T04:53:33Z</time>
      </trkpt>
      <trkpt lat="50.01527" lon="4.29303">
        <ele>288</ele>
        <time>2024-04-16T04:53:34Z</time>
      </trkpt>
      <trkpt lat="50.01525" lon="4.29293">
        <ele>288</ele>
        <time>2024-04-16T04:53:35Z</time>
      </trkpt>
      <trkpt lat="50.01523" lon="4.29284">
        <ele>288</ele>
        <time>2024-04-16T04:53:36Z</time>
      </trkpt>
      <trkpt lat="50.01521" lon="4.29274">
        <ele>288</ele>
        <time>2024-04-16T04:53:37Z</time>
      </trkpt>
      <trkpt lat="50.01519" lon="4.29264">
        <ele>288</ele>
        <time>2024-04-16T04:53:38Z</time>
      </trkpt>
      <trkpt lat="50.01516" lon="4.29254">
        <ele>288</ele>
        <time>2024-04-16T04:53:39Z</time>
      </trkpt>
      <trkpt lat="50.01514" lon="4.29243">
        <ele>287.8</ele>
        <time>2024-04-16T04:53:40Z</time>
      </trkpt>
      <trkpt lat="50.01511" lon="4.29233">
        <ele>287.8</ele>
        <time>2024-04-16T04:53:41Z</time>
      </trkpt>
      <trkpt lat="50.01509" lon="4.29223">
        <ele>287.6</ele>
        <time>2024-04-16T04:53:42Z</time>
      </trkpt>
      <trkpt lat="50.01506" lon="4.29213">
        <ele>287.4</ele>
        <time>2024-04-16T04:53:43Z</time>
      </trkpt>
      <trkpt lat="50.01504" lon="4.29204">
        <ele>287.4</ele>
        <time>2024-04-16T04:53:44Z</time>
      </trkpt>
      <trkpt lat="50.01502" lon="4.29194">
        <ele>287.4</ele>
        <time>2024-04-16T04:53:45Z</time>
      </trkpt>
      <trkpt lat="50.015" lon="4.29184">
        <ele>287.4</ele>
        <time>2024-04-16T04:53:46Z</time>
      </trkpt>
      <trkpt lat="50.01498" lon="4.29174">
        <ele>287.6</ele>
        <time>2024-04-16T04:53:47Z</time>
      </trkpt>
      <trkpt lat="50.01496" lon="4.29164">
        <ele>287.8</ele>
        <time>2024-04-16T04:53:48Z</time>
      </trkpt>
      <trkpt lat="50.01494" lon="4.29155">
        <ele>287.6</ele>
        <time>2024-04-16T04:53:49Z</time>
      </trkpt>
      <trkpt lat="50.01492" lon="4.29145">
        <ele>287.8</ele>
        <time>2024-04-16T04:53:50Z</time>
      </trkpt>
      <trkpt lat="50.01489" lon="4.29135">
        <ele>287.8</ele>
        <time>2024-04-16T04:53:51Z</time>
      </trkpt>
      <trkpt lat="50.01487" lon="4.29124">
        <ele>288</ele>
        <time>2024-04-16T04:53:52Z</time>
      </trkpt>
      <trkpt lat="50.01485" lon="4.29114">
        <ele>288</ele>
        <time>2024-04-16T04:53:53Z</time>
      </trkpt>
      <trkpt lat="50.01483" lon="4.29104">
        <ele>287.8</ele>
        <time>2024-04-16T04:53:54Z</time>
      </trkpt>
      <trkpt lat="50.01481" lon="4.29094">
        <ele>288</ele>
        <time>2024-04-16T04:53:55Z</time>
      </trkpt>
      <trkpt lat="50.01478" lon="4.29084">
        <ele>287.8</ele>
        <time>2024-04-16T04:53:56Z</time>
      </trkpt>
      <trkpt lat="50.01476" lon="4.29074">
        <ele>287.6</ele>
        <time>2024-04-16T04:53:57Z</time>
      </trkpt>
      <trkpt lat="50.01475" lon="4.29064">
        <ele>287.6</ele>
        <time>2024-04-16T04:53:58Z</time>
      </trkpt>
      <trkpt lat="50.01473" lon="4.29054">
        <ele>287.4</ele>
        <time>2024-04-16T04:53:59Z</time>
      </trkpt>
      <trkpt lat="50.01471" lon="4.29044">
        <ele>287.2</ele>
        <time>2024-04-16T04:54:00Z</time>
      </trkpt>
      <trkpt lat="50.01469" lon="4.29034">
        <ele>287</ele>
        <time>2024-04-16T04:54:01Z</time>
      </trkpt>
      <trkpt lat="50.01467" lon="4.29024">
        <ele>287</ele>
        <time>2024-04-16T04:54:02Z</time>
      </trkpt>
      <trkpt lat="50.01465" lon="4.29014">
        <ele>287</ele>
        <time>2024-04-16T04:54:03Z</time>
      </trkpt>
      <trkpt lat="50.01463" lon="4.29004">
        <ele>287</ele>
        <time>2024-04-16T04:54:04Z</time>
      </trkpt>
      <trkpt lat="50.0146" lon="4.28994">
        <ele>287</ele>
        <time>2024-04-16T04:54:05Z</time>
      </trkpt>
      <trkpt lat="50.01458" lon="4.28984">
        <ele>286.8</ele>
        <time>2024-04-16T04:54:06Z</time>
      </trkpt>
      <trkpt lat="50.01456" lon="4.28974">
        <ele>286.8</ele>
        <time>2024-04-16T04:54:07Z</time>
      </trkpt>
      <trkpt lat="50.01454" lon="4.28963">
        <ele>287</ele>
        <time>2024-04-16T04:54:08Z</time>
      </trkpt>
      <trkpt lat="50.01452" lon="4.28953">
        <ele>286.8</ele>
        <time>2024-04-16T04:54:09Z</time>
      </trkpt>
      <trkpt lat="50.0145" lon="4.28942">
        <ele>286.8</ele>
        <time>2024-04-16T04:54:10Z</time>
      </trkpt>
      <trkpt lat="50.01448" lon="4.28932">
        <ele>286.8</ele>
        <time>2024-04-16T04:54:11Z</time>
      </trkpt>
      <trkpt lat="50.01446" lon="4.28922">
        <ele>286.8</ele>
        <time>2024-04-16T04:54:12Z</time>
      </trkpt>
      <trkpt lat="50.01444" lon="4.28912">
        <ele>286.8</ele>
        <time>2024-04-16T04:54:13Z</time>
      </trkpt>
      <trkpt lat="50.01441" lon="4.28902">
        <ele>286.6</ele>
        <time>2024-04-16T04:54:14Z</time>
      </trkpt>
      <trkpt lat="50.01439" lon="4.28893">
        <ele>286.6</ele>
        <time>2024-04-16T04:54:15Z</time>
      </trkpt>
      <trkpt lat="50.01437" lon="4.28883">
        <ele>286.6</ele>
        <time>2024-04-16T04:54:16Z</time>
      </trkpt>
      <trkpt lat="50.01435" lon="4.28873">
        <ele>286.6</ele>
        <time>2024-04-16T04:54:17Z</time>
      </trkpt>
      <trkpt lat="50.01433" lon="4.28863">
        <ele>286.4</ele>
        <time>2024-04-16T04:54:18Z</time>
      </trkpt>
      <trkpt lat="50.01431" lon="4.28853">
        <ele>286.4</ele>
        <time>2024-04-16T04:54:19Z</time>
      </trkpt>
      <trkpt lat="50.01428" lon="4.28843">
        <ele>286.4</ele>
        <time>2024-04-16T04:54:20Z</time>
      </trkpt>
      <trkpt lat="50.01426" lon="4.28833">
        <ele>286.2</ele>
        <time>2024-04-16T04:54:21Z</time>
      </trkpt>
      <trkpt lat="50.01424" lon="4.28823">
        <ele>286.2</ele>
        <time>2024-04-16T04:54:22Z</time>
      </trkpt>
      <trkpt lat="50.01422" lon="4.28813">
        <ele>286</ele>
        <time>2024-04-16T04:54:23Z</time>
      </trkpt>
      <trkpt lat="50.0142" lon="4.28803">
        <ele>285.8</ele>
        <time>2024-04-16T04:54:24Z</time>
      </trkpt>
      <trkpt lat="50.01418" lon="4.28793">
        <ele>285.6</ele>
        <time>2024-04-16T04:54:25Z</time>
      </trkpt>
      <trkpt lat="50.01416" lon="4.28783">
        <ele>285.4</ele>
        <time>2024-04-16T04:54:26Z</time>
      </trkpt>
      <trkpt lat="50.01414" lon="4.28773">
        <ele>285.2</ele>
        <time>2024-04-16T04:54:27Z</time>
      </trkpt>
      <trkpt lat="50.01412" lon="4.28764">
        <ele>285</ele>
        <time>2024-04-16T04:54:28Z</time>
      </trkpt>
      <trkpt lat="50.0141" lon="4.28754">
        <ele>284.8</ele>
        <time>2024-04-16T04:54:29Z</time>
      </trkpt>
      <trkpt lat="50.01408" lon="4.28744">
        <ele>284.8</ele>
        <time>2024-04-16T04:54:30Z</time>
      </trkpt>
      <trkpt lat="50.01406" lon="4.28734">
        <ele>284.4</ele>
        <time>2024-04-16T04:54:31Z</time>
      </trkpt>
      <trkpt lat="50.01404" lon="4.28724">
        <ele>284.4</ele>
        <time>2024-04-16T04:54:32Z</time>
      </trkpt>
      <trkpt lat="50.01402" lon="4.28714">
        <ele>284.2</ele>
        <time>2024-04-16T04:54:33Z</time>
      </trkpt>
      <trkpt lat="50.01399" lon="4.28704">
        <ele>284.2</ele>
        <time>2024-04-16T04:54:34Z</time>
      </trkpt>
      <trkpt lat="50.01397" lon="4.28694">
        <ele>284.2</ele>
        <time>2024-04-16T04:54:35Z</time>
      </trkpt>
      <trkpt lat="50.01395" lon="4.28684">
        <ele>284.4</ele>
        <time>2024-04-16T04:54:36Z</time>
      </trkpt>
      <trkpt lat="50.01393" lon="4.28674">
        <ele>284.4</ele>
        <time>2024-04-16T04:54:37Z</time>
      </trkpt>
      <trkpt lat="50.0139" lon="4.28664">
        <ele>284.4</ele>
        <time>2024-04-16T04:54:38Z</time>
      </trkpt>
      <trkpt lat="50.01388" lon="4.28654">
        <ele>284.4</ele>
        <time>2024-04-16T04:54:39Z</time>
      </trkpt>
      <trkpt lat="50.01386" lon="4.28643">
        <ele>284.4</ele>
        <time>2024-04-16T04:54:40Z</time>
      </trkpt>
      <trkpt lat="50.01384" lon="4.28632">
        <ele>284.2</ele>
        <time>2024-04-16T04:54:41Z</time>
      </trkpt>
      <trkpt lat="50.01382" lon="4.28621">
        <ele>284.4</ele>
        <time>2024-04-16T04:54:42Z</time>
      </trkpt>
      <trkpt lat="50.01379" lon="4.2861">
        <ele>284.2</ele>
        <time>2024-04-16T04:54:43Z</time>
      </trkpt>
      <trkpt lat="50.01377" lon="4.28599">
        <ele>284.2</ele>
        <time>2024-04-16T04:54:44Z</time>
      </trkpt>
      <trkpt lat="50.01374" lon="4.28587">
        <ele>284.2</ele>
        <time>2024-04-16T04:54:45Z</time>
      </trkpt>
      <trkpt lat="50.01372" lon="4.28576">
        <ele>284</ele>
        <time>2024-04-16T04:54:46Z</time>
      </trkpt>
      <trkpt lat="50.01369" lon="4.28565">
        <ele>284</ele>
        <time>2024-04-16T04:54:47Z</time>
      </trkpt>
      <trkpt lat="50.01366" lon="4.28554">
        <ele>283.8</ele>
        <time>2024-04-16T04:54:48Z</time>
      </trkpt>
      <trkpt lat="50.01364" lon="4.28543">
        <ele>283.8</ele>
        <time>2024-04-16T04:54:49Z</time>
      </trkpt>
      <trkpt lat="50.01361" lon="4.28532">
        <ele>283.6</ele>
        <time>2024-04-16T04:54:50Z</time>
      </trkpt>
      <trkpt lat="50.01359" lon="4.28521">
        <ele>283.4</ele>
        <time>2024-04-16T04:54:51Z</time>
      </trkpt>
      <trkpt lat="50.01356" lon="4.28509">
        <ele>283.2</ele>
        <time>2024-04-16T04:54:52Z</time>
      </trkpt>
      <trkpt lat="50.01353" lon="4.28498">
        <ele>282.8</ele>
        <time>2024-04-16T04:54:53Z</time>
      </trkpt>
      <trkpt lat="50.01351" lon="4.28486">
        <ele>282.6</ele>
        <time>2024-04-16T04:54:54Z</time>
      </trkpt>
      <trkpt lat="50.01348" lon="4.28474">
        <ele>282.2</ele>
        <time>2024-04-16T04:54:55Z</time>
      </trkpt>
      <trkpt lat="50.01345" lon="4.28462">
        <ele>282.2</ele>
        <time>2024-04-16T04:54:56Z</time>
      </trkpt>
      <trkpt lat="50.01342" lon="4.2845">
        <ele>282</ele>
        <time>2024-04-16T04:54:57Z</time>
      </trkpt>
      <trkpt lat="50.0134" lon="4.28438">
        <ele>281.8</ele>
        <time>2024-04-16T04:54:58Z</time>
      </trkpt>
      <trkpt lat="50.01337" lon="4.28426">
        <ele>281.2</ele>
        <time>2024-04-16T04:54:59Z</time>
      </trkpt>
      <trkpt lat="50.01334" lon="4.28413">
        <ele>281.2</ele>
        <time>2024-04-16T04:55:00Z</time>
      </trkpt>
      <trkpt lat="50.01332" lon="4.28401">
        <ele>281</ele>
        <time>2024-04-16T04:55:01Z</time>
      </trkpt>
      <trkpt lat="50.01329" lon="4.28388">
        <ele>280.8</ele>
        <time>2024-04-16T04:55:02Z</time>
      </trkpt>
      <trkpt lat="50.01326" lon="4.28375">
        <ele>280.8</ele>
        <time>2024-04-16T04:55:03Z</time>
      </trkpt>
      <trkpt lat="50.01323" lon="4.28363">
        <ele>280.6</ele>
        <time>2024-04-16T04:55:04Z</time>
      </trkpt>
      <trkpt lat="50.01321" lon="4.28351">
        <ele>280.4</ele>
        <time>2024-04-16T04:55:05Z</time>
      </trkpt>
      <trkpt lat="50.01318" lon="4.28338">
        <ele>280</ele>
        <time>2024-04-16T04:55:06Z</time>
      </trkpt>
      <trkpt lat="50.01315" lon="4.28326">
        <ele>279.6</ele>
        <time>2024-04-16T04:55:07Z</time>
      </trkpt>
      <trkpt lat="50.01313" lon="4.28313">
        <ele>279.6</ele>
        <time>2024-04-16T04:55:08Z</time>
      </trkpt>
      <trkpt lat="50.0131" lon="4.283">
        <ele>279.2</ele>
        <time>2024-04-16T04:55:09Z</time>
      </trkpt>
      <trkpt lat="50.01307" lon="4.28288">
        <ele>279</ele>
        <time>2024-04-16T04:55:10Z</time>
      </trkpt>
      <trkpt lat="50.01305" lon="4.28275">
        <ele>278.8</ele>
        <time>2024-04-16T04:55:11Z</time>
      </trkpt>
      <trkpt lat="50.01302" lon="4.28262">
        <ele>278.4</ele>
        <time>2024-04-16T04:55:12Z</time>
      </trkpt>
      <trkpt lat="50.01299" lon="4.28249">
        <ele>277.6</ele>
        <time>2024-04-16T04:55:13Z</time>
      </trkpt>
      <trkpt lat="50.01296" lon="4.28236">
        <ele>277</ele>
        <time>2024-04-16T04:55:14Z</time>
      </trkpt>
      <trkpt lat="50.01293" lon="4.28223">
        <ele>276.8</ele>
        <time>2024-04-16T04:55:15Z</time>
      </trkpt>
      <trkpt lat="50.0129" lon="4.2821">
        <ele>276.4</ele>
        <time>2024-04-16T04:55:16Z</time>
      </trkpt>
      <trkpt lat="50.01287" lon="4.28197">
        <ele>276.4</ele>
        <time>2024-04-16T04:55:17Z</time>
      </trkpt>
      <trkpt lat="50.01284" lon="4.28183">
        <ele>276.2</ele>
        <time>2024-04-16T04:55:18Z</time>
      </trkpt>
      <trkpt lat="50.01281" lon="4.2817">
        <ele>276</ele>
        <time>2024-04-16T04:55:19Z</time>
      </trkpt>
      <trkpt lat="50.01279" lon="4.28158">
        <ele>276</ele>
        <time>2024-04-16T04:55:20Z</time>
      </trkpt>
      <trkpt lat="50.01276" lon="4.28145">
        <ele>275.8</ele>
        <time>2024-04-16T04:55:21Z</time>
      </trkpt>
      <trkpt lat="50.01274" lon="4.28133">
        <ele>275.4</ele>
        <time>2024-04-16T04:55:22Z</time>
      </trkpt>
      <trkpt lat="50.01271" lon="4.28121">
        <ele>275</ele>
        <time>2024-04-16T04:55:23Z</time>
      </trkpt>
      <trkpt lat="50.01268" lon="4.28109">
        <ele>274.4</ele>
        <time>2024-04-16T04:55:24Z</time>
      </trkpt>
      <trkpt lat="50.01266" lon="4.28097">
        <ele>273.8</ele>
        <time>2024-04-16T04:55:25Z</time>
      </trkpt>
      <trkpt lat="50.01263" lon="4.28086">
        <ele>273.4</ele>
        <time>2024-04-16T04:55:26Z</time>
      </trkpt>
      <trkpt lat="50.01261" lon="4.28075">
        <ele>273.2</ele>
        <time>2024-04-16T04:55:27Z</time>
      </trkpt>
      <trkpt lat="50.01259" lon="4.28064">
        <ele>273</ele>
        <time>2024-04-16T04:55:28Z</time>
      </trkpt>
      <trkpt lat="50.01256" lon="4.28053">
        <ele>272.8</ele>
        <time>2024-04-16T04:55:29Z</time>
      </trkpt>
      <trkpt lat="50.01254" lon="4.28043">
        <ele>272.8</ele>
        <time>2024-04-16T04:55:30Z</time>
      </trkpt>
      <trkpt lat="50.01252" lon="4.28032">
        <ele>273</ele>
        <time>2024-04-16T04:55:31Z</time>
      </trkpt>
      <trkpt lat="50.0125" lon="4.28022">
        <ele>272.8</ele>
        <time>2024-04-16T04:55:32Z</time>
      </trkpt>
      <trkpt lat="50.01248" lon="4.28012">
        <ele>272.8</ele>
        <time>2024-04-16T04:55:33Z</time>
      </trkpt>
      <trkpt lat="50.01246" lon="4.28002">
        <ele>273</ele>
        <time>2024-04-16T04:55:34Z</time>
      </trkpt>
      <trkpt lat="50.01244" lon="4.27991">
        <ele>273</ele>
        <time>2024-04-16T04:55:35Z</time>
      </trkpt>
      <trkpt lat="50.01242" lon="4.27981">
        <ele>272.8</ele>
        <time>2024-04-16T04:55:36Z</time>
      </trkpt>
      <trkpt lat="50.01239" lon="4.27971">
        <ele>273.2</ele>
        <time>2024-04-16T04:55:37Z</time>
      </trkpt>
      <trkpt lat="50.01237" lon="4.27961">
        <ele>273.4</ele>
        <time>2024-04-16T04:55:38Z</time>
      </trkpt>
      <trkpt lat="50.01235" lon="4.27951">
        <ele>273.4</ele>
        <time>2024-04-16T04:55:39Z</time>
      </trkpt>
      <trkpt lat="50.01233" lon="4.27941">
        <ele>273.4</ele>
        <time>2024-04-16T04:55:40Z</time>
      </trkpt>
      <trkpt lat="50.01231" lon="4.27931">
        <ele>273.6</ele>
        <time>2024-04-16T04:55:41Z</time>
      </trkpt>
      <trkpt lat="50.01229" lon="4.27921">
        <ele>273.4</ele>
        <time>2024-04-16T04:55:42Z</time>
      </trkpt>
      <trkpt lat="50.01226" lon="4.27911">
        <ele>273.6</ele>
        <time>2024-04-16T04:55:43Z</time>
      </trkpt>
      <trkpt lat="50.01224" lon="4.27901">
        <ele>273.6</ele>
        <time>2024-04-16T04:55:44Z</time>
      </trkpt>
      <trkpt lat="50.01223" lon="4.27891">
        <ele>273.6</ele>
        <time>2024-04-16T04:55:45Z</time>
      </trkpt>
      <trkpt lat="50.0122" lon="4.27881">
        <ele>273.4</ele>
        <time>2024-04-16T04:55:46Z</time>
      </trkpt>
      <trkpt lat="50.01218" lon="4.27871">
        <ele>273.6</ele>
        <time>2024-04-16T04:55:47Z</time>
      </trkpt>
      <trkpt lat="50.01216" lon="4.27861">
        <ele>273.6</ele>
        <time>2024-04-16T04:55:48Z</time>
      </trkpt>
      <trkpt lat="50.01214" lon="4.27851">
        <ele>273.6</ele>
        <time>2024-04-16T04:55:49Z</time>
      </trkpt>
      <trkpt lat="50.01212" lon="4.27841">
        <ele>273.4</ele>
        <time>2024-04-16T04:55:50Z</time>
      </trkpt>
      <trkpt lat="50.0121" lon="4.27831">
        <ele>273.2</ele>
        <time>2024-04-16T04:55:51Z</time>
      </trkpt>
      <trkpt lat="50.01208" lon="4.27821">
        <ele>273.2</ele>
        <time>2024-04-16T04:55:52Z</time>
      </trkpt>
      <trkpt lat="50.01205" lon="4.27811">
        <ele>273.2</ele>
        <time>2024-04-16T04:55:53Z</time>
      </trkpt>
      <trkpt lat="50.01203" lon="4.27801">
        <ele>273.2</ele>
        <time>2024-04-16T04:55:54Z</time>
      </trkpt>
      <trkpt lat="50.01201" lon="4.27791">
        <ele>273</ele>
        <time>2024-04-16T04:55:55Z</time>
      </trkpt>
      <trkpt lat="50.01199" lon="4.27781">
        <ele>273</ele>
        <time>2024-04-16T04:55:56Z</time>
      </trkpt>
      <trkpt lat="50.01197" lon="4.27771">
        <ele>273</ele>
        <time>2024-04-16T04:55:57Z</time>
      </trkpt>
      <trkpt lat="50.01195" lon="4.27761">
        <ele>273</ele>
        <time>2024-04-16T04:55:58Z</time>
      </trkpt>
      <trkpt lat="50.01193" lon="4.27751">
        <ele>272.8</ele>
        <time>2024-04-16T04:55:59Z</time>
      </trkpt>
      <trkpt lat="50.0119" lon="4.27742">
        <ele>272.8</ele>
        <time>2024-04-16T04:56:00Z</time>
      </trkpt>
      <trkpt lat="50.01188" lon="4.27731">
        <ele>272.8</ele>
        <time>2024-04-16T04:56:01Z</time>
      </trkpt>
      <trkpt lat="50.01186" lon="4.27722">
        <ele>272.8</ele>
        <time>2024-04-16T04:56:02Z</time>
      </trkpt>
      <trkpt lat="50.01184" lon="4.27712">
        <ele>272.8</ele>
        <time>2024-04-16T04:56:03Z</time>
      </trkpt>
      <trkpt lat="50.01182" lon="4.27702">
        <ele>272.8</ele>
        <time>2024-04-16T04:56:04Z</time>
      </trkpt>
      <trkpt lat="50.0118" lon="4.27692">
        <ele>272.8</ele>
        <time>2024-04-16T04:56:05Z</time>
      </trkpt>
      <trkpt lat="50.01178" lon="4.27683">
        <ele>272.8</ele>
        <time>2024-04-16T04:56:06Z</time>
      </trkpt>
      <trkpt lat="50.01175" lon="4.27673">
        <ele>272.8</ele>
        <time>2024-04-16T04:56:07Z</time>
      </trkpt>
      <trkpt lat="50.01173" lon="4.27664">
        <ele>272.8</ele>
        <time>2024-04-16T04:56:08Z</time>
      </trkpt>
      <trkpt lat="50.01171" lon="4.27655">
        <ele>272.8</ele>
        <time>2024-04-16T04:56:09Z</time>
      </trkpt>
      <trkpt lat="50.01169" lon="4.27645">
        <ele>272.8</ele>
        <time>2024-04-16T04:56:10Z</time>
      </trkpt>
      <trkpt lat="50.01166" lon="4.27636">
        <ele>272.8</ele>
        <time>2024-04-16T04:56:11Z</time>
      </trkpt>
      <trkpt lat="50.01164" lon="4.27627">
        <ele>272.6</ele>
        <time>2024-04-16T04:56:12Z</time>
      </trkpt>
      <trkpt lat="50.01161" lon="4.27618">
        <ele>272.4</ele>
        <time>2024-04-16T04:56:13Z</time>
      </trkpt>
      <trkpt lat="50.01159" lon="4.27609">
        <ele>272.4</ele>
        <time>2024-04-16T04:56:14Z</time>
      </trkpt>
      <trkpt lat="50.01157" lon="4.27601">
        <ele>272.4</ele>
        <time>2024-04-16T04:56:15Z</time>
      </trkpt>
      <trkpt lat="50.01155" lon="4.27592">
        <ele>272.2</ele>
        <time>2024-04-16T04:56:16Z</time>
      </trkpt>
      <trkpt lat="50.01152" lon="4.27583">
        <ele>272.2</ele>
        <time>2024-04-16T04:56:17Z</time>
      </trkpt>
      <trkpt lat="50.0115" lon="4.27574">
        <ele>272.2</ele>
        <time>2024-04-16T04:56:18Z</time>
      </trkpt>
      <trkpt lat="50.01148" lon="4.27564">
        <ele>272.2</ele>
        <time>2024-04-16T04:56:19Z</time>
      </trkpt>
      <trkpt lat="50.01146" lon="4.27555">
        <ele>272</ele>
        <time>2024-04-16T04:56:20Z</time>
      </trkpt>
      <trkpt lat="50.01144" lon="4.27545">
        <ele>272</ele>
        <time>2024-04-16T04:56:21Z</time>
      </trkpt>
      <trkpt lat="50.01142" lon="4.27536">
        <ele>272</ele>
        <time>2024-04-16T04:56:22Z</time>
      </trkpt>
      <trkpt lat="50.01139" lon="4.27527">
        <ele>272</ele>
        <time>2024-04-16T04:56:23Z</time>
      </trkpt>
      <trkpt lat="50.01137" lon="4.27518">
        <ele>272.2</ele>
        <time>2024-04-16T04:56:24Z</time>
      </trkpt>
      <trkpt lat="50.01135" lon="4.27508">
        <ele>272</ele>
        <time>2024-04-16T04:56:25Z</time>
      </trkpt>
      <trkpt lat="50.01133" lon="4.27499">
        <ele>272</ele>
        <time>2024-04-16T04:56:26Z</time>
      </trkpt>
      <trkpt lat="50.01131" lon="4.27489">
        <ele>272.2</ele>
        <time>2024-04-16T04:56:27Z</time>
      </trkpt>
      <trkpt lat="50.01129" lon="4.27479">
        <ele>272</ele>
        <time>2024-04-16T04:56:28Z</time>
      </trkpt>
      <trkpt lat="50.01126" lon="4.27469">
        <ele>272</ele>
        <time>2024-04-16T04:56:29Z</time>
      </trkpt>
      <trkpt lat="50.01125" lon="4.2746">
        <ele>272</ele>
        <time>2024-04-16T04:56:30Z</time>
      </trkpt>
      <trkpt lat="50.01123" lon="4.27449">
        <ele>272</ele>
        <time>2024-04-16T04:56:31Z</time>
      </trkpt>
      <trkpt lat="50.01121" lon="4.27438">
        <ele>271.8</ele>
        <time>2024-04-16T04:56:32Z</time>
      </trkpt>
      <trkpt lat="50.0112" lon="4.27428">
        <ele>271.8</ele>
        <time>2024-04-16T04:56:33Z</time>
      </trkpt>
      <trkpt lat="50.01118" lon="4.27418">
        <ele>272</ele>
        <time>2024-04-16T04:56:34Z</time>
      </trkpt>
      <trkpt lat="50.01116" lon="4.27408">
        <ele>272</ele>
        <time>2024-04-16T04:56:35Z</time>
      </trkpt>
      <trkpt lat="50.01114" lon="4.27398">
        <ele>271.8</ele>
        <time>2024-04-16T04:56:36Z</time>
      </trkpt>
      <trkpt lat="50.01112" lon="4.27389">
        <ele>271.8</ele>
        <time>2024-04-16T04:56:37Z</time>
      </trkpt>
      <trkpt lat="50.0111" lon="4.27379">
        <ele>271.8</ele>
        <time>2024-04-16T04:56:38Z</time>
      </trkpt>
      <trkpt lat="50.01108" lon="4.27369">
        <ele>271.8</ele>
        <time>2024-04-16T04:56:39Z</time>
      </trkpt>
      <trkpt lat="50.01106" lon="4.2736">
        <ele>271.6</ele>
        <time>2024-04-16T04:56:40Z</time>
      </trkpt>
      <trkpt lat="50.01104" lon="4.2735">
        <ele>271.6</ele>
        <time>2024-04-16T04:56:41Z</time>
      </trkpt>
      <trkpt lat="50.01102" lon="4.2734">
        <ele>271.4</ele>
        <time>2024-04-16T04:56:42Z</time>
      </trkpt>
      <trkpt lat="50.011" lon="4.2733">
        <ele>271.4</ele>
        <time>2024-04-16T04:56:43Z</time>
      </trkpt>
      <trkpt lat="50.01098" lon="4.27321">
        <ele>271.4</ele>
        <time>2024-04-16T04:56:44Z</time>
      </trkpt>
      <trkpt lat="50.01096" lon="4.27312">
        <ele>271.4</ele>
        <time>2024-04-16T04:56:45Z</time>
      </trkpt>
      <trkpt lat="50.01095" lon="4.27304">
        <ele>271.4</ele>
        <time>2024-04-16T04:56:46Z</time>
      </trkpt>
      <trkpt lat="50.01093" lon="4.27296">
        <ele>271.2</ele>
        <time>2024-04-16T04:56:47Z</time>
      </trkpt>
      <trkpt lat="50.01091" lon="4.27288">
        <ele>271.2</ele>
        <time>2024-04-16T04:56:48Z</time>
      </trkpt>
      <trkpt lat="50.01089" lon="4.2728">
        <ele>271.2</ele>
        <time>2024-04-16T04:56:49Z</time>
      </trkpt>
      <trkpt lat="50.01088" lon="4.27272">
        <ele>271.4</ele>
        <time>2024-04-16T04:56:50Z</time>
      </trkpt>
      <trkpt lat="50.01086" lon="4.27264">
        <ele>271.2</ele>
        <time>2024-04-16T04:56:51Z</time>
      </trkpt>
      <trkpt lat="50.01085" lon="4.27256">
        <ele>271.6</ele>
        <time>2024-04-16T04:56:52Z</time>
      </trkpt>
      <trkpt lat="50.01083" lon="4.27248">
        <ele>271.6</ele>
        <time>2024-04-16T04:56:53Z</time>
      </trkpt>
      <trkpt lat="50.01081" lon="4.2724">
        <ele>272.2</ele>
        <time>2024-04-16T04:56:54Z</time>
      </trkpt>
      <trkpt lat="50.0108" lon="4.27233">
        <ele>272.8</ele>
        <time>2024-04-16T04:56:55Z</time>
      </trkpt>
      <trkpt lat="50.01079" lon="4.27225">
        <ele>273</ele>
        <time>2024-04-16T04:56:56Z</time>
      </trkpt>
      <trkpt lat="50.01078" lon="4.27218">
        <ele>273.4</ele>
        <time>2024-04-16T04:56:57Z</time>
      </trkpt>
      <trkpt lat="50.01077" lon="4.27211">
        <ele>273.6</ele>
        <time>2024-04-16T04:56:58Z</time>
      </trkpt>
      <trkpt lat="50.01076" lon="4.27204">
        <ele>273.8</ele>
        <time>2024-04-16T04:56:59Z</time>
      </trkpt>
      <trkpt lat="50.01076" lon="4.27197">
        <ele>274</ele>
        <time>2024-04-16T04:57:00Z</time>
      </trkpt>
      <trkpt lat="50.01075" lon="4.27189">
        <ele>274.2</ele>
        <time>2024-04-16T04:57:01Z</time>
      </trkpt>
      <trkpt lat="50.01075" lon="4.27182">
        <ele>274.8</ele>
        <time>2024-04-16T04:57:02Z</time>
      </trkpt>
      <trkpt lat="50.01075" lon="4.27174">
        <ele>275.4</ele>
        <time>2024-04-16T04:57:03Z</time>
      </trkpt>
      <trkpt lat="50.01074" lon="4.27168">
        <ele>276</ele>
        <time>2024-04-16T04:57:04Z</time>
      </trkpt>
      <trkpt lat="50.01074" lon="4.2716">
        <ele>276.2</ele>
        <time>2024-04-16T04:57:05Z</time>
      </trkpt>
      <trkpt lat="50.01074" lon="4.27154">
        <ele>276.2</ele>
        <time>2024-04-16T04:57:06Z</time>
      </trkpt>
      <trkpt lat="50.01074" lon="4.27147">
        <ele>276.4</ele>
        <time>2024-04-16T04:57:07Z</time>
      </trkpt>
      <trkpt lat="50.01074" lon="4.27141">
        <ele>276.8</ele>
        <time>2024-04-16T04:57:08Z</time>
      </trkpt>
      <trkpt lat="50.01075" lon="4.27135">
        <ele>277</ele>
        <time>2024-04-16T04:57:09Z</time>
      </trkpt>
      <trkpt lat="50.01075" lon="4.27128">
        <ele>277.6</ele>
        <time>2024-04-16T04:57:10Z</time>
      </trkpt>
      <trkpt lat="50.01076" lon="4.27122">
        <ele>277.8</ele>
        <time>2024-04-16T04:57:11Z</time>
      </trkpt>
      <trkpt lat="50.01076" lon="4.27116">
        <ele>278</ele>
        <time>2024-04-16T04:57:12Z</time>
      </trkpt>
      <trkpt lat="50.01077" lon="4.2711">
        <ele>278</ele>
        <time>2024-04-16T04:57:13Z</time>
      </trkpt>
      <trkpt lat="50.01077" lon="4.27104">
        <ele>278.2</ele>
        <time>2024-04-16T04:57:14Z</time>
      </trkpt>
      <trkpt lat="50.01078" lon="4.27098">
        <ele>278.2</ele>
        <time>2024-04-16T04:57:15Z</time>
      </trkpt>
      <trkpt lat="50.01079" lon="4.27092">
        <ele>278.2</ele>
        <time>2024-04-16T04:57:16Z</time>
      </trkpt>
      <trkpt lat="50.0108" lon="4.27086">
        <ele>278.2</ele>
        <time>2024-04-16T04:57:17Z</time>
      </trkpt>
      <trkpt lat="50.01081" lon="4.2708">
        <ele>278.2</ele>
        <time>2024-04-16T04:57:18Z</time>
      </trkpt>
      <trkpt lat="50.01082" lon="4.27074">
        <ele>278.4</ele>
        <time>2024-04-16T04:57:19Z</time>
      </trkpt>
      <trkpt lat="50.01083" lon="4.27068">
        <ele>278.4</ele>
        <time>2024-04-16T04:57:20Z</time>
      </trkpt>
      <trkpt lat="50.01084" lon="4.27062">
        <ele>278.6</ele>
        <time>2024-04-16T04:57:21Z</time>
      </trkpt>
      <trkpt lat="50.01085" lon="4.27056">
        <ele>278.4</ele>
        <time>2024-04-16T04:57:22Z</time>
      </trkpt>
      <trkpt lat="50.01087" lon="4.2705">
        <ele>278.6</ele>
        <time>2024-04-16T04:57:23Z</time>
      </trkpt>
      <trkpt lat="50.01088" lon="4.27044">
        <ele>278.8</ele>
        <time>2024-04-16T04:57:24Z</time>
      </trkpt>
      <trkpt lat="50.0109" lon="4.27037">
        <ele>278.8</ele>
        <time>2024-04-16T04:57:25Z</time>
      </trkpt>
      <trkpt lat="50.01092" lon="4.27031">
        <ele>278.8</ele>
        <time>2024-04-16T04:57:26Z</time>
      </trkpt>
      <trkpt lat="50.01094" lon="4.27025">
        <ele>278.8</ele>
        <time>2024-04-16T04:57:27Z</time>
      </trkpt>
      <trkpt lat="50.01095" lon="4.27019">
        <ele>278.8</ele>
        <time>2024-04-16T04:57:28Z</time>
      </trkpt>
      <trkpt lat="50.01097" lon="4.27012">
        <ele>279</ele>
        <time>2024-04-16T04:57:29Z</time>
      </trkpt>
      <trkpt lat="50.01099" lon="4.27005">
        <ele>279</ele>
        <time>2024-04-16T04:57:30Z</time>
      </trkpt>
      <trkpt lat="50.01101" lon="4.26999">
        <ele>279.2</ele>
        <time>2024-04-16T04:57:31Z</time>
      </trkpt>
      <trkpt lat="50.01104" lon="4.26993">
        <ele>279.6</ele>
        <time>2024-04-16T04:57:32Z</time>
      </trkpt>
      <trkpt lat="50.01106" lon="4.26986">
        <ele>279.8</ele>
        <time>2024-04-16T04:57:33Z</time>
      </trkpt>
      <trkpt lat="50.01109" lon="4.2698">
        <ele>280.4</ele>
        <time>2024-04-16T04:57:34Z</time>
      </trkpt>
      <trkpt lat="50.01111" lon="4.26974">
        <ele>280.6</ele>
        <time>2024-04-16T04:57:35Z</time>
      </trkpt>
      <trkpt lat="50.01114" lon="4.26968">
        <ele>280.8</ele>
        <time>2024-04-16T04:57:36Z</time>
      </trkpt>
      <trkpt lat="50.01117" lon="4.26961">
        <ele>281</ele>
        <time>2024-04-16T04:57:37Z</time>
      </trkpt>
      <trkpt lat="50.01119" lon="4.26955">
        <ele>281.2</ele>
        <time>2024-04-16T04:57:38Z</time>
      </trkpt>
      <trkpt lat="50.01122" lon="4.26949">
        <ele>281.2</ele>
        <time>2024-04-16T04:57:39Z</time>
      </trkpt>
      <trkpt lat="50.01124" lon="4.26942">
        <ele>281.4</ele>
        <time>2024-04-16T04:57:40Z</time>
      </trkpt>
      <trkpt lat="50.01127" lon="4.26936">
        <ele>281.4</ele>
        <time>2024-04-16T04:57:41Z</time>
      </trkpt>
      <trkpt lat="50.0113" lon="4.26929">
        <ele>281.6</ele>
        <time>2024-04-16T04:57:42Z</time>
      </trkpt>
      <trkpt lat="50.01133" lon="4.26923">
        <ele>281.6</ele>
        <time>2024-04-16T04:57:43Z</time>
      </trkpt>
      <trkpt lat="50.01135" lon="4.26916">
        <ele>281.8</ele>
        <time>2024-04-16T04:57:44Z</time>
      </trkpt>
      <trkpt lat="50.01138" lon="4.26909">
        <ele>281.6</ele>
        <time>2024-04-16T04:57:45Z</time>
      </trkpt>
      <trkpt lat="50.01141" lon="4.26902">
        <ele>281.6</ele>
        <time>2024-04-16T04:57:46Z</time>
      </trkpt>
      <trkpt lat="50.01144" lon="4.26896">
        <ele>281.6</ele>
        <time>2024-04-16T04:57:47Z</time>
      </trkpt>
      <trkpt lat="50.01146" lon="4.26889">
        <ele>281.6</ele>
        <time>2024-04-16T04:57:48Z</time>
      </trkpt>
      <trkpt lat="50.01149" lon="4.26882">
        <ele>281.6</ele>
        <time>2024-04-16T04:57:49Z</time>
      </trkpt>
      <trkpt lat="50.01152" lon="4.26875">
        <ele>281.6</ele>
        <time>2024-04-16T04:57:50Z</time>
      </trkpt>
      <trkpt lat="50.01155" lon="4.26868">
        <ele>281.4</ele>
        <time>2024-04-16T04:57:51Z</time>
      </trkpt>
      <trkpt lat="50.01158" lon="4.26861">
        <ele>281.4</ele>
        <time>2024-04-16T04:57:52Z</time>
      </trkpt>
      <trkpt lat="50.01161" lon="4.26853">
        <ele>281.4</ele>
        <time>2024-04-16T04:57:53Z</time>
      </trkpt>
      <trkpt lat="50.01164" lon="4.26846">
        <ele>281.4</ele>
        <time>2024-04-16T04:57:54Z</time>
      </trkpt>
      <trkpt lat="50.01167" lon="4.26838">
        <ele>281.4</ele>
        <time>2024-04-16T04:57:55Z</time>
      </trkpt>
      <trkpt lat="50.01171" lon="4.2683">
        <ele>281.4</ele>
        <time>2024-04-16T04:57:56Z</time>
      </trkpt>
      <trkpt lat="50.01174" lon="4.26822">
        <ele>281.4</ele>
        <time>2024-04-16T04:57:57Z</time>
      </trkpt>
      <trkpt lat="50.01177" lon="4.26814">
        <ele>281.2</ele>
        <time>2024-04-16T04:57:58Z</time>
      </trkpt>
      <trkpt lat="50.01181" lon="4.26805">
        <ele>281.2</ele>
        <time>2024-04-16T04:57:59Z</time>
      </trkpt>
      <trkpt lat="50.01185" lon="4.26796">
        <ele>280.6</ele>
        <time>2024-04-16T04:58:00Z</time>
      </trkpt>
      <trkpt lat="50.01189" lon="4.26787">
        <ele>279.8</ele>
        <time>2024-04-16T04:58:01Z</time>
      </trkpt>
      <trkpt lat="50.01193" lon="4.26777">
        <ele>279.4</ele>
        <time>2024-04-16T04:58:02Z</time>
      </trkpt>
      <trkpt lat="50.01196" lon="4.26768">
        <ele>279.2</ele>
        <time>2024-04-16T04:58:03Z</time>
      </trkpt>
      <trkpt lat="50.012" lon="4.26758">
        <ele>279</ele>
        <time>2024-04-16T04:58:04Z</time>
      </trkpt>
      <trkpt lat="50.01204" lon="4.26749">
        <ele>278.8</ele>
        <time>2024-04-16T04:58:05Z</time>
      </trkpt>
      <trkpt lat="50.01208" lon="4.26739">
        <ele>278.8</ele>
        <time>2024-04-16T04:58:06Z</time>
      </trkpt>
      <trkpt lat="50.01212" lon="4.26729">
        <ele>278.4</ele>
        <time>2024-04-16T04:58:07Z</time>
      </trkpt>
      <trkpt lat="50.01216" lon="4.26719">
        <ele>278</ele>
        <time>2024-04-16T04:58:08Z</time>
      </trkpt>
      <trkpt lat="50.01221" lon="4.26708">
        <ele>277.4</ele>
        <time>2024-04-16T04:58:09Z</time>
      </trkpt>
      <trkpt lat="50.01225" lon="4.26698">
        <ele>277.4</ele>
        <time>2024-04-16T04:58:10Z</time>
      </trkpt>
      <trkpt lat="50.01229" lon="4.26688">
        <ele>277</ele>
        <time>2024-04-16T04:58:11Z</time>
      </trkpt>
      <trkpt lat="50.01234" lon="4.26677">
        <ele>276.6</ele>
        <time>2024-04-16T04:58:12Z</time>
      </trkpt>
      <trkpt lat="50.01238" lon="4.26666">
        <ele>276.4</ele>
        <time>2024-04-16T04:58:13Z</time>
      </trkpt>
      <trkpt lat="50.01243" lon="4.26655">
        <ele>276</ele>
        <time>2024-04-16T04:58:14Z</time>
      </trkpt>
      <trkpt lat="50.01247" lon="4.26644">
        <ele>275.4</ele>
        <time>2024-04-16T04:58:15Z</time>
      </trkpt>
      <trkpt lat="50.01252" lon="4.26633">
        <ele>275</ele>
        <time>2024-04-16T04:58:16Z</time>
      </trkpt>
      <trkpt lat="50.01256" lon="4.26622">
        <ele>274.4</ele>
        <time>2024-04-16T04:58:17Z</time>
      </trkpt>
      <trkpt lat="50.01261" lon="4.2661">
        <ele>273.6</ele>
        <time>2024-04-16T04:58:18Z</time>
      </trkpt>
      <trkpt lat="50.01265" lon="4.26598">
        <ele>273</ele>
        <time>2024-04-16T04:58:19Z</time>
      </trkpt>
      <trkpt lat="50.0127" lon="4.26587">
        <ele>272.4</ele>
        <time>2024-04-16T04:58:20Z</time>
      </trkpt>
      <trkpt lat="50.01274" lon="4.26574">
        <ele>272.2</ele>
        <time>2024-04-16T04:58:21Z</time>
      </trkpt>
      <trkpt lat="50.01278" lon="4.26562">
        <ele>272</ele>
        <time>2024-04-16T04:58:22Z</time>
      </trkpt>
      <trkpt lat="50.01282" lon="4.26549">
        <ele>271.4</ele>
        <time>2024-04-16T04:58:23Z</time>
      </trkpt>
      <trkpt lat="50.01285" lon="4.26536">
        <ele>271</ele>
        <time>2024-04-16T04:58:24Z</time>
      </trkpt>
      <trkpt lat="50.01288" lon="4.26522">
        <ele>270</ele>
        <time>2024-04-16T04:58:25Z</time>
      </trkpt>
      <trkpt lat="50.01291" lon="4.26509">
        <ele>269.6</ele>
        <time>2024-04-16T04:58:26Z</time>
      </trkpt>
      <trkpt lat="50.01294" lon="4.26495">
        <ele>269.2</ele>
        <time>2024-04-16T04:58:27Z</time>
      </trkpt>
      <trkpt lat="50.01296" lon="4.26481">
        <ele>269</ele>
        <time>2024-04-16T04:58:28Z</time>
      </trkpt>
      <trkpt lat="50.01298" lon="4.26467">
        <ele>268.6</ele>
        <time>2024-04-16T04:58:29Z</time>
      </trkpt>
      <trkpt lat="50.01299" lon="4.26452">
        <ele>268.6</ele>
        <time>2024-04-16T04:58:30Z</time>
      </trkpt>
      <trkpt lat="50.01301" lon="4.26438">
        <ele>268.4</ele>
        <time>2024-04-16T04:58:31Z</time>
      </trkpt>
      <trkpt lat="50.01303" lon="4.26424">
        <ele>268.4</ele>
        <time>2024-04-16T04:58:32Z</time>
      </trkpt>
      <trkpt lat="50.01304" lon="4.2641">
        <ele>268.2</ele>
        <time>2024-04-16T04:58:33Z</time>
      </trkpt>
      <trkpt lat="50.01306" lon="4.26396">
        <ele>267.6</ele>
        <time>2024-04-16T04:58:34Z</time>
      </trkpt>
      <trkpt lat="50.01308" lon="4.26383">
        <ele>266.8</ele>
        <time>2024-04-16T04:58:35Z</time>
      </trkpt>
      <trkpt lat="50.0131" lon="4.2637">
        <ele>265.8</ele>
        <time>2024-04-16T04:58:36Z</time>
      </trkpt>
      <trkpt lat="50.01312" lon="4.26358">
        <ele>265</ele>
        <time>2024-04-16T04:58:37Z</time>
      </trkpt>
      <trkpt lat="50.01315" lon="4.26347">
        <ele>264.6</ele>
        <time>2024-04-16T04:58:38Z</time>
      </trkpt>
      <trkpt lat="50.01317" lon="4.26336">
        <ele>264</ele>
        <time>2024-04-16T04:58:39Z</time>
      </trkpt>
      <trkpt lat="50.0132" lon="4.26325">
        <ele>263.8</ele>
        <time>2024-04-16T04:58:40Z</time>
      </trkpt>
      <trkpt lat="50.01323" lon="4.26314">
        <ele>263.8</ele>
        <time>2024-04-16T04:58:41Z</time>
      </trkpt>
      <trkpt lat="50.01326" lon="4.26305">
        <ele>263.8</ele>
        <time>2024-04-16T04:58:42Z</time>
      </trkpt>
      <trkpt lat="50.01329" lon="4.26295">
        <ele>263.8</ele>
        <time>2024-04-16T04:58:43Z</time>
      </trkpt>
      <trkpt lat="50.01332" lon="4.26286">
        <ele>263.8</ele>
        <time>2024-04-16T04:58:44Z</time>
      </trkpt>
      <trkpt lat="50.01335" lon="4.26277">
        <ele>263.8</ele>
        <time>2024-04-16T04:58:45Z</time>
      </trkpt>
      <trkpt lat="50.01338" lon="4.26269">
        <ele>263.8</ele>
        <time>2024-04-16T04:58:46Z</time>
      </trkpt>
      <trkpt lat="50.01341" lon="4.26261">
        <ele>263.8</ele>
        <time>2024-04-16T04:58:47Z</time>
      </trkpt>
      <trkpt lat="50.01344" lon="4.26253">
        <ele>264.8</ele>
        <time>2024-04-16T04:58:48Z</time>
      </trkpt>
      <trkpt lat="50.01347" lon="4.26245">
        <ele>265.2</ele>
        <time>2024-04-16T04:58:49Z</time>
      </trkpt>
      <trkpt lat="50.0135" lon="4.26237">
        <ele>265.6</ele>
        <time>2024-04-16T04:58:50Z</time>
      </trkpt>
      <trkpt lat="50.01353" lon="4.26229">
        <ele>265.8</ele>
        <time>2024-04-16T04:58:51Z</time>
      </trkpt>
      <trkpt lat="50.01356" lon="4.26222">
        <ele>265.8</ele>
        <time>2024-04-16T04:58:52Z</time>
      </trkpt>
      <trkpt lat="50.01359" lon="4.26214">
        <ele>265.8</ele>
        <time>2024-04-16T04:58:53Z</time>
      </trkpt>
      <trkpt lat="50.01362" lon="4.26207">
        <ele>265.8</ele>
        <time>2024-04-16T04:58:54Z</time>
      </trkpt>
      <trkpt lat="50.01365" lon="4.26199">
        <ele>266</ele>
        <time>2024-04-16T04:58:55Z</time>
      </trkpt>
      <trkpt lat="50.01368" lon="4.26192">
        <ele>266</ele>
        <time>2024-04-16T04:58:56Z</time>
      </trkpt>
      <trkpt lat="50.0137" lon="4.26184">
        <ele>266.4</ele>
        <time>2024-04-16T04:58:57Z</time>
      </trkpt>
      <trkpt lat="50.01373" lon="4.26176">
        <ele>266.6</ele>
        <time>2024-04-16T04:58:58Z</time>
      </trkpt>
      <trkpt lat="50.01376" lon="4.26169">
        <ele>266.8</ele>
        <time>2024-04-16T04:58:59Z</time>
      </trkpt>
      <trkpt lat="50.01379" lon="4.26161">
        <ele>266.8</ele>
        <time>2024-04-16T04:59:00Z</time>
      </trkpt>
      <trkpt lat="50.01382" lon="4.26154">
        <ele>267</ele>
        <time>2024-04-16T04:59:01Z</time>
      </trkpt>
      <trkpt lat="50.01384" lon="4.26147">
        <ele>267</ele>
        <time>2024-04-16T04:59:02Z</time>
      </trkpt>
      <trkpt lat="50.01387" lon="4.26139">
        <ele>267</ele>
        <time>2024-04-16T04:59:03Z</time>
      </trkpt>
      <trkpt lat="50.0139" lon="4.26132">
        <ele>267</ele>
        <time>2024-04-16T04:59:04Z</time>
      </trkpt>
      <trkpt lat="50.01393" lon="4.26124">
        <ele>267</ele>
        <time>2024-04-16T04:59:05Z</time>
      </trkpt>
      <trkpt lat="50.01395" lon="4.26117">
        <ele>267.2</ele>
        <time>2024-04-16T04:59:06Z</time>
      </trkpt>
      <trkpt lat="50.01398" lon="4.26109">
        <ele>267.2</ele>
        <time>2024-04-16T04:59:07Z</time>
      </trkpt>
      <trkpt lat="50.01401" lon="4.26101">
        <ele>267</ele>
        <time>2024-04-16T04:59:08Z</time>
      </trkpt>
      <trkpt lat="50.01404" lon="4.26093">
        <ele>267</ele>
        <time>2024-04-16T04:59:09Z</time>
      </trkpt>
      <trkpt lat="50.01407" lon="4.26086">
        <ele>267</ele>
        <time>2024-04-16T04:59:10Z</time>
      </trkpt>
      <trkpt lat="50.0141" lon="4.26078">
        <ele>267.2</ele>
        <time>2024-04-16T04:59:11Z</time>
      </trkpt>
      <trkpt lat="50.01413" lon="4.2607">
        <ele>267</ele>
        <time>2024-04-16T04:59:12Z</time>
      </trkpt>
      <trkpt lat="50.01416" lon="4.26062">
        <ele>267.2</ele>
        <time>2024-04-16T04:59:13Z</time>
      </trkpt>
      <trkpt lat="50.01419" lon="4.26053">
        <ele>267</ele>
        <time>2024-04-16T04:59:14Z</time>
      </trkpt>
      <trkpt lat="50.01422" lon="4.26045">
        <ele>267</ele>
        <time>2024-04-16T04:59:15Z</time>
      </trkpt>
      <trkpt lat="50.01425" lon="4.26037">
        <ele>267</ele>
        <time>2024-04-16T04:59:16Z</time>
      </trkpt>
      <trkpt lat="50.01428" lon="4.26028">
        <ele>266.8</ele>
        <time>2024-04-16T04:59:17Z</time>
      </trkpt>
      <trkpt lat="50.01431" lon="4.2602">
        <ele>266.8</ele>
        <time>2024-04-16T04:59:18Z</time>
      </trkpt>
      <trkpt lat="50.01434" lon="4.26011">
        <ele>266.6</ele>
        <time>2024-04-16T04:59:19Z</time>
      </trkpt>
      <trkpt lat="50.01437" lon="4.26002">
        <ele>266.4</ele>
        <time>2024-04-16T04:59:20Z</time>
      </trkpt>
      <trkpt lat="50.0144" lon="4.25993">
        <ele>266.4</ele>
        <time>2024-04-16T04:59:21Z</time>
      </trkpt>
      <trkpt lat="50.01442" lon="4.25984">
        <ele>266.4</ele>
        <time>2024-04-16T04:59:22Z</time>
      </trkpt>
      <trkpt lat="50.01444" lon="4.25974">
        <ele>266</ele>
        <time>2024-04-16T04:59:23Z</time>
      </trkpt>
      <trkpt lat="50.01446" lon="4.25964">
        <ele>265.8</ele>
        <time>2024-04-16T04:59:24Z</time>
      </trkpt>
      <trkpt lat="50.01447" lon="4.25955">
        <ele>265.8</ele>
        <time>2024-04-16T04:59:25Z</time>
      </trkpt>
      <trkpt lat="50.01449" lon="4.25944">
        <ele>265.4</ele>
        <time>2024-04-16T04:59:26Z</time>
      </trkpt>
      <trkpt lat="50.0145" lon="4.25934">
        <ele>265.2</ele>
        <time>2024-04-16T04:59:27Z</time>
      </trkpt>
      <trkpt lat="50.01451" lon="4.25924">
        <ele>265</ele>
        <time>2024-04-16T04:59:28Z</time>
      </trkpt>
      <trkpt lat="50.01452" lon="4.25914">
        <ele>265</ele>
        <time>2024-04-16T04:59:29Z</time>
      </trkpt>
      <trkpt lat="50.01452" lon="4.25903">
        <ele>264.8</ele>
        <time>2024-04-16T04:59:30Z</time>
      </trkpt>
      <trkpt lat="50.01453" lon="4.25893">
        <ele>264.8</ele>
        <time>2024-04-16T04:59:31Z</time>
      </trkpt>
      <trkpt lat="50.01453" lon="4.25882">
        <ele>264.8</ele>
        <time>2024-04-16T04:59:32Z</time>
      </trkpt>
      <trkpt lat="50.01453" lon="4.25871">
        <ele>264.6</ele>
        <time>2024-04-16T04:59:33Z</time>
      </trkpt>
      <trkpt lat="50.01454" lon="4.2586">
        <ele>264.6</ele>
        <time>2024-04-16T04:59:34Z</time>
      </trkpt>
      <trkpt lat="50.01454" lon="4.25849">
        <ele>264.6</ele>
        <time>2024-04-16T04:59:35Z</time>
      </trkpt>
      <trkpt lat="50.01455" lon="4.25838">
        <ele>264.6</ele>
        <time>2024-04-16T04:59:36Z</time>
      </trkpt>
      <trkpt lat="50.01455" lon="4.25827">
        <ele>264.6</ele>
        <time>2024-04-16T04:59:37Z</time>
      </trkpt>
      <trkpt lat="50.01456" lon="4.25816">
        <ele>264.6</ele>
        <time>2024-04-16T04:59:38Z</time>
      </trkpt>
      <trkpt lat="50.01458" lon="4.25805">
        <ele>264.6</ele>
        <time>2024-04-16T04:59:39Z</time>
      </trkpt>
      <trkpt lat="50.0146" lon="4.25794">
        <ele>264.4</ele>
        <time>2024-04-16T04:59:40Z</time>
      </trkpt>
      <trkpt lat="50.01462" lon="4.25782">
        <ele>264.2</ele>
        <time>2024-04-16T04:59:41Z</time>
      </trkpt>
      <trkpt lat="50.01464" lon="4.25771">
        <ele>264.4</ele>
        <time>2024-04-16T04:59:42Z</time>
      </trkpt>
      <trkpt lat="50.01468" lon="4.25761">
        <ele>264.2</ele>
        <time>2024-04-16T04:59:43Z</time>
      </trkpt>
      <trkpt lat="50.01471" lon="4.2575">
        <ele>264</ele>
        <time>2024-04-16T04:59:44Z</time>
      </trkpt>
      <trkpt lat="50.01475" lon="4.2574">
        <ele>264</ele>
        <time>2024-04-16T04:59:45Z</time>
      </trkpt>
      <trkpt lat="50.01478" lon="4.2573">
        <ele>263.8</ele>
        <time>2024-04-16T04:59:46Z</time>
      </trkpt>
      <trkpt lat="50.01482" lon="4.25721">
        <ele>263.4</ele>
        <time>2024-04-16T04:59:47Z</time>
      </trkpt>
      <trkpt lat="50.01486" lon="4.25712">
        <ele>263.2</ele>
        <time>2024-04-16T04:59:48Z</time>
      </trkpt>
      <trkpt lat="50.0149" lon="4.25704">
        <ele>263.2</ele>
        <time>2024-04-16T04:59:49Z</time>
      </trkpt>
      <trkpt lat="50.01493" lon="4.25697">
        <ele>263.2</ele>
        <time>2024-04-16T04:59:50Z</time>
      </trkpt>
      <trkpt lat="50.01497" lon="4.25689">
        <ele>263</ele>
        <time>2024-04-16T04:59:51Z</time>
      </trkpt>
      <trkpt lat="50.015" lon="4.25683">
        <ele>263.2</ele>
        <time>2024-04-16T04:59:52Z</time>
      </trkpt>
      <trkpt lat="50.01503" lon="4.25677">
        <ele>263</ele>
        <time>2024-04-16T04:59:53Z</time>
      </trkpt>
      <trkpt lat="50.01506" lon="4.25671">
        <ele>263</ele>
        <time>2024-04-16T04:59:54Z</time>
      </trkpt>
      <trkpt lat="50.01509" lon="4.25665">
        <ele>263</ele>
        <time>2024-04-16T04:59:55Z</time>
      </trkpt>
      <trkpt lat="50.01511" lon="4.25659">
        <ele>263</ele>
        <time>2024-04-16T04:59:56Z</time>
      </trkpt>
      <trkpt lat="50.01514" lon="4.25654">
        <ele>263</ele>
        <time>2024-04-16T04:59:57Z</time>
      </trkpt>
      <trkpt lat="50.01516" lon="4.25649">
        <ele>263.2</ele>
        <time>2024-04-16T04:59:58Z</time>
      </trkpt>
      <trkpt lat="50.01519" lon="4.25644">
        <ele>263.2</ele>
        <time>2024-04-16T04:59:59Z</time>
      </trkpt>
      <trkpt lat="50.01521" lon="4.25639">
        <ele>263.6</ele>
        <time>2024-04-16T05:00:00Z</time>
      </trkpt>
      <trkpt lat="50.01524" lon="4.25635">
        <ele>263.6</ele>
        <time>2024-04-16T05:00:01Z</time>
      </trkpt>
      <trkpt lat="50.01528" lon="4.25631">
        <ele>264.2</ele>
        <time>2024-04-16T05:00:02Z</time>
      </trkpt>
      <trkpt lat="50.01532" lon="4.25629">
        <ele>264.6</ele>
        <time>2024-04-16T05:00:03Z</time>
      </trkpt>
      <trkpt lat="50.01536" lon="4.25628">
        <ele>264.8</ele>
        <time>2024-04-16T05:00:04Z</time>
      </trkpt>
      <trkpt lat="50.0154" lon="4.25627">
        <ele>265.2</ele>
        <time>2024-04-16T05:00:05Z</time>
      </trkpt>
      <trkpt lat="50.01545" lon="4.25626">
        <ele>265.4</ele>
        <time>2024-04-16T05:00:06Z</time>
      </trkpt>
      <trkpt lat="50.01549" lon="4.25624">
        <ele>265.4</ele>
        <time>2024-04-16T05:00:07Z</time>
      </trkpt>
      <trkpt lat="50.01553" lon="4.25621">
        <ele>265.6</ele>
        <time>2024-04-16T05:00:08Z</time>
      </trkpt>
      <trkpt lat="50.01556" lon="4.25616">
        <ele>265.8</ele>
        <time>2024-04-16T05:00:09Z</time>
      </trkpt>
      <trkpt lat="50.01559" lon="4.25611">
        <ele>266.2</ele>
        <time>2024-04-16T05:00:10Z</time>
      </trkpt>
      <trkpt lat="50.01562" lon="4.25604">
        <ele>266.4</ele>
        <time>2024-04-16T05:00:11Z</time>
      </trkpt>
      <trkpt lat="50.01564" lon="4.25598">
        <ele>266.8</ele>
        <time>2024-04-16T05:00:12Z</time>
      </trkpt>
      <trkpt lat="50.01565" lon="4.25591">
        <ele>267.4</ele>
        <time>2024-04-16T05:00:13Z</time>
      </trkpt>
      <trkpt lat="50.01566" lon="4.25584">
        <ele>267.6</ele>
        <time>2024-04-16T05:00:14Z</time>
      </trkpt>
      <trkpt lat="50.01567" lon="4.25578">
        <ele>268</ele>
        <time>2024-04-16T05:00:15Z</time>
      </trkpt>
      <trkpt lat="50.01569" lon="4.25571">
        <ele>268</ele>
        <time>2024-04-16T05:00:16Z</time>
      </trkpt>
      <trkpt lat="50.0157" lon="4.25564">
        <ele>268</ele>
        <time>2024-04-16T05:00:17Z</time>
      </trkpt>
      <trkpt lat="50.01572" lon="4.25557">
        <ele>268.2</ele>
        <time>2024-04-16T05:00:18Z</time>
      </trkpt>
      <trkpt lat="50.01574" lon="4.2555">
        <ele>268.4</ele>
        <time>2024-04-16T05:00:19Z</time>
      </trkpt>
      <trkpt lat="50.01576" lon="4.25543">
        <ele>268.6</ele>
        <time>2024-04-16T05:00:20Z</time>
      </trkpt>
      <trkpt lat="50.01578" lon="4.25536">
        <ele>268.6</ele>
        <time>2024-04-16T05:00:21Z</time>
      </trkpt>
      <trkpt lat="50.01579" lon="4.25529">
        <ele>269</ele>
        <time>2024-04-16T05:00:22Z</time>
      </trkpt>
      <trkpt lat="50.01581" lon="4.25521">
        <ele>269.4</ele>
        <time>2024-04-16T05:00:23Z</time>
      </trkpt>
      <trkpt lat="50.01582" lon="4.25514">
        <ele>269.8</ele>
        <time>2024-04-16T05:00:24Z</time>
      </trkpt>
      <trkpt lat="50.01584" lon="4.25507">
        <ele>270.4</ele>
        <time>2024-04-16T05:00:25Z</time>
      </trkpt>
      <trkpt lat="50.01585" lon="4.255">
        <ele>270.6</ele>
        <time>2024-04-16T05:00:26Z</time>
      </trkpt>
      <trkpt lat="50.01586" lon="4.25493">
        <ele>271</ele>
        <time>2024-04-16T05:00:27Z</time>
      </trkpt>
      <trkpt lat="50.01586" lon="4.25486">
        <ele>271.2</ele>
        <time>2024-04-16T05:00:28Z</time>
      </trkpt>
      <trkpt lat="50.01585" lon="4.25479">
        <ele>272</ele>
        <time>2024-04-16T05:00:29Z</time>
      </trkpt>
      <trkpt lat="50.01583" lon="4.25473">
        <ele>272.2</ele>
        <time>2024-04-16T05:00:30Z</time>
      </trkpt>
      <trkpt lat="50.01581" lon="4.25466">
        <ele>272.6</ele>
        <time>2024-04-16T05:00:31Z</time>
      </trkpt>
      <trkpt lat="50.01578" lon="4.25461">
        <ele>272.6</ele>
        <time>2024-04-16T05:00:32Z</time>
      </trkpt>
      <trkpt lat="50.01575" lon="4.25455">
        <ele>272.8</ele>
        <time>2024-04-16T05:00:33Z</time>
      </trkpt>
      <trkpt lat="50.01572" lon="4.2545">
        <ele>273</ele>
        <time>2024-04-16T05:00:34Z</time>
      </trkpt>
      <trkpt lat="50.01569" lon="4.25445">
        <ele>273</ele>
        <time>2024-04-16T05:00:35Z</time>
      </trkpt>
      <trkpt lat="50.01565" lon="4.2544">
        <ele>273.2</ele>
        <time>2024-04-16T05:00:36Z</time>
      </trkpt>
      <trkpt lat="50.01562" lon="4.25435">
        <ele>273</ele>
        <time>2024-04-16T05:00:37Z</time>
      </trkpt>
      <trkpt lat="50.01558" lon="4.2543">
        <ele>273.2</ele>
        <time>2024-04-16T05:00:38Z</time>
      </trkpt>
      <trkpt lat="50.01556" lon="4.25423">
        <ele>273.2</ele>
        <time>2024-04-16T05:00:39Z</time>
      </trkpt>
      <trkpt lat="50.01556" lon="4.25416">
        <ele>273.2</ele>
        <time>2024-04-16T05:00:40Z</time>
      </trkpt>
      <trkpt lat="50.01557" lon="4.25408">
        <ele>273</ele>
        <time>2024-04-16T05:00:41Z</time>
      </trkpt>
      <trkpt lat="50.01558" lon="4.25401">
        <ele>273</ele>
        <time>2024-04-16T05:00:42Z</time>
      </trkpt>
      <trkpt lat="50.0156" lon="4.25394">
        <ele>273.2</ele>
        <time>2024-04-16T05:00:43Z</time>
      </trkpt>
      <trkpt lat="50.01562" lon="4.25387">
        <ele>273.2</ele>
        <time>2024-04-16T05:00:44Z</time>
      </trkpt>
      <trkpt lat="50.01563" lon="4.2538">
        <ele>273.2</ele>
        <time>2024-04-16T05:00:45Z</time>
      </trkpt>
      <trkpt lat="50.01565" lon="4.25372">
        <ele>273.2</ele>
        <time>2024-04-16T05:00:46Z</time>
      </trkpt>
      <trkpt lat="50.01567" lon="4.25365">
        <ele>273.4</ele>
        <time>2024-04-16T05:00:47Z</time>
      </trkpt>
      <trkpt lat="50.01568" lon="4.25358">
        <ele>273.2</ele>
        <time>2024-04-16T05:00:48Z</time>
      </trkpt>
      <trkpt lat="50.0157" lon="4.25351">
        <ele>273.4</ele>
        <time>2024-04-16T05:00:49Z</time>
      </trkpt>
      <trkpt lat="50.01572" lon="4.25344">
        <ele>273.2</ele>
        <time>2024-04-16T05:00:50Z</time>
      </trkpt>
      <trkpt lat="50.01573" lon="4.25337">
        <ele>273.4</ele>
        <time>2024-04-16T05:00:51Z</time>
      </trkpt>
      <trkpt lat="50.01575" lon="4.2533">
        <ele>273.6</ele>
        <time>2024-04-16T05:00:52Z</time>
      </trkpt>
      <trkpt lat="50.01577" lon="4.25323">
        <ele>274</ele>
        <time>2024-04-16T05:00:53Z</time>
      </trkpt>
      <trkpt lat="50.01578" lon="4.25316">
        <ele>274.4</ele>
        <time>2024-04-16T05:00:54Z</time>
      </trkpt>
      <trkpt lat="50.0158" lon="4.25309">
        <ele>274.6</ele>
        <time>2024-04-16T05:00:55Z</time>
      </trkpt>
      <trkpt lat="50.01581" lon="4.25302">
        <ele>275</ele>
        <time>2024-04-16T05:00:56Z</time>
      </trkpt>
      <trkpt lat="50.01583" lon="4.25295">
        <ele>275</ele>
        <time>2024-04-16T05:00:57Z</time>
      </trkpt>
      <trkpt lat="50.01584" lon="4.25288">
        <ele>275.2</ele>
        <time>2024-04-16T05:00:58Z</time>
      </trkpt>
      <trkpt lat="50.01586" lon="4.25281">
        <ele>275.2</ele>
        <time>2024-04-16T05:00:59Z</time>
      </trkpt>
      <trkpt lat="50.01587" lon="4.25274">
        <ele>275.4</ele>
        <time>2024-04-16T05:01:00Z</time>
      </trkpt>
      <trkpt lat="50.01589" lon="4.25267">
        <ele>275.6</ele>
        <time>2024-04-16T05:01:01Z</time>
      </trkpt>
      <trkpt lat="50.0159" lon="4.2526">
        <ele>275.8</ele>
        <time>2024-04-16T05:01:02Z</time>
      </trkpt>
      <trkpt lat="50.01591" lon="4.25253">
        <ele>275.8</ele>
        <time>2024-04-16T05:01:03Z</time>
      </trkpt>
      <trkpt lat="50.01593" lon="4.25246">
        <ele>275.8</ele>
        <time>2024-04-16T05:01:04Z</time>
      </trkpt>
      <trkpt lat="50.01595" lon="4.25239">
        <ele>276</ele>
        <time>2024-04-16T05:01:05Z</time>
      </trkpt>
      <trkpt lat="50.01596" lon="4.25232">
        <ele>276</ele>
        <time>2024-04-16T05:01:06Z</time>
      </trkpt>
      <trkpt lat="50.01598" lon="4.25225">
        <ele>276.2</ele>
        <time>2024-04-16T05:01:07Z</time>
      </trkpt>
      <trkpt lat="50.01599" lon="4.25218">
        <ele>276</ele>
        <time>2024-04-16T05:01:08Z</time>
      </trkpt>
      <trkpt lat="50.016" lon="4.25211">
        <ele>276.2</ele>
        <time>2024-04-16T05:01:09Z</time>
      </trkpt>
      <trkpt lat="50.01602" lon="4.25204">
        <ele>276.4</ele>
        <time>2024-04-16T05:01:10Z</time>
      </trkpt>
      <trkpt lat="50.01603" lon="4.25197">
        <ele>276.4</ele>
        <time>2024-04-16T05:01:11Z</time>
      </trkpt>
      <trkpt lat="50.01605" lon="4.25191">
        <ele>276.6</ele>
        <time>2024-04-16T05:01:12Z</time>
      </trkpt>
      <trkpt lat="50.01606" lon="4.25184">
        <ele>276.6</ele>
        <time>2024-04-16T05:01:13Z</time>
      </trkpt>
      <trkpt lat="50.01608" lon="4.25177">
        <ele>276.6</ele>
        <time>2024-04-16T05:01:14Z</time>
      </trkpt>
      <trkpt lat="50.01609" lon="4.2517">
        <ele>276.8</ele>
        <time>2024-04-16T05:01:15Z</time>
      </trkpt>
      <trkpt lat="50.01611" lon="4.25163">
        <ele>277</ele>
        <time>2024-04-16T05:01:16Z</time>
      </trkpt>
      <trkpt lat="50.01613" lon="4.25156">
        <ele>277.2</ele>
        <time>2024-04-16T05:01:17Z</time>
      </trkpt>
      <trkpt lat="50.01614" lon="4.25149">
        <ele>277.2</ele>
        <time>2024-04-16T05:01:18Z</time>
      </trkpt>
      <trkpt lat="50.01616" lon="4.25143">
        <ele>277.4</ele>
        <time>2024-04-16T05:01:19Z</time>
      </trkpt>
      <trkpt lat="50.01617" lon="4.25136">
        <ele>277.4</ele>
        <time>2024-04-16T05:01:20Z</time>
      </trkpt>
      <trkpt lat="50.01619" lon="4.25129">
        <ele>277.4</ele>
        <time>2024-04-16T05:01:21Z</time>
      </trkpt>
      <trkpt lat="50.01621" lon="4.25122">
        <ele>277.4</ele>
        <time>2024-04-16T05:01:22Z</time>
      </trkpt>
      <trkpt lat="50.01622" lon="4.25115">
        <ele>277.4</ele>
        <time>2024-04-16T05:01:23Z</time>
      </trkpt>
      <trkpt lat="50.01623" lon="4.25109">
        <ele>277.6</ele>
        <time>2024-04-16T05:01:24Z</time>
      </trkpt>
      <trkpt lat="50.01625" lon="4.25102">
        <ele>277.4</ele>
        <time>2024-04-16T05:01:25Z</time>
      </trkpt>
      <trkpt lat="50.01627" lon="4.25095">
        <ele>277.6</ele>
        <time>2024-04-16T05:01:26Z</time>
      </trkpt>
      <trkpt lat="50.01628" lon="4.25088">
        <ele>277.6</ele>
        <time>2024-04-16T05:01:27Z</time>
      </trkpt>
      <trkpt lat="50.0163" lon="4.25081">
        <ele>277.6</ele>
        <time>2024-04-16T05:01:28Z</time>
      </trkpt>
      <trkpt lat="50.01631" lon="4.25074">
        <ele>277.8</ele>
        <time>2024-04-16T05:01:29Z</time>
      </trkpt>
      <trkpt lat="50.01633" lon="4.25067">
        <ele>277.8</ele>
        <time>2024-04-16T05:01:30Z</time>
      </trkpt>
      <trkpt lat="50.01634" lon="4.2506">
        <ele>277.8</ele>
        <time>2024-04-16T05:01:31Z</time>
      </trkpt>
      <trkpt lat="50.01636" lon="4.25053">
        <ele>277.8</ele>
        <time>2024-04-16T05:01:32Z</time>
      </trkpt>
      <trkpt lat="50.01638" lon="4.25046">
        <ele>278</ele>
        <time>2024-04-16T05:01:33Z</time>
      </trkpt>
      <trkpt lat="50.01639" lon="4.25039">
        <ele>278</ele>
        <time>2024-04-16T05:01:34Z</time>
      </trkpt>
      <trkpt lat="50.01641" lon="4.25032">
        <ele>278.2</ele>
        <time>2024-04-16T05:01:35Z</time>
      </trkpt>
      <trkpt lat="50.01643" lon="4.25025">
        <ele>278.6</ele>
        <time>2024-04-16T05:01:36Z</time>
      </trkpt>
      <trkpt lat="50.01644" lon="4.25018">
        <ele>279.2</ele>
        <time>2024-04-16T05:01:37Z</time>
      </trkpt>
      <trkpt lat="50.01646" lon="4.25011">
        <ele>279.4</ele>
        <time>2024-04-16T05:01:38Z</time>
      </trkpt>
      <trkpt lat="50.01648" lon="4.25003">
        <ele>279.4</ele>
        <time>2024-04-16T05:01:39Z</time>
      </trkpt>
      <trkpt lat="50.01649" lon="4.24996">
        <ele>279.8</ele>
        <time>2024-04-16T05:01:40Z</time>
      </trkpt>
      <trkpt lat="50.01651" lon="4.24989">
        <ele>280</ele>
        <time>2024-04-16T05:01:41Z</time>
      </trkpt>
      <trkpt lat="50.01653" lon="4.24982">
        <ele>280.2</ele>
        <time>2024-04-16T05:01:42Z</time>
      </trkpt>
      <trkpt lat="50.01655" lon="4.24975">
        <ele>280.2</ele>
        <time>2024-04-16T05:01:43Z</time>
      </trkpt>
      <trkpt lat="50.01657" lon="4.24968">
        <ele>280.4</ele>
        <time>2024-04-16T05:01:44Z</time>
      </trkpt>
      <trkpt lat="50.01659" lon="4.24961">
        <ele>280.6</ele>
        <time>2024-04-16T05:01:45Z</time>
      </trkpt>
      <trkpt lat="50.01661" lon="4.24954">
        <ele>280.6</ele>
        <time>2024-04-16T05:01:46Z</time>
      </trkpt>
      <trkpt lat="50.01664" lon="4.24948">
        <ele>280.8</ele>
        <time>2024-04-16T05:01:47Z</time>
      </trkpt>
      <trkpt lat="50.01667" lon="4.24941">
        <ele>280.8</ele>
        <time>2024-04-16T05:01:48Z</time>
      </trkpt>
      <trkpt lat="50.01669" lon="4.24935">
        <ele>280.8</ele>
        <time>2024-04-16T05:01:49Z</time>
      </trkpt>
      <trkpt lat="50.01672" lon="4.24929">
        <ele>280.8</ele>
        <time>2024-04-16T05:01:50Z</time>
      </trkpt>
      <trkpt lat="50.01675" lon="4.24923">
        <ele>281</ele>
        <time>2024-04-16T05:01:51Z</time>
      </trkpt>
      <trkpt lat="50.01678" lon="4.24917">
        <ele>281.2</ele>
        <time>2024-04-16T05:01:52Z</time>
      </trkpt>
      <trkpt lat="50.01682" lon="4.24911">
        <ele>281.4</ele>
        <time>2024-04-16T05:01:53Z</time>
      </trkpt>
      <trkpt lat="50.01685" lon="4.24905">
        <ele>281.4</ele>
        <time>2024-04-16T05:01:54Z</time>
      </trkpt>
      <trkpt lat="50.01689" lon="4.24899">
        <ele>281.4</ele>
        <time>2024-04-16T05:01:55Z</time>
      </trkpt>
      <trkpt lat="50.01693" lon="4.24893">
        <ele>281.4</ele>
        <time>2024-04-16T05:01:56Z</time>
      </trkpt>
      <trkpt lat="50.01697" lon="4.24887">
        <ele>281.6</ele>
        <time>2024-04-16T05:01:57Z</time>
      </trkpt>
      <trkpt lat="50.01701" lon="4.24881">
        <ele>281.8</ele>
        <time>2024-04-16T05:01:58Z</time>
      </trkpt>
      <trkpt lat="50.01705" lon="4.24876">
        <ele>282</ele>
        <time>2024-04-16T05:01:59Z</time>
      </trkpt>
      <trkpt lat="50.0171" lon="4.24871">
        <ele>282.2</ele>
        <time>2024-04-16T05:02:00Z</time>
      </trkpt>
      <trkpt lat="50.01715" lon="4.24865">
        <ele>282.4</ele>
        <time>2024-04-16T05:02:01Z</time>
      </trkpt>
      <trkpt lat="50.0172" lon="4.2486">
        <ele>282.4</ele>
        <time>2024-04-16T05:02:02Z</time>
      </trkpt>
      <trkpt lat="50.01725" lon="4.24855">
        <ele>282.4</ele>
        <time>2024-04-16T05:02:03Z</time>
      </trkpt>
      <trkpt lat="50.0173" lon="4.2485">
        <ele>282.6</ele>
        <time>2024-04-16T05:02:04Z</time>
      </trkpt>
      <trkpt lat="50.01735" lon="4.24844">
        <ele>282.4</ele>
        <time>2024-04-16T05:02:05Z</time>
      </trkpt>
      <trkpt lat="50.0174" lon="4.24839">
        <ele>282.4</ele>
        <time>2024-04-16T05:02:06Z</time>
      </trkpt>
      <trkpt lat="50.01745" lon="4.24833">
        <ele>282.6</ele>
        <time>2024-04-16T05:02:07Z</time>
      </trkpt>
      <trkpt lat="50.01751" lon="4.24828">
        <ele>282.8</ele>
        <time>2024-04-16T05:02:08Z</time>
      </trkpt>
      <trkpt lat="50.01756" lon="4.24822">
        <ele>282.8</ele>
        <time>2024-04-16T05:02:09Z</time>
      </trkpt>
      <trkpt lat="50.01762" lon="4.24816">
        <ele>282.8</ele>
        <time>2024-04-16T05:02:10Z</time>
      </trkpt>
      <trkpt lat="50.01767" lon="4.2481">
        <ele>282.8</ele>
        <time>2024-04-16T05:02:11Z</time>
      </trkpt>
      <trkpt lat="50.01773" lon="4.24804">
        <ele>282.8</ele>
        <time>2024-04-16T05:02:12Z</time>
      </trkpt>
      <trkpt lat="50.01778" lon="4.24798">
        <ele>282.8</ele>
        <time>2024-04-16T05:02:13Z</time>
      </trkpt>
      <trkpt lat="50.01783" lon="4.24791">
        <ele>282.6</ele>
        <time>2024-04-16T05:02:14Z</time>
      </trkpt>
      <trkpt lat="50.01789" lon="4.24784">
        <ele>282.6</ele>
        <time>2024-04-16T05:02:15Z</time>
      </trkpt>
      <trkpt lat="50.01794" lon="4.24777">
        <ele>282.6</ele>
        <time>2024-04-16T05:02:16Z</time>
      </trkpt>
      <trkpt lat="50.01799" lon="4.2477">
        <ele>282.4</ele>
        <time>2024-04-16T05:02:17Z</time>
      </trkpt>
      <trkpt lat="50.01805" lon="4.24762">
        <ele>282.4</ele>
        <time>2024-04-16T05:02:18Z</time>
      </trkpt>
      <trkpt lat="50.0181" lon="4.24754">
        <ele>282.2</ele>
        <time>2024-04-16T05:02:19Z</time>
      </trkpt>
      <trkpt lat="50.01815" lon="4.24746">
        <ele>282</ele>
        <time>2024-04-16T05:02:20Z</time>
      </trkpt>
      <trkpt lat="50.0182" lon="4.24737">
        <ele>281.8</ele>
        <time>2024-04-16T05:02:21Z</time>
      </trkpt>
      <trkpt lat="50.01825" lon="4.24728">
        <ele>281.6</ele>
        <time>2024-04-16T05:02:22Z</time>
      </trkpt>
      <trkpt lat="50.01829" lon="4.24719">
        <ele>281.2</ele>
        <time>2024-04-16T05:02:23Z</time>
      </trkpt>
      <trkpt lat="50.01834" lon="4.2471">
        <ele>281</ele>
        <time>2024-04-16T05:02:24Z</time>
      </trkpt>
      <trkpt lat="50.01838" lon="4.247">
        <ele>280.6</ele>
        <time>2024-04-16T05:02:25Z</time>
      </trkpt>
      <trkpt lat="50.01842" lon="4.2469">
        <ele>280.2</ele>
        <time>2024-04-16T05:02:26Z</time>
      </trkpt>
      <trkpt lat="50.01846" lon="4.24679">
        <ele>280</ele>
        <time>2024-04-16T05:02:27Z</time>
      </trkpt>
      <trkpt lat="50.01849" lon="4.24669">
        <ele>279.8</ele>
        <time>2024-04-16T05:02:28Z</time>
      </trkpt>
      <trkpt lat="50.01852" lon="4.24657">
        <ele>279.8</ele>
        <time>2024-04-16T05:02:29Z</time>
      </trkpt>
      <trkpt lat="50.01854" lon="4.24646">
        <ele>279.6</ele>
        <time>2024-04-16T05:02:30Z</time>
      </trkpt>
      <trkpt lat="50.01856" lon="4.24635">
        <ele>279.6</ele>
        <time>2024-04-16T05:02:31Z</time>
      </trkpt>
      <trkpt lat="50.01857" lon="4.24623">
        <ele>279.4</ele>
        <time>2024-04-16T05:02:32Z</time>
      </trkpt>
      <trkpt lat="50.01859" lon="4.24612">
        <ele>279.4</ele>
        <time>2024-04-16T05:02:33Z</time>
      </trkpt>
      <trkpt lat="50.01859" lon="4.24601">
        <ele>279</ele>
        <time>2024-04-16T05:02:34Z</time>
      </trkpt>
      <trkpt lat="50.0186" lon="4.24589">
        <ele>278.6</ele>
        <time>2024-04-16T05:02:35Z</time>
      </trkpt>
      <trkpt lat="50.0186" lon="4.24578">
        <ele>278.2</ele>
        <time>2024-04-16T05:02:36Z</time>
      </trkpt>
      <trkpt lat="50.0186" lon="4.24567">
        <ele>278</ele>
        <time>2024-04-16T05:02:37Z</time>
      </trkpt>
      <trkpt lat="50.0186" lon="4.24556">
        <ele>277.4</ele>
        <time>2024-04-16T05:02:38Z</time>
      </trkpt>
      <trkpt lat="50.0186" lon="4.24545">
        <ele>276.8</ele>
        <time>2024-04-16T05:02:39Z</time>
      </trkpt>
      <trkpt lat="50.0186" lon="4.24534">
        <ele>276.6</ele>
        <time>2024-04-16T05:02:40Z</time>
      </trkpt>
      <trkpt lat="50.01859" lon="4.24523">
        <ele>276.6</ele>
        <time>2024-04-16T05:02:41Z</time>
      </trkpt>
      <trkpt lat="50.01859" lon="4.24512">
        <ele>276</ele>
        <time>2024-04-16T05:02:42Z</time>
      </trkpt>
      <trkpt lat="50.01858" lon="4.24501">
        <ele>276</ele>
        <time>2024-04-16T05:02:43Z</time>
      </trkpt>
      <trkpt lat="50.01857" lon="4.24491">
        <ele>276</ele>
        <time>2024-04-16T05:02:44Z</time>
      </trkpt>
      <trkpt lat="50.01855" lon="4.2448">
        <ele>275.8</ele>
        <time>2024-04-16T05:02:45Z</time>
      </trkpt>
      <trkpt lat="50.01854" lon="4.2447">
        <ele>275.6</ele>
        <time>2024-04-16T05:02:46Z</time>
      </trkpt>
      <trkpt lat="50.01852" lon="4.24459">
        <ele>275.8</ele>
        <time>2024-04-16T05:02:47Z</time>
      </trkpt>
      <trkpt lat="50.0185" lon="4.24449">
        <ele>275.6</ele>
        <time>2024-04-16T05:02:48Z</time>
      </trkpt>
      <trkpt lat="50.01848" lon="4.24439">
        <ele>275.4</ele>
        <time>2024-04-16T05:02:49Z</time>
      </trkpt>
      <trkpt lat="50.01846" lon="4.24429">
        <ele>275.6</ele>
        <time>2024-04-16T05:02:50Z</time>
      </trkpt>
      <trkpt lat="50.01843" lon="4.24419">
        <ele>275.4</ele>
        <time>2024-04-16T05:02:51Z</time>
      </trkpt>
      <trkpt lat="50.0184" lon="4.24409">
        <ele>275.6</ele>
        <time>2024-04-16T05:02:52Z</time>
      </trkpt>
      <trkpt lat="50.01838" lon="4.24398">
        <ele>275.6</ele>
        <time>2024-04-16T05:02:53Z</time>
      </trkpt>
      <trkpt lat="50.01835" lon="4.24388">
        <ele>275.4</ele>
        <time>2024-04-16T05:02:54Z</time>
      </trkpt>
      <trkpt lat="50.01832" lon="4.24378">
        <ele>275.4</ele>
        <time>2024-04-16T05:02:55Z</time>
      </trkpt>
      <trkpt lat="50.01829" lon="4.24369">
        <ele>275.4</ele>
        <time>2024-04-16T05:02:56Z</time>
      </trkpt>
      <trkpt lat="50.01826" lon="4.24359">
        <ele>275.2</ele>
        <time>2024-04-16T05:02:57Z</time>
      </trkpt>
      <trkpt lat="50.01823" lon="4.24349">
        <ele>275.2</ele>
        <time>2024-04-16T05:02:58Z</time>
      </trkpt>
      <trkpt lat="50.0182" lon="4.24339">
        <ele>275</ele>
        <time>2024-04-16T05:02:59Z</time>
      </trkpt>
      <trkpt lat="50.01818" lon="4.24328">
        <ele>275</ele>
        <time>2024-04-16T05:03:00Z</time>
      </trkpt>
      <trkpt lat="50.01815" lon="4.24318">
        <ele>275</ele>
        <time>2024-04-16T05:03:01Z</time>
      </trkpt>
      <trkpt lat="50.01812" lon="4.24308">
        <ele>274.8</ele>
        <time>2024-04-16T05:03:02Z</time>
      </trkpt>
      <trkpt lat="50.01809" lon="4.24298">
        <ele>274.6</ele>
        <time>2024-04-16T05:03:03Z</time>
      </trkpt>
      <trkpt lat="50.01806" lon="4.24288">
        <ele>274.6</ele>
        <time>2024-04-16T05:03:04Z</time>
      </trkpt>
      <trkpt lat="50.01804" lon="4.24278">
        <ele>274.6</ele>
        <time>2024-04-16T05:03:05Z</time>
      </trkpt>
      <trkpt lat="50.01801" lon="4.24268">
        <ele>274.6</ele>
        <time>2024-04-16T05:03:06Z</time>
      </trkpt>
      <trkpt lat="50.01798" lon="4.24258">
        <ele>274.4</ele>
        <time>2024-04-16T05:03:07Z</time>
      </trkpt>
      <trkpt lat="50.01795" lon="4.24247">
        <ele>273.8</ele>
        <time>2024-04-16T05:03:08Z</time>
      </trkpt>
      <trkpt lat="50.01792" lon="4.24237">
        <ele>273.6</ele>
        <time>2024-04-16T05:03:09Z</time>
      </trkpt>
      <trkpt lat="50.01789" lon="4.24227">
        <ele>273</ele>
        <time>2024-04-16T05:03:10Z</time>
      </trkpt>
      <trkpt lat="50.01786" lon="4.24216">
        <ele>273</ele>
        <time>2024-04-16T05:03:11Z</time>
      </trkpt>
      <trkpt lat="50.01783" lon="4.24206">
        <ele>272.8</ele>
        <time>2024-04-16T05:03:12Z</time>
      </trkpt>
      <trkpt lat="50.0178" lon="4.24195">
        <ele>272.4</ele>
        <time>2024-04-16T05:03:13Z</time>
      </trkpt>
      <trkpt lat="50.01777" lon="4.24185">
        <ele>272.2</ele>
        <time>2024-04-16T05:03:14Z</time>
      </trkpt>
      <trkpt lat="50.01774" lon="4.24174">
        <ele>272.4</ele>
        <time>2024-04-16T05:03:15Z</time>
      </trkpt>
      <trkpt lat="50.01771" lon="4.24162">
        <ele>272</ele>
        <time>2024-04-16T05:03:16Z</time>
      </trkpt>
      <trkpt lat="50.01768" lon="4.24151">
        <ele>272</ele>
        <time>2024-04-16T05:03:17Z</time>
      </trkpt>
      <trkpt lat="50.01764" lon="4.24139">
        <ele>272</ele>
        <time>2024-04-16T05:03:18Z</time>
      </trkpt>
      <trkpt lat="50.0176" lon="4.24128">
        <ele>272</ele>
        <time>2024-04-16T05:03:19Z</time>
      </trkpt>
      <trkpt lat="50.01756" lon="4.24116">
        <ele>271.8</ele>
        <time>2024-04-16T05:03:20Z</time>
      </trkpt>
      <trkpt lat="50.01751" lon="4.24105">
        <ele>271.6</ele>
        <time>2024-04-16T05:03:21Z</time>
      </trkpt>
      <trkpt lat="50.01746" lon="4.24093">
        <ele>271.2</ele>
        <time>2024-04-16T05:03:22Z</time>
      </trkpt>
      <trkpt lat="50.0174" lon="4.24082">
        <ele>270.2</ele>
        <time>2024-04-16T05:03:23Z</time>
      </trkpt>
      <trkpt lat="50.01735" lon="4.24071">
        <ele>269.8</ele>
        <time>2024-04-16T05:03:24Z</time>
      </trkpt>
      <trkpt lat="50.01729" lon="4.24059">
        <ele>269.6</ele>
        <time>2024-04-16T05:03:25Z</time>
      </trkpt>
      <trkpt lat="50.01723" lon="4.24048">
        <ele>269.2</ele>
        <time>2024-04-16T05:03:26Z</time>
      </trkpt>
      <trkpt lat="50.01717" lon="4.24037">
        <ele>268.8</ele>
        <time>2024-04-16T05:03:27Z</time>
      </trkpt>
      <trkpt lat="50.01711" lon="4.24025">
        <ele>268.4</ele>
        <time>2024-04-16T05:03:28Z</time>
      </trkpt>
      <trkpt lat="50.01705" lon="4.24013">
        <ele>268.2</ele>
        <time>2024-04-16T05:03:29Z</time>
      </trkpt>
      <trkpt lat="50.01699" lon="4.24002">
        <ele>267.6</ele>
        <time>2024-04-16T05:03:30Z</time>
      </trkpt>
      <trkpt lat="50.01693" lon="4.23989">
        <ele>266.8</ele>
        <time>2024-04-16T05:03:31Z</time>
      </trkpt>
      <trkpt lat="50.01689" lon="4.23975">
        <ele>265.8</ele>
        <time>2024-04-16T05:03:32Z</time>
      </trkpt>
      <trkpt lat="50.01685" lon="4.2396">
        <ele>265.4</ele>
        <time>2024-04-16T05:03:33Z</time>
      </trkpt>
      <trkpt lat="50.01682" lon="4.23944">
        <ele>265</ele>
        <time>2024-04-16T05:03:34Z</time>
      </trkpt>
      <trkpt lat="50.0168" lon="4.23929">
        <ele>263.8</ele>
        <time>2024-04-16T05:03:35Z</time>
      </trkpt>
      <trkpt lat="50.01678" lon="4.23914">
        <ele>263.4</ele>
        <time>2024-04-16T05:03:36Z</time>
      </trkpt>
      <trkpt lat="50.01676" lon="4.23899">
        <ele>263</ele>
        <time>2024-04-16T05:03:37Z</time>
      </trkpt>
      <trkpt lat="50.01675" lon="4.23885">
        <ele>262.4</ele>
        <time>2024-04-16T05:03:38Z</time>
      </trkpt>
      <trkpt lat="50.01674" lon="4.23872">
        <ele>262.4</ele>
        <time>2024-04-16T05:03:39Z</time>
      </trkpt>
      <trkpt lat="50.01675" lon="4.2386">
        <ele>261.4</ele>
        <time>2024-04-16T05:03:40Z</time>
      </trkpt>
      <trkpt lat="50.01676" lon="4.23849">
        <ele>261</ele>
        <time>2024-04-16T05:03:41Z</time>
      </trkpt>
      <trkpt lat="50.01677" lon="4.23839">
        <ele>260.8</ele>
        <time>2024-04-16T05:03:42Z</time>
      </trkpt>
      <trkpt lat="50.0168" lon="4.2383">
        <ele>260.6</ele>
        <time>2024-04-16T05:03:43Z</time>
      </trkpt>
      <trkpt lat="50.01684" lon="4.2382">
        <ele>260.6</ele>
        <time>2024-04-16T05:03:44Z</time>
      </trkpt>
      <trkpt lat="50.01687" lon="4.23812">
        <ele>260.6</ele>
        <time>2024-04-16T05:03:45Z</time>
      </trkpt>
      <trkpt lat="50.01691" lon="4.23803">
        <ele>260.6</ele>
        <time>2024-04-16T05:03:46Z</time>
      </trkpt>
      <trkpt lat="50.01694" lon="4.23794">
        <ele>260.6</ele>
        <time>2024-04-16T05:03:47Z</time>
      </trkpt>
      <trkpt lat="50.01697" lon="4.23785">
        <ele>260.6</ele>
        <time>2024-04-16T05:03:48Z</time>
      </trkpt>
      <trkpt lat="50.01701" lon="4.23776">
        <ele>260.6</ele>
        <time>2024-04-16T05:03:49Z</time>
      </trkpt>
      <trkpt lat="50.01704" lon="4.23768">
        <ele>261.4</ele>
        <time>2024-04-16T05:03:50Z</time>
      </trkpt>
      <trkpt lat="50.01707" lon="4.23759">
        <ele>262</ele>
        <time>2024-04-16T05:03:51Z</time>
      </trkpt>
      <trkpt lat="50.01711" lon="4.2375">
        <ele>262.8</ele>
        <time>2024-04-16T05:03:52Z</time>
      </trkpt>
      <trkpt lat="50.01714" lon="4.23742">
        <ele>263.4</ele>
        <time>2024-04-16T05:03:53Z</time>
      </trkpt>
      <trkpt lat="50.01717" lon="4.23733">
        <ele>264</ele>
        <time>2024-04-16T05:03:54Z</time>
      </trkpt>
      <trkpt lat="50.0172" lon="4.23724">
        <ele>264.4</ele>
        <time>2024-04-16T05:03:55Z</time>
      </trkpt>
      <trkpt lat="50.01723" lon="4.23716">
        <ele>264.6</ele>
        <time>2024-04-16T05:03:56Z</time>
      </trkpt>
      <trkpt lat="50.01727" lon="4.23707">
        <ele>265</ele>
        <time>2024-04-16T05:03:57Z</time>
      </trkpt>
      <trkpt lat="50.0173" lon="4.23698">
        <ele>264.8</ele>
        <time>2024-04-16T05:03:58Z</time>
      </trkpt>
      <trkpt lat="50.01733" lon="4.23689">
        <ele>265</ele>
        <time>2024-04-16T05:03:59Z</time>
      </trkpt>
      <trkpt lat="50.01737" lon="4.23679">
        <ele>265</ele>
        <time>2024-04-16T05:04:00Z</time>
      </trkpt>
      <trkpt lat="50.0174" lon="4.2367">
        <ele>265</ele>
        <time>2024-04-16T05:04:01Z</time>
      </trkpt>
      <trkpt lat="50.01743" lon="4.2366">
        <ele>265.2</ele>
        <time>2024-04-16T05:04:02Z</time>
      </trkpt>
      <trkpt lat="50.01745" lon="4.23651">
        <ele>265.4</ele>
        <time>2024-04-16T05:04:03Z</time>
      </trkpt>
      <trkpt lat="50.01748" lon="4.23641">
        <ele>265.4</ele>
        <time>2024-04-16T05:04:04Z</time>
      </trkpt>
      <trkpt lat="50.01751" lon="4.23631">
        <ele>265.4</ele>
        <time>2024-04-16T05:04:05Z</time>
      </trkpt>
      <trkpt lat="50.01754" lon="4.23622">
        <ele>265.4</ele>
        <time>2024-04-16T05:04:06Z</time>
      </trkpt>
      <trkpt lat="50.01756" lon="4.23612">
        <ele>265.4</ele>
        <time>2024-04-16T05:04:07Z</time>
      </trkpt>
      <trkpt lat="50.01759" lon="4.23602">
        <ele>265.4</ele>
        <time>2024-04-16T05:04:08Z</time>
      </trkpt>
      <trkpt lat="50.01762" lon="4.23592">
        <ele>265.4</ele>
        <time>2024-04-16T05:04:09Z</time>
      </trkpt>
      <trkpt lat="50.01764" lon="4.23582">
        <ele>265.4</ele>
        <time>2024-04-16T05:04:10Z</time>
      </trkpt>
      <trkpt lat="50.01766" lon="4.23572">
        <ele>265.4</ele>
        <time>2024-04-16T05:04:11Z</time>
      </trkpt>
      <trkpt lat="50.01768" lon="4.23563">
        <ele>265.4</ele>
        <time>2024-04-16T05:04:12Z</time>
      </trkpt>
      <trkpt lat="50.0177" lon="4.23553">
        <ele>265.4</ele>
        <time>2024-04-16T05:04:13Z</time>
      </trkpt>
      <trkpt lat="50.01772" lon="4.23544">
        <ele>265.4</ele>
        <time>2024-04-16T05:04:14Z</time>
      </trkpt>
      <trkpt lat="50.01774" lon="4.23535">
        <ele>265.4</ele>
        <time>2024-04-16T05:04:15Z</time>
      </trkpt>
      <trkpt lat="50.01777" lon="4.23526">
        <ele>265.4</ele>
        <time>2024-04-16T05:04:16Z</time>
      </trkpt>
      <trkpt lat="50.01779" lon="4.23517">
        <ele>265.4</ele>
        <time>2024-04-16T05:04:17Z</time>
      </trkpt>
      <trkpt lat="50.01781" lon="4.23509">
        <ele>265.4</ele>
        <time>2024-04-16T05:04:18Z</time>
      </trkpt>
      <trkpt lat="50.01783" lon="4.23501">
        <ele>265.4</ele>
        <time>2024-04-16T05:04:19Z</time>
      </trkpt>
      <trkpt lat="50.01785" lon="4.23493">
        <ele>265.4</ele>
        <time>2024-04-16T05:04:20Z</time>
      </trkpt>
      <trkpt lat="50.01786" lon="4.23485">
        <ele>265.6</ele>
        <time>2024-04-16T05:04:21Z</time>
      </trkpt>
      <trkpt lat="50.01788" lon="4.23477">
        <ele>265.6</ele>
        <time>2024-04-16T05:04:22Z</time>
      </trkpt>
      <trkpt lat="50.01791" lon="4.23469">
        <ele>265.8</ele>
        <time>2024-04-16T05:04:23Z</time>
      </trkpt>
      <trkpt lat="50.01793" lon="4.23461">
        <ele>265.8</ele>
        <time>2024-04-16T05:04:24Z</time>
      </trkpt>
      <trkpt lat="50.01795" lon="4.23453">
        <ele>266.2</ele>
        <time>2024-04-16T05:04:25Z</time>
      </trkpt>
      <trkpt lat="50.01797" lon="4.23445">
        <ele>266.2</ele>
        <time>2024-04-16T05:04:26Z</time>
      </trkpt>
      <trkpt lat="50.01799" lon="4.23436">
        <ele>266.6</ele>
        <time>2024-04-16T05:04:27Z</time>
      </trkpt>
      <trkpt lat="50.01801" lon="4.23428">
        <ele>266.8</ele>
        <time>2024-04-16T05:04:28Z</time>
      </trkpt>
      <trkpt lat="50.01802" lon="4.2342">
        <ele>267.6</ele>
        <time>2024-04-16T05:04:29Z</time>
      </trkpt>
      <trkpt lat="50.01804" lon="4.23412">
        <ele>268.2</ele>
        <time>2024-04-16T05:04:30Z</time>
      </trkpt>
      <trkpt lat="50.01805" lon="4.23404">
        <ele>268.8</ele>
        <time>2024-04-16T05:04:31Z</time>
      </trkpt>
      <trkpt lat="50.01807" lon="4.23396">
        <ele>269</ele>
        <time>2024-04-16T05:04:32Z</time>
      </trkpt>
      <trkpt lat="50.01809" lon="4.23388">
        <ele>269.4</ele>
        <time>2024-04-16T05:04:33Z</time>
      </trkpt>
      <trkpt lat="50.01811" lon="4.2338">
        <ele>269.6</ele>
        <time>2024-04-16T05:04:34Z</time>
      </trkpt>
      <trkpt lat="50.01813" lon="4.23372">
        <ele>270.4</ele>
        <time>2024-04-16T05:04:35Z</time>
      </trkpt>
      <trkpt lat="50.01815" lon="4.23364">
        <ele>271</ele>
        <time>2024-04-16T05:04:36Z</time>
      </trkpt>
      <trkpt lat="50.01817" lon="4.23356">
        <ele>271.4</ele>
        <time>2024-04-16T05:04:37Z</time>
      </trkpt>
      <trkpt lat="50.01819" lon="4.23348">
        <ele>271.8</ele>
        <time>2024-04-16T05:04:38Z</time>
      </trkpt>
      <trkpt lat="50.01821" lon="4.2334">
        <ele>272</ele>
        <time>2024-04-16T05:04:39Z</time>
      </trkpt>
      <trkpt lat="50.01823" lon="4.23333">
        <ele>272</ele>
        <time>2024-04-16T05:04:40Z</time>
      </trkpt>
      <trkpt lat="50.01825" lon="4.23325">
        <ele>272</ele>
        <time>2024-04-16T05:04:41Z</time>
      </trkpt>
      <trkpt lat="50.01827" lon="4.23318">
        <ele>272.2</ele>
        <time>2024-04-16T05:04:42Z</time>
      </trkpt>
      <trkpt lat="50.01829" lon="4.2331">
        <ele>272.2</ele>
        <time>2024-04-16T05:04:43Z</time>
      </trkpt>
      <trkpt lat="50.01831" lon="4.23302">
        <ele>272.2</ele>
        <time>2024-04-16T05:04:44Z</time>
      </trkpt>
      <trkpt lat="50.01833" lon="4.23294">
        <ele>272.4</ele>
        <time>2024-04-16T05:04:45Z</time>
      </trkpt>
      <trkpt lat="50.01835" lon="4.23286">
        <ele>272.4</ele>
        <time>2024-04-16T05:04:46Z</time>
      </trkpt>
      <trkpt lat="50.01837" lon="4.23277">
        <ele>272.8</ele>
        <time>2024-04-16T05:04:47Z</time>
      </trkpt>
      <trkpt lat="50.0184" lon="4.23269">
        <ele>273</ele>
        <time>2024-04-16T05:04:48Z</time>
      </trkpt>
      <trkpt lat="50.01842" lon="4.23261">
        <ele>273</ele>
        <time>2024-04-16T05:04:49Z</time>
      </trkpt>
      <trkpt lat="50.01844" lon="4.23254">
        <ele>273.2</ele>
        <time>2024-04-16T05:04:50Z</time>
      </trkpt>
      <trkpt lat="50.01847" lon="4.23246">
        <ele>273.4</ele>
        <time>2024-04-16T05:04:51Z</time>
      </trkpt>
      <trkpt lat="50.01849" lon="4.23239">
        <ele>273.6</ele>
        <time>2024-04-16T05:04:52Z</time>
      </trkpt>
      <trkpt lat="50.01852" lon="4.23233">
        <ele>273.8</ele>
        <time>2024-04-16T05:04:53Z</time>
      </trkpt>
      <trkpt lat="50.01855" lon="4.23226">
        <ele>274</ele>
        <time>2024-04-16T05:04:54Z</time>
      </trkpt>
      <trkpt lat="50.01858" lon="4.2322">
        <ele>274.4</ele>
        <time>2024-04-16T05:04:55Z</time>
      </trkpt>
      <trkpt lat="50.01862" lon="4.23213">
        <ele>274.8</ele>
        <time>2024-04-16T05:04:56Z</time>
      </trkpt>
      <trkpt lat="50.01866" lon="4.23207">
        <ele>275</ele>
        <time>2024-04-16T05:04:57Z</time>
      </trkpt>
      <trkpt lat="50.0187" lon="4.23201">
        <ele>275.4</ele>
        <time>2024-04-16T05:04:58Z</time>
      </trkpt>
      <trkpt lat="50.01875" lon="4.23196">
        <ele>275.6</ele>
        <time>2024-04-16T05:04:59Z</time>
      </trkpt>
      <trkpt lat="50.0188" lon="4.23191">
        <ele>276</ele>
        <time>2024-04-16T05:05:00Z</time>
      </trkpt>
      <trkpt lat="50.01885" lon="4.23187">
        <ele>276</ele>
        <time>2024-04-16T05:05:01Z</time>
      </trkpt>
      <trkpt lat="50.0189" lon="4.23182">
        <ele>276</ele>
        <time>2024-04-16T05:05:02Z</time>
      </trkpt>
      <trkpt lat="50.01895" lon="4.23178">
        <ele>276.2</ele>
        <time>2024-04-16T05:05:03Z</time>
      </trkpt>
      <trkpt lat="50.019" lon="4.23174">
        <ele>276.2</ele>
        <time>2024-04-16T05:05:04Z</time>
      </trkpt>
      <trkpt lat="50.01905" lon="4.2317">
        <ele>276.2</ele>
        <time>2024-04-16T05:05:05Z</time>
      </trkpt>
      <trkpt lat="50.0191" lon="4.23167">
        <ele>276.4</ele>
        <time>2024-04-16T05:05:06Z</time>
      </trkpt>
      <trkpt lat="50.01916" lon="4.23164">
        <ele>276.4</ele>
        <time>2024-04-16T05:05:07Z</time>
      </trkpt>
      <trkpt lat="50.01921" lon="4.23162">
        <ele>276.4</ele>
        <time>2024-04-16T05:05:08Z</time>
      </trkpt>
      <trkpt lat="50.01926" lon="4.2316">
        <ele>276.8</ele>
        <time>2024-04-16T05:05:09Z</time>
      </trkpt>
      <trkpt lat="50.01931" lon="4.23158">
        <ele>277</ele>
        <time>2024-04-16T05:05:10Z</time>
      </trkpt>
      <trkpt lat="50.01935" lon="4.23156">
        <ele>277.4</ele>
        <time>2024-04-16T05:05:11Z</time>
      </trkpt>
      <trkpt lat="50.0194" lon="4.23153">
        <ele>277.8</ele>
        <time>2024-04-16T05:05:12Z</time>
      </trkpt>
      <trkpt lat="50.01945" lon="4.23152">
        <ele>278.4</ele>
        <time>2024-04-16T05:05:13Z</time>
      </trkpt>
      <trkpt lat="50.01951" lon="4.23149">
        <ele>278.8</ele>
        <time>2024-04-16T05:05:14Z</time>
      </trkpt>
      <trkpt lat="50.01956" lon="4.23147">
        <ele>279</ele>
        <time>2024-04-16T05:05:15Z</time>
      </trkpt>
      <trkpt lat="50.01963" lon="4.23144">
        <ele>279.2</ele>
        <time>2024-04-16T05:05:16Z</time>
      </trkpt>
      <trkpt lat="50.01969" lon="4.23141">
        <ele>279.2</ele>
        <time>2024-04-16T05:05:17Z</time>
      </trkpt>
      <trkpt lat="50.01974" lon="4.2314">
        <ele>279.4</ele>
        <time>2024-04-16T05:05:18Z</time>
      </trkpt>
      <trkpt lat="50.01979" lon="4.23138">
        <ele>279.4</ele>
        <time>2024-04-16T05:05:19Z</time>
      </trkpt>
      <trkpt lat="50.01985" lon="4.23136">
        <ele>280</ele>
        <time>2024-04-16T05:05:20Z</time>
      </trkpt>
      <trkpt lat="50.01991" lon="4.23134">
        <ele>280.2</ele>
        <time>2024-04-16T05:05:21Z</time>
      </trkpt>
      <trkpt lat="50.01998" lon="4.23132">
        <ele>280.4</ele>
        <time>2024-04-16T05:05:22Z</time>
      </trkpt>
      <trkpt lat="50.02004" lon="4.23129">
        <ele>280.6</ele>
        <time>2024-04-16T05:05:23Z</time>
      </trkpt>
      <trkpt lat="50.0201" lon="4.23126">
        <ele>280.8</ele>
        <time>2024-04-16T05:05:24Z</time>
      </trkpt>
      <trkpt lat="50.02017" lon="4.23124">
        <ele>280.8</ele>
        <time>2024-04-16T05:05:25Z</time>
      </trkpt>
      <trkpt lat="50.02023" lon="4.23121">
        <ele>281</ele>
        <time>2024-04-16T05:05:26Z</time>
      </trkpt>
      <trkpt lat="50.02029" lon="4.23118">
        <ele>281</ele>
        <time>2024-04-16T05:05:27Z</time>
      </trkpt>
      <trkpt lat="50.02034" lon="4.23116">
        <ele>281</ele>
        <time>2024-04-16T05:05:28Z</time>
      </trkpt>
      <trkpt lat="50.0204" lon="4.23114">
        <ele>281</ele>
        <time>2024-04-16T05:05:29Z</time>
      </trkpt>
      <trkpt lat="50.02046" lon="4.23111">
        <ele>281</ele>
        <time>2024-04-16T05:05:30Z</time>
      </trkpt>
      <trkpt lat="50.02052" lon="4.23109">
        <ele>281</ele>
        <time>2024-04-16T05:05:31Z</time>
      </trkpt>
      <trkpt lat="50.02058" lon="4.23106">
        <ele>281</ele>
        <time>2024-04-16T05:05:32Z</time>
      </trkpt>
      <trkpt lat="50.02065" lon="4.23104">
        <ele>281.2</ele>
        <time>2024-04-16T05:05:33Z</time>
      </trkpt>
      <trkpt lat="50.02071" lon="4.23101">
        <ele>281</ele>
        <time>2024-04-16T05:05:34Z</time>
      </trkpt>
      <trkpt lat="50.02078" lon="4.23099">
        <ele>281</ele>
        <time>2024-04-16T05:05:35Z</time>
      </trkpt>
      <trkpt lat="50.02084" lon="4.23096">
        <ele>281</ele>
        <time>2024-04-16T05:05:36Z</time>
      </trkpt>
      <trkpt lat="50.0209" lon="4.23093">
        <ele>281.2</ele>
        <time>2024-04-16T05:05:37Z</time>
      </trkpt>
      <trkpt lat="50.02096" lon="4.23091">
        <ele>281.2</ele>
        <time>2024-04-16T05:05:38Z</time>
      </trkpt>
      <trkpt lat="50.02102" lon="4.23088">
        <ele>281.2</ele>
        <time>2024-04-16T05:05:39Z</time>
      </trkpt>
      <trkpt lat="50.02108" lon="4.23086">
        <ele>281.2</ele>
        <time>2024-04-16T05:05:40Z</time>
      </trkpt>
      <trkpt lat="50.02115" lon="4.23083">
        <ele>281</ele>
        <time>2024-04-16T05:05:41Z</time>
      </trkpt>
      <trkpt lat="50.02121" lon="4.23081">
        <ele>281.4</ele>
        <time>2024-04-16T05:05:42Z</time>
      </trkpt>
      <trkpt lat="50.02127" lon="4.23079">
        <ele>281.2</ele>
        <time>2024-04-16T05:05:43Z</time>
      </trkpt>
      <trkpt lat="50.02133" lon="4.23077">
        <ele>281.4</ele>
        <time>2024-04-16T05:05:44Z</time>
      </trkpt>
      <trkpt lat="50.02139" lon="4.23074">
        <ele>281.4</ele>
        <time>2024-04-16T05:05:45Z</time>
      </trkpt>
      <trkpt lat="50.02145" lon="4.23072">
        <ele>281.4</ele>
        <time>2024-04-16T05:05:46Z</time>
      </trkpt>
      <trkpt lat="50.02152" lon="4.2307">
        <ele>281.2</ele>
        <time>2024-04-16T05:05:47Z</time>
      </trkpt>
      <trkpt lat="50.02158" lon="4.23067">
        <ele>281.2</ele>
        <time>2024-04-16T05:05:48Z</time>
      </trkpt>
      <trkpt lat="50.02165" lon="4.23065">
        <ele>281.2</ele>
        <time>2024-04-16T05:05:49Z</time>
      </trkpt>
      <trkpt lat="50.02172" lon="4.23063">
        <ele>281.2</ele>
        <time>2024-04-16T05:05:50Z</time>
      </trkpt>
      <trkpt lat="50.02179" lon="4.2306">
        <ele>281.2</ele>
        <time>2024-04-16T05:05:51Z</time>
      </trkpt>
      <trkpt lat="50.02185" lon="4.23058">
        <ele>281</ele>
        <time>2024-04-16T05:05:52Z</time>
      </trkpt>
      <trkpt lat="50.02192" lon="4.23055">
        <ele>281</ele>
        <time>2024-04-16T05:05:53Z</time>
      </trkpt>
      <trkpt lat="50.02198" lon="4.23053">
        <ele>281</ele>
        <time>2024-04-16T05:05:54Z</time>
      </trkpt>
      <trkpt lat="50.02204" lon="4.2305">
        <ele>280.8</ele>
        <time>2024-04-16T05:05:55Z</time>
      </trkpt>
      <trkpt lat="50.02211" lon="4.23047">
        <ele>280.8</ele>
        <time>2024-04-16T05:05:56Z</time>
      </trkpt>
      <trkpt lat="50.02217" lon="4.23045">
        <ele>280.6</ele>
        <time>2024-04-16T05:05:57Z</time>
      </trkpt>
      <trkpt lat="50.02224" lon="4.23042">
        <ele>280.6</ele>
        <time>2024-04-16T05:05:58Z</time>
      </trkpt>
      <trkpt lat="50.0223" lon="4.23039">
        <ele>280.4</ele>
        <time>2024-04-16T05:05:59Z</time>
      </trkpt>
      <trkpt lat="50.02237" lon="4.23036">
        <ele>280.6</ele>
        <time>2024-04-16T05:06:00Z</time>
      </trkpt>
      <trkpt lat="50.02243" lon="4.23034">
        <ele>280.4</ele>
        <time>2024-04-16T05:06:01Z</time>
      </trkpt>
      <trkpt lat="50.02249" lon="4.23032">
        <ele>280.6</ele>
        <time>2024-04-16T05:06:02Z</time>
      </trkpt>
      <trkpt lat="50.02256" lon="4.23029">
        <ele>280.6</ele>
        <time>2024-04-16T05:06:03Z</time>
      </trkpt>
      <trkpt lat="50.02262" lon="4.23027">
        <ele>280.4</ele>
        <time>2024-04-16T05:06:04Z</time>
      </trkpt>
      <trkpt lat="50.02268" lon="4.23025">
        <ele>280.6</ele>
        <time>2024-04-16T05:06:05Z</time>
      </trkpt>
      <trkpt lat="50.02274" lon="4.23022">
        <ele>280.6</ele>
        <time>2024-04-16T05:06:06Z</time>
      </trkpt>
      <trkpt lat="50.02281" lon="4.2302">
        <ele>280.6</ele>
        <time>2024-04-16T05:06:07Z</time>
      </trkpt>
      <trkpt lat="50.02286" lon="4.23017">
        <ele>280.8</ele>
        <time>2024-04-16T05:06:08Z</time>
      </trkpt>
      <trkpt lat="50.02293" lon="4.23014">
        <ele>280.6</ele>
        <time>2024-04-16T05:06:09Z</time>
      </trkpt>
      <trkpt lat="50.02299" lon="4.23011">
        <ele>280.8</ele>
        <time>2024-04-16T05:06:10Z</time>
      </trkpt>
      <trkpt lat="50.02305" lon="4.23008">
        <ele>280.8</ele>
        <time>2024-04-16T05:06:11Z</time>
      </trkpt>
      <trkpt lat="50.02311" lon="4.23006">
        <ele>280.6</ele>
        <time>2024-04-16T05:06:12Z</time>
      </trkpt>
      <trkpt lat="50.02318" lon="4.23003">
        <ele>280.8</ele>
        <time>2024-04-16T05:06:13Z</time>
      </trkpt>
      <trkpt lat="50.02325" lon="4.23">
        <ele>280.6</ele>
        <time>2024-04-16T05:06:14Z</time>
      </trkpt>
      <trkpt lat="50.02331" lon="4.22998">
        <ele>280.8</ele>
        <time>2024-04-16T05:06:15Z</time>
      </trkpt>
      <trkpt lat="50.02338" lon="4.22996">
        <ele>280.6</ele>
        <time>2024-04-16T05:06:16Z</time>
      </trkpt>
      <trkpt lat="50.02345" lon="4.22994">
        <ele>280.6</ele>
        <time>2024-04-16T05:06:17Z</time>
      </trkpt>
      <trkpt lat="50.02351" lon="4.22992">
        <ele>280.6</ele>
        <time>2024-04-16T05:06:18Z</time>
      </trkpt>
      <trkpt lat="50.02358" lon="4.2299">
        <ele>280.8</ele>
        <time>2024-04-16T05:06:19Z</time>
      </trkpt>
      <trkpt lat="50.02365" lon="4.22988">
        <ele>280.6</ele>
        <time>2024-04-16T05:06:20Z</time>
      </trkpt>
      <trkpt lat="50.02371" lon="4.22985">
        <ele>280.4</ele>
        <time>2024-04-16T05:06:21Z</time>
      </trkpt>
      <trkpt lat="50.02378" lon="4.22983">
        <ele>280.2</ele>
        <time>2024-04-16T05:06:22Z</time>
      </trkpt>
      <trkpt lat="50.02385" lon="4.2298">
        <ele>280</ele>
        <time>2024-04-16T05:06:23Z</time>
      </trkpt>
      <trkpt lat="50.02392" lon="4.22977">
        <ele>280</ele>
        <time>2024-04-16T05:06:24Z</time>
      </trkpt>
      <trkpt lat="50.02398" lon="4.22974">
        <ele>280</ele>
        <time>2024-04-16T05:06:25Z</time>
      </trkpt>
      <trkpt lat="50.02405" lon="4.22971">
        <ele>279.8</ele>
        <time>2024-04-16T05:06:26Z</time>
      </trkpt>
      <trkpt lat="50.02412" lon="4.22969">
        <ele>279.4</ele>
        <time>2024-04-16T05:06:27Z</time>
      </trkpt>
      <trkpt lat="50.02419" lon="4.22966">
        <ele>279.2</ele>
        <time>2024-04-16T05:06:28Z</time>
      </trkpt>
      <trkpt lat="50.02427" lon="4.22963">
        <ele>279</ele>
        <time>2024-04-16T05:06:29Z</time>
      </trkpt>
      <trkpt lat="50.02434" lon="4.2296">
        <ele>278.8</ele>
        <time>2024-04-16T05:06:30Z</time>
      </trkpt>
      <trkpt lat="50.02441" lon="4.22957">
        <ele>278.6</ele>
        <time>2024-04-16T05:06:31Z</time>
      </trkpt>
      <trkpt lat="50.02448" lon="4.22955">
        <ele>278.4</ele>
        <time>2024-04-16T05:06:32Z</time>
      </trkpt>
      <trkpt lat="50.02455" lon="4.22953">
        <ele>278.4</ele>
        <time>2024-04-16T05:06:33Z</time>
      </trkpt>
      <trkpt lat="50.02463" lon="4.2295">
        <ele>278</ele>
        <time>2024-04-16T05:06:34Z</time>
      </trkpt>
      <trkpt lat="50.02471" lon="4.22947">
        <ele>278</ele>
        <time>2024-04-16T05:06:35Z</time>
      </trkpt>
      <trkpt lat="50.02478" lon="4.22944">
        <ele>277.8</ele>
        <time>2024-04-16T05:06:36Z</time>
      </trkpt>
      <trkpt lat="50.02485" lon="4.22941">
        <ele>277.8</ele>
        <time>2024-04-16T05:06:37Z</time>
      </trkpt>
      <trkpt lat="50.02493" lon="4.22937">
        <ele>277.6</ele>
        <time>2024-04-16T05:06:38Z</time>
      </trkpt>
      <trkpt lat="50.02501" lon="4.22934">
        <ele>277.6</ele>
        <time>2024-04-16T05:06:39Z</time>
      </trkpt>
      <trkpt lat="50.02508" lon="4.22931">
        <ele>277.6</ele>
        <time>2024-04-16T05:06:40Z</time>
      </trkpt>
      <trkpt lat="50.02515" lon="4.22929">
        <ele>277.2</ele>
        <time>2024-04-16T05:06:41Z</time>
      </trkpt>
      <trkpt lat="50.02524" lon="4.22925">
        <ele>277.2</ele>
        <time>2024-04-16T05:06:42Z</time>
      </trkpt>
      <trkpt lat="50.02531" lon="4.22922">
        <ele>277</ele>
        <time>2024-04-16T05:06:43Z</time>
      </trkpt>
      <trkpt lat="50.02539" lon="4.22919">
        <ele>277</ele>
        <time>2024-04-16T05:06:44Z</time>
      </trkpt>
      <trkpt lat="50.02546" lon="4.22917">
        <ele>276.6</ele>
        <time>2024-04-16T05:06:45Z</time>
      </trkpt>
      <trkpt lat="50.02554" lon="4.22914">
        <ele>276.4</ele>
        <time>2024-04-16T05:06:46Z</time>
      </trkpt>
      <trkpt lat="50.02563" lon="4.22911">
        <ele>276.4</ele>
        <time>2024-04-16T05:06:47Z</time>
      </trkpt>
      <trkpt lat="50.02571" lon="4.22908">
        <ele>276.2</ele>
        <time>2024-04-16T05:06:48Z</time>
      </trkpt>
      <trkpt lat="50.02579" lon="4.22905">
        <ele>275.8</ele>
        <time>2024-04-16T05:06:49Z</time>
      </trkpt>
      <trkpt lat="50.02586" lon="4.22901">
        <ele>275.2</ele>
        <time>2024-04-16T05:06:50Z</time>
      </trkpt>
      <trkpt lat="50.02593" lon="4.22898">
        <ele>274.8</ele>
        <time>2024-04-16T05:06:51Z</time>
      </trkpt>
      <trkpt lat="50.02601" lon="4.22895">
        <ele>274.4</ele>
        <time>2024-04-16T05:06:52Z</time>
      </trkpt>
      <trkpt lat="50.02609" lon="4.22892">
        <ele>274</ele>
        <time>2024-04-16T05:06:53Z</time>
      </trkpt>
      <trkpt lat="50.02617" lon="4.22888">
        <ele>274</ele>
        <time>2024-04-16T05:06:54Z</time>
      </trkpt>
      <trkpt lat="50.02625" lon="4.22886">
        <ele>273.8</ele>
        <time>2024-04-16T05:06:55Z</time>
      </trkpt>
      <trkpt lat="50.02634" lon="4.22883">
        <ele>273.6</ele>
        <time>2024-04-16T05:06:56Z</time>
      </trkpt>
      <trkpt lat="50.02643" lon="4.22879">
        <ele>273.4</ele>
        <time>2024-04-16T05:06:57Z</time>
      </trkpt>
      <trkpt lat="50.02651" lon="4.22876">
        <ele>273.4</ele>
        <time>2024-04-16T05:06:58Z</time>
      </trkpt>
      <trkpt lat="50.02659" lon="4.22874">
        <ele>273.2</ele>
        <time>2024-04-16T05:06:59Z</time>
      </trkpt>
      <trkpt lat="50.02667" lon="4.2287">
        <ele>273.2</ele>
        <time>2024-04-16T05:07:00Z</time>
      </trkpt>
      <trkpt lat="50.02675" lon="4.22867">
        <ele>272.8</ele>
        <time>2024-04-16T05:07:01Z</time>
      </trkpt>
      <trkpt lat="50.02685" lon="4.22863">
        <ele>272.6</ele>
        <time>2024-04-16T05:07:02Z</time>
      </trkpt>
      <trkpt lat="50.02694" lon="4.2286">
        <ele>272</ele>
        <time>2024-04-16T05:07:03Z</time>
      </trkpt>
      <trkpt lat="50.02702" lon="4.22856">
        <ele>271.6</ele>
        <time>2024-04-16T05:07:04Z</time>
      </trkpt>
      <trkpt lat="50.02711" lon="4.22853">
        <ele>271.4</ele>
        <time>2024-04-16T05:07:05Z</time>
      </trkpt>
      <trkpt lat="50.0272" lon="4.22849">
        <ele>271.4</ele>
        <time>2024-04-16T05:07:06Z</time>
      </trkpt>
      <trkpt lat="50.02728" lon="4.22846">
        <ele>271</ele>
        <time>2024-04-16T05:07:07Z</time>
      </trkpt>
      <trkpt lat="50.02737" lon="4.22843">
        <ele>271</ele>
        <time>2024-04-16T05:07:08Z</time>
      </trkpt>
      <trkpt lat="50.02745" lon="4.2284">
        <ele>270.8</ele>
        <time>2024-04-16T05:07:09Z</time>
      </trkpt>
      <trkpt lat="50.02753" lon="4.22837">
        <ele>270.6</ele>
        <time>2024-04-16T05:07:10Z</time>
      </trkpt>
      <trkpt lat="50.02763" lon="4.22833">
        <ele>270.6</ele>
        <time>2024-04-16T05:07:11Z</time>
      </trkpt>
      <trkpt lat="50.02771" lon="4.2283">
        <ele>270.2</ele>
        <time>2024-04-16T05:07:12Z</time>
      </trkpt>
      <trkpt lat="50.0278" lon="4.22826">
        <ele>269.8</ele>
        <time>2024-04-16T05:07:13Z</time>
      </trkpt>
      <trkpt lat="50.0279" lon="4.22822">
        <ele>269.2</ele>
        <time>2024-04-16T05:07:14Z</time>
      </trkpt>
      <trkpt lat="50.02798" lon="4.22818">
        <ele>269</ele>
        <time>2024-04-16T05:07:15Z</time>
      </trkpt>
      <trkpt lat="50.02806" lon="4.22815">
        <ele>269</ele>
        <time>2024-04-16T05:07:16Z</time>
      </trkpt>
      <trkpt lat="50.02815" lon="4.22812">
        <ele>268.4</ele>
        <time>2024-04-16T05:07:17Z</time>
      </trkpt>
      <trkpt lat="50.02824" lon="4.22808">
        <ele>268</ele>
        <time>2024-04-16T05:07:18Z</time>
      </trkpt>
      <trkpt lat="50.02832" lon="4.22804">
        <ele>267.4</ele>
        <time>2024-04-16T05:07:19Z</time>
      </trkpt>
      <trkpt lat="50.02839" lon="4.22801">
        <ele>267.2</ele>
        <time>2024-04-16T05:07:20Z</time>
      </trkpt>
      <trkpt lat="50.02846" lon="4.22797">
        <ele>267</ele>
        <time>2024-04-16T05:07:21Z</time>
      </trkpt>
      <trkpt lat="50.02856" lon="4.22793">
        <ele>266.8</ele>
        <time>2024-04-16T05:07:22Z</time>
      </trkpt>
      <trkpt lat="50.02864" lon="4.2279">
        <ele>267</ele>
        <time>2024-04-16T05:07:23Z</time>
      </trkpt>
      <trkpt lat="50.02871" lon="4.22787">
        <ele>266.8</ele>
        <time>2024-04-16T05:07:24Z</time>
      </trkpt>
      <trkpt lat="50.02878" lon="4.22784">
        <ele>266.8</ele>
        <time>2024-04-16T05:07:25Z</time>
      </trkpt>
      <trkpt lat="50.02885" lon="4.22782">
        <ele>266.8</ele>
        <time>2024-04-16T05:07:26Z</time>
      </trkpt>
      <trkpt lat="50.02892" lon="4.22779">
        <ele>266.8</ele>
        <time>2024-04-16T05:07:27Z</time>
      </trkpt>
      <trkpt lat="50.02898" lon="4.22775">
        <ele>266.6</ele>
        <time>2024-04-16T05:07:28Z</time>
      </trkpt>
      <trkpt lat="50.02904" lon="4.22773">
        <ele>266.8</ele>
        <time>2024-04-16T05:07:29Z</time>
      </trkpt>
      <trkpt lat="50.02909" lon="4.2277">
        <ele>266.6</ele>
        <time>2024-04-16T05:07:30Z</time>
      </trkpt>
      <trkpt lat="50.02915" lon="4.22768">
        <ele>267</ele>
        <time>2024-04-16T05:07:31Z</time>
      </trkpt>
      <trkpt lat="50.02923" lon="4.22765">
        <ele>267</ele>
        <time>2024-04-16T05:07:32Z</time>
      </trkpt>
      <trkpt lat="50.02929" lon="4.22763">
        <ele>267</ele>
        <time>2024-04-16T05:07:33Z</time>
      </trkpt>
      <trkpt lat="50.02935" lon="4.22761">
        <ele>267.2</ele>
        <time>2024-04-16T05:07:34Z</time>
      </trkpt>
      <trkpt lat="50.0294" lon="4.22758">
        <ele>267.4</ele>
        <time>2024-04-16T05:07:35Z</time>
      </trkpt>
      <trkpt lat="50.02945" lon="4.22757">
        <ele>267.4</ele>
        <time>2024-04-16T05:07:36Z</time>
      </trkpt>
      <trkpt lat="50.02951" lon="4.22755">
        <ele>267.6</ele>
        <time>2024-04-16T05:07:37Z</time>
      </trkpt>
      <trkpt lat="50.02955" lon="4.22752">
        <ele>267.6</ele>
        <time>2024-04-16T05:07:38Z</time>
      </trkpt>
      <trkpt lat="50.0296" lon="4.2275">
        <ele>267.6</ele>
        <time>2024-04-16T05:07:39Z</time>
      </trkpt>
      <trkpt lat="50.02965" lon="4.22748">
        <ele>267.6</ele>
        <time>2024-04-16T05:07:40Z</time>
      </trkpt>
      <trkpt lat="50.0297" lon="4.22747">
        <ele>267.8</ele>
        <time>2024-04-16T05:07:41Z</time>
      </trkpt>
      <trkpt lat="50.02976" lon="4.22745">
        <ele>268</ele>
        <time>2024-04-16T05:07:42Z</time>
      </trkpt>
      <trkpt lat="50.02981" lon="4.22744">
        <ele>268</ele>
        <time>2024-04-16T05:07:43Z</time>
      </trkpt>
      <trkpt lat="50.02985" lon="4.22742">
        <ele>268.4</ele>
        <time>2024-04-16T05:07:44Z</time>
      </trkpt>
      <trkpt lat="50.02992" lon="4.22739">
        <ele>268.4</ele>
        <time>2024-04-16T05:07:45Z</time>
      </trkpt>
      <trkpt lat="50.02998" lon="4.22736">
        <ele>268.8</ele>
        <time>2024-04-16T05:07:46Z</time>
      </trkpt>
      <trkpt lat="50.03003" lon="4.22734">
        <ele>269</ele>
        <time>2024-04-16T05:07:47Z</time>
      </trkpt>
      <trkpt lat="50.03009" lon="4.22732">
        <ele>269</ele>
        <time>2024-04-16T05:07:48Z</time>
      </trkpt>
      <trkpt lat="50.03014" lon="4.22731">
        <ele>269.2</ele>
        <time>2024-04-16T05:07:49Z</time>
      </trkpt>
      <trkpt lat="50.03021" lon="4.22729">
        <ele>269.2</ele>
        <time>2024-04-16T05:07:50Z</time>
      </trkpt>
      <trkpt lat="50.03028" lon="4.22728">
        <ele>270.2</ele>
        <time>2024-04-16T05:07:51Z</time>
      </trkpt>
      <trkpt lat="50.03035" lon="4.22726">
        <ele>270.6</ele>
        <time>2024-04-16T05:07:52Z</time>
      </trkpt>
      <trkpt lat="50.03043" lon="4.22724">
        <ele>271</ele>
        <time>2024-04-16T05:07:53Z</time>
      </trkpt>
      <trkpt lat="50.0305" lon="4.22721">
        <ele>271.4</ele>
        <time>2024-04-16T05:07:54Z</time>
      </trkpt>
      <trkpt lat="50.03056" lon="4.22719">
        <ele>271.4</ele>
        <time>2024-04-16T05:07:55Z</time>
      </trkpt>
      <trkpt lat="50.03063" lon="4.22716">
        <ele>271.6</ele>
        <time>2024-04-16T05:07:56Z</time>
      </trkpt>
      <trkpt lat="50.03069" lon="4.22714">
        <ele>271.8</ele>
        <time>2024-04-16T05:07:57Z</time>
      </trkpt>
      <trkpt lat="50.03076" lon="4.22711">
        <ele>271.8</ele>
        <time>2024-04-16T05:07:58Z</time>
      </trkpt>
      <trkpt lat="50.03082" lon="4.22709">
        <ele>271.8</ele>
        <time>2024-04-16T05:07:59Z</time>
      </trkpt>
      <trkpt lat="50.03087" lon="4.22707">
        <ele>271.8</ele>
        <time>2024-04-16T05:08:00Z</time>
      </trkpt>
      <trkpt lat="50.03094" lon="4.22705">
        <ele>272</ele>
        <time>2024-04-16T05:08:01Z</time>
      </trkpt>
      <trkpt lat="50.031" lon="4.22703">
        <ele>272</ele>
        <time>2024-04-16T05:08:02Z</time>
      </trkpt>
      <trkpt lat="50.03105" lon="4.227">
        <ele>272</ele>
        <time>2024-04-16T05:08:03Z</time>
      </trkpt>
      <trkpt lat="50.03113" lon="4.22697">
        <ele>272</ele>
        <time>2024-04-16T05:08:04Z</time>
      </trkpt>
      <trkpt lat="50.0312" lon="4.22693">
        <ele>271.8</ele>
        <time>2024-04-16T05:08:05Z</time>
      </trkpt>
      <trkpt lat="50.03128" lon="4.22689">
        <ele>272</ele>
        <time>2024-04-16T05:08:06Z</time>
      </trkpt>
      <trkpt lat="50.03136" lon="4.22685">
        <ele>272</ele>
        <time>2024-04-16T05:08:07Z</time>
      </trkpt>
      <trkpt lat="50.03144" lon="4.22679">
        <ele>271.8</ele>
        <time>2024-04-16T05:08:08Z</time>
      </trkpt>
      <trkpt lat="50.03151" lon="4.22672">
        <ele>271.4</ele>
        <time>2024-04-16T05:08:09Z</time>
      </trkpt>
      <trkpt lat="50.03159" lon="4.22665">
        <ele>271.2</ele>
        <time>2024-04-16T05:08:10Z</time>
      </trkpt>
      <trkpt lat="50.03166" lon="4.22658">
        <ele>270.8</ele>
        <time>2024-04-16T05:08:11Z</time>
      </trkpt>
      <trkpt lat="50.03173" lon="4.22651">
        <ele>270.4</ele>
        <time>2024-04-16T05:08:12Z</time>
      </trkpt>
      <trkpt lat="50.0318" lon="4.22643">
        <ele>270.2</ele>
        <time>2024-04-16T05:08:13Z</time>
      </trkpt>
      <trkpt lat="50.03188" lon="4.22636">
        <ele>270</ele>
        <time>2024-04-16T05:08:14Z</time>
      </trkpt>
      <trkpt lat="50.03194" lon="4.22628">
        <ele>270</ele>
        <time>2024-04-16T05:08:15Z</time>
      </trkpt>
      <trkpt lat="50.03202" lon="4.2262">
        <ele>269.6</ele>
        <time>2024-04-16T05:08:16Z</time>
      </trkpt>
      <trkpt lat="50.03209" lon="4.22613">
        <ele>269.4</ele>
        <time>2024-04-16T05:08:17Z</time>
      </trkpt>
      <trkpt lat="50.03216" lon="4.22605">
        <ele>269</ele>
        <time>2024-04-16T05:08:18Z</time>
      </trkpt>
      <trkpt lat="50.03223" lon="4.22597">
        <ele>268.6</ele>
        <time>2024-04-16T05:08:19Z</time>
      </trkpt>
      <trkpt lat="50.03229" lon="4.22589">
        <ele>268.2</ele>
        <time>2024-04-16T05:08:20Z</time>
      </trkpt>
      <trkpt lat="50.03236" lon="4.22582">
        <ele>268.2</ele>
        <time>2024-04-16T05:08:21Z</time>
      </trkpt>
      <trkpt lat="50.03242" lon="4.22574">
        <ele>268</ele>
        <time>2024-04-16T05:08:22Z</time>
      </trkpt>
      <trkpt lat="50.03249" lon="4.22567">
        <ele>267.6</ele>
        <time>2024-04-16T05:08:23Z</time>
      </trkpt>
      <trkpt lat="50.03256" lon="4.22559">
        <ele>267.2</ele>
        <time>2024-04-16T05:08:24Z</time>
      </trkpt>
      <trkpt lat="50.03262" lon="4.22551">
        <ele>266.8</ele>
        <time>2024-04-16T05:08:25Z</time>
      </trkpt>
      <trkpt lat="50.03269" lon="4.22543">
        <ele>266.4</ele>
        <time>2024-04-16T05:08:26Z</time>
      </trkpt>
      <trkpt lat="50.03276" lon="4.22535">
        <ele>266.2</ele>
        <time>2024-04-16T05:08:27Z</time>
      </trkpt>
      <trkpt lat="50.03283" lon="4.22526">
        <ele>265.8</ele>
        <time>2024-04-16T05:08:28Z</time>
      </trkpt>
      <trkpt lat="50.0329" lon="4.22518">
        <ele>265.2</ele>
        <time>2024-04-16T05:08:29Z</time>
      </trkpt>
      <trkpt lat="50.03298" lon="4.2251">
        <ele>264.8</ele>
        <time>2024-04-16T05:08:30Z</time>
      </trkpt>
      <trkpt lat="50.03306" lon="4.22502">
        <ele>264.4</ele>
        <time>2024-04-16T05:08:31Z</time>
      </trkpt>
      <trkpt lat="50.03314" lon="4.22496">
        <ele>264.2</ele>
        <time>2024-04-16T05:08:32Z</time>
      </trkpt>
      <trkpt lat="50.03324" lon="4.22492">
        <ele>264</ele>
        <time>2024-04-16T05:08:33Z</time>
      </trkpt>
      <trkpt lat="50.03333" lon="4.2249">
        <ele>263.6</ele>
        <time>2024-04-16T05:08:34Z</time>
      </trkpt>
      <trkpt lat="50.03343" lon="4.22489">
        <ele>263.6</ele>
        <time>2024-04-16T05:08:35Z</time>
      </trkpt>
      <trkpt lat="50.03353" lon="4.22488">
        <ele>263</ele>
        <time>2024-04-16T05:08:36Z</time>
      </trkpt>
      <trkpt lat="50.03363" lon="4.22489">
        <ele>262</ele>
        <time>2024-04-16T05:08:37Z</time>
      </trkpt>
      <trkpt lat="50.03373" lon="4.22489">
        <ele>261.6</ele>
        <time>2024-04-16T05:08:38Z</time>
      </trkpt>
      <trkpt lat="50.03383" lon="4.22488">
        <ele>260.8</ele>
        <time>2024-04-16T05:08:39Z</time>
      </trkpt>
      <trkpt lat="50.03394" lon="4.22488">
        <ele>260.2</ele>
        <time>2024-04-16T05:08:40Z</time>
      </trkpt>
      <trkpt lat="50.03404" lon="4.22488">
        <ele>259.4</ele>
        <time>2024-04-16T05:08:41Z</time>
      </trkpt>
      <trkpt lat="50.03414" lon="4.22487">
        <ele>259.4</ele>
        <time>2024-04-16T05:08:42Z</time>
      </trkpt>
      <trkpt lat="50.03424" lon="4.22487">
        <ele>258.8</ele>
        <time>2024-04-16T05:08:43Z</time>
      </trkpt>
      <trkpt lat="50.03434" lon="4.22486">
        <ele>258.4</ele>
        <time>2024-04-16T05:08:44Z</time>
      </trkpt>
      <trkpt lat="50.03444" lon="4.22486">
        <ele>257.6</ele>
        <time>2024-04-16T05:08:45Z</time>
      </trkpt>
      <trkpt lat="50.03453" lon="4.22485">
        <ele>256.6</ele>
        <time>2024-04-16T05:08:46Z</time>
      </trkpt>
      <trkpt lat="50.03462" lon="4.22484">
        <ele>256.2</ele>
        <time>2024-04-16T05:08:47Z</time>
      </trkpt>
      <trkpt lat="50.03472" lon="4.22482">
        <ele>256</ele>
        <time>2024-04-16T05:08:48Z</time>
      </trkpt>
      <trkpt lat="50.03481" lon="4.22478">
        <ele>255.8</ele>
        <time>2024-04-16T05:08:49Z</time>
      </trkpt>
      <trkpt lat="50.0349" lon="4.22473">
        <ele>255.8</ele>
        <time>2024-04-16T05:08:50Z</time>
      </trkpt>
      <trkpt lat="50.03498" lon="4.22467">
        <ele>255.4</ele>
        <time>2024-04-16T05:08:51Z</time>
      </trkpt>
      <trkpt lat="50.03506" lon="4.22459">
        <ele>255.2</ele>
        <time>2024-04-16T05:08:52Z</time>
      </trkpt>
      <trkpt lat="50.03513" lon="4.2245">
        <ele>254.4</ele>
        <time>2024-04-16T05:08:53Z</time>
      </trkpt>
      <trkpt lat="50.0352" lon="4.2244">
        <ele>254</ele>
        <time>2024-04-16T05:08:54Z</time>
      </trkpt>
      <trkpt lat="50.03526" lon="4.22429">
        <ele>253.4</ele>
        <time>2024-04-16T05:08:55Z</time>
      </trkpt>
      <trkpt lat="50.03533" lon="4.22418">
        <ele>253.2</ele>
        <time>2024-04-16T05:08:56Z</time>
      </trkpt>
      <trkpt lat="50.03539" lon="4.22409">
        <ele>253</ele>
        <time>2024-04-16T05:08:57Z</time>
      </trkpt>
      <trkpt lat="50.03546" lon="4.22401">
        <ele>252.6</ele>
        <time>2024-04-16T05:08:58Z</time>
      </trkpt>
      <trkpt lat="50.03552" lon="4.22394">
        <ele>252</ele>
        <time>2024-04-16T05:08:59Z</time>
      </trkpt>
      <trkpt lat="50.03558" lon="4.22389">
        <ele>251.8</ele>
        <time>2024-04-16T05:09:00Z</time>
      </trkpt>
      <trkpt lat="50.03564" lon="4.22386">
        <ele>251.4</ele>
        <time>2024-04-16T05:09:01Z</time>
      </trkpt>
      <trkpt lat="50.0357" lon="4.22386">
        <ele>250.8</ele>
        <time>2024-04-16T05:09:02Z</time>
      </trkpt>
      <trkpt lat="50.03577" lon="4.22389">
        <ele>249.8</ele>
        <time>2024-04-16T05:09:03Z</time>
      </trkpt>
      <trkpt lat="50.03584" lon="4.22393">
        <ele>249.8</ele>
        <time>2024-04-16T05:09:04Z</time>
      </trkpt>
      <trkpt lat="50.0359" lon="4.22399">
        <ele>249</ele>
        <time>2024-04-16T05:09:05Z</time>
      </trkpt>
      <trkpt lat="50.03597" lon="4.22406">
        <ele>248.4</ele>
        <time>2024-04-16T05:09:06Z</time>
      </trkpt>
      <trkpt lat="50.03603" lon="4.22412">
        <ele>247.8</ele>
        <time>2024-04-16T05:09:07Z</time>
      </trkpt>
      <trkpt lat="50.0361" lon="4.22417">
        <ele>247.6</ele>
        <time>2024-04-16T05:09:08Z</time>
      </trkpt>
      <trkpt lat="50.03617" lon="4.22421">
        <ele>247.2</ele>
        <time>2024-04-16T05:09:09Z</time>
      </trkpt>
      <trkpt lat="50.03624" lon="4.22423">
        <ele>247.2</ele>
        <time>2024-04-16T05:09:10Z</time>
      </trkpt>
      <trkpt lat="50.03631" lon="4.22423">
        <ele>247.2</ele>
        <time>2024-04-16T05:09:11Z</time>
      </trkpt>
      <trkpt lat="50.03638" lon="4.2242">
        <ele>247.2</ele>
        <time>2024-04-16T05:09:12Z</time>
      </trkpt>
      <trkpt lat="50.03645" lon="4.22415">
        <ele>247</ele>
        <time>2024-04-16T05:09:13Z</time>
      </trkpt>
      <trkpt lat="50.03651" lon="4.22408">
        <ele>246.8</ele>
        <time>2024-04-16T05:09:14Z</time>
      </trkpt>
      <trkpt lat="50.03657" lon="4.224">
        <ele>246.8</ele>
        <time>2024-04-16T05:09:15Z</time>
      </trkpt>
      <trkpt lat="50.03663" lon="4.22393">
        <ele>246.4</ele>
        <time>2024-04-16T05:09:16Z</time>
      </trkpt>
      <trkpt lat="50.03668" lon="4.22385">
        <ele>246.2</ele>
        <time>2024-04-16T05:09:17Z</time>
      </trkpt>
      <trkpt lat="50.03674" lon="4.22377">
        <ele>246</ele>
        <time>2024-04-16T05:09:18Z</time>
      </trkpt>
      <trkpt lat="50.0368" lon="4.22369">
        <ele>246</ele>
        <time>2024-04-16T05:09:19Z</time>
      </trkpt>
      <trkpt lat="50.03687" lon="4.22362">
        <ele>245.8</ele>
        <time>2024-04-16T05:09:20Z</time>
      </trkpt>
      <trkpt lat="50.03693" lon="4.22355">
        <ele>245.2</ele>
        <time>2024-04-16T05:09:21Z</time>
      </trkpt>
      <trkpt lat="50.037" lon="4.22348">
        <ele>244.8</ele>
        <time>2024-04-16T05:09:22Z</time>
      </trkpt>
      <trkpt lat="50.03707" lon="4.22342">
        <ele>244.6</ele>
        <time>2024-04-16T05:09:23Z</time>
      </trkpt>
      <trkpt lat="50.03714" lon="4.22336">
        <ele>244.2</ele>
        <time>2024-04-16T05:09:24Z</time>
      </trkpt>
      <trkpt lat="50.03721" lon="4.22331">
        <ele>244.2</ele>
        <time>2024-04-16T05:09:25Z</time>
      </trkpt>
      <trkpt lat="50.03729" lon="4.22327">
        <ele>244.2</ele>
        <time>2024-04-16T05:09:26Z</time>
      </trkpt>
      <trkpt lat="50.03737" lon="4.22323">
        <ele>244</ele>
        <time>2024-04-16T05:09:27Z</time>
      </trkpt>
      <trkpt lat="50.03744" lon="4.22318">
        <ele>244</ele>
        <time>2024-04-16T05:09:28Z</time>
      </trkpt>
      <trkpt lat="50.03751" lon="4.22314">
        <ele>244</ele>
        <time>2024-04-16T05:09:29Z</time>
      </trkpt>
      <trkpt lat="50.03758" lon="4.2231">
        <ele>243.8</ele>
        <time>2024-04-16T05:09:30Z</time>
      </trkpt>
      <trkpt lat="50.03765" lon="4.22305">
        <ele>244</ele>
        <time>2024-04-16T05:09:31Z</time>
      </trkpt>
      <trkpt lat="50.03771" lon="4.22298">
        <ele>244</ele>
        <time>2024-04-16T05:09:32Z</time>
      </trkpt>
      <trkpt lat="50.03776" lon="4.22291">
        <ele>244</ele>
        <time>2024-04-16T05:09:33Z</time>
      </trkpt>
      <trkpt lat="50.0378" lon="4.22283">
        <ele>244</ele>
        <time>2024-04-16T05:09:34Z</time>
      </trkpt>
      <trkpt lat="50.03783" lon="4.22274">
        <ele>244</ele>
        <time>2024-04-16T05:09:35Z</time>
      </trkpt>
      <trkpt lat="50.03786" lon="4.22265">
        <ele>244</ele>
        <time>2024-04-16T05:09:36Z</time>
      </trkpt>
      <trkpt lat="50.03787" lon="4.22256">
        <ele>244.2</ele>
        <time>2024-04-16T05:09:37Z</time>
      </trkpt>
      <trkpt lat="50.03789" lon="4.22247">
        <ele>244.2</ele>
        <time>2024-04-16T05:09:38Z</time>
      </trkpt>
      <trkpt lat="50.0379" lon="4.22238">
        <ele>244.4</ele>
        <time>2024-04-16T05:09:39Z</time>
      </trkpt>
      <trkpt lat="50.03791" lon="4.2223">
        <ele>244.6</ele>
        <time>2024-04-16T05:09:40Z</time>
      </trkpt>
      <trkpt lat="50.03792" lon="4.22222">
        <ele>244.4</ele>
        <time>2024-04-16T05:09:41Z</time>
      </trkpt>
      <trkpt lat="50.03793" lon="4.22214">
        <ele>244.6</ele>
        <time>2024-04-16T05:09:42Z</time>
      </trkpt>
      <trkpt lat="50.03794" lon="4.22206">
        <ele>245</ele>
        <time>2024-04-16T05:09:43Z</time>
      </trkpt>
      <trkpt lat="50.03796" lon="4.22198">
        <ele>245.4</ele>
        <time>2024-04-16T05:09:44Z</time>
      </trkpt>
      <trkpt lat="50.03798" lon="4.2219">
        <ele>245.8</ele>
        <time>2024-04-16T05:09:45Z</time>
      </trkpt>
      <trkpt lat="50.03799" lon="4.22183">
        <ele>246.2</ele>
        <time>2024-04-16T05:09:46Z</time>
      </trkpt>
      <trkpt lat="50.03801" lon="4.22175">
        <ele>246.6</ele>
        <time>2024-04-16T05:09:47Z</time>
      </trkpt>
      <trkpt lat="50.03803" lon="4.22168">
        <ele>246.6</ele>
        <time>2024-04-16T05:09:48Z</time>
      </trkpt>
      <trkpt lat="50.03805" lon="4.22161">
        <ele>247</ele>
        <time>2024-04-16T05:09:49Z</time>
      </trkpt>
      <trkpt lat="50.03807" lon="4.22155">
        <ele>247.6</ele>
        <time>2024-04-16T05:09:50Z</time>
      </trkpt>
      <trkpt lat="50.03809" lon="4.22148">
        <ele>248</ele>
        <time>2024-04-16T05:09:51Z</time>
      </trkpt>
      <trkpt lat="50.03811" lon="4.22142">
        <ele>248.4</ele>
        <time>2024-04-16T05:09:52Z</time>
      </trkpt>
      <trkpt lat="50.03813" lon="4.22135">
        <ele>248.6</ele>
        <time>2024-04-16T05:09:53Z</time>
      </trkpt>
      <trkpt lat="50.03815" lon="4.22128">
        <ele>249.2</ele>
        <time>2024-04-16T05:09:54Z</time>
      </trkpt>
      <trkpt lat="50.03817" lon="4.22121">
        <ele>249.4</ele>
        <time>2024-04-16T05:09:55Z</time>
      </trkpt>
      <trkpt lat="50.03819" lon="4.22114">
        <ele>249.6</ele>
        <time>2024-04-16T05:09:56Z</time>
      </trkpt>
      <trkpt lat="50.0382" lon="4.22106">
        <ele>249.6</ele>
        <time>2024-04-16T05:09:57Z</time>
      </trkpt>
      <trkpt lat="50.03822" lon="4.22099">
        <ele>250</ele>
        <time>2024-04-16T05:09:58Z</time>
      </trkpt>
      <trkpt lat="50.03823" lon="4.22091">
        <ele>250.8</ele>
        <time>2024-04-16T05:09:59Z</time>
      </trkpt>
      <trkpt lat="50.03825" lon="4.22084">
        <ele>251.4</ele>
        <time>2024-04-16T05:10:00Z</time>
      </trkpt>
      <trkpt lat="50.03826" lon="4.22076">
        <ele>252.2</ele>
        <time>2024-04-16T05:10:01Z</time>
      </trkpt>
      <trkpt lat="50.03827" lon="4.22069">
        <ele>252.4</ele>
        <time>2024-04-16T05:10:02Z</time>
      </trkpt>
      <trkpt lat="50.03828" lon="4.22061">
        <ele>252.8</ele>
        <time>2024-04-16T05:10:03Z</time>
      </trkpt>
      <trkpt lat="50.0383" lon="4.22054">
        <ele>253.4</ele>
        <time>2024-04-16T05:10:04Z</time>
      </trkpt>
      <trkpt lat="50.03831" lon="4.22047">
        <ele>253.6</ele>
        <time>2024-04-16T05:10:05Z</time>
      </trkpt>
      <trkpt lat="50.03832" lon="4.22039">
        <ele>253.8</ele>
        <time>2024-04-16T05:10:06Z</time>
      </trkpt>
      <trkpt lat="50.03833" lon="4.22032">
        <ele>253.8</ele>
        <time>2024-04-16T05:10:07Z</time>
      </trkpt>
      <trkpt lat="50.03835" lon="4.22024">
        <ele>254</ele>
        <time>2024-04-16T05:10:08Z</time>
      </trkpt>
      <trkpt lat="50.03836" lon="4.22017">
        <ele>254</ele>
        <time>2024-04-16T05:10:09Z</time>
      </trkpt>
      <trkpt lat="50.03837" lon="4.2201">
        <ele>254</ele>
        <time>2024-04-16T05:10:10Z</time>
      </trkpt>
      <trkpt lat="50.03839" lon="4.22002">
        <ele>254.2</ele>
        <time>2024-04-16T05:10:11Z</time>
      </trkpt>
      <trkpt lat="50.0384" lon="4.21995">
        <ele>254.6</ele>
        <time>2024-04-16T05:10:12Z</time>
      </trkpt>
      <trkpt lat="50.03841" lon="4.21988">
        <ele>254.8</ele>
        <time>2024-04-16T05:10:13Z</time>
      </trkpt>
      <trkpt lat="50.03842" lon="4.21981">
        <ele>255</ele>
        <time>2024-04-16T05:10:14Z</time>
      </trkpt>
      <trkpt lat="50.03843" lon="4.21974">
        <ele>255.4</ele>
        <time>2024-04-16T05:10:15Z</time>
      </trkpt>
      <trkpt lat="50.03845" lon="4.21966">
        <ele>255.6</ele>
        <time>2024-04-16T05:10:16Z</time>
      </trkpt>
      <trkpt lat="50.03846" lon="4.21959">
        <ele>255.6</ele>
        <time>2024-04-16T05:10:17Z</time>
      </trkpt>
      <trkpt lat="50.03847" lon="4.21952">
        <ele>255.6</ele>
        <time>2024-04-16T05:10:18Z</time>
      </trkpt>
      <trkpt lat="50.03848" lon="4.21944">
        <ele>255.8</ele>
        <time>2024-04-16T05:10:19Z</time>
      </trkpt>
      <trkpt lat="50.0385" lon="4.21937">
        <ele>255.8</ele>
        <time>2024-04-16T05:10:20Z</time>
      </trkpt>
      <trkpt lat="50.03851" lon="4.21929">
        <ele>255.8</ele>
        <time>2024-04-16T05:10:21Z</time>
      </trkpt>
      <trkpt lat="50.03852" lon="4.21921">
        <ele>256.4</ele>
        <time>2024-04-16T05:10:22Z</time>
      </trkpt>
      <trkpt lat="50.03854" lon="4.21914">
        <ele>256.8</ele>
        <time>2024-04-16T05:10:23Z</time>
      </trkpt>
      <trkpt lat="50.03855" lon="4.21906">
        <ele>257.2</ele>
        <time>2024-04-16T05:10:24Z</time>
      </trkpt>
      <trkpt lat="50.03856" lon="4.21899">
        <ele>257.2</ele>
        <time>2024-04-16T05:10:25Z</time>
      </trkpt>
      <trkpt lat="50.03858" lon="4.21891">
        <ele>257.2</ele>
        <time>2024-04-16T05:10:26Z</time>
      </trkpt>
      <trkpt lat="50.03859" lon="4.21883">
        <ele>257.6</ele>
        <time>2024-04-16T05:10:27Z</time>
      </trkpt>
      <trkpt lat="50.03861" lon="4.21875">
        <ele>257.6</ele>
        <time>2024-04-16T05:10:28Z</time>
      </trkpt>
      <trkpt lat="50.03862" lon="4.21867">
        <ele>257.8</ele>
        <time>2024-04-16T05:10:29Z</time>
      </trkpt>
      <trkpt lat="50.03863" lon="4.21858">
        <ele>257.8</ele>
        <time>2024-04-16T05:10:30Z</time>
      </trkpt>
      <trkpt lat="50.03865" lon="4.2185">
        <ele>257.8</ele>
        <time>2024-04-16T05:10:31Z</time>
      </trkpt>
      <trkpt lat="50.03866" lon="4.21841">
        <ele>257.8</ele>
        <time>2024-04-16T05:10:32Z</time>
      </trkpt>
      <trkpt lat="50.03868" lon="4.21832">
        <ele>257.8</ele>
        <time>2024-04-16T05:10:33Z</time>
      </trkpt>
      <trkpt lat="50.0387" lon="4.21824">
        <ele>257.8</ele>
        <time>2024-04-16T05:10:34Z</time>
      </trkpt>
      <trkpt lat="50.03872" lon="4.21815">
        <ele>257.6</ele>
        <time>2024-04-16T05:10:35Z</time>
      </trkpt>
      <trkpt lat="50.03874" lon="4.21807">
        <ele>257.6</ele>
        <time>2024-04-16T05:10:36Z</time>
      </trkpt>
      <trkpt lat="50.03876" lon="4.21797">
        <ele>257.6</ele>
        <time>2024-04-16T05:10:37Z</time>
      </trkpt>
      <trkpt lat="50.03879" lon="4.21789">
        <ele>257.6</ele>
        <time>2024-04-16T05:10:38Z</time>
      </trkpt>
      <trkpt lat="50.03881" lon="4.2178">
        <ele>257.8</ele>
        <time>2024-04-16T05:10:39Z</time>
      </trkpt>
      <trkpt lat="50.03885" lon="4.21772">
        <ele>257.6</ele>
        <time>2024-04-16T05:10:40Z</time>
      </trkpt>
      <trkpt lat="50.03888" lon="4.21763">
        <ele>257.8</ele>
        <time>2024-04-16T05:10:41Z</time>
      </trkpt>
      <trkpt lat="50.03892" lon="4.21755">
        <ele>257.8</ele>
        <time>2024-04-16T05:10:42Z</time>
      </trkpt>
      <trkpt lat="50.03896" lon="4.21747">
        <ele>257.8</ele>
        <time>2024-04-16T05:10:43Z</time>
      </trkpt>
      <trkpt lat="50.03901" lon="4.21739">
        <ele>257.8</ele>
        <time>2024-04-16T05:10:44Z</time>
      </trkpt>
      <trkpt lat="50.03905" lon="4.21732">
        <ele>257.8</ele>
        <time>2024-04-16T05:10:45Z</time>
      </trkpt>
      <trkpt lat="50.0391" lon="4.21724">
        <ele>257.8</ele>
        <time>2024-04-16T05:10:46Z</time>
      </trkpt>
      <trkpt lat="50.03915" lon="4.21716">
        <ele>257.6</ele>
        <time>2024-04-16T05:10:47Z</time>
      </trkpt>
      <trkpt lat="50.03919" lon="4.21708">
        <ele>257.6</ele>
        <time>2024-04-16T05:10:48Z</time>
      </trkpt>
      <trkpt lat="50.03924" lon="4.21701">
        <ele>257.2</ele>
        <time>2024-04-16T05:10:49Z</time>
      </trkpt>
      <trkpt lat="50.03929" lon="4.21693">
        <ele>257.2</ele>
        <time>2024-04-16T05:10:50Z</time>
      </trkpt>
      <trkpt lat="50.03933" lon="4.21686">
        <ele>257</ele>
        <time>2024-04-16T05:10:51Z</time>
      </trkpt>
      <trkpt lat="50.03938" lon="4.21679">
        <ele>257</ele>
        <time>2024-04-16T05:10:52Z</time>
      </trkpt>
      <trkpt lat="50.03943" lon="4.21672">
        <ele>257</ele>
        <time>2024-04-16T05:10:53Z</time>
      </trkpt>
      <trkpt lat="50.03949" lon="4.21666">
        <ele>257</ele>
        <time>2024-04-16T05:10:54Z</time>
      </trkpt>
      <trkpt lat="50.03955" lon="4.21661">
        <ele>257</ele>
        <time>2024-04-16T05:10:55Z</time>
      </trkpt>
      <trkpt lat="50.03961" lon="4.21656">
        <ele>256.8</ele>
        <time>2024-04-16T05:10:56Z</time>
      </trkpt>
      <trkpt lat="50.03968" lon="4.21653">
        <ele>256.6</ele>
        <time>2024-04-16T05:10:57Z</time>
      </trkpt>
      <trkpt lat="50.03975" lon="4.21652">
        <ele>256.6</ele>
        <time>2024-04-16T05:10:58Z</time>
      </trkpt>
      <trkpt lat="50.03982" lon="4.21651">
        <ele>256.6</ele>
        <time>2024-04-16T05:10:59Z</time>
      </trkpt>
      <trkpt lat="50.03989" lon="4.21651">
        <ele>256.4</ele>
        <time>2024-04-16T05:11:00Z</time>
      </trkpt>
      <trkpt lat="50.03996" lon="4.2165">
        <ele>256.2</ele>
        <time>2024-04-16T05:11:01Z</time>
      </trkpt>
      <trkpt lat="50.04004" lon="4.2165">
        <ele>256.2</ele>
        <time>2024-04-16T05:11:02Z</time>
      </trkpt>
      <trkpt lat="50.04011" lon="4.21649">
        <ele>256.2</ele>
        <time>2024-04-16T05:11:03Z</time>
      </trkpt>
      <trkpt lat="50.04018" lon="4.21647">
        <ele>256</ele>
        <time>2024-04-16T05:11:04Z</time>
      </trkpt>
      <trkpt lat="50.04024" lon="4.21642">
        <ele>256.2</ele>
        <time>2024-04-16T05:11:05Z</time>
      </trkpt>
      <trkpt lat="50.0403" lon="4.21636">
        <ele>256.2</ele>
        <time>2024-04-16T05:11:06Z</time>
      </trkpt>
      <trkpt lat="50.04036" lon="4.21628">
        <ele>256.2</ele>
        <time>2024-04-16T05:11:07Z</time>
      </trkpt>
      <trkpt lat="50.04041" lon="4.2162">
        <ele>256</ele>
        <time>2024-04-16T05:11:08Z</time>
      </trkpt>
      <trkpt lat="50.04046" lon="4.21611">
        <ele>256.2</ele>
        <time>2024-04-16T05:11:09Z</time>
      </trkpt>
      <trkpt lat="50.04052" lon="4.21602">
        <ele>256</ele>
        <time>2024-04-16T05:11:10Z</time>
      </trkpt>
      <trkpt lat="50.04057" lon="4.21593">
        <ele>256</ele>
        <time>2024-04-16T05:11:11Z</time>
      </trkpt>
      <trkpt lat="50.04063" lon="4.21584">
        <ele>256</ele>
        <time>2024-04-16T05:11:12Z</time>
      </trkpt>
      <trkpt lat="50.04069" lon="4.21576">
        <ele>256</ele>
        <time>2024-04-16T05:11:13Z</time>
      </trkpt>
      <trkpt lat="50.04076" lon="4.21569">
        <ele>255.6</ele>
        <time>2024-04-16T05:11:14Z</time>
      </trkpt>
      <trkpt lat="50.04083" lon="4.21563">
        <ele>255.6</ele>
        <time>2024-04-16T05:11:15Z</time>
      </trkpt>
      <trkpt lat="50.04091" lon="4.21559">
        <ele>255.4</ele>
        <time>2024-04-16T05:11:16Z</time>
      </trkpt>
      <trkpt lat="50.04099" lon="4.21556">
        <ele>255.2</ele>
        <time>2024-04-16T05:11:17Z</time>
      </trkpt>
      <trkpt lat="50.04108" lon="4.21555">
        <ele>254.8</ele>
        <time>2024-04-16T05:11:18Z</time>
      </trkpt>
      <trkpt lat="50.04117" lon="4.21555">
        <ele>254.6</ele>
        <time>2024-04-16T05:11:19Z</time>
      </trkpt>
      <trkpt lat="50.04126" lon="4.21555">
        <ele>254.6</ele>
        <time>2024-04-16T05:11:20Z</time>
      </trkpt>
      <trkpt lat="50.04135" lon="4.21554">
        <ele>253.6</ele>
        <time>2024-04-16T05:11:21Z</time>
      </trkpt>
      <trkpt lat="50.04145" lon="4.21555">
        <ele>253.2</ele>
        <time>2024-04-16T05:11:22Z</time>
      </trkpt>
      <trkpt lat="50.04155" lon="4.21555">
        <ele>252.8</ele>
        <time>2024-04-16T05:11:23Z</time>
      </trkpt>
      <trkpt lat="50.04165" lon="4.21555">
        <ele>252.6</ele>
        <time>2024-04-16T05:11:24Z</time>
      </trkpt>
      <trkpt lat="50.04176" lon="4.21556">
        <ele>252.8</ele>
        <time>2024-04-16T05:11:25Z</time>
      </trkpt>
      <trkpt lat="50.04187" lon="4.21556">
        <ele>252.2</ele>
        <time>2024-04-16T05:11:26Z</time>
      </trkpt>
      <trkpt lat="50.04199" lon="4.21556">
        <ele>251.6</ele>
        <time>2024-04-16T05:11:27Z</time>
      </trkpt>
      <trkpt lat="50.0421" lon="4.21556">
        <ele>250.4</ele>
        <time>2024-04-16T05:11:28Z</time>
      </trkpt>
      <trkpt lat="50.04221" lon="4.21557">
        <ele>249.6</ele>
        <time>2024-04-16T05:11:29Z</time>
      </trkpt>
      <trkpt lat="50.04232" lon="4.21557">
        <ele>248.8</ele>
        <time>2024-04-16T05:11:30Z</time>
      </trkpt>
      <trkpt lat="50.04243" lon="4.21557">
        <ele>248.2</ele>
        <time>2024-04-16T05:11:31Z</time>
      </trkpt>
      <trkpt lat="50.04254" lon="4.21557">
        <ele>247.6</ele>
        <time>2024-04-16T05:11:32Z</time>
      </trkpt>
      <trkpt lat="50.04265" lon="4.21558">
        <ele>246.6</ele>
        <time>2024-04-16T05:11:33Z</time>
      </trkpt>
      <trkpt lat="50.04276" lon="4.21558">
        <ele>245.6</ele>
        <time>2024-04-16T05:11:34Z</time>
      </trkpt>
      <trkpt lat="50.04287" lon="4.21557">
        <ele>244.8</ele>
        <time>2024-04-16T05:11:35Z</time>
      </trkpt>
      <trkpt lat="50.04297" lon="4.21554">
        <ele>243.8</ele>
        <time>2024-04-16T05:11:36Z</time>
      </trkpt>
      <trkpt lat="50.04307" lon="4.2155">
        <ele>243.8</ele>
        <time>2024-04-16T05:11:37Z</time>
      </trkpt>
      <trkpt lat="50.04317" lon="4.21543">
        <ele>242.8</ele>
        <time>2024-04-16T05:11:38Z</time>
      </trkpt>
      <trkpt lat="50.04326" lon="4.21533">
        <ele>241.8</ele>
        <time>2024-04-16T05:11:39Z</time>
      </trkpt>
      <trkpt lat="50.04334" lon="4.21521">
        <ele>241.2</ele>
        <time>2024-04-16T05:11:40Z</time>
      </trkpt>
      <trkpt lat="50.04341" lon="4.21508">
        <ele>240.2</ele>
        <time>2024-04-16T05:11:41Z</time>
      </trkpt>
      <trkpt lat="50.04349" lon="4.21495">
        <ele>238.8</ele>
        <time>2024-04-16T05:11:42Z</time>
      </trkpt>
      <trkpt lat="50.04356" lon="4.21481">
        <ele>238.2</ele>
        <time>2024-04-16T05:11:43Z</time>
      </trkpt>
      <trkpt lat="50.04364" lon="4.21468">
        <ele>237.8</ele>
        <time>2024-04-16T05:11:44Z</time>
      </trkpt>
      <trkpt lat="50.04372" lon="4.21453">
        <ele>237</ele>
        <time>2024-04-16T05:11:45Z</time>
      </trkpt>
      <trkpt lat="50.0438" lon="4.21438">
        <ele>235.6</ele>
        <time>2024-04-16T05:11:46Z</time>
      </trkpt>
      <trkpt lat="50.04387" lon="4.21423">
        <ele>233.6</ele>
        <time>2024-04-16T05:11:47Z</time>
      </trkpt>
      <trkpt lat="50.04394" lon="4.21407">
        <ele>232.2</ele>
        <time>2024-04-16T05:11:48Z</time>
      </trkpt>
      <trkpt lat="50.04401" lon="4.21391">
        <ele>230.8</ele>
        <time>2024-04-16T05:11:49Z</time>
      </trkpt>
      <trkpt lat="50.04407" lon="4.21374">
        <ele>229.4</ele>
        <time>2024-04-16T05:11:50Z</time>
      </trkpt>
      <trkpt lat="50.04413" lon="4.21358">
        <ele>228.2</ele>
        <time>2024-04-16T05:11:51Z</time>
      </trkpt>
      <trkpt lat="50.04419" lon="4.21342">
        <ele>227</ele>
        <time>2024-04-16T05:11:52Z</time>
      </trkpt>
      <trkpt lat="50.04425" lon="4.21326">
        <ele>226.4</ele>
        <time>2024-04-16T05:11:53Z</time>
      </trkpt>
      <trkpt lat="50.04431" lon="4.21311">
        <ele>225.2</ele>
        <time>2024-04-16T05:11:54Z</time>
      </trkpt>
      <trkpt lat="50.04438" lon="4.21296">
        <ele>223.4</ele>
        <time>2024-04-16T05:11:55Z</time>
      </trkpt>
      <trkpt lat="50.04444" lon="4.21282">
        <ele>221.4</ele>
        <time>2024-04-16T05:11:56Z</time>
      </trkpt>
      <trkpt lat="50.04451" lon="4.21269">
        <ele>220.4</ele>
        <time>2024-04-16T05:11:57Z</time>
      </trkpt>
      <trkpt lat="50.04458" lon="4.21256">
        <ele>219.8</ele>
        <time>2024-04-16T05:11:58Z</time>
      </trkpt>
      <trkpt lat="50.04465" lon="4.21244">
        <ele>219.8</ele>
        <time>2024-04-16T05:11:59Z</time>
      </trkpt>
      <trkpt lat="50.04472" lon="4.21232">
        <ele>219.4</ele>
        <time>2024-04-16T05:12:00Z</time>
      </trkpt>
      <trkpt lat="50.04479" lon="4.21222">
        <ele>218.8</ele>
        <time>2024-04-16T05:12:01Z</time>
      </trkpt>
      <trkpt lat="50.04487" lon="4.21212">
        <ele>218.6</ele>
        <time>2024-04-16T05:12:02Z</time>
      </trkpt>
      <trkpt lat="50.04494" lon="4.21202">
        <ele>218.6</ele>
        <time>2024-04-16T05:12:03Z</time>
      </trkpt>
      <trkpt lat="50.04502" lon="4.21193">
        <ele>218.6</ele>
        <time>2024-04-16T05:12:04Z</time>
      </trkpt>
      <trkpt lat="50.04509" lon="4.21184">
        <ele>218.4</ele>
        <time>2024-04-16T05:12:05Z</time>
      </trkpt>
      <trkpt lat="50.04517" lon="4.21176">
        <ele>218.4</ele>
        <time>2024-04-16T05:12:06Z</time>
      </trkpt>
      <trkpt lat="50.04524" lon="4.21168">
        <ele>218.6</ele>
        <time>2024-04-16T05:12:07Z</time>
      </trkpt>
      <trkpt lat="50.04532" lon="4.21161">
        <ele>218.4</ele>
        <time>2024-04-16T05:12:08Z</time>
      </trkpt>
      <trkpt lat="50.04539" lon="4.21154">
        <ele>218.4</ele>
        <time>2024-04-16T05:12:09Z</time>
      </trkpt>
      <trkpt lat="50.04547" lon="4.21147">
        <ele>218.4</ele>
        <time>2024-04-16T05:12:10Z</time>
      </trkpt>
      <trkpt lat="50.04554" lon="4.21141">
        <ele>218.4</ele>
        <time>2024-04-16T05:12:11Z</time>
      </trkpt>
      <trkpt lat="50.04562" lon="4.21135">
        <ele>218.4</ele>
        <time>2024-04-16T05:12:12Z</time>
      </trkpt>
      <trkpt lat="50.0457" lon="4.2113">
        <ele>218.6</ele>
        <time>2024-04-16T05:12:13Z</time>
      </trkpt>
      <trkpt lat="50.04578" lon="4.21125">
        <ele>218.2</ele>
        <time>2024-04-16T05:12:14Z</time>
      </trkpt>
      <trkpt lat="50.04585" lon="4.21121">
        <ele>218.4</ele>
        <time>2024-04-16T05:12:15Z</time>
      </trkpt>
      <trkpt lat="50.04593" lon="4.21117">
        <ele>218.2</ele>
        <time>2024-04-16T05:12:16Z</time>
      </trkpt>
      <trkpt lat="50.04601" lon="4.21113">
        <ele>218</ele>
        <time>2024-04-16T05:12:17Z</time>
      </trkpt>
      <trkpt lat="50.04608" lon="4.2111">
        <ele>218</ele>
        <time>2024-04-16T05:12:18Z</time>
      </trkpt>
      <trkpt lat="50.04616" lon="4.21107">
        <ele>218</ele>
        <time>2024-04-16T05:12:19Z</time>
      </trkpt>
      <trkpt lat="50.04623" lon="4.21104">
        <ele>218</ele>
        <time>2024-04-16T05:12:20Z</time>
      </trkpt>
      <trkpt lat="50.0463" lon="4.21101">
        <ele>218</ele>
        <time>2024-04-16T05:12:21Z</time>
      </trkpt>
      <trkpt lat="50.04636" lon="4.21098">
        <ele>217.8</ele>
        <time>2024-04-16T05:12:22Z</time>
      </trkpt>
      <trkpt lat="50.04643" lon="4.21095">
        <ele>217.6</ele>
        <time>2024-04-16T05:12:23Z</time>
      </trkpt>
      <trkpt lat="50.0465" lon="4.21092">
        <ele>217.6</ele>
        <time>2024-04-16T05:12:24Z</time>
      </trkpt>
      <trkpt lat="50.04657" lon="4.21089">
        <ele>217.8</ele>
        <time>2024-04-16T05:12:25Z</time>
      </trkpt>
      <trkpt lat="50.04664" lon="4.21086">
        <ele>217.6</ele>
        <time>2024-04-16T05:12:26Z</time>
      </trkpt>
      <trkpt lat="50.04671" lon="4.21083">
        <ele>217.6</ele>
        <time>2024-04-16T05:12:27Z</time>
      </trkpt>
      <trkpt lat="50.04678" lon="4.2108">
        <ele>217.6</ele>
        <time>2024-04-16T05:12:28Z</time>
      </trkpt>
      <trkpt lat="50.04685" lon="4.21077">
        <ele>217.6</ele>
        <time>2024-04-16T05:12:29Z</time>
      </trkpt>
      <trkpt lat="50.04692" lon="4.21074">
        <ele>217.8</ele>
        <time>2024-04-16T05:12:30Z</time>
      </trkpt>
      <trkpt lat="50.04699" lon="4.21071">
        <ele>217.4</ele>
        <time>2024-04-16T05:12:31Z</time>
      </trkpt>
      <trkpt lat="50.04706" lon="4.21068">
        <ele>217.4</ele>
        <time>2024-04-16T05:12:32Z</time>
      </trkpt>
      <trkpt lat="50.04713" lon="4.21065">
        <ele>217.4</ele>
        <time>2024-04-16T05:12:33Z</time>
      </trkpt>
      <trkpt lat="50.04721" lon="4.21062">
        <ele>217.2</ele>
        <time>2024-04-16T05:12:34Z</time>
      </trkpt>
      <trkpt lat="50.04728" lon="4.21059">
        <ele>217.2</ele>
        <time>2024-04-16T05:12:35Z</time>
      </trkpt>
      <trkpt lat="50.04736" lon="4.21056">
        <ele>216.8</ele>
        <time>2024-04-16T05:12:36Z</time>
      </trkpt>
      <trkpt lat="50.04743" lon="4.21052">
        <ele>216.6</ele>
        <time>2024-04-16T05:12:37Z</time>
      </trkpt>
      <trkpt lat="50.04751" lon="4.21049">
        <ele>216.6</ele>
        <time>2024-04-16T05:12:38Z</time>
      </trkpt>
      <trkpt lat="50.04758" lon="4.21045">
        <ele>216.4</ele>
        <time>2024-04-16T05:12:39Z</time>
      </trkpt>
      <trkpt lat="50.04766" lon="4.21041">
        <ele>216</ele>
        <time>2024-04-16T05:12:40Z</time>
      </trkpt>
      <trkpt lat="50.04773" lon="4.21036">
        <ele>215.6</ele>
        <time>2024-04-16T05:12:41Z</time>
      </trkpt>
      <trkpt lat="50.0478" lon="4.21031">
        <ele>215.6</ele>
        <time>2024-04-16T05:12:42Z</time>
      </trkpt>
      <trkpt lat="50.04787" lon="4.21025">
        <ele>215.4</ele>
        <time>2024-04-16T05:12:43Z</time>
      </trkpt>
      <trkpt lat="50.04794" lon="4.2102">
        <ele>215.2</ele>
        <time>2024-04-16T05:12:44Z</time>
      </trkpt>
      <trkpt lat="50.048" lon="4.21014">
        <ele>215</ele>
        <time>2024-04-16T05:12:45Z</time>
      </trkpt>
      <trkpt lat="50.04807" lon="4.21008">
        <ele>214.8</ele>
        <time>2024-04-16T05:12:46Z</time>
      </trkpt>
      <trkpt lat="50.04814" lon="4.21001">
        <ele>214.6</ele>
        <time>2024-04-16T05:12:47Z</time>
      </trkpt>
      <trkpt lat="50.04821" lon="4.20995">
        <ele>214.6</ele>
        <time>2024-04-16T05:12:48Z</time>
      </trkpt>
      <trkpt lat="50.04827" lon="4.20988">
        <ele>214.4</ele>
        <time>2024-04-16T05:12:49Z</time>
      </trkpt>
      <trkpt lat="50.04834" lon="4.20981">
        <ele>214.4</ele>
        <time>2024-04-16T05:12:50Z</time>
      </trkpt>
      <trkpt lat="50.04841" lon="4.20974">
        <ele>214.4</ele>
        <time>2024-04-16T05:12:51Z</time>
      </trkpt>
      <trkpt lat="50.04849" lon="4.20967">
        <ele>214.4</ele>
        <time>2024-04-16T05:12:52Z</time>
      </trkpt>
      <trkpt lat="50.04856" lon="4.2096">
        <ele>214</ele>
        <time>2024-04-16T05:12:53Z</time>
      </trkpt>
      <trkpt lat="50.04863" lon="4.20953">
        <ele>214</ele>
        <time>2024-04-16T05:12:54Z</time>
      </trkpt>
      <trkpt lat="50.0487" lon="4.20945">
        <ele>213.8</ele>
        <time>2024-04-16T05:12:55Z</time>
      </trkpt>
      <trkpt lat="50.04877" lon="4.20936">
        <ele>213.6</ele>
        <time>2024-04-16T05:12:56Z</time>
      </trkpt>
      <trkpt lat="50.04883" lon="4.20927">
        <ele>213.6</ele>
        <time>2024-04-16T05:12:57Z</time>
      </trkpt>
      <trkpt lat="50.0489" lon="4.20918">
        <ele>213.6</ele>
        <time>2024-04-16T05:12:58Z</time>
      </trkpt>
      <trkpt lat="50.04896" lon="4.20907">
        <ele>213.6</ele>
        <time>2024-04-16T05:12:59Z</time>
      </trkpt>
      <trkpt lat="50.04903" lon="4.20896">
        <ele>213.6</ele>
        <time>2024-04-16T05:13:00Z</time>
      </trkpt>
      <trkpt lat="50.0491" lon="4.20886">
        <ele>213.8</ele>
        <time>2024-04-16T05:13:01Z</time>
      </trkpt>
      <trkpt lat="50.04917" lon="4.20877">
        <ele>213.2</ele>
        <time>2024-04-16T05:13:02Z</time>
      </trkpt>
      <trkpt lat="50.04925" lon="4.20868">
        <ele>212.4</ele>
        <time>2024-04-16T05:13:03Z</time>
      </trkpt>
      <trkpt lat="50.04933" lon="4.2086">
        <ele>212.4</ele>
        <time>2024-04-16T05:13:04Z</time>
      </trkpt>
      <trkpt lat="50.04942" lon="4.20854">
        <ele>212.2</ele>
        <time>2024-04-16T05:13:05Z</time>
      </trkpt>
      <trkpt lat="50.04952" lon="4.2085">
        <ele>212</ele>
        <time>2024-04-16T05:13:06Z</time>
      </trkpt>
      <trkpt lat="50.04963" lon="4.20847">
        <ele>211.6</ele>
        <time>2024-04-16T05:13:07Z</time>
      </trkpt>
      <trkpt lat="50.04974" lon="4.20847">
        <ele>210.4</ele>
        <time>2024-04-16T05:13:08Z</time>
      </trkpt>
      <trkpt lat="50.04985" lon="4.2085">
        <ele>208.4</ele>
        <time>2024-04-16T05:13:09Z</time>
      </trkpt>
      <trkpt lat="50.04996" lon="4.20854">
        <ele>207.2</ele>
        <time>2024-04-16T05:13:10Z</time>
      </trkpt>
      <trkpt lat="50.05007" lon="4.20861">
        <ele>206.6</ele>
        <time>2024-04-16T05:13:11Z</time>
      </trkpt>
      <trkpt lat="50.05018" lon="4.20868">
        <ele>206.4</ele>
        <time>2024-04-16T05:13:12Z</time>
      </trkpt>
      <trkpt lat="50.05028" lon="4.20876">
        <ele>205.6</ele>
        <time>2024-04-16T05:13:13Z</time>
      </trkpt>
      <trkpt lat="50.05038" lon="4.20883">
        <ele>204.4</ele>
        <time>2024-04-16T05:13:14Z</time>
      </trkpt>
      <trkpt lat="50.05053" lon="4.20897">
        <ele>203</ele>
        <time>2024-04-16T05:13:15Z</time>
      </trkpt>
      <trkpt lat="50.05061" lon="4.20904">
        <ele>202</ele>
        <time>2024-04-16T05:13:16Z</time>
      </trkpt>
      <trkpt lat="50.05061" lon="4.20904">
        <ele>201.6</ele>
        <time>2024-04-16T05:13:17Z</time>
      </trkpt>
      <trkpt lat="50.05068" lon="4.20911">
        <ele>200.8</ele>
        <time>2024-04-16T05:13:18Z</time>
      </trkpt>
      <trkpt lat="50.05076" lon="4.20918">
        <ele>199.6</ele>
        <time>2024-04-16T05:13:19Z</time>
      </trkpt>
      <trkpt lat="50.05084" lon="4.20925">
        <ele>198.8</ele>
        <time>2024-04-16T05:13:20Z</time>
      </trkpt>
      <trkpt lat="50.05091" lon="4.20933">
        <ele>197.8</ele>
        <time>2024-04-16T05:13:21Z</time>
      </trkpt>
      <trkpt lat="50.05098" lon="4.20942">
        <ele>197</ele>
        <time>2024-04-16T05:13:22Z</time>
      </trkpt>
      <trkpt lat="50.05105" lon="4.20951">
        <ele>196.8</ele>
        <time>2024-04-16T05:13:23Z</time>
      </trkpt>
      <trkpt lat="50.05111" lon="4.20959">
        <ele>196.4</ele>
        <time>2024-04-16T05:13:24Z</time>
      </trkpt>
      <trkpt lat="50.05118" lon="4.20967">
        <ele>196.4</ele>
        <time>2024-04-16T05:13:25Z</time>
      </trkpt>
      <trkpt lat="50.05125" lon="4.20975">
        <ele>196.4</ele>
        <time>2024-04-16T05:13:26Z</time>
      </trkpt>
      <trkpt lat="50.05132" lon="4.20982">
        <ele>196.2</ele>
        <time>2024-04-16T05:13:27Z</time>
      </trkpt>
      <trkpt lat="50.05138" lon="4.20989">
        <ele>196.2</ele>
        <time>2024-04-16T05:13:28Z</time>
      </trkpt>
      <trkpt lat="50.05144" lon="4.20995">
        <ele>196.2</ele>
        <time>2024-04-16T05:13:29Z</time>
      </trkpt>
      <trkpt lat="50.05151" lon="4.21">
        <ele>196.2</ele>
        <time>2024-04-16T05:13:30Z</time>
      </trkpt>
      <trkpt lat="50.05157" lon="4.21004">
        <ele>196.2</ele>
        <time>2024-04-16T05:13:31Z</time>
      </trkpt>
      <trkpt lat="50.05164" lon="4.21007">
        <ele>196.2</ele>
        <time>2024-04-16T05:13:32Z</time>
      </trkpt>
      <trkpt lat="50.0517" lon="4.21009">
        <ele>196.2</ele>
        <time>2024-04-16T05:13:33Z</time>
      </trkpt>
      <trkpt lat="50.05176" lon="4.21011">
        <ele>196.4</ele>
        <time>2024-04-16T05:13:34Z</time>
      </trkpt>
      <trkpt lat="50.05183" lon="4.21012">
        <ele>196.6</ele>
        <time>2024-04-16T05:13:35Z</time>
      </trkpt>
      <trkpt lat="50.05189" lon="4.21012">
        <ele>196.8</ele>
        <time>2024-04-16T05:13:36Z</time>
      </trkpt>
      <trkpt lat="50.05195" lon="4.21012">
        <ele>197.4</ele>
        <time>2024-04-16T05:13:37Z</time>
      </trkpt>
      <trkpt lat="50.05201" lon="4.21013">
        <ele>198.2</ele>
        <time>2024-04-16T05:13:38Z</time>
      </trkpt>
      <trkpt lat="50.05206" lon="4.21012">
        <ele>198.6</ele>
        <time>2024-04-16T05:13:39Z</time>
      </trkpt>
      <trkpt lat="50.05212" lon="4.21012">
        <ele>199</ele>
        <time>2024-04-16T05:13:40Z</time>
      </trkpt>
      <trkpt lat="50.05218" lon="4.21013">
        <ele>199.2</ele>
        <time>2024-04-16T05:13:41Z</time>
      </trkpt>
      <trkpt lat="50.05223" lon="4.21013">
        <ele>199.6</ele>
        <time>2024-04-16T05:13:42Z</time>
      </trkpt>
      <trkpt lat="50.05229" lon="4.21012">
        <ele>199.8</ele>
        <time>2024-04-16T05:13:43Z</time>
      </trkpt>
      <trkpt lat="50.05235" lon="4.2101">
        <ele>200.2</ele>
        <time>2024-04-16T05:13:44Z</time>
      </trkpt>
      <trkpt lat="50.05241" lon="4.21007">
        <ele>200.4</ele>
        <time>2024-04-16T05:13:45Z</time>
      </trkpt>
      <trkpt lat="50.05248" lon="4.21006">
        <ele>200.6</ele>
        <time>2024-04-16T05:13:46Z</time>
      </trkpt>
      <trkpt lat="50.05256" lon="4.21006">
        <ele>200.8</ele>
        <time>2024-04-16T05:13:47Z</time>
      </trkpt>
      <trkpt lat="50.05263" lon="4.21005">
        <ele>200.8</ele>
        <time>2024-04-16T05:13:48Z</time>
      </trkpt>
      <trkpt lat="50.0527" lon="4.21004">
        <ele>201</ele>
        <time>2024-04-16T05:13:49Z</time>
      </trkpt>
      <trkpt lat="50.05278" lon="4.21004">
        <ele>201.2</ele>
        <time>2024-04-16T05:13:50Z</time>
      </trkpt>
      <trkpt lat="50.05286" lon="4.21002">
        <ele>201.2</ele>
        <time>2024-04-16T05:13:51Z</time>
      </trkpt>
      <trkpt lat="50.053" lon="4.21001">
        <ele>201.2</ele>
        <time>2024-04-16T05:13:52Z</time>
      </trkpt>
      <trkpt lat="50.053" lon="4.21001">
        <ele>201.2</ele>
        <time>2024-04-16T05:13:53Z</time>
      </trkpt>
      <trkpt lat="50.05307" lon="4.21001">
        <ele>201.2</ele>
        <time>2024-04-16T05:13:54Z</time>
      </trkpt>
      <trkpt lat="50.05314" lon="4.21">
        <ele>201.2</ele>
        <time>2024-04-16T05:13:55Z</time>
      </trkpt>
      <trkpt lat="50.05321" lon="4.20999">
        <ele>201.2</ele>
        <time>2024-04-16T05:13:56Z</time>
      </trkpt>
      <trkpt lat="50.05328" lon="4.20999">
        <ele>201.2</ele>
        <time>2024-04-16T05:13:57Z</time>
      </trkpt>
      <trkpt lat="50.05335" lon="4.20999">
        <ele>201.4</ele>
        <time>2024-04-16T05:13:58Z</time>
      </trkpt>
      <trkpt lat="50.05342" lon="4.20998">
        <ele>201.2</ele>
        <time>2024-04-16T05:13:59Z</time>
      </trkpt>
      <trkpt lat="50.0535" lon="4.20998">
        <ele>201.4</ele>
        <time>2024-04-16T05:14:00Z</time>
      </trkpt>
      <trkpt lat="50.05357" lon="4.20997">
        <ele>201.4</ele>
        <time>2024-04-16T05:14:01Z</time>
      </trkpt>
      <trkpt lat="50.05364" lon="4.20997">
        <ele>201.6</ele>
        <time>2024-04-16T05:14:02Z</time>
      </trkpt>
      <trkpt lat="50.0537" lon="4.20997">
        <ele>201.6</ele>
        <time>2024-04-16T05:14:03Z</time>
      </trkpt>
      <trkpt lat="50.05378" lon="4.20996">
        <ele>201.6</ele>
        <time>2024-04-16T05:14:04Z</time>
      </trkpt>
      <trkpt lat="50.05385" lon="4.20996">
        <ele>201.8</ele>
        <time>2024-04-16T05:14:05Z</time>
      </trkpt>
      <trkpt lat="50.05392" lon="4.20996">
        <ele>202</ele>
        <time>2024-04-16T05:14:06Z</time>
      </trkpt>
      <trkpt lat="50.05398" lon="4.20997">
        <ele>202.6</ele>
        <time>2024-04-16T05:14:07Z</time>
      </trkpt>
      <trkpt lat="50.05405" lon="4.20997">
        <ele>203</ele>
        <time>2024-04-16T05:14:08Z</time>
      </trkpt>
      <trkpt lat="50.05412" lon="4.20998">
        <ele>203</ele>
        <time>2024-04-16T05:14:09Z</time>
      </trkpt>
      <trkpt lat="50.05418" lon="4.20999">
        <ele>203.2</ele>
        <time>2024-04-16T05:14:10Z</time>
      </trkpt>
      <trkpt lat="50.05424" lon="4.21">
        <ele>203.8</ele>
        <time>2024-04-16T05:14:11Z</time>
      </trkpt>
      <trkpt lat="50.0543" lon="4.21">
        <ele>204</ele>
        <time>2024-04-16T05:14:12Z</time>
      </trkpt>
      <trkpt lat="50.05436" lon="4.21">
        <ele>204.2</ele>
        <time>2024-04-16T05:14:13Z</time>
      </trkpt>
      <trkpt lat="50.05443" lon="4.20998">
        <ele>204.6</ele>
        <time>2024-04-16T05:14:14Z</time>
      </trkpt>
      <trkpt lat="50.05449" lon="4.20995">
        <ele>205</ele>
        <time>2024-04-16T05:14:15Z</time>
      </trkpt>
      <trkpt lat="50.05455" lon="4.20991">
        <ele>205.2</ele>
        <time>2024-04-16T05:14:16Z</time>
      </trkpt>
      <trkpt lat="50.0546" lon="4.20987">
        <ele>205.4</ele>
        <time>2024-04-16T05:14:17Z</time>
      </trkpt>
      <trkpt lat="50.05466" lon="4.20982">
        <ele>205.4</ele>
        <time>2024-04-16T05:14:18Z</time>
      </trkpt>
      <trkpt lat="50.05472" lon="4.20978">
        <ele>205.4</ele>
        <time>2024-04-16T05:14:19Z</time>
      </trkpt>
      <trkpt lat="50.05478" lon="4.20973">
        <ele>205.8</ele>
        <time>2024-04-16T05:14:20Z</time>
      </trkpt>
      <trkpt lat="50.05484" lon="4.20968">
        <ele>206.4</ele>
        <time>2024-04-16T05:14:21Z</time>
      </trkpt>
      <trkpt lat="50.05491" lon="4.20963">
        <ele>207</ele>
        <time>2024-04-16T05:14:22Z</time>
      </trkpt>
      <trkpt lat="50.05497" lon="4.20958">
        <ele>207.6</ele>
        <time>2024-04-16T05:14:23Z</time>
      </trkpt>
      <trkpt lat="50.05504" lon="4.20954">
        <ele>207.8</ele>
        <time>2024-04-16T05:14:24Z</time>
      </trkpt>
      <trkpt lat="50.0551" lon="4.20948">
        <ele>208</ele>
        <time>2024-04-16T05:14:25Z</time>
      </trkpt>
      <trkpt lat="50.05517" lon="4.20943">
        <ele>208.2</ele>
        <time>2024-04-16T05:14:26Z</time>
      </trkpt>
      <trkpt lat="50.05524" lon="4.20938">
        <ele>208.2</ele>
        <time>2024-04-16T05:14:27Z</time>
      </trkpt>
      <trkpt lat="50.0553" lon="4.20932">
        <ele>208.2</ele>
        <time>2024-04-16T05:14:28Z</time>
      </trkpt>
      <trkpt lat="50.05537" lon="4.20926">
        <ele>208.2</ele>
        <time>2024-04-16T05:14:29Z</time>
      </trkpt>
      <trkpt lat="50.05545" lon="4.20921">
        <ele>208.2</ele>
        <time>2024-04-16T05:14:30Z</time>
      </trkpt>
      <trkpt lat="50.05552" lon="4.20915">
        <ele>208.2</ele>
        <time>2024-04-16T05:14:31Z</time>
      </trkpt>
      <trkpt lat="50.05559" lon="4.20909">
        <ele>208.2</ele>
        <time>2024-04-16T05:14:32Z</time>
      </trkpt>
      <trkpt lat="50.05566" lon="4.20903">
        <ele>208.2</ele>
        <time>2024-04-16T05:14:33Z</time>
      </trkpt>
      <trkpt lat="50.05574" lon="4.20897">
        <ele>208</ele>
        <time>2024-04-16T05:14:34Z</time>
      </trkpt>
      <trkpt lat="50.05581" lon="4.20892">
        <ele>208.2</ele>
        <time>2024-04-16T05:14:35Z</time>
      </trkpt>
      <trkpt lat="50.05589" lon="4.20886">
        <ele>208.2</ele>
        <time>2024-04-16T05:14:36Z</time>
      </trkpt>
      <trkpt lat="50.05596" lon="4.2088">
        <ele>208</ele>
        <time>2024-04-16T05:14:37Z</time>
      </trkpt>
      <trkpt lat="50.05604" lon="4.20874">
        <ele>207.6</ele>
        <time>2024-04-16T05:14:38Z</time>
      </trkpt>
      <trkpt lat="50.05611" lon="4.20868">
        <ele>207</ele>
        <time>2024-04-16T05:14:39Z</time>
      </trkpt>
      <trkpt lat="50.05619" lon="4.20862">
        <ele>206.4</ele>
        <time>2024-04-16T05:14:40Z</time>
      </trkpt>
      <trkpt lat="50.05627" lon="4.20856">
        <ele>206</ele>
        <time>2024-04-16T05:14:41Z</time>
      </trkpt>
      <trkpt lat="50.05635" lon="4.20849">
        <ele>205.8</ele>
        <time>2024-04-16T05:14:42Z</time>
      </trkpt>
      <trkpt lat="50.05643" lon="4.20843">
        <ele>205</ele>
        <time>2024-04-16T05:14:43Z</time>
      </trkpt>
      <trkpt lat="50.05651" lon="4.20837">
        <ele>204.4</ele>
        <time>2024-04-16T05:14:44Z</time>
      </trkpt>
      <trkpt lat="50.05659" lon="4.2083">
        <ele>204</ele>
        <time>2024-04-16T05:14:45Z</time>
      </trkpt>
      <trkpt lat="50.05667" lon="4.20824">
        <ele>203.8</ele>
        <time>2024-04-16T05:14:46Z</time>
      </trkpt>
      <trkpt lat="50.05675" lon="4.20818">
        <ele>203.4</ele>
        <time>2024-04-16T05:14:47Z</time>
      </trkpt>
      <trkpt lat="50.05683" lon="4.20811">
        <ele>203.6</ele>
        <time>2024-04-16T05:14:48Z</time>
      </trkpt>
      <trkpt lat="50.0569" lon="4.20805">
        <ele>203.4</ele>
        <time>2024-04-16T05:14:49Z</time>
      </trkpt>
      <trkpt lat="50.05698" lon="4.20799">
        <ele>202.4</ele>
        <time>2024-04-16T05:14:50Z</time>
      </trkpt>
      <trkpt lat="50.05705" lon="4.20793">
        <ele>202</ele>
        <time>2024-04-16T05:14:51Z</time>
      </trkpt>
      <trkpt lat="50.05711" lon="4.20788">
        <ele>201.6</ele>
        <time>2024-04-16T05:14:52Z</time>
      </trkpt>
      <trkpt lat="50.05718" lon="4.20783">
        <ele>201.6</ele>
        <time>2024-04-16T05:14:53Z</time>
      </trkpt>
      <trkpt lat="50.05724" lon="4.20778">
        <ele>201.4</ele>
        <time>2024-04-16T05:14:54Z</time>
      </trkpt>
      <trkpt lat="50.0573" lon="4.20773">
        <ele>201.4</ele>
        <time>2024-04-16T05:14:55Z</time>
      </trkpt>
      <trkpt lat="50.05736" lon="4.20768">
        <ele>201.4</ele>
        <time>2024-04-16T05:14:56Z</time>
      </trkpt>
      <trkpt lat="50.05742" lon="4.20764">
        <ele>201.4</ele>
        <time>2024-04-16T05:14:57Z</time>
      </trkpt>
      <trkpt lat="50.05748" lon="4.20759">
        <ele>201.4</ele>
        <time>2024-04-16T05:14:58Z</time>
      </trkpt>
      <trkpt lat="50.05753" lon="4.20755">
        <ele>201.4</ele>
        <time>2024-04-16T05:14:59Z</time>
      </trkpt>
      <trkpt lat="50.05758" lon="4.20751">
        <ele>201.2</ele>
        <time>2024-04-16T05:15:00Z</time>
      </trkpt>
      <trkpt lat="50.05763" lon="4.20747">
        <ele>201.4</ele>
        <time>2024-04-16T05:15:01Z</time>
      </trkpt>
      <trkpt lat="50.05768" lon="4.20744">
        <ele>201.2</ele>
        <time>2024-04-16T05:15:02Z</time>
      </trkpt>
      <trkpt lat="50.05772" lon="4.20741">
        <ele>201.4</ele>
        <time>2024-04-16T05:15:03Z</time>
      </trkpt>
      <trkpt lat="50.05777" lon="4.20737">
        <ele>201.8</ele>
        <time>2024-04-16T05:15:04Z</time>
      </trkpt>
      <trkpt lat="50.05782" lon="4.20733">
        <ele>202</ele>
        <time>2024-04-16T05:15:05Z</time>
      </trkpt>
      <trkpt lat="50.05787" lon="4.20729">
        <ele>202.4</ele>
        <time>2024-04-16T05:15:06Z</time>
      </trkpt>
      <trkpt lat="50.05792" lon="4.20725">
        <ele>203</ele>
        <time>2024-04-16T05:15:07Z</time>
      </trkpt>
      <trkpt lat="50.05796" lon="4.20722">
        <ele>203.4</ele>
        <time>2024-04-16T05:15:08Z</time>
      </trkpt>
      <trkpt lat="50.05801" lon="4.20717">
        <ele>203.8</ele>
        <time>2024-04-16T05:15:09Z</time>
      </trkpt>
      <trkpt lat="50.05806" lon="4.20713">
        <ele>204</ele>
        <time>2024-04-16T05:15:10Z</time>
      </trkpt>
      <trkpt lat="50.05811" lon="4.20709">
        <ele>204.2</ele>
        <time>2024-04-16T05:15:11Z</time>
      </trkpt>
      <trkpt lat="50.05817" lon="4.20705">
        <ele>204.4</ele>
        <time>2024-04-16T05:15:12Z</time>
      </trkpt>
      <trkpt lat="50.05822" lon="4.207">
        <ele>204.8</ele>
        <time>2024-04-16T05:15:13Z</time>
      </trkpt>
      <trkpt lat="50.05828" lon="4.20695">
        <ele>204.8</ele>
        <time>2024-04-16T05:15:14Z</time>
      </trkpt>
      <trkpt lat="50.05834" lon="4.20691">
        <ele>205.2</ele>
        <time>2024-04-16T05:15:15Z</time>
      </trkpt>
      <trkpt lat="50.0584" lon="4.20686">
        <ele>205.6</ele>
        <time>2024-04-16T05:15:16Z</time>
      </trkpt>
      <trkpt lat="50.05847" lon="4.2068">
        <ele>206.4</ele>
        <time>2024-04-16T05:15:17Z</time>
      </trkpt>
      <trkpt lat="50.05853" lon="4.20675">
        <ele>206.8</ele>
        <time>2024-04-16T05:15:18Z</time>
      </trkpt>
      <trkpt lat="50.0586" lon="4.20669">
        <ele>206.8</ele>
        <time>2024-04-16T05:15:19Z</time>
      </trkpt>
      <trkpt lat="50.05867" lon="4.20663">
        <ele>207</ele>
        <time>2024-04-16T05:15:20Z</time>
      </trkpt>
      <trkpt lat="50.05875" lon="4.20656">
        <ele>207</ele>
        <time>2024-04-16T05:15:21Z</time>
      </trkpt>
      <trkpt lat="50.05882" lon="4.2065">
        <ele>207</ele>
        <time>2024-04-16T05:15:22Z</time>
      </trkpt>
      <trkpt lat="50.0589" lon="4.20644">
        <ele>207.2</ele>
        <time>2024-04-16T05:15:23Z</time>
      </trkpt>
      <trkpt lat="50.05899" lon="4.20638">
        <ele>207</ele>
        <time>2024-04-16T05:15:24Z</time>
      </trkpt>
      <trkpt lat="50.05907" lon="4.20632">
        <ele>207.2</ele>
        <time>2024-04-16T05:15:25Z</time>
      </trkpt>
      <trkpt lat="50.05916" lon="4.20626">
        <ele>207</ele>
        <time>2024-04-16T05:15:26Z</time>
      </trkpt>
      <trkpt lat="50.05925" lon="4.2062">
        <ele>206.8</ele>
        <time>2024-04-16T05:15:27Z</time>
      </trkpt>
      <trkpt lat="50.05934" lon="4.20615">
        <ele>206.4</ele>
        <time>2024-04-16T05:15:28Z</time>
      </trkpt>
      <trkpt lat="50.05943" lon="4.2061">
        <ele>206</ele>
        <time>2024-04-16T05:15:29Z</time>
      </trkpt>
      <trkpt lat="50.05953" lon="4.20604">
        <ele>205.2</ele>
        <time>2024-04-16T05:15:30Z</time>
      </trkpt>
      <trkpt lat="50.05963" lon="4.20598">
        <ele>204.8</ele>
        <time>2024-04-16T05:15:31Z</time>
      </trkpt>
      <trkpt lat="50.05973" lon="4.20593">
        <ele>204.2</ele>
        <time>2024-04-16T05:15:32Z</time>
      </trkpt>
      <trkpt lat="50.05983" lon="4.20587">
        <ele>203.6</ele>
        <time>2024-04-16T05:15:33Z</time>
      </trkpt>
      <trkpt lat="50.05994" lon="4.20581">
        <ele>202.8</ele>
        <time>2024-04-16T05:15:34Z</time>
      </trkpt>
      <trkpt lat="50.06005" lon="4.20575">
        <ele>201.6</ele>
        <time>2024-04-16T05:15:35Z</time>
      </trkpt>
      <trkpt lat="50.06015" lon="4.20569">
        <ele>201.6</ele>
        <time>2024-04-16T05:15:36Z</time>
      </trkpt>
      <trkpt lat="50.06026" lon="4.20562">
        <ele>200.6</ele>
        <time>2024-04-16T05:15:37Z</time>
      </trkpt>
      <trkpt lat="50.06037" lon="4.20556">
        <ele>199.8</ele>
        <time>2024-04-16T05:15:38Z</time>
      </trkpt>
      <trkpt lat="50.06049" lon="4.20549">
        <ele>199</ele>
        <time>2024-04-16T05:15:39Z</time>
      </trkpt>
      <trkpt lat="50.0606" lon="4.20543">
        <ele>198.6</ele>
        <time>2024-04-16T05:15:40Z</time>
      </trkpt>
      <trkpt lat="50.06071" lon="4.20536">
        <ele>197.6</ele>
        <time>2024-04-16T05:15:41Z</time>
      </trkpt>
      <trkpt lat="50.06082" lon="4.20529">
        <ele>197</ele>
        <time>2024-04-16T05:15:42Z</time>
      </trkpt>
      <trkpt lat="50.06094" lon="4.20523">
        <ele>196</ele>
        <time>2024-04-16T05:15:43Z</time>
      </trkpt>
      <trkpt lat="50.06105" lon="4.20516">
        <ele>195.4</ele>
        <time>2024-04-16T05:15:44Z</time>
      </trkpt>
      <trkpt lat="50.06116" lon="4.20509">
        <ele>194.6</ele>
        <time>2024-04-16T05:15:45Z</time>
      </trkpt>
      <trkpt lat="50.06127" lon="4.20503">
        <ele>194.2</ele>
        <time>2024-04-16T05:15:46Z</time>
      </trkpt>
      <trkpt lat="50.06138" lon="4.20497">
        <ele>193.2</ele>
        <time>2024-04-16T05:15:47Z</time>
      </trkpt>
      <trkpt lat="50.06148" lon="4.20491">
        <ele>192.4</ele>
        <time>2024-04-16T05:15:48Z</time>
      </trkpt>
      <trkpt lat="50.06158" lon="4.20485">
        <ele>191.4</ele>
        <time>2024-04-16T05:15:49Z</time>
      </trkpt>
      <trkpt lat="50.06168" lon="4.2048">
        <ele>190.6</ele>
        <time>2024-04-16T05:15:50Z</time>
      </trkpt>
      <trkpt lat="50.06177" lon="4.20474">
        <ele>189.4</ele>
        <time>2024-04-16T05:15:51Z</time>
      </trkpt>
      <trkpt lat="50.06186" lon="4.20469">
        <ele>188.6</ele>
        <time>2024-04-16T05:15:52Z</time>
      </trkpt>
      <trkpt lat="50.06195" lon="4.20464">
        <ele>188.2</ele>
        <time>2024-04-16T05:15:53Z</time>
      </trkpt>
      <trkpt lat="50.06204" lon="4.20459">
        <ele>187.8</ele>
        <time>2024-04-16T05:15:54Z</time>
      </trkpt>
      <trkpt lat="50.06212" lon="4.20454">
        <ele>187.6</ele>
        <time>2024-04-16T05:15:55Z</time>
      </trkpt>
      <trkpt lat="50.0622" lon="4.2045">
        <ele>187.6</ele>
        <time>2024-04-16T05:15:56Z</time>
      </trkpt>
      <trkpt lat="50.06228" lon="4.20446">
        <ele>187.6</ele>
        <time>2024-04-16T05:15:57Z</time>
      </trkpt>
      <trkpt lat="50.06235" lon="4.20442">
        <ele>187.6</ele>
        <time>2024-04-16T05:15:58Z</time>
      </trkpt>
      <trkpt lat="50.06243" lon="4.20438">
        <ele>187.4</ele>
        <time>2024-04-16T05:15:59Z</time>
      </trkpt>
      <trkpt lat="50.06249" lon="4.20434">
        <ele>187.4</ele>
        <time>2024-04-16T05:16:00Z</time>
      </trkpt>
      <trkpt lat="50.06256" lon="4.20431">
        <ele>187.6</ele>
        <time>2024-04-16T05:16:01Z</time>
      </trkpt>
      <trkpt lat="50.06262" lon="4.20427">
        <ele>187.6</ele>
        <time>2024-04-16T05:16:02Z</time>
      </trkpt>
      <trkpt lat="50.06268" lon="4.20424">
        <ele>187.6</ele>
        <time>2024-04-16T05:16:03Z</time>
      </trkpt>
      <trkpt lat="50.06273" lon="4.20421">
        <ele>187.6</ele>
        <time>2024-04-16T05:16:04Z</time>
      </trkpt>
      <trkpt lat="50.06278" lon="4.20418">
        <ele>187.6</ele>
        <time>2024-04-16T05:16:05Z</time>
      </trkpt>
      <trkpt lat="50.06283" lon="4.20416">
        <ele>187.6</ele>
        <time>2024-04-16T05:16:06Z</time>
      </trkpt>
      <trkpt lat="50.06286" lon="4.20412">
        <ele>187.6</ele>
        <time>2024-04-16T05:16:07Z</time>
      </trkpt>
      <trkpt lat="50.06289" lon="4.20406">
        <ele>187.6</ele>
        <time>2024-04-16T05:16:08Z</time>
      </trkpt>
      <trkpt lat="50.06291" lon="4.20398">
        <ele>187.6</ele>
        <time>2024-04-16T05:16:09Z</time>
      </trkpt>
      <trkpt lat="50.06293" lon="4.20389">
        <ele>188</ele>
        <time>2024-04-16T05:16:10Z</time>
      </trkpt>
      <trkpt lat="50.06293" lon="4.20379">
        <ele>188.4</ele>
        <time>2024-04-16T05:16:11Z</time>
      </trkpt>
      <trkpt lat="50.06294" lon="4.20368">
        <ele>189</ele>
        <time>2024-04-16T05:16:12Z</time>
      </trkpt>
      <trkpt lat="50.06294" lon="4.20357">
        <ele>189.4</ele>
        <time>2024-04-16T05:16:13Z</time>
      </trkpt>
      <trkpt lat="50.06294" lon="4.20346">
        <ele>189.6</ele>
        <time>2024-04-16T05:16:14Z</time>
      </trkpt>
      <trkpt lat="50.06294" lon="4.20335">
        <ele>189.8</ele>
        <time>2024-04-16T05:16:15Z</time>
      </trkpt>
      <trkpt lat="50.06294" lon="4.20324">
        <ele>189.8</ele>
        <time>2024-04-16T05:16:16Z</time>
      </trkpt>
      <trkpt lat="50.06295" lon="4.20312">
        <ele>189.8</ele>
        <time>2024-04-16T05:16:17Z</time>
      </trkpt>
      <trkpt lat="50.06295" lon="4.20301">
        <ele>189.8</ele>
        <time>2024-04-16T05:16:18Z</time>
      </trkpt>
      <trkpt lat="50.06296" lon="4.2029">
        <ele>189.8</ele>
        <time>2024-04-16T05:16:19Z</time>
      </trkpt>
      <trkpt lat="50.06296" lon="4.20279">
        <ele>190</ele>
        <time>2024-04-16T05:16:20Z</time>
      </trkpt>
      <trkpt lat="50.06296" lon="4.20267">
        <ele>189.8</ele>
        <time>2024-04-16T05:16:21Z</time>
      </trkpt>
      <trkpt lat="50.06297" lon="4.20256">
        <ele>190</ele>
        <time>2024-04-16T05:16:22Z</time>
      </trkpt>
      <trkpt lat="50.06297" lon="4.20245">
        <ele>189.8</ele>
        <time>2024-04-16T05:16:23Z</time>
      </trkpt>
      <trkpt lat="50.06297" lon="4.20234">
        <ele>189.8</ele>
        <time>2024-04-16T05:16:24Z</time>
      </trkpt>
      <trkpt lat="50.06298" lon="4.20223">
        <ele>189.8</ele>
        <time>2024-04-16T05:16:25Z</time>
      </trkpt>
      <trkpt lat="50.06298" lon="4.20212">
        <ele>189.4</ele>
        <time>2024-04-16T05:16:26Z</time>
      </trkpt>
      <trkpt lat="50.06299" lon="4.202">
        <ele>189.2</ele>
        <time>2024-04-16T05:16:27Z</time>
      </trkpt>
      <trkpt lat="50.06299" lon="4.20189">
        <ele>189</ele>
        <time>2024-04-16T05:16:28Z</time>
      </trkpt>
      <trkpt lat="50.06299" lon="4.20177">
        <ele>189</ele>
        <time>2024-04-16T05:16:29Z</time>
      </trkpt>
      <trkpt lat="50.063" lon="4.20166">
        <ele>188.8</ele>
        <time>2024-04-16T05:16:30Z</time>
      </trkpt>
      <trkpt lat="50.063" lon="4.20154">
        <ele>188.6</ele>
        <time>2024-04-16T05:16:31Z</time>
      </trkpt>
      <trkpt lat="50.06301" lon="4.20142">
        <ele>188.6</ele>
        <time>2024-04-16T05:16:32Z</time>
      </trkpt>
      <trkpt lat="50.06301" lon="4.2013">
        <ele>188.4</ele>
        <time>2024-04-16T05:16:33Z</time>
      </trkpt>
      <trkpt lat="50.06302" lon="4.20118">
        <ele>188.4</ele>
        <time>2024-04-16T05:16:34Z</time>
      </trkpt>
      <trkpt lat="50.06302" lon="4.20105">
        <ele>188.4</ele>
        <time>2024-04-16T05:16:35Z</time>
      </trkpt>
      <trkpt lat="50.06304" lon="4.20093">
        <ele>188</ele>
        <time>2024-04-16T05:16:36Z</time>
      </trkpt>
      <trkpt lat="50.06306" lon="4.20082">
        <ele>187.8</ele>
        <time>2024-04-16T05:16:37Z</time>
      </trkpt>
      <trkpt lat="50.06309" lon="4.2007">
        <ele>187.2</ele>
        <time>2024-04-16T05:16:38Z</time>
      </trkpt>
      <trkpt lat="50.06312" lon="4.20059">
        <ele>186.8</ele>
        <time>2024-04-16T05:16:39Z</time>
      </trkpt>
      <trkpt lat="50.06315" lon="4.20048">
        <ele>186.4</ele>
        <time>2024-04-16T05:16:40Z</time>
      </trkpt>
      <trkpt lat="50.06317" lon="4.20037">
        <ele>186.2</ele>
        <time>2024-04-16T05:16:41Z</time>
      </trkpt>
      <trkpt lat="50.06318" lon="4.20025">
        <ele>186.2</ele>
        <time>2024-04-16T05:16:42Z</time>
      </trkpt>
      <trkpt lat="50.06318" lon="4.20014">
        <ele>186.2</ele>
        <time>2024-04-16T05:16:43Z</time>
      </trkpt>
      <trkpt lat="50.06317" lon="4.20002">
        <ele>186</ele>
        <time>2024-04-16T05:16:44Z</time>
      </trkpt>
      <trkpt lat="50.06316" lon="4.19991">
        <ele>185.8</ele>
        <time>2024-04-16T05:16:45Z</time>
      </trkpt>
      <trkpt lat="50.06316" lon="4.19979">
        <ele>186</ele>
        <time>2024-04-16T05:16:46Z</time>
      </trkpt>
      <trkpt lat="50.06317" lon="4.19967">
        <ele>185.8</ele>
        <time>2024-04-16T05:16:47Z</time>
      </trkpt>
      <trkpt lat="50.06319" lon="4.19956">
        <ele>185.4</ele>
        <time>2024-04-16T05:16:48Z</time>
      </trkpt>
      <trkpt lat="50.06324" lon="4.19945">
        <ele>185</ele>
        <time>2024-04-16T05:16:49Z</time>
      </trkpt>
      <trkpt lat="50.0633" lon="4.19935">
        <ele>184.4</ele>
        <time>2024-04-16T05:16:50Z</time>
      </trkpt>
      <trkpt lat="50.06337" lon="4.19927">
        <ele>184.4</ele>
        <time>2024-04-16T05:16:51Z</time>
      </trkpt>
      <trkpt lat="50.06345" lon="4.19921">
        <ele>184</ele>
        <time>2024-04-16T05:16:52Z</time>
      </trkpt>
      <trkpt lat="50.06364" lon="4.19911">
        <ele>183.8</ele>
        <time>2024-04-16T05:16:53Z</time>
      </trkpt>
      <trkpt lat="50.06364" lon="4.19911">
        <ele>183.6</ele>
        <time>2024-04-16T05:16:54Z</time>
      </trkpt>
      <trkpt lat="50.06373" lon="4.19907">
        <ele>183.6</ele>
        <time>2024-04-16T05:16:55Z</time>
      </trkpt>
      <trkpt lat="50.06382" lon="4.19902">
        <ele>183</ele>
        <time>2024-04-16T05:16:56Z</time>
      </trkpt>
      <trkpt lat="50.06391" lon="4.19898">
        <ele>182</ele>
        <time>2024-04-16T05:16:57Z</time>
      </trkpt>
      <trkpt lat="50.06399" lon="4.19892">
        <ele>181</ele>
        <time>2024-04-16T05:16:58Z</time>
      </trkpt>
      <trkpt lat="50.06407" lon="4.19883">
        <ele>180.2</ele>
        <time>2024-04-16T05:16:59Z</time>
      </trkpt>
      <trkpt lat="50.06412" lon="4.19873">
        <ele>179.8</ele>
        <time>2024-04-16T05:17:00Z</time>
      </trkpt>
      <trkpt lat="50.06416" lon="4.19862">
        <ele>179.4</ele>
        <time>2024-04-16T05:17:01Z</time>
      </trkpt>
      <trkpt lat="50.06419" lon="4.1985">
        <ele>179</ele>
        <time>2024-04-16T05:17:02Z</time>
      </trkpt>
      <trkpt lat="50.06422" lon="4.19838">
        <ele>179.2</ele>
        <time>2024-04-16T05:17:03Z</time>
      </trkpt>
      <trkpt lat="50.06424" lon="4.19827">
        <ele>179.2</ele>
        <time>2024-04-16T05:17:04Z</time>
      </trkpt>
      <trkpt lat="50.06427" lon="4.19816">
        <ele>179</ele>
        <time>2024-04-16T05:17:05Z</time>
      </trkpt>
      <trkpt lat="50.06429" lon="4.19804">
        <ele>179</ele>
        <time>2024-04-16T05:17:06Z</time>
      </trkpt>
      <trkpt lat="50.06432" lon="4.19793">
        <ele>179</ele>
        <time>2024-04-16T05:17:07Z</time>
      </trkpt>
      <trkpt lat="50.06434" lon="4.19782">
        <ele>179</ele>
        <time>2024-04-16T05:17:08Z</time>
      </trkpt>
      <trkpt lat="50.06436" lon="4.19771">
        <ele>178.8</ele>
        <time>2024-04-16T05:17:09Z</time>
      </trkpt>
      <trkpt lat="50.06438" lon="4.1976">
        <ele>179</ele>
        <time>2024-04-16T05:17:10Z</time>
      </trkpt>
      <trkpt lat="50.0644" lon="4.19749">
        <ele>179</ele>
        <time>2024-04-16T05:17:11Z</time>
      </trkpt>
      <trkpt lat="50.06442" lon="4.19738">
        <ele>179.2</ele>
        <time>2024-04-16T05:17:12Z</time>
      </trkpt>
      <trkpt lat="50.06443" lon="4.19728">
        <ele>179.4</ele>
        <time>2024-04-16T05:17:13Z</time>
      </trkpt>
      <trkpt lat="50.06444" lon="4.19717">
        <ele>179.4</ele>
        <time>2024-04-16T05:17:14Z</time>
      </trkpt>
      <trkpt lat="50.06446" lon="4.19706">
        <ele>179.4</ele>
        <time>2024-04-16T05:17:15Z</time>
      </trkpt>
      <trkpt lat="50.06446" lon="4.19696">
        <ele>179.4</ele>
        <time>2024-04-16T05:17:16Z</time>
      </trkpt>
      <trkpt lat="50.06447" lon="4.19685">
        <ele>179.6</ele>
        <time>2024-04-16T05:17:17Z</time>
      </trkpt>
      <trkpt lat="50.06448" lon="4.19675">
        <ele>179.6</ele>
        <time>2024-04-16T05:17:18Z</time>
      </trkpt>
      <trkpt lat="50.06449" lon="4.19664">
        <ele>179.8</ele>
        <time>2024-04-16T05:17:19Z</time>
      </trkpt>
      <trkpt lat="50.0645" lon="4.19654">
        <ele>179.8</ele>
        <time>2024-04-16T05:17:20Z</time>
      </trkpt>
      <trkpt lat="50.06452" lon="4.19644">
        <ele>179.8</ele>
        <time>2024-04-16T05:17:21Z</time>
      </trkpt>
      <trkpt lat="50.06454" lon="4.19634">
        <ele>180</ele>
        <time>2024-04-16T05:17:22Z</time>
      </trkpt>
      <trkpt lat="50.06456" lon="4.19625">
        <ele>180</ele>
        <time>2024-04-16T05:17:23Z</time>
      </trkpt>
      <trkpt lat="50.06459" lon="4.19617">
        <ele>180</ele>
        <time>2024-04-16T05:17:24Z</time>
      </trkpt>
      <trkpt lat="50.06467" lon="4.19601">
        <ele>180</ele>
        <time>2024-04-16T05:17:25Z</time>
      </trkpt>
      <trkpt lat="50.06471" lon="4.19593">
        <ele>180</ele>
        <time>2024-04-16T05:17:26Z</time>
      </trkpt>
      <trkpt lat="50.06475" lon="4.19586">
        <ele>180</ele>
        <time>2024-04-16T05:17:27Z</time>
      </trkpt>
      <trkpt lat="50.06475" lon="4.19586">
        <ele>180.4</ele>
        <time>2024-04-16T05:17:28Z</time>
      </trkpt>
      <trkpt lat="50.0648" lon="4.19579">
        <ele>180.6</ele>
        <time>2024-04-16T05:17:29Z</time>
      </trkpt>
      <trkpt lat="50.06485" lon="4.19572">
        <ele>180.8</ele>
        <time>2024-04-16T05:17:30Z</time>
      </trkpt>
      <trkpt lat="50.06491" lon="4.19565">
        <ele>181.2</ele>
        <time>2024-04-16T05:17:31Z</time>
      </trkpt>
      <trkpt lat="50.06497" lon="4.19559">
        <ele>181.4</ele>
        <time>2024-04-16T05:17:32Z</time>
      </trkpt>
      <trkpt lat="50.06504" lon="4.19555">
        <ele>181.8</ele>
        <time>2024-04-16T05:17:33Z</time>
      </trkpt>
      <trkpt lat="50.06511" lon="4.19553">
        <ele>182.4</ele>
        <time>2024-04-16T05:17:34Z</time>
      </trkpt>
      <trkpt lat="50.06518" lon="4.19552">
        <ele>183.2</ele>
        <time>2024-04-16T05:17:35Z</time>
      </trkpt>
      <trkpt lat="50.06525" lon="4.19552">
        <ele>183.6</ele>
        <time>2024-04-16T05:17:36Z</time>
      </trkpt>
      <trkpt lat="50.06532" lon="4.19552">
        <ele>183.6</ele>
        <time>2024-04-16T05:17:37Z</time>
      </trkpt>
      <trkpt lat="50.06539" lon="4.19552">
        <ele>183.8</ele>
        <time>2024-04-16T05:17:38Z</time>
      </trkpt>
      <trkpt lat="50.06546" lon="4.19552">
        <ele>183.8</ele>
        <time>2024-04-16T05:17:39Z</time>
      </trkpt>
      <trkpt lat="50.06554" lon="4.19551">
        <ele>183.8</ele>
        <time>2024-04-16T05:17:40Z</time>
      </trkpt>
      <trkpt lat="50.06561" lon="4.19551">
        <ele>183.8</ele>
        <time>2024-04-16T05:17:41Z</time>
      </trkpt>
      <trkpt lat="50.06568" lon="4.19551">
        <ele>183.8</ele>
        <time>2024-04-16T05:17:42Z</time>
      </trkpt>
      <trkpt lat="50.06576" lon="4.19551">
        <ele>183.8</ele>
        <time>2024-04-16T05:17:43Z</time>
      </trkpt>
      <trkpt lat="50.06583" lon="4.19551">
        <ele>183.8</ele>
        <time>2024-04-16T05:17:44Z</time>
      </trkpt>
      <trkpt lat="50.0659" lon="4.19551">
        <ele>183.8</ele>
        <time>2024-04-16T05:17:45Z</time>
      </trkpt>
      <trkpt lat="50.06597" lon="4.1955">
        <ele>183.8</ele>
        <time>2024-04-16T05:17:46Z</time>
      </trkpt>
      <trkpt lat="50.06605" lon="4.1955">
        <ele>183.6</ele>
        <time>2024-04-16T05:17:47Z</time>
      </trkpt>
      <trkpt lat="50.06612" lon="4.19549">
        <ele>183.6</ele>
        <time>2024-04-16T05:17:48Z</time>
      </trkpt>
      <trkpt lat="50.06619" lon="4.19549">
        <ele>183.4</ele>
        <time>2024-04-16T05:17:49Z</time>
      </trkpt>
      <trkpt lat="50.06626" lon="4.19549">
        <ele>183</ele>
        <time>2024-04-16T05:17:50Z</time>
      </trkpt>
      <trkpt lat="50.06634" lon="4.19549">
        <ele>182.8</ele>
        <time>2024-04-16T05:17:51Z</time>
      </trkpt>
      <trkpt lat="50.06641" lon="4.19549">
        <ele>182.6</ele>
        <time>2024-04-16T05:17:52Z</time>
      </trkpt>
      <trkpt lat="50.06648" lon="4.19548">
        <ele>182.8</ele>
        <time>2024-04-16T05:17:53Z</time>
      </trkpt>
      <trkpt lat="50.06655" lon="4.19548">
        <ele>182.8</ele>
        <time>2024-04-16T05:17:54Z</time>
      </trkpt>
      <trkpt lat="50.06662" lon="4.19548">
        <ele>182.8</ele>
        <time>2024-04-16T05:17:55Z</time>
      </trkpt>
      <trkpt lat="50.06669" lon="4.19547">
        <ele>182.8</ele>
        <time>2024-04-16T05:17:56Z</time>
      </trkpt>
      <trkpt lat="50.06676" lon="4.19547">
        <ele>182.6</ele>
        <time>2024-04-16T05:17:57Z</time>
      </trkpt>
      <trkpt lat="50.06683" lon="4.19547">
        <ele>182.8</ele>
        <time>2024-04-16T05:17:58Z</time>
      </trkpt>
      <trkpt lat="50.0669" lon="4.19547">
        <ele>182.6</ele>
        <time>2024-04-16T05:17:59Z</time>
      </trkpt>
      <trkpt lat="50.06697" lon="4.19547">
        <ele>182.8</ele>
        <time>2024-04-16T05:18:00Z</time>
      </trkpt>
      <trkpt lat="50.06704" lon="4.19548">
        <ele>182.6</ele>
        <time>2024-04-16T05:18:01Z</time>
      </trkpt>
      <trkpt lat="50.06711" lon="4.19549">
        <ele>182.8</ele>
        <time>2024-04-16T05:18:02Z</time>
      </trkpt>
      <trkpt lat="50.06718" lon="4.1955">
        <ele>182.6</ele>
        <time>2024-04-16T05:18:03Z</time>
      </trkpt>
      <trkpt lat="50.06725" lon="4.19551">
        <ele>182.8</ele>
        <time>2024-04-16T05:18:04Z</time>
      </trkpt>
      <trkpt lat="50.06732" lon="4.19553">
        <ele>183</ele>
        <time>2024-04-16T05:18:05Z</time>
      </trkpt>
      <trkpt lat="50.06738" lon="4.19554">
        <ele>183</ele>
        <time>2024-04-16T05:18:06Z</time>
      </trkpt>
      <trkpt lat="50.06745" lon="4.19556">
        <ele>183</ele>
        <time>2024-04-16T05:18:07Z</time>
      </trkpt>
      <trkpt lat="50.06752" lon="4.19558">
        <ele>183.2</ele>
        <time>2024-04-16T05:18:08Z</time>
      </trkpt>
      <trkpt lat="50.06759" lon="4.1956">
        <ele>183.2</ele>
        <time>2024-04-16T05:18:09Z</time>
      </trkpt>
      <trkpt lat="50.06766" lon="4.19562">
        <ele>183.2</ele>
        <time>2024-04-16T05:18:10Z</time>
      </trkpt>
      <trkpt lat="50.06772" lon="4.19564">
        <ele>183.2</ele>
        <time>2024-04-16T05:18:11Z</time>
      </trkpt>
      <trkpt lat="50.06779" lon="4.19566">
        <ele>183.6</ele>
        <time>2024-04-16T05:18:12Z</time>
      </trkpt>
      <trkpt lat="50.06786" lon="4.19569">
        <ele>183.8</ele>
        <time>2024-04-16T05:18:13Z</time>
      </trkpt>
      <trkpt lat="50.06799" lon="4.19573">
        <ele>184.2</ele>
        <time>2024-04-16T05:18:14Z</time>
      </trkpt>
      <trkpt lat="50.06799" lon="4.19573">
        <ele>184.4</ele>
        <time>2024-04-16T05:18:15Z</time>
      </trkpt>
      <trkpt lat="50.06806" lon="4.19576">
        <ele>184.6</ele>
        <time>2024-04-16T05:18:16Z</time>
      </trkpt>
      <trkpt lat="50.06813" lon="4.19579">
        <ele>184.8</ele>
        <time>2024-04-16T05:18:17Z</time>
      </trkpt>
      <trkpt lat="50.0682" lon="4.19581">
        <ele>185</ele>
        <time>2024-04-16T05:18:18Z</time>
      </trkpt>
      <trkpt lat="50.06827" lon="4.19584">
        <ele>185</ele>
        <time>2024-04-16T05:18:19Z</time>
      </trkpt>
      <trkpt lat="50.06834" lon="4.19587">
        <ele>185</ele>
        <time>2024-04-16T05:18:20Z</time>
      </trkpt>
      <trkpt lat="50.06841" lon="4.1959">
        <ele>185</ele>
        <time>2024-04-16T05:18:21Z</time>
      </trkpt>
      <trkpt lat="50.06848" lon="4.19592">
        <ele>185</ele>
        <time>2024-04-16T05:18:22Z</time>
      </trkpt>
      <trkpt lat="50.06856" lon="4.19595">
        <ele>185.2</ele>
        <time>2024-04-16T05:18:23Z</time>
      </trkpt>
      <trkpt lat="50.06863" lon="4.19597">
        <ele>185.2</ele>
        <time>2024-04-16T05:18:24Z</time>
      </trkpt>
      <trkpt lat="50.06871" lon="4.196">
        <ele>185.2</ele>
        <time>2024-04-16T05:18:25Z</time>
      </trkpt>
      <trkpt lat="50.06878" lon="4.19603">
        <ele>185.2</ele>
        <time>2024-04-16T05:18:26Z</time>
      </trkpt>
      <trkpt lat="50.06886" lon="4.19605">
        <ele>185</ele>
        <time>2024-04-16T05:18:27Z</time>
      </trkpt>
      <trkpt lat="50.06893" lon="4.19608">
        <ele>185.2</ele>
        <time>2024-04-16T05:18:28Z</time>
      </trkpt>
      <trkpt lat="50.06901" lon="4.1961">
        <ele>185.2</ele>
        <time>2024-04-16T05:18:29Z</time>
      </trkpt>
      <trkpt lat="50.06909" lon="4.19611">
        <ele>185.2</ele>
        <time>2024-04-16T05:18:30Z</time>
      </trkpt>
      <trkpt lat="50.06917" lon="4.19612">
        <ele>185.2</ele>
        <time>2024-04-16T05:18:31Z</time>
      </trkpt>
      <trkpt lat="50.06925" lon="4.19612">
        <ele>184.8</ele>
        <time>2024-04-16T05:18:32Z</time>
      </trkpt>
      <trkpt lat="50.06941" lon="4.19612">
        <ele>184.4</ele>
        <time>2024-04-16T05:18:33Z</time>
      </trkpt>
      <trkpt lat="50.06941" lon="4.19612">
        <ele>184.2</ele>
        <time>2024-04-16T05:18:34Z</time>
      </trkpt>
      <trkpt lat="50.06948" lon="4.19611">
        <ele>183.8</ele>
        <time>2024-04-16T05:18:35Z</time>
      </trkpt>
      <trkpt lat="50.06956" lon="4.1961">
        <ele>183.6</ele>
        <time>2024-04-16T05:18:36Z</time>
      </trkpt>
      <trkpt lat="50.06964" lon="4.19609">
        <ele>183.4</ele>
        <time>2024-04-16T05:18:37Z</time>
      </trkpt>
      <trkpt lat="50.06971" lon="4.19608">
        <ele>183.2</ele>
        <time>2024-04-16T05:18:38Z</time>
      </trkpt>
      <trkpt lat="50.06979" lon="4.19607">
        <ele>183.2</ele>
        <time>2024-04-16T05:18:39Z</time>
      </trkpt>
      <trkpt lat="50.06987" lon="4.19606">
        <ele>183.2</ele>
        <time>2024-04-16T05:18:40Z</time>
      </trkpt>
      <trkpt lat="50.06994" lon="4.19605">
        <ele>183</ele>
        <time>2024-04-16T05:18:41Z</time>
      </trkpt>
      <trkpt lat="50.07002" lon="4.19604">
        <ele>183</ele>
        <time>2024-04-16T05:18:42Z</time>
      </trkpt>
      <trkpt lat="50.07009" lon="4.19602">
        <ele>182.8</ele>
        <time>2024-04-16T05:18:43Z</time>
      </trkpt>
      <trkpt lat="50.07016" lon="4.19601">
        <ele>183</ele>
        <time>2024-04-16T05:18:44Z</time>
      </trkpt>
      <trkpt lat="50.07024" lon="4.196">
        <ele>182.8</ele>
        <time>2024-04-16T05:18:45Z</time>
      </trkpt>
      <trkpt lat="50.07031" lon="4.19599">
        <ele>182.8</ele>
        <time>2024-04-16T05:18:46Z</time>
      </trkpt>
      <trkpt lat="50.07039" lon="4.19598">
        <ele>183</ele>
        <time>2024-04-16T05:18:47Z</time>
      </trkpt>
      <trkpt lat="50.07046" lon="4.19596">
        <ele>183</ele>
        <time>2024-04-16T05:18:48Z</time>
      </trkpt>
      <trkpt lat="50.07053" lon="4.19595">
        <ele>183</ele>
        <time>2024-04-16T05:18:49Z</time>
      </trkpt>
      <trkpt lat="50.07061" lon="4.19594">
        <ele>183</ele>
        <time>2024-04-16T05:18:50Z</time>
      </trkpt>
      <trkpt lat="50.07068" lon="4.19592">
        <ele>183</ele>
        <time>2024-04-16T05:18:51Z</time>
      </trkpt>
      <trkpt lat="50.07075" lon="4.19591">
        <ele>183</ele>
        <time>2024-04-16T05:18:52Z</time>
      </trkpt>
      <trkpt lat="50.07082" lon="4.19589">
        <ele>183</ele>
        <time>2024-04-16T05:18:53Z</time>
      </trkpt>
      <trkpt lat="50.07089" lon="4.19588">
        <ele>183</ele>
        <time>2024-04-16T05:18:54Z</time>
      </trkpt>
      <trkpt lat="50.07103" lon="4.19586">
        <ele>183</ele>
        <time>2024-04-16T05:18:55Z</time>
      </trkpt>
      <trkpt lat="50.0711" lon="4.19585">
        <ele>182.8</ele>
        <time>2024-04-16T05:18:56Z</time>
      </trkpt>
      <trkpt lat="50.07117" lon="4.19584">
        <ele>182.8</ele>
        <time>2024-04-16T05:18:57Z</time>
      </trkpt>
      <trkpt lat="50.07125" lon="4.19584">
        <ele>182.6</ele>
        <time>2024-04-16T05:18:58Z</time>
      </trkpt>
      <trkpt lat="50.07125" lon="4.19584">
        <ele>182.8</ele>
        <time>2024-04-16T05:18:59Z</time>
      </trkpt>
      <trkpt lat="50.07132" lon="4.19582">
        <ele>182.6</ele>
        <time>2024-04-16T05:19:00Z</time>
      </trkpt>
      <trkpt lat="50.07139" lon="4.19581">
        <ele>182.4</ele>
        <time>2024-04-16T05:19:01Z</time>
      </trkpt>
      <trkpt lat="50.07154" lon="4.1958">
        <ele>182.2</ele>
        <time>2024-04-16T05:19:02Z</time>
      </trkpt>
      <trkpt lat="50.07154" lon="4.1958">
        <ele>181.8</ele>
        <time>2024-04-16T05:19:03Z</time>
      </trkpt>
      <trkpt lat="50.07162" lon="4.19579">
        <ele>182</ele>
        <time>2024-04-16T05:19:04Z</time>
      </trkpt>
      <trkpt lat="50.0717" lon="4.19578">
        <ele>181.8</ele>
        <time>2024-04-16T05:19:05Z</time>
      </trkpt>
      <trkpt lat="50.07178" lon="4.19577">
        <ele>181.8</ele>
        <time>2024-04-16T05:19:06Z</time>
      </trkpt>
      <trkpt lat="50.07193" lon="4.19575">
        <ele>181.8</ele>
        <time>2024-04-16T05:19:07Z</time>
      </trkpt>
      <trkpt lat="50.07201" lon="4.19574">
        <ele>181.8</ele>
        <time>2024-04-16T05:19:08Z</time>
      </trkpt>
      <trkpt lat="50.07209" lon="4.19573">
        <ele>181.8</ele>
        <time>2024-04-16T05:19:09Z</time>
      </trkpt>
      <trkpt lat="50.07209" lon="4.19573">
        <ele>181.6</ele>
        <time>2024-04-16T05:19:10Z</time>
      </trkpt>
      <trkpt lat="50.07217" lon="4.19572">
        <ele>181.6</ele>
        <time>2024-04-16T05:19:11Z</time>
      </trkpt>
      <trkpt lat="50.07225" lon="4.19571">
        <ele>181.6</ele>
        <time>2024-04-16T05:19:12Z</time>
      </trkpt>
      <trkpt lat="50.07233" lon="4.1957">
        <ele>181.6</ele>
        <time>2024-04-16T05:19:13Z</time>
      </trkpt>
      <trkpt lat="50.0724" lon="4.1957">
        <ele>181.6</ele>
        <time>2024-04-16T05:19:14Z</time>
      </trkpt>
      <trkpt lat="50.07248" lon="4.19569">
        <ele>181.6</ele>
        <time>2024-04-16T05:19:15Z</time>
      </trkpt>
      <trkpt lat="50.07256" lon="4.19568">
        <ele>181.4</ele>
        <time>2024-04-16T05:19:16Z</time>
      </trkpt>
      <trkpt lat="50.07264" lon="4.19567">
        <ele>181.4</ele>
        <time>2024-04-16T05:19:17Z</time>
      </trkpt>
      <trkpt lat="50.07272" lon="4.19566">
        <ele>181.4</ele>
        <time>2024-04-16T05:19:18Z</time>
      </trkpt>
      <trkpt lat="50.07279" lon="4.19565">
        <ele>181.6</ele>
        <time>2024-04-16T05:19:19Z</time>
      </trkpt>
      <trkpt lat="50.07287" lon="4.19565">
        <ele>181.4</ele>
        <time>2024-04-16T05:19:20Z</time>
      </trkpt>
      <trkpt lat="50.07295" lon="4.19564">
        <ele>181.4</ele>
        <time>2024-04-16T05:19:21Z</time>
      </trkpt>
      <trkpt lat="50.07303" lon="4.19563">
        <ele>181.4</ele>
        <time>2024-04-16T05:19:22Z</time>
      </trkpt>
      <trkpt lat="50.07311" lon="4.19562">
        <ele>181.4</ele>
        <time>2024-04-16T05:19:23Z</time>
      </trkpt>
      <trkpt lat="50.07319" lon="4.19562">
        <ele>181</ele>
        <time>2024-04-16T05:19:24Z</time>
      </trkpt>
      <trkpt lat="50.07327" lon="4.19561">
        <ele>180.8</ele>
        <time>2024-04-16T05:19:25Z</time>
      </trkpt>
      <trkpt lat="50.07334" lon="4.1956">
        <ele>180.6</ele>
        <time>2024-04-16T05:19:26Z</time>
      </trkpt>
      <trkpt lat="50.07342" lon="4.1956">
        <ele>180.4</ele>
        <time>2024-04-16T05:19:27Z</time>
      </trkpt>
      <trkpt lat="50.0735" lon="4.19559">
        <ele>180.2</ele>
        <time>2024-04-16T05:19:28Z</time>
      </trkpt>
      <trkpt lat="50.07358" lon="4.19559">
        <ele>180.2</ele>
        <time>2024-04-16T05:19:29Z</time>
      </trkpt>
      <trkpt lat="50.07366" lon="4.19558">
        <ele>179.8</ele>
        <time>2024-04-16T05:19:30Z</time>
      </trkpt>
      <trkpt lat="50.07374" lon="4.19558">
        <ele>179.8</ele>
        <time>2024-04-16T05:19:31Z</time>
      </trkpt>
      <trkpt lat="50.07382" lon="4.19557">
        <ele>179.4</ele>
        <time>2024-04-16T05:19:32Z</time>
      </trkpt>
      <trkpt lat="50.0739" lon="4.19557">
        <ele>179.2</ele>
        <time>2024-04-16T05:19:33Z</time>
      </trkpt>
      <trkpt lat="50.07397" lon="4.19558">
        <ele>179.2</ele>
        <time>2024-04-16T05:19:34Z</time>
      </trkpt>
      <trkpt lat="50.07405" lon="4.19558">
        <ele>179.2</ele>
        <time>2024-04-16T05:19:35Z</time>
      </trkpt>
      <trkpt lat="50.07413" lon="4.19559">
        <ele>179</ele>
        <time>2024-04-16T05:19:36Z</time>
      </trkpt>
      <trkpt lat="50.07421" lon="4.1956">
        <ele>178.6</ele>
        <time>2024-04-16T05:19:37Z</time>
      </trkpt>
      <trkpt lat="50.07429" lon="4.19561">
        <ele>178.6</ele>
        <time>2024-04-16T05:19:38Z</time>
      </trkpt>
      <trkpt lat="50.07437" lon="4.19562">
        <ele>178</ele>
        <time>2024-04-16T05:19:39Z</time>
      </trkpt>
      <trkpt lat="50.07445" lon="4.19564">
        <ele>177.8</ele>
        <time>2024-04-16T05:19:40Z</time>
      </trkpt>
      <trkpt lat="50.07462" lon="4.19566">
        <ele>177.2</ele>
        <time>2024-04-16T05:19:41Z</time>
      </trkpt>
      <trkpt lat="50.07471" lon="4.19567">
        <ele>177.2</ele>
        <time>2024-04-16T05:19:42Z</time>
      </trkpt>
      <trkpt lat="50.07479" lon="4.19568">
        <ele>176.8</ele>
        <time>2024-04-16T05:19:43Z</time>
      </trkpt>
      <trkpt lat="50.07488" lon="4.19569">
        <ele>176.6</ele>
        <time>2024-04-16T05:19:44Z</time>
      </trkpt>
      <trkpt lat="50.07488" lon="4.19569">
        <ele>176.4</ele>
        <time>2024-04-16T05:19:45Z</time>
      </trkpt>
      <trkpt lat="50.07496" lon="4.19568">
        <ele>176</ele>
        <time>2024-04-16T05:19:46Z</time>
      </trkpt>
      <trkpt lat="50.07504" lon="4.19566">
        <ele>176</ele>
        <time>2024-04-16T05:19:47Z</time>
      </trkpt>
      <trkpt lat="50.07512" lon="4.19563">
        <ele>175.6</ele>
        <time>2024-04-16T05:19:48Z</time>
      </trkpt>
      <trkpt lat="50.07519" lon="4.19557">
        <ele>175.6</ele>
        <time>2024-04-16T05:19:49Z</time>
      </trkpt>
      <trkpt lat="50.07526" lon="4.19549">
        <ele>175.6</ele>
        <time>2024-04-16T05:19:50Z</time>
      </trkpt>
      <trkpt lat="50.07537" lon="4.19529">
        <ele>175.4</ele>
        <time>2024-04-16T05:19:51Z</time>
      </trkpt>
      <trkpt lat="50.07537" lon="4.19529">
        <ele>175</ele>
        <time>2024-04-16T05:19:52Z</time>
      </trkpt>
      <trkpt lat="50.07545" lon="4.19508">
        <ele>174.8</ele>
        <time>2024-04-16T05:19:53Z</time>
      </trkpt>
      <trkpt lat="50.07549" lon="4.19497">
        <ele>174.6</ele>
        <time>2024-04-16T05:19:54Z</time>
      </trkpt>
      <trkpt lat="50.07553" lon="4.19486">
        <ele>174.4</ele>
        <time>2024-04-16T05:19:55Z</time>
      </trkpt>
      <trkpt lat="50.07553" lon="4.19486">
        <ele>174.2</ele>
        <time>2024-04-16T05:19:56Z</time>
      </trkpt>
      <trkpt lat="50.07557" lon="4.19475">
        <ele>174.2</ele>
        <time>2024-04-16T05:19:57Z</time>
      </trkpt>
      <trkpt lat="50.07564" lon="4.19454">
        <ele>174.4</ele>
        <time>2024-04-16T05:19:58Z</time>
      </trkpt>
      <trkpt lat="50.07568" lon="4.19444">
        <ele>174.4</ele>
        <time>2024-04-16T05:19:59Z</time>
      </trkpt>
      <trkpt lat="50.07572" lon="4.19434">
        <ele>174</ele>
        <time>2024-04-16T05:20:00Z</time>
      </trkpt>
      <trkpt lat="50.07572" lon="4.19434">
        <ele>174</ele>
        <time>2024-04-16T05:20:01Z</time>
      </trkpt>
      <trkpt lat="50.0758" lon="4.19415">
        <ele>174</ele>
        <time>2024-04-16T05:20:02Z</time>
      </trkpt>
      <trkpt lat="50.0758" lon="4.19415">
        <ele>174.2</ele>
        <time>2024-04-16T05:20:03Z</time>
      </trkpt>
      <trkpt lat="50.07585" lon="4.19406">
        <ele>174.2</ele>
        <time>2024-04-16T05:20:04Z</time>
      </trkpt>
      <trkpt lat="50.0759" lon="4.19397">
        <ele>174</ele>
        <time>2024-04-16T05:20:05Z</time>
      </trkpt>
      <trkpt lat="50.07595" lon="4.1939">
        <ele>174</ele>
        <time>2024-04-16T05:20:06Z</time>
      </trkpt>
      <trkpt lat="50.07601" lon="4.19383">
        <ele>174.2</ele>
        <time>2024-04-16T05:20:07Z</time>
      </trkpt>
      <trkpt lat="50.07613" lon="4.19372">
        <ele>174</ele>
        <time>2024-04-16T05:20:08Z</time>
      </trkpt>
      <trkpt lat="50.07613" lon="4.19372">
        <ele>174.2</ele>
        <time>2024-04-16T05:20:09Z</time>
      </trkpt>
      <trkpt lat="50.07619" lon="4.19367">
        <ele>174.2</ele>
        <time>2024-04-16T05:20:10Z</time>
      </trkpt>
      <trkpt lat="50.07625" lon="4.19362">
        <ele>174.2</ele>
        <time>2024-04-16T05:20:11Z</time>
      </trkpt>
      <trkpt lat="50.07631" lon="4.19358">
        <ele>174.4</ele>
        <time>2024-04-16T05:20:12Z</time>
      </trkpt>
      <trkpt lat="50.07643" lon="4.19348">
        <ele>174.4</ele>
        <time>2024-04-16T05:20:13Z</time>
      </trkpt>
      <trkpt lat="50.07648" lon="4.19343">
        <ele>174.4</ele>
        <time>2024-04-16T05:20:14Z</time>
      </trkpt>
      <trkpt lat="50.07654" lon="4.19339">
        <ele>174.6</ele>
        <time>2024-04-16T05:20:15Z</time>
      </trkpt>
      <trkpt lat="50.07654" lon="4.19339">
        <ele>175</ele>
        <time>2024-04-16T05:20:16Z</time>
      </trkpt>
      <trkpt lat="50.07665" lon="4.19329">
        <ele>175.2</ele>
        <time>2024-04-16T05:20:17Z</time>
      </trkpt>
      <trkpt lat="50.07665" lon="4.19329">
        <ele>175.4</ele>
        <time>2024-04-16T05:20:18Z</time>
      </trkpt>
      <trkpt lat="50.07671" lon="4.19325">
        <ele>175.4</ele>
        <time>2024-04-16T05:20:19Z</time>
      </trkpt>
      <trkpt lat="50.07676" lon="4.1932">
        <ele>175.8</ele>
        <time>2024-04-16T05:20:20Z</time>
      </trkpt>
      <trkpt lat="50.07682" lon="4.19315">
        <ele>176.2</ele>
        <time>2024-04-16T05:20:21Z</time>
      </trkpt>
      <trkpt lat="50.07687" lon="4.19311">
        <ele>176.4</ele>
        <time>2024-04-16T05:20:22Z</time>
      </trkpt>
      <trkpt lat="50.07693" lon="4.19307">
        <ele>176.8</ele>
        <time>2024-04-16T05:20:23Z</time>
      </trkpt>
      <trkpt lat="50.07699" lon="4.19304">
        <ele>177.2</ele>
        <time>2024-04-16T05:20:24Z</time>
      </trkpt>
      <trkpt lat="50.07704" lon="4.193">
        <ele>177.4</ele>
        <time>2024-04-16T05:20:25Z</time>
      </trkpt>
      <trkpt lat="50.0771" lon="4.19297">
        <ele>177.6</ele>
        <time>2024-04-16T05:20:26Z</time>
      </trkpt>
      <trkpt lat="50.07715" lon="4.19294">
        <ele>178.2</ele>
        <time>2024-04-16T05:20:27Z</time>
      </trkpt>
      <trkpt lat="50.07721" lon="4.19291">
        <ele>178.4</ele>
        <time>2024-04-16T05:20:28Z</time>
      </trkpt>
      <trkpt lat="50.07727" lon="4.19288">
        <ele>178.6</ele>
        <time>2024-04-16T05:20:29Z</time>
      </trkpt>
      <trkpt lat="50.07732" lon="4.19284">
        <ele>178.8</ele>
        <time>2024-04-16T05:20:30Z</time>
      </trkpt>
      <trkpt lat="50.07738" lon="4.19281">
        <ele>179.2</ele>
        <time>2024-04-16T05:20:31Z</time>
      </trkpt>
      <trkpt lat="50.07743" lon="4.19277">
        <ele>179.4</ele>
        <time>2024-04-16T05:20:32Z</time>
      </trkpt>
      <trkpt lat="50.0775" lon="4.19274">
        <ele>180</ele>
        <time>2024-04-16T05:20:33Z</time>
      </trkpt>
      <trkpt lat="50.07756" lon="4.19269">
        <ele>180.2</ele>
        <time>2024-04-16T05:20:34Z</time>
      </trkpt>
      <trkpt lat="50.07762" lon="4.19265">
        <ele>180.4</ele>
        <time>2024-04-16T05:20:35Z</time>
      </trkpt>
      <trkpt lat="50.07768" lon="4.1926">
        <ele>180.4</ele>
        <time>2024-04-16T05:20:36Z</time>
      </trkpt>
      <trkpt lat="50.07775" lon="4.19256">
        <ele>180.6</ele>
        <time>2024-04-16T05:20:37Z</time>
      </trkpt>
      <trkpt lat="50.07787" lon="4.19246">
        <ele>180.8</ele>
        <time>2024-04-16T05:20:38Z</time>
      </trkpt>
      <trkpt lat="50.07787" lon="4.19246">
        <ele>180.6</ele>
        <time>2024-04-16T05:20:39Z</time>
      </trkpt>
      <trkpt lat="50.07794" lon="4.19241">
        <ele>180.6</ele>
        <time>2024-04-16T05:20:40Z</time>
      </trkpt>
      <trkpt lat="50.078" lon="4.19236">
        <ele>180.8</ele>
        <time>2024-04-16T05:20:41Z</time>
      </trkpt>
      <trkpt lat="50.07806" lon="4.19231">
        <ele>180.8</ele>
        <time>2024-04-16T05:20:42Z</time>
      </trkpt>
      <trkpt lat="50.07813" lon="4.19226">
        <ele>180.8</ele>
        <time>2024-04-16T05:20:43Z</time>
      </trkpt>
      <trkpt lat="50.07819" lon="4.19221">
        <ele>180.8</ele>
        <time>2024-04-16T05:20:44Z</time>
      </trkpt>
      <trkpt lat="50.07825" lon="4.19216">
        <ele>180.8</ele>
        <time>2024-04-16T05:20:45Z</time>
      </trkpt>
      <trkpt lat="50.07831" lon="4.19211">
        <ele>180.8</ele>
        <time>2024-04-16T05:20:46Z</time>
      </trkpt>
      <trkpt lat="50.07837" lon="4.19206">
        <ele>180.8</ele>
        <time>2024-04-16T05:20:47Z</time>
      </trkpt>
      <trkpt lat="50.07844" lon="4.19201">
        <ele>180.6</ele>
        <time>2024-04-16T05:20:48Z</time>
      </trkpt>
      <trkpt lat="50.0785" lon="4.19196">
        <ele>180.6</ele>
        <time>2024-04-16T05:20:49Z</time>
      </trkpt>
      <trkpt lat="50.07856" lon="4.19192">
        <ele>180.4</ele>
        <time>2024-04-16T05:20:50Z</time>
      </trkpt>
      <trkpt lat="50.07863" lon="4.19187">
        <ele>180.6</ele>
        <time>2024-04-16T05:20:51Z</time>
      </trkpt>
      <trkpt lat="50.07869" lon="4.19183">
        <ele>180.6</ele>
        <time>2024-04-16T05:20:52Z</time>
      </trkpt>
      <trkpt lat="50.07876" lon="4.19179">
        <ele>180.4</ele>
        <time>2024-04-16T05:20:53Z</time>
      </trkpt>
      <trkpt lat="50.07883" lon="4.19175">
        <ele>180.2</ele>
        <time>2024-04-16T05:20:54Z</time>
      </trkpt>
      <trkpt lat="50.0789" lon="4.1917">
        <ele>180</ele>
        <time>2024-04-16T05:20:55Z</time>
      </trkpt>
      <trkpt lat="50.07897" lon="4.19166">
        <ele>180</ele>
        <time>2024-04-16T05:20:56Z</time>
      </trkpt>
      <trkpt lat="50.07904" lon="4.19161">
        <ele>179.8</ele>
        <time>2024-04-16T05:20:57Z</time>
      </trkpt>
      <trkpt lat="50.07911" lon="4.19157">
        <ele>179.4</ele>
        <time>2024-04-16T05:20:58Z</time>
      </trkpt>
      <trkpt lat="50.07918" lon="4.19152">
        <ele>179.4</ele>
        <time>2024-04-16T05:20:59Z</time>
      </trkpt>
      <trkpt lat="50.07926" lon="4.19147">
        <ele>179.4</ele>
        <time>2024-04-16T05:21:00Z</time>
      </trkpt>
      <trkpt lat="50.07933" lon="4.19142">
        <ele>178.8</ele>
        <time>2024-04-16T05:21:01Z</time>
      </trkpt>
      <trkpt lat="50.07941" lon="4.19137">
        <ele>178.4</ele>
        <time>2024-04-16T05:21:02Z</time>
      </trkpt>
      <trkpt lat="50.07948" lon="4.19132">
        <ele>178.4</ele>
        <time>2024-04-16T05:21:03Z</time>
      </trkpt>
      <trkpt lat="50.07956" lon="4.19128">
        <ele>178.4</ele>
        <time>2024-04-16T05:21:04Z</time>
      </trkpt>
      <trkpt lat="50.07963" lon="4.19123">
        <ele>178</ele>
        <time>2024-04-16T05:21:05Z</time>
      </trkpt>
      <trkpt lat="50.07971" lon="4.19119">
        <ele>177.8</ele>
        <time>2024-04-16T05:21:06Z</time>
      </trkpt>
      <trkpt lat="50.07978" lon="4.19115">
        <ele>177.6</ele>
        <time>2024-04-16T05:21:07Z</time>
      </trkpt>
      <trkpt lat="50.07986" lon="4.19112">
        <ele>177.4</ele>
        <time>2024-04-16T05:21:08Z</time>
      </trkpt>
      <trkpt lat="50.07994" lon="4.19109">
        <ele>177.4</ele>
        <time>2024-04-16T05:21:09Z</time>
      </trkpt>
      <trkpt lat="50.08001" lon="4.19107">
        <ele>177.4</ele>
        <time>2024-04-16T05:21:10Z</time>
      </trkpt>
      <trkpt lat="50.08008" lon="4.19104">
        <ele>177.2</ele>
        <time>2024-04-16T05:21:11Z</time>
      </trkpt>
      <trkpt lat="50.08016" lon="4.19102">
        <ele>177.2</ele>
        <time>2024-04-16T05:21:12Z</time>
      </trkpt>
      <trkpt lat="50.08023" lon="4.191">
        <ele>177</ele>
        <time>2024-04-16T05:21:13Z</time>
      </trkpt>
      <trkpt lat="50.0803" lon="4.19098">
        <ele>176.8</ele>
        <time>2024-04-16T05:21:14Z</time>
      </trkpt>
      <trkpt lat="50.08038" lon="4.19096">
        <ele>176.8</ele>
        <time>2024-04-16T05:21:15Z</time>
      </trkpt>
      <trkpt lat="50.08045" lon="4.19095">
        <ele>176.8</ele>
        <time>2024-04-16T05:21:16Z</time>
      </trkpt>
      <trkpt lat="50.08052" lon="4.19095">
        <ele>176.8</ele>
        <time>2024-04-16T05:21:17Z</time>
      </trkpt>
      <trkpt lat="50.0806" lon="4.19094">
        <ele>176.6</ele>
        <time>2024-04-16T05:21:18Z</time>
      </trkpt>
      <trkpt lat="50.08067" lon="4.19094">
        <ele>176.6</ele>
        <time>2024-04-16T05:21:19Z</time>
      </trkpt>
      <trkpt lat="50.08074" lon="4.19093">
        <ele>176.6</ele>
        <time>2024-04-16T05:21:20Z</time>
      </trkpt>
      <trkpt lat="50.08081" lon="4.19093">
        <ele>176.8</ele>
        <time>2024-04-16T05:21:21Z</time>
      </trkpt>
      <trkpt lat="50.08089" lon="4.19092">
        <ele>176.6</ele>
        <time>2024-04-16T05:21:22Z</time>
      </trkpt>
      <trkpt lat="50.08096" lon="4.19091">
        <ele>177</ele>
        <time>2024-04-16T05:21:23Z</time>
      </trkpt>
      <trkpt lat="50.08103" lon="4.19091">
        <ele>177</ele>
        <time>2024-04-16T05:21:24Z</time>
      </trkpt>
      <trkpt lat="50.0811" lon="4.1909">
        <ele>177.2</ele>
        <time>2024-04-16T05:21:25Z</time>
      </trkpt>
      <trkpt lat="50.08118" lon="4.19089">
        <ele>177.2</ele>
        <time>2024-04-16T05:21:26Z</time>
      </trkpt>
      <trkpt lat="50.08125" lon="4.19088">
        <ele>177.2</ele>
        <time>2024-04-16T05:21:27Z</time>
      </trkpt>
      <trkpt lat="50.08132" lon="4.19087">
        <ele>177.2</ele>
        <time>2024-04-16T05:21:28Z</time>
      </trkpt>
      <trkpt lat="50.08139" lon="4.19087">
        <ele>177.4</ele>
        <time>2024-04-16T05:21:29Z</time>
      </trkpt>
      <trkpt lat="50.08146" lon="4.19086">
        <ele>177.4</ele>
        <time>2024-04-16T05:21:30Z</time>
      </trkpt>
      <trkpt lat="50.08153" lon="4.19086">
        <ele>177.6</ele>
        <time>2024-04-16T05:21:31Z</time>
      </trkpt>
      <trkpt lat="50.0816" lon="4.19086">
        <ele>177.6</ele>
        <time>2024-04-16T05:21:32Z</time>
      </trkpt>
      <trkpt lat="50.08167" lon="4.19087">
        <ele>177.6</ele>
        <time>2024-04-16T05:21:33Z</time>
      </trkpt>
      <trkpt lat="50.08174" lon="4.19088">
        <ele>177.6</ele>
        <time>2024-04-16T05:21:34Z</time>
      </trkpt>
      <trkpt lat="50.0818" lon="4.19089">
        <ele>177.6</ele>
        <time>2024-04-16T05:21:35Z</time>
      </trkpt>
      <trkpt lat="50.08187" lon="4.19092">
        <ele>177.6</ele>
        <time>2024-04-16T05:21:36Z</time>
      </trkpt>
      <trkpt lat="50.08193" lon="4.19094">
        <ele>177.8</ele>
        <time>2024-04-16T05:21:37Z</time>
      </trkpt>
      <trkpt lat="50.08199" lon="4.19097">
        <ele>177.6</ele>
        <time>2024-04-16T05:21:38Z</time>
      </trkpt>
      <trkpt lat="50.08205" lon="4.191">
        <ele>177.8</ele>
        <time>2024-04-16T05:21:39Z</time>
      </trkpt>
      <trkpt lat="50.0821" lon="4.19103">
        <ele>177.6</ele>
        <time>2024-04-16T05:21:40Z</time>
      </trkpt>
      <trkpt lat="50.08216" lon="4.19107">
        <ele>177.8</ele>
        <time>2024-04-16T05:21:41Z</time>
      </trkpt>
      <trkpt lat="50.08222" lon="4.1911">
        <ele>177.8</ele>
        <time>2024-04-16T05:21:42Z</time>
      </trkpt>
      <trkpt lat="50.08228" lon="4.19113">
        <ele>178</ele>
        <time>2024-04-16T05:21:43Z</time>
      </trkpt>
      <trkpt lat="50.08234" lon="4.19116">
        <ele>178</ele>
        <time>2024-04-16T05:21:44Z</time>
      </trkpt>
      <trkpt lat="50.08239" lon="4.1912">
        <ele>178.2</ele>
        <time>2024-04-16T05:21:45Z</time>
      </trkpt>
      <trkpt lat="50.08245" lon="4.19123">
        <ele>178.2</ele>
        <time>2024-04-16T05:21:46Z</time>
      </trkpt>
      <trkpt lat="50.08251" lon="4.19126">
        <ele>178.6</ele>
        <time>2024-04-16T05:21:47Z</time>
      </trkpt>
      <trkpt lat="50.08263" lon="4.19134">
        <ele>178.8</ele>
        <time>2024-04-16T05:21:48Z</time>
      </trkpt>
      <trkpt lat="50.08263" lon="4.19134">
        <ele>178.8</ele>
        <time>2024-04-16T05:21:49Z</time>
      </trkpt>
      <trkpt lat="50.08274" lon="4.19141">
        <ele>179.2</ele>
        <time>2024-04-16T05:21:50Z</time>
      </trkpt>
      <trkpt lat="50.08274" lon="4.19141">
        <ele>179.6</ele>
        <time>2024-04-16T05:21:51Z</time>
      </trkpt>
      <trkpt lat="50.0828" lon="4.19146">
        <ele>180</ele>
        <time>2024-04-16T05:21:52Z</time>
      </trkpt>
      <trkpt lat="50.08285" lon="4.1915">
        <ele>180.2</ele>
        <time>2024-04-16T05:21:53Z</time>
      </trkpt>
      <trkpt lat="50.08291" lon="4.19154">
        <ele>180.6</ele>
        <time>2024-04-16T05:21:54Z</time>
      </trkpt>
      <trkpt lat="50.08297" lon="4.19158">
        <ele>181</ele>
        <time>2024-04-16T05:21:55Z</time>
      </trkpt>
      <trkpt lat="50.08302" lon="4.19163">
        <ele>180.8</ele>
        <time>2024-04-16T05:21:56Z</time>
      </trkpt>
      <trkpt lat="50.08308" lon="4.19167">
        <ele>181</ele>
        <time>2024-04-16T05:21:57Z</time>
      </trkpt>
      <trkpt lat="50.08313" lon="4.19171">
        <ele>181.2</ele>
        <time>2024-04-16T05:21:58Z</time>
      </trkpt>
      <trkpt lat="50.08319" lon="4.19174">
        <ele>181.4</ele>
        <time>2024-04-16T05:21:59Z</time>
      </trkpt>
      <trkpt lat="50.08325" lon="4.19178">
        <ele>181.4</ele>
        <time>2024-04-16T05:22:00Z</time>
      </trkpt>
      <trkpt lat="50.0833" lon="4.19181">
        <ele>181.4</ele>
        <time>2024-04-16T05:22:01Z</time>
      </trkpt>
      <trkpt lat="50.08336" lon="4.19183">
        <ele>181.6</ele>
        <time>2024-04-16T05:22:02Z</time>
      </trkpt>
      <trkpt lat="50.08342" lon="4.19185">
        <ele>181.6</ele>
        <time>2024-04-16T05:22:03Z</time>
      </trkpt>
      <trkpt lat="50.08347" lon="4.19188">
        <ele>181.6</ele>
        <time>2024-04-16T05:22:04Z</time>
      </trkpt>
      <trkpt lat="50.08353" lon="4.1919">
        <ele>181.8</ele>
        <time>2024-04-16T05:22:05Z</time>
      </trkpt>
      <trkpt lat="50.08358" lon="4.19192">
        <ele>182</ele>
        <time>2024-04-16T05:22:06Z</time>
      </trkpt>
      <trkpt lat="50.08364" lon="4.19193">
        <ele>181.8</ele>
        <time>2024-04-16T05:22:07Z</time>
      </trkpt>
      <trkpt lat="50.08369" lon="4.19195">
        <ele>181.8</ele>
        <time>2024-04-16T05:22:08Z</time>
      </trkpt>
      <trkpt lat="50.08374" lon="4.19196">
        <ele>182</ele>
        <time>2024-04-16T05:22:09Z</time>
      </trkpt>
      <trkpt lat="50.0838" lon="4.19198">
        <ele>182</ele>
        <time>2024-04-16T05:22:10Z</time>
      </trkpt>
      <trkpt lat="50.08386" lon="4.19199">
        <ele>182.2</ele>
        <time>2024-04-16T05:22:11Z</time>
      </trkpt>
      <trkpt lat="50.08392" lon="4.19201">
        <ele>182.4</ele>
        <time>2024-04-16T05:22:12Z</time>
      </trkpt>
      <trkpt lat="50.08398" lon="4.19202">
        <ele>182.4</ele>
        <time>2024-04-16T05:22:13Z</time>
      </trkpt>
      <trkpt lat="50.08404" lon="4.19203">
        <ele>182.6</ele>
        <time>2024-04-16T05:22:14Z</time>
      </trkpt>
      <trkpt lat="50.0841" lon="4.19205">
        <ele>182.6</ele>
        <time>2024-04-16T05:22:15Z</time>
      </trkpt>
      <trkpt lat="50.08415" lon="4.19207">
        <ele>182.6</ele>
        <time>2024-04-16T05:22:16Z</time>
      </trkpt>
      <trkpt lat="50.08421" lon="4.19209">
        <ele>182.6</ele>
        <time>2024-04-16T05:22:17Z</time>
      </trkpt>
      <trkpt lat="50.08427" lon="4.1921">
        <ele>182.8</ele>
        <time>2024-04-16T05:22:18Z</time>
      </trkpt>
      <trkpt lat="50.08433" lon="4.19211">
        <ele>182.8</ele>
        <time>2024-04-16T05:22:19Z</time>
      </trkpt>
      <trkpt lat="50.08439" lon="4.19213">
        <ele>182.8</ele>
        <time>2024-04-16T05:22:20Z</time>
      </trkpt>
      <trkpt lat="50.08445" lon="4.19215">
        <ele>182.8</ele>
        <time>2024-04-16T05:22:21Z</time>
      </trkpt>
      <trkpt lat="50.08451" lon="4.19217">
        <ele>182.8</ele>
        <time>2024-04-16T05:22:22Z</time>
      </trkpt>
      <trkpt lat="50.08457" lon="4.1922">
        <ele>183</ele>
        <time>2024-04-16T05:22:23Z</time>
      </trkpt>
      <trkpt lat="50.08464" lon="4.19223">
        <ele>183</ele>
        <time>2024-04-16T05:22:24Z</time>
      </trkpt>
      <trkpt lat="50.08471" lon="4.19226">
        <ele>183</ele>
        <time>2024-04-16T05:22:25Z</time>
      </trkpt>
      <trkpt lat="50.08478" lon="4.19229">
        <ele>182.8</ele>
        <time>2024-04-16T05:22:26Z</time>
      </trkpt>
      <trkpt lat="50.08485" lon="4.19233">
        <ele>183</ele>
        <time>2024-04-16T05:22:27Z</time>
      </trkpt>
      <trkpt lat="50.08492" lon="4.19237">
        <ele>183</ele>
        <time>2024-04-16T05:22:28Z</time>
      </trkpt>
      <trkpt lat="50.085" lon="4.19241">
        <ele>183</ele>
        <time>2024-04-16T05:22:29Z</time>
      </trkpt>
      <trkpt lat="50.08507" lon="4.19245">
        <ele>183</ele>
        <time>2024-04-16T05:22:30Z</time>
      </trkpt>
      <trkpt lat="50.08523" lon="4.19253">
        <ele>182.8</ele>
        <time>2024-04-16T05:22:31Z</time>
      </trkpt>
      <trkpt lat="50.08531" lon="4.19257">
        <ele>183</ele>
        <time>2024-04-16T05:22:32Z</time>
      </trkpt>
      <trkpt lat="50.08539" lon="4.19262">
        <ele>183</ele>
        <time>2024-04-16T05:22:33Z</time>
      </trkpt>
      <trkpt lat="50.08548" lon="4.19267">
        <ele>183</ele>
        <time>2024-04-16T05:22:34Z</time>
      </trkpt>
      <trkpt lat="50.08556" lon="4.19272">
        <ele>183</ele>
        <time>2024-04-16T05:22:35Z</time>
      </trkpt>
      <trkpt lat="50.08556" lon="4.19272">
        <ele>182.6</ele>
        <time>2024-04-16T05:22:36Z</time>
      </trkpt>
      <trkpt lat="50.08564" lon="4.19277">
        <ele>182.4</ele>
        <time>2024-04-16T05:22:37Z</time>
      </trkpt>
      <trkpt lat="50.08581" lon="4.19288">
        <ele>182</ele>
        <time>2024-04-16T05:22:38Z</time>
      </trkpt>
      <trkpt lat="50.0859" lon="4.19293">
        <ele>181.6</ele>
        <time>2024-04-16T05:22:39Z</time>
      </trkpt>
      <trkpt lat="50.0859" lon="4.19293">
        <ele>181.2</ele>
        <time>2024-04-16T05:22:40Z</time>
      </trkpt>
      <trkpt lat="50.08608" lon="4.19303">
        <ele>181</ele>
        <time>2024-04-16T05:22:41Z</time>
      </trkpt>
      <trkpt lat="50.08617" lon="4.19307">
        <ele>180.8</ele>
        <time>2024-04-16T05:22:42Z</time>
      </trkpt>
      <trkpt lat="50.08617" lon="4.19307">
        <ele>180.6</ele>
        <time>2024-04-16T05:22:43Z</time>
      </trkpt>
      <trkpt lat="50.08626" lon="4.19311">
        <ele>180.4</ele>
        <time>2024-04-16T05:22:44Z</time>
      </trkpt>
      <trkpt lat="50.08635" lon="4.19315">
        <ele>180</ele>
        <time>2024-04-16T05:22:45Z</time>
      </trkpt>
      <trkpt lat="50.08644" lon="4.19318">
        <ele>179.4</ele>
        <time>2024-04-16T05:22:46Z</time>
      </trkpt>
      <trkpt lat="50.08661" lon="4.19324">
        <ele>179</ele>
        <time>2024-04-16T05:22:47Z</time>
      </trkpt>
      <trkpt lat="50.0867" lon="4.19327">
        <ele>178.2</ele>
        <time>2024-04-16T05:22:48Z</time>
      </trkpt>
      <trkpt lat="50.08679" lon="4.19329">
        <ele>177.8</ele>
        <time>2024-04-16T05:22:49Z</time>
      </trkpt>
      <trkpt lat="50.08687" lon="4.19332">
        <ele>177.4</ele>
        <time>2024-04-16T05:22:50Z</time>
      </trkpt>
      <trkpt lat="50.08696" lon="4.19334">
        <ele>176.8</ele>
        <time>2024-04-16T05:22:51Z</time>
      </trkpt>
      <trkpt lat="50.08696" lon="4.19334">
        <ele>176.8</ele>
        <time>2024-04-16T05:22:52Z</time>
      </trkpt>
      <trkpt lat="50.08705" lon="4.19336">
        <ele>176.4</ele>
        <time>2024-04-16T05:22:53Z</time>
      </trkpt>
      <trkpt lat="50.08715" lon="4.19337">
        <ele>176.2</ele>
        <time>2024-04-16T05:22:54Z</time>
      </trkpt>
      <trkpt lat="50.08724" lon="4.19337">
        <ele>175.8</ele>
        <time>2024-04-16T05:22:55Z</time>
      </trkpt>
      <trkpt lat="50.08733" lon="4.19337">
        <ele>175.6</ele>
        <time>2024-04-16T05:22:56Z</time>
      </trkpt>
      <trkpt lat="50.08741" lon="4.19336">
        <ele>175.6</ele>
        <time>2024-04-16T05:22:57Z</time>
      </trkpt>
      <trkpt lat="50.0875" lon="4.19336">
        <ele>175.6</ele>
        <time>2024-04-16T05:22:58Z</time>
      </trkpt>
      <trkpt lat="50.08759" lon="4.19335">
        <ele>175.6</ele>
        <time>2024-04-16T05:22:59Z</time>
      </trkpt>
      <trkpt lat="50.08767" lon="4.19334">
        <ele>175.4</ele>
        <time>2024-04-16T05:23:00Z</time>
      </trkpt>
      <trkpt lat="50.08776" lon="4.19333">
        <ele>175.2</ele>
        <time>2024-04-16T05:23:01Z</time>
      </trkpt>
      <trkpt lat="50.08784" lon="4.19333">
        <ele>175</ele>
        <time>2024-04-16T05:23:02Z</time>
      </trkpt>
      <trkpt lat="50.08792" lon="4.19332">
        <ele>174.8</ele>
        <time>2024-04-16T05:23:03Z</time>
      </trkpt>
      <trkpt lat="50.088" lon="4.19331">
        <ele>174.6</ele>
        <time>2024-04-16T05:23:04Z</time>
      </trkpt>
      <trkpt lat="50.08808" lon="4.1933">
        <ele>174.4</ele>
        <time>2024-04-16T05:23:05Z</time>
      </trkpt>
      <trkpt lat="50.08815" lon="4.19329">
        <ele>174.2</ele>
        <time>2024-04-16T05:23:06Z</time>
      </trkpt>
      <trkpt lat="50.08823" lon="4.19328">
        <ele>174.2</ele>
        <time>2024-04-16T05:23:07Z</time>
      </trkpt>
      <trkpt lat="50.08831" lon="4.19327">
        <ele>174.2</ele>
        <time>2024-04-16T05:23:08Z</time>
      </trkpt>
      <trkpt lat="50.08838" lon="4.19326">
        <ele>174</ele>
        <time>2024-04-16T05:23:09Z</time>
      </trkpt>
      <trkpt lat="50.08846" lon="4.19325">
        <ele>174</ele>
        <time>2024-04-16T05:23:10Z</time>
      </trkpt>
      <trkpt lat="50.08853" lon="4.19324">
        <ele>174</ele>
        <time>2024-04-16T05:23:11Z</time>
      </trkpt>
      <trkpt lat="50.0886" lon="4.19322">
        <ele>174</ele>
        <time>2024-04-16T05:23:12Z</time>
      </trkpt>
      <trkpt lat="50.08868" lon="4.19321">
        <ele>174</ele>
        <time>2024-04-16T05:23:13Z</time>
      </trkpt>
      <trkpt lat="50.08875" lon="4.1932">
        <ele>174</ele>
        <time>2024-04-16T05:23:14Z</time>
      </trkpt>
      <trkpt lat="50.08882" lon="4.1932">
        <ele>174</ele>
        <time>2024-04-16T05:23:15Z</time>
      </trkpt>
      <trkpt lat="50.08889" lon="4.19319">
        <ele>174</ele>
        <time>2024-04-16T05:23:16Z</time>
      </trkpt>
      <trkpt lat="50.08896" lon="4.1932">
        <ele>174</ele>
        <time>2024-04-16T05:23:17Z</time>
      </trkpt>
      <trkpt lat="50.08903" lon="4.1932">
        <ele>174</ele>
        <time>2024-04-16T05:23:18Z</time>
      </trkpt>
      <trkpt lat="50.0891" lon="4.19322">
        <ele>174</ele>
        <time>2024-04-16T05:23:19Z</time>
      </trkpt>
      <trkpt lat="50.08917" lon="4.19324">
        <ele>174</ele>
        <time>2024-04-16T05:23:20Z</time>
      </trkpt>
      <trkpt lat="50.08924" lon="4.19327">
        <ele>174</ele>
        <time>2024-04-16T05:23:21Z</time>
      </trkpt>
      <trkpt lat="50.08931" lon="4.1933">
        <ele>174</ele>
        <time>2024-04-16T05:23:22Z</time>
      </trkpt>
      <trkpt lat="50.08937" lon="4.19333">
        <ele>173.8</ele>
        <time>2024-04-16T05:23:23Z</time>
      </trkpt>
      <trkpt lat="50.08944" lon="4.19335">
        <ele>173.8</ele>
        <time>2024-04-16T05:23:24Z</time>
      </trkpt>
      <trkpt lat="50.08951" lon="4.19339">
        <ele>174</ele>
        <time>2024-04-16T05:23:25Z</time>
      </trkpt>
      <trkpt lat="50.08957" lon="4.19342">
        <ele>173.8</ele>
        <time>2024-04-16T05:23:26Z</time>
      </trkpt>
      <trkpt lat="50.08963" lon="4.19344">
        <ele>173.8</ele>
        <time>2024-04-16T05:23:27Z</time>
      </trkpt>
      <trkpt lat="50.0897" lon="4.19347">
        <ele>174</ele>
        <time>2024-04-16T05:23:28Z</time>
      </trkpt>
      <trkpt lat="50.08976" lon="4.19349">
        <ele>173.8</ele>
        <time>2024-04-16T05:23:29Z</time>
      </trkpt>
      <trkpt lat="50.08983" lon="4.19352">
        <ele>174</ele>
        <time>2024-04-16T05:23:30Z</time>
      </trkpt>
      <trkpt lat="50.08989" lon="4.19355">
        <ele>173.8</ele>
        <time>2024-04-16T05:23:31Z</time>
      </trkpt>
      <trkpt lat="50.08995" lon="4.19357">
        <ele>174</ele>
        <time>2024-04-16T05:23:32Z</time>
      </trkpt>
      <trkpt lat="50.09002" lon="4.19359">
        <ele>174</ele>
        <time>2024-04-16T05:23:33Z</time>
      </trkpt>
      <trkpt lat="50.09008" lon="4.19361">
        <ele>174.2</ele>
        <time>2024-04-16T05:23:34Z</time>
      </trkpt>
      <trkpt lat="50.09015" lon="4.19362">
        <ele>174.2</ele>
        <time>2024-04-16T05:23:35Z</time>
      </trkpt>
      <trkpt lat="50.09021" lon="4.19363">
        <ele>174.2</ele>
        <time>2024-04-16T05:23:36Z</time>
      </trkpt>
      <trkpt lat="50.09028" lon="4.19364">
        <ele>174.6</ele>
        <time>2024-04-16T05:23:37Z</time>
      </trkpt>
      <trkpt lat="50.09035" lon="4.19364">
        <ele>174.8</ele>
        <time>2024-04-16T05:23:38Z</time>
      </trkpt>
      <trkpt lat="50.09041" lon="4.19364">
        <ele>175</ele>
        <time>2024-04-16T05:23:39Z</time>
      </trkpt>
      <trkpt lat="50.09048" lon="4.19365">
        <ele>175</ele>
        <time>2024-04-16T05:23:40Z</time>
      </trkpt>
      <trkpt lat="50.09055" lon="4.19365">
        <ele>175.2</ele>
        <time>2024-04-16T05:23:41Z</time>
      </trkpt>
      <trkpt lat="50.09061" lon="4.19365">
        <ele>175.4</ele>
        <time>2024-04-16T05:23:42Z</time>
      </trkpt>
      <trkpt lat="50.09068" lon="4.19365">
        <ele>175.8</ele>
        <time>2024-04-16T05:23:43Z</time>
      </trkpt>
      <trkpt lat="50.09074" lon="4.19364">
        <ele>175.8</ele>
        <time>2024-04-16T05:23:44Z</time>
      </trkpt>
      <trkpt lat="50.09081" lon="4.19364">
        <ele>176</ele>
        <time>2024-04-16T05:23:45Z</time>
      </trkpt>
      <trkpt lat="50.09087" lon="4.19364">
        <ele>176.2</ele>
        <time>2024-04-16T05:23:46Z</time>
      </trkpt>
      <trkpt lat="50.09094" lon="4.19364">
        <ele>176.2</ele>
        <time>2024-04-16T05:23:47Z</time>
      </trkpt>
      <trkpt lat="50.09101" lon="4.19364">
        <ele>176.6</ele>
        <time>2024-04-16T05:23:48Z</time>
      </trkpt>
      <trkpt lat="50.09107" lon="4.19364">
        <ele>176.6</ele>
        <time>2024-04-16T05:23:49Z</time>
      </trkpt>
      <trkpt lat="50.09114" lon="4.19364">
        <ele>176.6</ele>
        <time>2024-04-16T05:23:50Z</time>
      </trkpt>
      <trkpt lat="50.0912" lon="4.19365">
        <ele>177</ele>
        <time>2024-04-16T05:23:51Z</time>
      </trkpt>
      <trkpt lat="50.09127" lon="4.19365">
        <ele>177.4</ele>
        <time>2024-04-16T05:23:52Z</time>
      </trkpt>
      <trkpt lat="50.09133" lon="4.19366">
        <ele>177.4</ele>
        <time>2024-04-16T05:23:53Z</time>
      </trkpt>
      <trkpt lat="50.0914" lon="4.19366">
        <ele>177.4</ele>
        <time>2024-04-16T05:23:54Z</time>
      </trkpt>
      <trkpt lat="50.09147" lon="4.19366">
        <ele>177.6</ele>
        <time>2024-04-16T05:23:55Z</time>
      </trkpt>
      <trkpt lat="50.09154" lon="4.19366">
        <ele>177.6</ele>
        <time>2024-04-16T05:23:56Z</time>
      </trkpt>
      <trkpt lat="50.0916" lon="4.19366">
        <ele>177.6</ele>
        <time>2024-04-16T05:23:57Z</time>
      </trkpt>
      <trkpt lat="50.09167" lon="4.19366">
        <ele>177.6</ele>
        <time>2024-04-16T05:23:58Z</time>
      </trkpt>
      <trkpt lat="50.09175" lon="4.19365">
        <ele>177.8</ele>
        <time>2024-04-16T05:23:59Z</time>
      </trkpt>
      <trkpt lat="50.09182" lon="4.19365">
        <ele>178</ele>
        <time>2024-04-16T05:24:00Z</time>
      </trkpt>
      <trkpt lat="50.09189" lon="4.19364">
        <ele>178</ele>
        <time>2024-04-16T05:24:01Z</time>
      </trkpt>
      <trkpt lat="50.09196" lon="4.19363">
        <ele>178.2</ele>
        <time>2024-04-16T05:24:02Z</time>
      </trkpt>
      <trkpt lat="50.09204" lon="4.19361">
        <ele>178.2</ele>
        <time>2024-04-16T05:24:03Z</time>
      </trkpt>
      <trkpt lat="50.09211" lon="4.19359">
        <ele>178.4</ele>
        <time>2024-04-16T05:24:04Z</time>
      </trkpt>
      <trkpt lat="50.09218" lon="4.19357">
        <ele>178.4</ele>
        <time>2024-04-16T05:24:05Z</time>
      </trkpt>
      <trkpt lat="50.09225" lon="4.19355">
        <ele>178.4</ele>
        <time>2024-04-16T05:24:06Z</time>
      </trkpt>
      <trkpt lat="50.09232" lon="4.19352">
        <ele>178.4</ele>
        <time>2024-04-16T05:24:07Z</time>
      </trkpt>
      <trkpt lat="50.0924" lon="4.1935">
        <ele>178.2</ele>
        <time>2024-04-16T05:24:08Z</time>
      </trkpt>
      <trkpt lat="50.09247" lon="4.19347">
        <ele>178.2</ele>
        <time>2024-04-16T05:24:09Z</time>
      </trkpt>
      <trkpt lat="50.09262" lon="4.19341">
        <ele>178.4</ele>
        <time>2024-04-16T05:24:10Z</time>
      </trkpt>
      <trkpt lat="50.09269" lon="4.19339">
        <ele>178.4</ele>
        <time>2024-04-16T05:24:11Z</time>
      </trkpt>
      <trkpt lat="50.09269" lon="4.19339">
        <ele>178.4</ele>
        <time>2024-04-16T05:24:12Z</time>
      </trkpt>
      <trkpt lat="50.09276" lon="4.19337">
        <ele>178</ele>
        <time>2024-04-16T05:24:13Z</time>
      </trkpt>
      <trkpt lat="50.09283" lon="4.19335">
        <ele>178</ele>
        <time>2024-04-16T05:24:14Z</time>
      </trkpt>
      <trkpt lat="50.09291" lon="4.19333">
        <ele>177.6</ele>
        <time>2024-04-16T05:24:15Z</time>
      </trkpt>
      <trkpt lat="50.09299" lon="4.19332">
        <ele>177.4</ele>
        <time>2024-04-16T05:24:16Z</time>
      </trkpt>
      <trkpt lat="50.09306" lon="4.19332">
        <ele>177</ele>
        <time>2024-04-16T05:24:17Z</time>
      </trkpt>
      <trkpt lat="50.09314" lon="4.19332">
        <ele>177</ele>
        <time>2024-04-16T05:24:18Z</time>
      </trkpt>
      <trkpt lat="50.09322" lon="4.19333">
        <ele>176.6</ele>
        <time>2024-04-16T05:24:19Z</time>
      </trkpt>
      <trkpt lat="50.09329" lon="4.19333">
        <ele>176.6</ele>
        <time>2024-04-16T05:24:20Z</time>
      </trkpt>
      <trkpt lat="50.09337" lon="4.19333">
        <ele>176.6</ele>
        <time>2024-04-16T05:24:21Z</time>
      </trkpt>
      <trkpt lat="50.09344" lon="4.19334">
        <ele>176.6</ele>
        <time>2024-04-16T05:24:22Z</time>
      </trkpt>
      <trkpt lat="50.09352" lon="4.19336">
        <ele>176.4</ele>
        <time>2024-04-16T05:24:23Z</time>
      </trkpt>
      <trkpt lat="50.09359" lon="4.19338">
        <ele>176.4</ele>
        <time>2024-04-16T05:24:24Z</time>
      </trkpt>
      <trkpt lat="50.09367" lon="4.19342">
        <ele>176.2</ele>
        <time>2024-04-16T05:24:25Z</time>
      </trkpt>
      <trkpt lat="50.09382" lon="4.19352">
        <ele>176.2</ele>
        <time>2024-04-16T05:24:26Z</time>
      </trkpt>
      <trkpt lat="50.09382" lon="4.19352">
        <ele>176.2</ele>
        <time>2024-04-16T05:24:27Z</time>
      </trkpt>
      <trkpt lat="50.09388" lon="4.19359">
        <ele>176.2</ele>
        <time>2024-04-16T05:24:28Z</time>
      </trkpt>
      <trkpt lat="50.09401" lon="4.19375">
        <ele>176</ele>
        <time>2024-04-16T05:24:29Z</time>
      </trkpt>
      <trkpt lat="50.09407" lon="4.19384">
        <ele>176</ele>
        <time>2024-04-16T05:24:30Z</time>
      </trkpt>
      <trkpt lat="50.09407" lon="4.19384">
        <ele>176</ele>
        <time>2024-04-16T05:24:31Z</time>
      </trkpt>
      <trkpt lat="50.09419" lon="4.19402">
        <ele>176</ele>
        <time>2024-04-16T05:24:32Z</time>
      </trkpt>
      <trkpt lat="50.09419" lon="4.19402">
        <ele>175.6</ele>
        <time>2024-04-16T05:24:33Z</time>
      </trkpt>
      <trkpt lat="50.09424" lon="4.19411">
        <ele>175.4</ele>
        <time>2024-04-16T05:24:34Z</time>
      </trkpt>
      <trkpt lat="50.0943" lon="4.1942">
        <ele>175.4</ele>
        <time>2024-04-16T05:24:35Z</time>
      </trkpt>
      <trkpt lat="50.09435" lon="4.19429">
        <ele>175.4</ele>
        <time>2024-04-16T05:24:36Z</time>
      </trkpt>
      <trkpt lat="50.09441" lon="4.19438">
        <ele>175.2</ele>
        <time>2024-04-16T05:24:37Z</time>
      </trkpt>
      <trkpt lat="50.09447" lon="4.19448">
        <ele>175</ele>
        <time>2024-04-16T05:24:38Z</time>
      </trkpt>
      <trkpt lat="50.09452" lon="4.19457">
        <ele>175</ele>
        <time>2024-04-16T05:24:39Z</time>
      </trkpt>
      <trkpt lat="50.09458" lon="4.19466">
        <ele>175</ele>
        <time>2024-04-16T05:24:40Z</time>
      </trkpt>
      <trkpt lat="50.09464" lon="4.19475">
        <ele>175</ele>
        <time>2024-04-16T05:24:41Z</time>
      </trkpt>
      <trkpt lat="50.09469" lon="4.19484">
        <ele>174.8</ele>
        <time>2024-04-16T05:24:42Z</time>
      </trkpt>
      <trkpt lat="50.09474" lon="4.19493">
        <ele>174.6</ele>
        <time>2024-04-16T05:24:43Z</time>
      </trkpt>
      <trkpt lat="50.09479" lon="4.19502">
        <ele>174.6</ele>
        <time>2024-04-16T05:24:44Z</time>
      </trkpt>
      <trkpt lat="50.09484" lon="4.19512">
        <ele>174.4</ele>
        <time>2024-04-16T05:24:45Z</time>
      </trkpt>
      <trkpt lat="50.09489" lon="4.1952">
        <ele>174</ele>
        <time>2024-04-16T05:24:46Z</time>
      </trkpt>
      <trkpt lat="50.09495" lon="4.19529">
        <ele>173.8</ele>
        <time>2024-04-16T05:24:47Z</time>
      </trkpt>
      <trkpt lat="50.09501" lon="4.19536">
        <ele>173.2</ele>
        <time>2024-04-16T05:24:48Z</time>
      </trkpt>
      <trkpt lat="50.09507" lon="4.19542">
        <ele>173</ele>
        <time>2024-04-16T05:24:49Z</time>
      </trkpt>
      <trkpt lat="50.09514" lon="4.19547">
        <ele>172.6</ele>
        <time>2024-04-16T05:24:50Z</time>
      </trkpt>
      <trkpt lat="50.09522" lon="4.19551">
        <ele>172.6</ele>
        <time>2024-04-16T05:24:51Z</time>
      </trkpt>
      <trkpt lat="50.09529" lon="4.19554">
        <ele>172.6</ele>
        <time>2024-04-16T05:24:52Z</time>
      </trkpt>
      <trkpt lat="50.09537" lon="4.19556">
        <ele>172.6</ele>
        <time>2024-04-16T05:24:53Z</time>
      </trkpt>
      <trkpt lat="50.09545" lon="4.19556">
        <ele>172.4</ele>
        <time>2024-04-16T05:24:54Z</time>
      </trkpt>
      <trkpt lat="50.09554" lon="4.19556">
        <ele>172.4</ele>
        <time>2024-04-16T05:24:55Z</time>
      </trkpt>
      <trkpt lat="50.09562" lon="4.19556">
        <ele>172.4</ele>
        <time>2024-04-16T05:24:56Z</time>
      </trkpt>
      <trkpt lat="50.0957" lon="4.19555">
        <ele>172.2</ele>
        <time>2024-04-16T05:24:57Z</time>
      </trkpt>
      <trkpt lat="50.09579" lon="4.19555">
        <ele>172.4</ele>
        <time>2024-04-16T05:24:58Z</time>
      </trkpt>
      <trkpt lat="50.09587" lon="4.19553">
        <ele>172.2</ele>
        <time>2024-04-16T05:24:59Z</time>
      </trkpt>
      <trkpt lat="50.09595" lon="4.19549">
        <ele>172</ele>
        <time>2024-04-16T05:25:00Z</time>
      </trkpt>
      <trkpt lat="50.09603" lon="4.19544">
        <ele>171.2</ele>
        <time>2024-04-16T05:25:01Z</time>
      </trkpt>
      <trkpt lat="50.09611" lon="4.19538">
        <ele>171.2</ele>
        <time>2024-04-16T05:25:02Z</time>
      </trkpt>
      <trkpt lat="50.09617" lon="4.19531">
        <ele>170.4</ele>
        <time>2024-04-16T05:25:03Z</time>
      </trkpt>
      <trkpt lat="50.09624" lon="4.19523">
        <ele>170.2</ele>
        <time>2024-04-16T05:25:04Z</time>
      </trkpt>
      <trkpt lat="50.09629" lon="4.19515">
        <ele>170.2</ele>
        <time>2024-04-16T05:25:05Z</time>
      </trkpt>
      <trkpt lat="50.09635" lon="4.19506">
        <ele>170</ele>
        <time>2024-04-16T05:25:06Z</time>
      </trkpt>
      <trkpt lat="50.09641" lon="4.19498">
        <ele>170</ele>
        <time>2024-04-16T05:25:07Z</time>
      </trkpt>
      <trkpt lat="50.09647" lon="4.19491">
        <ele>170</ele>
        <time>2024-04-16T05:25:08Z</time>
      </trkpt>
      <trkpt lat="50.09659" lon="4.19477">
        <ele>170</ele>
        <time>2024-04-16T05:25:09Z</time>
      </trkpt>
      <trkpt lat="50.09659" lon="4.19477">
        <ele>170</ele>
        <time>2024-04-16T05:25:10Z</time>
      </trkpt>
      <trkpt lat="50.09665" lon="4.19471">
        <ele>170.2</ele>
        <time>2024-04-16T05:25:11Z</time>
      </trkpt>
      <trkpt lat="50.09671" lon="4.19464">
        <ele>169.8</ele>
        <time>2024-04-16T05:25:12Z</time>
      </trkpt>
      <trkpt lat="50.09677" lon="4.19458">
        <ele>170</ele>
        <time>2024-04-16T05:25:13Z</time>
      </trkpt>
      <trkpt lat="50.09683" lon="4.19452">
        <ele>170</ele>
        <time>2024-04-16T05:25:14Z</time>
      </trkpt>
      <trkpt lat="50.09689" lon="4.19446">
        <ele>170.2</ele>
        <time>2024-04-16T05:25:15Z</time>
      </trkpt>
      <trkpt lat="50.09694" lon="4.1944">
        <ele>170</ele>
        <time>2024-04-16T05:25:16Z</time>
      </trkpt>
      <trkpt lat="50.097" lon="4.19434">
        <ele>170.2</ele>
        <time>2024-04-16T05:25:17Z</time>
      </trkpt>
      <trkpt lat="50.09706" lon="4.19428">
        <ele>170.6</ele>
        <time>2024-04-16T05:25:18Z</time>
      </trkpt>
      <trkpt lat="50.09712" lon="4.19423">
        <ele>170.6</ele>
        <time>2024-04-16T05:25:19Z</time>
      </trkpt>
      <trkpt lat="50.09719" lon="4.19419">
        <ele>170.6</ele>
        <time>2024-04-16T05:25:20Z</time>
      </trkpt>
      <trkpt lat="50.09725" lon="4.19415">
        <ele>170.8</ele>
        <time>2024-04-16T05:25:21Z</time>
      </trkpt>
      <trkpt lat="50.09732" lon="4.19412">
        <ele>171</ele>
        <time>2024-04-16T05:25:22Z</time>
      </trkpt>
      <trkpt lat="50.09739" lon="4.1941">
        <ele>171</ele>
        <time>2024-04-16T05:25:23Z</time>
      </trkpt>
      <trkpt lat="50.09746" lon="4.1941">
        <ele>171</ele>
        <time>2024-04-16T05:25:24Z</time>
      </trkpt>
      <trkpt lat="50.09753" lon="4.1941">
        <ele>171</ele>
        <time>2024-04-16T05:25:25Z</time>
      </trkpt>
      <trkpt lat="50.09759" lon="4.1941">
        <ele>171.4</ele>
        <time>2024-04-16T05:25:26Z</time>
      </trkpt>
      <trkpt lat="50.09766" lon="4.1941">
        <ele>171.4</ele>
        <time>2024-04-16T05:25:27Z</time>
      </trkpt>
      <trkpt lat="50.09773" lon="4.1941">
        <ele>171.2</ele>
        <time>2024-04-16T05:25:28Z</time>
      </trkpt>
      <trkpt lat="50.0978" lon="4.1941">
        <ele>171.4</ele>
        <time>2024-04-16T05:25:29Z</time>
      </trkpt>
      <trkpt lat="50.09787" lon="4.1941">
        <ele>171.2</ele>
        <time>2024-04-16T05:25:30Z</time>
      </trkpt>
      <trkpt lat="50.09794" lon="4.1941">
        <ele>171.4</ele>
        <time>2024-04-16T05:25:31Z</time>
      </trkpt>
      <trkpt lat="50.09801" lon="4.1941">
        <ele>171.4</ele>
        <time>2024-04-16T05:25:32Z</time>
      </trkpt>
      <trkpt lat="50.09808" lon="4.1941">
        <ele>171.4</ele>
        <time>2024-04-16T05:25:33Z</time>
      </trkpt>
      <trkpt lat="50.09815" lon="4.19411">
        <ele>171.4</ele>
        <time>2024-04-16T05:25:34Z</time>
      </trkpt>
      <trkpt lat="50.09822" lon="4.19411">
        <ele>171.4</ele>
        <time>2024-04-16T05:25:35Z</time>
      </trkpt>
      <trkpt lat="50.09829" lon="4.19411">
        <ele>171.4</ele>
        <time>2024-04-16T05:25:36Z</time>
      </trkpt>
      <trkpt lat="50.09836" lon="4.19411">
        <ele>171.6</ele>
        <time>2024-04-16T05:25:37Z</time>
      </trkpt>
      <trkpt lat="50.09843" lon="4.19411">
        <ele>171.6</ele>
        <time>2024-04-16T05:25:38Z</time>
      </trkpt>
      <trkpt lat="50.09849" lon="4.19412">
        <ele>171.4</ele>
        <time>2024-04-16T05:25:39Z</time>
      </trkpt>
      <trkpt lat="50.09856" lon="4.19412">
        <ele>171.6</ele>
        <time>2024-04-16T05:25:40Z</time>
      </trkpt>
      <trkpt lat="50.09863" lon="4.19412">
        <ele>171.6</ele>
        <time>2024-04-16T05:25:41Z</time>
      </trkpt>
      <trkpt lat="50.09869" lon="4.19412">
        <ele>171.8</ele>
        <time>2024-04-16T05:25:42Z</time>
      </trkpt>
      <trkpt lat="50.09875" lon="4.19412">
        <ele>171.8</ele>
        <time>2024-04-16T05:25:43Z</time>
      </trkpt>
      <trkpt lat="50.09881" lon="4.19412">
        <ele>171.8</ele>
        <time>2024-04-16T05:25:44Z</time>
      </trkpt>
      <trkpt lat="50.09887" lon="4.19412">
        <ele>172.4</ele>
        <time>2024-04-16T05:25:45Z</time>
      </trkpt>
      <trkpt lat="50.09892" lon="4.19412">
        <ele>172.4</ele>
        <time>2024-04-16T05:25:46Z</time>
      </trkpt>
      <trkpt lat="50.09898" lon="4.19412">
        <ele>172.6</ele>
        <time>2024-04-16T05:25:47Z</time>
      </trkpt>
      <trkpt lat="50.09904" lon="4.19411">
        <ele>172.8</ele>
        <time>2024-04-16T05:25:48Z</time>
      </trkpt>
      <trkpt lat="50.09909" lon="4.19411">
        <ele>173</ele>
        <time>2024-04-16T05:25:49Z</time>
      </trkpt>
      <trkpt lat="50.09915" lon="4.19411">
        <ele>173</ele>
        <time>2024-04-16T05:25:50Z</time>
      </trkpt>
      <trkpt lat="50.0992" lon="4.1941">
        <ele>173.6</ele>
        <time>2024-04-16T05:25:51Z</time>
      </trkpt>
      <trkpt lat="50.09926" lon="4.1941">
        <ele>173.8</ele>
        <time>2024-04-16T05:25:52Z</time>
      </trkpt>
      <trkpt lat="50.09932" lon="4.19409">
        <ele>174.4</ele>
        <time>2024-04-16T05:25:53Z</time>
      </trkpt>
      <trkpt lat="50.09937" lon="4.19408">
        <ele>174.8</ele>
        <time>2024-04-16T05:25:54Z</time>
      </trkpt>
      <trkpt lat="50.09943" lon="4.19408">
        <ele>174.8</ele>
        <time>2024-04-16T05:25:55Z</time>
      </trkpt>
      <trkpt lat="50.09949" lon="4.19407">
        <ele>175.2</ele>
        <time>2024-04-16T05:25:56Z</time>
      </trkpt>
      <trkpt lat="50.09954" lon="4.19406">
        <ele>175.4</ele>
        <time>2024-04-16T05:25:57Z</time>
      </trkpt>
      <trkpt lat="50.0996" lon="4.19406">
        <ele>175.4</ele>
        <time>2024-04-16T05:25:58Z</time>
      </trkpt>
      <trkpt lat="50.09965" lon="4.19405">
        <ele>175.8</ele>
        <time>2024-04-16T05:25:59Z</time>
      </trkpt>
      <trkpt lat="50.09971" lon="4.19405">
        <ele>176.2</ele>
        <time>2024-04-16T05:26:00Z</time>
      </trkpt>
      <trkpt lat="50.09976" lon="4.19404">
        <ele>176.2</ele>
        <time>2024-04-16T05:26:01Z</time>
      </trkpt>
      <trkpt lat="50.09981" lon="4.19404">
        <ele>176.4</ele>
        <time>2024-04-16T05:26:02Z</time>
      </trkpt>
      <trkpt lat="50.09987" lon="4.19403">
        <ele>177</ele>
        <time>2024-04-16T05:26:03Z</time>
      </trkpt>
      <trkpt lat="50.09992" lon="4.19403">
        <ele>177.4</ele>
        <time>2024-04-16T05:26:04Z</time>
      </trkpt>
      <trkpt lat="50.09998" lon="4.19402">
        <ele>177.8</ele>
        <time>2024-04-16T05:26:05Z</time>
      </trkpt>
      <trkpt lat="50.10003" lon="4.19401">
        <ele>177.8</ele>
        <time>2024-04-16T05:26:06Z</time>
      </trkpt>
      <trkpt lat="50.10008" lon="4.194">
        <ele>177.8</ele>
        <time>2024-04-16T05:26:07Z</time>
      </trkpt>
      <trkpt lat="50.10014" lon="4.19399">
        <ele>178</ele>
        <time>2024-04-16T05:26:08Z</time>
      </trkpt>
      <trkpt lat="50.10019" lon="4.19398">
        <ele>178.2</ele>
        <time>2024-04-16T05:26:09Z</time>
      </trkpt>
      <trkpt lat="50.10025" lon="4.19396">
        <ele>178.4</ele>
        <time>2024-04-16T05:26:10Z</time>
      </trkpt>
      <trkpt lat="50.10031" lon="4.19394">
        <ele>178.8</ele>
        <time>2024-04-16T05:26:11Z</time>
      </trkpt>
      <trkpt lat="50.10037" lon="4.19391">
        <ele>179</ele>
        <time>2024-04-16T05:26:12Z</time>
      </trkpt>
      <trkpt lat="50.10042" lon="4.19388">
        <ele>179.4</ele>
        <time>2024-04-16T05:26:13Z</time>
      </trkpt>
      <trkpt lat="50.10048" lon="4.19385">
        <ele>179.6</ele>
        <time>2024-04-16T05:26:14Z</time>
      </trkpt>
      <trkpt lat="50.10053" lon="4.19382">
        <ele>179.8</ele>
        <time>2024-04-16T05:26:15Z</time>
      </trkpt>
      <trkpt lat="50.10059" lon="4.19378">
        <ele>179.6</ele>
        <time>2024-04-16T05:26:16Z</time>
      </trkpt>
      <trkpt lat="50.10064" lon="4.19374">
        <ele>179.8</ele>
        <time>2024-04-16T05:26:17Z</time>
      </trkpt>
      <trkpt lat="50.1007" lon="4.1937">
        <ele>179.8</ele>
        <time>2024-04-16T05:26:18Z</time>
      </trkpt>
      <trkpt lat="50.10075" lon="4.19366">
        <ele>179.8</ele>
        <time>2024-04-16T05:26:19Z</time>
      </trkpt>
      <trkpt lat="50.10081" lon="4.19362">
        <ele>180.2</ele>
        <time>2024-04-16T05:26:20Z</time>
      </trkpt>
      <trkpt lat="50.10086" lon="4.19358">
        <ele>180.4</ele>
        <time>2024-04-16T05:26:21Z</time>
      </trkpt>
      <trkpt lat="50.10092" lon="4.19353">
        <ele>180.2</ele>
        <time>2024-04-16T05:26:22Z</time>
      </trkpt>
      <trkpt lat="50.10098" lon="4.19349">
        <ele>180.2</ele>
        <time>2024-04-16T05:26:23Z</time>
      </trkpt>
      <trkpt lat="50.10104" lon="4.19344">
        <ele>180.2</ele>
        <time>2024-04-16T05:26:24Z</time>
      </trkpt>
      <trkpt lat="50.1011" lon="4.1934">
        <ele>180.4</ele>
        <time>2024-04-16T05:26:25Z</time>
      </trkpt>
      <trkpt lat="50.10117" lon="4.19336">
        <ele>180.4</ele>
        <time>2024-04-16T05:26:26Z</time>
      </trkpt>
      <trkpt lat="50.10124" lon="4.19332">
        <ele>180.2</ele>
        <time>2024-04-16T05:26:27Z</time>
      </trkpt>
      <trkpt lat="50.10131" lon="4.1933">
        <ele>180.2</ele>
        <time>2024-04-16T05:26:28Z</time>
      </trkpt>
      <trkpt lat="50.10138" lon="4.19327">
        <ele>180.2</ele>
        <time>2024-04-16T05:26:29Z</time>
      </trkpt>
      <trkpt lat="50.10146" lon="4.19326">
        <ele>180.2</ele>
        <time>2024-04-16T05:26:30Z</time>
      </trkpt>
      <trkpt lat="50.10161" lon="4.19324">
        <ele>180</ele>
        <time>2024-04-16T05:26:31Z</time>
      </trkpt>
      <trkpt lat="50.10161" lon="4.19324">
        <ele>179.6</ele>
        <time>2024-04-16T05:26:32Z</time>
      </trkpt>
      <trkpt lat="50.10169" lon="4.19324">
        <ele>179.2</ele>
        <time>2024-04-16T05:26:33Z</time>
      </trkpt>
      <trkpt lat="50.10176" lon="4.19323">
        <ele>179</ele>
        <time>2024-04-16T05:26:34Z</time>
      </trkpt>
      <trkpt lat="50.10184" lon="4.19323">
        <ele>178.4</ele>
        <time>2024-04-16T05:26:35Z</time>
      </trkpt>
      <trkpt lat="50.10191" lon="4.19324">
        <ele>178</ele>
        <time>2024-04-16T05:26:36Z</time>
      </trkpt>
      <trkpt lat="50.10199" lon="4.19324">
        <ele>177.8</ele>
        <time>2024-04-16T05:26:37Z</time>
      </trkpt>
      <trkpt lat="50.10207" lon="4.19324">
        <ele>177.6</ele>
        <time>2024-04-16T05:26:38Z</time>
      </trkpt>
      <trkpt lat="50.10214" lon="4.19324">
        <ele>177.2</ele>
        <time>2024-04-16T05:26:39Z</time>
      </trkpt>
      <trkpt lat="50.10222" lon="4.19325">
        <ele>177</ele>
        <time>2024-04-16T05:26:40Z</time>
      </trkpt>
      <trkpt lat="50.10237" lon="4.19325">
        <ele>177</ele>
        <time>2024-04-16T05:26:41Z</time>
      </trkpt>
      <trkpt lat="50.10237" lon="4.19325">
        <ele>176.8</ele>
        <time>2024-04-16T05:26:42Z</time>
      </trkpt>
      <trkpt lat="50.10245" lon="4.19325">
        <ele>176.6</ele>
        <time>2024-04-16T05:26:43Z</time>
      </trkpt>
      <trkpt lat="50.10253" lon="4.19325">
        <ele>176.6</ele>
        <time>2024-04-16T05:26:44Z</time>
      </trkpt>
      <trkpt lat="50.1026" lon="4.19325">
        <ele>176.6</ele>
        <time>2024-04-16T05:26:45Z</time>
      </trkpt>
      <trkpt lat="50.10268" lon="4.19325">
        <ele>176.4</ele>
        <time>2024-04-16T05:26:46Z</time>
      </trkpt>
      <trkpt lat="50.10276" lon="4.19325">
        <ele>175.8</ele>
        <time>2024-04-16T05:26:47Z</time>
      </trkpt>
      <trkpt lat="50.10284" lon="4.19325">
        <ele>175.6</ele>
        <time>2024-04-16T05:26:48Z</time>
      </trkpt>
      <trkpt lat="50.10291" lon="4.19325">
        <ele>175.4</ele>
        <time>2024-04-16T05:26:49Z</time>
      </trkpt>
      <trkpt lat="50.10307" lon="4.19325">
        <ele>175.2</ele>
        <time>2024-04-16T05:26:50Z</time>
      </trkpt>
      <trkpt lat="50.10307" lon="4.19325">
        <ele>175.2</ele>
        <time>2024-04-16T05:26:51Z</time>
      </trkpt>
      <trkpt lat="50.10315" lon="4.19325">
        <ele>175.2</ele>
        <time>2024-04-16T05:26:52Z</time>
      </trkpt>
      <trkpt lat="50.10332" lon="4.19325">
        <ele>175.2</ele>
        <time>2024-04-16T05:26:53Z</time>
      </trkpt>
      <trkpt lat="50.10332" lon="4.19325">
        <ele>174.8</ele>
        <time>2024-04-16T05:26:54Z</time>
      </trkpt>
      <trkpt lat="50.10349" lon="4.19324">
        <ele>174.6</ele>
        <time>2024-04-16T05:26:55Z</time>
      </trkpt>
      <trkpt lat="50.10358" lon="4.19324">
        <ele>174.2</ele>
        <time>2024-04-16T05:26:56Z</time>
      </trkpt>
      <trkpt lat="50.10358" lon="4.19324">
        <ele>173.8</ele>
        <time>2024-04-16T05:26:57Z</time>
      </trkpt>
      <trkpt lat="50.10366" lon="4.19324">
        <ele>173.6</ele>
        <time>2024-04-16T05:26:58Z</time>
      </trkpt>
      <trkpt lat="50.10383" lon="4.19324">
        <ele>172.8</ele>
        <time>2024-04-16T05:26:59Z</time>
      </trkpt>
      <trkpt lat="50.10383" lon="4.19324">
        <ele>172</ele>
        <time>2024-04-16T05:27:00Z</time>
      </trkpt>
      <trkpt lat="50.10392" lon="4.19324">
        <ele>171.4</ele>
        <time>2024-04-16T05:27:01Z</time>
      </trkpt>
      <trkpt lat="50.104" lon="4.19324">
        <ele>171</ele>
        <time>2024-04-16T05:27:02Z</time>
      </trkpt>
      <trkpt lat="50.10409" lon="4.19324">
        <ele>170.6</ele>
        <time>2024-04-16T05:27:03Z</time>
      </trkpt>
      <trkpt lat="50.10417" lon="4.19325">
        <ele>170.4</ele>
        <time>2024-04-16T05:27:04Z</time>
      </trkpt>
      <trkpt lat="50.10425" lon="4.19327">
        <ele>170.4</ele>
        <time>2024-04-16T05:27:05Z</time>
      </trkpt>
      <trkpt lat="50.10433" lon="4.19328">
        <ele>170.2</ele>
        <time>2024-04-16T05:27:06Z</time>
      </trkpt>
      <trkpt lat="50.10448" lon="4.19331">
        <ele>170.2</ele>
        <time>2024-04-16T05:27:07Z</time>
      </trkpt>
      <trkpt lat="50.10455" lon="4.19332">
        <ele>170.2</ele>
        <time>2024-04-16T05:27:08Z</time>
      </trkpt>
      <trkpt lat="50.10462" lon="4.19333">
        <ele>170.2</ele>
        <time>2024-04-16T05:27:09Z</time>
      </trkpt>
      <trkpt lat="50.10462" lon="4.19333">
        <ele>170.4</ele>
        <time>2024-04-16T05:27:10Z</time>
      </trkpt>
      <trkpt lat="50.10469" lon="4.19334">
        <ele>170.2</ele>
        <time>2024-04-16T05:27:11Z</time>
      </trkpt>
      <trkpt lat="50.10482" lon="4.19336">
        <ele>170.2</ele>
        <time>2024-04-16T05:27:12Z</time>
      </trkpt>
      <trkpt lat="50.10482" lon="4.19336">
        <ele>170.2</ele>
        <time>2024-04-16T05:27:13Z</time>
      </trkpt>
      <trkpt lat="50.10495" lon="4.19338">
        <ele>170.4</ele>
        <time>2024-04-16T05:27:14Z</time>
      </trkpt>
      <trkpt lat="50.10495" lon="4.19338">
        <ele>170.4</ele>
        <time>2024-04-16T05:27:15Z</time>
      </trkpt>
      <trkpt lat="50.10501" lon="4.19339">
        <ele>170.4</ele>
        <time>2024-04-16T05:27:16Z</time>
      </trkpt>
      <trkpt lat="50.10507" lon="4.1934">
        <ele>170.6</ele>
        <time>2024-04-16T05:27:17Z</time>
      </trkpt>
      <trkpt lat="50.10513" lon="4.1934">
        <ele>170.6</ele>
        <time>2024-04-16T05:27:18Z</time>
      </trkpt>
      <trkpt lat="50.10519" lon="4.19341">
        <ele>171</ele>
        <time>2024-04-16T05:27:19Z</time>
      </trkpt>
      <trkpt lat="50.1053" lon="4.19344">
        <ele>171</ele>
        <time>2024-04-16T05:27:20Z</time>
      </trkpt>
      <trkpt lat="50.1053" lon="4.19344">
        <ele>171.2</ele>
        <time>2024-04-16T05:27:21Z</time>
      </trkpt>
      <trkpt lat="50.10536" lon="4.19345">
        <ele>171</ele>
        <time>2024-04-16T05:27:22Z</time>
      </trkpt>
      <trkpt lat="50.10542" lon="4.19346">
        <ele>171.4</ele>
        <time>2024-04-16T05:27:23Z</time>
      </trkpt>
      <trkpt lat="50.10556" lon="4.19349">
        <ele>171.8</ele>
        <time>2024-04-16T05:27:24Z</time>
      </trkpt>
      <trkpt lat="50.10563" lon="4.1935">
        <ele>172</ele>
        <time>2024-04-16T05:27:25Z</time>
      </trkpt>
      <trkpt lat="50.1057" lon="4.19352">
        <ele>172.2</ele>
        <time>2024-04-16T05:27:26Z</time>
      </trkpt>
      <trkpt lat="50.1057" lon="4.19352">
        <ele>172.4</ele>
        <time>2024-04-16T05:27:27Z</time>
      </trkpt>
      <trkpt lat="50.10578" lon="4.19352">
        <ele>172.4</ele>
        <time>2024-04-16T05:27:28Z</time>
      </trkpt>
      <trkpt lat="50.10585" lon="4.19352">
        <ele>172.4</ele>
        <time>2024-04-16T05:27:29Z</time>
      </trkpt>
      <trkpt lat="50.10593" lon="4.19352">
        <ele>172.6</ele>
        <time>2024-04-16T05:27:30Z</time>
      </trkpt>
      <trkpt lat="50.10601" lon="4.19351">
        <ele>172.6</ele>
        <time>2024-04-16T05:27:31Z</time>
      </trkpt>
      <trkpt lat="50.10608" lon="4.1935">
        <ele>172.6</ele>
        <time>2024-04-16T05:27:32Z</time>
      </trkpt>
      <trkpt lat="50.10616" lon="4.19349">
        <ele>172.6</ele>
        <time>2024-04-16T05:27:33Z</time>
      </trkpt>
      <trkpt lat="50.10624" lon="4.19348">
        <ele>172.4</ele>
        <time>2024-04-16T05:27:34Z</time>
      </trkpt>
      <trkpt lat="50.10631" lon="4.19346">
        <ele>172.4</ele>
        <time>2024-04-16T05:27:35Z</time>
      </trkpt>
      <trkpt lat="50.10638" lon="4.19345">
        <ele>172.4</ele>
        <time>2024-04-16T05:27:36Z</time>
      </trkpt>
      <trkpt lat="50.10646" lon="4.19343">
        <ele>172.2</ele>
        <time>2024-04-16T05:27:37Z</time>
      </trkpt>
      <trkpt lat="50.10652" lon="4.19339">
        <ele>171.8</ele>
        <time>2024-04-16T05:27:38Z</time>
      </trkpt>
      <trkpt lat="50.10659" lon="4.19334">
        <ele>171.6</ele>
        <time>2024-04-16T05:27:39Z</time>
      </trkpt>
      <trkpt lat="50.1067" lon="4.19321">
        <ele>171.4</ele>
        <time>2024-04-16T05:27:40Z</time>
      </trkpt>
      <trkpt lat="50.10675" lon="4.19314">
        <ele>171.4</ele>
        <time>2024-04-16T05:27:41Z</time>
      </trkpt>
      <trkpt lat="50.1068" lon="4.19306">
        <ele>171</ele>
        <time>2024-04-16T05:27:42Z</time>
      </trkpt>
      <trkpt lat="50.10684" lon="4.19298">
        <ele>171</ele>
        <time>2024-04-16T05:27:43Z</time>
      </trkpt>
      <trkpt lat="50.10689" lon="4.1929">
        <ele>170.8</ele>
        <time>2024-04-16T05:27:44Z</time>
      </trkpt>
      <trkpt lat="50.10693" lon="4.19282">
        <ele>170.8</ele>
        <time>2024-04-16T05:27:45Z</time>
      </trkpt>
      <trkpt lat="50.10698" lon="4.19274">
        <ele>170.8</ele>
        <time>2024-04-16T05:27:46Z</time>
      </trkpt>
      <trkpt lat="50.10702" lon="4.19267">
        <ele>170.8</ele>
        <time>2024-04-16T05:27:47Z</time>
      </trkpt>
      <trkpt lat="50.10706" lon="4.1926">
        <ele>170.6</ele>
        <time>2024-04-16T05:27:48Z</time>
      </trkpt>
      <trkpt lat="50.10706" lon="4.1926">
        <ele>170.8</ele>
        <time>2024-04-16T05:27:49Z</time>
      </trkpt>
      <trkpt lat="50.10714" lon="4.19246">
        <ele>170.8</ele>
        <time>2024-04-16T05:27:50Z</time>
      </trkpt>
      <trkpt lat="50.10719" lon="4.1924">
        <ele>170.8</ele>
        <time>2024-04-16T05:27:51Z</time>
      </trkpt>
      <trkpt lat="50.10719" lon="4.1924">
        <ele>170.8</ele>
        <time>2024-04-16T05:27:52Z</time>
      </trkpt>
      <trkpt lat="50.10727" lon="4.19228">
        <ele>171</ele>
        <time>2024-04-16T05:27:53Z</time>
      </trkpt>
      <trkpt lat="50.10732" lon="4.19223">
        <ele>171</ele>
        <time>2024-04-16T05:27:54Z</time>
      </trkpt>
      <trkpt lat="50.10736" lon="4.19218">
        <ele>171</ele>
        <time>2024-04-16T05:27:55Z</time>
      </trkpt>
      <trkpt lat="50.1074" lon="4.19212">
        <ele>171.2</ele>
        <time>2024-04-16T05:27:56Z</time>
      </trkpt>
      <trkpt lat="50.1074" lon="4.19212">
        <ele>171.2</ele>
        <time>2024-04-16T05:27:57Z</time>
      </trkpt>
      <trkpt lat="50.10744" lon="4.19207">
        <ele>171.6</ele>
        <time>2024-04-16T05:27:58Z</time>
      </trkpt>
      <trkpt lat="50.10752" lon="4.19196">
        <ele>171.8</ele>
        <time>2024-04-16T05:27:59Z</time>
      </trkpt>
      <trkpt lat="50.10752" lon="4.19196">
        <ele>172</ele>
        <time>2024-04-16T05:28:00Z</time>
      </trkpt>
      <trkpt lat="50.10756" lon="4.1919">
        <ele>172.2</ele>
        <time>2024-04-16T05:28:01Z</time>
      </trkpt>
      <trkpt lat="50.1076" lon="4.19183">
        <ele>172.4</ele>
        <time>2024-04-16T05:28:02Z</time>
      </trkpt>
      <trkpt lat="50.10764" lon="4.19177">
        <ele>172.6</ele>
        <time>2024-04-16T05:28:03Z</time>
      </trkpt>
      <trkpt lat="50.10767" lon="4.1917">
        <ele>172.4</ele>
        <time>2024-04-16T05:28:04Z</time>
      </trkpt>
      <trkpt lat="50.10773" lon="4.19154">
        <ele>172.8</ele>
        <time>2024-04-16T05:28:05Z</time>
      </trkpt>
      <trkpt lat="50.10773" lon="4.19154">
        <ele>172.8</ele>
        <time>2024-04-16T05:28:06Z</time>
      </trkpt>
      <trkpt lat="50.10777" lon="4.19146">
        <ele>173.2</ele>
        <time>2024-04-16T05:28:07Z</time>
      </trkpt>
      <trkpt lat="50.1078" lon="4.19138">
        <ele>173</ele>
        <time>2024-04-16T05:28:08Z</time>
      </trkpt>
      <trkpt lat="50.10787" lon="4.19119">
        <ele>173.2</ele>
        <time>2024-04-16T05:28:09Z</time>
      </trkpt>
      <trkpt lat="50.10787" lon="4.19119">
        <ele>173.2</ele>
        <time>2024-04-16T05:28:10Z</time>
      </trkpt>
      <trkpt lat="50.1079" lon="4.19109">
        <ele>173.2</ele>
        <time>2024-04-16T05:28:11Z</time>
      </trkpt>
      <trkpt lat="50.10798" lon="4.19086">
        <ele>173.2</ele>
        <time>2024-04-16T05:28:12Z</time>
      </trkpt>
      <trkpt lat="50.10798" lon="4.19086">
        <ele>173.2</ele>
        <time>2024-04-16T05:28:13Z</time>
      </trkpt>
      <trkpt lat="50.10801" lon="4.19074">
        <ele>173.2</ele>
        <time>2024-04-16T05:28:14Z</time>
      </trkpt>
      <trkpt lat="50.10807" lon="4.19046">
        <ele>173.2</ele>
        <time>2024-04-16T05:28:15Z</time>
      </trkpt>
      <trkpt lat="50.10807" lon="4.19046">
        <ele>173.2</ele>
        <time>2024-04-16T05:28:16Z</time>
      </trkpt>
      <trkpt lat="50.10812" lon="4.19019">
        <ele>173</ele>
        <time>2024-04-16T05:28:17Z</time>
      </trkpt>
      <trkpt lat="50.10812" lon="4.19019">
        <ele>172.2</ele>
        <time>2024-04-16T05:28:18Z</time>
      </trkpt>
      <trkpt lat="50.10814" lon="4.19005">
        <ele>172.2</ele>
        <time>2024-04-16T05:28:19Z</time>
      </trkpt>
      <trkpt lat="50.10816" lon="4.1899">
        <ele>171.8</ele>
        <time>2024-04-16T05:28:20Z</time>
      </trkpt>
      <trkpt lat="50.10817" lon="4.18976">
        <ele>171.6</ele>
        <time>2024-04-16T05:28:21Z</time>
      </trkpt>
      <trkpt lat="50.10819" lon="4.18962">
        <ele>171.4</ele>
        <time>2024-04-16T05:28:22Z</time>
      </trkpt>
      <trkpt lat="50.10822" lon="4.18935">
        <ele>171.2</ele>
        <time>2024-04-16T05:28:23Z</time>
      </trkpt>
      <trkpt lat="50.10822" lon="4.18935">
        <ele>171.2</ele>
        <time>2024-04-16T05:28:24Z</time>
      </trkpt>
      <trkpt lat="50.10823" lon="4.18922">
        <ele>170.8</ele>
        <time>2024-04-16T05:28:25Z</time>
      </trkpt>
      <trkpt lat="50.10825" lon="4.18909">
        <ele>170.6</ele>
        <time>2024-04-16T05:28:26Z</time>
      </trkpt>
      <trkpt lat="50.10827" lon="4.18897">
        <ele>170.2</ele>
        <time>2024-04-16T05:28:27Z</time>
      </trkpt>
      <trkpt lat="50.1083" lon="4.18885">
        <ele>169.6</ele>
        <time>2024-04-16T05:28:28Z</time>
      </trkpt>
      <trkpt lat="50.10834" lon="4.18874">
        <ele>169</ele>
        <time>2024-04-16T05:28:29Z</time>
      </trkpt>
      <trkpt lat="50.10837" lon="4.18863">
        <ele>168.8</ele>
        <time>2024-04-16T05:28:30Z</time>
      </trkpt>
      <trkpt lat="50.10841" lon="4.18853">
        <ele>168.4</ele>
        <time>2024-04-16T05:28:31Z</time>
      </trkpt>
      <trkpt lat="50.10845" lon="4.18844">
        <ele>168.4</ele>
        <time>2024-04-16T05:28:32Z</time>
      </trkpt>
      <trkpt lat="50.10848" lon="4.18834">
        <ele>168.2</ele>
        <time>2024-04-16T05:28:33Z</time>
      </trkpt>
      <trkpt lat="50.10852" lon="4.18825">
        <ele>168.2</ele>
        <time>2024-04-16T05:28:34Z</time>
      </trkpt>
      <trkpt lat="50.10856" lon="4.18817">
        <ele>168.2</ele>
        <time>2024-04-16T05:28:35Z</time>
      </trkpt>
      <trkpt lat="50.1086" lon="4.18808">
        <ele>168.4</ele>
        <time>2024-04-16T05:28:36Z</time>
      </trkpt>
      <trkpt lat="50.10863" lon="4.188">
        <ele>168.4</ele>
        <time>2024-04-16T05:28:37Z</time>
      </trkpt>
      <trkpt lat="50.10867" lon="4.18791">
        <ele>168.2</ele>
        <time>2024-04-16T05:28:38Z</time>
      </trkpt>
      <trkpt lat="50.1087" lon="4.18783">
        <ele>168.2</ele>
        <time>2024-04-16T05:28:39Z</time>
      </trkpt>
      <trkpt lat="50.10874" lon="4.18775">
        <ele>168.2</ele>
        <time>2024-04-16T05:28:40Z</time>
      </trkpt>
      <trkpt lat="50.10877" lon="4.18767">
        <ele>168.2</ele>
        <time>2024-04-16T05:28:41Z</time>
      </trkpt>
      <trkpt lat="50.10881" lon="4.1876">
        <ele>168.4</ele>
        <time>2024-04-16T05:28:42Z</time>
      </trkpt>
      <trkpt lat="50.10888" lon="4.18744">
        <ele>168.8</ele>
        <time>2024-04-16T05:28:43Z</time>
      </trkpt>
      <trkpt lat="50.10888" lon="4.18744">
        <ele>169</ele>
        <time>2024-04-16T05:28:44Z</time>
      </trkpt>
      <trkpt lat="50.10892" lon="4.18737">
        <ele>169.4</ele>
        <time>2024-04-16T05:28:45Z</time>
      </trkpt>
      <trkpt lat="50.10896" lon="4.18729">
        <ele>170.2</ele>
        <time>2024-04-16T05:28:46Z</time>
      </trkpt>
      <trkpt lat="50.109" lon="4.18721">
        <ele>170.6</ele>
        <time>2024-04-16T05:28:47Z</time>
      </trkpt>
      <trkpt lat="50.10907" lon="4.18705">
        <ele>170.8</ele>
        <time>2024-04-16T05:28:48Z</time>
      </trkpt>
      <trkpt lat="50.10907" lon="4.18705">
        <ele>171.2</ele>
        <time>2024-04-16T05:28:49Z</time>
      </trkpt>
      <trkpt lat="50.10914" lon="4.18689">
        <ele>171.2</ele>
        <time>2024-04-16T05:28:50Z</time>
      </trkpt>
      <trkpt lat="50.10914" lon="4.18689">
        <ele>171.4</ele>
        <time>2024-04-16T05:28:51Z</time>
      </trkpt>
      <trkpt lat="50.10918" lon="4.18681">
        <ele>171.8</ele>
        <time>2024-04-16T05:28:52Z</time>
      </trkpt>
      <trkpt lat="50.10921" lon="4.18673">
        <ele>172</ele>
        <time>2024-04-16T05:28:53Z</time>
      </trkpt>
      <trkpt lat="50.10925" lon="4.18665">
        <ele>172</ele>
        <time>2024-04-16T05:28:54Z</time>
      </trkpt>
      <trkpt lat="50.10928" lon="4.18657">
        <ele>172.2</ele>
        <time>2024-04-16T05:28:55Z</time>
      </trkpt>
      <trkpt lat="50.10935" lon="4.18642">
        <ele>172.2</ele>
        <time>2024-04-16T05:28:56Z</time>
      </trkpt>
      <trkpt lat="50.10939" lon="4.18635">
        <ele>172.4</ele>
        <time>2024-04-16T05:28:57Z</time>
      </trkpt>
      <trkpt lat="50.10939" lon="4.18635">
        <ele>172.4</ele>
        <time>2024-04-16T05:28:58Z</time>
      </trkpt>
      <trkpt lat="50.10942" lon="4.18628">
        <ele>172.6</ele>
        <time>2024-04-16T05:28:59Z</time>
      </trkpt>
      <trkpt lat="50.10946" lon="4.18622">
        <ele>172.8</ele>
        <time>2024-04-16T05:29:00Z</time>
      </trkpt>
      <trkpt lat="50.10953" lon="4.18609">
        <ele>173</ele>
        <time>2024-04-16T05:29:01Z</time>
      </trkpt>
      <trkpt lat="50.10956" lon="4.18602">
        <ele>173</ele>
        <time>2024-04-16T05:29:02Z</time>
      </trkpt>
      <trkpt lat="50.1096" lon="4.18596">
        <ele>173.2</ele>
        <time>2024-04-16T05:29:03Z</time>
      </trkpt>
      <trkpt lat="50.10964" lon="4.1859">
        <ele>173.4</ele>
        <time>2024-04-16T05:29:04Z</time>
      </trkpt>
      <trkpt lat="50.10964" lon="4.1859">
        <ele>174</ele>
        <time>2024-04-16T05:29:05Z</time>
      </trkpt>
      <trkpt lat="50.10968" lon="4.18584">
        <ele>174.6</ele>
        <time>2024-04-16T05:29:06Z</time>
      </trkpt>
      <trkpt lat="50.10972" lon="4.18578">
        <ele>174.8</ele>
        <time>2024-04-16T05:29:07Z</time>
      </trkpt>
      <trkpt lat="50.1098" lon="4.18567">
        <ele>174.8</ele>
        <time>2024-04-16T05:29:08Z</time>
      </trkpt>
      <trkpt lat="50.10985" lon="4.1856">
        <ele>175</ele>
        <time>2024-04-16T05:29:09Z</time>
      </trkpt>
      <trkpt lat="50.10989" lon="4.18554">
        <ele>175</ele>
        <time>2024-04-16T05:29:10Z</time>
      </trkpt>
      <trkpt lat="50.10993" lon="4.18548">
        <ele>175.2</ele>
        <time>2024-04-16T05:29:11Z</time>
      </trkpt>
      <trkpt lat="50.10997" lon="4.18542">
        <ele>175.6</ele>
        <time>2024-04-16T05:29:12Z</time>
      </trkpt>
      <trkpt lat="50.11002" lon="4.18535">
        <ele>175.8</ele>
        <time>2024-04-16T05:29:13Z</time>
      </trkpt>
      <trkpt lat="50.11002" lon="4.18535">
        <ele>175.8</ele>
        <time>2024-04-16T05:29:14Z</time>
      </trkpt>
      <trkpt lat="50.1101" lon="4.18523">
        <ele>176</ele>
        <time>2024-04-16T05:29:15Z</time>
      </trkpt>
      <trkpt lat="50.11014" lon="4.18516">
        <ele>176.4</ele>
        <time>2024-04-16T05:29:16Z</time>
      </trkpt>
      <trkpt lat="50.11018" lon="4.1851">
        <ele>176.8</ele>
        <time>2024-04-16T05:29:17Z</time>
      </trkpt>
      <trkpt lat="50.11018" lon="4.1851">
        <ele>177.2</ele>
        <time>2024-04-16T05:29:18Z</time>
      </trkpt>
      <trkpt lat="50.11026" lon="4.18498">
        <ele>177.8</ele>
        <time>2024-04-16T05:29:19Z</time>
      </trkpt>
      <trkpt lat="50.11026" lon="4.18498">
        <ele>178</ele>
        <time>2024-04-16T05:29:20Z</time>
      </trkpt>
      <trkpt lat="50.11029" lon="4.18491">
        <ele>178.2</ele>
        <time>2024-04-16T05:29:21Z</time>
      </trkpt>
      <trkpt lat="50.11033" lon="4.18485">
        <ele>178.2</ele>
        <time>2024-04-16T05:29:22Z</time>
      </trkpt>
      <trkpt lat="50.11037" lon="4.18479">
        <ele>178.4</ele>
        <time>2024-04-16T05:29:23Z</time>
      </trkpt>
      <trkpt lat="50.11041" lon="4.18472">
        <ele>178.4</ele>
        <time>2024-04-16T05:29:24Z</time>
      </trkpt>
      <trkpt lat="50.11047" lon="4.18459">
        <ele>178.6</ele>
        <time>2024-04-16T05:29:25Z</time>
      </trkpt>
      <trkpt lat="50.1105" lon="4.18453">
        <ele>178.8</ele>
        <time>2024-04-16T05:29:26Z</time>
      </trkpt>
      <trkpt lat="50.11053" lon="4.18446">
        <ele>179</ele>
        <time>2024-04-16T05:29:27Z</time>
      </trkpt>
      <trkpt lat="50.11053" lon="4.18446">
        <ele>179</ele>
        <time>2024-04-16T05:29:28Z</time>
      </trkpt>
      <trkpt lat="50.11057" lon="4.18439">
        <ele>179.2</ele>
        <time>2024-04-16T05:29:29Z</time>
      </trkpt>
      <trkpt lat="50.1106" lon="4.18432">
        <ele>179.2</ele>
        <time>2024-04-16T05:29:30Z</time>
      </trkpt>
      <trkpt lat="50.11068" lon="4.18418">
        <ele>179.2</ele>
        <time>2024-04-16T05:29:31Z</time>
      </trkpt>
      <trkpt lat="50.11072" lon="4.18412">
        <ele>179.6</ele>
        <time>2024-04-16T05:29:32Z</time>
      </trkpt>
      <trkpt lat="50.11077" lon="4.18406">
        <ele>179.6</ele>
        <time>2024-04-16T05:29:33Z</time>
      </trkpt>
      <trkpt lat="50.11082" lon="4.184">
        <ele>179.8</ele>
        <time>2024-04-16T05:29:34Z</time>
      </trkpt>
      <trkpt lat="50.11088" lon="4.18394">
        <ele>179.8</ele>
        <time>2024-04-16T05:29:35Z</time>
      </trkpt>
      <trkpt lat="50.11094" lon="4.18389">
        <ele>179.8</ele>
        <time>2024-04-16T05:29:36Z</time>
      </trkpt>
      <trkpt lat="50.11094" lon="4.18389">
        <ele>179.8</ele>
        <time>2024-04-16T05:29:37Z</time>
      </trkpt>
      <trkpt lat="50.11107" lon="4.1838">
        <ele>179.8</ele>
        <time>2024-04-16T05:29:38Z</time>
      </trkpt>
      <trkpt lat="50.11107" lon="4.1838">
        <ele>179.8</ele>
        <time>2024-04-16T05:29:39Z</time>
      </trkpt>
      <trkpt lat="50.11121" lon="4.18371">
        <ele>180</ele>
        <time>2024-04-16T05:29:40Z</time>
      </trkpt>
      <trkpt lat="50.11121" lon="4.18371">
        <ele>179.8</ele>
        <time>2024-04-16T05:29:41Z</time>
      </trkpt>
      <trkpt lat="50.11135" lon="4.18363">
        <ele>179.8</ele>
        <time>2024-04-16T05:29:42Z</time>
      </trkpt>
      <trkpt lat="50.11143" lon="4.1836">
        <ele>179.4</ele>
        <time>2024-04-16T05:29:43Z</time>
      </trkpt>
      <trkpt lat="50.1115" lon="4.18356">
        <ele>179</ele>
        <time>2024-04-16T05:29:44Z</time>
      </trkpt>
      <trkpt lat="50.1115" lon="4.18356">
        <ele>179</ele>
        <time>2024-04-16T05:29:45Z</time>
      </trkpt>
      <trkpt lat="50.11167" lon="4.18351">
        <ele>178.6</ele>
        <time>2024-04-16T05:29:46Z</time>
      </trkpt>
      <trkpt lat="50.11176" lon="4.18349">
        <ele>178.2</ele>
        <time>2024-04-16T05:29:47Z</time>
      </trkpt>
      <trkpt lat="50.11185" lon="4.18347">
        <ele>178.2</ele>
        <time>2024-04-16T05:29:48Z</time>
      </trkpt>
      <trkpt lat="50.11185" lon="4.18347">
        <ele>177.8</ele>
        <time>2024-04-16T05:29:49Z</time>
      </trkpt>
      <trkpt lat="50.11204" lon="4.18343">
        <ele>177.6</ele>
        <time>2024-04-16T05:29:50Z</time>
      </trkpt>
      <trkpt lat="50.11214" lon="4.1834">
        <ele>177</ele>
        <time>2024-04-16T05:29:51Z</time>
      </trkpt>
      <trkpt lat="50.11224" lon="4.18336">
        <ele>176.8</ele>
        <time>2024-04-16T05:29:52Z</time>
      </trkpt>
      <trkpt lat="50.11234" lon="4.18332">
        <ele>176.4</ele>
        <time>2024-04-16T05:29:53Z</time>
      </trkpt>
      <trkpt lat="50.11234" lon="4.18332">
        <ele>175.8</ele>
        <time>2024-04-16T05:29:54Z</time>
      </trkpt>
      <trkpt lat="50.11252" lon="4.18326">
        <ele>175</ele>
        <time>2024-04-16T05:29:55Z</time>
      </trkpt>
      <trkpt lat="50.11261" lon="4.18322">
        <ele>174</ele>
        <time>2024-04-16T05:29:56Z</time>
      </trkpt>
      <trkpt lat="50.11269" lon="4.18318">
        <ele>173.4</ele>
        <time>2024-04-16T05:29:57Z</time>
      </trkpt>
      <trkpt lat="50.11269" lon="4.18318">
        <ele>172.6</ele>
        <time>2024-04-16T05:29:58Z</time>
      </trkpt>
      <trkpt lat="50.11283" lon="4.18311">
        <ele>171.6</ele>
        <time>2024-04-16T05:29:59Z</time>
      </trkpt>
      <trkpt lat="50.11289" lon="4.18306">
        <ele>170.8</ele>
        <time>2024-04-16T05:30:00Z</time>
      </trkpt>
      <trkpt lat="50.11289" lon="4.18306">
        <ele>170.4</ele>
        <time>2024-04-16T05:30:01Z</time>
      </trkpt>
      <trkpt lat="50.11302" lon="4.18297">
        <ele>170.2</ele>
        <time>2024-04-16T05:30:02Z</time>
      </trkpt>
      <trkpt lat="50.11308" lon="4.18293">
        <ele>170.2</ele>
        <time>2024-04-16T05:30:03Z</time>
      </trkpt>
      <trkpt lat="50.11313" lon="4.18288">
        <ele>170.2</ele>
        <time>2024-04-16T05:30:04Z</time>
      </trkpt>
      <trkpt lat="50.11319" lon="4.18282">
        <ele>170.2</ele>
        <time>2024-04-16T05:30:05Z</time>
      </trkpt>
      <trkpt lat="50.11325" lon="4.18277">
        <ele>170.2</ele>
        <time>2024-04-16T05:30:06Z</time>
      </trkpt>
      <trkpt lat="50.11331" lon="4.18272">
        <ele>170.2</ele>
        <time>2024-04-16T05:30:07Z</time>
      </trkpt>
      <trkpt lat="50.11337" lon="4.18266">
        <ele>170</ele>
        <time>2024-04-16T05:30:08Z</time>
      </trkpt>
      <trkpt lat="50.11344" lon="4.18261">
        <ele>170.2</ele>
        <time>2024-04-16T05:30:09Z</time>
      </trkpt>
      <trkpt lat="50.1135" lon="4.18255">
        <ele>170.2</ele>
        <time>2024-04-16T05:30:10Z</time>
      </trkpt>
      <trkpt lat="50.1135" lon="4.18255">
        <ele>170.2</ele>
        <time>2024-04-16T05:30:11Z</time>
      </trkpt>
      <trkpt lat="50.11357" lon="4.18249">
        <ele>170.4</ele>
        <time>2024-04-16T05:30:12Z</time>
      </trkpt>
      <trkpt lat="50.11371" lon="4.18236">
        <ele>170.4</ele>
        <time>2024-04-16T05:30:13Z</time>
      </trkpt>
      <trkpt lat="50.11378" lon="4.1823">
        <ele>170.4</ele>
        <time>2024-04-16T05:30:14Z</time>
      </trkpt>
      <trkpt lat="50.11385" lon="4.18223">
        <ele>170.4</ele>
        <time>2024-04-16T05:30:15Z</time>
      </trkpt>
      <trkpt lat="50.11385" lon="4.18223">
        <ele>170.4</ele>
        <time>2024-04-16T05:30:16Z</time>
      </trkpt>
      <trkpt lat="50.114" lon="4.18212">
        <ele>170.4</ele>
        <time>2024-04-16T05:30:17Z</time>
      </trkpt>
      <trkpt lat="50.114" lon="4.18212">
        <ele>170.4</ele>
        <time>2024-04-16T05:30:18Z</time>
      </trkpt>
      <trkpt lat="50.11414" lon="4.182">
        <ele>170.4</ele>
        <time>2024-04-16T05:30:19Z</time>
      </trkpt>
      <trkpt lat="50.11421" lon="4.18195">
        <ele>170.4</ele>
        <time>2024-04-16T05:30:20Z</time>
      </trkpt>
      <trkpt lat="50.11421" lon="4.18195">
        <ele>170.2</ele>
        <time>2024-04-16T05:30:21Z</time>
      </trkpt>
      <trkpt lat="50.11427" lon="4.1819">
        <ele>170.2</ele>
        <time>2024-04-16T05:30:22Z</time>
      </trkpt>
      <trkpt lat="50.11433" lon="4.18186">
        <ele>170.2</ele>
        <time>2024-04-16T05:30:23Z</time>
      </trkpt>
      <trkpt lat="50.11444" lon="4.18178">
        <ele>170.2</ele>
        <time>2024-04-16T05:30:24Z</time>
      </trkpt>
      <trkpt lat="50.11449" lon="4.18174">
        <ele>170.2</ele>
        <time>2024-04-16T05:30:25Z</time>
      </trkpt>
      <trkpt lat="50.11454" lon="4.18171">
        <ele>170.2</ele>
        <time>2024-04-16T05:30:26Z</time>
      </trkpt>
      <trkpt lat="50.11454" lon="4.18171">
        <ele>170.2</ele>
        <time>2024-04-16T05:30:27Z</time>
      </trkpt>
      <trkpt lat="50.11463" lon="4.18163">
        <ele>170.2</ele>
        <time>2024-04-16T05:30:28Z</time>
      </trkpt>
      <trkpt lat="50.11467" lon="4.18159">
        <ele>170.2</ele>
        <time>2024-04-16T05:30:29Z</time>
      </trkpt>
      <trkpt lat="50.11471" lon="4.18155">
        <ele>170</ele>
        <time>2024-04-16T05:30:30Z</time>
      </trkpt>
      <trkpt lat="50.11471" lon="4.18155">
        <ele>170.2</ele>
        <time>2024-04-16T05:30:31Z</time>
      </trkpt>
      <trkpt lat="50.11478" lon="4.18147">
        <ele>170.6</ele>
        <time>2024-04-16T05:30:32Z</time>
      </trkpt>
      <trkpt lat="50.11481" lon="4.18142">
        <ele>171.2</ele>
        <time>2024-04-16T05:30:33Z</time>
      </trkpt>
      <trkpt lat="50.11481" lon="4.18142">
        <ele>171.8</ele>
        <time>2024-04-16T05:30:34Z</time>
      </trkpt>
      <trkpt lat="50.11488" lon="4.18134">
        <ele>172.4</ele>
        <time>2024-04-16T05:30:35Z</time>
      </trkpt>
      <trkpt lat="50.11488" lon="4.18134">
        <ele>173.2</ele>
        <time>2024-04-16T05:30:36Z</time>
      </trkpt>
      <trkpt lat="50.11494" lon="4.18125">
        <ele>173.6</ele>
        <time>2024-04-16T05:30:37Z</time>
      </trkpt>
      <trkpt lat="50.11497" lon="4.18121">
        <ele>174.2</ele>
        <time>2024-04-16T05:30:38Z</time>
      </trkpt>
      <trkpt lat="50.115" lon="4.18117">
        <ele>174.6</ele>
        <time>2024-04-16T05:30:39Z</time>
      </trkpt>
      <trkpt lat="50.11503" lon="4.18112">
        <ele>174.8</ele>
        <time>2024-04-16T05:30:40Z</time>
      </trkpt>
      <trkpt lat="50.11506" lon="4.18108">
        <ele>175</ele>
        <time>2024-04-16T05:30:41Z</time>
      </trkpt>
      <trkpt lat="50.11509" lon="4.18104">
        <ele>175.2</ele>
        <time>2024-04-16T05:30:42Z</time>
      </trkpt>
      <trkpt lat="50.11513" lon="4.18101">
        <ele>175.4</ele>
        <time>2024-04-16T05:30:43Z</time>
      </trkpt>
      <trkpt lat="50.11516" lon="4.18098">
        <ele>175.4</ele>
        <time>2024-04-16T05:30:44Z</time>
      </trkpt>
      <trkpt lat="50.1152" lon="4.18094">
        <ele>176</ele>
        <time>2024-04-16T05:30:45Z</time>
      </trkpt>
      <trkpt lat="50.11524" lon="4.18091">
        <ele>176.6</ele>
        <time>2024-04-16T05:30:46Z</time>
      </trkpt>
      <trkpt lat="50.11527" lon="4.18088">
        <ele>176.8</ele>
        <time>2024-04-16T05:30:47Z</time>
      </trkpt>
      <trkpt lat="50.11527" lon="4.18088">
        <ele>177.4</ele>
        <time>2024-04-16T05:30:48Z</time>
      </trkpt>
      <trkpt lat="50.11535" lon="4.18082">
        <ele>177.6</ele>
        <time>2024-04-16T05:30:49Z</time>
      </trkpt>
      <trkpt lat="50.11538" lon="4.18079">
        <ele>177.6</ele>
        <time>2024-04-16T05:30:50Z</time>
      </trkpt>
      <trkpt lat="50.11542" lon="4.18076">
        <ele>178.4</ele>
        <time>2024-04-16T05:30:51Z</time>
      </trkpt>
      <trkpt lat="50.11542" lon="4.18076">
        <ele>178.8</ele>
        <time>2024-04-16T05:30:52Z</time>
      </trkpt>
      <trkpt lat="50.11549" lon="4.18069">
        <ele>179.2</ele>
        <time>2024-04-16T05:30:53Z</time>
      </trkpt>
      <trkpt lat="50.11553" lon="4.18064">
        <ele>179.4</ele>
        <time>2024-04-16T05:30:54Z</time>
      </trkpt>
      <trkpt lat="50.11553" lon="4.18064">
        <ele>180</ele>
        <time>2024-04-16T05:30:55Z</time>
      </trkpt>
      <trkpt lat="50.11556" lon="4.1806">
        <ele>180.4</ele>
        <time>2024-04-16T05:30:56Z</time>
      </trkpt>
      <trkpt lat="50.11559" lon="4.18055">
        <ele>180.6</ele>
        <time>2024-04-16T05:30:57Z</time>
      </trkpt>
      <trkpt lat="50.11566" lon="4.18043">
        <ele>180.8</ele>
        <time>2024-04-16T05:30:58Z</time>
      </trkpt>
      <trkpt lat="50.1157" lon="4.18037">
        <ele>181</ele>
        <time>2024-04-16T05:30:59Z</time>
      </trkpt>
      <trkpt lat="50.11574" lon="4.1803">
        <ele>181.2</ele>
        <time>2024-04-16T05:31:00Z</time>
      </trkpt>
      <trkpt lat="50.11577" lon="4.18022">
        <ele>181</ele>
        <time>2024-04-16T05:31:01Z</time>
      </trkpt>
      <trkpt lat="50.11577" lon="4.18022">
        <ele>181.2</ele>
        <time>2024-04-16T05:31:02Z</time>
      </trkpt>
      <trkpt lat="50.11581" lon="4.18015">
        <ele>181.2</ele>
        <time>2024-04-16T05:31:03Z</time>
      </trkpt>
      <trkpt lat="50.11592" lon="4.18">
        <ele>181.2</ele>
        <time>2024-04-16T05:31:04Z</time>
      </trkpt>
      <trkpt lat="50.11598" lon="4.17992">
        <ele>181.2</ele>
        <time>2024-04-16T05:31:05Z</time>
      </trkpt>
      <trkpt lat="50.11604" lon="4.17984">
        <ele>181.2</ele>
        <time>2024-04-16T05:31:06Z</time>
      </trkpt>
      <trkpt lat="50.11604" lon="4.17984">
        <ele>181.2</ele>
        <time>2024-04-16T05:31:07Z</time>
      </trkpt>
      <trkpt lat="50.11618" lon="4.17969">
        <ele>181.2</ele>
        <time>2024-04-16T05:31:08Z</time>
      </trkpt>
      <trkpt lat="50.11626" lon="4.17961">
        <ele>181.2</ele>
        <time>2024-04-16T05:31:09Z</time>
      </trkpt>
      <trkpt lat="50.11626" lon="4.17961">
        <ele>180.6</ele>
        <time>2024-04-16T05:31:10Z</time>
      </trkpt>
      <trkpt lat="50.11643" lon="4.17944">
        <ele>180.2</ele>
        <time>2024-04-16T05:31:11Z</time>
      </trkpt>
      <trkpt lat="50.11651" lon="4.17935">
        <ele>180.2</ele>
        <time>2024-04-16T05:31:12Z</time>
      </trkpt>
      <trkpt lat="50.11651" lon="4.17935">
        <ele>179.8</ele>
        <time>2024-04-16T05:31:13Z</time>
      </trkpt>
      <trkpt lat="50.1167" lon="4.17918">
        <ele>179.4</ele>
        <time>2024-04-16T05:31:14Z</time>
      </trkpt>
      <trkpt lat="50.1167" lon="4.17918">
        <ele>179.4</ele>
        <time>2024-04-16T05:31:15Z</time>
      </trkpt>
      <trkpt lat="50.11681" lon="4.1791">
        <ele>178.4</ele>
        <time>2024-04-16T05:31:16Z</time>
      </trkpt>
      <trkpt lat="50.11692" lon="4.17903">
        <ele>177.6</ele>
        <time>2024-04-16T05:31:17Z</time>
      </trkpt>
      <trkpt lat="50.11703" lon="4.17897">
        <ele>176.6</ele>
        <time>2024-04-16T05:31:18Z</time>
      </trkpt>
      <trkpt lat="50.11715" lon="4.17891">
        <ele>175.8</ele>
        <time>2024-04-16T05:31:19Z</time>
      </trkpt>
      <trkpt lat="50.11738" lon="4.17882">
        <ele>175</ele>
        <time>2024-04-16T05:31:20Z</time>
      </trkpt>
      <trkpt lat="50.11738" lon="4.17882">
        <ele>173.8</ele>
        <time>2024-04-16T05:31:21Z</time>
      </trkpt>
      <trkpt lat="50.11749" lon="4.17877">
        <ele>172.4</ele>
        <time>2024-04-16T05:31:22Z</time>
      </trkpt>
      <trkpt lat="50.1176" lon="4.17871">
        <ele>171.6</ele>
        <time>2024-04-16T05:31:23Z</time>
      </trkpt>
      <trkpt lat="50.1177" lon="4.17865">
        <ele>170.4</ele>
        <time>2024-04-16T05:31:24Z</time>
      </trkpt>
      <trkpt lat="50.11779" lon="4.17858">
        <ele>169.4</ele>
        <time>2024-04-16T05:31:25Z</time>
      </trkpt>
      <trkpt lat="50.11795" lon="4.17842">
        <ele>168.6</ele>
        <time>2024-04-16T05:31:26Z</time>
      </trkpt>
      <trkpt lat="50.11803" lon="4.17834">
        <ele>168.6</ele>
        <time>2024-04-16T05:31:27Z</time>
      </trkpt>
      <trkpt lat="50.1181" lon="4.17827">
        <ele>168</ele>
        <time>2024-04-16T05:31:28Z</time>
      </trkpt>
      <trkpt lat="50.1181" lon="4.17827">
        <ele>167.4</ele>
        <time>2024-04-16T05:31:29Z</time>
      </trkpt>
      <trkpt lat="50.11817" lon="4.1782">
        <ele>166.8</ele>
        <time>2024-04-16T05:31:30Z</time>
      </trkpt>
      <trkpt lat="50.11831" lon="4.17805">
        <ele>166.4</ele>
        <time>2024-04-16T05:31:31Z</time>
      </trkpt>
      <trkpt lat="50.11831" lon="4.17805">
        <ele>166</ele>
        <time>2024-04-16T05:31:32Z</time>
      </trkpt>
      <trkpt lat="50.11838" lon="4.17798">
        <ele>166</ele>
        <time>2024-04-16T05:31:33Z</time>
      </trkpt>
      <trkpt lat="50.11846" lon="4.17794">
        <ele>166</ele>
        <time>2024-04-16T05:31:34Z</time>
      </trkpt>
      <trkpt lat="50.11863" lon="4.1779">
        <ele>166</ele>
        <time>2024-04-16T05:31:35Z</time>
      </trkpt>
      <trkpt lat="50.11863" lon="4.1779">
        <ele>165.8</ele>
        <time>2024-04-16T05:31:36Z</time>
      </trkpt>
      <trkpt lat="50.11879" lon="4.17789">
        <ele>166</ele>
        <time>2024-04-16T05:31:37Z</time>
      </trkpt>
      <trkpt lat="50.11879" lon="4.17789">
        <ele>165.8</ele>
        <time>2024-04-16T05:31:38Z</time>
      </trkpt>
      <trkpt lat="50.11895" lon="4.17789">
        <ele>165.8</ele>
        <time>2024-04-16T05:31:39Z</time>
      </trkpt>
      <trkpt lat="50.11902" lon="4.1779">
        <ele>165.8</ele>
        <time>2024-04-16T05:31:40Z</time>
      </trkpt>
      <trkpt lat="50.1191" lon="4.17791">
        <ele>165.8</ele>
        <time>2024-04-16T05:31:41Z</time>
      </trkpt>
      <trkpt lat="50.11917" lon="4.17792">
        <ele>166</ele>
        <time>2024-04-16T05:31:42Z</time>
      </trkpt>
      <trkpt lat="50.11924" lon="4.17792">
        <ele>166</ele>
        <time>2024-04-16T05:31:43Z</time>
      </trkpt>
      <trkpt lat="50.11931" lon="4.17791">
        <ele>165.8</ele>
        <time>2024-04-16T05:31:44Z</time>
      </trkpt>
      <trkpt lat="50.11937" lon="4.1779">
        <ele>166</ele>
        <time>2024-04-16T05:31:45Z</time>
      </trkpt>
      <trkpt lat="50.11944" lon="4.17789">
        <ele>165.8</ele>
        <time>2024-04-16T05:31:46Z</time>
      </trkpt>
      <trkpt lat="50.1195" lon="4.17787">
        <ele>166</ele>
        <time>2024-04-16T05:31:47Z</time>
      </trkpt>
      <trkpt lat="50.11956" lon="4.17785">
        <ele>166</ele>
        <time>2024-04-16T05:31:48Z</time>
      </trkpt>
      <trkpt lat="50.11956" lon="4.17785">
        <ele>166.2</ele>
        <time>2024-04-16T05:31:49Z</time>
      </trkpt>
      <trkpt lat="50.11966" lon="4.17776">
        <ele>166.4</ele>
        <time>2024-04-16T05:31:50Z</time>
      </trkpt>
      <trkpt lat="50.11971" lon="4.17771">
        <ele>166.8</ele>
        <time>2024-04-16T05:31:51Z</time>
      </trkpt>
      <trkpt lat="50.11971" lon="4.17771">
        <ele>167.2</ele>
        <time>2024-04-16T05:31:52Z</time>
      </trkpt>
      <trkpt lat="50.11975" lon="4.17765">
        <ele>167.8</ele>
        <time>2024-04-16T05:31:53Z</time>
      </trkpt>
      <trkpt lat="50.11978" lon="4.17759">
        <ele>168.4</ele>
        <time>2024-04-16T05:31:54Z</time>
      </trkpt>
      <trkpt lat="50.11981" lon="4.17752">
        <ele>168.8</ele>
        <time>2024-04-16T05:31:55Z</time>
      </trkpt>
      <trkpt lat="50.11983" lon="4.17744">
        <ele>168.8</ele>
        <time>2024-04-16T05:31:56Z</time>
      </trkpt>
      <trkpt lat="50.11985" lon="4.17737">
        <ele>169.2</ele>
        <time>2024-04-16T05:31:57Z</time>
      </trkpt>
      <trkpt lat="50.11986" lon="4.17721">
        <ele>169.6</ele>
        <time>2024-04-16T05:31:58Z</time>
      </trkpt>
      <trkpt lat="50.11986" lon="4.17721">
        <ele>170</ele>
        <time>2024-04-16T05:31:59Z</time>
      </trkpt>
      <trkpt lat="50.11988" lon="4.17705">
        <ele>170.4</ele>
        <time>2024-04-16T05:32:00Z</time>
      </trkpt>
      <trkpt lat="50.11989" lon="4.17697">
        <ele>170.4</ele>
        <time>2024-04-16T05:32:01Z</time>
      </trkpt>
      <trkpt lat="50.11989" lon="4.17697">
        <ele>170.6</ele>
        <time>2024-04-16T05:32:02Z</time>
      </trkpt>
      <trkpt lat="50.11991" lon="4.1768">
        <ele>170.6</ele>
        <time>2024-04-16T05:32:03Z</time>
      </trkpt>
      <trkpt lat="50.11992" lon="4.17671">
        <ele>170.8</ele>
        <time>2024-04-16T05:32:04Z</time>
      </trkpt>
      <trkpt lat="50.11993" lon="4.17662">
        <ele>170.8</ele>
        <time>2024-04-16T05:32:05Z</time>
      </trkpt>
      <trkpt lat="50.11994" lon="4.17653">
        <ele>170.8</ele>
        <time>2024-04-16T05:32:06Z</time>
      </trkpt>
      <trkpt lat="50.11995" lon="4.17644">
        <ele>171</ele>
        <time>2024-04-16T05:32:07Z</time>
      </trkpt>
      <trkpt lat="50.11997" lon="4.17635">
        <ele>171.2</ele>
        <time>2024-04-16T05:32:08Z</time>
      </trkpt>
      <trkpt lat="50.11998" lon="4.17625">
        <ele>171.6</ele>
        <time>2024-04-16T05:32:09Z</time>
      </trkpt>
      <trkpt lat="50.11998" lon="4.17625">
        <ele>171.8</ele>
        <time>2024-04-16T05:32:10Z</time>
      </trkpt>
      <trkpt lat="50.12002" lon="4.17606">
        <ele>172</ele>
        <time>2024-04-16T05:32:11Z</time>
      </trkpt>
      <trkpt lat="50.12003" lon="4.17596">
        <ele>172.2</ele>
        <time>2024-04-16T05:32:12Z</time>
      </trkpt>
      <trkpt lat="50.12005" lon="4.17586">
        <ele>172.4</ele>
        <time>2024-04-16T05:32:13Z</time>
      </trkpt>
      <trkpt lat="50.12007" lon="4.17576">
        <ele>172.8</ele>
        <time>2024-04-16T05:32:14Z</time>
      </trkpt>
      <trkpt lat="50.12009" lon="4.17565">
        <ele>173</ele>
        <time>2024-04-16T05:32:15Z</time>
      </trkpt>
      <trkpt lat="50.12012" lon="4.17555">
        <ele>173.4</ele>
        <time>2024-04-16T05:32:16Z</time>
      </trkpt>
      <trkpt lat="50.12014" lon="4.17545">
        <ele>173.4</ele>
        <time>2024-04-16T05:32:17Z</time>
      </trkpt>
      <trkpt lat="50.12016" lon="4.17535">
        <ele>173.4</ele>
        <time>2024-04-16T05:32:18Z</time>
      </trkpt>
      <trkpt lat="50.12018" lon="4.17524">
        <ele>173.4</ele>
        <time>2024-04-16T05:32:19Z</time>
      </trkpt>
      <trkpt lat="50.12021" lon="4.17514">
        <ele>173.6</ele>
        <time>2024-04-16T05:32:20Z</time>
      </trkpt>
      <trkpt lat="50.12023" lon="4.17504">
        <ele>173.6</ele>
        <time>2024-04-16T05:32:21Z</time>
      </trkpt>
      <trkpt lat="50.12025" lon="4.17493">
        <ele>173.8</ele>
        <time>2024-04-16T05:32:22Z</time>
      </trkpt>
      <trkpt lat="50.12028" lon="4.17483">
        <ele>173.8</ele>
        <time>2024-04-16T05:32:23Z</time>
      </trkpt>
      <trkpt lat="50.12028" lon="4.17483">
        <ele>173.6</ele>
        <time>2024-04-16T05:32:24Z</time>
      </trkpt>
      <trkpt lat="50.12033" lon="4.17463">
        <ele>173.6</ele>
        <time>2024-04-16T05:32:25Z</time>
      </trkpt>
      <trkpt lat="50.12036" lon="4.17453">
        <ele>173.6</ele>
        <time>2024-04-16T05:32:26Z</time>
      </trkpt>
      <trkpt lat="50.12039" lon="4.17443">
        <ele>173.8</ele>
        <time>2024-04-16T05:32:27Z</time>
      </trkpt>
      <trkpt lat="50.12041" lon="4.17433">
        <ele>173.4</ele>
        <time>2024-04-16T05:32:28Z</time>
      </trkpt>
      <trkpt lat="50.12044" lon="4.17423">
        <ele>173.4</ele>
        <time>2024-04-16T05:32:29Z</time>
      </trkpt>
      <trkpt lat="50.12046" lon="4.17412">
        <ele>173.2</ele>
        <time>2024-04-16T05:32:30Z</time>
      </trkpt>
      <trkpt lat="50.12048" lon="4.17402">
        <ele>172.8</ele>
        <time>2024-04-16T05:32:31Z</time>
      </trkpt>
      <trkpt lat="50.1205" lon="4.17391">
        <ele>172.2</ele>
        <time>2024-04-16T05:32:32Z</time>
      </trkpt>
      <trkpt lat="50.12052" lon="4.1738">
        <ele>172.2</ele>
        <time>2024-04-16T05:32:33Z</time>
      </trkpt>
      <trkpt lat="50.12054" lon="4.1737">
        <ele>171.8</ele>
        <time>2024-04-16T05:32:34Z</time>
      </trkpt>
      <trkpt lat="50.12055" lon="4.17359">
        <ele>171.8</ele>
        <time>2024-04-16T05:32:35Z</time>
      </trkpt>
      <trkpt lat="50.12057" lon="4.17349">
        <ele>171.6</ele>
        <time>2024-04-16T05:32:36Z</time>
      </trkpt>
      <trkpt lat="50.12059" lon="4.17339">
        <ele>171.6</ele>
        <time>2024-04-16T05:32:37Z</time>
      </trkpt>
      <trkpt lat="50.12061" lon="4.17329">
        <ele>171.4</ele>
        <time>2024-04-16T05:32:38Z</time>
      </trkpt>
      <trkpt lat="50.12063" lon="4.17319">
        <ele>171.6</ele>
        <time>2024-04-16T05:32:39Z</time>
      </trkpt>
      <trkpt lat="50.12064" lon="4.17309">
        <ele>171.6</ele>
        <time>2024-04-16T05:32:40Z</time>
      </trkpt>
      <trkpt lat="50.12066" lon="4.17298">
        <ele>171.4</ele>
        <time>2024-04-16T05:32:41Z</time>
      </trkpt>
      <trkpt lat="50.12067" lon="4.17288">
        <ele>171.4</ele>
        <time>2024-04-16T05:32:42Z</time>
      </trkpt>
      <trkpt lat="50.12069" lon="4.17278">
        <ele>171.4</ele>
        <time>2024-04-16T05:32:43Z</time>
      </trkpt>
      <trkpt lat="50.1207" lon="4.17267">
        <ele>171.4</ele>
        <time>2024-04-16T05:32:44Z</time>
      </trkpt>
      <trkpt lat="50.12072" lon="4.17257">
        <ele>171.6</ele>
        <time>2024-04-16T05:32:45Z</time>
      </trkpt>
      <trkpt lat="50.12072" lon="4.17257">
        <ele>171.4</ele>
        <time>2024-04-16T05:32:46Z</time>
      </trkpt>
      <trkpt lat="50.12075" lon="4.17236">
        <ele>171.2</ele>
        <time>2024-04-16T05:32:47Z</time>
      </trkpt>
      <trkpt lat="50.12077" lon="4.17225">
        <ele>171.4</ele>
        <time>2024-04-16T05:32:48Z</time>
      </trkpt>
      <trkpt lat="50.12078" lon="4.17214">
        <ele>171.2</ele>
        <time>2024-04-16T05:32:49Z</time>
      </trkpt>
      <trkpt lat="50.1208" lon="4.17203">
        <ele>171</ele>
        <time>2024-04-16T05:32:50Z</time>
      </trkpt>
      <trkpt lat="50.12081" lon="4.17192">
        <ele>171.2</ele>
        <time>2024-04-16T05:32:51Z</time>
      </trkpt>
      <trkpt lat="50.12082" lon="4.17181">
        <ele>171.2</ele>
        <time>2024-04-16T05:32:52Z</time>
      </trkpt>
      <trkpt lat="50.12083" lon="4.17169">
        <ele>171.2</ele>
        <time>2024-04-16T05:32:53Z</time>
      </trkpt>
      <trkpt lat="50.12084" lon="4.17158">
        <ele>171.2</ele>
        <time>2024-04-16T05:32:54Z</time>
      </trkpt>
      <trkpt lat="50.12085" lon="4.17147">
        <ele>171.2</ele>
        <time>2024-04-16T05:32:55Z</time>
      </trkpt>
      <trkpt lat="50.12086" lon="4.17136">
        <ele>171</ele>
        <time>2024-04-16T05:32:56Z</time>
      </trkpt>
      <trkpt lat="50.12086" lon="4.17136">
        <ele>171</ele>
        <time>2024-04-16T05:32:57Z</time>
      </trkpt>
      <trkpt lat="50.12088" lon="4.17115">
        <ele>170.8</ele>
        <time>2024-04-16T05:32:58Z</time>
      </trkpt>
      <trkpt lat="50.12089" lon="4.17104">
        <ele>170.6</ele>
        <time>2024-04-16T05:32:59Z</time>
      </trkpt>
      <trkpt lat="50.1209" lon="4.17094">
        <ele>170.8</ele>
        <time>2024-04-16T05:33:00Z</time>
      </trkpt>
      <trkpt lat="50.12092" lon="4.17083">
        <ele>170.8</ele>
        <time>2024-04-16T05:33:01Z</time>
      </trkpt>
      <trkpt lat="50.12095" lon="4.17073">
        <ele>170.6</ele>
        <time>2024-04-16T05:33:02Z</time>
      </trkpt>
      <trkpt lat="50.12097" lon="4.17063">
        <ele>170.4</ele>
        <time>2024-04-16T05:33:03Z</time>
      </trkpt>
      <trkpt lat="50.121" lon="4.17054">
        <ele>170.4</ele>
        <time>2024-04-16T05:33:04Z</time>
      </trkpt>
      <trkpt lat="50.12102" lon="4.17044">
        <ele>170.2</ele>
        <time>2024-04-16T05:33:05Z</time>
      </trkpt>
      <trkpt lat="50.12104" lon="4.17034">
        <ele>170.2</ele>
        <time>2024-04-16T05:33:06Z</time>
      </trkpt>
      <trkpt lat="50.12106" lon="4.17024">
        <ele>170.2</ele>
        <time>2024-04-16T05:33:07Z</time>
      </trkpt>
      <trkpt lat="50.12108" lon="4.17013">
        <ele>170.4</ele>
        <time>2024-04-16T05:33:08Z</time>
      </trkpt>
      <trkpt lat="50.12109" lon="4.17003">
        <ele>170.4</ele>
        <time>2024-04-16T05:33:09Z</time>
      </trkpt>
      <trkpt lat="50.12111" lon="4.16992">
        <ele>170.6</ele>
        <time>2024-04-16T05:33:10Z</time>
      </trkpt>
      <trkpt lat="50.12112" lon="4.16981">
        <ele>170.6</ele>
        <time>2024-04-16T05:33:11Z</time>
      </trkpt>
      <trkpt lat="50.12114" lon="4.1697">
        <ele>170.8</ele>
        <time>2024-04-16T05:33:12Z</time>
      </trkpt>
      <trkpt lat="50.12115" lon="4.16959">
        <ele>170.6</ele>
        <time>2024-04-16T05:33:13Z</time>
      </trkpt>
      <trkpt lat="50.12117" lon="4.16948">
        <ele>170.8</ele>
        <time>2024-04-16T05:33:14Z</time>
      </trkpt>
      <trkpt lat="50.12118" lon="4.16937">
        <ele>171</ele>
        <time>2024-04-16T05:33:15Z</time>
      </trkpt>
      <trkpt lat="50.1212" lon="4.16926">
        <ele>171.2</ele>
        <time>2024-04-16T05:33:16Z</time>
      </trkpt>
      <trkpt lat="50.12121" lon="4.16915">
        <ele>171.2</ele>
        <time>2024-04-16T05:33:17Z</time>
      </trkpt>
      <trkpt lat="50.12122" lon="4.16904">
        <ele>171</ele>
        <time>2024-04-16T05:33:18Z</time>
      </trkpt>
      <trkpt lat="50.12124" lon="4.16893">
        <ele>171</ele>
        <time>2024-04-16T05:33:19Z</time>
      </trkpt>
      <trkpt lat="50.12126" lon="4.16882">
        <ele>171</ele>
        <time>2024-04-16T05:33:20Z</time>
      </trkpt>
      <trkpt lat="50.12127" lon="4.1687">
        <ele>171.2</ele>
        <time>2024-04-16T05:33:21Z</time>
      </trkpt>
      <trkpt lat="50.12129" lon="4.16859">
        <ele>171</ele>
        <time>2024-04-16T05:33:22Z</time>
      </trkpt>
      <trkpt lat="50.12131" lon="4.16847">
        <ele>171</ele>
        <time>2024-04-16T05:33:23Z</time>
      </trkpt>
      <trkpt lat="50.12134" lon="4.16835">
        <ele>171</ele>
        <time>2024-04-16T05:33:24Z</time>
      </trkpt>
      <trkpt lat="50.12137" lon="4.16823">
        <ele>171</ele>
        <time>2024-04-16T05:33:25Z</time>
      </trkpt>
      <trkpt lat="50.1214" lon="4.16811">
        <ele>170.8</ele>
        <time>2024-04-16T05:33:26Z</time>
      </trkpt>
      <trkpt lat="50.12144" lon="4.16799">
        <ele>170.8</ele>
        <time>2024-04-16T05:33:27Z</time>
      </trkpt>
      <trkpt lat="50.12148" lon="4.16787">
        <ele>170.6</ele>
        <time>2024-04-16T05:33:28Z</time>
      </trkpt>
      <trkpt lat="50.12152" lon="4.16776">
        <ele>170.4</ele>
        <time>2024-04-16T05:33:29Z</time>
      </trkpt>
      <trkpt lat="50.12156" lon="4.16764">
        <ele>170.4</ele>
        <time>2024-04-16T05:33:30Z</time>
      </trkpt>
      <trkpt lat="50.12161" lon="4.16753">
        <ele>170</ele>
        <time>2024-04-16T05:33:31Z</time>
      </trkpt>
      <trkpt lat="50.12165" lon="4.16741">
        <ele>169.4</ele>
        <time>2024-04-16T05:33:32Z</time>
      </trkpt>
      <trkpt lat="50.12169" lon="4.1673">
        <ele>168.6</ele>
        <time>2024-04-16T05:33:33Z</time>
      </trkpt>
      <trkpt lat="50.12174" lon="4.1672">
        <ele>168.2</ele>
        <time>2024-04-16T05:33:34Z</time>
      </trkpt>
      <trkpt lat="50.12178" lon="4.1671">
        <ele>167.8</ele>
        <time>2024-04-16T05:33:35Z</time>
      </trkpt>
      <trkpt lat="50.12182" lon="4.167">
        <ele>167.6</ele>
        <time>2024-04-16T05:33:36Z</time>
      </trkpt>
      <trkpt lat="50.12187" lon="4.16691">
        <ele>167.4</ele>
        <time>2024-04-16T05:33:37Z</time>
      </trkpt>
      <trkpt lat="50.12191" lon="4.16682">
        <ele>167</ele>
        <time>2024-04-16T05:33:38Z</time>
      </trkpt>
      <trkpt lat="50.12195" lon="4.16674">
        <ele>167</ele>
        <time>2024-04-16T05:33:39Z</time>
      </trkpt>
      <trkpt lat="50.12199" lon="4.16666">
        <ele>167</ele>
        <time>2024-04-16T05:33:40Z</time>
      </trkpt>
      <trkpt lat="50.12204" lon="4.16658">
        <ele>167</ele>
        <time>2024-04-16T05:33:41Z</time>
      </trkpt>
      <trkpt lat="50.12208" lon="4.1665">
        <ele>167</ele>
        <time>2024-04-16T05:33:42Z</time>
      </trkpt>
      <trkpt lat="50.12212" lon="4.16643">
        <ele>167</ele>
        <time>2024-04-16T05:33:43Z</time>
      </trkpt>
      <trkpt lat="50.12216" lon="4.16636">
        <ele>167</ele>
        <time>2024-04-16T05:33:44Z</time>
      </trkpt>
      <trkpt lat="50.1222" lon="4.16629">
        <ele>167</ele>
        <time>2024-04-16T05:33:45Z</time>
      </trkpt>
      <trkpt lat="50.12224" lon="4.16622">
        <ele>167.2</ele>
        <time>2024-04-16T05:33:46Z</time>
      </trkpt>
      <trkpt lat="50.12224" lon="4.16622">
        <ele>167.2</ele>
        <time>2024-04-16T05:33:47Z</time>
      </trkpt>
      <trkpt lat="50.12231" lon="4.16609">
        <ele>167.8</ele>
        <time>2024-04-16T05:33:48Z</time>
      </trkpt>
      <trkpt lat="50.12234" lon="4.16602">
        <ele>167.8</ele>
        <time>2024-04-16T05:33:49Z</time>
      </trkpt>
      <trkpt lat="50.12238" lon="4.16595">
        <ele>168</ele>
        <time>2024-04-16T05:33:50Z</time>
      </trkpt>
      <trkpt lat="50.12241" lon="4.16587">
        <ele>168.8</ele>
        <time>2024-04-16T05:33:51Z</time>
      </trkpt>
      <trkpt lat="50.12241" lon="4.16587">
        <ele>169.4</ele>
        <time>2024-04-16T05:33:52Z</time>
      </trkpt>
      <trkpt lat="50.12246" lon="4.16572">
        <ele>170</ele>
        <time>2024-04-16T05:33:53Z</time>
      </trkpt>
      <trkpt lat="50.12248" lon="4.16565">
        <ele>170.6</ele>
        <time>2024-04-16T05:33:54Z</time>
      </trkpt>
      <trkpt lat="50.1225" lon="4.16556">
        <ele>170.8</ele>
        <time>2024-04-16T05:33:55Z</time>
      </trkpt>
      <trkpt lat="50.12251" lon="4.16548">
        <ele>171.2</ele>
        <time>2024-04-16T05:33:56Z</time>
      </trkpt>
      <trkpt lat="50.12253" lon="4.1654">
        <ele>171.8</ele>
        <time>2024-04-16T05:33:57Z</time>
      </trkpt>
      <trkpt lat="50.12254" lon="4.16531">
        <ele>172.4</ele>
        <time>2024-04-16T05:33:58Z</time>
      </trkpt>
      <trkpt lat="50.12254" lon="4.16531">
        <ele>172.8</ele>
        <time>2024-04-16T05:33:59Z</time>
      </trkpt>
      <trkpt lat="50.12256" lon="4.16513">
        <ele>172.8</ele>
        <time>2024-04-16T05:34:00Z</time>
      </trkpt>
      <trkpt lat="50.12257" lon="4.16504">
        <ele>173.2</ele>
        <time>2024-04-16T05:34:01Z</time>
      </trkpt>
      <trkpt lat="50.12259" lon="4.16494">
        <ele>173.4</ele>
        <time>2024-04-16T05:34:02Z</time>
      </trkpt>
      <trkpt lat="50.12259" lon="4.16494">
        <ele>173.4</ele>
        <time>2024-04-16T05:34:03Z</time>
      </trkpt>
      <trkpt lat="50.12263" lon="4.16476">
        <ele>173.6</ele>
        <time>2024-04-16T05:34:04Z</time>
      </trkpt>
      <trkpt lat="50.12265" lon="4.16467">
        <ele>173.6</ele>
        <time>2024-04-16T05:34:05Z</time>
      </trkpt>
      <trkpt lat="50.12268" lon="4.16458">
        <ele>173.8</ele>
        <time>2024-04-16T05:34:06Z</time>
      </trkpt>
      <trkpt lat="50.12271" lon="4.1645">
        <ele>173.8</ele>
        <time>2024-04-16T05:34:07Z</time>
      </trkpt>
      <trkpt lat="50.12275" lon="4.16441">
        <ele>173.8</ele>
        <time>2024-04-16T05:34:08Z</time>
      </trkpt>
      <trkpt lat="50.12278" lon="4.16433">
        <ele>174</ele>
        <time>2024-04-16T05:34:09Z</time>
      </trkpt>
      <trkpt lat="50.12282" lon="4.16424">
        <ele>174</ele>
        <time>2024-04-16T05:34:10Z</time>
      </trkpt>
      <trkpt lat="50.12285" lon="4.16416">
        <ele>174.2</ele>
        <time>2024-04-16T05:34:11Z</time>
      </trkpt>
      <trkpt lat="50.12289" lon="4.16407">
        <ele>174.4</ele>
        <time>2024-04-16T05:34:12Z</time>
      </trkpt>
      <trkpt lat="50.12289" lon="4.16407">
        <ele>174.6</ele>
        <time>2024-04-16T05:34:13Z</time>
      </trkpt>
      <trkpt lat="50.12292" lon="4.16399">
        <ele>174.6</ele>
        <time>2024-04-16T05:34:14Z</time>
      </trkpt>
      <trkpt lat="50.123" lon="4.16383">
        <ele>174.8</ele>
        <time>2024-04-16T05:34:15Z</time>
      </trkpt>
      <trkpt lat="50.12303" lon="4.16375">
        <ele>175</ele>
        <time>2024-04-16T05:34:16Z</time>
      </trkpt>
      <trkpt lat="50.12303" lon="4.16375">
        <ele>175</ele>
        <time>2024-04-16T05:34:17Z</time>
      </trkpt>
      <trkpt lat="50.1231" lon="4.16358">
        <ele>175.4</ele>
        <time>2024-04-16T05:34:18Z</time>
      </trkpt>
      <trkpt lat="50.12312" lon="4.1635">
        <ele>175.6</ele>
        <time>2024-04-16T05:34:19Z</time>
      </trkpt>
      <trkpt lat="50.12315" lon="4.16341">
        <ele>175.8</ele>
        <time>2024-04-16T05:34:20Z</time>
      </trkpt>
      <trkpt lat="50.12317" lon="4.16333">
        <ele>176</ele>
        <time>2024-04-16T05:34:21Z</time>
      </trkpt>
      <trkpt lat="50.12318" lon="4.16324">
        <ele>176.2</ele>
        <time>2024-04-16T05:34:22Z</time>
      </trkpt>
      <trkpt lat="50.12319" lon="4.16315">
        <ele>176.4</ele>
        <time>2024-04-16T05:34:23Z</time>
      </trkpt>
      <trkpt lat="50.1232" lon="4.16306">
        <ele>176.8</ele>
        <time>2024-04-16T05:34:24Z</time>
      </trkpt>
      <trkpt lat="50.12321" lon="4.16297">
        <ele>177</ele>
        <time>2024-04-16T05:34:25Z</time>
      </trkpt>
      <trkpt lat="50.12321" lon="4.16289">
        <ele>177.2</ele>
        <time>2024-04-16T05:34:26Z</time>
      </trkpt>
      <trkpt lat="50.12321" lon="4.1628">
        <ele>177.6</ele>
        <time>2024-04-16T05:34:27Z</time>
      </trkpt>
      <trkpt lat="50.1232" lon="4.16271">
        <ele>177.6</ele>
        <time>2024-04-16T05:34:28Z</time>
      </trkpt>
      <trkpt lat="50.12319" lon="4.16262">
        <ele>177.6</ele>
        <time>2024-04-16T05:34:29Z</time>
      </trkpt>
      <trkpt lat="50.12318" lon="4.16254">
        <ele>177.8</ele>
        <time>2024-04-16T05:34:30Z</time>
      </trkpt>
      <trkpt lat="50.12316" lon="4.16246">
        <ele>178</ele>
        <time>2024-04-16T05:34:31Z</time>
      </trkpt>
      <trkpt lat="50.12314" lon="4.16237">
        <ele>178.2</ele>
        <time>2024-04-16T05:34:32Z</time>
      </trkpt>
      <trkpt lat="50.12312" lon="4.16229">
        <ele>178.6</ele>
        <time>2024-04-16T05:34:33Z</time>
      </trkpt>
      <trkpt lat="50.1231" lon="4.16222">
        <ele>179</ele>
        <time>2024-04-16T05:34:34Z</time>
      </trkpt>
      <trkpt lat="50.12307" lon="4.16214">
        <ele>179.4</ele>
        <time>2024-04-16T05:34:35Z</time>
      </trkpt>
      <trkpt lat="50.12307" lon="4.16214">
        <ele>179.6</ele>
        <time>2024-04-16T05:34:36Z</time>
      </trkpt>
      <trkpt lat="50.123" lon="4.162">
        <ele>179.8</ele>
        <time>2024-04-16T05:34:37Z</time>
      </trkpt>
      <trkpt lat="50.12296" lon="4.16194">
        <ele>179.8</ele>
        <time>2024-04-16T05:34:38Z</time>
      </trkpt>
      <trkpt lat="50.12292" lon="4.16187">
        <ele>180</ele>
        <time>2024-04-16T05:34:39Z</time>
      </trkpt>
      <trkpt lat="50.12289" lon="4.1618">
        <ele>180</ele>
        <time>2024-04-16T05:34:40Z</time>
      </trkpt>
      <trkpt lat="50.12285" lon="4.16174">
        <ele>180.2</ele>
        <time>2024-04-16T05:34:41Z</time>
      </trkpt>
      <trkpt lat="50.12285" lon="4.16174">
        <ele>180.4</ele>
        <time>2024-04-16T05:34:42Z</time>
      </trkpt>
      <trkpt lat="50.12276" lon="4.16162">
        <ele>180.8</ele>
        <time>2024-04-16T05:34:43Z</time>
      </trkpt>
      <trkpt lat="50.12272" lon="4.16156">
        <ele>181.2</ele>
        <time>2024-04-16T05:34:44Z</time>
      </trkpt>
      <trkpt lat="50.12268" lon="4.16149">
        <ele>181.4</ele>
        <time>2024-04-16T05:34:45Z</time>
      </trkpt>
      <trkpt lat="50.12268" lon="4.16149">
        <ele>181.8</ele>
        <time>2024-04-16T05:34:46Z</time>
      </trkpt>
      <trkpt lat="50.12264" lon="4.16143">
        <ele>182.2</ele>
        <time>2024-04-16T05:34:47Z</time>
      </trkpt>
      <trkpt lat="50.1226" lon="4.16136">
        <ele>182.4</ele>
        <time>2024-04-16T05:34:48Z</time>
      </trkpt>
      <trkpt lat="50.12255" lon="4.1613">
        <ele>182.4</ele>
        <time>2024-04-16T05:34:49Z</time>
      </trkpt>
      <trkpt lat="50.12251" lon="4.16123">
        <ele>182.4</ele>
        <time>2024-04-16T05:34:50Z</time>
      </trkpt>
      <trkpt lat="50.12242" lon="4.16109">
        <ele>182.8</ele>
        <time>2024-04-16T05:34:51Z</time>
      </trkpt>
      <trkpt lat="50.12238" lon="4.16102">
        <ele>183.4</ele>
        <time>2024-04-16T05:34:52Z</time>
      </trkpt>
      <trkpt lat="50.12238" lon="4.16102">
        <ele>183.8</ele>
        <time>2024-04-16T05:34:53Z</time>
      </trkpt>
      <trkpt lat="50.12233" lon="4.16095">
        <ele>184.2</ele>
        <time>2024-04-16T05:34:54Z</time>
      </trkpt>
      <trkpt lat="50.12228" lon="4.16088">
        <ele>184.4</ele>
        <time>2024-04-16T05:34:55Z</time>
      </trkpt>
      <trkpt lat="50.12219" lon="4.16073">
        <ele>184.6</ele>
        <time>2024-04-16T05:34:56Z</time>
      </trkpt>
      <trkpt lat="50.12214" lon="4.16066">
        <ele>184.8</ele>
        <time>2024-04-16T05:34:57Z</time>
      </trkpt>
      <trkpt lat="50.12214" lon="4.16066">
        <ele>185</ele>
        <time>2024-04-16T05:34:58Z</time>
      </trkpt>
      <trkpt lat="50.12205" lon="4.16051">
        <ele>185</ele>
        <time>2024-04-16T05:34:59Z</time>
      </trkpt>
      <trkpt lat="50.122" lon="4.16044">
        <ele>185</ele>
        <time>2024-04-16T05:35:00Z</time>
      </trkpt>
      <trkpt lat="50.12196" lon="4.16036">
        <ele>185.2</ele>
        <time>2024-04-16T05:35:01Z</time>
      </trkpt>
      <trkpt lat="50.12191" lon="4.16029">
        <ele>185.2</ele>
        <time>2024-04-16T05:35:02Z</time>
      </trkpt>
      <trkpt lat="50.12186" lon="4.16022">
        <ele>185.2</ele>
        <time>2024-04-16T05:35:03Z</time>
      </trkpt>
      <trkpt lat="50.12182" lon="4.16014">
        <ele>185.2</ele>
        <time>2024-04-16T05:35:04Z</time>
      </trkpt>
      <trkpt lat="50.12177" lon="4.16006">
        <ele>185.4</ele>
        <time>2024-04-16T05:35:05Z</time>
      </trkpt>
      <trkpt lat="50.12177" lon="4.16006">
        <ele>185.6</ele>
        <time>2024-04-16T05:35:06Z</time>
      </trkpt>
      <trkpt lat="50.1217" lon="4.1599">
        <ele>185.8</ele>
        <time>2024-04-16T05:35:07Z</time>
      </trkpt>
      <trkpt lat="50.12166" lon="4.15981">
        <ele>185.6</ele>
        <time>2024-04-16T05:35:08Z</time>
      </trkpt>
      <trkpt lat="50.12166" lon="4.15981">
        <ele>185.6</ele>
        <time>2024-04-16T05:35:09Z</time>
      </trkpt>
      <trkpt lat="50.12164" lon="4.15972">
        <ele>185.8</ele>
        <time>2024-04-16T05:35:10Z</time>
      </trkpt>
      <trkpt lat="50.1216" lon="4.15955">
        <ele>185.6</ele>
        <time>2024-04-16T05:35:11Z</time>
      </trkpt>
      <trkpt lat="50.1216" lon="4.15955">
        <ele>185.6</ele>
        <time>2024-04-16T05:35:12Z</time>
      </trkpt>
      <trkpt lat="50.12159" lon="4.15938">
        <ele>185.8</ele>
        <time>2024-04-16T05:35:13Z</time>
      </trkpt>
      <trkpt lat="50.12159" lon="4.1593">
        <ele>186.2</ele>
        <time>2024-04-16T05:35:14Z</time>
      </trkpt>
      <trkpt lat="50.12159" lon="4.15921">
        <ele>186.2</ele>
        <time>2024-04-16T05:35:15Z</time>
      </trkpt>
      <trkpt lat="50.1216" lon="4.15913">
        <ele>186.4</ele>
        <time>2024-04-16T05:35:16Z</time>
      </trkpt>
      <trkpt lat="50.12161" lon="4.15905">
        <ele>186.4</ele>
        <time>2024-04-16T05:35:17Z</time>
      </trkpt>
      <trkpt lat="50.12162" lon="4.15896">
        <ele>186.6</ele>
        <time>2024-04-16T05:35:18Z</time>
      </trkpt>
      <trkpt lat="50.12164" lon="4.15888">
        <ele>186.8</ele>
        <time>2024-04-16T05:35:19Z</time>
      </trkpt>
      <trkpt lat="50.12164" lon="4.15888">
        <ele>187.4</ele>
        <time>2024-04-16T05:35:20Z</time>
      </trkpt>
      <trkpt lat="50.12169" lon="4.15871">
        <ele>188.2</ele>
        <time>2024-04-16T05:35:21Z</time>
      </trkpt>
      <trkpt lat="50.12171" lon="4.15862">
        <ele>188.4</ele>
        <time>2024-04-16T05:35:22Z</time>
      </trkpt>
      <trkpt lat="50.12174" lon="4.15853">
        <ele>188.8</ele>
        <time>2024-04-16T05:35:23Z</time>
      </trkpt>
      <trkpt lat="50.12176" lon="4.15844">
        <ele>189</ele>
        <time>2024-04-16T05:35:24Z</time>
      </trkpt>
      <trkpt lat="50.12179" lon="4.15836">
        <ele>188.8</ele>
        <time>2024-04-16T05:35:25Z</time>
      </trkpt>
      <trkpt lat="50.12181" lon="4.15827">
        <ele>189</ele>
        <time>2024-04-16T05:35:26Z</time>
      </trkpt>
      <trkpt lat="50.12183" lon="4.15819">
        <ele>189</ele>
        <time>2024-04-16T05:35:27Z</time>
      </trkpt>
      <trkpt lat="50.12186" lon="4.1581">
        <ele>189</ele>
        <time>2024-04-16T05:35:28Z</time>
      </trkpt>
      <trkpt lat="50.12188" lon="4.15802">
        <ele>188.8</ele>
        <time>2024-04-16T05:35:29Z</time>
      </trkpt>
      <trkpt lat="50.12191" lon="4.15793">
        <ele>189</ele>
        <time>2024-04-16T05:35:30Z</time>
      </trkpt>
      <trkpt lat="50.12191" lon="4.15793">
        <ele>189</ele>
        <time>2024-04-16T05:35:31Z</time>
      </trkpt>
      <trkpt lat="50.12196" lon="4.15774">
        <ele>189</ele>
        <time>2024-04-16T05:35:32Z</time>
      </trkpt>
      <trkpt lat="50.12199" lon="4.15764">
        <ele>189</ele>
        <time>2024-04-16T05:35:33Z</time>
      </trkpt>
      <trkpt lat="50.12202" lon="4.15754">
        <ele>188.8</ele>
        <time>2024-04-16T05:35:34Z</time>
      </trkpt>
      <trkpt lat="50.12205" lon="4.15744">
        <ele>188.8</ele>
        <time>2024-04-16T05:35:35Z</time>
      </trkpt>
      <trkpt lat="50.12208" lon="4.15733">
        <ele>188.4</ele>
        <time>2024-04-16T05:35:36Z</time>
      </trkpt>
      <trkpt lat="50.1221" lon="4.15723">
        <ele>188.4</ele>
        <time>2024-04-16T05:35:37Z</time>
      </trkpt>
      <trkpt lat="50.12213" lon="4.15712">
        <ele>188.2</ele>
        <time>2024-04-16T05:35:38Z</time>
      </trkpt>
      <trkpt lat="50.12216" lon="4.157">
        <ele>187.8</ele>
        <time>2024-04-16T05:35:39Z</time>
      </trkpt>
      <trkpt lat="50.12219" lon="4.15689">
        <ele>187.4</ele>
        <time>2024-04-16T05:35:40Z</time>
      </trkpt>
      <trkpt lat="50.12221" lon="4.15677">
        <ele>187</ele>
        <time>2024-04-16T05:35:41Z</time>
      </trkpt>
      <trkpt lat="50.12223" lon="4.15664">
        <ele>186.2</ele>
        <time>2024-04-16T05:35:42Z</time>
      </trkpt>
      <trkpt lat="50.12226" lon="4.15651">
        <ele>185.2</ele>
        <time>2024-04-16T05:35:43Z</time>
      </trkpt>
      <trkpt lat="50.12228" lon="4.15638">
        <ele>184.6</ele>
        <time>2024-04-16T05:35:44Z</time>
      </trkpt>
      <trkpt lat="50.1223" lon="4.15624">
        <ele>184.2</ele>
        <time>2024-04-16T05:35:45Z</time>
      </trkpt>
      <trkpt lat="50.12232" lon="4.1561">
        <ele>183.6</ele>
        <time>2024-04-16T05:35:46Z</time>
      </trkpt>
      <trkpt lat="50.12234" lon="4.15596">
        <ele>183.6</ele>
        <time>2024-04-16T05:35:47Z</time>
      </trkpt>
      <trkpt lat="50.12237" lon="4.15581">
        <ele>182.8</ele>
        <time>2024-04-16T05:35:48Z</time>
      </trkpt>
      <trkpt lat="50.12239" lon="4.15566">
        <ele>182.4</ele>
        <time>2024-04-16T05:35:49Z</time>
      </trkpt>
      <trkpt lat="50.12239" lon="4.15566">
        <ele>182.2</ele>
        <time>2024-04-16T05:35:50Z</time>
      </trkpt>
      <trkpt lat="50.12247" lon="4.15536">
        <ele>181.6</ele>
        <time>2024-04-16T05:35:51Z</time>
      </trkpt>
      <trkpt lat="50.12252" lon="4.15521">
        <ele>181.4</ele>
        <time>2024-04-16T05:35:52Z</time>
      </trkpt>
      <trkpt lat="50.12257" lon="4.15507">
        <ele>181</ele>
        <time>2024-04-16T05:35:53Z</time>
      </trkpt>
      <trkpt lat="50.12263" lon="4.15493">
        <ele>180.6</ele>
        <time>2024-04-16T05:35:54Z</time>
      </trkpt>
      <trkpt lat="50.1227" lon="4.15479">
        <ele>180.6</ele>
        <time>2024-04-16T05:35:55Z</time>
      </trkpt>
      <trkpt lat="50.12276" lon="4.15464">
        <ele>180</ele>
        <time>2024-04-16T05:35:56Z</time>
      </trkpt>
      <trkpt lat="50.12283" lon="4.1545">
        <ele>179.2</ele>
        <time>2024-04-16T05:35:57Z</time>
      </trkpt>
      <trkpt lat="50.1229" lon="4.15436">
        <ele>178</ele>
        <time>2024-04-16T05:35:58Z</time>
      </trkpt>
      <trkpt lat="50.12297" lon="4.15423">
        <ele>176.8</ele>
        <time>2024-04-16T05:35:59Z</time>
      </trkpt>
      <trkpt lat="50.12304" lon="4.1541">
        <ele>175.8</ele>
        <time>2024-04-16T05:36:00Z</time>
      </trkpt>
      <trkpt lat="50.12311" lon="4.15397">
        <ele>174.8</ele>
        <time>2024-04-16T05:36:01Z</time>
      </trkpt>
      <trkpt lat="50.12319" lon="4.15385">
        <ele>173.6</ele>
        <time>2024-04-16T05:36:02Z</time>
      </trkpt>
      <trkpt lat="50.12326" lon="4.15373">
        <ele>172.4</ele>
        <time>2024-04-16T05:36:03Z</time>
      </trkpt>
      <trkpt lat="50.12326" lon="4.15373">
        <ele>171.8</ele>
        <time>2024-04-16T05:36:04Z</time>
      </trkpt>
      <trkpt lat="50.12341" lon="4.15352">
        <ele>170.8</ele>
        <time>2024-04-16T05:36:05Z</time>
      </trkpt>
      <trkpt lat="50.12348" lon="4.15343">
        <ele>170.4</ele>
        <time>2024-04-16T05:36:06Z</time>
      </trkpt>
      <trkpt lat="50.12355" lon="4.15334">
        <ele>170</ele>
        <time>2024-04-16T05:36:07Z</time>
      </trkpt>
      <trkpt lat="50.12363" lon="4.15326">
        <ele>169.2</ele>
        <time>2024-04-16T05:36:08Z</time>
      </trkpt>
      <trkpt lat="50.12369" lon="4.15318">
        <ele>168.4</ele>
        <time>2024-04-16T05:36:09Z</time>
      </trkpt>
      <trkpt lat="50.12376" lon="4.1531">
        <ele>168</ele>
        <time>2024-04-16T05:36:10Z</time>
      </trkpt>
      <trkpt lat="50.12382" lon="4.15303">
        <ele>168</ele>
        <time>2024-04-16T05:36:11Z</time>
      </trkpt>
      <trkpt lat="50.12388" lon="4.15297">
        <ele>167.8</ele>
        <time>2024-04-16T05:36:12Z</time>
      </trkpt>
      <trkpt lat="50.12393" lon="4.15291">
        <ele>167.8</ele>
        <time>2024-04-16T05:36:13Z</time>
      </trkpt>
      <trkpt lat="50.12398" lon="4.15285">
        <ele>167.6</ele>
        <time>2024-04-16T05:36:14Z</time>
      </trkpt>
      <trkpt lat="50.12403" lon="4.15279">
        <ele>167.6</ele>
        <time>2024-04-16T05:36:15Z</time>
      </trkpt>
      <trkpt lat="50.12408" lon="4.15273">
        <ele>167.8</ele>
        <time>2024-04-16T05:36:16Z</time>
      </trkpt>
      <trkpt lat="50.12413" lon="4.15268">
        <ele>167.8</ele>
        <time>2024-04-16T05:36:17Z</time>
      </trkpt>
      <trkpt lat="50.12418" lon="4.15263">
        <ele>168</ele>
        <time>2024-04-16T05:36:18Z</time>
      </trkpt>
      <trkpt lat="50.12423" lon="4.15258">
        <ele>167.8</ele>
        <time>2024-04-16T05:36:19Z</time>
      </trkpt>
      <trkpt lat="50.12427" lon="4.15253">
        <ele>168.6</ele>
        <time>2024-04-16T05:36:20Z</time>
      </trkpt>
      <trkpt lat="50.12431" lon="4.15248">
        <ele>169.6</ele>
        <time>2024-04-16T05:36:21Z</time>
      </trkpt>
      <trkpt lat="50.12435" lon="4.15243">
        <ele>170.2</ele>
        <time>2024-04-16T05:36:22Z</time>
      </trkpt>
      <trkpt lat="50.12439" lon="4.15239">
        <ele>171</ele>
        <time>2024-04-16T05:36:23Z</time>
      </trkpt>
      <trkpt lat="50.12443" lon="4.15234">
        <ele>171.6</ele>
        <time>2024-04-16T05:36:24Z</time>
      </trkpt>
      <trkpt lat="50.12447" lon="4.15229">
        <ele>172.2</ele>
        <time>2024-04-16T05:36:25Z</time>
      </trkpt>
      <trkpt lat="50.12452" lon="4.15224">
        <ele>172.8</ele>
        <time>2024-04-16T05:36:26Z</time>
      </trkpt>
      <trkpt lat="50.12456" lon="4.1522">
        <ele>173.2</ele>
        <time>2024-04-16T05:36:27Z</time>
      </trkpt>
      <trkpt lat="50.1246" lon="4.15215">
        <ele>174</ele>
        <time>2024-04-16T05:36:28Z</time>
      </trkpt>
      <trkpt lat="50.12464" lon="4.15211">
        <ele>174.4</ele>
        <time>2024-04-16T05:36:29Z</time>
      </trkpt>
      <trkpt lat="50.12467" lon="4.15206">
        <ele>175</ele>
        <time>2024-04-16T05:36:30Z</time>
      </trkpt>
      <trkpt lat="50.12471" lon="4.15201">
        <ele>175.2</ele>
        <time>2024-04-16T05:36:31Z</time>
      </trkpt>
      <trkpt lat="50.12475" lon="4.15197">
        <ele>175.4</ele>
        <time>2024-04-16T05:36:32Z</time>
      </trkpt>
      <trkpt lat="50.12478" lon="4.15192">
        <ele>176</ele>
        <time>2024-04-16T05:36:33Z</time>
      </trkpt>
      <trkpt lat="50.12482" lon="4.15187">
        <ele>176.4</ele>
        <time>2024-04-16T05:36:34Z</time>
      </trkpt>
      <trkpt lat="50.12485" lon="4.15182">
        <ele>176.8</ele>
        <time>2024-04-16T05:36:35Z</time>
      </trkpt>
      <trkpt lat="50.12488" lon="4.15176">
        <ele>177.2</ele>
        <time>2024-04-16T05:36:36Z</time>
      </trkpt>
      <trkpt lat="50.12492" lon="4.15171">
        <ele>177.8</ele>
        <time>2024-04-16T05:36:37Z</time>
      </trkpt>
      <trkpt lat="50.12495" lon="4.15165">
        <ele>178.4</ele>
        <time>2024-04-16T05:36:38Z</time>
      </trkpt>
      <trkpt lat="50.12498" lon="4.15159">
        <ele>178.4</ele>
        <time>2024-04-16T05:36:39Z</time>
      </trkpt>
      <trkpt lat="50.12501" lon="4.15154">
        <ele>179</ele>
        <time>2024-04-16T05:36:40Z</time>
      </trkpt>
      <trkpt lat="50.12504" lon="4.15148">
        <ele>179.4</ele>
        <time>2024-04-16T05:36:41Z</time>
      </trkpt>
      <trkpt lat="50.12507" lon="4.15142">
        <ele>179.4</ele>
        <time>2024-04-16T05:36:42Z</time>
      </trkpt>
      <trkpt lat="50.12509" lon="4.15136">
        <ele>180</ele>
        <time>2024-04-16T05:36:43Z</time>
      </trkpt>
      <trkpt lat="50.12512" lon="4.1513">
        <ele>180.2</ele>
        <time>2024-04-16T05:36:44Z</time>
      </trkpt>
      <trkpt lat="50.12512" lon="4.1513">
        <ele>180.8</ele>
        <time>2024-04-16T05:36:45Z</time>
      </trkpt>
      <trkpt lat="50.12517" lon="4.15118">
        <ele>181.2</ele>
        <time>2024-04-16T05:36:46Z</time>
      </trkpt>
      <trkpt lat="50.1252" lon="4.15112">
        <ele>181.6</ele>
        <time>2024-04-16T05:36:47Z</time>
      </trkpt>
      <trkpt lat="50.1252" lon="4.15112">
        <ele>181.8</ele>
        <time>2024-04-16T05:36:48Z</time>
      </trkpt>
      <trkpt lat="50.12525" lon="4.151">
        <ele>182.2</ele>
        <time>2024-04-16T05:36:49Z</time>
      </trkpt>
      <trkpt lat="50.12528" lon="4.15094">
        <ele>182.6</ele>
        <time>2024-04-16T05:36:50Z</time>
      </trkpt>
      <trkpt lat="50.1253" lon="4.15087">
        <ele>182.8</ele>
        <time>2024-04-16T05:36:51Z</time>
      </trkpt>
      <trkpt lat="50.12532" lon="4.15081">
        <ele>183</ele>
        <time>2024-04-16T05:36:52Z</time>
      </trkpt>
      <trkpt lat="50.12535" lon="4.15075">
        <ele>183.2</ele>
        <time>2024-04-16T05:36:53Z</time>
      </trkpt>
      <trkpt lat="50.12537" lon="4.15069">
        <ele>183.2</ele>
        <time>2024-04-16T05:36:54Z</time>
      </trkpt>
      <trkpt lat="50.12537" lon="4.15069">
        <ele>183.2</ele>
        <time>2024-04-16T05:36:55Z</time>
      </trkpt>
      <trkpt lat="50.12541" lon="4.15056">
        <ele>183.6</ele>
        <time>2024-04-16T05:36:56Z</time>
      </trkpt>
      <trkpt lat="50.12543" lon="4.1505">
        <ele>184.2</ele>
        <time>2024-04-16T05:36:57Z</time>
      </trkpt>
      <trkpt lat="50.12545" lon="4.15043">
        <ele>184.6</ele>
        <time>2024-04-16T05:36:58Z</time>
      </trkpt>
      <trkpt lat="50.12546" lon="4.15037">
        <ele>185.2</ele>
        <time>2024-04-16T05:36:59Z</time>
      </trkpt>
      <trkpt lat="50.12548" lon="4.1503">
        <ele>185.8</ele>
        <time>2024-04-16T05:37:00Z</time>
      </trkpt>
      <trkpt lat="50.12549" lon="4.15023">
        <ele>185.8</ele>
        <time>2024-04-16T05:37:01Z</time>
      </trkpt>
      <trkpt lat="50.12549" lon="4.15016">
        <ele>186.2</ele>
        <time>2024-04-16T05:37:02Z</time>
      </trkpt>
      <trkpt lat="50.12549" lon="4.15009">
        <ele>186.2</ele>
        <time>2024-04-16T05:37:03Z</time>
      </trkpt>
      <trkpt lat="50.1255" lon="4.15002">
        <ele>186.6</ele>
        <time>2024-04-16T05:37:04Z</time>
      </trkpt>
      <trkpt lat="50.1255" lon="4.14995">
        <ele>186.6</ele>
        <time>2024-04-16T05:37:05Z</time>
      </trkpt>
      <trkpt lat="50.1255" lon="4.14988">
        <ele>187.2</ele>
        <time>2024-04-16T05:37:06Z</time>
      </trkpt>
      <trkpt lat="50.12549" lon="4.14981">
        <ele>187.6</ele>
        <time>2024-04-16T05:37:07Z</time>
      </trkpt>
      <trkpt lat="50.12549" lon="4.14974">
        <ele>188</ele>
        <time>2024-04-16T05:37:08Z</time>
      </trkpt>
      <trkpt lat="50.12548" lon="4.14966">
        <ele>188</ele>
        <time>2024-04-16T05:37:09Z</time>
      </trkpt>
      <trkpt lat="50.12547" lon="4.14959">
        <ele>188.4</ele>
        <time>2024-04-16T05:37:10Z</time>
      </trkpt>
      <trkpt lat="50.12546" lon="4.14952">
        <ele>189</ele>
        <time>2024-04-16T05:37:11Z</time>
      </trkpt>
      <trkpt lat="50.12544" lon="4.14946">
        <ele>190.2</ele>
        <time>2024-04-16T05:37:12Z</time>
      </trkpt>
      <trkpt lat="50.12543" lon="4.14939">
        <ele>191</ele>
        <time>2024-04-16T05:37:13Z</time>
      </trkpt>
      <trkpt lat="50.12542" lon="4.14932">
        <ele>191.6</ele>
        <time>2024-04-16T05:37:14Z</time>
      </trkpt>
      <trkpt lat="50.1254" lon="4.14926">
        <ele>192</ele>
        <time>2024-04-16T05:37:15Z</time>
      </trkpt>
      <trkpt lat="50.12539" lon="4.14919">
        <ele>192.4</ele>
        <time>2024-04-16T05:37:16Z</time>
      </trkpt>
      <trkpt lat="50.12537" lon="4.14912">
        <ele>192.8</ele>
        <time>2024-04-16T05:37:17Z</time>
      </trkpt>
      <trkpt lat="50.12536" lon="4.14906">
        <ele>193</ele>
        <time>2024-04-16T05:37:18Z</time>
      </trkpt>
      <trkpt lat="50.12535" lon="4.14899">
        <ele>193.2</ele>
        <time>2024-04-16T05:37:19Z</time>
      </trkpt>
      <trkpt lat="50.12533" lon="4.14893">
        <ele>193.8</ele>
        <time>2024-04-16T05:37:20Z</time>
      </trkpt>
      <trkpt lat="50.12532" lon="4.14887">
        <ele>194</ele>
        <time>2024-04-16T05:37:21Z</time>
      </trkpt>
      <trkpt lat="50.1253" lon="4.1488">
        <ele>194.8</ele>
        <time>2024-04-16T05:37:22Z</time>
      </trkpt>
      <trkpt lat="50.12529" lon="4.14874">
        <ele>194.8</ele>
        <time>2024-04-16T05:37:23Z</time>
      </trkpt>
      <trkpt lat="50.12527" lon="4.14867">
        <ele>195</ele>
        <time>2024-04-16T05:37:24Z</time>
      </trkpt>
      <trkpt lat="50.12526" lon="4.1486">
        <ele>195.4</ele>
        <time>2024-04-16T05:37:25Z</time>
      </trkpt>
      <trkpt lat="50.12524" lon="4.14854">
        <ele>195.6</ele>
        <time>2024-04-16T05:37:26Z</time>
      </trkpt>
      <trkpt lat="50.12523" lon="4.14847">
        <ele>196</ele>
        <time>2024-04-16T05:37:27Z</time>
      </trkpt>
      <trkpt lat="50.12522" lon="4.1484">
        <ele>196.4</ele>
        <time>2024-04-16T05:37:28Z</time>
      </trkpt>
      <trkpt lat="50.1252" lon="4.14833">
        <ele>197.2</ele>
        <time>2024-04-16T05:37:29Z</time>
      </trkpt>
      <trkpt lat="50.12519" lon="4.14826">
        <ele>197.6</ele>
        <time>2024-04-16T05:37:30Z</time>
      </trkpt>
      <trkpt lat="50.12518" lon="4.14819">
        <ele>198</ele>
        <time>2024-04-16T05:37:31Z</time>
      </trkpt>
      <trkpt lat="50.12517" lon="4.14812">
        <ele>198.4</ele>
        <time>2024-04-16T05:37:32Z</time>
      </trkpt>
      <trkpt lat="50.12517" lon="4.14805">
        <ele>198.6</ele>
        <time>2024-04-16T05:37:33Z</time>
      </trkpt>
      <trkpt lat="50.12516" lon="4.14798">
        <ele>198.8</ele>
        <time>2024-04-16T05:37:34Z</time>
      </trkpt>
      <trkpt lat="50.12515" lon="4.14791">
        <ele>199.2</ele>
        <time>2024-04-16T05:37:35Z</time>
      </trkpt>
      <trkpt lat="50.12515" lon="4.14784">
        <ele>199.4</ele>
        <time>2024-04-16T05:37:36Z</time>
      </trkpt>
      <trkpt lat="50.12516" lon="4.14777">
        <ele>199.6</ele>
        <time>2024-04-16T05:37:37Z</time>
      </trkpt>
      <trkpt lat="50.12516" lon="4.14777">
        <ele>200</ele>
        <time>2024-04-16T05:37:38Z</time>
      </trkpt>
      <trkpt lat="50.12515" lon="4.14764">
        <ele>200.2</ele>
        <time>2024-04-16T05:37:39Z</time>
      </trkpt>
      <trkpt lat="50.12515" lon="4.14764">
        <ele>200.2</ele>
        <time>2024-04-16T05:37:40Z</time>
      </trkpt>
      <trkpt lat="50.12513" lon="4.14758">
        <ele>200.4</ele>
        <time>2024-04-16T05:37:41Z</time>
      </trkpt>
      <trkpt lat="50.12509" lon="4.14753">
        <ele>200.6</ele>
        <time>2024-04-16T05:37:42Z</time>
      </trkpt>
      <trkpt lat="50.12506" lon="4.14751">
        <ele>201</ele>
        <time>2024-04-16T05:37:43Z</time>
      </trkpt>
      <trkpt lat="50.12496" lon="4.14748">
        <ele>201.6</ele>
        <time>2024-04-16T05:37:44Z</time>
      </trkpt>
      <trkpt lat="50.1249" lon="4.14748">
        <ele>201.6</ele>
        <time>2024-04-16T05:37:45Z</time>
      </trkpt>
      <trkpt lat="50.12484" lon="4.14747">
        <ele>202.2</ele>
        <time>2024-04-16T05:37:46Z</time>
      </trkpt>
      <trkpt lat="50.12478" lon="4.14745">
        <ele>202.6</ele>
        <time>2024-04-16T05:37:47Z</time>
      </trkpt>
      <trkpt lat="50.12478" lon="4.14745">
        <ele>202.8</ele>
        <time>2024-04-16T05:37:48Z</time>
      </trkpt>
      <trkpt lat="50.12466" lon="4.1474">
        <ele>203</ele>
        <time>2024-04-16T05:37:49Z</time>
      </trkpt>
      <trkpt lat="50.12461" lon="4.14736">
        <ele>203</ele>
        <time>2024-04-16T05:37:50Z</time>
      </trkpt>
      <trkpt lat="50.12455" lon="4.14732">
        <ele>203.4</ele>
        <time>2024-04-16T05:37:51Z</time>
      </trkpt>
      <trkpt lat="50.1245" lon="4.14727">
        <ele>203.8</ele>
        <time>2024-04-16T05:37:52Z</time>
      </trkpt>
      <trkpt lat="50.12445" lon="4.14722">
        <ele>204</ele>
        <time>2024-04-16T05:37:53Z</time>
      </trkpt>
      <trkpt lat="50.1244" lon="4.14717">
        <ele>204</ele>
        <time>2024-04-16T05:37:54Z</time>
      </trkpt>
      <trkpt lat="50.12435" lon="4.14711">
        <ele>204</ele>
        <time>2024-04-16T05:37:55Z</time>
      </trkpt>
      <trkpt lat="50.1243" lon="4.14705">
        <ele>204.2</ele>
        <time>2024-04-16T05:37:56Z</time>
      </trkpt>
      <trkpt lat="50.12425" lon="4.14698">
        <ele>204.2</ele>
        <time>2024-04-16T05:37:57Z</time>
      </trkpt>
      <trkpt lat="50.1242" lon="4.14692">
        <ele>204.4</ele>
        <time>2024-04-16T05:37:58Z</time>
      </trkpt>
      <trkpt lat="50.12416" lon="4.14684">
        <ele>204.4</ele>
        <time>2024-04-16T05:37:59Z</time>
      </trkpt>
      <trkpt lat="50.12411" lon="4.14676">
        <ele>204.6</ele>
        <time>2024-04-16T05:38:00Z</time>
      </trkpt>
      <trkpt lat="50.12407" lon="4.14668">
        <ele>204.6</ele>
        <time>2024-04-16T05:38:01Z</time>
      </trkpt>
      <trkpt lat="50.12403" lon="4.14659">
        <ele>204.8</ele>
        <time>2024-04-16T05:38:02Z</time>
      </trkpt>
      <trkpt lat="50.12399" lon="4.14651">
        <ele>204.8</ele>
        <time>2024-04-16T05:38:03Z</time>
      </trkpt>
      <trkpt lat="50.12395" lon="4.14642">
        <ele>205</ele>
        <time>2024-04-16T05:38:04Z</time>
      </trkpt>
      <trkpt lat="50.12391" lon="4.14633">
        <ele>205</ele>
        <time>2024-04-16T05:38:05Z</time>
      </trkpt>
      <trkpt lat="50.12386" lon="4.14624">
        <ele>205</ele>
        <time>2024-04-16T05:38:06Z</time>
      </trkpt>
      <trkpt lat="50.12382" lon="4.14616">
        <ele>204.8</ele>
        <time>2024-04-16T05:38:07Z</time>
      </trkpt>
      <trkpt lat="50.12378" lon="4.14607">
        <ele>205</ele>
        <time>2024-04-16T05:38:08Z</time>
      </trkpt>
      <trkpt lat="50.12374" lon="4.14598">
        <ele>205</ele>
        <time>2024-04-16T05:38:09Z</time>
      </trkpt>
      <trkpt lat="50.1237" lon="4.1459">
        <ele>205</ele>
        <time>2024-04-16T05:38:10Z</time>
      </trkpt>
      <trkpt lat="50.12366" lon="4.14581">
        <ele>205</ele>
        <time>2024-04-16T05:38:11Z</time>
      </trkpt>
      <trkpt lat="50.12362" lon="4.14573">
        <ele>204.6</ele>
        <time>2024-04-16T05:38:12Z</time>
      </trkpt>
      <trkpt lat="50.12358" lon="4.14564">
        <ele>204.6</ele>
        <time>2024-04-16T05:38:13Z</time>
      </trkpt>
      <trkpt lat="50.12354" lon="4.14555">
        <ele>204.2</ele>
        <time>2024-04-16T05:38:14Z</time>
      </trkpt>
      <trkpt lat="50.12349" lon="4.14546">
        <ele>203.8</ele>
        <time>2024-04-16T05:38:15Z</time>
      </trkpt>
      <trkpt lat="50.12345" lon="4.14536">
        <ele>203.6</ele>
        <time>2024-04-16T05:38:16Z</time>
      </trkpt>
      <trkpt lat="50.1234" lon="4.14527">
        <ele>203.6</ele>
        <time>2024-04-16T05:38:17Z</time>
      </trkpt>
      <trkpt lat="50.12336" lon="4.14517">
        <ele>203.4</ele>
        <time>2024-04-16T05:38:18Z</time>
      </trkpt>
      <trkpt lat="50.12331" lon="4.14507">
        <ele>203.2</ele>
        <time>2024-04-16T05:38:19Z</time>
      </trkpt>
      <trkpt lat="50.12326" lon="4.14496">
        <ele>203</ele>
        <time>2024-04-16T05:38:20Z</time>
      </trkpt>
      <trkpt lat="50.12321" lon="4.14486">
        <ele>202.8</ele>
        <time>2024-04-16T05:38:21Z</time>
      </trkpt>
      <trkpt lat="50.12316" lon="4.14475">
        <ele>202.8</ele>
        <time>2024-04-16T05:38:22Z</time>
      </trkpt>
      <trkpt lat="50.12311" lon="4.14464">
        <ele>202.8</ele>
        <time>2024-04-16T05:38:23Z</time>
      </trkpt>
      <trkpt lat="50.12306" lon="4.14452">
        <ele>202.8</ele>
        <time>2024-04-16T05:38:24Z</time>
      </trkpt>
      <trkpt lat="50.12301" lon="4.14441">
        <ele>202.2</ele>
        <time>2024-04-16T05:38:25Z</time>
      </trkpt>
      <trkpt lat="50.12296" lon="4.14429">
        <ele>201.6</ele>
        <time>2024-04-16T05:38:26Z</time>
      </trkpt>
      <trkpt lat="50.12291" lon="4.14418">
        <ele>201.6</ele>
        <time>2024-04-16T05:38:27Z</time>
      </trkpt>
      <trkpt lat="50.12286" lon="4.14407">
        <ele>201</ele>
        <time>2024-04-16T05:38:28Z</time>
      </trkpt>
      <trkpt lat="50.12281" lon="4.14396">
        <ele>201</ele>
        <time>2024-04-16T05:38:29Z</time>
      </trkpt>
      <trkpt lat="50.12276" lon="4.14386">
        <ele>200.6</ele>
        <time>2024-04-16T05:38:30Z</time>
      </trkpt>
      <trkpt lat="50.12272" lon="4.14376">
        <ele>200.4</ele>
        <time>2024-04-16T05:38:31Z</time>
      </trkpt>
      <trkpt lat="50.12267" lon="4.14367">
        <ele>200</ele>
        <time>2024-04-16T05:38:32Z</time>
      </trkpt>
      <trkpt lat="50.12262" lon="4.14357">
        <ele>198.4</ele>
        <time>2024-04-16T05:38:33Z</time>
      </trkpt>
      <trkpt lat="50.12258" lon="4.14349">
        <ele>197.2</ele>
        <time>2024-04-16T05:38:34Z</time>
      </trkpt>
      <trkpt lat="50.12254" lon="4.1434">
        <ele>196.6</ele>
        <time>2024-04-16T05:38:35Z</time>
      </trkpt>
      <trkpt lat="50.1225" lon="4.14332">
        <ele>196.4</ele>
        <time>2024-04-16T05:38:36Z</time>
      </trkpt>
      <trkpt lat="50.12246" lon="4.14323">
        <ele>196.2</ele>
        <time>2024-04-16T05:38:37Z</time>
      </trkpt>
      <trkpt lat="50.12242" lon="4.14315">
        <ele>196.2</ele>
        <time>2024-04-16T05:38:38Z</time>
      </trkpt>
      <trkpt lat="50.12239" lon="4.14307">
        <ele>196.2</ele>
        <time>2024-04-16T05:38:39Z</time>
      </trkpt>
      <trkpt lat="50.12235" lon="4.14299">
        <ele>196.2</ele>
        <time>2024-04-16T05:38:40Z</time>
      </trkpt>
      <trkpt lat="50.12232" lon="4.14292">
        <ele>196</ele>
        <time>2024-04-16T05:38:41Z</time>
      </trkpt>
      <trkpt lat="50.12228" lon="4.14284">
        <ele>196</ele>
        <time>2024-04-16T05:38:42Z</time>
      </trkpt>
      <trkpt lat="50.12224" lon="4.14277">
        <ele>196.2</ele>
        <time>2024-04-16T05:38:43Z</time>
      </trkpt>
      <trkpt lat="50.12221" lon="4.1427">
        <ele>196.4</ele>
        <time>2024-04-16T05:38:44Z</time>
      </trkpt>
      <trkpt lat="50.12218" lon="4.14263">
        <ele>196.8</ele>
        <time>2024-04-16T05:38:45Z</time>
      </trkpt>
      <trkpt lat="50.12214" lon="4.14256">
        <ele>197.4</ele>
        <time>2024-04-16T05:38:46Z</time>
      </trkpt>
      <trkpt lat="50.12211" lon="4.1425">
        <ele>198.6</ele>
        <time>2024-04-16T05:38:47Z</time>
      </trkpt>
      <trkpt lat="50.12208" lon="4.14243">
        <ele>199.6</ele>
        <time>2024-04-16T05:38:48Z</time>
      </trkpt>
      <trkpt lat="50.12206" lon="4.14237">
        <ele>200</ele>
        <time>2024-04-16T05:38:49Z</time>
      </trkpt>
      <trkpt lat="50.12203" lon="4.14231">
        <ele>200.6</ele>
        <time>2024-04-16T05:38:50Z</time>
      </trkpt>
      <trkpt lat="50.122" lon="4.14224">
        <ele>200.6</ele>
        <time>2024-04-16T05:38:51Z</time>
      </trkpt>
      <trkpt lat="50.12197" lon="4.14218">
        <ele>200.8</ele>
        <time>2024-04-16T05:38:52Z</time>
      </trkpt>
      <trkpt lat="50.12194" lon="4.14212">
        <ele>201</ele>
        <time>2024-04-16T05:38:53Z</time>
      </trkpt>
      <trkpt lat="50.12191" lon="4.14205">
        <ele>201.4</ele>
        <time>2024-04-16T05:38:54Z</time>
      </trkpt>
      <trkpt lat="50.12189" lon="4.14199">
        <ele>202</ele>
        <time>2024-04-16T05:38:55Z</time>
      </trkpt>
      <trkpt lat="50.12185" lon="4.14192">
        <ele>202.6</ele>
        <time>2024-04-16T05:38:56Z</time>
      </trkpt>
      <trkpt lat="50.12182" lon="4.14185">
        <ele>203.2</ele>
        <time>2024-04-16T05:38:57Z</time>
      </trkpt>
      <trkpt lat="50.12179" lon="4.14179">
        <ele>203.6</ele>
        <time>2024-04-16T05:38:58Z</time>
      </trkpt>
      <trkpt lat="50.12176" lon="4.14172">
        <ele>203.8</ele>
        <time>2024-04-16T05:38:59Z</time>
      </trkpt>
      <trkpt lat="50.12176" lon="4.14172">
        <ele>204</ele>
        <time>2024-04-16T05:39:00Z</time>
      </trkpt>
      <trkpt lat="50.12171" lon="4.14158">
        <ele>204.6</ele>
        <time>2024-04-16T05:39:01Z</time>
      </trkpt>
      <trkpt lat="50.12168" lon="4.14151">
        <ele>204.6</ele>
        <time>2024-04-16T05:39:02Z</time>
      </trkpt>
      <trkpt lat="50.12165" lon="4.14144">
        <ele>204.8</ele>
        <time>2024-04-16T05:39:03Z</time>
      </trkpt>
      <trkpt lat="50.12163" lon="4.14136">
        <ele>205.4</ele>
        <time>2024-04-16T05:39:04Z</time>
      </trkpt>
      <trkpt lat="50.12159" lon="4.14129">
        <ele>205.8</ele>
        <time>2024-04-16T05:39:05Z</time>
      </trkpt>
      <trkpt lat="50.12156" lon="4.14121">
        <ele>206.2</ele>
        <time>2024-04-16T05:39:06Z</time>
      </trkpt>
      <trkpt lat="50.12154" lon="4.14112">
        <ele>206.4</ele>
        <time>2024-04-16T05:39:07Z</time>
      </trkpt>
      <trkpt lat="50.12152" lon="4.14103">
        <ele>206.6</ele>
        <time>2024-04-16T05:39:08Z</time>
      </trkpt>
      <trkpt lat="50.1215" lon="4.14095">
        <ele>206.8</ele>
        <time>2024-04-16T05:39:09Z</time>
      </trkpt>
      <trkpt lat="50.12148" lon="4.14087">
        <ele>206.8</ele>
        <time>2024-04-16T05:39:10Z</time>
      </trkpt>
      <trkpt lat="50.12147" lon="4.14079">
        <ele>206.8</ele>
        <time>2024-04-16T05:39:11Z</time>
      </trkpt>
      <trkpt lat="50.12145" lon="4.1407">
        <ele>206.8</ele>
        <time>2024-04-16T05:39:12Z</time>
      </trkpt>
      <trkpt lat="50.12143" lon="4.14061">
        <ele>206.8</ele>
        <time>2024-04-16T05:39:13Z</time>
      </trkpt>
      <trkpt lat="50.12142" lon="4.14051">
        <ele>207</ele>
        <time>2024-04-16T05:39:14Z</time>
      </trkpt>
      <trkpt lat="50.12141" lon="4.14041">
        <ele>206.8</ele>
        <time>2024-04-16T05:39:15Z</time>
      </trkpt>
      <trkpt lat="50.12139" lon="4.14031">
        <ele>206.8</ele>
        <time>2024-04-16T05:39:16Z</time>
      </trkpt>
      <trkpt lat="50.12138" lon="4.14019">
        <ele>206.8</ele>
        <time>2024-04-16T05:39:17Z</time>
      </trkpt>
      <trkpt lat="50.12138" lon="4.14008">
        <ele>206.6</ele>
        <time>2024-04-16T05:39:18Z</time>
      </trkpt>
      <trkpt lat="50.12137" lon="4.13998">
        <ele>206.2</ele>
        <time>2024-04-16T05:39:19Z</time>
      </trkpt>
      <trkpt lat="50.12138" lon="4.13986">
        <ele>205.8</ele>
        <time>2024-04-16T05:39:20Z</time>
      </trkpt>
      <trkpt lat="50.12138" lon="4.13974">
        <ele>205.6</ele>
        <time>2024-04-16T05:39:21Z</time>
      </trkpt>
      <trkpt lat="50.12139" lon="4.13962">
        <ele>205.6</ele>
        <time>2024-04-16T05:39:22Z</time>
      </trkpt>
      <trkpt lat="50.1214" lon="4.13949">
        <ele>205.4</ele>
        <time>2024-04-16T05:39:23Z</time>
      </trkpt>
      <trkpt lat="50.12141" lon="4.13937">
        <ele>205.2</ele>
        <time>2024-04-16T05:39:24Z</time>
      </trkpt>
      <trkpt lat="50.12142" lon="4.13924">
        <ele>205</ele>
        <time>2024-04-16T05:39:25Z</time>
      </trkpt>
      <trkpt lat="50.12144" lon="4.13911">
        <ele>204.2</ele>
        <time>2024-04-16T05:39:26Z</time>
      </trkpt>
      <trkpt lat="50.12146" lon="4.13897">
        <ele>203.4</ele>
        <time>2024-04-16T05:39:27Z</time>
      </trkpt>
      <trkpt lat="50.12149" lon="4.13883">
        <ele>203.2</ele>
        <time>2024-04-16T05:39:28Z</time>
      </trkpt>
      <trkpt lat="50.12152" lon="4.13868">
        <ele>202.6</ele>
        <time>2024-04-16T05:39:29Z</time>
      </trkpt>
      <trkpt lat="50.12156" lon="4.13854">
        <ele>202.2</ele>
        <time>2024-04-16T05:39:30Z</time>
      </trkpt>
      <trkpt lat="50.1216" lon="4.13838">
        <ele>202.2</ele>
        <time>2024-04-16T05:39:31Z</time>
      </trkpt>
      <trkpt lat="50.12165" lon="4.13823">
        <ele>201.8</ele>
        <time>2024-04-16T05:39:32Z</time>
      </trkpt>
      <trkpt lat="50.12171" lon="4.13808">
        <ele>201.6</ele>
        <time>2024-04-16T05:39:33Z</time>
      </trkpt>
      <trkpt lat="50.12177" lon="4.13793">
        <ele>201.6</ele>
        <time>2024-04-16T05:39:34Z</time>
      </trkpt>
      <trkpt lat="50.12185" lon="4.13777">
        <ele>201.2</ele>
        <time>2024-04-16T05:39:35Z</time>
      </trkpt>
      <trkpt lat="50.12192" lon="4.13762">
        <ele>200.6</ele>
        <time>2024-04-16T05:39:36Z</time>
      </trkpt>
      <trkpt lat="50.122" lon="4.13746">
        <ele>199.6</ele>
        <time>2024-04-16T05:39:37Z</time>
      </trkpt>
      <trkpt lat="50.12207" lon="4.13731">
        <ele>198</ele>
        <time>2024-04-16T05:39:38Z</time>
      </trkpt>
      <trkpt lat="50.12215" lon="4.13715">
        <ele>196.6</ele>
        <time>2024-04-16T05:39:39Z</time>
      </trkpt>
      <trkpt lat="50.12222" lon="4.13699">
        <ele>195.2</ele>
        <time>2024-04-16T05:39:40Z</time>
      </trkpt>
      <trkpt lat="50.1223" lon="4.13684">
        <ele>193.8</ele>
        <time>2024-04-16T05:39:41Z</time>
      </trkpt>
      <trkpt lat="50.12237" lon="4.13669">
        <ele>192.2</ele>
        <time>2024-04-16T05:39:42Z</time>
      </trkpt>
      <trkpt lat="50.12244" lon="4.13655">
        <ele>189.6</ele>
        <time>2024-04-16T05:39:43Z</time>
      </trkpt>
      <trkpt lat="50.12251" lon="4.13641">
        <ele>188.2</ele>
        <time>2024-04-16T05:39:44Z</time>
      </trkpt>
      <trkpt lat="50.12258" lon="4.13628">
        <ele>187.2</ele>
        <time>2024-04-16T05:39:45Z</time>
      </trkpt>
      <trkpt lat="50.12265" lon="4.13615">
        <ele>186.4</ele>
        <time>2024-04-16T05:39:46Z</time>
      </trkpt>
      <trkpt lat="50.12271" lon="4.13602">
        <ele>185.6</ele>
        <time>2024-04-16T05:39:47Z</time>
      </trkpt>
      <trkpt lat="50.12277" lon="4.1359">
        <ele>185.6</ele>
        <time>2024-04-16T05:39:48Z</time>
      </trkpt>
      <trkpt lat="50.12282" lon="4.13579">
        <ele>185.2</ele>
        <time>2024-04-16T05:39:49Z</time>
      </trkpt>
      <trkpt lat="50.12287" lon="4.13568">
        <ele>185.2</ele>
        <time>2024-04-16T05:39:50Z</time>
      </trkpt>
      <trkpt lat="50.12292" lon="4.13557">
        <ele>185.2</ele>
        <time>2024-04-16T05:39:51Z</time>
      </trkpt>
      <trkpt lat="50.12297" lon="4.13548">
        <ele>185.2</ele>
        <time>2024-04-16T05:39:52Z</time>
      </trkpt>
      <trkpt lat="50.12301" lon="4.13539">
        <ele>185</ele>
        <time>2024-04-16T05:39:53Z</time>
      </trkpt>
      <trkpt lat="50.12304" lon="4.13531">
        <ele>185.2</ele>
        <time>2024-04-16T05:39:54Z</time>
      </trkpt>
      <trkpt lat="50.12308" lon="4.13523">
        <ele>185.2</ele>
        <time>2024-04-16T05:39:55Z</time>
      </trkpt>
      <trkpt lat="50.12311" lon="4.13516">
        <ele>185.2</ele>
        <time>2024-04-16T05:39:56Z</time>
      </trkpt>
      <trkpt lat="50.12314" lon="4.13509">
        <ele>185.2</ele>
        <time>2024-04-16T05:39:57Z</time>
      </trkpt>
      <trkpt lat="50.12317" lon="4.13502">
        <ele>185.2</ele>
        <time>2024-04-16T05:39:58Z</time>
      </trkpt>
      <trkpt lat="50.12319" lon="4.13495">
        <ele>185.4</ele>
        <time>2024-04-16T05:39:59Z</time>
      </trkpt>
      <trkpt lat="50.12322" lon="4.13488">
        <ele>185.8</ele>
        <time>2024-04-16T05:40:00Z</time>
      </trkpt>
      <trkpt lat="50.12324" lon="4.13482">
        <ele>186.4</ele>
        <time>2024-04-16T05:40:01Z</time>
      </trkpt>
      <trkpt lat="50.12327" lon="4.13475">
        <ele>187.4</ele>
        <time>2024-04-16T05:40:02Z</time>
      </trkpt>
      <trkpt lat="50.12329" lon="4.13469">
        <ele>188.4</ele>
        <time>2024-04-16T05:40:03Z</time>
      </trkpt>
      <trkpt lat="50.12331" lon="4.13463">
        <ele>189</ele>
        <time>2024-04-16T05:40:04Z</time>
      </trkpt>
      <trkpt lat="50.12333" lon="4.13457">
        <ele>189.6</ele>
        <time>2024-04-16T05:40:05Z</time>
      </trkpt>
      <trkpt lat="50.12335" lon="4.13452">
        <ele>189.8</ele>
        <time>2024-04-16T05:40:06Z</time>
      </trkpt>
      <trkpt lat="50.12337" lon="4.13446">
        <ele>190</ele>
        <time>2024-04-16T05:40:07Z</time>
      </trkpt>
      <trkpt lat="50.12339" lon="4.13441">
        <ele>190.8</ele>
        <time>2024-04-16T05:40:08Z</time>
      </trkpt>
      <trkpt lat="50.12341" lon="4.13435">
        <ele>191.2</ele>
        <time>2024-04-16T05:40:09Z</time>
      </trkpt>
      <trkpt lat="50.12343" lon="4.13429">
        <ele>191.8</ele>
        <time>2024-04-16T05:40:10Z</time>
      </trkpt>
      <trkpt lat="50.12346" lon="4.13424">
        <ele>192.2</ele>
        <time>2024-04-16T05:40:11Z</time>
      </trkpt>
      <trkpt lat="50.12348" lon="4.13418">
        <ele>192.6</ele>
        <time>2024-04-16T05:40:12Z</time>
      </trkpt>
      <trkpt lat="50.1235" lon="4.13412">
        <ele>193.2</ele>
        <time>2024-04-16T05:40:13Z</time>
      </trkpt>
      <trkpt lat="50.12352" lon="4.13407">
        <ele>193.6</ele>
        <time>2024-04-16T05:40:14Z</time>
      </trkpt>
      <trkpt lat="50.12354" lon="4.13401">
        <ele>194.2</ele>
        <time>2024-04-16T05:40:15Z</time>
      </trkpt>
      <trkpt lat="50.12356" lon="4.13395">
        <ele>194.8</ele>
        <time>2024-04-16T05:40:16Z</time>
      </trkpt>
      <trkpt lat="50.12358" lon="4.13389">
        <ele>194.8</ele>
        <time>2024-04-16T05:40:17Z</time>
      </trkpt>
      <trkpt lat="50.1236" lon="4.13383">
        <ele>194.8</ele>
        <time>2024-04-16T05:40:18Z</time>
      </trkpt>
      <trkpt lat="50.12361" lon="4.13377">
        <ele>195.4</ele>
        <time>2024-04-16T05:40:19Z</time>
      </trkpt>
      <trkpt lat="50.12363" lon="4.13372">
        <ele>196</ele>
        <time>2024-04-16T05:40:20Z</time>
      </trkpt>
      <trkpt lat="50.12364" lon="4.13366">
        <ele>196.6</ele>
        <time>2024-04-16T05:40:21Z</time>
      </trkpt>
      <trkpt lat="50.12364" lon="4.13366">
        <ele>196.8</ele>
        <time>2024-04-16T05:40:22Z</time>
      </trkpt>
      <trkpt lat="50.12368" lon="4.13355">
        <ele>197.4</ele>
        <time>2024-04-16T05:40:23Z</time>
      </trkpt>
      <trkpt lat="50.12369" lon="4.13349">
        <ele>198.6</ele>
        <time>2024-04-16T05:40:24Z</time>
      </trkpt>
      <trkpt lat="50.12371" lon="4.13343">
        <ele>199.4</ele>
        <time>2024-04-16T05:40:25Z</time>
      </trkpt>
      <trkpt lat="50.12373" lon="4.13338">
        <ele>199.8</ele>
        <time>2024-04-16T05:40:26Z</time>
      </trkpt>
      <trkpt lat="50.12375" lon="4.13332">
        <ele>200.4</ele>
        <time>2024-04-16T05:40:27Z</time>
      </trkpt>
      <trkpt lat="50.12376" lon="4.13326">
        <ele>200.8</ele>
        <time>2024-04-16T05:40:28Z</time>
      </trkpt>
      <trkpt lat="50.12378" lon="4.1332">
        <ele>201</ele>
        <time>2024-04-16T05:40:29Z</time>
      </trkpt>
      <trkpt lat="50.1238" lon="4.13314">
        <ele>201.2</ele>
        <time>2024-04-16T05:40:30Z</time>
      </trkpt>
      <trkpt lat="50.12382" lon="4.13309">
        <ele>201.4</ele>
        <time>2024-04-16T05:40:31Z</time>
      </trkpt>
      <trkpt lat="50.12383" lon="4.13303">
        <ele>201.6</ele>
        <time>2024-04-16T05:40:32Z</time>
      </trkpt>
      <trkpt lat="50.12385" lon="4.13297">
        <ele>201.8</ele>
        <time>2024-04-16T05:40:33Z</time>
      </trkpt>
      <trkpt lat="50.12387" lon="4.13291">
        <ele>202</ele>
        <time>2024-04-16T05:40:34Z</time>
      </trkpt>
      <trkpt lat="50.1239" lon="4.13284">
        <ele>202</ele>
        <time>2024-04-16T05:40:35Z</time>
      </trkpt>
      <trkpt lat="50.12393" lon="4.13277">
        <ele>202.4</ele>
        <time>2024-04-16T05:40:36Z</time>
      </trkpt>
      <trkpt lat="50.12395" lon="4.13271">
        <ele>202.4</ele>
        <time>2024-04-16T05:40:37Z</time>
      </trkpt>
      <trkpt lat="50.12397" lon="4.13265">
        <ele>202.4</ele>
        <time>2024-04-16T05:40:38Z</time>
      </trkpt>
      <trkpt lat="50.12398" lon="4.13259">
        <ele>202.4</ele>
        <time>2024-04-16T05:40:39Z</time>
      </trkpt>
      <trkpt lat="50.124" lon="4.13252">
        <ele>202.6</ele>
        <time>2024-04-16T05:40:40Z</time>
      </trkpt>
      <trkpt lat="50.12402" lon="4.13246">
        <ele>202.4</ele>
        <time>2024-04-16T05:40:41Z</time>
      </trkpt>
      <trkpt lat="50.12404" lon="4.13239">
        <ele>202.4</ele>
        <time>2024-04-16T05:40:42Z</time>
      </trkpt>
      <trkpt lat="50.12407" lon="4.13233">
        <ele>202.6</ele>
        <time>2024-04-16T05:40:43Z</time>
      </trkpt>
      <trkpt lat="50.12409" lon="4.13226">
        <ele>202.6</ele>
        <time>2024-04-16T05:40:44Z</time>
      </trkpt>
      <trkpt lat="50.12412" lon="4.13219">
        <ele>202.6</ele>
        <time>2024-04-16T05:40:45Z</time>
      </trkpt>
      <trkpt lat="50.12414" lon="4.13212">
        <ele>202.8</ele>
        <time>2024-04-16T05:40:46Z</time>
      </trkpt>
      <trkpt lat="50.12416" lon="4.13205">
        <ele>202.8</ele>
        <time>2024-04-16T05:40:47Z</time>
      </trkpt>
      <trkpt lat="50.12419" lon="4.13197">
        <ele>203</ele>
        <time>2024-04-16T05:40:48Z</time>
      </trkpt>
      <trkpt lat="50.12421" lon="4.1319">
        <ele>203.2</ele>
        <time>2024-04-16T05:40:49Z</time>
      </trkpt>
      <trkpt lat="50.12424" lon="4.13182">
        <ele>203.2</ele>
        <time>2024-04-16T05:40:50Z</time>
      </trkpt>
      <trkpt lat="50.12426" lon="4.13173">
        <ele>203.4</ele>
        <time>2024-04-16T05:40:51Z</time>
      </trkpt>
      <trkpt lat="50.12428" lon="4.13164">
        <ele>203.4</ele>
        <time>2024-04-16T05:40:52Z</time>
      </trkpt>
      <trkpt lat="50.12431" lon="4.13155">
        <ele>203.4</ele>
        <time>2024-04-16T05:40:53Z</time>
      </trkpt>
      <trkpt lat="50.12434" lon="4.13145">
        <ele>203.2</ele>
        <time>2024-04-16T05:40:54Z</time>
      </trkpt>
      <trkpt lat="50.12436" lon="4.13136">
        <ele>203.2</ele>
        <time>2024-04-16T05:40:55Z</time>
      </trkpt>
      <trkpt lat="50.12438" lon="4.13126">
        <ele>203.2</ele>
        <time>2024-04-16T05:40:56Z</time>
      </trkpt>
      <trkpt lat="50.12441" lon="4.13115">
        <ele>203.2</ele>
        <time>2024-04-16T05:40:57Z</time>
      </trkpt>
      <trkpt lat="50.12443" lon="4.13105">
        <ele>202.8</ele>
        <time>2024-04-16T05:40:58Z</time>
      </trkpt>
      <trkpt lat="50.12445" lon="4.13094">
        <ele>202.8</ele>
        <time>2024-04-16T05:40:59Z</time>
      </trkpt>
      <trkpt lat="50.12447" lon="4.13084">
        <ele>202.8</ele>
        <time>2024-04-16T05:41:00Z</time>
      </trkpt>
      <trkpt lat="50.1245" lon="4.13072">
        <ele>202.6</ele>
        <time>2024-04-16T05:41:01Z</time>
      </trkpt>
      <trkpt lat="50.12452" lon="4.1306">
        <ele>202.6</ele>
        <time>2024-04-16T05:41:02Z</time>
      </trkpt>
      <trkpt lat="50.12454" lon="4.13048">
        <ele>202.4</ele>
        <time>2024-04-16T05:41:03Z</time>
      </trkpt>
      <trkpt lat="50.12456" lon="4.13034">
        <ele>202.4</ele>
        <time>2024-04-16T05:41:04Z</time>
      </trkpt>
      <trkpt lat="50.12458" lon="4.13021">
        <ele>202.4</ele>
        <time>2024-04-16T05:41:05Z</time>
      </trkpt>
      <trkpt lat="50.12461" lon="4.13006">
        <ele>202.2</ele>
        <time>2024-04-16T05:41:06Z</time>
      </trkpt>
      <trkpt lat="50.12463" lon="4.12991">
        <ele>201.8</ele>
        <time>2024-04-16T05:41:07Z</time>
      </trkpt>
      <trkpt lat="50.12465" lon="4.12976">
        <ele>201.4</ele>
        <time>2024-04-16T05:41:08Z</time>
      </trkpt>
      <trkpt lat="50.12467" lon="4.1296">
        <ele>200.8</ele>
        <time>2024-04-16T05:41:09Z</time>
      </trkpt>
      <trkpt lat="50.1247" lon="4.12944">
        <ele>200.6</ele>
        <time>2024-04-16T05:41:10Z</time>
      </trkpt>
      <trkpt lat="50.12472" lon="4.12927">
        <ele>199.8</ele>
        <time>2024-04-16T05:41:11Z</time>
      </trkpt>
      <trkpt lat="50.12474" lon="4.1291">
        <ele>198.8</ele>
        <time>2024-04-16T05:41:12Z</time>
      </trkpt>
      <trkpt lat="50.12476" lon="4.12892">
        <ele>197.4</ele>
        <time>2024-04-16T05:41:13Z</time>
      </trkpt>
      <trkpt lat="50.12478" lon="4.12874">
        <ele>196</ele>
        <time>2024-04-16T05:41:14Z</time>
      </trkpt>
      <trkpt lat="50.1248" lon="4.12855">
        <ele>194.6</ele>
        <time>2024-04-16T05:41:15Z</time>
      </trkpt>
      <trkpt lat="50.12481" lon="4.12836">
        <ele>193.8</ele>
        <time>2024-04-16T05:41:16Z</time>
      </trkpt>
      <trkpt lat="50.12481" lon="4.12817">
        <ele>192.6</ele>
        <time>2024-04-16T05:41:17Z</time>
      </trkpt>
      <trkpt lat="50.12479" lon="4.12797">
        <ele>192</ele>
        <time>2024-04-16T05:41:18Z</time>
      </trkpt>
      <trkpt lat="50.12477" lon="4.12779">
        <ele>190.6</ele>
        <time>2024-04-16T05:41:19Z</time>
      </trkpt>
      <trkpt lat="50.12475" lon="4.1276">
        <ele>188.8</ele>
        <time>2024-04-16T05:41:20Z</time>
      </trkpt>
      <trkpt lat="50.12472" lon="4.12743">
        <ele>187.4</ele>
        <time>2024-04-16T05:41:21Z</time>
      </trkpt>
      <trkpt lat="50.12468" lon="4.12726">
        <ele>187.4</ele>
        <time>2024-04-16T05:41:22Z</time>
      </trkpt>
      <trkpt lat="50.12464" lon="4.1271">
        <ele>186.2</ele>
        <time>2024-04-16T05:41:23Z</time>
      </trkpt>
      <trkpt lat="50.12459" lon="4.12695">
        <ele>184.8</ele>
        <time>2024-04-16T05:41:24Z</time>
      </trkpt>
      <trkpt lat="50.12454" lon="4.12682">
        <ele>183.8</ele>
        <time>2024-04-16T05:41:25Z</time>
      </trkpt>
      <trkpt lat="50.12449" lon="4.12669">
        <ele>182.2</ele>
        <time>2024-04-16T05:41:26Z</time>
      </trkpt>
      <trkpt lat="50.12443" lon="4.12658">
        <ele>180.6</ele>
        <time>2024-04-16T05:41:27Z</time>
      </trkpt>
      <trkpt lat="50.12438" lon="4.12648">
        <ele>179.8</ele>
        <time>2024-04-16T05:41:28Z</time>
      </trkpt>
      <trkpt lat="50.12433" lon="4.12638">
        <ele>179.2</ele>
        <time>2024-04-16T05:41:29Z</time>
      </trkpt>
      <trkpt lat="50.12428" lon="4.1263">
        <ele>179</ele>
        <time>2024-04-16T05:41:30Z</time>
      </trkpt>
      <trkpt lat="50.12424" lon="4.12622">
        <ele>179</ele>
        <time>2024-04-16T05:41:31Z</time>
      </trkpt>
      <trkpt lat="50.12419" lon="4.12615">
        <ele>178.8</ele>
        <time>2024-04-16T05:41:32Z</time>
      </trkpt>
      <trkpt lat="50.12415" lon="4.12609">
        <ele>178.8</ele>
        <time>2024-04-16T05:41:33Z</time>
      </trkpt>
      <trkpt lat="50.12411" lon="4.12602">
        <ele>178.8</ele>
        <time>2024-04-16T05:41:34Z</time>
      </trkpt>
      <trkpt lat="50.12408" lon="4.12595">
        <ele>178.8</ele>
        <time>2024-04-16T05:41:35Z</time>
      </trkpt>
      <trkpt lat="50.12406" lon="4.12587">
        <ele>178.8</ele>
        <time>2024-04-16T05:41:36Z</time>
      </trkpt>
      <trkpt lat="50.12404" lon="4.12579">
        <ele>178.8</ele>
        <time>2024-04-16T05:41:37Z</time>
      </trkpt>
      <trkpt lat="50.12403" lon="4.12572">
        <ele>179.2</ele>
        <time>2024-04-16T05:41:38Z</time>
      </trkpt>
      <trkpt lat="50.12401" lon="4.12565">
        <ele>179.4</ele>
        <time>2024-04-16T05:41:39Z</time>
      </trkpt>
      <trkpt lat="50.12399" lon="4.12558">
        <ele>179.8</ele>
        <time>2024-04-16T05:41:40Z</time>
      </trkpt>
      <trkpt lat="50.12398" lon="4.12551">
        <ele>180.4</ele>
        <time>2024-04-16T05:41:41Z</time>
      </trkpt>
      <trkpt lat="50.12398" lon="4.12545">
        <ele>180.8</ele>
        <time>2024-04-16T05:41:42Z</time>
      </trkpt>
      <trkpt lat="50.12398" lon="4.12539">
        <ele>181.4</ele>
        <time>2024-04-16T05:41:43Z</time>
      </trkpt>
      <trkpt lat="50.12398" lon="4.12539">
        <ele>181.4</ele>
        <time>2024-04-16T05:41:44Z</time>
      </trkpt>
      <trkpt lat="50.12397" lon="4.12534">
        <ele>181.6</ele>
        <time>2024-04-16T05:41:45Z</time>
      </trkpt>
      <trkpt lat="50.12395" lon="4.12529">
        <ele>182</ele>
        <time>2024-04-16T05:41:46Z</time>
      </trkpt>
      <trkpt lat="50.12394" lon="4.12528">
        <ele>182.8</ele>
        <time>2024-04-16T05:41:47Z</time>
      </trkpt>
      <trkpt lat="50.12394" lon="4.12527">
        <ele>183.2</ele>
        <time>2024-04-16T05:41:48Z</time>
      </trkpt>
      <trkpt lat="50.12394" lon="4.12527">
        <ele>183.4</ele>
        <time>2024-04-16T05:41:49Z</time>
      </trkpt>
      <trkpt lat="50.12394" lon="4.12527">
        <ele>183.6</ele>
        <time>2024-04-16T05:41:50Z</time>
      </trkpt>
      <trkpt lat="50.12394" lon="4.12527">
        <ele>184</ele>
        <time>2024-04-16T05:41:51Z</time>
      </trkpt>
      <trkpt lat="50.12394" lon="4.12527">
        <ele>184.6</ele>
        <time>2024-04-16T05:41:52Z</time>
      </trkpt>
      <trkpt lat="50.12394" lon="4.12527">
        <ele>185</ele>
        <time>2024-04-16T05:41:53Z</time>
      </trkpt>
      <trkpt lat="50.12394" lon="4.12527">
        <ele>185.2</ele>
        <time>2024-04-16T05:41:54Z</time>
      </trkpt>
      <trkpt lat="50.1239" lon="4.12528">
        <ele>185.2</ele>
        <time>2024-04-16T05:42:48Z</time>
      </trkpt>
      <trkpt lat="50.12387" lon="4.12528">
        <ele>185.4</ele>
        <time>2024-04-16T05:42:49Z</time>
      </trkpt>
      <trkpt lat="50.12385" lon="4.12527">
        <ele>185.2</ele>
        <time>2024-04-16T05:42:50Z</time>
      </trkpt>
      <trkpt lat="50.12381" lon="4.12525">
        <ele>185.4</ele>
        <time>2024-04-16T05:42:51Z</time>
      </trkpt>
      <trkpt lat="50.12377" lon="4.12523">
        <ele>185.4</ele>
        <time>2024-04-16T05:42:52Z</time>
      </trkpt>
      <trkpt lat="50.12373" lon="4.12522">
        <ele>185.2</ele>
        <time>2024-04-16T05:42:53Z</time>
      </trkpt>
      <trkpt lat="50.12368" lon="4.1252">
        <ele>185.2</ele>
        <time>2024-04-16T05:42:54Z</time>
      </trkpt>
      <trkpt lat="50.12363" lon="4.12517">
        <ele>185.4</ele>
        <time>2024-04-16T05:42:55Z</time>
      </trkpt>
      <trkpt lat="50.12357" lon="4.12514">
        <ele>185</ele>
        <time>2024-04-16T05:42:56Z</time>
      </trkpt>
      <trkpt lat="50.12351" lon="4.1251">
        <ele>185</ele>
        <time>2024-04-16T05:42:57Z</time>
      </trkpt>
      <trkpt lat="50.12345" lon="4.12505">
        <ele>185</ele>
        <time>2024-04-16T05:42:58Z</time>
      </trkpt>
      <trkpt lat="50.12339" lon="4.125">
        <ele>185.2</ele>
        <time>2024-04-16T05:42:59Z</time>
      </trkpt>
      <trkpt lat="50.12334" lon="4.12493">
        <ele>184.6</ele>
        <time>2024-04-16T05:43:00Z</time>
      </trkpt>
      <trkpt lat="50.12328" lon="4.12485">
        <ele>183.8</ele>
        <time>2024-04-16T05:43:01Z</time>
      </trkpt>
      <trkpt lat="50.12322" lon="4.12476">
        <ele>182.8</ele>
        <time>2024-04-16T05:43:02Z</time>
      </trkpt>
      <trkpt lat="50.12317" lon="4.12467">
        <ele>181.6</ele>
        <time>2024-04-16T05:43:03Z</time>
      </trkpt>
      <trkpt lat="50.12313" lon="4.12456">
        <ele>180.8</ele>
        <time>2024-04-16T05:43:04Z</time>
      </trkpt>
      <trkpt lat="50.12308" lon="4.12446">
        <ele>180.4</ele>
        <time>2024-04-16T05:43:05Z</time>
      </trkpt>
      <trkpt lat="50.12304" lon="4.12435">
        <ele>180</ele>
        <time>2024-04-16T05:43:06Z</time>
      </trkpt>
      <trkpt lat="50.12301" lon="4.12423">
        <ele>180</ele>
        <time>2024-04-16T05:43:07Z</time>
      </trkpt>
      <trkpt lat="50.12297" lon="4.12412">
        <ele>179.6</ele>
        <time>2024-04-16T05:43:08Z</time>
      </trkpt>
      <trkpt lat="50.12294" lon="4.124">
        <ele>178.8</ele>
        <time>2024-04-16T05:43:09Z</time>
      </trkpt>
      <trkpt lat="50.1229" lon="4.12389">
        <ele>177.8</ele>
        <time>2024-04-16T05:43:10Z</time>
      </trkpt>
      <trkpt lat="50.12287" lon="4.12378">
        <ele>177.2</ele>
        <time>2024-04-16T05:43:11Z</time>
      </trkpt>
      <trkpt lat="50.12283" lon="4.12367">
        <ele>176.8</ele>
        <time>2024-04-16T05:43:12Z</time>
      </trkpt>
      <trkpt lat="50.1228" lon="4.12356">
        <ele>176.8</ele>
        <time>2024-04-16T05:43:13Z</time>
      </trkpt>
      <trkpt lat="50.12277" lon="4.12346">
        <ele>176.4</ele>
        <time>2024-04-16T05:43:14Z</time>
      </trkpt>
      <trkpt lat="50.12274" lon="4.12336">
        <ele>176.4</ele>
        <time>2024-04-16T05:43:15Z</time>
      </trkpt>
      <trkpt lat="50.12271" lon="4.12326">
        <ele>175.8</ele>
        <time>2024-04-16T05:43:16Z</time>
      </trkpt>
      <trkpt lat="50.12268" lon="4.12317">
        <ele>174.8</ele>
        <time>2024-04-16T05:43:17Z</time>
      </trkpt>
      <trkpt lat="50.12265" lon="4.12307">
        <ele>174.4</ele>
        <time>2024-04-16T05:43:18Z</time>
      </trkpt>
      <trkpt lat="50.12263" lon="4.12298">
        <ele>173.8</ele>
        <time>2024-04-16T05:43:19Z</time>
      </trkpt>
      <trkpt lat="50.1226" lon="4.12288">
        <ele>173.4</ele>
        <time>2024-04-16T05:43:20Z</time>
      </trkpt>
      <trkpt lat="50.12258" lon="4.12278">
        <ele>173.2</ele>
        <time>2024-04-16T05:43:21Z</time>
      </trkpt>
      <trkpt lat="50.12256" lon="4.12268">
        <ele>172.8</ele>
        <time>2024-04-16T05:43:22Z</time>
      </trkpt>
      <trkpt lat="50.12254" lon="4.12258">
        <ele>172.8</ele>
        <time>2024-04-16T05:43:23Z</time>
      </trkpt>
      <trkpt lat="50.12252" lon="4.12248">
        <ele>172.8</ele>
        <time>2024-04-16T05:43:24Z</time>
      </trkpt>
      <trkpt lat="50.1225" lon="4.12238">
        <ele>172.8</ele>
        <time>2024-04-16T05:43:25Z</time>
      </trkpt>
      <trkpt lat="50.12248" lon="4.12228">
        <ele>172.6</ele>
        <time>2024-04-16T05:43:26Z</time>
      </trkpt>
      <trkpt lat="50.12247" lon="4.12218">
        <ele>172.6</ele>
        <time>2024-04-16T05:43:27Z</time>
      </trkpt>
      <trkpt lat="50.12245" lon="4.12208">
        <ele>172.6</ele>
        <time>2024-04-16T05:43:28Z</time>
      </trkpt>
      <trkpt lat="50.12244" lon="4.12197">
        <ele>172.6</ele>
        <time>2024-04-16T05:43:29Z</time>
      </trkpt>
      <trkpt lat="50.12243" lon="4.12187">
        <ele>172.6</ele>
        <time>2024-04-16T05:43:30Z</time>
      </trkpt>
      <trkpt lat="50.12242" lon="4.12177">
        <ele>172.6</ele>
        <time>2024-04-16T05:43:31Z</time>
      </trkpt>
      <trkpt lat="50.12241" lon="4.12166">
        <ele>172.8</ele>
        <time>2024-04-16T05:43:32Z</time>
      </trkpt>
      <trkpt lat="50.1224" lon="4.12156">
        <ele>172.8</ele>
        <time>2024-04-16T05:43:33Z</time>
      </trkpt>
      <trkpt lat="50.12239" lon="4.12146">
        <ele>173</ele>
        <time>2024-04-16T05:43:34Z</time>
      </trkpt>
      <trkpt lat="50.12238" lon="4.12135">
        <ele>173</ele>
        <time>2024-04-16T05:43:35Z</time>
      </trkpt>
      <trkpt lat="50.12237" lon="4.12125">
        <ele>173</ele>
        <time>2024-04-16T05:43:36Z</time>
      </trkpt>
      <trkpt lat="50.12236" lon="4.12114">
        <ele>173</ele>
        <time>2024-04-16T05:43:37Z</time>
      </trkpt>
      <trkpt lat="50.12236" lon="4.12103">
        <ele>173.2</ele>
        <time>2024-04-16T05:43:38Z</time>
      </trkpt>
      <trkpt lat="50.12234" lon="4.12093">
        <ele>173.4</ele>
        <time>2024-04-16T05:43:39Z</time>
      </trkpt>
      <trkpt lat="50.12233" lon="4.12082">
        <ele>173.4</ele>
        <time>2024-04-16T05:43:40Z</time>
      </trkpt>
      <trkpt lat="50.12232" lon="4.12071">
        <ele>173.6</ele>
        <time>2024-04-16T05:43:41Z</time>
      </trkpt>
      <trkpt lat="50.12231" lon="4.1206">
        <ele>173.4</ele>
        <time>2024-04-16T05:43:42Z</time>
      </trkpt>
      <trkpt lat="50.1223" lon="4.12049">
        <ele>173.4</ele>
        <time>2024-04-16T05:43:43Z</time>
      </trkpt>
      <trkpt lat="50.12228" lon="4.12038">
        <ele>173.6</ele>
        <time>2024-04-16T05:43:44Z</time>
      </trkpt>
      <trkpt lat="50.12227" lon="4.12026">
        <ele>173.6</ele>
        <time>2024-04-16T05:43:45Z</time>
      </trkpt>
      <trkpt lat="50.12225" lon="4.12014">
        <ele>173.6</ele>
        <time>2024-04-16T05:43:46Z</time>
      </trkpt>
      <trkpt lat="50.12223" lon="4.12002">
        <ele>173.4</ele>
        <time>2024-04-16T05:43:47Z</time>
      </trkpt>
      <trkpt lat="50.12221" lon="4.1199">
        <ele>173.2</ele>
        <time>2024-04-16T05:43:48Z</time>
      </trkpt>
      <trkpt lat="50.12218" lon="4.11978">
        <ele>173</ele>
        <time>2024-04-16T05:43:49Z</time>
      </trkpt>
      <trkpt lat="50.12216" lon="4.11965">
        <ele>173</ele>
        <time>2024-04-16T05:43:50Z</time>
      </trkpt>
      <trkpt lat="50.12213" lon="4.11952">
        <ele>172.8</ele>
        <time>2024-04-16T05:43:51Z</time>
      </trkpt>
      <trkpt lat="50.12211" lon="4.1194">
        <ele>172.6</ele>
        <time>2024-04-16T05:43:52Z</time>
      </trkpt>
      <trkpt lat="50.12208" lon="4.11927">
        <ele>172.2</ele>
        <time>2024-04-16T05:43:53Z</time>
      </trkpt>
      <trkpt lat="50.12206" lon="4.11915">
        <ele>172</ele>
        <time>2024-04-16T05:43:54Z</time>
      </trkpt>
      <trkpt lat="50.12203" lon="4.11903">
        <ele>171.2</ele>
        <time>2024-04-16T05:43:55Z</time>
      </trkpt>
      <trkpt lat="50.12201" lon="4.11891">
        <ele>170.8</ele>
        <time>2024-04-16T05:43:56Z</time>
      </trkpt>
      <trkpt lat="50.12198" lon="4.11879">
        <ele>170.8</ele>
        <time>2024-04-16T05:43:57Z</time>
      </trkpt>
      <trkpt lat="50.12196" lon="4.11868">
        <ele>170.4</ele>
        <time>2024-04-16T05:43:58Z</time>
      </trkpt>
      <trkpt lat="50.12194" lon="4.11857">
        <ele>170.2</ele>
        <time>2024-04-16T05:43:59Z</time>
      </trkpt>
      <trkpt lat="50.12191" lon="4.11846">
        <ele>169.6</ele>
        <time>2024-04-16T05:44:00Z</time>
      </trkpt>
      <trkpt lat="50.12189" lon="4.11836">
        <ele>168.8</ele>
        <time>2024-04-16T05:44:01Z</time>
      </trkpt>
      <trkpt lat="50.12187" lon="4.11825">
        <ele>168.2</ele>
        <time>2024-04-16T05:44:02Z</time>
      </trkpt>
      <trkpt lat="50.12185" lon="4.11815">
        <ele>167.6</ele>
        <time>2024-04-16T05:44:03Z</time>
      </trkpt>
      <trkpt lat="50.12183" lon="4.11804">
        <ele>167.2</ele>
        <time>2024-04-16T05:44:04Z</time>
      </trkpt>
      <trkpt lat="50.1218" lon="4.11794">
        <ele>167</ele>
        <time>2024-04-16T05:44:05Z</time>
      </trkpt>
      <trkpt lat="50.12178" lon="4.11784">
        <ele>166.8</ele>
        <time>2024-04-16T05:44:06Z</time>
      </trkpt>
      <trkpt lat="50.12176" lon="4.11773">
        <ele>166.8</ele>
        <time>2024-04-16T05:44:07Z</time>
      </trkpt>
      <trkpt lat="50.12174" lon="4.11763">
        <ele>166.8</ele>
        <time>2024-04-16T05:44:08Z</time>
      </trkpt>
      <trkpt lat="50.12172" lon="4.11752">
        <ele>166.6</ele>
        <time>2024-04-16T05:44:09Z</time>
      </trkpt>
      <trkpt lat="50.1217" lon="4.11742">
        <ele>166.6</ele>
        <time>2024-04-16T05:44:10Z</time>
      </trkpt>
      <trkpt lat="50.12168" lon="4.11732">
        <ele>166.6</ele>
        <time>2024-04-16T05:44:11Z</time>
      </trkpt>
      <trkpt lat="50.12166" lon="4.11722">
        <ele>166.6</ele>
        <time>2024-04-16T05:44:12Z</time>
      </trkpt>
      <trkpt lat="50.12164" lon="4.11712">
        <ele>166.6</ele>
        <time>2024-04-16T05:44:13Z</time>
      </trkpt>
      <trkpt lat="50.12162" lon="4.11702">
        <ele>166.4</ele>
        <time>2024-04-16T05:44:14Z</time>
      </trkpt>
      <trkpt lat="50.1216" lon="4.11692">
        <ele>166.4</ele>
        <time>2024-04-16T05:44:15Z</time>
      </trkpt>
      <trkpt lat="50.12158" lon="4.11682">
        <ele>166.4</ele>
        <time>2024-04-16T05:44:16Z</time>
      </trkpt>
      <trkpt lat="50.12157" lon="4.11672">
        <ele>166.6</ele>
        <time>2024-04-16T05:44:17Z</time>
      </trkpt>
      <trkpt lat="50.12155" lon="4.11662">
        <ele>166.6</ele>
        <time>2024-04-16T05:44:18Z</time>
      </trkpt>
      <trkpt lat="50.12153" lon="4.11653">
        <ele>166.6</ele>
        <time>2024-04-16T05:44:19Z</time>
      </trkpt>
      <trkpt lat="50.12151" lon="4.11644">
        <ele>166.8</ele>
        <time>2024-04-16T05:44:20Z</time>
      </trkpt>
      <trkpt lat="50.12149" lon="4.11635">
        <ele>166.8</ele>
        <time>2024-04-16T05:44:21Z</time>
      </trkpt>
      <trkpt lat="50.12147" lon="4.11626">
        <ele>166.8</ele>
        <time>2024-04-16T05:44:22Z</time>
      </trkpt>
      <trkpt lat="50.12146" lon="4.11617">
        <ele>166.6</ele>
        <time>2024-04-16T05:44:23Z</time>
      </trkpt>
      <trkpt lat="50.12144" lon="4.11609">
        <ele>167</ele>
        <time>2024-04-16T05:44:24Z</time>
      </trkpt>
      <trkpt lat="50.12142" lon="4.116">
        <ele>167.2</ele>
        <time>2024-04-16T05:44:25Z</time>
      </trkpt>
      <trkpt lat="50.1214" lon="4.11592">
        <ele>167.6</ele>
        <time>2024-04-16T05:44:26Z</time>
      </trkpt>
      <trkpt lat="50.12138" lon="4.11583">
        <ele>167.8</ele>
        <time>2024-04-16T05:44:27Z</time>
      </trkpt>
      <trkpt lat="50.12135" lon="4.11575">
        <ele>167.8</ele>
        <time>2024-04-16T05:44:28Z</time>
      </trkpt>
      <trkpt lat="50.12133" lon="4.11567">
        <ele>168.2</ele>
        <time>2024-04-16T05:44:29Z</time>
      </trkpt>
      <trkpt lat="50.12131" lon="4.11558">
        <ele>168.2</ele>
        <time>2024-04-16T05:44:30Z</time>
      </trkpt>
      <trkpt lat="50.12128" lon="4.1155">
        <ele>168.4</ele>
        <time>2024-04-16T05:44:31Z</time>
      </trkpt>
      <trkpt lat="50.12125" lon="4.11542">
        <ele>168.8</ele>
        <time>2024-04-16T05:44:32Z</time>
      </trkpt>
      <trkpt lat="50.12123" lon="4.11534">
        <ele>169.2</ele>
        <time>2024-04-16T05:44:33Z</time>
      </trkpt>
      <trkpt lat="50.1212" lon="4.11526">
        <ele>169.6</ele>
        <time>2024-04-16T05:44:34Z</time>
      </trkpt>
      <trkpt lat="50.12117" lon="4.11518">
        <ele>170.2</ele>
        <time>2024-04-16T05:44:35Z</time>
      </trkpt>
      <trkpt lat="50.12114" lon="4.1151">
        <ele>170.6</ele>
        <time>2024-04-16T05:44:36Z</time>
      </trkpt>
      <trkpt lat="50.12112" lon="4.11502">
        <ele>170.6</ele>
        <time>2024-04-16T05:44:37Z</time>
      </trkpt>
      <trkpt lat="50.12109" lon="4.11494">
        <ele>170.6</ele>
        <time>2024-04-16T05:44:38Z</time>
      </trkpt>
      <trkpt lat="50.12106" lon="4.11486">
        <ele>170.8</ele>
        <time>2024-04-16T05:44:39Z</time>
      </trkpt>
      <trkpt lat="50.12103" lon="4.11478">
        <ele>171</ele>
        <time>2024-04-16T05:44:40Z</time>
      </trkpt>
      <trkpt lat="50.121" lon="4.11471">
        <ele>171</ele>
        <time>2024-04-16T05:44:41Z</time>
      </trkpt>
      <trkpt lat="50.12098" lon="4.11463">
        <ele>171.2</ele>
        <time>2024-04-16T05:44:42Z</time>
      </trkpt>
      <trkpt lat="50.12095" lon="4.11455">
        <ele>171.6</ele>
        <time>2024-04-16T05:44:43Z</time>
      </trkpt>
      <trkpt lat="50.12092" lon="4.11448">
        <ele>171.8</ele>
        <time>2024-04-16T05:44:44Z</time>
      </trkpt>
      <trkpt lat="50.1209" lon="4.1144">
        <ele>172</ele>
        <time>2024-04-16T05:44:45Z</time>
      </trkpt>
      <trkpt lat="50.12087" lon="4.11433">
        <ele>172.2</ele>
        <time>2024-04-16T05:44:46Z</time>
      </trkpt>
      <trkpt lat="50.12085" lon="4.11425">
        <ele>172.4</ele>
        <time>2024-04-16T05:44:47Z</time>
      </trkpt>
      <trkpt lat="50.12082" lon="4.11418">
        <ele>172.6</ele>
        <time>2024-04-16T05:44:48Z</time>
      </trkpt>
      <trkpt lat="50.12079" lon="4.11411">
        <ele>172.8</ele>
        <time>2024-04-16T05:44:49Z</time>
      </trkpt>
      <trkpt lat="50.12076" lon="4.11403">
        <ele>172.8</ele>
        <time>2024-04-16T05:44:50Z</time>
      </trkpt>
      <trkpt lat="50.12074" lon="4.11396">
        <ele>173</ele>
        <time>2024-04-16T05:44:51Z</time>
      </trkpt>
      <trkpt lat="50.12071" lon="4.11388">
        <ele>173</ele>
        <time>2024-04-16T05:44:52Z</time>
      </trkpt>
      <trkpt lat="50.12069" lon="4.1138">
        <ele>173</ele>
        <time>2024-04-16T05:44:53Z</time>
      </trkpt>
      <trkpt lat="50.12066" lon="4.11372">
        <ele>173.2</ele>
        <time>2024-04-16T05:44:54Z</time>
      </trkpt>
      <trkpt lat="50.12064" lon="4.11364">
        <ele>173.6</ele>
        <time>2024-04-16T05:44:55Z</time>
      </trkpt>
      <trkpt lat="50.12061" lon="4.11355">
        <ele>173.6</ele>
        <time>2024-04-16T05:44:56Z</time>
      </trkpt>
      <trkpt lat="50.12059" lon="4.11347">
        <ele>173.8</ele>
        <time>2024-04-16T05:44:57Z</time>
      </trkpt>
      <trkpt lat="50.12057" lon="4.11339">
        <ele>173.6</ele>
        <time>2024-04-16T05:44:58Z</time>
      </trkpt>
      <trkpt lat="50.12055" lon="4.1133">
        <ele>173.8</ele>
        <time>2024-04-16T05:44:59Z</time>
      </trkpt>
      <trkpt lat="50.12053" lon="4.11321">
        <ele>173.8</ele>
        <time>2024-04-16T05:45:00Z</time>
      </trkpt>
      <trkpt lat="50.12051" lon="4.11312">
        <ele>173.8</ele>
        <time>2024-04-16T05:45:01Z</time>
      </trkpt>
      <trkpt lat="50.12049" lon="4.11303">
        <ele>173.8</ele>
        <time>2024-04-16T05:45:02Z</time>
      </trkpt>
      <trkpt lat="50.12047" lon="4.11294">
        <ele>173.8</ele>
        <time>2024-04-16T05:45:03Z</time>
      </trkpt>
      <trkpt lat="50.12045" lon="4.11285">
        <ele>173.8</ele>
        <time>2024-04-16T05:45:04Z</time>
      </trkpt>
      <trkpt lat="50.12044" lon="4.11275">
        <ele>173.8</ele>
        <time>2024-04-16T05:45:05Z</time>
      </trkpt>
      <trkpt lat="50.12042" lon="4.11265">
        <ele>173.8</ele>
        <time>2024-04-16T05:45:06Z</time>
      </trkpt>
      <trkpt lat="50.1204" lon="4.11255">
        <ele>174</ele>
        <time>2024-04-16T05:45:07Z</time>
      </trkpt>
      <trkpt lat="50.12039" lon="4.11244">
        <ele>173.8</ele>
        <time>2024-04-16T05:45:08Z</time>
      </trkpt>
      <trkpt lat="50.12038" lon="4.11233">
        <ele>173.8</ele>
        <time>2024-04-16T05:45:09Z</time>
      </trkpt>
      <trkpt lat="50.12037" lon="4.11222">
        <ele>173.8</ele>
        <time>2024-04-16T05:45:10Z</time>
      </trkpt>
      <trkpt lat="50.12035" lon="4.11211">
        <ele>173.6</ele>
        <time>2024-04-16T05:45:11Z</time>
      </trkpt>
      <trkpt lat="50.12034" lon="4.11199">
        <ele>173.4</ele>
        <time>2024-04-16T05:45:12Z</time>
      </trkpt>
      <trkpt lat="50.12034" lon="4.11187">
        <ele>173.2</ele>
        <time>2024-04-16T05:45:13Z</time>
      </trkpt>
      <trkpt lat="50.12033" lon="4.11174">
        <ele>172.8</ele>
        <time>2024-04-16T05:45:14Z</time>
      </trkpt>
      <trkpt lat="50.12032" lon="4.11162">
        <ele>172.8</ele>
        <time>2024-04-16T05:45:15Z</time>
      </trkpt>
      <trkpt lat="50.12032" lon="4.11148">
        <ele>172.6</ele>
        <time>2024-04-16T05:45:16Z</time>
      </trkpt>
      <trkpt lat="50.12032" lon="4.11135">
        <ele>171.8</ele>
        <time>2024-04-16T05:45:17Z</time>
      </trkpt>
      <trkpt lat="50.12031" lon="4.11122">
        <ele>171.2</ele>
        <time>2024-04-16T05:45:18Z</time>
      </trkpt>
      <trkpt lat="50.12031" lon="4.11108">
        <ele>170.8</ele>
        <time>2024-04-16T05:45:19Z</time>
      </trkpt>
      <trkpt lat="50.1203" lon="4.11094">
        <ele>170.6</ele>
        <time>2024-04-16T05:45:20Z</time>
      </trkpt>
      <trkpt lat="50.1203" lon="4.11081">
        <ele>170.4</ele>
        <time>2024-04-16T05:45:21Z</time>
      </trkpt>
      <trkpt lat="50.12029" lon="4.11067">
        <ele>170</ele>
        <time>2024-04-16T05:45:22Z</time>
      </trkpt>
      <trkpt lat="50.12029" lon="4.11054">
        <ele>169.8</ele>
        <time>2024-04-16T05:45:23Z</time>
      </trkpt>
      <trkpt lat="50.12028" lon="4.11041">
        <ele>169.8</ele>
        <time>2024-04-16T05:45:24Z</time>
      </trkpt>
      <trkpt lat="50.12028" lon="4.11028">
        <ele>169.4</ele>
        <time>2024-04-16T05:45:25Z</time>
      </trkpt>
      <trkpt lat="50.12028" lon="4.11016">
        <ele>169.2</ele>
        <time>2024-04-16T05:45:26Z</time>
      </trkpt>
      <trkpt lat="50.12027" lon="4.11004">
        <ele>168.6</ele>
        <time>2024-04-16T05:45:27Z</time>
      </trkpt>
      <trkpt lat="50.12027" lon="4.10993">
        <ele>167.8</ele>
        <time>2024-04-16T05:45:28Z</time>
      </trkpt>
      <trkpt lat="50.12026" lon="4.10982">
        <ele>167.2</ele>
        <time>2024-04-16T05:45:29Z</time>
      </trkpt>
      <trkpt lat="50.12026" lon="4.10972">
        <ele>167.2</ele>
        <time>2024-04-16T05:45:30Z</time>
      </trkpt>
      <trkpt lat="50.12025" lon="4.10962">
        <ele>167</ele>
        <time>2024-04-16T05:45:31Z</time>
      </trkpt>
      <trkpt lat="50.12025" lon="4.10952">
        <ele>167</ele>
        <time>2024-04-16T05:45:32Z</time>
      </trkpt>
      <trkpt lat="50.12025" lon="4.10942">
        <ele>167</ele>
        <time>2024-04-16T05:45:33Z</time>
      </trkpt>
      <trkpt lat="50.12024" lon="4.10932">
        <ele>166.8</ele>
        <time>2024-04-16T05:45:34Z</time>
      </trkpt>
      <trkpt lat="50.12024" lon="4.10923">
        <ele>166.6</ele>
        <time>2024-04-16T05:45:35Z</time>
      </trkpt>
      <trkpt lat="50.12023" lon="4.10914">
        <ele>166.6</ele>
        <time>2024-04-16T05:45:36Z</time>
      </trkpt>
      <trkpt lat="50.12023" lon="4.10904">
        <ele>166.6</ele>
        <time>2024-04-16T05:45:37Z</time>
      </trkpt>
      <trkpt lat="50.12022" lon="4.10895">
        <ele>166.6</ele>
        <time>2024-04-16T05:45:38Z</time>
      </trkpt>
      <trkpt lat="50.12021" lon="4.10886">
        <ele>166.8</ele>
        <time>2024-04-16T05:45:39Z</time>
      </trkpt>
      <trkpt lat="50.1202" lon="4.10877">
        <ele>166.8</ele>
        <time>2024-04-16T05:45:40Z</time>
      </trkpt>
      <trkpt lat="50.12019" lon="4.10867">
        <ele>166.8</ele>
        <time>2024-04-16T05:45:41Z</time>
      </trkpt>
      <trkpt lat="50.12018" lon="4.10858">
        <ele>166.8</ele>
        <time>2024-04-16T05:45:42Z</time>
      </trkpt>
      <trkpt lat="50.12017" lon="4.10849">
        <ele>167</ele>
        <time>2024-04-16T05:45:43Z</time>
      </trkpt>
      <trkpt lat="50.12015" lon="4.1084">
        <ele>167.2</ele>
        <time>2024-04-16T05:45:44Z</time>
      </trkpt>
      <trkpt lat="50.12014" lon="4.10831">
        <ele>167.2</ele>
        <time>2024-04-16T05:45:45Z</time>
      </trkpt>
      <trkpt lat="50.12012" lon="4.10822">
        <ele>167.2</ele>
        <time>2024-04-16T05:45:46Z</time>
      </trkpt>
      <trkpt lat="50.12011" lon="4.10813">
        <ele>167.2</ele>
        <time>2024-04-16T05:45:47Z</time>
      </trkpt>
      <trkpt lat="50.12009" lon="4.10804">
        <ele>167.4</ele>
        <time>2024-04-16T05:45:48Z</time>
      </trkpt>
      <trkpt lat="50.12008" lon="4.10795">
        <ele>167.4</ele>
        <time>2024-04-16T05:45:49Z</time>
      </trkpt>
      <trkpt lat="50.12006" lon="4.10786">
        <ele>167.4</ele>
        <time>2024-04-16T05:45:50Z</time>
      </trkpt>
      <trkpt lat="50.12005" lon="4.10777">
        <ele>167.4</ele>
        <time>2024-04-16T05:45:51Z</time>
      </trkpt>
      <trkpt lat="50.12004" lon="4.10768">
        <ele>167.4</ele>
        <time>2024-04-16T05:45:52Z</time>
      </trkpt>
      <trkpt lat="50.12002" lon="4.10759">
        <ele>167.6</ele>
        <time>2024-04-16T05:45:53Z</time>
      </trkpt>
      <trkpt lat="50.12001" lon="4.1075">
        <ele>167.6</ele>
        <time>2024-04-16T05:45:54Z</time>
      </trkpt>
      <trkpt lat="50.11999" lon="4.10742">
        <ele>167.8</ele>
        <time>2024-04-16T05:45:55Z</time>
      </trkpt>
      <trkpt lat="50.11998" lon="4.10733">
        <ele>168</ele>
        <time>2024-04-16T05:45:56Z</time>
      </trkpt>
      <trkpt lat="50.11997" lon="4.10724">
        <ele>168.2</ele>
        <time>2024-04-16T05:45:57Z</time>
      </trkpt>
      <trkpt lat="50.11996" lon="4.10715">
        <ele>168.2</ele>
        <time>2024-04-16T05:45:58Z</time>
      </trkpt>
      <trkpt lat="50.11995" lon="4.10707">
        <ele>168.2</ele>
        <time>2024-04-16T05:45:59Z</time>
      </trkpt>
      <trkpt lat="50.11995" lon="4.10698">
        <ele>168.2</ele>
        <time>2024-04-16T05:46:00Z</time>
      </trkpt>
      <trkpt lat="50.11995" lon="4.10689">
        <ele>168.4</ele>
        <time>2024-04-16T05:46:01Z</time>
      </trkpt>
      <trkpt lat="50.11995" lon="4.1068">
        <ele>168.4</ele>
        <time>2024-04-16T05:46:02Z</time>
      </trkpt>
      <trkpt lat="50.11996" lon="4.10671">
        <ele>168.2</ele>
        <time>2024-04-16T05:46:03Z</time>
      </trkpt>
      <trkpt lat="50.11997" lon="4.10662">
        <ele>168.2</ele>
        <time>2024-04-16T05:46:04Z</time>
      </trkpt>
      <trkpt lat="50.11999" lon="4.10653">
        <ele>168.4</ele>
        <time>2024-04-16T05:46:05Z</time>
      </trkpt>
      <trkpt lat="50.12" lon="4.10644">
        <ele>168.4</ele>
        <time>2024-04-16T05:46:06Z</time>
      </trkpt>
      <trkpt lat="50.12003" lon="4.10635">
        <ele>168.4</ele>
        <time>2024-04-16T05:46:07Z</time>
      </trkpt>
      <trkpt lat="50.12005" lon="4.10625">
        <ele>168.4</ele>
        <time>2024-04-16T05:46:08Z</time>
      </trkpt>
      <trkpt lat="50.12008" lon="4.10616">
        <ele>168.4</ele>
        <time>2024-04-16T05:46:09Z</time>
      </trkpt>
      <trkpt lat="50.12011" lon="4.10606">
        <ele>168.2</ele>
        <time>2024-04-16T05:46:10Z</time>
      </trkpt>
      <trkpt lat="50.12014" lon="4.10597">
        <ele>168.2</ele>
        <time>2024-04-16T05:46:11Z</time>
      </trkpt>
      <trkpt lat="50.12017" lon="4.10587">
        <ele>168</ele>
        <time>2024-04-16T05:46:12Z</time>
      </trkpt>
      <trkpt lat="50.1202" lon="4.10576">
        <ele>167.8</ele>
        <time>2024-04-16T05:46:13Z</time>
      </trkpt>
      <trkpt lat="50.12023" lon="4.10565">
        <ele>167.8</ele>
        <time>2024-04-16T05:46:14Z</time>
      </trkpt>
      <trkpt lat="50.12027" lon="4.10554">
        <ele>167.6</ele>
        <time>2024-04-16T05:46:15Z</time>
      </trkpt>
      <trkpt lat="50.1203" lon="4.10543">
        <ele>167.6</ele>
        <time>2024-04-16T05:46:16Z</time>
      </trkpt>
      <trkpt lat="50.12034" lon="4.10531">
        <ele>167.4</ele>
        <time>2024-04-16T05:46:17Z</time>
      </trkpt>
      <trkpt lat="50.12038" lon="4.10519">
        <ele>167.2</ele>
        <time>2024-04-16T05:46:18Z</time>
      </trkpt>
      <trkpt lat="50.12042" lon="4.10506">
        <ele>167.4</ele>
        <time>2024-04-16T05:46:19Z</time>
      </trkpt>
      <trkpt lat="50.12046" lon="4.10493">
        <ele>167.2</ele>
        <time>2024-04-16T05:46:20Z</time>
      </trkpt>
      <trkpt lat="50.1205" lon="4.1048">
        <ele>167</ele>
        <time>2024-04-16T05:46:21Z</time>
      </trkpt>
      <trkpt lat="50.12054" lon="4.10467">
        <ele>166.2</ele>
        <time>2024-04-16T05:46:22Z</time>
      </trkpt>
      <trkpt lat="50.12058" lon="4.10453">
        <ele>166</ele>
        <time>2024-04-16T05:46:23Z</time>
      </trkpt>
      <trkpt lat="50.12061" lon="4.10439">
        <ele>164.8</ele>
        <time>2024-04-16T05:46:24Z</time>
      </trkpt>
      <trkpt lat="50.12065" lon="4.10426">
        <ele>164</ele>
        <time>2024-04-16T05:46:25Z</time>
      </trkpt>
      <trkpt lat="50.12067" lon="4.10413">
        <ele>163.6</ele>
        <time>2024-04-16T05:46:26Z</time>
      </trkpt>
      <trkpt lat="50.1207" lon="4.104">
        <ele>163.2</ele>
        <time>2024-04-16T05:46:27Z</time>
      </trkpt>
      <trkpt lat="50.12072" lon="4.10387">
        <ele>163</ele>
        <time>2024-04-16T05:46:28Z</time>
      </trkpt>
      <trkpt lat="50.12073" lon="4.10374">
        <ele>161.8</ele>
        <time>2024-04-16T05:46:29Z</time>
      </trkpt>
      <trkpt lat="50.12074" lon="4.10362">
        <ele>160.4</ele>
        <time>2024-04-16T05:46:30Z</time>
      </trkpt>
      <trkpt lat="50.12075" lon="4.1035">
        <ele>160.4</ele>
        <time>2024-04-16T05:46:31Z</time>
      </trkpt>
      <trkpt lat="50.12075" lon="4.10339">
        <ele>159.8</ele>
        <time>2024-04-16T05:46:32Z</time>
      </trkpt>
      <trkpt lat="50.12075" lon="4.10328">
        <ele>159.6</ele>
        <time>2024-04-16T05:46:33Z</time>
      </trkpt>
      <trkpt lat="50.12075" lon="4.10317">
        <ele>159.4</ele>
        <time>2024-04-16T05:46:34Z</time>
      </trkpt>
      <trkpt lat="50.12075" lon="4.10307">
        <ele>159.4</ele>
        <time>2024-04-16T05:46:35Z</time>
      </trkpt>
      <trkpt lat="50.12075" lon="4.10296">
        <ele>159.2</ele>
        <time>2024-04-16T05:46:36Z</time>
      </trkpt>
      <trkpt lat="50.12075" lon="4.10286">
        <ele>159.2</ele>
        <time>2024-04-16T05:46:37Z</time>
      </trkpt>
      <trkpt lat="50.12076" lon="4.10276">
        <ele>159.2</ele>
        <time>2024-04-16T05:46:38Z</time>
      </trkpt>
      <trkpt lat="50.12076" lon="4.10266">
        <ele>159.4</ele>
        <time>2024-04-16T05:46:39Z</time>
      </trkpt>
      <trkpt lat="50.12076" lon="4.10257">
        <ele>159.2</ele>
        <time>2024-04-16T05:46:40Z</time>
      </trkpt>
      <trkpt lat="50.12076" lon="4.10247">
        <ele>159.6</ele>
        <time>2024-04-16T05:46:41Z</time>
      </trkpt>
      <trkpt lat="50.12077" lon="4.10237">
        <ele>160.2</ele>
        <time>2024-04-16T05:46:42Z</time>
      </trkpt>
      <trkpt lat="50.12078" lon="4.10228">
        <ele>160.4</ele>
        <time>2024-04-16T05:46:43Z</time>
      </trkpt>
      <trkpt lat="50.12078" lon="4.10219">
        <ele>160.8</ele>
        <time>2024-04-16T05:46:44Z</time>
      </trkpt>
      <trkpt lat="50.12079" lon="4.1021">
        <ele>161.2</ele>
        <time>2024-04-16T05:46:45Z</time>
      </trkpt>
      <trkpt lat="50.12079" lon="4.10201">
        <ele>161.4</ele>
        <time>2024-04-16T05:46:46Z</time>
      </trkpt>
      <trkpt lat="50.12079" lon="4.10192">
        <ele>161.6</ele>
        <time>2024-04-16T05:46:47Z</time>
      </trkpt>
      <trkpt lat="50.1208" lon="4.10183">
        <ele>161.8</ele>
        <time>2024-04-16T05:46:48Z</time>
      </trkpt>
      <trkpt lat="50.12081" lon="4.10174">
        <ele>162.2</ele>
        <time>2024-04-16T05:46:49Z</time>
      </trkpt>
      <trkpt lat="50.12083" lon="4.10165">
        <ele>162.4</ele>
        <time>2024-04-16T05:46:50Z</time>
      </trkpt>
      <trkpt lat="50.12084" lon="4.10156">
        <ele>162.8</ele>
        <time>2024-04-16T05:46:51Z</time>
      </trkpt>
      <trkpt lat="50.12086" lon="4.10148">
        <ele>163</ele>
        <time>2024-04-16T05:46:52Z</time>
      </trkpt>
      <trkpt lat="50.12087" lon="4.10139">
        <ele>163</ele>
        <time>2024-04-16T05:46:53Z</time>
      </trkpt>
      <trkpt lat="50.12089" lon="4.1013">
        <ele>163</ele>
        <time>2024-04-16T05:46:54Z</time>
      </trkpt>
      <trkpt lat="50.12091" lon="4.10121">
        <ele>163.2</ele>
        <time>2024-04-16T05:46:55Z</time>
      </trkpt>
      <trkpt lat="50.12093" lon="4.10112">
        <ele>163.2</ele>
        <time>2024-04-16T05:46:56Z</time>
      </trkpt>
      <trkpt lat="50.12095" lon="4.10102">
        <ele>163.6</ele>
        <time>2024-04-16T05:46:57Z</time>
      </trkpt>
      <trkpt lat="50.12097" lon="4.10093">
        <ele>163.6</ele>
        <time>2024-04-16T05:46:58Z</time>
      </trkpt>
      <trkpt lat="50.12099" lon="4.10084">
        <ele>163.6</ele>
        <time>2024-04-16T05:46:59Z</time>
      </trkpt>
      <trkpt lat="50.12101" lon="4.10074">
        <ele>163.6</ele>
        <time>2024-04-16T05:47:00Z</time>
      </trkpt>
      <trkpt lat="50.12103" lon="4.10065">
        <ele>164</ele>
        <time>2024-04-16T05:47:01Z</time>
      </trkpt>
      <trkpt lat="50.12105" lon="4.10056">
        <ele>164.2</ele>
        <time>2024-04-16T05:47:02Z</time>
      </trkpt>
      <trkpt lat="50.12107" lon="4.10047">
        <ele>164.2</ele>
        <time>2024-04-16T05:47:03Z</time>
      </trkpt>
      <trkpt lat="50.1211" lon="4.10037">
        <ele>164.4</ele>
        <time>2024-04-16T05:47:04Z</time>
      </trkpt>
      <trkpt lat="50.12112" lon="4.10028">
        <ele>164.4</ele>
        <time>2024-04-16T05:47:05Z</time>
      </trkpt>
      <trkpt lat="50.12114" lon="4.10019">
        <ele>164.4</ele>
        <time>2024-04-16T05:47:06Z</time>
      </trkpt>
      <trkpt lat="50.12116" lon="4.1001">
        <ele>164.4</ele>
        <time>2024-04-16T05:47:07Z</time>
      </trkpt>
      <trkpt lat="50.12118" lon="4.10001">
        <ele>164.4</ele>
        <time>2024-04-16T05:47:08Z</time>
      </trkpt>
      <trkpt lat="50.1212" lon="4.09992">
        <ele>164.4</ele>
        <time>2024-04-16T05:47:09Z</time>
      </trkpt>
      <trkpt lat="50.12121" lon="4.09983">
        <ele>164.4</ele>
        <time>2024-04-16T05:47:10Z</time>
      </trkpt>
      <trkpt lat="50.12122" lon="4.09974">
        <ele>164.4</ele>
        <time>2024-04-16T05:47:11Z</time>
      </trkpt>
      <trkpt lat="50.12123" lon="4.09965">
        <ele>164.4</ele>
        <time>2024-04-16T05:47:12Z</time>
      </trkpt>
      <trkpt lat="50.12123" lon="4.09956">
        <ele>164.4</ele>
        <time>2024-04-16T05:47:13Z</time>
      </trkpt>
      <trkpt lat="50.12123" lon="4.09948">
        <ele>164.4</ele>
        <time>2024-04-16T05:47:14Z</time>
      </trkpt>
      <trkpt lat="50.12123" lon="4.09939">
        <ele>164.4</ele>
        <time>2024-04-16T05:47:15Z</time>
      </trkpt>
      <trkpt lat="50.12123" lon="4.09931">
        <ele>164.4</ele>
        <time>2024-04-16T05:47:16Z</time>
      </trkpt>
      <trkpt lat="50.12122" lon="4.09923">
        <ele>164.4</ele>
        <time>2024-04-16T05:47:17Z</time>
      </trkpt>
      <trkpt lat="50.12121" lon="4.09915">
        <ele>164.4</ele>
        <time>2024-04-16T05:47:18Z</time>
      </trkpt>
      <trkpt lat="50.1212" lon="4.09907">
        <ele>164.6</ele>
        <time>2024-04-16T05:47:19Z</time>
      </trkpt>
      <trkpt lat="50.12118" lon="4.09899">
        <ele>164.8</ele>
        <time>2024-04-16T05:47:20Z</time>
      </trkpt>
      <trkpt lat="50.12117" lon="4.09892">
        <ele>165</ele>
        <time>2024-04-16T05:47:21Z</time>
      </trkpt>
      <trkpt lat="50.12116" lon="4.09884">
        <ele>165.2</ele>
        <time>2024-04-16T05:47:22Z</time>
      </trkpt>
      <trkpt lat="50.12115" lon="4.09876">
        <ele>165.6</ele>
        <time>2024-04-16T05:47:23Z</time>
      </trkpt>
      <trkpt lat="50.12114" lon="4.09869">
        <ele>165.6</ele>
        <time>2024-04-16T05:47:24Z</time>
      </trkpt>
      <trkpt lat="50.12113" lon="4.09861">
        <ele>166</ele>
        <time>2024-04-16T05:47:25Z</time>
      </trkpt>
      <trkpt lat="50.12113" lon="4.09853">
        <ele>166.4</ele>
        <time>2024-04-16T05:47:26Z</time>
      </trkpt>
      <trkpt lat="50.12112" lon="4.09845">
        <ele>166.6</ele>
        <time>2024-04-16T05:47:27Z</time>
      </trkpt>
      <trkpt lat="50.12111" lon="4.09837">
        <ele>166.6</ele>
        <time>2024-04-16T05:47:28Z</time>
      </trkpt>
      <trkpt lat="50.12111" lon="4.09829">
        <ele>166.6</ele>
        <time>2024-04-16T05:47:29Z</time>
      </trkpt>
      <trkpt lat="50.1211" lon="4.09821">
        <ele>167</ele>
        <time>2024-04-16T05:47:30Z</time>
      </trkpt>
      <trkpt lat="50.1211" lon="4.09812">
        <ele>167</ele>
        <time>2024-04-16T05:47:31Z</time>
      </trkpt>
      <trkpt lat="50.12109" lon="4.09804">
        <ele>167.4</ele>
        <time>2024-04-16T05:47:32Z</time>
      </trkpt>
      <trkpt lat="50.12108" lon="4.09796">
        <ele>167.4</ele>
        <time>2024-04-16T05:47:33Z</time>
      </trkpt>
      <trkpt lat="50.12108" lon="4.09787">
        <ele>167.6</ele>
        <time>2024-04-16T05:47:34Z</time>
      </trkpt>
      <trkpt lat="50.12107" lon="4.09779">
        <ele>167.6</ele>
        <time>2024-04-16T05:47:35Z</time>
      </trkpt>
      <trkpt lat="50.12106" lon="4.0977">
        <ele>167.8</ele>
        <time>2024-04-16T05:47:36Z</time>
      </trkpt>
      <trkpt lat="50.12104" lon="4.09761">
        <ele>167.8</ele>
        <time>2024-04-16T05:47:37Z</time>
      </trkpt>
      <trkpt lat="50.12102" lon="4.09752">
        <ele>168</ele>
        <time>2024-04-16T05:47:38Z</time>
      </trkpt>
      <trkpt lat="50.121" lon="4.09744">
        <ele>168.2</ele>
        <time>2024-04-16T05:47:39Z</time>
      </trkpt>
      <trkpt lat="50.12098" lon="4.09735">
        <ele>168.2</ele>
        <time>2024-04-16T05:47:40Z</time>
      </trkpt>
      <trkpt lat="50.12096" lon="4.09726">
        <ele>168.4</ele>
        <time>2024-04-16T05:47:41Z</time>
      </trkpt>
      <trkpt lat="50.12093" lon="4.09718">
        <ele>168.6</ele>
        <time>2024-04-16T05:47:42Z</time>
      </trkpt>
      <trkpt lat="50.12091" lon="4.09709">
        <ele>168.6</ele>
        <time>2024-04-16T05:47:43Z</time>
      </trkpt>
      <trkpt lat="50.12089" lon="4.097">
        <ele>168.6</ele>
        <time>2024-04-16T05:47:44Z</time>
      </trkpt>
      <trkpt lat="50.12086" lon="4.09691">
        <ele>168.6</ele>
        <time>2024-04-16T05:47:45Z</time>
      </trkpt>
      <trkpt lat="50.12084" lon="4.09682">
        <ele>168.6</ele>
        <time>2024-04-16T05:47:46Z</time>
      </trkpt>
      <trkpt lat="50.12081" lon="4.09674">
        <ele>168.6</ele>
        <time>2024-04-16T05:47:47Z</time>
      </trkpt>
      <trkpt lat="50.12079" lon="4.09664">
        <ele>168.4</ele>
        <time>2024-04-16T05:47:48Z</time>
      </trkpt>
      <trkpt lat="50.12077" lon="4.09655">
        <ele>168.6</ele>
        <time>2024-04-16T05:47:49Z</time>
      </trkpt>
      <trkpt lat="50.12074" lon="4.09646">
        <ele>168.4</ele>
        <time>2024-04-16T05:47:50Z</time>
      </trkpt>
      <trkpt lat="50.12072" lon="4.09637">
        <ele>168.4</ele>
        <time>2024-04-16T05:47:51Z</time>
      </trkpt>
      <trkpt lat="50.12071" lon="4.09628">
        <ele>168.6</ele>
        <time>2024-04-16T05:47:52Z</time>
      </trkpt>
      <trkpt lat="50.12069" lon="4.09619">
        <ele>168.2</ele>
        <time>2024-04-16T05:47:53Z</time>
      </trkpt>
      <trkpt lat="50.12069" lon="4.09609">
        <ele>167.8</ele>
        <time>2024-04-16T05:47:54Z</time>
      </trkpt>
      <trkpt lat="50.12068" lon="4.096">
        <ele>167.8</ele>
        <time>2024-04-16T05:47:55Z</time>
      </trkpt>
      <trkpt lat="50.12069" lon="4.09591">
        <ele>167.6</ele>
        <time>2024-04-16T05:47:56Z</time>
      </trkpt>
      <trkpt lat="50.12069" lon="4.09582">
        <ele>167.6</ele>
        <time>2024-04-16T05:47:57Z</time>
      </trkpt>
      <trkpt lat="50.12069" lon="4.09572">
        <ele>167.8</ele>
        <time>2024-04-16T05:47:58Z</time>
      </trkpt>
      <trkpt lat="50.1207" lon="4.09563">
        <ele>167.8</ele>
        <time>2024-04-16T05:47:59Z</time>
      </trkpt>
      <trkpt lat="50.12071" lon="4.09554">
        <ele>167.8</ele>
        <time>2024-04-16T05:48:00Z</time>
      </trkpt>
      <trkpt lat="50.12072" lon="4.09545">
        <ele>167.6</ele>
        <time>2024-04-16T05:48:01Z</time>
      </trkpt>
      <trkpt lat="50.12073" lon="4.09535">
        <ele>167.8</ele>
        <time>2024-04-16T05:48:02Z</time>
      </trkpt>
      <trkpt lat="50.12074" lon="4.09525">
        <ele>167.8</ele>
        <time>2024-04-16T05:48:03Z</time>
      </trkpt>
      <trkpt lat="50.12075" lon="4.09516">
        <ele>168</ele>
        <time>2024-04-16T05:48:04Z</time>
      </trkpt>
      <trkpt lat="50.12077" lon="4.09506">
        <ele>168</ele>
        <time>2024-04-16T05:48:05Z</time>
      </trkpt>
      <trkpt lat="50.12079" lon="4.09497">
        <ele>168</ele>
        <time>2024-04-16T05:48:06Z</time>
      </trkpt>
      <trkpt lat="50.12081" lon="4.09488">
        <ele>168</ele>
        <time>2024-04-16T05:48:07Z</time>
      </trkpt>
      <trkpt lat="50.12083" lon="4.09478">
        <ele>168</ele>
        <time>2024-04-16T05:48:08Z</time>
      </trkpt>
      <trkpt lat="50.12086" lon="4.09469">
        <ele>167.8</ele>
        <time>2024-04-16T05:48:09Z</time>
      </trkpt>
      <trkpt lat="50.12088" lon="4.09459">
        <ele>167.8</ele>
        <time>2024-04-16T05:48:10Z</time>
      </trkpt>
      <trkpt lat="50.12091" lon="4.09449">
        <ele>168</ele>
        <time>2024-04-16T05:48:11Z</time>
      </trkpt>
      <trkpt lat="50.12094" lon="4.09439">
        <ele>167.8</ele>
        <time>2024-04-16T05:48:12Z</time>
      </trkpt>
      <trkpt lat="50.12096" lon="4.09429">
        <ele>168</ele>
        <time>2024-04-16T05:48:13Z</time>
      </trkpt>
      <trkpt lat="50.12099" lon="4.09418">
        <ele>167.4</ele>
        <time>2024-04-16T05:48:14Z</time>
      </trkpt>
      <trkpt lat="50.12102" lon="4.09408">
        <ele>167.2</ele>
        <time>2024-04-16T05:48:15Z</time>
      </trkpt>
      <trkpt lat="50.12105" lon="4.09397">
        <ele>167.2</ele>
        <time>2024-04-16T05:48:16Z</time>
      </trkpt>
      <trkpt lat="50.12107" lon="4.09386">
        <ele>167</ele>
        <time>2024-04-16T05:48:17Z</time>
      </trkpt>
      <trkpt lat="50.1211" lon="4.09375">
        <ele>166.8</ele>
        <time>2024-04-16T05:48:18Z</time>
      </trkpt>
      <trkpt lat="50.12113" lon="4.09364">
        <ele>166.8</ele>
        <time>2024-04-16T05:48:19Z</time>
      </trkpt>
      <trkpt lat="50.12116" lon="4.09353">
        <ele>166.8</ele>
        <time>2024-04-16T05:48:20Z</time>
      </trkpt>
      <trkpt lat="50.12119" lon="4.09342">
        <ele>166.6</ele>
        <time>2024-04-16T05:48:21Z</time>
      </trkpt>
      <trkpt lat="50.12121" lon="4.0933">
        <ele>166.4</ele>
        <time>2024-04-16T05:48:22Z</time>
      </trkpt>
      <trkpt lat="50.12123" lon="4.09318">
        <ele>166.2</ele>
        <time>2024-04-16T05:48:23Z</time>
      </trkpt>
      <trkpt lat="50.12126" lon="4.09306">
        <ele>166</ele>
        <time>2024-04-16T05:48:24Z</time>
      </trkpt>
      <trkpt lat="50.12128" lon="4.09294">
        <ele>165.6</ele>
        <time>2024-04-16T05:48:25Z</time>
      </trkpt>
      <trkpt lat="50.12129" lon="4.09282">
        <ele>165.2</ele>
        <time>2024-04-16T05:48:26Z</time>
      </trkpt>
      <trkpt lat="50.12131" lon="4.0927">
        <ele>165</ele>
        <time>2024-04-16T05:48:27Z</time>
      </trkpt>
      <trkpt lat="50.12134" lon="4.09257">
        <ele>164.8</ele>
        <time>2024-04-16T05:48:28Z</time>
      </trkpt>
      <trkpt lat="50.12137" lon="4.09245">
        <ele>164.6</ele>
        <time>2024-04-16T05:48:29Z</time>
      </trkpt>
      <trkpt lat="50.1214" lon="4.09232">
        <ele>164.6</ele>
        <time>2024-04-16T05:48:30Z</time>
      </trkpt>
      <trkpt lat="50.12143" lon="4.09221">
        <ele>164.4</ele>
        <time>2024-04-16T05:48:31Z</time>
      </trkpt>
      <trkpt lat="50.12148" lon="4.09209">
        <ele>164</ele>
        <time>2024-04-16T05:48:32Z</time>
      </trkpt>
      <trkpt lat="50.12152" lon="4.09199">
        <ele>163.6</ele>
        <time>2024-04-16T05:48:33Z</time>
      </trkpt>
      <trkpt lat="50.12157" lon="4.09188">
        <ele>163.6</ele>
        <time>2024-04-16T05:48:34Z</time>
      </trkpt>
      <trkpt lat="50.12163" lon="4.09179">
        <ele>163.4</ele>
        <time>2024-04-16T05:48:35Z</time>
      </trkpt>
      <trkpt lat="50.12168" lon="4.09169">
        <ele>163</ele>
        <time>2024-04-16T05:48:36Z</time>
      </trkpt>
      <trkpt lat="50.12173" lon="4.09158">
        <ele>162.6</ele>
        <time>2024-04-16T05:48:37Z</time>
      </trkpt>
      <trkpt lat="50.12177" lon="4.09147">
        <ele>162.4</ele>
        <time>2024-04-16T05:48:38Z</time>
      </trkpt>
      <trkpt lat="50.12181" lon="4.09136">
        <ele>162.2</ele>
        <time>2024-04-16T05:48:39Z</time>
      </trkpt>
      <trkpt lat="50.12184" lon="4.09125">
        <ele>162.2</ele>
        <time>2024-04-16T05:48:40Z</time>
      </trkpt>
      <trkpt lat="50.12187" lon="4.09113">
        <ele>161.8</ele>
        <time>2024-04-16T05:48:41Z</time>
      </trkpt>
      <trkpt lat="50.12188" lon="4.09101">
        <ele>161.8</ele>
        <time>2024-04-16T05:48:42Z</time>
      </trkpt>
      <trkpt lat="50.1219" lon="4.09088">
        <ele>161.8</ele>
        <time>2024-04-16T05:48:43Z</time>
      </trkpt>
      <trkpt lat="50.12191" lon="4.09076">
        <ele>161.6</ele>
        <time>2024-04-16T05:48:44Z</time>
      </trkpt>
      <trkpt lat="50.12191" lon="4.09064">
        <ele>161.6</ele>
        <time>2024-04-16T05:48:45Z</time>
      </trkpt>
      <trkpt lat="50.12191" lon="4.09051">
        <ele>161.4</ele>
        <time>2024-04-16T05:48:46Z</time>
      </trkpt>
      <trkpt lat="50.12191" lon="4.09039">
        <ele>161.4</ele>
        <time>2024-04-16T05:48:47Z</time>
      </trkpt>
      <trkpt lat="50.12191" lon="4.09026">
        <ele>160.8</ele>
        <time>2024-04-16T05:48:48Z</time>
      </trkpt>
      <trkpt lat="50.12191" lon="4.09014">
        <ele>160.2</ele>
        <time>2024-04-16T05:48:49Z</time>
      </trkpt>
      <trkpt lat="50.12191" lon="4.09002">
        <ele>160</ele>
        <time>2024-04-16T05:48:50Z</time>
      </trkpt>
      <trkpt lat="50.12191" lon="4.08991">
        <ele>158.6</ele>
        <time>2024-04-16T05:48:51Z</time>
      </trkpt>
      <trkpt lat="50.12191" lon="4.08979">
        <ele>157.6</ele>
        <time>2024-04-16T05:48:52Z</time>
      </trkpt>
      <trkpt lat="50.12191" lon="4.08968">
        <ele>156.8</ele>
        <time>2024-04-16T05:48:53Z</time>
      </trkpt>
      <trkpt lat="50.12191" lon="4.08957">
        <ele>156.6</ele>
        <time>2024-04-16T05:48:54Z</time>
      </trkpt>
      <trkpt lat="50.12191" lon="4.08946">
        <ele>156.4</ele>
        <time>2024-04-16T05:48:55Z</time>
      </trkpt>
      <trkpt lat="50.12191" lon="4.08935">
        <ele>156.2</ele>
        <time>2024-04-16T05:48:56Z</time>
      </trkpt>
      <trkpt lat="50.12191" lon="4.08924">
        <ele>156.2</ele>
        <time>2024-04-16T05:48:57Z</time>
      </trkpt>
      <trkpt lat="50.12191" lon="4.08913">
        <ele>156.2</ele>
        <time>2024-04-16T05:48:58Z</time>
      </trkpt>
      <trkpt lat="50.12191" lon="4.08903">
        <ele>156</ele>
        <time>2024-04-16T05:48:59Z</time>
      </trkpt>
      <trkpt lat="50.12191" lon="4.08892">
        <ele>156</ele>
        <time>2024-04-16T05:49:00Z</time>
      </trkpt>
      <trkpt lat="50.12192" lon="4.08882">
        <ele>155.8</ele>
        <time>2024-04-16T05:49:01Z</time>
      </trkpt>
      <trkpt lat="50.12192" lon="4.08871">
        <ele>156</ele>
        <time>2024-04-16T05:49:02Z</time>
      </trkpt>
      <trkpt lat="50.12192" lon="4.08861">
        <ele>155.8</ele>
        <time>2024-04-16T05:49:03Z</time>
      </trkpt>
      <trkpt lat="50.12193" lon="4.08851">
        <ele>155.8</ele>
        <time>2024-04-16T05:49:04Z</time>
      </trkpt>
      <trkpt lat="50.12193" lon="4.0884">
        <ele>156</ele>
        <time>2024-04-16T05:49:05Z</time>
      </trkpt>
      <trkpt lat="50.12195" lon="4.0883">
        <ele>155.8</ele>
        <time>2024-04-16T05:49:06Z</time>
      </trkpt>
      <trkpt lat="50.12196" lon="4.08819">
        <ele>156</ele>
        <time>2024-04-16T05:49:07Z</time>
      </trkpt>
      <trkpt lat="50.12197" lon="4.08809">
        <ele>156</ele>
        <time>2024-04-16T05:49:08Z</time>
      </trkpt>
      <trkpt lat="50.12199" lon="4.08799">
        <ele>156</ele>
        <time>2024-04-16T05:49:09Z</time>
      </trkpt>
      <trkpt lat="50.122" lon="4.08788">
        <ele>156.2</ele>
        <time>2024-04-16T05:49:10Z</time>
      </trkpt>
      <trkpt lat="50.12201" lon="4.08778">
        <ele>156.2</ele>
        <time>2024-04-16T05:49:11Z</time>
      </trkpt>
      <trkpt lat="50.12202" lon="4.08768">
        <ele>156</ele>
        <time>2024-04-16T05:49:12Z</time>
      </trkpt>
      <trkpt lat="50.12204" lon="4.08758">
        <ele>156</ele>
        <time>2024-04-16T05:49:13Z</time>
      </trkpt>
      <trkpt lat="50.12204" lon="4.08748">
        <ele>156.2</ele>
        <time>2024-04-16T05:49:14Z</time>
      </trkpt>
      <trkpt lat="50.12205" lon="4.08738">
        <ele>156.2</ele>
        <time>2024-04-16T05:49:15Z</time>
      </trkpt>
      <trkpt lat="50.12206" lon="4.08728">
        <ele>156.2</ele>
        <time>2024-04-16T05:49:16Z</time>
      </trkpt>
      <trkpt lat="50.12207" lon="4.08718">
        <ele>156.2</ele>
        <time>2024-04-16T05:49:17Z</time>
      </trkpt>
      <trkpt lat="50.12207" lon="4.08708">
        <ele>156.2</ele>
        <time>2024-04-16T05:49:18Z</time>
      </trkpt>
      <trkpt lat="50.12207" lon="4.08698">
        <ele>156.2</ele>
        <time>2024-04-16T05:49:19Z</time>
      </trkpt>
      <trkpt lat="50.12207" lon="4.08688">
        <ele>156.2</ele>
        <time>2024-04-16T05:49:20Z</time>
      </trkpt>
      <trkpt lat="50.12208" lon="4.08677">
        <ele>156.2</ele>
        <time>2024-04-16T05:49:21Z</time>
      </trkpt>
      <trkpt lat="50.12208" lon="4.08667">
        <ele>156.2</ele>
        <time>2024-04-16T05:49:22Z</time>
      </trkpt>
      <trkpt lat="50.12208" lon="4.08657">
        <ele>156.2</ele>
        <time>2024-04-16T05:49:23Z</time>
      </trkpt>
      <trkpt lat="50.12208" lon="4.08647">
        <ele>156</ele>
        <time>2024-04-16T05:49:24Z</time>
      </trkpt>
      <trkpt lat="50.12208" lon="4.08636">
        <ele>156</ele>
        <time>2024-04-16T05:49:25Z</time>
      </trkpt>
      <trkpt lat="50.12208" lon="4.08626">
        <ele>156</ele>
        <time>2024-04-16T05:49:26Z</time>
      </trkpt>
      <trkpt lat="50.12208" lon="4.08616">
        <ele>155.8</ele>
        <time>2024-04-16T05:49:27Z</time>
      </trkpt>
      <trkpt lat="50.12207" lon="4.08606">
        <ele>155.8</ele>
        <time>2024-04-16T05:49:28Z</time>
      </trkpt>
      <trkpt lat="50.12207" lon="4.08595">
        <ele>156</ele>
        <time>2024-04-16T05:49:29Z</time>
      </trkpt>
      <trkpt lat="50.12206" lon="4.08585">
        <ele>155.8</ele>
        <time>2024-04-16T05:49:30Z</time>
      </trkpt>
      <trkpt lat="50.12206" lon="4.08575">
        <ele>156</ele>
        <time>2024-04-16T05:49:31Z</time>
      </trkpt>
      <trkpt lat="50.12206" lon="4.08565">
        <ele>155.8</ele>
        <time>2024-04-16T05:49:32Z</time>
      </trkpt>
      <trkpt lat="50.12206" lon="4.08554">
        <ele>155.8</ele>
        <time>2024-04-16T05:49:33Z</time>
      </trkpt>
      <trkpt lat="50.12206" lon="4.08544">
        <ele>155.8</ele>
        <time>2024-04-16T05:49:34Z</time>
      </trkpt>
      <trkpt lat="50.12206" lon="4.08534">
        <ele>155.8</ele>
        <time>2024-04-16T05:49:35Z</time>
      </trkpt>
      <trkpt lat="50.12207" lon="4.08524">
        <ele>155.8</ele>
        <time>2024-04-16T05:49:36Z</time>
      </trkpt>
      <trkpt lat="50.12207" lon="4.08514">
        <ele>155.8</ele>
        <time>2024-04-16T05:49:37Z</time>
      </trkpt>
      <trkpt lat="50.12209" lon="4.08504">
        <ele>155.8</ele>
        <time>2024-04-16T05:49:38Z</time>
      </trkpt>
      <trkpt lat="50.1221" lon="4.08495">
        <ele>155.8</ele>
        <time>2024-04-16T05:49:39Z</time>
      </trkpt>
      <trkpt lat="50.12211" lon="4.08486">
        <ele>155.8</ele>
        <time>2024-04-16T05:49:40Z</time>
      </trkpt>
      <trkpt lat="50.12213" lon="4.08477">
        <ele>155.8</ele>
        <time>2024-04-16T05:49:41Z</time>
      </trkpt>
      <trkpt lat="50.12215" lon="4.08468">
        <ele>155.6</ele>
        <time>2024-04-16T05:49:42Z</time>
      </trkpt>
      <trkpt lat="50.12216" lon="4.08459">
        <ele>155.6</ele>
        <time>2024-04-16T05:49:43Z</time>
      </trkpt>
      <trkpt lat="50.12218" lon="4.0845">
        <ele>155.6</ele>
        <time>2024-04-16T05:49:44Z</time>
      </trkpt>
      <trkpt lat="50.1222" lon="4.08442">
        <ele>155.6</ele>
        <time>2024-04-16T05:49:45Z</time>
      </trkpt>
      <trkpt lat="50.12221" lon="4.08433">
        <ele>155.6</ele>
        <time>2024-04-16T05:49:46Z</time>
      </trkpt>
      <trkpt lat="50.12223" lon="4.08424">
        <ele>155.6</ele>
        <time>2024-04-16T05:49:47Z</time>
      </trkpt>
      <trkpt lat="50.12225" lon="4.08415">
        <ele>155.6</ele>
        <time>2024-04-16T05:49:48Z</time>
      </trkpt>
      <trkpt lat="50.12228" lon="4.08406">
        <ele>155.8</ele>
        <time>2024-04-16T05:49:49Z</time>
      </trkpt>
      <trkpt lat="50.1223" lon="4.08398">
        <ele>156</ele>
        <time>2024-04-16T05:49:50Z</time>
      </trkpt>
      <trkpt lat="50.12232" lon="4.0839">
        <ele>156</ele>
        <time>2024-04-16T05:49:51Z</time>
      </trkpt>
      <trkpt lat="50.12235" lon="4.08382">
        <ele>156.2</ele>
        <time>2024-04-16T05:49:52Z</time>
      </trkpt>
      <trkpt lat="50.12238" lon="4.08374">
        <ele>156.2</ele>
        <time>2024-04-16T05:49:53Z</time>
      </trkpt>
      <trkpt lat="50.12241" lon="4.08367">
        <ele>157.2</ele>
        <time>2024-04-16T05:49:54Z</time>
      </trkpt>
      <trkpt lat="50.12244" lon="4.08359">
        <ele>158.2</ele>
        <time>2024-04-16T05:49:55Z</time>
      </trkpt>
      <trkpt lat="50.12247" lon="4.08352">
        <ele>158.6</ele>
        <time>2024-04-16T05:49:56Z</time>
      </trkpt>
      <trkpt lat="50.1225" lon="4.08345">
        <ele>159</ele>
        <time>2024-04-16T05:49:57Z</time>
      </trkpt>
      <trkpt lat="50.12253" lon="4.08338">
        <ele>159.2</ele>
        <time>2024-04-16T05:49:58Z</time>
      </trkpt>
      <trkpt lat="50.12257" lon="4.08331">
        <ele>159.2</ele>
        <time>2024-04-16T05:49:59Z</time>
      </trkpt>
      <trkpt lat="50.1226" lon="4.08324">
        <ele>159.4</ele>
        <time>2024-04-16T05:50:00Z</time>
      </trkpt>
      <trkpt lat="50.12263" lon="4.08317">
        <ele>159.6</ele>
        <time>2024-04-16T05:50:01Z</time>
      </trkpt>
      <trkpt lat="50.12266" lon="4.0831">
        <ele>159.8</ele>
        <time>2024-04-16T05:50:02Z</time>
      </trkpt>
      <trkpt lat="50.12269" lon="4.08303">
        <ele>160.2</ele>
        <time>2024-04-16T05:50:03Z</time>
      </trkpt>
      <trkpt lat="50.12273" lon="4.08295">
        <ele>160.2</ele>
        <time>2024-04-16T05:50:04Z</time>
      </trkpt>
      <trkpt lat="50.12276" lon="4.08289">
        <ele>160.4</ele>
        <time>2024-04-16T05:50:05Z</time>
      </trkpt>
      <trkpt lat="50.12279" lon="4.08282">
        <ele>160.6</ele>
        <time>2024-04-16T05:50:06Z</time>
      </trkpt>
      <trkpt lat="50.12283" lon="4.08275">
        <ele>160.8</ele>
        <time>2024-04-16T05:50:07Z</time>
      </trkpt>
      <trkpt lat="50.12286" lon="4.08268">
        <ele>161</ele>
        <time>2024-04-16T05:50:08Z</time>
      </trkpt>
      <trkpt lat="50.12289" lon="4.08261">
        <ele>161</ele>
        <time>2024-04-16T05:50:09Z</time>
      </trkpt>
      <trkpt lat="50.12292" lon="4.08254">
        <ele>161.4</ele>
        <time>2024-04-16T05:50:10Z</time>
      </trkpt>
      <trkpt lat="50.12296" lon="4.08247">
        <ele>161.4</ele>
        <time>2024-04-16T05:50:11Z</time>
      </trkpt>
      <trkpt lat="50.12299" lon="4.0824">
        <ele>162.2</ele>
        <time>2024-04-16T05:50:12Z</time>
      </trkpt>
      <trkpt lat="50.12302" lon="4.08233">
        <ele>162.6</ele>
        <time>2024-04-16T05:50:13Z</time>
      </trkpt>
      <trkpt lat="50.12305" lon="4.08226">
        <ele>163</ele>
        <time>2024-04-16T05:50:14Z</time>
      </trkpt>
      <trkpt lat="50.12308" lon="4.0822">
        <ele>163.6</ele>
        <time>2024-04-16T05:50:15Z</time>
      </trkpt>
      <trkpt lat="50.12311" lon="4.08213">
        <ele>163.6</ele>
        <time>2024-04-16T05:50:16Z</time>
      </trkpt>
      <trkpt lat="50.12315" lon="4.08206">
        <ele>163.8</ele>
        <time>2024-04-16T05:50:17Z</time>
      </trkpt>
      <trkpt lat="50.12318" lon="4.08199">
        <ele>164</ele>
        <time>2024-04-16T05:50:18Z</time>
      </trkpt>
      <trkpt lat="50.12321" lon="4.08193">
        <ele>164.4</ele>
        <time>2024-04-16T05:50:19Z</time>
      </trkpt>
      <trkpt lat="50.12324" lon="4.08186">
        <ele>164.6</ele>
        <time>2024-04-16T05:50:20Z</time>
      </trkpt>
      <trkpt lat="50.12327" lon="4.08179">
        <ele>164.8</ele>
        <time>2024-04-16T05:50:21Z</time>
      </trkpt>
      <trkpt lat="50.1233" lon="4.08173">
        <ele>165</ele>
        <time>2024-04-16T05:50:22Z</time>
      </trkpt>
      <trkpt lat="50.12333" lon="4.08166">
        <ele>165</ele>
        <time>2024-04-16T05:50:23Z</time>
      </trkpt>
      <trkpt lat="50.12336" lon="4.08159">
        <ele>165</ele>
        <time>2024-04-16T05:50:24Z</time>
      </trkpt>
      <trkpt lat="50.1234" lon="4.08152">
        <ele>165</ele>
        <time>2024-04-16T05:50:25Z</time>
      </trkpt>
      <trkpt lat="50.12343" lon="4.08145">
        <ele>165.2</ele>
        <time>2024-04-16T05:50:26Z</time>
      </trkpt>
      <trkpt lat="50.12346" lon="4.08138">
        <ele>165.4</ele>
        <time>2024-04-16T05:50:27Z</time>
      </trkpt>
      <trkpt lat="50.1235" lon="4.08131">
        <ele>165.2</ele>
        <time>2024-04-16T05:50:28Z</time>
      </trkpt>
      <trkpt lat="50.12353" lon="4.08123">
        <ele>165.4</ele>
        <time>2024-04-16T05:50:29Z</time>
      </trkpt>
      <trkpt lat="50.12356" lon="4.08116">
        <ele>165.4</ele>
        <time>2024-04-16T05:50:30Z</time>
      </trkpt>
      <trkpt lat="50.12359" lon="4.08109">
        <ele>165.4</ele>
        <time>2024-04-16T05:50:31Z</time>
      </trkpt>
      <trkpt lat="50.12363" lon="4.08102">
        <ele>165.4</ele>
        <time>2024-04-16T05:50:32Z</time>
      </trkpt>
      <trkpt lat="50.12366" lon="4.08095">
        <ele>165.6</ele>
        <time>2024-04-16T05:50:33Z</time>
      </trkpt>
      <trkpt lat="50.1237" lon="4.08088">
        <ele>165.4</ele>
        <time>2024-04-16T05:50:34Z</time>
      </trkpt>
      <trkpt lat="50.12373" lon="4.08081">
        <ele>165.6</ele>
        <time>2024-04-16T05:50:35Z</time>
      </trkpt>
      <trkpt lat="50.12377" lon="4.08075">
        <ele>165.6</ele>
        <time>2024-04-16T05:50:36Z</time>
      </trkpt>
      <trkpt lat="50.1238" lon="4.08068">
        <ele>165.6</ele>
        <time>2024-04-16T05:50:37Z</time>
      </trkpt>
      <trkpt lat="50.12384" lon="4.08061">
        <ele>165.8</ele>
        <time>2024-04-16T05:50:38Z</time>
      </trkpt>
      <trkpt lat="50.12388" lon="4.08056">
        <ele>165.8</ele>
        <time>2024-04-16T05:50:39Z</time>
      </trkpt>
      <trkpt lat="50.12393" lon="4.08053">
        <ele>166</ele>
        <time>2024-04-16T05:50:40Z</time>
      </trkpt>
      <trkpt lat="50.12399" lon="4.08053">
        <ele>166</ele>
        <time>2024-04-16T05:50:41Z</time>
      </trkpt>
      <trkpt lat="50.12405" lon="4.08056">
        <ele>166.4</ele>
        <time>2024-04-16T05:50:42Z</time>
      </trkpt>
      <trkpt lat="50.12411" lon="4.08061">
        <ele>166.6</ele>
        <time>2024-04-16T05:50:43Z</time>
      </trkpt>
      <trkpt lat="50.12416" lon="4.08067">
        <ele>166.8</ele>
        <time>2024-04-16T05:50:44Z</time>
      </trkpt>
      <trkpt lat="50.12421" lon="4.08075">
        <ele>167</ele>
        <time>2024-04-16T05:50:45Z</time>
      </trkpt>
      <trkpt lat="50.12425" lon="4.08083">
        <ele>167.2</ele>
        <time>2024-04-16T05:50:46Z</time>
      </trkpt>
      <trkpt lat="50.1243" lon="4.08091">
        <ele>167.4</ele>
        <time>2024-04-16T05:50:47Z</time>
      </trkpt>
      <trkpt lat="50.12435" lon="4.081">
        <ele>167.2</ele>
        <time>2024-04-16T05:50:48Z</time>
      </trkpt>
      <trkpt lat="50.12439" lon="4.08109">
        <ele>167.4</ele>
        <time>2024-04-16T05:50:49Z</time>
      </trkpt>
      <trkpt lat="50.12444" lon="4.08118">
        <ele>167.4</ele>
        <time>2024-04-16T05:50:50Z</time>
      </trkpt>
      <trkpt lat="50.12448" lon="4.08127">
        <ele>167.2</ele>
        <time>2024-04-16T05:50:51Z</time>
      </trkpt>
      <trkpt lat="50.12453" lon="4.08136">
        <ele>167.2</ele>
        <time>2024-04-16T05:50:52Z</time>
      </trkpt>
      <trkpt lat="50.12457" lon="4.08144">
        <ele>167.4</ele>
        <time>2024-04-16T05:50:53Z</time>
      </trkpt>
      <trkpt lat="50.12462" lon="4.08153">
        <ele>167.4</ele>
        <time>2024-04-16T05:50:54Z</time>
      </trkpt>
      <trkpt lat="50.12467" lon="4.08162">
        <ele>167.4</ele>
        <time>2024-04-16T05:50:55Z</time>
      </trkpt>
      <trkpt lat="50.12472" lon="4.08171">
        <ele>167.2</ele>
        <time>2024-04-16T05:50:56Z</time>
      </trkpt>
      <trkpt lat="50.12476" lon="4.0818">
        <ele>167.4</ele>
        <time>2024-04-16T05:50:57Z</time>
      </trkpt>
      <trkpt lat="50.12481" lon="4.0819">
        <ele>167.2</ele>
        <time>2024-04-16T05:50:58Z</time>
      </trkpt>
      <trkpt lat="50.12486" lon="4.08199">
        <ele>167</ele>
        <time>2024-04-16T05:50:59Z</time>
      </trkpt>
      <trkpt lat="50.12491" lon="4.08208">
        <ele>166.8</ele>
        <time>2024-04-16T05:51:00Z</time>
      </trkpt>
      <trkpt lat="50.12495" lon="4.08217">
        <ele>166.8</ele>
        <time>2024-04-16T05:51:01Z</time>
      </trkpt>
      <trkpt lat="50.125" lon="4.08226">
        <ele>166.6</ele>
        <time>2024-04-16T05:51:02Z</time>
      </trkpt>
      <trkpt lat="50.12505" lon="4.08235">
        <ele>166.4</ele>
        <time>2024-04-16T05:51:03Z</time>
      </trkpt>
      <trkpt lat="50.12511" lon="4.08244">
        <ele>166.4</ele>
        <time>2024-04-16T05:51:04Z</time>
      </trkpt>
      <trkpt lat="50.12517" lon="4.08252">
        <ele>166.2</ele>
        <time>2024-04-16T05:51:05Z</time>
      </trkpt>
      <trkpt lat="50.12523" lon="4.08259">
        <ele>165.8</ele>
        <time>2024-04-16T05:51:06Z</time>
      </trkpt>
      <trkpt lat="50.12529" lon="4.08266">
        <ele>165.4</ele>
        <time>2024-04-16T05:51:07Z</time>
      </trkpt>
      <trkpt lat="50.12536" lon="4.08272">
        <ele>165.2</ele>
        <time>2024-04-16T05:51:08Z</time>
      </trkpt>
      <trkpt lat="50.12543" lon="4.08277">
        <ele>165</ele>
        <time>2024-04-16T05:51:09Z</time>
      </trkpt>
      <trkpt lat="50.1255" lon="4.08282">
        <ele>164.8</ele>
        <time>2024-04-16T05:51:10Z</time>
      </trkpt>
      <trkpt lat="50.12558" lon="4.08286">
        <ele>164.6</ele>
        <time>2024-04-16T05:51:11Z</time>
      </trkpt>
      <trkpt lat="50.12565" lon="4.08289">
        <ele>164.4</ele>
        <time>2024-04-16T05:51:12Z</time>
      </trkpt>
      <trkpt lat="50.12573" lon="4.08292">
        <ele>164.2</ele>
        <time>2024-04-16T05:51:13Z</time>
      </trkpt>
      <trkpt lat="50.1258" lon="4.08294">
        <ele>164.2</ele>
        <time>2024-04-16T05:51:14Z</time>
      </trkpt>
      <trkpt lat="50.12587" lon="4.08296">
        <ele>164</ele>
        <time>2024-04-16T05:51:15Z</time>
      </trkpt>
      <trkpt lat="50.12594" lon="4.08296">
        <ele>163.4</ele>
        <time>2024-04-16T05:51:16Z</time>
      </trkpt>
      <trkpt lat="50.12601" lon="4.08296">
        <ele>163</ele>
        <time>2024-04-16T05:51:17Z</time>
      </trkpt>
      <trkpt lat="50.12608" lon="4.08296">
        <ele>162.8</ele>
        <time>2024-04-16T05:51:18Z</time>
      </trkpt>
      <trkpt lat="50.12615" lon="4.08296">
        <ele>162.6</ele>
        <time>2024-04-16T05:51:19Z</time>
      </trkpt>
      <trkpt lat="50.12621" lon="4.08296">
        <ele>162.6</ele>
        <time>2024-04-16T05:51:20Z</time>
      </trkpt>
      <trkpt lat="50.12628" lon="4.08295">
        <ele>162.6</ele>
        <time>2024-04-16T05:51:21Z</time>
      </trkpt>
      <trkpt lat="50.12634" lon="4.08295">
        <ele>162.6</ele>
        <time>2024-04-16T05:51:22Z</time>
      </trkpt>
      <trkpt lat="50.1264" lon="4.08295">
        <ele>162.6</ele>
        <time>2024-04-16T05:51:23Z</time>
      </trkpt>
      <trkpt lat="50.12646" lon="4.08295">
        <ele>162.4</ele>
        <time>2024-04-16T05:51:24Z</time>
      </trkpt>
      <trkpt lat="50.12652" lon="4.08295">
        <ele>162.6</ele>
        <time>2024-04-16T05:51:25Z</time>
      </trkpt>
      <trkpt lat="50.12658" lon="4.08295">
        <ele>162.6</ele>
        <time>2024-04-16T05:51:26Z</time>
      </trkpt>
      <trkpt lat="50.12664" lon="4.08295">
        <ele>162.8</ele>
        <time>2024-04-16T05:51:27Z</time>
      </trkpt>
      <trkpt lat="50.12669" lon="4.08295">
        <ele>162.8</ele>
        <time>2024-04-16T05:51:28Z</time>
      </trkpt>
      <trkpt lat="50.12675" lon="4.08294">
        <ele>163</ele>
        <time>2024-04-16T05:51:29Z</time>
      </trkpt>
      <trkpt lat="50.12681" lon="4.08294">
        <ele>163.4</ele>
        <time>2024-04-16T05:51:30Z</time>
      </trkpt>
      <trkpt lat="50.12686" lon="4.08294">
        <ele>163.8</ele>
        <time>2024-04-16T05:51:31Z</time>
      </trkpt>
      <trkpt lat="50.12692" lon="4.08294">
        <ele>164.4</ele>
        <time>2024-04-16T05:51:32Z</time>
      </trkpt>
      <trkpt lat="50.12697" lon="4.08293">
        <ele>164.8</ele>
        <time>2024-04-16T05:51:33Z</time>
      </trkpt>
      <trkpt lat="50.12703" lon="4.08293">
        <ele>165</ele>
        <time>2024-04-16T05:51:34Z</time>
      </trkpt>
      <trkpt lat="50.12709" lon="4.08293">
        <ele>165</ele>
        <time>2024-04-16T05:51:35Z</time>
      </trkpt>
      <trkpt lat="50.12714" lon="4.08293">
        <ele>165.6</ele>
        <time>2024-04-16T05:51:36Z</time>
      </trkpt>
      <trkpt lat="50.12719" lon="4.08293">
        <ele>166.4</ele>
        <time>2024-04-16T05:51:37Z</time>
      </trkpt>
      <trkpt lat="50.12725" lon="4.08293">
        <ele>167</ele>
        <time>2024-04-16T05:51:38Z</time>
      </trkpt>
      <trkpt lat="50.1273" lon="4.08293">
        <ele>167.4</ele>
        <time>2024-04-16T05:51:39Z</time>
      </trkpt>
      <trkpt lat="50.12735" lon="4.08292">
        <ele>167.8</ele>
        <time>2024-04-16T05:51:40Z</time>
      </trkpt>
      <trkpt lat="50.12741" lon="4.08292">
        <ele>168.4</ele>
        <time>2024-04-16T05:51:41Z</time>
      </trkpt>
      <trkpt lat="50.12746" lon="4.08292">
        <ele>168.8</ele>
        <time>2024-04-16T05:51:42Z</time>
      </trkpt>
      <trkpt lat="50.12751" lon="4.08292">
        <ele>169.2</ele>
        <time>2024-04-16T05:51:43Z</time>
      </trkpt>
      <trkpt lat="50.12756" lon="4.08292">
        <ele>169.6</ele>
        <time>2024-04-16T05:51:44Z</time>
      </trkpt>
      <trkpt lat="50.12761" lon="4.08292">
        <ele>169.6</ele>
        <time>2024-04-16T05:51:45Z</time>
      </trkpt>
      <trkpt lat="50.12767" lon="4.08292">
        <ele>170</ele>
        <time>2024-04-16T05:51:46Z</time>
      </trkpt>
      <trkpt lat="50.12772" lon="4.08292">
        <ele>170.4</ele>
        <time>2024-04-16T05:51:47Z</time>
      </trkpt>
      <trkpt lat="50.12777" lon="4.08292">
        <ele>170.6</ele>
        <time>2024-04-16T05:51:48Z</time>
      </trkpt>
      <trkpt lat="50.12782" lon="4.08293">
        <ele>171</ele>
        <time>2024-04-16T05:51:49Z</time>
      </trkpt>
      <trkpt lat="50.12787" lon="4.08293">
        <ele>171.4</ele>
        <time>2024-04-16T05:51:50Z</time>
      </trkpt>
      <trkpt lat="50.12792" lon="4.08293">
        <ele>171.8</ele>
        <time>2024-04-16T05:51:51Z</time>
      </trkpt>
      <trkpt lat="50.12798" lon="4.08294">
        <ele>172.2</ele>
        <time>2024-04-16T05:51:52Z</time>
      </trkpt>
      <trkpt lat="50.12802" lon="4.08295">
        <ele>172.6</ele>
        <time>2024-04-16T05:51:53Z</time>
      </trkpt>
      <trkpt lat="50.12807" lon="4.08297">
        <ele>172.6</ele>
        <time>2024-04-16T05:51:54Z</time>
      </trkpt>
      <trkpt lat="50.12812" lon="4.08298">
        <ele>172.8</ele>
        <time>2024-04-16T05:51:55Z</time>
      </trkpt>
      <trkpt lat="50.12817" lon="4.083">
        <ele>173</ele>
        <time>2024-04-16T05:51:56Z</time>
      </trkpt>
      <trkpt lat="50.12822" lon="4.08302">
        <ele>173</ele>
        <time>2024-04-16T05:51:57Z</time>
      </trkpt>
      <trkpt lat="50.12826" lon="4.08304">
        <ele>173.4</ele>
        <time>2024-04-16T05:51:58Z</time>
      </trkpt>
      <trkpt lat="50.12831" lon="4.08307">
        <ele>173.6</ele>
        <time>2024-04-16T05:51:59Z</time>
      </trkpt>
      <trkpt lat="50.12836" lon="4.08309">
        <ele>173.6</ele>
        <time>2024-04-16T05:52:00Z</time>
      </trkpt>
      <trkpt lat="50.1284" lon="4.08312">
        <ele>174</ele>
        <time>2024-04-16T05:52:01Z</time>
      </trkpt>
      <trkpt lat="50.12845" lon="4.08315">
        <ele>174.2</ele>
        <time>2024-04-16T05:52:02Z</time>
      </trkpt>
      <trkpt lat="50.12849" lon="4.08318">
        <ele>174.8</ele>
        <time>2024-04-16T05:52:03Z</time>
      </trkpt>
      <trkpt lat="50.12853" lon="4.08322">
        <ele>175</ele>
        <time>2024-04-16T05:52:04Z</time>
      </trkpt>
      <trkpt lat="50.12857" lon="4.08325">
        <ele>175.4</ele>
        <time>2024-04-16T05:52:05Z</time>
      </trkpt>
      <trkpt lat="50.12861" lon="4.08329">
        <ele>175.8</ele>
        <time>2024-04-16T05:52:06Z</time>
      </trkpt>
      <trkpt lat="50.12865" lon="4.08333">
        <ele>176.2</ele>
        <time>2024-04-16T05:52:07Z</time>
      </trkpt>
      <trkpt lat="50.12869" lon="4.08336">
        <ele>176.8</ele>
        <time>2024-04-16T05:52:08Z</time>
      </trkpt>
      <trkpt lat="50.12873" lon="4.0834">
        <ele>177.4</ele>
        <time>2024-04-16T05:52:09Z</time>
      </trkpt>
      <trkpt lat="50.12877" lon="4.08344">
        <ele>177.6</ele>
        <time>2024-04-16T05:52:10Z</time>
      </trkpt>
      <trkpt lat="50.1288" lon="4.08347">
        <ele>177.8</ele>
        <time>2024-04-16T05:52:11Z</time>
      </trkpt>
      <trkpt lat="50.12884" lon="4.08351">
        <ele>178.4</ele>
        <time>2024-04-16T05:52:12Z</time>
      </trkpt>
      <trkpt lat="50.12887" lon="4.08355">
        <ele>178.8</ele>
        <time>2024-04-16T05:52:13Z</time>
      </trkpt>
      <trkpt lat="50.12891" lon="4.08359">
        <ele>179.2</ele>
        <time>2024-04-16T05:52:14Z</time>
      </trkpt>
      <trkpt lat="50.12895" lon="4.08363">
        <ele>179.4</ele>
        <time>2024-04-16T05:52:15Z</time>
      </trkpt>
      <trkpt lat="50.12898" lon="4.08367">
        <ele>179.8</ele>
        <time>2024-04-16T05:52:16Z</time>
      </trkpt>
      <trkpt lat="50.12902" lon="4.0837">
        <ele>180</ele>
        <time>2024-04-16T05:52:17Z</time>
      </trkpt>
      <trkpt lat="50.12905" lon="4.08374">
        <ele>180.4</ele>
        <time>2024-04-16T05:52:18Z</time>
      </trkpt>
      <trkpt lat="50.12909" lon="4.08378">
        <ele>180.4</ele>
        <time>2024-04-16T05:52:19Z</time>
      </trkpt>
      <trkpt lat="50.12913" lon="4.08383">
        <ele>180.6</ele>
        <time>2024-04-16T05:52:20Z</time>
      </trkpt>
      <trkpt lat="50.12916" lon="4.08387">
        <ele>181</ele>
        <time>2024-04-16T05:52:21Z</time>
      </trkpt>
      <trkpt lat="50.1292" lon="4.08391">
        <ele>181</ele>
        <time>2024-04-16T05:52:22Z</time>
      </trkpt>
      <trkpt lat="50.12923" lon="4.08395">
        <ele>181.4</ele>
        <time>2024-04-16T05:52:23Z</time>
      </trkpt>
      <trkpt lat="50.12927" lon="4.08399">
        <ele>181.6</ele>
        <time>2024-04-16T05:52:24Z</time>
      </trkpt>
      <trkpt lat="50.12931" lon="4.08403">
        <ele>182.2</ele>
        <time>2024-04-16T05:52:25Z</time>
      </trkpt>
      <trkpt lat="50.12934" lon="4.08406">
        <ele>182.4</ele>
        <time>2024-04-16T05:52:26Z</time>
      </trkpt>
      <trkpt lat="50.12938" lon="4.0841">
        <ele>182.8</ele>
        <time>2024-04-16T05:52:27Z</time>
      </trkpt>
      <trkpt lat="50.12941" lon="4.08414">
        <ele>183</ele>
        <time>2024-04-16T05:52:28Z</time>
      </trkpt>
      <trkpt lat="50.12945" lon="4.08418">
        <ele>183.4</ele>
        <time>2024-04-16T05:52:29Z</time>
      </trkpt>
      <trkpt lat="50.12949" lon="4.08422">
        <ele>183.6</ele>
        <time>2024-04-16T05:52:30Z</time>
      </trkpt>
      <trkpt lat="50.12953" lon="4.08425">
        <ele>183.8</ele>
        <time>2024-04-16T05:52:31Z</time>
      </trkpt>
      <trkpt lat="50.12957" lon="4.08428">
        <ele>184.2</ele>
        <time>2024-04-16T05:52:32Z</time>
      </trkpt>
      <trkpt lat="50.12961" lon="4.0843">
        <ele>184.6</ele>
        <time>2024-04-16T05:52:33Z</time>
      </trkpt>
      <trkpt lat="50.12965" lon="4.08432">
        <ele>185.4</ele>
        <time>2024-04-16T05:52:34Z</time>
      </trkpt>
      <trkpt lat="50.12969" lon="4.08434">
        <ele>186</ele>
        <time>2024-04-16T05:52:35Z</time>
      </trkpt>
      <trkpt lat="50.12973" lon="4.08435">
        <ele>186.6</ele>
        <time>2024-04-16T05:52:36Z</time>
      </trkpt>
      <trkpt lat="50.12978" lon="4.08436">
        <ele>187</ele>
        <time>2024-04-16T05:52:37Z</time>
      </trkpt>
      <trkpt lat="50.12982" lon="4.08437">
        <ele>187.4</ele>
        <time>2024-04-16T05:52:38Z</time>
      </trkpt>
      <trkpt lat="50.12986" lon="4.08437">
        <ele>187.6</ele>
        <time>2024-04-16T05:52:39Z</time>
      </trkpt>
      <trkpt lat="50.1299" lon="4.08437">
        <ele>188</ele>
        <time>2024-04-16T05:52:40Z</time>
      </trkpt>
      <trkpt lat="50.12994" lon="4.08436">
        <ele>188</ele>
        <time>2024-04-16T05:52:41Z</time>
      </trkpt>
      <trkpt lat="50.12998" lon="4.08435">
        <ele>188.6</ele>
        <time>2024-04-16T05:52:42Z</time>
      </trkpt>
      <trkpt lat="50.13002" lon="4.08433">
        <ele>189</ele>
        <time>2024-04-16T05:52:43Z</time>
      </trkpt>
      <trkpt lat="50.13006" lon="4.08431">
        <ele>189.2</ele>
        <time>2024-04-16T05:52:44Z</time>
      </trkpt>
      <trkpt lat="50.1301" lon="4.08429">
        <ele>189.4</ele>
        <time>2024-04-16T05:52:45Z</time>
      </trkpt>
      <trkpt lat="50.13014" lon="4.08426">
        <ele>189.6</ele>
        <time>2024-04-16T05:52:46Z</time>
      </trkpt>
      <trkpt lat="50.13017" lon="4.08423">
        <ele>189.6</ele>
        <time>2024-04-16T05:52:47Z</time>
      </trkpt>
      <trkpt lat="50.13021" lon="4.0842">
        <ele>190</ele>
        <time>2024-04-16T05:52:48Z</time>
      </trkpt>
      <trkpt lat="50.13024" lon="4.08417">
        <ele>190.2</ele>
        <time>2024-04-16T05:52:49Z</time>
      </trkpt>
      <trkpt lat="50.13027" lon="4.08414">
        <ele>190.2</ele>
        <time>2024-04-16T05:52:50Z</time>
      </trkpt>
      <trkpt lat="50.13031" lon="4.0841">
        <ele>190.8</ele>
        <time>2024-04-16T05:52:51Z</time>
      </trkpt>
      <trkpt lat="50.13034" lon="4.08407">
        <ele>191.4</ele>
        <time>2024-04-16T05:52:52Z</time>
      </trkpt>
      <trkpt lat="50.13037" lon="4.08404">
        <ele>191.8</ele>
        <time>2024-04-16T05:52:53Z</time>
      </trkpt>
      <trkpt lat="50.13041" lon="4.08401">
        <ele>192.2</ele>
        <time>2024-04-16T05:52:54Z</time>
      </trkpt>
      <trkpt lat="50.13044" lon="4.08398">
        <ele>192.6</ele>
        <time>2024-04-16T05:52:55Z</time>
      </trkpt>
      <trkpt lat="50.13047" lon="4.08396">
        <ele>192.6</ele>
        <time>2024-04-16T05:52:56Z</time>
      </trkpt>
      <trkpt lat="50.13051" lon="4.08393">
        <ele>193</ele>
        <time>2024-04-16T05:52:57Z</time>
      </trkpt>
      <trkpt lat="50.13054" lon="4.0839">
        <ele>193.2</ele>
        <time>2024-04-16T05:52:58Z</time>
      </trkpt>
      <trkpt lat="50.13057" lon="4.08387">
        <ele>193.2</ele>
        <time>2024-04-16T05:52:59Z</time>
      </trkpt>
      <trkpt lat="50.1306" lon="4.08384">
        <ele>193.4</ele>
        <time>2024-04-16T05:53:00Z</time>
      </trkpt>
      <trkpt lat="50.13064" lon="4.08381">
        <ele>193.8</ele>
        <time>2024-04-16T05:53:01Z</time>
      </trkpt>
      <trkpt lat="50.13067" lon="4.08378">
        <ele>194</ele>
        <time>2024-04-16T05:53:02Z</time>
      </trkpt>
      <trkpt lat="50.13071" lon="4.08375">
        <ele>194</ele>
        <time>2024-04-16T05:53:03Z</time>
      </trkpt>
      <trkpt lat="50.13075" lon="4.08372">
        <ele>194.2</ele>
        <time>2024-04-16T05:53:04Z</time>
      </trkpt>
      <trkpt lat="50.13078" lon="4.08369">
        <ele>194.8</ele>
        <time>2024-04-16T05:53:05Z</time>
      </trkpt>
      <trkpt lat="50.13081" lon="4.08366">
        <ele>195</ele>
        <time>2024-04-16T05:53:06Z</time>
      </trkpt>
      <trkpt lat="50.13084" lon="4.08363">
        <ele>195.4</ele>
        <time>2024-04-16T05:53:07Z</time>
      </trkpt>
      <trkpt lat="50.13088" lon="4.0836">
        <ele>196</ele>
        <time>2024-04-16T05:53:08Z</time>
      </trkpt>
      <trkpt lat="50.13091" lon="4.08357">
        <ele>196.4</ele>
        <time>2024-04-16T05:53:09Z</time>
      </trkpt>
      <trkpt lat="50.13095" lon="4.08353">
        <ele>196.6</ele>
        <time>2024-04-16T05:53:10Z</time>
      </trkpt>
      <trkpt lat="50.13098" lon="4.0835">
        <ele>196.8</ele>
        <time>2024-04-16T05:53:11Z</time>
      </trkpt>
      <trkpt lat="50.13102" lon="4.08348">
        <ele>197.2</ele>
        <time>2024-04-16T05:53:12Z</time>
      </trkpt>
      <trkpt lat="50.13106" lon="4.08346">
        <ele>197.4</ele>
        <time>2024-04-16T05:53:13Z</time>
      </trkpt>
      <trkpt lat="50.1311" lon="4.08343">
        <ele>197.2</ele>
        <time>2024-04-16T05:53:14Z</time>
      </trkpt>
      <trkpt lat="50.13113" lon="4.08341">
        <ele>197.4</ele>
        <time>2024-04-16T05:53:15Z</time>
      </trkpt>
      <trkpt lat="50.13117" lon="4.0834">
        <ele>197.8</ele>
        <time>2024-04-16T05:53:16Z</time>
      </trkpt>
      <trkpt lat="50.13122" lon="4.08338">
        <ele>197.8</ele>
        <time>2024-04-16T05:53:17Z</time>
      </trkpt>
      <trkpt lat="50.13125" lon="4.08336">
        <ele>198</ele>
        <time>2024-04-16T05:53:18Z</time>
      </trkpt>
      <trkpt lat="50.13129" lon="4.08335">
        <ele>198.4</ele>
        <time>2024-04-16T05:53:19Z</time>
      </trkpt>
      <trkpt lat="50.13134" lon="4.08334">
        <ele>198.6</ele>
        <time>2024-04-16T05:53:20Z</time>
      </trkpt>
      <trkpt lat="50.13138" lon="4.08333">
        <ele>198.8</ele>
        <time>2024-04-16T05:53:21Z</time>
      </trkpt>
      <trkpt lat="50.13142" lon="4.08332">
        <ele>199</ele>
        <time>2024-04-16T05:53:22Z</time>
      </trkpt>
      <trkpt lat="50.13146" lon="4.08332">
        <ele>199.2</ele>
        <time>2024-04-16T05:53:23Z</time>
      </trkpt>
      <trkpt lat="50.1315" lon="4.08332">
        <ele>199.2</ele>
        <time>2024-04-16T05:53:24Z</time>
      </trkpt>
      <trkpt lat="50.13155" lon="4.08332">
        <ele>199.6</ele>
        <time>2024-04-16T05:53:25Z</time>
      </trkpt>
      <trkpt lat="50.13158" lon="4.08332">
        <ele>200.2</ele>
        <time>2024-04-16T05:53:26Z</time>
      </trkpt>
      <trkpt lat="50.13162" lon="4.08333">
        <ele>200.4</ele>
        <time>2024-04-16T05:53:27Z</time>
      </trkpt>
      <trkpt lat="50.13166" lon="4.08334">
        <ele>200.8</ele>
        <time>2024-04-16T05:53:28Z</time>
      </trkpt>
      <trkpt lat="50.13171" lon="4.08335">
        <ele>201.4</ele>
        <time>2024-04-16T05:53:29Z</time>
      </trkpt>
      <trkpt lat="50.13176" lon="4.08336">
        <ele>201.8</ele>
        <time>2024-04-16T05:53:30Z</time>
      </trkpt>
      <trkpt lat="50.13181" lon="4.08337">
        <ele>202.2</ele>
        <time>2024-04-16T05:53:31Z</time>
      </trkpt>
      <trkpt lat="50.13186" lon="4.08339">
        <ele>202.6</ele>
        <time>2024-04-16T05:53:32Z</time>
      </trkpt>
      <trkpt lat="50.13191" lon="4.0834">
        <ele>203</ele>
        <time>2024-04-16T05:53:33Z</time>
      </trkpt>
      <trkpt lat="50.13196" lon="4.08341">
        <ele>203.4</ele>
        <time>2024-04-16T05:53:34Z</time>
      </trkpt>
      <trkpt lat="50.13201" lon="4.08341">
        <ele>203.8</ele>
        <time>2024-04-16T05:53:35Z</time>
      </trkpt>
      <trkpt lat="50.13206" lon="4.08343">
        <ele>204.2</ele>
        <time>2024-04-16T05:53:36Z</time>
      </trkpt>
      <trkpt lat="50.13211" lon="4.08344">
        <ele>204.4</ele>
        <time>2024-04-16T05:53:37Z</time>
      </trkpt>
      <trkpt lat="50.13217" lon="4.08345">
        <ele>204.6</ele>
        <time>2024-04-16T05:53:38Z</time>
      </trkpt>
      <trkpt lat="50.13222" lon="4.08346">
        <ele>204.8</ele>
        <time>2024-04-16T05:53:39Z</time>
      </trkpt>
      <trkpt lat="50.13228" lon="4.08347">
        <ele>205.2</ele>
        <time>2024-04-16T05:53:40Z</time>
      </trkpt>
      <trkpt lat="50.13233" lon="4.08348">
        <ele>205.6</ele>
        <time>2024-04-16T05:53:41Z</time>
      </trkpt>
      <trkpt lat="50.13238" lon="4.0835">
        <ele>205.8</ele>
        <time>2024-04-16T05:53:42Z</time>
      </trkpt>
      <trkpt lat="50.13243" lon="4.08351">
        <ele>206.2</ele>
        <time>2024-04-16T05:53:43Z</time>
      </trkpt>
      <trkpt lat="50.13248" lon="4.08353">
        <ele>206.4</ele>
        <time>2024-04-16T05:53:44Z</time>
      </trkpt>
      <trkpt lat="50.13253" lon="4.08354">
        <ele>206.4</ele>
        <time>2024-04-16T05:53:45Z</time>
      </trkpt>
      <trkpt lat="50.13258" lon="4.08355">
        <ele>206.4</ele>
        <time>2024-04-16T05:53:46Z</time>
      </trkpt>
      <trkpt lat="50.13263" lon="4.08357">
        <ele>206.8</ele>
        <time>2024-04-16T05:53:47Z</time>
      </trkpt>
      <trkpt lat="50.13268" lon="4.08358">
        <ele>207</ele>
        <time>2024-04-16T05:53:48Z</time>
      </trkpt>
      <trkpt lat="50.13273" lon="4.0836">
        <ele>207</ele>
        <time>2024-04-16T05:53:49Z</time>
      </trkpt>
      <trkpt lat="50.13278" lon="4.08361">
        <ele>207.2</ele>
        <time>2024-04-16T05:53:50Z</time>
      </trkpt>
      <trkpt lat="50.13283" lon="4.08362">
        <ele>207.4</ele>
        <time>2024-04-16T05:53:51Z</time>
      </trkpt>
      <trkpt lat="50.13288" lon="4.08364">
        <ele>207.6</ele>
        <time>2024-04-16T05:53:52Z</time>
      </trkpt>
      <trkpt lat="50.13293" lon="4.08365">
        <ele>208</ele>
        <time>2024-04-16T05:53:53Z</time>
      </trkpt>
      <trkpt lat="50.13298" lon="4.08366">
        <ele>208.2</ele>
        <time>2024-04-16T05:53:54Z</time>
      </trkpt>
      <trkpt lat="50.13303" lon="4.08367">
        <ele>208.2</ele>
        <time>2024-04-16T05:53:55Z</time>
      </trkpt>
      <trkpt lat="50.13308" lon="4.08369">
        <ele>208.4</ele>
        <time>2024-04-16T05:53:56Z</time>
      </trkpt>
      <trkpt lat="50.13313" lon="4.0837">
        <ele>208.4</ele>
        <time>2024-04-16T05:53:57Z</time>
      </trkpt>
      <trkpt lat="50.13319" lon="4.08371">
        <ele>208.6</ele>
        <time>2024-04-16T05:53:58Z</time>
      </trkpt>
      <trkpt lat="50.13324" lon="4.08372">
        <ele>208.4</ele>
        <time>2024-04-16T05:53:59Z</time>
      </trkpt>
      <trkpt lat="50.1333" lon="4.08373">
        <ele>208.8</ele>
        <time>2024-04-16T05:54:00Z</time>
      </trkpt>
      <trkpt lat="50.13335" lon="4.08373">
        <ele>209</ele>
        <time>2024-04-16T05:54:01Z</time>
      </trkpt>
      <trkpt lat="50.13341" lon="4.08373">
        <ele>209</ele>
        <time>2024-04-16T05:54:02Z</time>
      </trkpt>
      <trkpt lat="50.13346" lon="4.08373">
        <ele>209.4</ele>
        <time>2024-04-16T05:54:03Z</time>
      </trkpt>
      <trkpt lat="50.13352" lon="4.08373">
        <ele>209.4</ele>
        <time>2024-04-16T05:54:04Z</time>
      </trkpt>
      <trkpt lat="50.13358" lon="4.08373">
        <ele>209.4</ele>
        <time>2024-04-16T05:54:05Z</time>
      </trkpt>
      <trkpt lat="50.13364" lon="4.08372">
        <ele>209.6</ele>
        <time>2024-04-16T05:54:06Z</time>
      </trkpt>
      <trkpt lat="50.1337" lon="4.08371">
        <ele>209.6</ele>
        <time>2024-04-16T05:54:07Z</time>
      </trkpt>
      <trkpt lat="50.13376" lon="4.0837">
        <ele>209.6</ele>
        <time>2024-04-16T05:54:08Z</time>
      </trkpt>
      <trkpt lat="50.13382" lon="4.08368">
        <ele>209.8</ele>
        <time>2024-04-16T05:54:09Z</time>
      </trkpt>
      <trkpt lat="50.13388" lon="4.08366">
        <ele>210</ele>
        <time>2024-04-16T05:54:10Z</time>
      </trkpt>
      <trkpt lat="50.13395" lon="4.08364">
        <ele>210.2</ele>
        <time>2024-04-16T05:54:11Z</time>
      </trkpt>
      <trkpt lat="50.13401" lon="4.08362">
        <ele>210.2</ele>
        <time>2024-04-16T05:54:12Z</time>
      </trkpt>
      <trkpt lat="50.13407" lon="4.08359">
        <ele>210.2</ele>
        <time>2024-04-16T05:54:13Z</time>
      </trkpt>
      <trkpt lat="50.13414" lon="4.08357">
        <ele>210.4</ele>
        <time>2024-04-16T05:54:14Z</time>
      </trkpt>
      <trkpt lat="50.13421" lon="4.08354">
        <ele>210.4</ele>
        <time>2024-04-16T05:54:15Z</time>
      </trkpt>
      <trkpt lat="50.13427" lon="4.08352">
        <ele>210.4</ele>
        <time>2024-04-16T05:54:16Z</time>
      </trkpt>
      <trkpt lat="50.13433" lon="4.0835">
        <ele>210.4</ele>
        <time>2024-04-16T05:54:17Z</time>
      </trkpt>
      <trkpt lat="50.1344" lon="4.08348">
        <ele>210.4</ele>
        <time>2024-04-16T05:54:18Z</time>
      </trkpt>
      <trkpt lat="50.13446" lon="4.08346">
        <ele>210.4</ele>
        <time>2024-04-16T05:54:19Z</time>
      </trkpt>
      <trkpt lat="50.13452" lon="4.08344">
        <ele>210.2</ele>
        <time>2024-04-16T05:54:20Z</time>
      </trkpt>
      <trkpt lat="50.13459" lon="4.08342">
        <ele>210.2</ele>
        <time>2024-04-16T05:54:21Z</time>
      </trkpt>
      <trkpt lat="50.13465" lon="4.0834">
        <ele>210.2</ele>
        <time>2024-04-16T05:54:22Z</time>
      </trkpt>
      <trkpt lat="50.13471" lon="4.08338">
        <ele>210</ele>
        <time>2024-04-16T05:54:23Z</time>
      </trkpt>
      <trkpt lat="50.13477" lon="4.08336">
        <ele>210</ele>
        <time>2024-04-16T05:54:24Z</time>
      </trkpt>
      <trkpt lat="50.13483" lon="4.08334">
        <ele>210</ele>
        <time>2024-04-16T05:54:25Z</time>
      </trkpt>
      <trkpt lat="50.13488" lon="4.08332">
        <ele>210</ele>
        <time>2024-04-16T05:54:26Z</time>
      </trkpt>
      <trkpt lat="50.13494" lon="4.0833">
        <ele>210</ele>
        <time>2024-04-16T05:54:27Z</time>
      </trkpt>
      <trkpt lat="50.135" lon="4.08328">
        <ele>209.8</ele>
        <time>2024-04-16T05:54:28Z</time>
      </trkpt>
      <trkpt lat="50.13505" lon="4.08326">
        <ele>209.8</ele>
        <time>2024-04-16T05:54:29Z</time>
      </trkpt>
      <trkpt lat="50.13511" lon="4.08324">
        <ele>210</ele>
        <time>2024-04-16T05:54:30Z</time>
      </trkpt>
      <trkpt lat="50.13516" lon="4.08323">
        <ele>210</ele>
        <time>2024-04-16T05:54:31Z</time>
      </trkpt>
      <trkpt lat="50.13522" lon="4.08321">
        <ele>210</ele>
        <time>2024-04-16T05:54:32Z</time>
      </trkpt>
      <trkpt lat="50.13527" lon="4.08319">
        <ele>210.2</ele>
        <time>2024-04-16T05:54:33Z</time>
      </trkpt>
      <trkpt lat="50.13532" lon="4.08318">
        <ele>210.2</ele>
        <time>2024-04-16T05:54:34Z</time>
      </trkpt>
      <trkpt lat="50.13538" lon="4.08317">
        <ele>210.2</ele>
        <time>2024-04-16T05:54:35Z</time>
      </trkpt>
      <trkpt lat="50.13543" lon="4.08316">
        <ele>210.6</ele>
        <time>2024-04-16T05:54:36Z</time>
      </trkpt>
      <trkpt lat="50.13548" lon="4.08315">
        <ele>210.8</ele>
        <time>2024-04-16T05:54:37Z</time>
      </trkpt>
      <trkpt lat="50.13553" lon="4.08314">
        <ele>211.2</ele>
        <time>2024-04-16T05:54:38Z</time>
      </trkpt>
      <trkpt lat="50.13559" lon="4.08313">
        <ele>211.4</ele>
        <time>2024-04-16T05:54:39Z</time>
      </trkpt>
      <trkpt lat="50.13564" lon="4.08312">
        <ele>211.4</ele>
        <time>2024-04-16T05:54:40Z</time>
      </trkpt>
      <trkpt lat="50.1357" lon="4.08311">
        <ele>211.6</ele>
        <time>2024-04-16T05:54:41Z</time>
      </trkpt>
      <trkpt lat="50.13575" lon="4.08311">
        <ele>211.6</ele>
        <time>2024-04-16T05:54:42Z</time>
      </trkpt>
      <trkpt lat="50.13581" lon="4.0831">
        <ele>211.8</ele>
        <time>2024-04-16T05:54:43Z</time>
      </trkpt>
      <trkpt lat="50.13586" lon="4.08309">
        <ele>211.8</ele>
        <time>2024-04-16T05:54:44Z</time>
      </trkpt>
      <trkpt lat="50.13591" lon="4.08308">
        <ele>212</ele>
        <time>2024-04-16T05:54:45Z</time>
      </trkpt>
      <trkpt lat="50.13597" lon="4.08307">
        <ele>212</ele>
        <time>2024-04-16T05:54:46Z</time>
      </trkpt>
      <trkpt lat="50.13602" lon="4.08306">
        <ele>212.2</ele>
        <time>2024-04-16T05:54:47Z</time>
      </trkpt>
      <trkpt lat="50.13607" lon="4.08305">
        <ele>212.6</ele>
        <time>2024-04-16T05:54:48Z</time>
      </trkpt>
      <trkpt lat="50.13612" lon="4.08304">
        <ele>212.8</ele>
        <time>2024-04-16T05:54:49Z</time>
      </trkpt>
      <trkpt lat="50.13617" lon="4.08304">
        <ele>212.8</ele>
        <time>2024-04-16T05:54:50Z</time>
      </trkpt>
      <trkpt lat="50.13621" lon="4.08306">
        <ele>212.8</ele>
        <time>2024-04-16T05:54:51Z</time>
      </trkpt>
      <trkpt lat="50.13625" lon="4.0831">
        <ele>213</ele>
        <time>2024-04-16T05:54:52Z</time>
      </trkpt>
      <trkpt lat="50.13629" lon="4.08315">
        <ele>213.4</ele>
        <time>2024-04-16T05:54:53Z</time>
      </trkpt>
      <trkpt lat="50.13632" lon="4.08322">
        <ele>213.6</ele>
        <time>2024-04-16T05:54:54Z</time>
      </trkpt>
      <trkpt lat="50.13634" lon="4.0833">
        <ele>213.8</ele>
        <time>2024-04-16T05:54:55Z</time>
      </trkpt>
      <trkpt lat="50.13635" lon="4.08337">
        <ele>214</ele>
        <time>2024-04-16T05:54:56Z</time>
      </trkpt>
      <trkpt lat="50.13636" lon="4.08345">
        <ele>214.2</ele>
        <time>2024-04-16T05:54:57Z</time>
      </trkpt>
      <trkpt lat="50.13637" lon="4.08353">
        <ele>214</ele>
        <time>2024-04-16T05:54:58Z</time>
      </trkpt>
      <trkpt lat="50.13637" lon="4.08361">
        <ele>214</ele>
        <time>2024-04-16T05:54:59Z</time>
      </trkpt>
      <trkpt lat="50.13635" lon="4.08369">
        <ele>214.2</ele>
        <time>2024-04-16T05:55:00Z</time>
      </trkpt>
      <trkpt lat="50.13633" lon="4.08377">
        <ele>214.4</ele>
        <time>2024-04-16T05:55:01Z</time>
      </trkpt>
      <trkpt lat="50.1363" lon="4.08384">
        <ele>214.6</ele>
        <time>2024-04-16T05:55:02Z</time>
      </trkpt>
      <trkpt lat="50.13628" lon="4.08393">
        <ele>214.6</ele>
        <time>2024-04-16T05:55:03Z</time>
      </trkpt>
      <trkpt lat="50.13627" lon="4.08401">
        <ele>214.4</ele>
        <time>2024-04-16T05:55:04Z</time>
      </trkpt>
      <trkpt lat="50.13627" lon="4.0841">
        <ele>214.2</ele>
        <time>2024-04-16T05:55:05Z</time>
      </trkpt>
      <trkpt lat="50.13627" lon="4.0842">
        <ele>214.2</ele>
        <time>2024-04-16T05:55:06Z</time>
      </trkpt>
      <trkpt lat="50.13627" lon="4.08429">
        <ele>214.2</ele>
        <time>2024-04-16T05:55:07Z</time>
      </trkpt>
      <trkpt lat="50.13626" lon="4.08439">
        <ele>214.2</ele>
        <time>2024-04-16T05:55:08Z</time>
      </trkpt>
      <trkpt lat="50.13623" lon="4.08448">
        <ele>214.2</ele>
        <time>2024-04-16T05:55:09Z</time>
      </trkpt>
      <trkpt lat="50.1362" lon="4.08457">
        <ele>214</ele>
        <time>2024-04-16T05:55:10Z</time>
      </trkpt>
      <trkpt lat="50.13616" lon="4.08466">
        <ele>213.8</ele>
        <time>2024-04-16T05:55:11Z</time>
      </trkpt>
      <trkpt lat="50.13611" lon="4.08474">
        <ele>213.6</ele>
        <time>2024-04-16T05:55:12Z</time>
      </trkpt>
      <trkpt lat="50.13605" lon="4.08484">
        <ele>213.6</ele>
        <time>2024-04-16T05:55:13Z</time>
      </trkpt>
      <trkpt lat="50.136" lon="4.08494">
        <ele>213.4</ele>
        <time>2024-04-16T05:55:14Z</time>
      </trkpt>
      <trkpt lat="50.13595" lon="4.08505">
        <ele>213.4</ele>
        <time>2024-04-16T05:55:15Z</time>
      </trkpt>
      <trkpt lat="50.13589" lon="4.08515">
        <ele>213.2</ele>
        <time>2024-04-16T05:55:16Z</time>
      </trkpt>
      <trkpt lat="50.13584" lon="4.08526">
        <ele>212.8</ele>
        <time>2024-04-16T05:55:17Z</time>
      </trkpt>
      <trkpt lat="50.13579" lon="4.08536">
        <ele>212</ele>
        <time>2024-04-16T05:55:18Z</time>
      </trkpt>
      <trkpt lat="50.13574" lon="4.08544">
        <ele>211.2</ele>
        <time>2024-04-16T05:55:19Z</time>
      </trkpt>
      <trkpt lat="50.1357" lon="4.08552">
        <ele>210.8</ele>
        <time>2024-04-16T05:55:20Z</time>
      </trkpt>
      <trkpt lat="50.13566" lon="4.08558">
        <ele>210.4</ele>
        <time>2024-04-16T05:55:21Z</time>
      </trkpt>
      <trkpt lat="50.13562" lon="4.08562">
        <ele>209.6</ele>
        <time>2024-04-16T05:55:22Z</time>
      </trkpt>
      <trkpt lat="50.13558" lon="4.08563">
        <ele>209</ele>
        <time>2024-04-16T05:55:23Z</time>
      </trkpt>
      <trkpt lat="50.13555" lon="4.08559">
        <ele>207.6</ele>
        <time>2024-04-16T05:55:24Z</time>
      </trkpt>
      <trkpt lat="50.13553" lon="4.08553">
        <ele>206.8</ele>
        <time>2024-04-16T05:55:25Z</time>
      </trkpt>
      <trkpt lat="50.13551" lon="4.08546">
        <ele>205.6</ele>
        <time>2024-04-16T05:55:26Z</time>
      </trkpt>
      <trkpt lat="50.1355" lon="4.08539">
        <ele>204.6</ele>
        <time>2024-04-16T05:55:27Z</time>
      </trkpt>
      <trkpt lat="50.1355" lon="4.08531">
        <ele>204.2</ele>
        <time>2024-04-16T05:55:28Z</time>
      </trkpt>
      <trkpt lat="50.13549" lon="4.08524">
        <ele>203.8</ele>
        <time>2024-04-16T05:55:29Z</time>
      </trkpt>
      <trkpt lat="50.13548" lon="4.08517">
        <ele>203.8</ele>
        <time>2024-04-16T05:55:30Z</time>
      </trkpt>
      <trkpt lat="50.13547" lon="4.08509">
        <ele>203.6</ele>
        <time>2024-04-16T05:55:31Z</time>
      </trkpt>
      <trkpt lat="50.13546" lon="4.08502">
        <ele>203.6</ele>
        <time>2024-04-16T05:55:32Z</time>
      </trkpt>
      <trkpt lat="50.13545" lon="4.08495">
        <ele>203.6</ele>
        <time>2024-04-16T05:55:33Z</time>
      </trkpt>
      <trkpt lat="50.13544" lon="4.08488">
        <ele>203.6</ele>
        <time>2024-04-16T05:55:34Z</time>
      </trkpt>
      <trkpt lat="50.13543" lon="4.08481">
        <ele>203.6</ele>
        <time>2024-04-16T05:55:35Z</time>
      </trkpt>
      <trkpt lat="50.13541" lon="4.08476">
        <ele>203.8</ele>
        <time>2024-04-16T05:55:36Z</time>
      </trkpt>
      <trkpt lat="50.13539" lon="4.0847">
        <ele>203.6</ele>
        <time>2024-04-16T05:55:37Z</time>
      </trkpt>
      <trkpt lat="50.13537" lon="4.08466">
        <ele>203.8</ele>
        <time>2024-04-16T05:55:38Z</time>
      </trkpt>
      <trkpt lat="50.13534" lon="4.08463">
        <ele>204.2</ele>
        <time>2024-04-16T05:55:39Z</time>
      </trkpt>
      <trkpt lat="50.13531" lon="4.08461">
        <ele>204.4</ele>
        <time>2024-04-16T05:55:40Z</time>
      </trkpt>
      <trkpt lat="50.13528" lon="4.0846">
        <ele>205</ele>
        <time>2024-04-16T05:55:41Z</time>
      </trkpt>
      <trkpt lat="50.13526" lon="4.08459">
        <ele>205.2</ele>
        <time>2024-04-16T05:55:42Z</time>
      </trkpt>
      <trkpt lat="50.13524" lon="4.08457">
        <ele>205.6</ele>
        <time>2024-04-16T05:55:43Z</time>
      </trkpt>
      <trkpt lat="50.12883" lon="4.08341">
        <ele>198.8</ele>
        <time>2024-04-16T14:10:27Z</time>
      </trkpt>
      <trkpt lat="50.12874" lon="4.08331">
        <ele>194</ele>
        <time>2024-04-16T14:10:28Z</time>
      </trkpt>
      <trkpt lat="50.12864" lon="4.08321">
        <ele>192</ele>
        <time>2024-04-16T14:10:29Z</time>
      </trkpt>
      <trkpt lat="50.12855" lon="4.08312">
        <ele>190.6</ele>
        <time>2024-04-16T14:10:30Z</time>
      </trkpt>
      <trkpt lat="50.12844" lon="4.08304">
        <ele>189.8</ele>
        <time>2024-04-16T14:10:31Z</time>
      </trkpt>
      <trkpt lat="50.12834" lon="4.08297">
        <ele>189.2</ele>
        <time>2024-04-16T14:10:32Z</time>
      </trkpt>
      <trkpt lat="50.12823" lon="4.08292">
        <ele>187.6</ele>
        <time>2024-04-16T14:10:33Z</time>
      </trkpt>
      <trkpt lat="50.12812" lon="4.08287">
        <ele>186.6</ele>
        <time>2024-04-16T14:10:34Z</time>
      </trkpt>
      <trkpt lat="50.128" lon="4.08283">
        <ele>185.8</ele>
        <time>2024-04-16T14:10:35Z</time>
      </trkpt>
      <trkpt lat="50.12788" lon="4.08281">
        <ele>185</ele>
        <time>2024-04-16T14:10:36Z</time>
      </trkpt>
      <trkpt lat="50.12776" lon="4.0828">
        <ele>183.8</ele>
        <time>2024-04-16T14:10:37Z</time>
      </trkpt>
      <trkpt lat="50.12764" lon="4.08279">
        <ele>183.2</ele>
        <time>2024-04-16T14:10:38Z</time>
      </trkpt>
      <trkpt lat="50.12752" lon="4.0828">
        <ele>182.4</ele>
        <time>2024-04-16T14:10:39Z</time>
      </trkpt>
      <trkpt lat="50.1274" lon="4.0828">
        <ele>180.8</ele>
        <time>2024-04-16T14:10:40Z</time>
      </trkpt>
      <trkpt lat="50.12727" lon="4.0828">
        <ele>180.8</ele>
        <time>2024-04-16T14:10:41Z</time>
      </trkpt>
      <trkpt lat="50.12715" lon="4.0828">
        <ele>179.8</ele>
        <time>2024-04-16T14:10:42Z</time>
      </trkpt>
      <trkpt lat="50.12703" lon="4.0828">
        <ele>178.6</ele>
        <time>2024-04-16T14:10:43Z</time>
      </trkpt>
      <trkpt lat="50.1269" lon="4.0828">
        <ele>178</ele>
        <time>2024-04-16T14:10:44Z</time>
      </trkpt>
      <trkpt lat="50.12678" lon="4.08281">
        <ele>177.6</ele>
        <time>2024-04-16T14:10:45Z</time>
      </trkpt>
      <trkpt lat="50.12665" lon="4.08281">
        <ele>177</ele>
        <time>2024-04-16T14:10:46Z</time>
      </trkpt>
      <trkpt lat="50.12653" lon="4.08282">
        <ele>176.6</ele>
        <time>2024-04-16T14:10:47Z</time>
      </trkpt>
      <trkpt lat="50.1264" lon="4.08282">
        <ele>175.6</ele>
        <time>2024-04-16T14:10:48Z</time>
      </trkpt>
      <trkpt lat="50.12628" lon="4.08283">
        <ele>174.4</ele>
        <time>2024-04-16T14:10:49Z</time>
      </trkpt>
      <trkpt lat="50.12615" lon="4.08283">
        <ele>173.6</ele>
        <time>2024-04-16T14:10:50Z</time>
      </trkpt>
      <trkpt lat="50.12603" lon="4.08283">
        <ele>172.8</ele>
        <time>2024-04-16T14:10:51Z</time>
      </trkpt>
      <trkpt lat="50.12591" lon="4.08283">
        <ele>172</ele>
        <time>2024-04-16T14:10:52Z</time>
      </trkpt>
      <trkpt lat="50.12579" lon="4.08281">
        <ele>171</ele>
        <time>2024-04-16T14:10:53Z</time>
      </trkpt>
      <trkpt lat="50.12567" lon="4.08278">
        <ele>170.2</ele>
        <time>2024-04-16T14:10:54Z</time>
      </trkpt>
      <trkpt lat="50.12557" lon="4.08274">
        <ele>169.8</ele>
        <time>2024-04-16T14:10:55Z</time>
      </trkpt>
      <trkpt lat="50.12546" lon="4.08268">
        <ele>169.6</ele>
        <time>2024-04-16T14:10:56Z</time>
      </trkpt>
      <trkpt lat="50.12536" lon="4.0826">
        <ele>169</ele>
        <time>2024-04-16T14:10:57Z</time>
      </trkpt>
      <trkpt lat="50.12528" lon="4.08252">
        <ele>168.2</ele>
        <time>2024-04-16T14:10:58Z</time>
      </trkpt>
      <trkpt lat="50.12519" lon="4.08243">
        <ele>167.8</ele>
        <time>2024-04-16T14:10:59Z</time>
      </trkpt>
      <trkpt lat="50.12512" lon="4.08234">
        <ele>167.6</ele>
        <time>2024-04-16T14:11:00Z</time>
      </trkpt>
      <trkpt lat="50.12505" lon="4.08224">
        <ele>167.8</ele>
        <time>2024-04-16T14:11:01Z</time>
      </trkpt>
      <trkpt lat="50.12499" lon="4.08213">
        <ele>167.4</ele>
        <time>2024-04-16T14:11:02Z</time>
      </trkpt>
      <trkpt lat="50.12494" lon="4.08203">
        <ele>167.4</ele>
        <time>2024-04-16T14:11:03Z</time>
      </trkpt>
      <trkpt lat="50.12489" lon="4.08193">
        <ele>167.6</ele>
        <time>2024-04-16T14:11:04Z</time>
      </trkpt>
      <trkpt lat="50.12484" lon="4.08183">
        <ele>167.6</ele>
        <time>2024-04-16T14:11:05Z</time>
      </trkpt>
      <trkpt lat="50.12479" lon="4.08173">
        <ele>167.6</ele>
        <time>2024-04-16T14:11:06Z</time>
      </trkpt>
      <trkpt lat="50.12474" lon="4.08164">
        <ele>167.6</ele>
        <time>2024-04-16T14:11:07Z</time>
      </trkpt>
      <trkpt lat="50.12469" lon="4.08155">
        <ele>167.6</ele>
        <time>2024-04-16T14:11:08Z</time>
      </trkpt>
      <trkpt lat="50.12465" lon="4.08146">
        <ele>167.6</ele>
        <time>2024-04-16T14:11:09Z</time>
      </trkpt>
      <trkpt lat="50.12461" lon="4.08137">
        <ele>167.8</ele>
        <time>2024-04-16T14:11:10Z</time>
      </trkpt>
      <trkpt lat="50.12456" lon="4.08129">
        <ele>168.4</ele>
        <time>2024-04-16T14:11:11Z</time>
      </trkpt>
      <trkpt lat="50.12452" lon="4.08121">
        <ele>168.8</ele>
        <time>2024-04-16T14:11:12Z</time>
      </trkpt>
      <trkpt lat="50.12448" lon="4.08112">
        <ele>169.4</ele>
        <time>2024-04-16T14:11:13Z</time>
      </trkpt>
      <trkpt lat="50.12444" lon="4.08104">
        <ele>169.8</ele>
        <time>2024-04-16T14:11:14Z</time>
      </trkpt>
      <trkpt lat="50.1244" lon="4.08096">
        <ele>170.4</ele>
        <time>2024-04-16T14:11:15Z</time>
      </trkpt>
      <trkpt lat="50.12436" lon="4.08088">
        <ele>170.6</ele>
        <time>2024-04-16T14:11:16Z</time>
      </trkpt>
      <trkpt lat="50.12432" lon="4.0808">
        <ele>171</ele>
        <time>2024-04-16T14:11:17Z</time>
      </trkpt>
      <trkpt lat="50.12429" lon="4.08072">
        <ele>171.2</ele>
        <time>2024-04-16T14:11:18Z</time>
      </trkpt>
      <trkpt lat="50.12425" lon="4.08064">
        <ele>171.4</ele>
        <time>2024-04-16T14:11:19Z</time>
      </trkpt>
      <trkpt lat="50.12421" lon="4.08057">
        <ele>171.2</ele>
        <time>2024-04-16T14:11:20Z</time>
      </trkpt>
      <trkpt lat="50.12418" lon="4.08049">
        <ele>171.2</ele>
        <time>2024-04-16T14:11:21Z</time>
      </trkpt>
      <trkpt lat="50.12416" lon="4.08042">
        <ele>171.4</ele>
        <time>2024-04-16T14:11:22Z</time>
      </trkpt>
      <trkpt lat="50.12414" lon="4.08034">
        <ele>171.4</ele>
        <time>2024-04-16T14:11:23Z</time>
      </trkpt>
      <trkpt lat="50.12414" lon="4.08026">
        <ele>171.6</ele>
        <time>2024-04-16T14:11:24Z</time>
      </trkpt>
      <trkpt lat="50.12413" lon="4.08018">
        <ele>171.6</ele>
        <time>2024-04-16T14:11:25Z</time>
      </trkpt>
      <trkpt lat="50.1241" lon="4.0801">
        <ele>171.6</ele>
        <time>2024-04-16T14:11:26Z</time>
      </trkpt>
      <trkpt lat="50.12407" lon="4.08003">
        <ele>171.8</ele>
        <time>2024-04-16T14:11:27Z</time>
      </trkpt>
      <trkpt lat="50.12403" lon="4.07999">
        <ele>172</ele>
        <time>2024-04-16T14:11:28Z</time>
      </trkpt>
      <trkpt lat="50.12399" lon="4.07997">
        <ele>172.2</ele>
        <time>2024-04-16T14:11:29Z</time>
      </trkpt>
      <trkpt lat="50.12394" lon="4.07997">
        <ele>172.2</ele>
        <time>2024-04-16T14:11:30Z</time>
      </trkpt>
      <trkpt lat="50.1239" lon="4.08">
        <ele>172.4</ele>
        <time>2024-04-16T14:11:31Z</time>
      </trkpt>
      <trkpt lat="50.12386" lon="4.08005">
        <ele>172.6</ele>
        <time>2024-04-16T14:11:32Z</time>
      </trkpt>
      <trkpt lat="50.12383" lon="4.08011">
        <ele>172.6</ele>
        <time>2024-04-16T14:11:33Z</time>
      </trkpt>
      <trkpt lat="50.12382" lon="4.08019">
        <ele>173</ele>
        <time>2024-04-16T14:11:34Z</time>
      </trkpt>
      <trkpt lat="50.12381" lon="4.08027">
        <ele>173.2</ele>
        <time>2024-04-16T14:11:35Z</time>
      </trkpt>
      <trkpt lat="50.1238" lon="4.08037">
        <ele>173.2</ele>
        <time>2024-04-16T14:11:36Z</time>
      </trkpt>
      <trkpt lat="50.1238" lon="4.08046">
        <ele>173.6</ele>
        <time>2024-04-16T14:11:37Z</time>
      </trkpt>
      <trkpt lat="50.12378" lon="4.08056">
        <ele>173.8</ele>
        <time>2024-04-16T14:11:38Z</time>
      </trkpt>
      <trkpt lat="50.12374" lon="4.08065">
        <ele>173.8</ele>
        <time>2024-04-16T14:11:39Z</time>
      </trkpt>
      <trkpt lat="50.1237" lon="4.08074">
        <ele>174.2</ele>
        <time>2024-04-16T14:11:40Z</time>
      </trkpt>
      <trkpt lat="50.12366" lon="4.08082">
        <ele>174.2</ele>
        <time>2024-04-16T14:11:41Z</time>
      </trkpt>
      <trkpt lat="50.12362" lon="4.08091">
        <ele>174</ele>
        <time>2024-04-16T14:11:42Z</time>
      </trkpt>
      <trkpt lat="50.12358" lon="4.081">
        <ele>174.2</ele>
        <time>2024-04-16T14:11:43Z</time>
      </trkpt>
      <trkpt lat="50.12354" lon="4.0811">
        <ele>174.2</ele>
        <time>2024-04-16T14:11:44Z</time>
      </trkpt>
      <trkpt lat="50.12349" lon="4.08119">
        <ele>174</ele>
        <time>2024-04-16T14:11:45Z</time>
      </trkpt>
      <trkpt lat="50.12345" lon="4.08128">
        <ele>174.2</ele>
        <time>2024-04-16T14:11:46Z</time>
      </trkpt>
      <trkpt lat="50.12341" lon="4.08137">
        <ele>174.2</ele>
        <time>2024-04-16T14:11:47Z</time>
      </trkpt>
      <trkpt lat="50.12336" lon="4.08147">
        <ele>174.2</ele>
        <time>2024-04-16T14:11:48Z</time>
      </trkpt>
      <trkpt lat="50.12332" lon="4.08156">
        <ele>174.2</ele>
        <time>2024-04-16T14:11:49Z</time>
      </trkpt>
      <trkpt lat="50.12328" lon="4.08166">
        <ele>174</ele>
        <time>2024-04-16T14:11:50Z</time>
      </trkpt>
      <trkpt lat="50.12323" lon="4.08175">
        <ele>173.8</ele>
        <time>2024-04-16T14:11:51Z</time>
      </trkpt>
      <trkpt lat="50.12319" lon="4.08185">
        <ele>173.6</ele>
        <time>2024-04-16T14:11:52Z</time>
      </trkpt>
      <trkpt lat="50.12314" lon="4.08194">
        <ele>173.6</ele>
        <time>2024-04-16T14:11:53Z</time>
      </trkpt>
      <trkpt lat="50.1231" lon="4.08204">
        <ele>173.4</ele>
        <time>2024-04-16T14:11:54Z</time>
      </trkpt>
      <trkpt lat="50.12305" lon="4.08214">
        <ele>173.2</ele>
        <time>2024-04-16T14:11:55Z</time>
      </trkpt>
      <trkpt lat="50.12301" lon="4.08224">
        <ele>173.2</ele>
        <time>2024-04-16T14:11:56Z</time>
      </trkpt>
      <trkpt lat="50.12296" lon="4.08234">
        <ele>173</ele>
        <time>2024-04-16T14:11:57Z</time>
      </trkpt>
      <trkpt lat="50.12291" lon="4.08245">
        <ele>173</ele>
        <time>2024-04-16T14:11:58Z</time>
      </trkpt>
      <trkpt lat="50.12286" lon="4.08256">
        <ele>172.6</ele>
        <time>2024-04-16T14:11:59Z</time>
      </trkpt>
      <trkpt lat="50.12282" lon="4.08266">
        <ele>172.4</ele>
        <time>2024-04-16T14:12:00Z</time>
      </trkpt>
      <trkpt lat="50.12277" lon="4.08277">
        <ele>172</ele>
        <time>2024-04-16T14:12:01Z</time>
      </trkpt>
      <trkpt lat="50.12272" lon="4.08288">
        <ele>171.4</ele>
        <time>2024-04-16T14:12:02Z</time>
      </trkpt>
      <trkpt lat="50.12266" lon="4.08299">
        <ele>171</ele>
        <time>2024-04-16T14:12:03Z</time>
      </trkpt>
      <trkpt lat="50.12261" lon="4.0831">
        <ele>171</ele>
        <time>2024-04-16T14:12:04Z</time>
      </trkpt>
      <trkpt lat="50.12256" lon="4.08321">
        <ele>170.8</ele>
        <time>2024-04-16T14:12:05Z</time>
      </trkpt>
      <trkpt lat="50.12251" lon="4.08333">
        <ele>170.6</ele>
        <time>2024-04-16T14:12:06Z</time>
      </trkpt>
      <trkpt lat="50.12246" lon="4.08344">
        <ele>170.2</ele>
        <time>2024-04-16T14:12:07Z</time>
      </trkpt>
      <trkpt lat="50.12241" lon="4.08356">
        <ele>169.8</ele>
        <time>2024-04-16T14:12:08Z</time>
      </trkpt>
      <trkpt lat="50.12236" lon="4.08369">
        <ele>169.8</ele>
        <time>2024-04-16T14:12:09Z</time>
      </trkpt>
      <trkpt lat="50.12231" lon="4.08381">
        <ele>169.4</ele>
        <time>2024-04-16T14:12:10Z</time>
      </trkpt>
      <trkpt lat="50.12227" lon="4.08395">
        <ele>169.2</ele>
        <time>2024-04-16T14:12:11Z</time>
      </trkpt>
      <trkpt lat="50.12223" lon="4.08408">
        <ele>169</ele>
        <time>2024-04-16T14:12:12Z</time>
      </trkpt>
      <trkpt lat="50.12219" lon="4.08422">
        <ele>168.8</ele>
        <time>2024-04-16T14:12:13Z</time>
      </trkpt>
      <trkpt lat="50.12216" lon="4.08436">
        <ele>168.6</ele>
        <time>2024-04-16T14:12:14Z</time>
      </trkpt>
      <trkpt lat="50.12213" lon="4.08451">
        <ele>168.6</ele>
        <time>2024-04-16T14:12:15Z</time>
      </trkpt>
      <trkpt lat="50.12211" lon="4.08466">
        <ele>168.2</ele>
        <time>2024-04-16T14:12:16Z</time>
      </trkpt>
      <trkpt lat="50.12208" lon="4.0848">
        <ele>168.2</ele>
        <time>2024-04-16T14:12:17Z</time>
      </trkpt>
      <trkpt lat="50.12206" lon="4.08495">
        <ele>167.4</ele>
        <time>2024-04-16T14:12:18Z</time>
      </trkpt>
      <trkpt lat="50.12204" lon="4.0851">
        <ele>167.2</ele>
        <time>2024-04-16T14:12:19Z</time>
      </trkpt>
      <trkpt lat="50.12202" lon="4.08526">
        <ele>166.8</ele>
        <time>2024-04-16T14:12:20Z</time>
      </trkpt>
      <trkpt lat="50.12201" lon="4.08541">
        <ele>166.2</ele>
        <time>2024-04-16T14:12:21Z</time>
      </trkpt>
      <trkpt lat="50.12201" lon="4.08556">
        <ele>165.4</ele>
        <time>2024-04-16T14:12:22Z</time>
      </trkpt>
      <trkpt lat="50.12201" lon="4.08572">
        <ele>165</ele>
        <time>2024-04-16T14:12:23Z</time>
      </trkpt>
      <trkpt lat="50.12202" lon="4.08587">
        <ele>164.6</ele>
        <time>2024-04-16T14:12:24Z</time>
      </trkpt>
      <trkpt lat="50.12202" lon="4.08601">
        <ele>163.8</ele>
        <time>2024-04-16T14:12:25Z</time>
      </trkpt>
      <trkpt lat="50.12203" lon="4.08616">
        <ele>163.2</ele>
        <time>2024-04-16T14:12:26Z</time>
      </trkpt>
      <trkpt lat="50.12203" lon="4.08631">
        <ele>163</ele>
        <time>2024-04-16T14:12:27Z</time>
      </trkpt>
      <trkpt lat="50.12203" lon="4.08645">
        <ele>162.8</ele>
        <time>2024-04-16T14:12:28Z</time>
      </trkpt>
      <trkpt lat="50.12204" lon="4.0866">
        <ele>162.8</ele>
        <time>2024-04-16T14:12:29Z</time>
      </trkpt>
      <trkpt lat="50.12204" lon="4.08674">
        <ele>162.6</ele>
        <time>2024-04-16T14:12:30Z</time>
      </trkpt>
      <trkpt lat="50.12203" lon="4.08688">
        <ele>162.6</ele>
        <time>2024-04-16T14:12:31Z</time>
      </trkpt>
      <trkpt lat="50.12203" lon="4.08701">
        <ele>162.6</ele>
        <time>2024-04-16T14:12:32Z</time>
      </trkpt>
      <trkpt lat="50.12203" lon="4.08715">
        <ele>162.6</ele>
        <time>2024-04-16T14:12:33Z</time>
      </trkpt>
      <trkpt lat="50.12202" lon="4.08728">
        <ele>162.6</ele>
        <time>2024-04-16T14:12:34Z</time>
      </trkpt>
      <trkpt lat="50.12201" lon="4.08742">
        <ele>162.6</ele>
        <time>2024-04-16T14:12:35Z</time>
      </trkpt>
      <trkpt lat="50.122" lon="4.08755">
        <ele>162.6</ele>
        <time>2024-04-16T14:12:36Z</time>
      </trkpt>
      <trkpt lat="50.12199" lon="4.08767">
        <ele>162.6</ele>
        <time>2024-04-16T14:12:37Z</time>
      </trkpt>
      <trkpt lat="50.12198" lon="4.08779">
        <ele>162.6</ele>
        <time>2024-04-16T14:12:38Z</time>
      </trkpt>
      <trkpt lat="50.12196" lon="4.08792">
        <ele>162.8</ele>
        <time>2024-04-16T14:12:39Z</time>
      </trkpt>
      <trkpt lat="50.12194" lon="4.08803">
        <ele>163</ele>
        <time>2024-04-16T14:12:40Z</time>
      </trkpt>
      <trkpt lat="50.12193" lon="4.08815">
        <ele>163.4</ele>
        <time>2024-04-16T14:12:41Z</time>
      </trkpt>
      <trkpt lat="50.12191" lon="4.08827">
        <ele>163.4</ele>
        <time>2024-04-16T14:12:42Z</time>
      </trkpt>
      <trkpt lat="50.1219" lon="4.08838">
        <ele>163.6</ele>
        <time>2024-04-16T14:12:43Z</time>
      </trkpt>
      <trkpt lat="50.12189" lon="4.0885">
        <ele>163.6</ele>
        <time>2024-04-16T14:12:44Z</time>
      </trkpt>
      <trkpt lat="50.12188" lon="4.08861">
        <ele>163.8</ele>
        <time>2024-04-16T14:12:45Z</time>
      </trkpt>
      <trkpt lat="50.12188" lon="4.08872">
        <ele>163.8</ele>
        <time>2024-04-16T14:12:46Z</time>
      </trkpt>
      <trkpt lat="50.12188" lon="4.08884">
        <ele>164</ele>
        <time>2024-04-16T14:12:47Z</time>
      </trkpt>
      <trkpt lat="50.12188" lon="4.08895">
        <ele>163.8</ele>
        <time>2024-04-16T14:12:48Z</time>
      </trkpt>
      <trkpt lat="50.12188" lon="4.08906">
        <ele>164</ele>
        <time>2024-04-16T14:12:49Z</time>
      </trkpt>
      <trkpt lat="50.12187" lon="4.08917">
        <ele>164.2</ele>
        <time>2024-04-16T14:12:50Z</time>
      </trkpt>
      <trkpt lat="50.12187" lon="4.08928">
        <ele>164.2</ele>
        <time>2024-04-16T14:12:51Z</time>
      </trkpt>
      <trkpt lat="50.12187" lon="4.08938">
        <ele>164.4</ele>
        <time>2024-04-16T14:12:52Z</time>
      </trkpt>
      <trkpt lat="50.12187" lon="4.08949">
        <ele>164.4</ele>
        <time>2024-04-16T14:12:53Z</time>
      </trkpt>
      <trkpt lat="50.12187" lon="4.0896">
        <ele>164.4</ele>
        <time>2024-04-16T14:12:54Z</time>
      </trkpt>
      <trkpt lat="50.12187" lon="4.08971">
        <ele>164.6</ele>
        <time>2024-04-16T14:12:55Z</time>
      </trkpt>
      <trkpt lat="50.12187" lon="4.08982">
        <ele>164.8</ele>
        <time>2024-04-16T14:12:56Z</time>
      </trkpt>
      <trkpt lat="50.12187" lon="4.08992">
        <ele>164.8</ele>
        <time>2024-04-16T14:12:57Z</time>
      </trkpt>
      <trkpt lat="50.12187" lon="4.09003">
        <ele>164.8</ele>
        <time>2024-04-16T14:12:58Z</time>
      </trkpt>
      <trkpt lat="50.12187" lon="4.09013">
        <ele>164.8</ele>
        <time>2024-04-16T14:12:59Z</time>
      </trkpt>
      <trkpt lat="50.12187" lon="4.09024">
        <ele>165</ele>
        <time>2024-04-16T14:13:00Z</time>
      </trkpt>
      <trkpt lat="50.12187" lon="4.09035">
        <ele>165.2</ele>
        <time>2024-04-16T14:13:01Z</time>
      </trkpt>
      <trkpt lat="50.12187" lon="4.09045">
        <ele>165.2</ele>
        <time>2024-04-16T14:13:02Z</time>
      </trkpt>
      <trkpt lat="50.12187" lon="4.09056">
        <ele>165.2</ele>
        <time>2024-04-16T14:13:03Z</time>
      </trkpt>
      <trkpt lat="50.12187" lon="4.09066">
        <ele>165.2</ele>
        <time>2024-04-16T14:13:04Z</time>
      </trkpt>
      <trkpt lat="50.12186" lon="4.09077">
        <ele>165.2</ele>
        <time>2024-04-16T14:13:05Z</time>
      </trkpt>
      <trkpt lat="50.12186" lon="4.09087">
        <ele>165.4</ele>
        <time>2024-04-16T14:13:06Z</time>
      </trkpt>
      <trkpt lat="50.12185" lon="4.09098">
        <ele>165.4</ele>
        <time>2024-04-16T14:13:07Z</time>
      </trkpt>
      <trkpt lat="50.12184" lon="4.09108">
        <ele>165.4</ele>
        <time>2024-04-16T14:13:08Z</time>
      </trkpt>
      <trkpt lat="50.12182" lon="4.09118">
        <ele>165.4</ele>
        <time>2024-04-16T14:13:09Z</time>
      </trkpt>
      <trkpt lat="50.1218" lon="4.09128">
        <ele>165.6</ele>
        <time>2024-04-16T14:13:10Z</time>
      </trkpt>
      <trkpt lat="50.12178" lon="4.09137">
        <ele>165.6</ele>
        <time>2024-04-16T14:13:11Z</time>
      </trkpt>
      <trkpt lat="50.12175" lon="4.09146">
        <ele>165.6</ele>
        <time>2024-04-16T14:13:12Z</time>
      </trkpt>
      <trkpt lat="50.12171" lon="4.09154">
        <ele>166</ele>
        <time>2024-04-16T14:13:13Z</time>
      </trkpt>
      <trkpt lat="50.12168" lon="4.09162">
        <ele>166</ele>
        <time>2024-04-16T14:13:14Z</time>
      </trkpt>
      <trkpt lat="50.12164" lon="4.0917">
        <ele>166.2</ele>
        <time>2024-04-16T14:13:15Z</time>
      </trkpt>
      <trkpt lat="50.1216" lon="4.09178">
        <ele>166.2</ele>
        <time>2024-04-16T14:13:16Z</time>
      </trkpt>
      <trkpt lat="50.12156" lon="4.09186">
        <ele>166</ele>
        <time>2024-04-16T14:13:17Z</time>
      </trkpt>
      <trkpt lat="50.12152" lon="4.09194">
        <ele>166.2</ele>
        <time>2024-04-16T14:13:18Z</time>
      </trkpt>
      <trkpt lat="50.12148" lon="4.09202">
        <ele>166.2</ele>
        <time>2024-04-16T14:13:19Z</time>
      </trkpt>
      <trkpt lat="50.12144" lon="4.0921">
        <ele>166.4</ele>
        <time>2024-04-16T14:13:20Z</time>
      </trkpt>
      <trkpt lat="50.12141" lon="4.09219">
        <ele>166.8</ele>
        <time>2024-04-16T14:13:21Z</time>
      </trkpt>
      <trkpt lat="50.12138" lon="4.09227">
        <ele>167.6</ele>
        <time>2024-04-16T14:13:22Z</time>
      </trkpt>
      <trkpt lat="50.12135" lon="4.09236">
        <ele>168</ele>
        <time>2024-04-16T14:13:23Z</time>
      </trkpt>
      <trkpt lat="50.12133" lon="4.09245">
        <ele>168.4</ele>
        <time>2024-04-16T14:13:24Z</time>
      </trkpt>
      <trkpt lat="50.12131" lon="4.09254">
        <ele>168.4</ele>
        <time>2024-04-16T14:13:25Z</time>
      </trkpt>
      <trkpt lat="50.12129" lon="4.09263">
        <ele>168.6</ele>
        <time>2024-04-16T14:13:26Z</time>
      </trkpt>
      <trkpt lat="50.12127" lon="4.09273">
        <ele>168.8</ele>
        <time>2024-04-16T14:13:27Z</time>
      </trkpt>
      <trkpt lat="50.12126" lon="4.09282">
        <ele>168.8</ele>
        <time>2024-04-16T14:13:28Z</time>
      </trkpt>
      <trkpt lat="50.12124" lon="4.09291">
        <ele>169</ele>
        <time>2024-04-16T14:13:29Z</time>
      </trkpt>
      <trkpt lat="50.12123" lon="4.09299">
        <ele>169.2</ele>
        <time>2024-04-16T14:13:30Z</time>
      </trkpt>
      <trkpt lat="50.12121" lon="4.09308">
        <ele>169.6</ele>
        <time>2024-04-16T14:13:31Z</time>
      </trkpt>
      <trkpt lat="50.1212" lon="4.09317">
        <ele>169.8</ele>
        <time>2024-04-16T14:13:32Z</time>
      </trkpt>
      <trkpt lat="50.12118" lon="4.09325">
        <ele>170.2</ele>
        <time>2024-04-16T14:13:33Z</time>
      </trkpt>
      <trkpt lat="50.12117" lon="4.09334">
        <ele>170.6</ele>
        <time>2024-04-16T14:13:34Z</time>
      </trkpt>
      <trkpt lat="50.12115" lon="4.09342">
        <ele>170.8</ele>
        <time>2024-04-16T14:13:35Z</time>
      </trkpt>
      <trkpt lat="50.12113" lon="4.0935">
        <ele>171.2</ele>
        <time>2024-04-16T14:13:36Z</time>
      </trkpt>
      <trkpt lat="50.12111" lon="4.09358">
        <ele>171.2</ele>
        <time>2024-04-16T14:13:37Z</time>
      </trkpt>
      <trkpt lat="50.12109" lon="4.09366">
        <ele>171.4</ele>
        <time>2024-04-16T14:13:38Z</time>
      </trkpt>
      <trkpt lat="50.12107" lon="4.09374">
        <ele>171.6</ele>
        <time>2024-04-16T14:13:39Z</time>
      </trkpt>
      <trkpt lat="50.12105" lon="4.09381">
        <ele>171.8</ele>
        <time>2024-04-16T14:13:40Z</time>
      </trkpt>
      <trkpt lat="50.12103" lon="4.09389">
        <ele>171.8</ele>
        <time>2024-04-16T14:13:41Z</time>
      </trkpt>
      <trkpt lat="50.12101" lon="4.09396">
        <ele>172</ele>
        <time>2024-04-16T14:13:42Z</time>
      </trkpt>
      <trkpt lat="50.12099" lon="4.09404">
        <ele>172.2</ele>
        <time>2024-04-16T14:13:43Z</time>
      </trkpt>
      <trkpt lat="50.12097" lon="4.09411">
        <ele>172.2</ele>
        <time>2024-04-16T14:13:44Z</time>
      </trkpt>
      <trkpt lat="50.12095" lon="4.09419">
        <ele>172.2</ele>
        <time>2024-04-16T14:13:45Z</time>
      </trkpt>
      <trkpt lat="50.12093" lon="4.09426">
        <ele>172.6</ele>
        <time>2024-04-16T14:13:46Z</time>
      </trkpt>
      <trkpt lat="50.12091" lon="4.09433">
        <ele>173.4</ele>
        <time>2024-04-16T14:13:47Z</time>
      </trkpt>
      <trkpt lat="50.12089" lon="4.0944">
        <ele>173.6</ele>
        <time>2024-04-16T14:13:48Z</time>
      </trkpt>
      <trkpt lat="50.12087" lon="4.09447">
        <ele>173.8</ele>
        <time>2024-04-16T14:13:49Z</time>
      </trkpt>
      <trkpt lat="50.12085" lon="4.09455">
        <ele>174</ele>
        <time>2024-04-16T14:13:50Z</time>
      </trkpt>
      <trkpt lat="50.12083" lon="4.09462">
        <ele>174</ele>
        <time>2024-04-16T14:13:51Z</time>
      </trkpt>
      <trkpt lat="50.12082" lon="4.0947">
        <ele>174.8</ele>
        <time>2024-04-16T14:13:52Z</time>
      </trkpt>
      <trkpt lat="50.1208" lon="4.09478">
        <ele>175</ele>
        <time>2024-04-16T14:13:53Z</time>
      </trkpt>
      <trkpt lat="50.12079" lon="4.09486">
        <ele>175.4</ele>
        <time>2024-04-16T14:13:54Z</time>
      </trkpt>
      <trkpt lat="50.12077" lon="4.09494">
        <ele>175.6</ele>
        <time>2024-04-16T14:13:55Z</time>
      </trkpt>
      <trkpt lat="50.12075" lon="4.09501">
        <ele>176</ele>
        <time>2024-04-16T14:13:56Z</time>
      </trkpt>
      <trkpt lat="50.12074" lon="4.09509">
        <ele>176.2</ele>
        <time>2024-04-16T14:13:57Z</time>
      </trkpt>
      <trkpt lat="50.12073" lon="4.09517">
        <ele>176.2</ele>
        <time>2024-04-16T14:13:58Z</time>
      </trkpt>
      <trkpt lat="50.12071" lon="4.09525">
        <ele>176.2</ele>
        <time>2024-04-16T14:13:59Z</time>
      </trkpt>
      <trkpt lat="50.1207" lon="4.09534">
        <ele>176.6</ele>
        <time>2024-04-16T14:14:00Z</time>
      </trkpt>
      <trkpt lat="50.12069" lon="4.09542">
        <ele>176.6</ele>
        <time>2024-04-16T14:14:01Z</time>
      </trkpt>
      <trkpt lat="50.12068" lon="4.09551">
        <ele>176.8</ele>
        <time>2024-04-16T14:14:02Z</time>
      </trkpt>
      <trkpt lat="50.12068" lon="4.0956">
        <ele>177</ele>
        <time>2024-04-16T14:14:03Z</time>
      </trkpt>
      <trkpt lat="50.12067" lon="4.09569">
        <ele>177.4</ele>
        <time>2024-04-16T14:14:04Z</time>
      </trkpt>
      <trkpt lat="50.12066" lon="4.09579">
        <ele>177.6</ele>
        <time>2024-04-16T14:14:05Z</time>
      </trkpt>
      <trkpt lat="50.12066" lon="4.09589">
        <ele>177.8</ele>
        <time>2024-04-16T14:14:06Z</time>
      </trkpt>
      <trkpt lat="50.12066" lon="4.09599">
        <ele>177.8</ele>
        <time>2024-04-16T14:14:07Z</time>
      </trkpt>
      <trkpt lat="50.12066" lon="4.0961">
        <ele>177.8</ele>
        <time>2024-04-16T14:14:08Z</time>
      </trkpt>
      <trkpt lat="50.12067" lon="4.0962">
        <ele>177.8</ele>
        <time>2024-04-16T14:14:09Z</time>
      </trkpt>
      <trkpt lat="50.12068" lon="4.09631">
        <ele>177.8</ele>
        <time>2024-04-16T14:14:10Z</time>
      </trkpt>
      <trkpt lat="50.1207" lon="4.09642">
        <ele>177.8</ele>
        <time>2024-04-16T14:14:11Z</time>
      </trkpt>
      <trkpt lat="50.12072" lon="4.09653">
        <ele>177.8</ele>
        <time>2024-04-16T14:14:12Z</time>
      </trkpt>
      <trkpt lat="50.12075" lon="4.09663">
        <ele>177.8</ele>
        <time>2024-04-16T14:14:13Z</time>
      </trkpt>
      <trkpt lat="50.12078" lon="4.09674">
        <ele>177.6</ele>
        <time>2024-04-16T14:14:14Z</time>
      </trkpt>
      <trkpt lat="50.1208" lon="4.09684">
        <ele>177.4</ele>
        <time>2024-04-16T14:14:15Z</time>
      </trkpt>
      <trkpt lat="50.12083" lon="4.09694">
        <ele>177.4</ele>
        <time>2024-04-16T14:14:16Z</time>
      </trkpt>
      <trkpt lat="50.12086" lon="4.09704">
        <ele>177.2</ele>
        <time>2024-04-16T14:14:17Z</time>
      </trkpt>
      <trkpt lat="50.12088" lon="4.09714">
        <ele>177</ele>
        <time>2024-04-16T14:14:18Z</time>
      </trkpt>
      <trkpt lat="50.1209" lon="4.09723">
        <ele>177</ele>
        <time>2024-04-16T14:14:19Z</time>
      </trkpt>
      <trkpt lat="50.12093" lon="4.09733">
        <ele>177</ele>
        <time>2024-04-16T14:14:20Z</time>
      </trkpt>
      <trkpt lat="50.12095" lon="4.09742">
        <ele>177</ele>
        <time>2024-04-16T14:14:21Z</time>
      </trkpt>
      <trkpt lat="50.12097" lon="4.09751">
        <ele>177</ele>
        <time>2024-04-16T14:14:22Z</time>
      </trkpt>
      <trkpt lat="50.121" lon="4.09761">
        <ele>177</ele>
        <time>2024-04-16T14:14:23Z</time>
      </trkpt>
      <trkpt lat="50.12101" lon="4.0977">
        <ele>177</ele>
        <time>2024-04-16T14:14:24Z</time>
      </trkpt>
      <trkpt lat="50.12103" lon="4.0978">
        <ele>177</ele>
        <time>2024-04-16T14:14:25Z</time>
      </trkpt>
      <trkpt lat="50.12104" lon="4.0979">
        <ele>177</ele>
        <time>2024-04-16T14:14:26Z</time>
      </trkpt>
      <trkpt lat="50.12105" lon="4.098">
        <ele>177</ele>
        <time>2024-04-16T14:14:27Z</time>
      </trkpt>
      <trkpt lat="50.12106" lon="4.0981">
        <ele>177</ele>
        <time>2024-04-16T14:14:28Z</time>
      </trkpt>
      <trkpt lat="50.12107" lon="4.09821">
        <ele>176.8</ele>
        <time>2024-04-16T14:14:29Z</time>
      </trkpt>
      <trkpt lat="50.12107" lon="4.09832">
        <ele>177</ele>
        <time>2024-04-16T14:14:30Z</time>
      </trkpt>
      <trkpt lat="50.12108" lon="4.09843">
        <ele>177</ele>
        <time>2024-04-16T14:14:31Z</time>
      </trkpt>
      <trkpt lat="50.12109" lon="4.09855">
        <ele>177</ele>
        <time>2024-04-16T14:14:32Z</time>
      </trkpt>
      <trkpt lat="50.1211" lon="4.09867">
        <ele>177</ele>
        <time>2024-04-16T14:14:33Z</time>
      </trkpt>
      <trkpt lat="50.12111" lon="4.09879">
        <ele>177</ele>
        <time>2024-04-16T14:14:34Z</time>
      </trkpt>
      <trkpt lat="50.12113" lon="4.09891">
        <ele>177</ele>
        <time>2024-04-16T14:14:35Z</time>
      </trkpt>
      <trkpt lat="50.12114" lon="4.09903">
        <ele>176.8</ele>
        <time>2024-04-16T14:14:36Z</time>
      </trkpt>
      <trkpt lat="50.12115" lon="4.09916">
        <ele>177</ele>
        <time>2024-04-16T14:14:37Z</time>
      </trkpt>
      <trkpt lat="50.12116" lon="4.09929">
        <ele>177</ele>
        <time>2024-04-16T14:14:38Z</time>
      </trkpt>
      <trkpt lat="50.12116" lon="4.09943">
        <ele>177</ele>
        <time>2024-04-16T14:14:39Z</time>
      </trkpt>
      <trkpt lat="50.12116" lon="4.09956">
        <ele>176.6</ele>
        <time>2024-04-16T14:14:40Z</time>
      </trkpt>
      <trkpt lat="50.12116" lon="4.0997">
        <ele>176.2</ele>
        <time>2024-04-16T14:14:41Z</time>
      </trkpt>
      <trkpt lat="50.12115" lon="4.09984">
        <ele>176.2</ele>
        <time>2024-04-16T14:14:42Z</time>
      </trkpt>
      <trkpt lat="50.12113" lon="4.09998">
        <ele>175.6</ele>
        <time>2024-04-16T14:14:43Z</time>
      </trkpt>
      <trkpt lat="50.12111" lon="4.10012">
        <ele>175.4</ele>
        <time>2024-04-16T14:14:44Z</time>
      </trkpt>
      <trkpt lat="50.12109" lon="4.10025">
        <ele>174.6</ele>
        <time>2024-04-16T14:14:45Z</time>
      </trkpt>
      <trkpt lat="50.12107" lon="4.10039">
        <ele>174</ele>
        <time>2024-04-16T14:14:46Z</time>
      </trkpt>
      <trkpt lat="50.12104" lon="4.10052">
        <ele>173.4</ele>
        <time>2024-04-16T14:14:47Z</time>
      </trkpt>
      <trkpt lat="50.12101" lon="4.10065">
        <ele>173.2</ele>
        <time>2024-04-16T14:14:48Z</time>
      </trkpt>
      <trkpt lat="50.12098" lon="4.10078">
        <ele>172.8</ele>
        <time>2024-04-16T14:14:49Z</time>
      </trkpt>
      <trkpt lat="50.12096" lon="4.1009">
        <ele>172</ele>
        <time>2024-04-16T14:14:50Z</time>
      </trkpt>
      <trkpt lat="50.12093" lon="4.10102">
        <ele>171.4</ele>
        <time>2024-04-16T14:14:51Z</time>
      </trkpt>
      <trkpt lat="50.1209" lon="4.10113">
        <ele>171</ele>
        <time>2024-04-16T14:14:52Z</time>
      </trkpt>
      <trkpt lat="50.12088" lon="4.10125">
        <ele>170.8</ele>
        <time>2024-04-16T14:14:53Z</time>
      </trkpt>
      <trkpt lat="50.12085" lon="4.10137">
        <ele>170.8</ele>
        <time>2024-04-16T14:14:54Z</time>
      </trkpt>
      <trkpt lat="50.12083" lon="4.10148">
        <ele>170.6</ele>
        <time>2024-04-16T14:14:55Z</time>
      </trkpt>
      <trkpt lat="50.12081" lon="4.10159">
        <ele>170.6</ele>
        <time>2024-04-16T14:14:56Z</time>
      </trkpt>
      <trkpt lat="50.12079" lon="4.10171">
        <ele>170.6</ele>
        <time>2024-04-16T14:14:57Z</time>
      </trkpt>
      <trkpt lat="50.12077" lon="4.10183">
        <ele>170.6</ele>
        <time>2024-04-16T14:14:58Z</time>
      </trkpt>
      <trkpt lat="50.12075" lon="4.10196">
        <ele>170.4</ele>
        <time>2024-04-16T14:14:59Z</time>
      </trkpt>
      <trkpt lat="50.12073" lon="4.10209">
        <ele>170.4</ele>
        <time>2024-04-16T14:15:00Z</time>
      </trkpt>
      <trkpt lat="50.12072" lon="4.10222">
        <ele>170.4</ele>
        <time>2024-04-16T14:15:01Z</time>
      </trkpt>
      <trkpt lat="50.12072" lon="4.10235">
        <ele>170.4</ele>
        <time>2024-04-16T14:15:02Z</time>
      </trkpt>
      <trkpt lat="50.12072" lon="4.10249">
        <ele>170.4</ele>
        <time>2024-04-16T14:15:03Z</time>
      </trkpt>
      <trkpt lat="50.12072" lon="4.10263">
        <ele>170.4</ele>
        <time>2024-04-16T14:15:04Z</time>
      </trkpt>
      <trkpt lat="50.12072" lon="4.10277">
        <ele>170.6</ele>
        <time>2024-04-16T14:15:05Z</time>
      </trkpt>
      <trkpt lat="50.12072" lon="4.10291">
        <ele>170.4</ele>
        <time>2024-04-16T14:15:06Z</time>
      </trkpt>
      <trkpt lat="50.12072" lon="4.10305">
        <ele>170.4</ele>
        <time>2024-04-16T14:15:07Z</time>
      </trkpt>
      <trkpt lat="50.12071" lon="4.1032">
        <ele>170.2</ele>
        <time>2024-04-16T14:15:08Z</time>
      </trkpt>
      <trkpt lat="50.12071" lon="4.10334">
        <ele>170</ele>
        <time>2024-04-16T14:15:09Z</time>
      </trkpt>
      <trkpt lat="50.12071" lon="4.10348">
        <ele>169.6</ele>
        <time>2024-04-16T14:15:10Z</time>
      </trkpt>
      <trkpt lat="50.1207" lon="4.10363">
        <ele>169.2</ele>
        <time>2024-04-16T14:15:11Z</time>
      </trkpt>
      <trkpt lat="50.12069" lon="4.10378">
        <ele>168.8</ele>
        <time>2024-04-16T14:15:12Z</time>
      </trkpt>
      <trkpt lat="50.12067" lon="4.10392">
        <ele>168.6</ele>
        <time>2024-04-16T14:15:13Z</time>
      </trkpt>
      <trkpt lat="50.12065" lon="4.10406">
        <ele>168.2</ele>
        <time>2024-04-16T14:15:14Z</time>
      </trkpt>
      <trkpt lat="50.12063" lon="4.1042">
        <ele>167.4</ele>
        <time>2024-04-16T14:15:15Z</time>
      </trkpt>
      <trkpt lat="50.1206" lon="4.10434">
        <ele>167.2</ele>
        <time>2024-04-16T14:15:16Z</time>
      </trkpt>
      <trkpt lat="50.12057" lon="4.10446">
        <ele>166.8</ele>
        <time>2024-04-16T14:15:17Z</time>
      </trkpt>
      <trkpt lat="50.12053" lon="4.10459">
        <ele>166.6</ele>
        <time>2024-04-16T14:15:18Z</time>
      </trkpt>
      <trkpt lat="50.1205" lon="4.10471">
        <ele>166.6</ele>
        <time>2024-04-16T14:15:19Z</time>
      </trkpt>
      <trkpt lat="50.12047" lon="4.10482">
        <ele>166.6</ele>
        <time>2024-04-16T14:15:20Z</time>
      </trkpt>
      <trkpt lat="50.12043" lon="4.10492">
        <ele>166.6</ele>
        <time>2024-04-16T14:15:21Z</time>
      </trkpt>
      <trkpt lat="50.1204" lon="4.10502">
        <ele>166.6</ele>
        <time>2024-04-16T14:15:22Z</time>
      </trkpt>
      <trkpt lat="50.12038" lon="4.10511">
        <ele>166.6</ele>
        <time>2024-04-16T14:15:23Z</time>
      </trkpt>
      <trkpt lat="50.12035" lon="4.1052">
        <ele>166.6</ele>
        <time>2024-04-16T14:15:24Z</time>
      </trkpt>
      <trkpt lat="50.12032" lon="4.10529">
        <ele>166.8</ele>
        <time>2024-04-16T14:15:25Z</time>
      </trkpt>
      <trkpt lat="50.1203" lon="4.10537">
        <ele>166.8</ele>
        <time>2024-04-16T14:15:26Z</time>
      </trkpt>
      <trkpt lat="50.12027" lon="4.10545">
        <ele>166.8</ele>
        <time>2024-04-16T14:15:27Z</time>
      </trkpt>
      <trkpt lat="50.12025" lon="4.10553">
        <ele>167</ele>
        <time>2024-04-16T14:15:28Z</time>
      </trkpt>
      <trkpt lat="50.12022" lon="4.1056">
        <ele>167.6</ele>
        <time>2024-04-16T14:15:29Z</time>
      </trkpt>
      <trkpt lat="50.1202" lon="4.10568">
        <ele>168.2</ele>
        <time>2024-04-16T14:15:30Z</time>
      </trkpt>
      <trkpt lat="50.12018" lon="4.10575">
        <ele>168.8</ele>
        <time>2024-04-16T14:15:31Z</time>
      </trkpt>
      <trkpt lat="50.12015" lon="4.10583">
        <ele>169.2</ele>
        <time>2024-04-16T14:15:32Z</time>
      </trkpt>
      <trkpt lat="50.12013" lon="4.1059">
        <ele>169.6</ele>
        <time>2024-04-16T14:15:33Z</time>
      </trkpt>
      <trkpt lat="50.12011" lon="4.10597">
        <ele>170.4</ele>
        <time>2024-04-16T14:15:34Z</time>
      </trkpt>
      <trkpt lat="50.12008" lon="4.10605">
        <ele>171.4</ele>
        <time>2024-04-16T14:15:35Z</time>
      </trkpt>
      <trkpt lat="50.12006" lon="4.10612">
        <ele>171.8</ele>
        <time>2024-04-16T14:15:36Z</time>
      </trkpt>
      <trkpt lat="50.12004" lon="4.1062">
        <ele>172.6</ele>
        <time>2024-04-16T14:15:37Z</time>
      </trkpt>
      <trkpt lat="50.12002" lon="4.10628">
        <ele>173.2</ele>
        <time>2024-04-16T14:15:38Z</time>
      </trkpt>
      <trkpt lat="50.12" lon="4.10636">
        <ele>173.8</ele>
        <time>2024-04-16T14:15:39Z</time>
      </trkpt>
      <trkpt lat="50.11997" lon="4.10644">
        <ele>174.4</ele>
        <time>2024-04-16T14:15:40Z</time>
      </trkpt>
      <trkpt lat="50.11996" lon="4.10653">
        <ele>175.2</ele>
        <time>2024-04-16T14:15:41Z</time>
      </trkpt>
      <trkpt lat="50.11994" lon="4.10661">
        <ele>175.6</ele>
        <time>2024-04-16T14:15:42Z</time>
      </trkpt>
      <trkpt lat="50.11993" lon="4.1067">
        <ele>176</ele>
        <time>2024-04-16T14:15:43Z</time>
      </trkpt>
      <trkpt lat="50.11992" lon="4.10679">
        <ele>176.2</ele>
        <time>2024-04-16T14:15:44Z</time>
      </trkpt>
      <trkpt lat="50.11991" lon="4.10689">
        <ele>176.6</ele>
        <time>2024-04-16T14:15:45Z</time>
      </trkpt>
      <trkpt lat="50.11991" lon="4.10698">
        <ele>176.8</ele>
        <time>2024-04-16T14:15:46Z</time>
      </trkpt>
      <trkpt lat="50.11992" lon="4.10708">
        <ele>176.8</ele>
        <time>2024-04-16T14:15:47Z</time>
      </trkpt>
      <trkpt lat="50.11992" lon="4.10719">
        <ele>177</ele>
        <time>2024-04-16T14:15:48Z</time>
      </trkpt>
      <trkpt lat="50.11993" lon="4.10729">
        <ele>177.2</ele>
        <time>2024-04-16T14:15:49Z</time>
      </trkpt>
      <trkpt lat="50.11995" lon="4.1074">
        <ele>177.2</ele>
        <time>2024-04-16T14:15:50Z</time>
      </trkpt>
      <trkpt lat="50.11996" lon="4.1075">
        <ele>177.2</ele>
        <time>2024-04-16T14:15:51Z</time>
      </trkpt>
      <trkpt lat="50.11998" lon="4.10761">
        <ele>177.2</ele>
        <time>2024-04-16T14:15:52Z</time>
      </trkpt>
      <trkpt lat="50.12" lon="4.10772">
        <ele>177.2</ele>
        <time>2024-04-16T14:15:53Z</time>
      </trkpt>
      <trkpt lat="50.12002" lon="4.10783">
        <ele>177.2</ele>
        <time>2024-04-16T14:15:54Z</time>
      </trkpt>
      <trkpt lat="50.12004" lon="4.10795">
        <ele>177.2</ele>
        <time>2024-04-16T14:15:55Z</time>
      </trkpt>
      <trkpt lat="50.12005" lon="4.10806">
        <ele>177.2</ele>
        <time>2024-04-16T14:15:56Z</time>
      </trkpt>
      <trkpt lat="50.12007" lon="4.10817">
        <ele>177.2</ele>
        <time>2024-04-16T14:15:57Z</time>
      </trkpt>
      <trkpt lat="50.12009" lon="4.10829">
        <ele>177.2</ele>
        <time>2024-04-16T14:15:58Z</time>
      </trkpt>
      <trkpt lat="50.12011" lon="4.1084">
        <ele>176.8</ele>
        <time>2024-04-16T14:15:59Z</time>
      </trkpt>
      <trkpt lat="50.12013" lon="4.10851">
        <ele>176.6</ele>
        <time>2024-04-16T14:16:00Z</time>
      </trkpt>
      <trkpt lat="50.12015" lon="4.10863">
        <ele>176.2</ele>
        <time>2024-04-16T14:16:01Z</time>
      </trkpt>
      <trkpt lat="50.12016" lon="4.10874">
        <ele>175.8</ele>
        <time>2024-04-16T14:16:02Z</time>
      </trkpt>
      <trkpt lat="50.12018" lon="4.10886">
        <ele>175.4</ele>
        <time>2024-04-16T14:16:03Z</time>
      </trkpt>
      <trkpt lat="50.12019" lon="4.10898">
        <ele>174.8</ele>
        <time>2024-04-16T14:16:04Z</time>
      </trkpt>
      <trkpt lat="50.1202" lon="4.1091">
        <ele>174.2</ele>
        <time>2024-04-16T14:16:05Z</time>
      </trkpt>
      <trkpt lat="50.12021" lon="4.10921">
        <ele>174</ele>
        <time>2024-04-16T14:16:06Z</time>
      </trkpt>
      <trkpt lat="50.12021" lon="4.10933">
        <ele>173.8</ele>
        <time>2024-04-16T14:16:07Z</time>
      </trkpt>
      <trkpt lat="50.12022" lon="4.10945">
        <ele>173.6</ele>
        <time>2024-04-16T14:16:08Z</time>
      </trkpt>
      <trkpt lat="50.12022" lon="4.10957">
        <ele>173.6</ele>
        <time>2024-04-16T14:16:09Z</time>
      </trkpt>
      <trkpt lat="50.12023" lon="4.10969">
        <ele>173.6</ele>
        <time>2024-04-16T14:16:10Z</time>
      </trkpt>
      <trkpt lat="50.12023" lon="4.10981">
        <ele>173.4</ele>
        <time>2024-04-16T14:16:11Z</time>
      </trkpt>
      <trkpt lat="50.12024" lon="4.10993">
        <ele>173.6</ele>
        <time>2024-04-16T14:16:12Z</time>
      </trkpt>
      <trkpt lat="50.12024" lon="4.11005">
        <ele>173.6</ele>
        <time>2024-04-16T14:16:13Z</time>
      </trkpt>
      <trkpt lat="50.12025" lon="4.11017">
        <ele>173.6</ele>
        <time>2024-04-16T14:16:14Z</time>
      </trkpt>
      <trkpt lat="50.12025" lon="4.1103">
        <ele>173.6</ele>
        <time>2024-04-16T14:16:15Z</time>
      </trkpt>
      <trkpt lat="50.12026" lon="4.11042">
        <ele>173.4</ele>
        <time>2024-04-16T14:16:16Z</time>
      </trkpt>
      <trkpt lat="50.12027" lon="4.11054">
        <ele>173.6</ele>
        <time>2024-04-16T14:16:17Z</time>
      </trkpt>
      <trkpt lat="50.12027" lon="4.11066">
        <ele>173.4</ele>
        <time>2024-04-16T14:16:18Z</time>
      </trkpt>
      <trkpt lat="50.12027" lon="4.11078">
        <ele>173.4</ele>
        <time>2024-04-16T14:16:19Z</time>
      </trkpt>
      <trkpt lat="50.12028" lon="4.11089">
        <ele>173.4</ele>
        <time>2024-04-16T14:16:20Z</time>
      </trkpt>
      <trkpt lat="50.12028" lon="4.111">
        <ele>173.6</ele>
        <time>2024-04-16T14:16:21Z</time>
      </trkpt>
      <trkpt lat="50.12028" lon="4.11111">
        <ele>173.4</ele>
        <time>2024-04-16T14:16:22Z</time>
      </trkpt>
      <trkpt lat="50.12028" lon="4.11122">
        <ele>173.6</ele>
        <time>2024-04-16T14:16:23Z</time>
      </trkpt>
      <trkpt lat="50.12029" lon="4.11132">
        <ele>173.6</ele>
        <time>2024-04-16T14:16:24Z</time>
      </trkpt>
      <trkpt lat="50.12029" lon="4.11141">
        <ele>173.6</ele>
        <time>2024-04-16T14:16:25Z</time>
      </trkpt>
      <trkpt lat="50.1203" lon="4.11151">
        <ele>173.8</ele>
        <time>2024-04-16T14:16:26Z</time>
      </trkpt>
      <trkpt lat="50.1203" lon="4.1116">
        <ele>173.8</ele>
        <time>2024-04-16T14:16:27Z</time>
      </trkpt>
      <trkpt lat="50.1203" lon="4.11168">
        <ele>173.8</ele>
        <time>2024-04-16T14:16:28Z</time>
      </trkpt>
      <trkpt lat="50.12031" lon="4.11177">
        <ele>174</ele>
        <time>2024-04-16T14:16:29Z</time>
      </trkpt>
      <trkpt lat="50.12031" lon="4.11185">
        <ele>174</ele>
        <time>2024-04-16T14:16:30Z</time>
      </trkpt>
      <trkpt lat="50.12032" lon="4.11193">
        <ele>174</ele>
        <time>2024-04-16T14:16:31Z</time>
      </trkpt>
      <trkpt lat="50.12032" lon="4.11202">
        <ele>174.2</ele>
        <time>2024-04-16T14:16:32Z</time>
      </trkpt>
      <trkpt lat="50.12033" lon="4.1121">
        <ele>174.8</ele>
        <time>2024-04-16T14:16:33Z</time>
      </trkpt>
      <trkpt lat="50.12033" lon="4.11218">
        <ele>175.2</ele>
        <time>2024-04-16T14:16:34Z</time>
      </trkpt>
      <trkpt lat="50.12034" lon="4.11226">
        <ele>175.6</ele>
        <time>2024-04-16T14:16:35Z</time>
      </trkpt>
      <trkpt lat="50.12035" lon="4.11234">
        <ele>175.6</ele>
        <time>2024-04-16T14:16:36Z</time>
      </trkpt>
      <trkpt lat="50.12036" lon="4.11242">
        <ele>176.2</ele>
        <time>2024-04-16T14:16:37Z</time>
      </trkpt>
      <trkpt lat="50.12037" lon="4.1125">
        <ele>177</ele>
        <time>2024-04-16T14:16:38Z</time>
      </trkpt>
      <trkpt lat="50.12038" lon="4.11258">
        <ele>177.6</ele>
        <time>2024-04-16T14:16:39Z</time>
      </trkpt>
      <trkpt lat="50.12039" lon="4.11266">
        <ele>178</ele>
        <time>2024-04-16T14:16:40Z</time>
      </trkpt>
      <trkpt lat="50.1204" lon="4.11274">
        <ele>178.4</ele>
        <time>2024-04-16T14:16:41Z</time>
      </trkpt>
      <trkpt lat="50.12041" lon="4.11282">
        <ele>178.8</ele>
        <time>2024-04-16T14:16:42Z</time>
      </trkpt>
      <trkpt lat="50.12043" lon="4.1129">
        <ele>179.2</ele>
        <time>2024-04-16T14:16:43Z</time>
      </trkpt>
      <trkpt lat="50.12044" lon="4.11298">
        <ele>179.6</ele>
        <time>2024-04-16T14:16:44Z</time>
      </trkpt>
      <trkpt lat="50.12046" lon="4.11306">
        <ele>179.8</ele>
        <time>2024-04-16T14:16:45Z</time>
      </trkpt>
      <trkpt lat="50.12048" lon="4.11314">
        <ele>180.2</ele>
        <time>2024-04-16T14:16:46Z</time>
      </trkpt>
      <trkpt lat="50.1205" lon="4.11322">
        <ele>180.6</ele>
        <time>2024-04-16T14:16:47Z</time>
      </trkpt>
      <trkpt lat="50.12052" lon="4.11331">
        <ele>180.8</ele>
        <time>2024-04-16T14:16:48Z</time>
      </trkpt>
      <trkpt lat="50.12054" lon="4.11339">
        <ele>181.2</ele>
        <time>2024-04-16T14:16:49Z</time>
      </trkpt>
      <trkpt lat="50.12056" lon="4.11348">
        <ele>181.4</ele>
        <time>2024-04-16T14:16:50Z</time>
      </trkpt>
      <trkpt lat="50.12058" lon="4.11356">
        <ele>181.6</ele>
        <time>2024-04-16T14:16:51Z</time>
      </trkpt>
      <trkpt lat="50.1206" lon="4.11364">
        <ele>181.6</ele>
        <time>2024-04-16T14:16:52Z</time>
      </trkpt>
      <trkpt lat="50.12063" lon="4.11373">
        <ele>181.8</ele>
        <time>2024-04-16T14:16:53Z</time>
      </trkpt>
      <trkpt lat="50.12065" lon="4.11381">
        <ele>181.8</ele>
        <time>2024-04-16T14:16:54Z</time>
      </trkpt>
      <trkpt lat="50.12068" lon="4.1139">
        <ele>182</ele>
        <time>2024-04-16T14:16:55Z</time>
      </trkpt>
      <trkpt lat="50.12071" lon="4.11398">
        <ele>182.2</ele>
        <time>2024-04-16T14:16:56Z</time>
      </trkpt>
      <trkpt lat="50.12074" lon="4.11407">
        <ele>182.2</ele>
        <time>2024-04-16T14:16:57Z</time>
      </trkpt>
      <trkpt lat="50.12077" lon="4.11416">
        <ele>182.4</ele>
        <time>2024-04-16T14:16:58Z</time>
      </trkpt>
      <trkpt lat="50.1208" lon="4.11425">
        <ele>182.4</ele>
        <time>2024-04-16T14:16:59Z</time>
      </trkpt>
      <trkpt lat="50.12084" lon="4.11435">
        <ele>182.4</ele>
        <time>2024-04-16T14:17:00Z</time>
      </trkpt>
      <trkpt lat="50.12087" lon="4.11445">
        <ele>182.4</ele>
        <time>2024-04-16T14:17:01Z</time>
      </trkpt>
      <trkpt lat="50.12091" lon="4.11456">
        <ele>182.4</ele>
        <time>2024-04-16T14:17:02Z</time>
      </trkpt>
      <trkpt lat="50.12095" lon="4.11466">
        <ele>182.4</ele>
        <time>2024-04-16T14:17:03Z</time>
      </trkpt>
      <trkpt lat="50.12099" lon="4.11477">
        <ele>182.4</ele>
        <time>2024-04-16T14:17:04Z</time>
      </trkpt>
      <trkpt lat="50.12103" lon="4.11487">
        <ele>182.4</ele>
        <time>2024-04-16T14:17:05Z</time>
      </trkpt>
      <trkpt lat="50.12106" lon="4.11498">
        <ele>182.4</ele>
        <time>2024-04-16T14:17:06Z</time>
      </trkpt>
      <trkpt lat="50.1211" lon="4.11509">
        <ele>182.4</ele>
        <time>2024-04-16T14:17:07Z</time>
      </trkpt>
      <trkpt lat="50.12114" lon="4.11521">
        <ele>182.2</ele>
        <time>2024-04-16T14:17:08Z</time>
      </trkpt>
      <trkpt lat="50.12118" lon="4.11532">
        <ele>182.4</ele>
        <time>2024-04-16T14:17:09Z</time>
      </trkpt>
      <trkpt lat="50.12122" lon="4.11544">
        <ele>181.8</ele>
        <time>2024-04-16T14:17:10Z</time>
      </trkpt>
      <trkpt lat="50.12126" lon="4.11556">
        <ele>181.4</ele>
        <time>2024-04-16T14:17:11Z</time>
      </trkpt>
      <trkpt lat="50.1213" lon="4.11568">
        <ele>181</ele>
        <time>2024-04-16T14:17:12Z</time>
      </trkpt>
      <trkpt lat="50.12133" lon="4.1158">
        <ele>180.2</ele>
        <time>2024-04-16T14:17:13Z</time>
      </trkpt>
      <trkpt lat="50.12136" lon="4.11593">
        <ele>179.8</ele>
        <time>2024-04-16T14:17:14Z</time>
      </trkpt>
      <trkpt lat="50.1214" lon="4.11606">
        <ele>179.4</ele>
        <time>2024-04-16T14:17:15Z</time>
      </trkpt>
      <trkpt lat="50.12143" lon="4.1162">
        <ele>179.4</ele>
        <time>2024-04-16T14:17:16Z</time>
      </trkpt>
      <trkpt lat="50.12146" lon="4.11633">
        <ele>179.2</ele>
        <time>2024-04-16T14:17:17Z</time>
      </trkpt>
      <trkpt lat="50.12148" lon="4.11647">
        <ele>178.4</ele>
        <time>2024-04-16T14:17:18Z</time>
      </trkpt>
      <trkpt lat="50.12151" lon="4.11661">
        <ele>177.8</ele>
        <time>2024-04-16T14:17:19Z</time>
      </trkpt>
      <trkpt lat="50.12154" lon="4.11675">
        <ele>177.6</ele>
        <time>2024-04-16T14:17:20Z</time>
      </trkpt>
      <trkpt lat="50.12157" lon="4.11689">
        <ele>177.4</ele>
        <time>2024-04-16T14:17:21Z</time>
      </trkpt>
      <trkpt lat="50.1216" lon="4.11703">
        <ele>177.2</ele>
        <time>2024-04-16T14:17:22Z</time>
      </trkpt>
      <trkpt lat="50.12163" lon="4.11716">
        <ele>176.6</ele>
        <time>2024-04-16T14:17:23Z</time>
      </trkpt>
      <trkpt lat="50.12166" lon="4.1173">
        <ele>176.4</ele>
        <time>2024-04-16T14:17:24Z</time>
      </trkpt>
      <trkpt lat="50.12168" lon="4.11743">
        <ele>175.8</ele>
        <time>2024-04-16T14:17:25Z</time>
      </trkpt>
      <trkpt lat="50.12171" lon="4.11756">
        <ele>175.6</ele>
        <time>2024-04-16T14:17:26Z</time>
      </trkpt>
      <trkpt lat="50.12174" lon="4.11769">
        <ele>175</ele>
        <time>2024-04-16T14:17:27Z</time>
      </trkpt>
      <trkpt lat="50.12176" lon="4.11781">
        <ele>174.6</ele>
        <time>2024-04-16T14:17:28Z</time>
      </trkpt>
      <trkpt lat="50.12179" lon="4.11794">
        <ele>174.4</ele>
        <time>2024-04-16T14:17:29Z</time>
      </trkpt>
      <trkpt lat="50.12181" lon="4.11806">
        <ele>174.4</ele>
        <time>2024-04-16T14:17:30Z</time>
      </trkpt>
      <trkpt lat="50.12184" lon="4.11818">
        <ele>174.2</ele>
        <time>2024-04-16T14:17:31Z</time>
      </trkpt>
      <trkpt lat="50.12186" lon="4.1183">
        <ele>174.2</ele>
        <time>2024-04-16T14:17:32Z</time>
      </trkpt>
      <trkpt lat="50.12189" lon="4.11842">
        <ele>174.4</ele>
        <time>2024-04-16T14:17:33Z</time>
      </trkpt>
      <trkpt lat="50.12191" lon="4.11854">
        <ele>174.2</ele>
        <time>2024-04-16T14:17:34Z</time>
      </trkpt>
      <trkpt lat="50.12194" lon="4.11865">
        <ele>174.2</ele>
        <time>2024-04-16T14:17:35Z</time>
      </trkpt>
      <trkpt lat="50.12196" lon="4.11877">
        <ele>174.2</ele>
        <time>2024-04-16T14:17:36Z</time>
      </trkpt>
      <trkpt lat="50.12198" lon="4.11888">
        <ele>174.2</ele>
        <time>2024-04-16T14:17:37Z</time>
      </trkpt>
      <trkpt lat="50.12201" lon="4.11899">
        <ele>174.2</ele>
        <time>2024-04-16T14:17:38Z</time>
      </trkpt>
      <trkpt lat="50.12203" lon="4.1191">
        <ele>174.4</ele>
        <time>2024-04-16T14:17:39Z</time>
      </trkpt>
      <trkpt lat="50.12205" lon="4.11921">
        <ele>174.2</ele>
        <time>2024-04-16T14:17:40Z</time>
      </trkpt>
      <trkpt lat="50.12207" lon="4.11932">
        <ele>174.4</ele>
        <time>2024-04-16T14:17:41Z</time>
      </trkpt>
      <trkpt lat="50.12209" lon="4.11942">
        <ele>174.4</ele>
        <time>2024-04-16T14:17:42Z</time>
      </trkpt>
      <trkpt lat="50.12211" lon="4.11953">
        <ele>174.6</ele>
        <time>2024-04-16T14:17:43Z</time>
      </trkpt>
      <trkpt lat="50.12213" lon="4.11962">
        <ele>174.6</ele>
        <time>2024-04-16T14:17:44Z</time>
      </trkpt>
      <trkpt lat="50.12215" lon="4.11972">
        <ele>174.8</ele>
        <time>2024-04-16T14:17:45Z</time>
      </trkpt>
      <trkpt lat="50.12217" lon="4.11982">
        <ele>174.8</ele>
        <time>2024-04-16T14:17:46Z</time>
      </trkpt>
      <trkpt lat="50.12219" lon="4.11991">
        <ele>174.8</ele>
        <time>2024-04-16T14:17:47Z</time>
      </trkpt>
      <trkpt lat="50.12221" lon="4.12">
        <ele>174.8</ele>
        <time>2024-04-16T14:17:48Z</time>
      </trkpt>
      <trkpt lat="50.12222" lon="4.12009">
        <ele>175</ele>
        <time>2024-04-16T14:17:49Z</time>
      </trkpt>
      <trkpt lat="50.12224" lon="4.12018">
        <ele>175</ele>
        <time>2024-04-16T14:17:50Z</time>
      </trkpt>
      <trkpt lat="50.12225" lon="4.12026">
        <ele>175</ele>
        <time>2024-04-16T14:17:51Z</time>
      </trkpt>
      <trkpt lat="50.12226" lon="4.12035">
        <ele>175.2</ele>
        <time>2024-04-16T14:17:52Z</time>
      </trkpt>
      <trkpt lat="50.12228" lon="4.12044">
        <ele>175.4</ele>
        <time>2024-04-16T14:17:53Z</time>
      </trkpt>
      <trkpt lat="50.12229" lon="4.12052">
        <ele>175.8</ele>
        <time>2024-04-16T14:17:54Z</time>
      </trkpt>
      <trkpt lat="50.1223" lon="4.12061">
        <ele>176.4</ele>
        <time>2024-04-16T14:17:55Z</time>
      </trkpt>
      <trkpt lat="50.12231" lon="4.12069">
        <ele>177</ele>
        <time>2024-04-16T14:17:56Z</time>
      </trkpt>
      <trkpt lat="50.12231" lon="4.12077">
        <ele>177.6</ele>
        <time>2024-04-16T14:17:57Z</time>
      </trkpt>
      <trkpt lat="50.12232" lon="4.12086">
        <ele>178.2</ele>
        <time>2024-04-16T14:17:58Z</time>
      </trkpt>
      <trkpt lat="50.12233" lon="4.12095">
        <ele>178.4</ele>
        <time>2024-04-16T14:17:59Z</time>
      </trkpt>
      <trkpt lat="50.12234" lon="4.12103">
        <ele>178.4</ele>
        <time>2024-04-16T14:18:00Z</time>
      </trkpt>
      <trkpt lat="50.12234" lon="4.12112">
        <ele>178.6</ele>
        <time>2024-04-16T14:18:01Z</time>
      </trkpt>
      <trkpt lat="50.12235" lon="4.12121">
        <ele>179.2</ele>
        <time>2024-04-16T14:18:02Z</time>
      </trkpt>
      <trkpt lat="50.12236" lon="4.1213">
        <ele>179.4</ele>
        <time>2024-04-16T14:18:03Z</time>
      </trkpt>
      <trkpt lat="50.12237" lon="4.12139">
        <ele>179.6</ele>
        <time>2024-04-16T14:18:04Z</time>
      </trkpt>
      <trkpt lat="50.12238" lon="4.12147">
        <ele>180</ele>
        <time>2024-04-16T14:18:05Z</time>
      </trkpt>
      <trkpt lat="50.12239" lon="4.12156">
        <ele>180.2</ele>
        <time>2024-04-16T14:18:06Z</time>
      </trkpt>
      <trkpt lat="50.1224" lon="4.12166">
        <ele>180.4</ele>
        <time>2024-04-16T14:18:07Z</time>
      </trkpt>
      <trkpt lat="50.1224" lon="4.12175">
        <ele>180.6</ele>
        <time>2024-04-16T14:18:08Z</time>
      </trkpt>
      <trkpt lat="50.12241" lon="4.12185">
        <ele>180.8</ele>
        <time>2024-04-16T14:18:09Z</time>
      </trkpt>
      <trkpt lat="50.12243" lon="4.12195">
        <ele>181</ele>
        <time>2024-04-16T14:18:10Z</time>
      </trkpt>
      <trkpt lat="50.12244" lon="4.12204">
        <ele>181</ele>
        <time>2024-04-16T14:18:11Z</time>
      </trkpt>
      <trkpt lat="50.12245" lon="4.12214">
        <ele>181.2</ele>
        <time>2024-04-16T14:18:12Z</time>
      </trkpt>
      <trkpt lat="50.12247" lon="4.12224">
        <ele>181.4</ele>
        <time>2024-04-16T14:18:13Z</time>
      </trkpt>
      <trkpt lat="50.12248" lon="4.12234">
        <ele>181.6</ele>
        <time>2024-04-16T14:18:14Z</time>
      </trkpt>
      <trkpt lat="50.1225" lon="4.12244">
        <ele>181.6</ele>
        <time>2024-04-16T14:18:15Z</time>
      </trkpt>
      <trkpt lat="50.12252" lon="4.12254">
        <ele>181.8</ele>
        <time>2024-04-16T14:18:16Z</time>
      </trkpt>
      <trkpt lat="50.12254" lon="4.12264">
        <ele>181.8</ele>
        <time>2024-04-16T14:18:17Z</time>
      </trkpt>
      <trkpt lat="50.12256" lon="4.12274">
        <ele>182.2</ele>
        <time>2024-04-16T14:18:18Z</time>
      </trkpt>
      <trkpt lat="50.12258" lon="4.12284">
        <ele>182.4</ele>
        <time>2024-04-16T14:18:19Z</time>
      </trkpt>
      <trkpt lat="50.1226" lon="4.12294">
        <ele>182.4</ele>
        <time>2024-04-16T14:18:20Z</time>
      </trkpt>
      <trkpt lat="50.12263" lon="4.12303">
        <ele>182.6</ele>
        <time>2024-04-16T14:18:21Z</time>
      </trkpt>
      <trkpt lat="50.12265" lon="4.12313">
        <ele>182.6</ele>
        <time>2024-04-16T14:18:22Z</time>
      </trkpt>
      <trkpt lat="50.12268" lon="4.12323">
        <ele>182.8</ele>
        <time>2024-04-16T14:18:23Z</time>
      </trkpt>
      <trkpt lat="50.12271" lon="4.12332">
        <ele>182.8</ele>
        <time>2024-04-16T14:18:24Z</time>
      </trkpt>
      <trkpt lat="50.12273" lon="4.12341">
        <ele>182.8</ele>
        <time>2024-04-16T14:18:25Z</time>
      </trkpt>
      <trkpt lat="50.12276" lon="4.12351">
        <ele>182.8</ele>
        <time>2024-04-16T14:18:26Z</time>
      </trkpt>
      <trkpt lat="50.12279" lon="4.1236">
        <ele>182.8</ele>
        <time>2024-04-16T14:18:27Z</time>
      </trkpt>
      <trkpt lat="50.12282" lon="4.12369">
        <ele>182.8</ele>
        <time>2024-04-16T14:18:28Z</time>
      </trkpt>
      <trkpt lat="50.12285" lon="4.12379">
        <ele>182.8</ele>
        <time>2024-04-16T14:18:29Z</time>
      </trkpt>
      <trkpt lat="50.12288" lon="4.12388">
        <ele>182.8</ele>
        <time>2024-04-16T14:18:30Z</time>
      </trkpt>
      <trkpt lat="50.12291" lon="4.12397">
        <ele>182.8</ele>
        <time>2024-04-16T14:18:31Z</time>
      </trkpt>
      <trkpt lat="50.12294" lon="4.12406">
        <ele>183</ele>
        <time>2024-04-16T14:18:32Z</time>
      </trkpt>
      <trkpt lat="50.12297" lon="4.12414">
        <ele>182.8</ele>
        <time>2024-04-16T14:18:33Z</time>
      </trkpt>
      <trkpt lat="50.12299" lon="4.12423">
        <ele>183</ele>
        <time>2024-04-16T14:18:34Z</time>
      </trkpt>
      <trkpt lat="50.12302" lon="4.12431">
        <ele>182.8</ele>
        <time>2024-04-16T14:18:35Z</time>
      </trkpt>
      <trkpt lat="50.12305" lon="4.12439">
        <ele>183</ele>
        <time>2024-04-16T14:18:36Z</time>
      </trkpt>
      <trkpt lat="50.12308" lon="4.12447">
        <ele>183</ele>
        <time>2024-04-16T14:18:37Z</time>
      </trkpt>
      <trkpt lat="50.12311" lon="4.12455">
        <ele>182.8</ele>
        <time>2024-04-16T14:18:38Z</time>
      </trkpt>
      <trkpt lat="50.12313" lon="4.12463">
        <ele>183.2</ele>
        <time>2024-04-16T14:18:39Z</time>
      </trkpt>
      <trkpt lat="50.12316" lon="4.1247">
        <ele>183.2</ele>
        <time>2024-04-16T14:18:40Z</time>
      </trkpt>
      <trkpt lat="50.1232" lon="4.12477">
        <ele>183.4</ele>
        <time>2024-04-16T14:18:41Z</time>
      </trkpt>
      <trkpt lat="50.12323" lon="4.12483">
        <ele>183.4</ele>
        <time>2024-04-16T14:18:42Z</time>
      </trkpt>
      <trkpt lat="50.12326" lon="4.12489">
        <ele>183.4</ele>
        <time>2024-04-16T14:18:43Z</time>
      </trkpt>
      <trkpt lat="50.1233" lon="4.12495">
        <ele>183.8</ele>
        <time>2024-04-16T14:18:44Z</time>
      </trkpt>
      <trkpt lat="50.12333" lon="4.125">
        <ele>183.8</ele>
        <time>2024-04-16T14:18:45Z</time>
      </trkpt>
      <trkpt lat="50.12337" lon="4.12505">
        <ele>184</ele>
        <time>2024-04-16T14:18:46Z</time>
      </trkpt>
      <trkpt lat="50.1234" lon="4.12509">
        <ele>184.4</ele>
        <time>2024-04-16T14:18:47Z</time>
      </trkpt>
      <trkpt lat="50.12344" lon="4.12514">
        <ele>184.2</ele>
        <time>2024-04-16T14:18:48Z</time>
      </trkpt>
      <trkpt lat="50.12347" lon="4.12519">
        <ele>184.2</ele>
        <time>2024-04-16T14:18:49Z</time>
      </trkpt>
      <trkpt lat="50.1235" lon="4.12523">
        <ele>184.4</ele>
        <time>2024-04-16T14:18:50Z</time>
      </trkpt>
      <trkpt lat="50.12354" lon="4.12528">
        <ele>184.4</ele>
        <time>2024-04-16T14:18:51Z</time>
      </trkpt>
      <trkpt lat="50.12357" lon="4.12533">
        <ele>184.4</ele>
        <time>2024-04-16T14:18:52Z</time>
      </trkpt>
      <trkpt lat="50.1236" lon="4.12538">
        <ele>184.6</ele>
        <time>2024-04-16T14:18:53Z</time>
      </trkpt>
      <trkpt lat="50.12364" lon="4.12542">
        <ele>184.8</ele>
        <time>2024-04-16T14:18:54Z</time>
      </trkpt>
      <trkpt lat="50.12367" lon="4.12547">
        <ele>184.8</ele>
        <time>2024-04-16T14:18:55Z</time>
      </trkpt>
      <trkpt lat="50.1237" lon="4.12552">
        <ele>185.4</ele>
        <time>2024-04-16T14:18:56Z</time>
      </trkpt>
      <trkpt lat="50.12374" lon="4.12556">
        <ele>185.8</ele>
        <time>2024-04-16T14:18:57Z</time>
      </trkpt>
      <trkpt lat="50.12377" lon="4.12561">
        <ele>186.4</ele>
        <time>2024-04-16T14:18:58Z</time>
      </trkpt>
      <trkpt lat="50.12381" lon="4.12566">
        <ele>186.6</ele>
        <time>2024-04-16T14:18:59Z</time>
      </trkpt>
      <trkpt lat="50.12384" lon="4.12571">
        <ele>187</ele>
        <time>2024-04-16T14:19:00Z</time>
      </trkpt>
      <trkpt lat="50.12388" lon="4.12575">
        <ele>187.2</ele>
        <time>2024-04-16T14:19:01Z</time>
      </trkpt>
      <trkpt lat="50.12391" lon="4.12581">
        <ele>187.8</ele>
        <time>2024-04-16T14:19:02Z</time>
      </trkpt>
      <trkpt lat="50.12395" lon="4.12586">
        <ele>188.2</ele>
        <time>2024-04-16T14:19:03Z</time>
      </trkpt>
      <trkpt lat="50.12399" lon="4.12591">
        <ele>188.8</ele>
        <time>2024-04-16T14:19:04Z</time>
      </trkpt>
      <trkpt lat="50.12403" lon="4.12597">
        <ele>189.2</ele>
        <time>2024-04-16T14:19:05Z</time>
      </trkpt>
      <trkpt lat="50.12407" lon="4.12603">
        <ele>189.4</ele>
        <time>2024-04-16T14:19:06Z</time>
      </trkpt>
      <trkpt lat="50.12411" lon="4.12609">
        <ele>189.4</ele>
        <time>2024-04-16T14:19:07Z</time>
      </trkpt>
      <trkpt lat="50.12416" lon="4.12615">
        <ele>189.4</ele>
        <time>2024-04-16T14:19:08Z</time>
      </trkpt>
      <trkpt lat="50.12421" lon="4.12622">
        <ele>189.4</ele>
        <time>2024-04-16T14:19:09Z</time>
      </trkpt>
      <trkpt lat="50.12425" lon="4.12629">
        <ele>189.6</ele>
        <time>2024-04-16T14:19:10Z</time>
      </trkpt>
      <trkpt lat="50.1243" lon="4.12636">
        <ele>189.6</ele>
        <time>2024-04-16T14:19:11Z</time>
      </trkpt>
      <trkpt lat="50.12434" lon="4.12644">
        <ele>189.6</ele>
        <time>2024-04-16T14:19:12Z</time>
      </trkpt>
      <trkpt lat="50.12439" lon="4.12652">
        <ele>189.6</ele>
        <time>2024-04-16T14:19:13Z</time>
      </trkpt>
      <trkpt lat="50.12444" lon="4.1266">
        <ele>189.6</ele>
        <time>2024-04-16T14:19:14Z</time>
      </trkpt>
      <trkpt lat="50.12448" lon="4.12669">
        <ele>189.6</ele>
        <time>2024-04-16T14:19:15Z</time>
      </trkpt>
      <trkpt lat="50.12452" lon="4.12678">
        <ele>189.4</ele>
        <time>2024-04-16T14:19:16Z</time>
      </trkpt>
      <trkpt lat="50.12456" lon="4.12688">
        <ele>189.4</ele>
        <time>2024-04-16T14:19:17Z</time>
      </trkpt>
      <trkpt lat="50.1246" lon="4.12697">
        <ele>189</ele>
        <time>2024-04-16T14:19:18Z</time>
      </trkpt>
      <trkpt lat="50.12463" lon="4.12707">
        <ele>189</ele>
        <time>2024-04-16T14:19:19Z</time>
      </trkpt>
      <trkpt lat="50.12466" lon="4.12717">
        <ele>189.2</ele>
        <time>2024-04-16T14:19:20Z</time>
      </trkpt>
      <trkpt lat="50.12468" lon="4.12726">
        <ele>188.8</ele>
        <time>2024-04-16T14:19:21Z</time>
      </trkpt>
      <trkpt lat="50.1247" lon="4.12736">
        <ele>188.6</ele>
        <time>2024-04-16T14:19:22Z</time>
      </trkpt>
      <trkpt lat="50.12473" lon="4.12745">
        <ele>188.2</ele>
        <time>2024-04-16T14:19:23Z</time>
      </trkpt>
      <trkpt lat="50.12474" lon="4.12754">
        <ele>188</ele>
        <time>2024-04-16T14:19:24Z</time>
      </trkpt>
      <trkpt lat="50.12476" lon="4.12764">
        <ele>188</ele>
        <time>2024-04-16T14:19:25Z</time>
      </trkpt>
      <trkpt lat="50.12477" lon="4.12773">
        <ele>187.8</ele>
        <time>2024-04-16T14:19:26Z</time>
      </trkpt>
      <trkpt lat="50.12479" lon="4.12782">
        <ele>187.8</ele>
        <time>2024-04-16T14:19:27Z</time>
      </trkpt>
      <trkpt lat="50.12479" lon="4.12792">
        <ele>187.8</ele>
        <time>2024-04-16T14:19:28Z</time>
      </trkpt>
      <trkpt lat="50.1248" lon="4.128">
        <ele>187.8</ele>
        <time>2024-04-16T14:19:29Z</time>
      </trkpt>
      <trkpt lat="50.12481" lon="4.12809">
        <ele>187.8</ele>
        <time>2024-04-16T14:19:30Z</time>
      </trkpt>
      <trkpt lat="50.12481" lon="4.12818">
        <ele>187.8</ele>
        <time>2024-04-16T14:19:31Z</time>
      </trkpt>
      <trkpt lat="50.12481" lon="4.12826">
        <ele>187.8</ele>
        <time>2024-04-16T14:19:32Z</time>
      </trkpt>
      <trkpt lat="50.12481" lon="4.12834">
        <ele>187.8</ele>
        <time>2024-04-16T14:19:33Z</time>
      </trkpt>
      <trkpt lat="50.12481" lon="4.12842">
        <ele>188</ele>
        <time>2024-04-16T14:19:34Z</time>
      </trkpt>
      <trkpt lat="50.12481" lon="4.12849">
        <ele>188.2</ele>
        <time>2024-04-16T14:19:35Z</time>
      </trkpt>
      <trkpt lat="50.1248" lon="4.12857">
        <ele>188.8</ele>
        <time>2024-04-16T14:19:36Z</time>
      </trkpt>
      <trkpt lat="50.12479" lon="4.12865">
        <ele>189</ele>
        <time>2024-04-16T14:19:37Z</time>
      </trkpt>
      <trkpt lat="50.12479" lon="4.12872">
        <ele>189.2</ele>
        <time>2024-04-16T14:19:38Z</time>
      </trkpt>
      <trkpt lat="50.12478" lon="4.1288">
        <ele>189.8</ele>
        <time>2024-04-16T14:19:39Z</time>
      </trkpt>
      <trkpt lat="50.12477" lon="4.12887">
        <ele>190</ele>
        <time>2024-04-16T14:19:40Z</time>
      </trkpt>
      <trkpt lat="50.12477" lon="4.12894">
        <ele>190.4</ele>
        <time>2024-04-16T14:19:41Z</time>
      </trkpt>
      <trkpt lat="50.12476" lon="4.129">
        <ele>190.6</ele>
        <time>2024-04-16T14:19:42Z</time>
      </trkpt>
      <trkpt lat="50.12475" lon="4.12907">
        <ele>191.2</ele>
        <time>2024-04-16T14:19:43Z</time>
      </trkpt>
      <trkpt lat="50.12474" lon="4.12913">
        <ele>191.8</ele>
        <time>2024-04-16T14:19:44Z</time>
      </trkpt>
      <trkpt lat="50.12473" lon="4.12919">
        <ele>192.4</ele>
        <time>2024-04-16T14:19:45Z</time>
      </trkpt>
      <trkpt lat="50.12472" lon="4.12925">
        <ele>192.8</ele>
        <time>2024-04-16T14:19:46Z</time>
      </trkpt>
      <trkpt lat="50.12471" lon="4.12931">
        <ele>193.4</ele>
        <time>2024-04-16T14:19:47Z</time>
      </trkpt>
      <trkpt lat="50.1247" lon="4.12937">
        <ele>193.8</ele>
        <time>2024-04-16T14:19:48Z</time>
      </trkpt>
      <trkpt lat="50.12469" lon="4.12943">
        <ele>194.4</ele>
        <time>2024-04-16T14:19:49Z</time>
      </trkpt>
      <trkpt lat="50.12468" lon="4.1295">
        <ele>194.8</ele>
        <time>2024-04-16T14:19:50Z</time>
      </trkpt>
      <trkpt lat="50.12467" lon="4.12956">
        <ele>194.8</ele>
        <time>2024-04-16T14:19:51Z</time>
      </trkpt>
      <trkpt lat="50.12466" lon="4.12962">
        <ele>195.2</ele>
        <time>2024-04-16T14:19:52Z</time>
      </trkpt>
      <trkpt lat="50.12465" lon="4.12968">
        <ele>195.6</ele>
        <time>2024-04-16T14:19:53Z</time>
      </trkpt>
      <trkpt lat="50.12464" lon="4.12974">
        <ele>196.2</ele>
        <time>2024-04-16T14:19:54Z</time>
      </trkpt>
      <trkpt lat="50.12463" lon="4.1298">
        <ele>196.4</ele>
        <time>2024-04-16T14:19:55Z</time>
      </trkpt>
      <trkpt lat="50.12463" lon="4.12986">
        <ele>197</ele>
        <time>2024-04-16T14:19:56Z</time>
      </trkpt>
      <trkpt lat="50.12461" lon="4.12992">
        <ele>197.4</ele>
        <time>2024-04-16T14:19:57Z</time>
      </trkpt>
      <trkpt lat="50.1246" lon="4.12998">
        <ele>197.8</ele>
        <time>2024-04-16T14:19:58Z</time>
      </trkpt>
      <trkpt lat="50.12459" lon="4.13005">
        <ele>198.6</ele>
        <time>2024-04-16T14:19:59Z</time>
      </trkpt>
      <trkpt lat="50.12459" lon="4.13011">
        <ele>199</ele>
        <time>2024-04-16T14:20:00Z</time>
      </trkpt>
      <trkpt lat="50.12457" lon="4.13017">
        <ele>199.4</ele>
        <time>2024-04-16T14:20:01Z</time>
      </trkpt>
      <trkpt lat="50.12457" lon="4.13023">
        <ele>199.8</ele>
        <time>2024-04-16T14:20:02Z</time>
      </trkpt>
      <trkpt lat="50.12456" lon="4.13029">
        <ele>200.4</ele>
        <time>2024-04-16T14:20:03Z</time>
      </trkpt>
      <trkpt lat="50.12455" lon="4.13036">
        <ele>200.6</ele>
        <time>2024-04-16T14:20:04Z</time>
      </trkpt>
      <trkpt lat="50.12454" lon="4.13042">
        <ele>200.8</ele>
        <time>2024-04-16T14:20:05Z</time>
      </trkpt>
      <trkpt lat="50.12453" lon="4.13048">
        <ele>201.4</ele>
        <time>2024-04-16T14:20:06Z</time>
      </trkpt>
      <trkpt lat="50.12452" lon="4.13055">
        <ele>201.6</ele>
        <time>2024-04-16T14:20:07Z</time>
      </trkpt>
      <trkpt lat="50.12451" lon="4.13061">
        <ele>202.2</ele>
        <time>2024-04-16T14:20:08Z</time>
      </trkpt>
      <trkpt lat="50.12449" lon="4.13067">
        <ele>202.4</ele>
        <time>2024-04-16T14:20:09Z</time>
      </trkpt>
      <trkpt lat="50.12448" lon="4.13074">
        <ele>203</ele>
        <time>2024-04-16T14:20:10Z</time>
      </trkpt>
      <trkpt lat="50.12447" lon="4.1308">
        <ele>203.6</ele>
        <time>2024-04-16T14:20:11Z</time>
      </trkpt>
      <trkpt lat="50.12445" lon="4.13087">
        <ele>203.6</ele>
        <time>2024-04-16T14:20:12Z</time>
      </trkpt>
      <trkpt lat="50.12444" lon="4.13093">
        <ele>204</ele>
        <time>2024-04-16T14:20:13Z</time>
      </trkpt>
      <trkpt lat="50.12442" lon="4.13099">
        <ele>204</ele>
        <time>2024-04-16T14:20:14Z</time>
      </trkpt>
      <trkpt lat="50.12441" lon="4.13106">
        <ele>204.2</ele>
        <time>2024-04-16T14:20:15Z</time>
      </trkpt>
      <trkpt lat="50.12439" lon="4.13112">
        <ele>204.2</ele>
        <time>2024-04-16T14:20:16Z</time>
      </trkpt>
      <trkpt lat="50.12437" lon="4.13119">
        <ele>204.4</ele>
        <time>2024-04-16T14:20:17Z</time>
      </trkpt>
      <trkpt lat="50.12435" lon="4.13125">
        <ele>204.4</ele>
        <time>2024-04-16T14:20:18Z</time>
      </trkpt>
      <trkpt lat="50.12433" lon="4.13132">
        <ele>204.6</ele>
        <time>2024-04-16T14:20:19Z</time>
      </trkpt>
      <trkpt lat="50.1243" lon="4.13139">
        <ele>205</ele>
        <time>2024-04-16T14:20:20Z</time>
      </trkpt>
      <trkpt lat="50.12428" lon="4.13146">
        <ele>205</ele>
        <time>2024-04-16T14:20:21Z</time>
      </trkpt>
      <trkpt lat="50.12426" lon="4.13154">
        <ele>205.4</ele>
        <time>2024-04-16T14:20:22Z</time>
      </trkpt>
      <trkpt lat="50.12423" lon="4.13161">
        <ele>205.8</ele>
        <time>2024-04-16T14:20:23Z</time>
      </trkpt>
      <trkpt lat="50.12421" lon="4.13168">
        <ele>206</ele>
        <time>2024-04-16T14:20:24Z</time>
      </trkpt>
      <trkpt lat="50.12419" lon="4.13176">
        <ele>206.2</ele>
        <time>2024-04-16T14:20:25Z</time>
      </trkpt>
      <trkpt lat="50.12416" lon="4.13184">
        <ele>206.4</ele>
        <time>2024-04-16T14:20:26Z</time>
      </trkpt>
      <trkpt lat="50.12414" lon="4.13191">
        <ele>206.8</ele>
        <time>2024-04-16T14:20:27Z</time>
      </trkpt>
      <trkpt lat="50.12411" lon="4.13199">
        <ele>207</ele>
        <time>2024-04-16T14:20:28Z</time>
      </trkpt>
      <trkpt lat="50.12408" lon="4.13208">
        <ele>207.2</ele>
        <time>2024-04-16T14:20:29Z</time>
      </trkpt>
      <trkpt lat="50.12406" lon="4.13216">
        <ele>207.4</ele>
        <time>2024-04-16T14:20:30Z</time>
      </trkpt>
      <trkpt lat="50.12403" lon="4.13225">
        <ele>207.4</ele>
        <time>2024-04-16T14:20:31Z</time>
      </trkpt>
      <trkpt lat="50.12401" lon="4.13234">
        <ele>207.6</ele>
        <time>2024-04-16T14:20:32Z</time>
      </trkpt>
      <trkpt lat="50.12399" lon="4.13243">
        <ele>207.8</ele>
        <time>2024-04-16T14:20:33Z</time>
      </trkpt>
      <trkpt lat="50.12396" lon="4.13253">
        <ele>207.8</ele>
        <time>2024-04-16T14:20:34Z</time>
      </trkpt>
      <trkpt lat="50.12393" lon="4.13263">
        <ele>207.8</ele>
        <time>2024-04-16T14:20:35Z</time>
      </trkpt>
      <trkpt lat="50.1239" lon="4.13273">
        <ele>207.8</ele>
        <time>2024-04-16T14:20:36Z</time>
      </trkpt>
      <trkpt lat="50.12387" lon="4.13283">
        <ele>207.8</ele>
        <time>2024-04-16T14:20:37Z</time>
      </trkpt>
      <trkpt lat="50.12384" lon="4.13293">
        <ele>208</ele>
        <time>2024-04-16T14:20:38Z</time>
      </trkpt>
      <trkpt lat="50.12381" lon="4.13304">
        <ele>207.8</ele>
        <time>2024-04-16T14:20:39Z</time>
      </trkpt>
      <trkpt lat="50.12377" lon="4.13314">
        <ele>207.6</ele>
        <time>2024-04-16T14:20:40Z</time>
      </trkpt>
      <trkpt lat="50.12374" lon="4.13325">
        <ele>207.6</ele>
        <time>2024-04-16T14:20:41Z</time>
      </trkpt>
      <trkpt lat="50.12371" lon="4.13336">
        <ele>207.4</ele>
        <time>2024-04-16T14:20:42Z</time>
      </trkpt>
      <trkpt lat="50.12368" lon="4.13347">
        <ele>207.4</ele>
        <time>2024-04-16T14:20:43Z</time>
      </trkpt>
      <trkpt lat="50.12364" lon="4.13358">
        <ele>207.4</ele>
        <time>2024-04-16T14:20:44Z</time>
      </trkpt>
      <trkpt lat="50.1236" lon="4.1337">
        <ele>207.4</ele>
        <time>2024-04-16T14:20:45Z</time>
      </trkpt>
      <trkpt lat="50.12356" lon="4.13382">
        <ele>207.2</ele>
        <time>2024-04-16T14:20:46Z</time>
      </trkpt>
      <trkpt lat="50.12352" lon="4.13394">
        <ele>206.8</ele>
        <time>2024-04-16T14:20:47Z</time>
      </trkpt>
      <trkpt lat="50.12348" lon="4.13407">
        <ele>206.4</ele>
        <time>2024-04-16T14:20:48Z</time>
      </trkpt>
      <trkpt lat="50.12344" lon="4.1342">
        <ele>206.4</ele>
        <time>2024-04-16T14:20:49Z</time>
      </trkpt>
      <trkpt lat="50.12339" lon="4.13434">
        <ele>205.8</ele>
        <time>2024-04-16T14:20:50Z</time>
      </trkpt>
      <trkpt lat="50.12334" lon="4.13448">
        <ele>205.6</ele>
        <time>2024-04-16T14:20:51Z</time>
      </trkpt>
      <trkpt lat="50.12328" lon="4.13462">
        <ele>205</ele>
        <time>2024-04-16T14:20:52Z</time>
      </trkpt>
      <trkpt lat="50.12322" lon="4.13477">
        <ele>204.8</ele>
        <time>2024-04-16T14:20:53Z</time>
      </trkpt>
      <trkpt lat="50.12315" lon="4.13493">
        <ele>204.6</ele>
        <time>2024-04-16T14:20:54Z</time>
      </trkpt>
      <trkpt lat="50.12309" lon="4.13508">
        <ele>204.2</ele>
        <time>2024-04-16T14:20:55Z</time>
      </trkpt>
      <trkpt lat="50.12301" lon="4.13524">
        <ele>204.2</ele>
        <time>2024-04-16T14:20:56Z</time>
      </trkpt>
      <trkpt lat="50.12294" lon="4.1354">
        <ele>204.2</ele>
        <time>2024-04-16T14:20:57Z</time>
      </trkpt>
      <trkpt lat="50.12287" lon="4.13556">
        <ele>203</ele>
        <time>2024-04-16T14:20:58Z</time>
      </trkpt>
      <trkpt lat="50.1228" lon="4.13571">
        <ele>202</ele>
        <time>2024-04-16T14:20:59Z</time>
      </trkpt>
      <trkpt lat="50.12272" lon="4.13587">
        <ele>200.6</ele>
        <time>2024-04-16T14:21:00Z</time>
      </trkpt>
      <trkpt lat="50.12265" lon="4.13602">
        <ele>199.2</ele>
        <time>2024-04-16T14:21:01Z</time>
      </trkpt>
      <trkpt lat="50.12258" lon="4.13617">
        <ele>197.6</ele>
        <time>2024-04-16T14:21:02Z</time>
      </trkpt>
      <trkpt lat="50.12252" lon="4.13631">
        <ele>196</ele>
        <time>2024-04-16T14:21:03Z</time>
      </trkpt>
      <trkpt lat="50.12245" lon="4.13645">
        <ele>194.6</ele>
        <time>2024-04-16T14:21:04Z</time>
      </trkpt>
      <trkpt lat="50.12239" lon="4.13658">
        <ele>193.4</ele>
        <time>2024-04-16T14:21:05Z</time>
      </trkpt>
      <trkpt lat="50.12233" lon="4.13671">
        <ele>192.2</ele>
        <time>2024-04-16T14:21:06Z</time>
      </trkpt>
      <trkpt lat="50.12227" lon="4.13683">
        <ele>191.6</ele>
        <time>2024-04-16T14:21:07Z</time>
      </trkpt>
      <trkpt lat="50.12222" lon="4.13695">
        <ele>191.2</ele>
        <time>2024-04-16T14:21:08Z</time>
      </trkpt>
      <trkpt lat="50.12216" lon="4.13705">
        <ele>191.2</ele>
        <time>2024-04-16T14:21:09Z</time>
      </trkpt>
      <trkpt lat="50.12211" lon="4.13716">
        <ele>191</ele>
        <time>2024-04-16T14:21:10Z</time>
      </trkpt>
      <trkpt lat="50.12207" lon="4.13725">
        <ele>191</ele>
        <time>2024-04-16T14:21:11Z</time>
      </trkpt>
      <trkpt lat="50.12202" lon="4.13734">
        <ele>191.2</ele>
        <time>2024-04-16T14:21:12Z</time>
      </trkpt>
      <trkpt lat="50.12198" lon="4.13743">
        <ele>191</ele>
        <time>2024-04-16T14:21:13Z</time>
      </trkpt>
      <trkpt lat="50.12194" lon="4.13751">
        <ele>191</ele>
        <time>2024-04-16T14:21:14Z</time>
      </trkpt>
      <trkpt lat="50.12191" lon="4.13759">
        <ele>191</ele>
        <time>2024-04-16T14:21:15Z</time>
      </trkpt>
      <trkpt lat="50.12187" lon="4.13766">
        <ele>191.4</ele>
        <time>2024-04-16T14:21:16Z</time>
      </trkpt>
      <trkpt lat="50.12184" lon="4.13773">
        <ele>192</ele>
        <time>2024-04-16T14:21:17Z</time>
      </trkpt>
      <trkpt lat="50.12181" lon="4.13779">
        <ele>192.8</ele>
        <time>2024-04-16T14:21:18Z</time>
      </trkpt>
      <trkpt lat="50.12178" lon="4.13786">
        <ele>192.8</ele>
        <time>2024-04-16T14:21:19Z</time>
      </trkpt>
      <trkpt lat="50.12175" lon="4.13792">
        <ele>193.4</ele>
        <time>2024-04-16T14:21:20Z</time>
      </trkpt>
      <trkpt lat="50.12173" lon="4.13798">
        <ele>194.2</ele>
        <time>2024-04-16T14:21:21Z</time>
      </trkpt>
      <trkpt lat="50.1217" lon="4.13804">
        <ele>194.6</ele>
        <time>2024-04-16T14:21:22Z</time>
      </trkpt>
      <trkpt lat="50.12168" lon="4.13809">
        <ele>194.8</ele>
        <time>2024-04-16T14:21:23Z</time>
      </trkpt>
      <trkpt lat="50.12165" lon="4.13815">
        <ele>195.2</ele>
        <time>2024-04-16T14:21:24Z</time>
      </trkpt>
      <trkpt lat="50.12163" lon="4.13821">
        <ele>195.8</ele>
        <time>2024-04-16T14:21:25Z</time>
      </trkpt>
      <trkpt lat="50.12161" lon="4.13826">
        <ele>196.4</ele>
        <time>2024-04-16T14:21:26Z</time>
      </trkpt>
      <trkpt lat="50.12159" lon="4.13831">
        <ele>197</ele>
        <time>2024-04-16T14:21:27Z</time>
      </trkpt>
      <trkpt lat="50.12157" lon="4.13837">
        <ele>197.8</ele>
        <time>2024-04-16T14:21:28Z</time>
      </trkpt>
      <trkpt lat="50.12155" lon="4.13842">
        <ele>198.4</ele>
        <time>2024-04-16T14:21:29Z</time>
      </trkpt>
      <trkpt lat="50.12154" lon="4.13847">
        <ele>199</ele>
        <time>2024-04-16T14:21:30Z</time>
      </trkpt>
      <trkpt lat="50.12152" lon="4.13853">
        <ele>199.6</ele>
        <time>2024-04-16T14:21:31Z</time>
      </trkpt>
      <trkpt lat="50.12151" lon="4.13859">
        <ele>200</ele>
        <time>2024-04-16T14:21:32Z</time>
      </trkpt>
      <trkpt lat="50.12149" lon="4.13865">
        <ele>200.4</ele>
        <time>2024-04-16T14:21:33Z</time>
      </trkpt>
      <trkpt lat="50.12148" lon="4.13871">
        <ele>200.6</ele>
        <time>2024-04-16T14:21:34Z</time>
      </trkpt>
      <trkpt lat="50.12147" lon="4.13877">
        <ele>201.2</ele>
        <time>2024-04-16T14:21:35Z</time>
      </trkpt>
      <trkpt lat="50.12146" lon="4.13883">
        <ele>202</ele>
        <time>2024-04-16T14:21:36Z</time>
      </trkpt>
      <trkpt lat="50.12145" lon="4.13888">
        <ele>202.4</ele>
        <time>2024-04-16T14:21:37Z</time>
      </trkpt>
      <trkpt lat="50.12144" lon="4.13894">
        <ele>202.8</ele>
        <time>2024-04-16T14:21:38Z</time>
      </trkpt>
      <trkpt lat="50.12143" lon="4.139">
        <ele>203.6</ele>
        <time>2024-04-16T14:21:39Z</time>
      </trkpt>
      <trkpt lat="50.12142" lon="4.13905">
        <ele>204.8</ele>
        <time>2024-04-16T14:21:40Z</time>
      </trkpt>
      <trkpt lat="50.12141" lon="4.13911">
        <ele>204.8</ele>
        <time>2024-04-16T14:21:41Z</time>
      </trkpt>
      <trkpt lat="50.1214" lon="4.13917">
        <ele>205.2</ele>
        <time>2024-04-16T14:21:42Z</time>
      </trkpt>
      <trkpt lat="50.1214" lon="4.13923">
        <ele>205.4</ele>
        <time>2024-04-16T14:21:43Z</time>
      </trkpt>
      <trkpt lat="50.12139" lon="4.13929">
        <ele>205.8</ele>
        <time>2024-04-16T14:21:44Z</time>
      </trkpt>
      <trkpt lat="50.12139" lon="4.13935">
        <ele>206.2</ele>
        <time>2024-04-16T14:21:45Z</time>
      </trkpt>
      <trkpt lat="50.12138" lon="4.13941">
        <ele>207.2</ele>
        <time>2024-04-16T14:21:46Z</time>
      </trkpt>
      <trkpt lat="50.12137" lon="4.13948">
        <ele>207.8</ele>
        <time>2024-04-16T14:21:47Z</time>
      </trkpt>
      <trkpt lat="50.12137" lon="4.13954">
        <ele>208.4</ele>
        <time>2024-04-16T14:21:48Z</time>
      </trkpt>
      <trkpt lat="50.12137" lon="4.1396">
        <ele>208.8</ele>
        <time>2024-04-16T14:21:49Z</time>
      </trkpt>
      <trkpt lat="50.12136" lon="4.13967">
        <ele>209.2</ele>
        <time>2024-04-16T14:21:50Z</time>
      </trkpt>
      <trkpt lat="50.12136" lon="4.13974">
        <ele>209.6</ele>
        <time>2024-04-16T14:21:51Z</time>
      </trkpt>
      <trkpt lat="50.12136" lon="4.13981">
        <ele>210</ele>
        <time>2024-04-16T14:21:52Z</time>
      </trkpt>
      <trkpt lat="50.12136" lon="4.13987">
        <ele>210.2</ele>
        <time>2024-04-16T14:21:53Z</time>
      </trkpt>
      <trkpt lat="50.12136" lon="4.13994">
        <ele>210.6</ele>
        <time>2024-04-16T14:21:54Z</time>
      </trkpt>
      <trkpt lat="50.12136" lon="4.14002">
        <ele>210.8</ele>
        <time>2024-04-16T14:21:55Z</time>
      </trkpt>
      <trkpt lat="50.12136" lon="4.14008">
        <ele>211.4</ele>
        <time>2024-04-16T14:21:56Z</time>
      </trkpt>
      <trkpt lat="50.12136" lon="4.14015">
        <ele>211.6</ele>
        <time>2024-04-16T14:21:57Z</time>
      </trkpt>
      <trkpt lat="50.12137" lon="4.14023">
        <ele>211.8</ele>
        <time>2024-04-16T14:21:58Z</time>
      </trkpt>
      <trkpt lat="50.12138" lon="4.14031">
        <ele>211.8</ele>
        <time>2024-04-16T14:21:59Z</time>
      </trkpt>
      <trkpt lat="50.12138" lon="4.14038">
        <ele>212</ele>
        <time>2024-04-16T14:22:00Z</time>
      </trkpt>
      <trkpt lat="50.1214" lon="4.14046">
        <ele>212.2</ele>
        <time>2024-04-16T14:22:01Z</time>
      </trkpt>
      <trkpt lat="50.12141" lon="4.14054">
        <ele>212.6</ele>
        <time>2024-04-16T14:22:02Z</time>
      </trkpt>
      <trkpt lat="50.12142" lon="4.14063">
        <ele>212.6</ele>
        <time>2024-04-16T14:22:03Z</time>
      </trkpt>
      <trkpt lat="50.12144" lon="4.14071">
        <ele>212.8</ele>
        <time>2024-04-16T14:22:04Z</time>
      </trkpt>
      <trkpt lat="50.12145" lon="4.1408">
        <ele>213.2</ele>
        <time>2024-04-16T14:22:05Z</time>
      </trkpt>
      <trkpt lat="50.12147" lon="4.14088">
        <ele>213.6</ele>
        <time>2024-04-16T14:22:06Z</time>
      </trkpt>
      <trkpt lat="50.12149" lon="4.14097">
        <ele>213.8</ele>
        <time>2024-04-16T14:22:07Z</time>
      </trkpt>
      <trkpt lat="50.12151" lon="4.14106">
        <ele>214.2</ele>
        <time>2024-04-16T14:22:08Z</time>
      </trkpt>
      <trkpt lat="50.12153" lon="4.14116">
        <ele>214.4</ele>
        <time>2024-04-16T14:22:09Z</time>
      </trkpt>
      <trkpt lat="50.12156" lon="4.14125">
        <ele>214.4</ele>
        <time>2024-04-16T14:22:10Z</time>
      </trkpt>
      <trkpt lat="50.12159" lon="4.14135">
        <ele>214.6</ele>
        <time>2024-04-16T14:22:11Z</time>
      </trkpt>
      <trkpt lat="50.12161" lon="4.14144">
        <ele>214.4</ele>
        <time>2024-04-16T14:22:12Z</time>
      </trkpt>
      <trkpt lat="50.12165" lon="4.14154">
        <ele>214.4</ele>
        <time>2024-04-16T14:22:13Z</time>
      </trkpt>
      <trkpt lat="50.12168" lon="4.14163">
        <ele>214.4</ele>
        <time>2024-04-16T14:22:14Z</time>
      </trkpt>
      <trkpt lat="50.12172" lon="4.14172">
        <ele>214.6</ele>
        <time>2024-04-16T14:22:15Z</time>
      </trkpt>
      <trkpt lat="50.12176" lon="4.14181">
        <ele>214.6</ele>
        <time>2024-04-16T14:22:16Z</time>
      </trkpt>
      <trkpt lat="50.1218" lon="4.14191">
        <ele>214.6</ele>
        <time>2024-04-16T14:22:17Z</time>
      </trkpt>
      <trkpt lat="50.12184" lon="4.142">
        <ele>214.6</ele>
        <time>2024-04-16T14:22:18Z</time>
      </trkpt>
      <trkpt lat="50.12189" lon="4.1421">
        <ele>214.4</ele>
        <time>2024-04-16T14:22:19Z</time>
      </trkpt>
      <trkpt lat="50.12193" lon="4.14219">
        <ele>214</ele>
        <time>2024-04-16T14:22:20Z</time>
      </trkpt>
      <trkpt lat="50.12198" lon="4.1423">
        <ele>213.8</ele>
        <time>2024-04-16T14:22:21Z</time>
      </trkpt>
      <trkpt lat="50.12203" lon="4.14241">
        <ele>213.8</ele>
        <time>2024-04-16T14:22:22Z</time>
      </trkpt>
      <trkpt lat="50.12209" lon="4.14252">
        <ele>213.8</ele>
        <time>2024-04-16T14:22:23Z</time>
      </trkpt>
      <trkpt lat="50.12215" lon="4.14264">
        <ele>213.8</ele>
        <time>2024-04-16T14:22:24Z</time>
      </trkpt>
      <trkpt lat="50.12221" lon="4.14277">
        <ele>213.4</ele>
        <time>2024-04-16T14:22:25Z</time>
      </trkpt>
      <trkpt lat="50.12227" lon="4.14289">
        <ele>213</ele>
        <time>2024-04-16T14:22:26Z</time>
      </trkpt>
      <trkpt lat="50.12233" lon="4.14303">
        <ele>212.4</ele>
        <time>2024-04-16T14:22:27Z</time>
      </trkpt>
      <trkpt lat="50.12239" lon="4.14316">
        <ele>211.4</ele>
        <time>2024-04-16T14:22:28Z</time>
      </trkpt>
      <trkpt lat="50.12246" lon="4.1433">
        <ele>210.6</ele>
        <time>2024-04-16T14:22:29Z</time>
      </trkpt>
      <trkpt lat="50.12252" lon="4.14344">
        <ele>210.2</ele>
        <time>2024-04-16T14:22:30Z</time>
      </trkpt>
      <trkpt lat="50.12258" lon="4.14357">
        <ele>209.6</ele>
        <time>2024-04-16T14:22:31Z</time>
      </trkpt>
      <trkpt lat="50.12265" lon="4.14371">
        <ele>208.8</ele>
        <time>2024-04-16T14:22:32Z</time>
      </trkpt>
      <trkpt lat="50.12271" lon="4.14384">
        <ele>208.4</ele>
        <time>2024-04-16T14:22:33Z</time>
      </trkpt>
      <trkpt lat="50.12277" lon="4.14397">
        <ele>207.4</ele>
        <time>2024-04-16T14:22:34Z</time>
      </trkpt>
      <trkpt lat="50.12283" lon="4.14409">
        <ele>206.4</ele>
        <time>2024-04-16T14:22:35Z</time>
      </trkpt>
      <trkpt lat="50.12288" lon="4.14421">
        <ele>205.4</ele>
        <time>2024-04-16T14:22:36Z</time>
      </trkpt>
      <trkpt lat="50.12293" lon="4.14433">
        <ele>204.2</ele>
        <time>2024-04-16T14:22:37Z</time>
      </trkpt>
      <trkpt lat="50.12298" lon="4.14444">
        <ele>203.4</ele>
        <time>2024-04-16T14:22:38Z</time>
      </trkpt>
      <trkpt lat="50.12303" lon="4.14454">
        <ele>203.2</ele>
        <time>2024-04-16T14:22:39Z</time>
      </trkpt>
      <trkpt lat="50.12308" lon="4.14464">
        <ele>202.8</ele>
        <time>2024-04-16T14:22:40Z</time>
      </trkpt>
      <trkpt lat="50.12312" lon="4.14474">
        <ele>202.6</ele>
        <time>2024-04-16T14:22:41Z</time>
      </trkpt>
      <trkpt lat="50.12316" lon="4.14483">
        <ele>202.6</ele>
        <time>2024-04-16T14:22:42Z</time>
      </trkpt>
      <trkpt lat="50.12321" lon="4.14491">
        <ele>202.6</ele>
        <time>2024-04-16T14:22:43Z</time>
      </trkpt>
      <trkpt lat="50.12324" lon="4.14499">
        <ele>202.6</ele>
        <time>2024-04-16T14:22:44Z</time>
      </trkpt>
      <trkpt lat="50.12328" lon="4.14507">
        <ele>202.6</ele>
        <time>2024-04-16T14:22:45Z</time>
      </trkpt>
      <trkpt lat="50.12332" lon="4.14515">
        <ele>202.6</ele>
        <time>2024-04-16T14:22:46Z</time>
      </trkpt>
      <trkpt lat="50.12335" lon="4.14523">
        <ele>202.6</ele>
        <time>2024-04-16T14:22:47Z</time>
      </trkpt>
      <trkpt lat="50.12339" lon="4.1453">
        <ele>202.6</ele>
        <time>2024-04-16T14:22:48Z</time>
      </trkpt>
      <trkpt lat="50.12342" lon="4.14537">
        <ele>202.6</ele>
        <time>2024-04-16T14:22:49Z</time>
      </trkpt>
      <trkpt lat="50.12345" lon="4.14544">
        <ele>202.8</ele>
        <time>2024-04-16T14:22:50Z</time>
      </trkpt>
      <trkpt lat="50.12349" lon="4.14551">
        <ele>203.2</ele>
        <time>2024-04-16T14:22:51Z</time>
      </trkpt>
      <trkpt lat="50.12352" lon="4.14558">
        <ele>203.4</ele>
        <time>2024-04-16T14:22:52Z</time>
      </trkpt>
      <trkpt lat="50.12355" lon="4.14565">
        <ele>204</ele>
        <time>2024-04-16T14:22:53Z</time>
      </trkpt>
      <trkpt lat="50.12358" lon="4.14572">
        <ele>204.4</ele>
        <time>2024-04-16T14:22:54Z</time>
      </trkpt>
      <trkpt lat="50.12361" lon="4.14579">
        <ele>204.6</ele>
        <time>2024-04-16T14:22:55Z</time>
      </trkpt>
      <trkpt lat="50.12365" lon="4.14586">
        <ele>205</ele>
        <time>2024-04-16T14:22:56Z</time>
      </trkpt>
      <trkpt lat="50.12368" lon="4.14593">
        <ele>205.8</ele>
        <time>2024-04-16T14:22:57Z</time>
      </trkpt>
      <trkpt lat="50.12371" lon="4.14601">
        <ele>206.2</ele>
        <time>2024-04-16T14:22:58Z</time>
      </trkpt>
      <trkpt lat="50.12374" lon="4.14608">
        <ele>206.4</ele>
        <time>2024-04-16T14:22:59Z</time>
      </trkpt>
      <trkpt lat="50.12377" lon="4.14616">
        <ele>207</ele>
        <time>2024-04-16T14:23:00Z</time>
      </trkpt>
      <trkpt lat="50.12381" lon="4.14623">
        <ele>207</ele>
        <time>2024-04-16T14:23:01Z</time>
      </trkpt>
      <trkpt lat="50.12384" lon="4.1463">
        <ele>207.4</ele>
        <time>2024-04-16T14:23:02Z</time>
      </trkpt>
      <trkpt lat="50.12388" lon="4.14638">
        <ele>207.8</ele>
        <time>2024-04-16T14:23:03Z</time>
      </trkpt>
      <trkpt lat="50.12391" lon="4.14646">
        <ele>208</ele>
        <time>2024-04-16T14:23:04Z</time>
      </trkpt>
      <trkpt lat="50.12395" lon="4.14654">
        <ele>208.2</ele>
        <time>2024-04-16T14:23:05Z</time>
      </trkpt>
      <trkpt lat="50.12399" lon="4.14662">
        <ele>208.2</ele>
        <time>2024-04-16T14:23:06Z</time>
      </trkpt>
      <trkpt lat="50.12402" lon="4.1467">
        <ele>208.2</ele>
        <time>2024-04-16T14:23:07Z</time>
      </trkpt>
      <trkpt lat="50.12407" lon="4.14678">
        <ele>208.6</ele>
        <time>2024-04-16T14:23:08Z</time>
      </trkpt>
      <trkpt lat="50.12411" lon="4.14686">
        <ele>208.6</ele>
        <time>2024-04-16T14:23:09Z</time>
      </trkpt>
      <trkpt lat="50.12416" lon="4.14694">
        <ele>209.2</ele>
        <time>2024-04-16T14:23:10Z</time>
      </trkpt>
      <trkpt lat="50.1242" lon="4.14701">
        <ele>209.8</ele>
        <time>2024-04-16T14:23:11Z</time>
      </trkpt>
      <trkpt lat="50.12425" lon="4.14709">
        <ele>210</ele>
        <time>2024-04-16T14:23:12Z</time>
      </trkpt>
      <trkpt lat="50.12431" lon="4.14715">
        <ele>210.4</ele>
        <time>2024-04-16T14:23:13Z</time>
      </trkpt>
      <trkpt lat="50.12436" lon="4.14722">
        <ele>210.8</ele>
        <time>2024-04-16T14:23:14Z</time>
      </trkpt>
      <trkpt lat="50.12442" lon="4.14728">
        <ele>210.8</ele>
        <time>2024-04-16T14:23:15Z</time>
      </trkpt>
      <trkpt lat="50.12448" lon="4.14733">
        <ele>210.8</ele>
        <time>2024-04-16T14:23:16Z</time>
      </trkpt>
      <trkpt lat="50.12454" lon="4.14739">
        <ele>210.8</ele>
        <time>2024-04-16T14:23:17Z</time>
      </trkpt>
      <trkpt lat="50.1246" lon="4.14744">
        <ele>211</ele>
        <time>2024-04-16T14:23:18Z</time>
      </trkpt>
      <trkpt lat="50.12466" lon="4.14749">
        <ele>211</ele>
        <time>2024-04-16T14:23:19Z</time>
      </trkpt>
      <trkpt lat="50.12472" lon="4.14755">
        <ele>210.8</ele>
        <time>2024-04-16T14:23:20Z</time>
      </trkpt>
      <trkpt lat="50.12478" lon="4.14761">
        <ele>211</ele>
        <time>2024-04-16T14:23:21Z</time>
      </trkpt>
      <trkpt lat="50.12485" lon="4.14767">
        <ele>211</ele>
        <time>2024-04-16T14:23:22Z</time>
      </trkpt>
      <trkpt lat="50.12491" lon="4.14773">
        <ele>210.8</ele>
        <time>2024-04-16T14:23:23Z</time>
      </trkpt>
      <trkpt lat="50.12497" lon="4.1478">
        <ele>210.6</ele>
        <time>2024-04-16T14:23:24Z</time>
      </trkpt>
      <trkpt lat="50.12503" lon="4.14788">
        <ele>210.6</ele>
        <time>2024-04-16T14:23:25Z</time>
      </trkpt>
      <trkpt lat="50.12508" lon="4.14797">
        <ele>210.2</ele>
        <time>2024-04-16T14:23:26Z</time>
      </trkpt>
      <trkpt lat="50.12512" lon="4.14808">
        <ele>210</ele>
        <time>2024-04-16T14:23:27Z</time>
      </trkpt>
      <trkpt lat="50.12515" lon="4.14821">
        <ele>209.6</ele>
        <time>2024-04-16T14:23:28Z</time>
      </trkpt>
      <trkpt lat="50.12518" lon="4.14834">
        <ele>209.2</ele>
        <time>2024-04-16T14:23:29Z</time>
      </trkpt>
      <trkpt lat="50.1252" lon="4.14847">
        <ele>209</ele>
        <time>2024-04-16T14:23:30Z</time>
      </trkpt>
      <trkpt lat="50.12523" lon="4.14861">
        <ele>209</ele>
        <time>2024-04-16T14:23:31Z</time>
      </trkpt>
      <trkpt lat="50.12526" lon="4.14875">
        <ele>209</ele>
        <time>2024-04-16T14:23:32Z</time>
      </trkpt>
      <trkpt lat="50.12529" lon="4.14889">
        <ele>208.8</ele>
        <time>2024-04-16T14:23:33Z</time>
      </trkpt>
      <trkpt lat="50.12532" lon="4.14904">
        <ele>208.6</ele>
        <time>2024-04-16T14:23:34Z</time>
      </trkpt>
      <trkpt lat="50.12535" lon="4.14919">
        <ele>208.2</ele>
        <time>2024-04-16T14:23:35Z</time>
      </trkpt>
      <trkpt lat="50.12538" lon="4.14934">
        <ele>208</ele>
        <time>2024-04-16T14:23:36Z</time>
      </trkpt>
      <trkpt lat="50.12541" lon="4.1495">
        <ele>206.8</ele>
        <time>2024-04-16T14:23:37Z</time>
      </trkpt>
      <trkpt lat="50.12543" lon="4.14966">
        <ele>206.2</ele>
        <time>2024-04-16T14:23:38Z</time>
      </trkpt>
      <trkpt lat="50.12545" lon="4.14984">
        <ele>205.4</ele>
        <time>2024-04-16T14:23:39Z</time>
      </trkpt>
      <trkpt lat="50.12546" lon="4.15001">
        <ele>204.4</ele>
        <time>2024-04-16T14:23:40Z</time>
      </trkpt>
      <trkpt lat="50.12545" lon="4.15019">
        <ele>203.4</ele>
        <time>2024-04-16T14:23:41Z</time>
      </trkpt>
      <trkpt lat="50.12542" lon="4.15038">
        <ele>202.2</ele>
        <time>2024-04-16T14:23:42Z</time>
      </trkpt>
      <trkpt lat="50.12538" lon="4.15056">
        <ele>201.2</ele>
        <time>2024-04-16T14:23:43Z</time>
      </trkpt>
      <trkpt lat="50.12532" lon="4.15073">
        <ele>200.6</ele>
        <time>2024-04-16T14:23:44Z</time>
      </trkpt>
      <trkpt lat="50.12526" lon="4.15091">
        <ele>200</ele>
        <time>2024-04-16T14:23:45Z</time>
      </trkpt>
      <trkpt lat="50.12519" lon="4.15108">
        <ele>199</ele>
        <time>2024-04-16T14:23:46Z</time>
      </trkpt>
      <trkpt lat="50.12511" lon="4.15125">
        <ele>198</ele>
        <time>2024-04-16T14:23:47Z</time>
      </trkpt>
      <trkpt lat="50.12503" lon="4.15142">
        <ele>197.2</ele>
        <time>2024-04-16T14:23:48Z</time>
      </trkpt>
      <trkpt lat="50.12495" lon="4.15159">
        <ele>196.6</ele>
        <time>2024-04-16T14:23:49Z</time>
      </trkpt>
      <trkpt lat="50.12485" lon="4.15175">
        <ele>195.4</ele>
        <time>2024-04-16T14:23:50Z</time>
      </trkpt>
      <trkpt lat="50.12475" lon="4.1519">
        <ele>194</ele>
        <time>2024-04-16T14:23:51Z</time>
      </trkpt>
      <trkpt lat="50.12464" lon="4.15205">
        <ele>193.2</ele>
        <time>2024-04-16T14:23:52Z</time>
      </trkpt>
      <trkpt lat="50.12453" lon="4.15219">
        <ele>192.4</ele>
        <time>2024-04-16T14:23:53Z</time>
      </trkpt>
      <trkpt lat="50.12441" lon="4.15233">
        <ele>192.4</ele>
        <time>2024-04-16T14:23:54Z</time>
      </trkpt>
      <trkpt lat="50.1243" lon="4.15247">
        <ele>191.2</ele>
        <time>2024-04-16T14:23:55Z</time>
      </trkpt>
      <trkpt lat="50.12418" lon="4.1526">
        <ele>190</ele>
        <time>2024-04-16T14:23:56Z</time>
      </trkpt>
      <trkpt lat="50.12406" lon="4.15274">
        <ele>188.8</ele>
        <time>2024-04-16T14:23:57Z</time>
      </trkpt>
      <trkpt lat="50.12394" lon="4.15288">
        <ele>188.4</ele>
        <time>2024-04-16T14:23:58Z</time>
      </trkpt>
      <trkpt lat="50.12381" lon="4.15302">
        <ele>187.6</ele>
        <time>2024-04-16T14:23:59Z</time>
      </trkpt>
      <trkpt lat="50.12369" lon="4.15317">
        <ele>186</ele>
        <time>2024-04-16T14:24:00Z</time>
      </trkpt>
      <trkpt lat="50.12357" lon="4.15331">
        <ele>183.8</ele>
        <time>2024-04-16T14:24:01Z</time>
      </trkpt>
      <trkpt lat="50.12346" lon="4.15345">
        <ele>182</ele>
        <time>2024-04-16T14:24:02Z</time>
      </trkpt>
      <trkpt lat="50.12335" lon="4.15359">
        <ele>180.6</ele>
        <time>2024-04-16T14:24:03Z</time>
      </trkpt>
      <trkpt lat="50.12325" lon="4.15373">
        <ele>179.2</ele>
        <time>2024-04-16T14:24:04Z</time>
      </trkpt>
      <trkpt lat="50.12315" lon="4.15388">
        <ele>177.8</ele>
        <time>2024-04-16T14:24:05Z</time>
      </trkpt>
      <trkpt lat="50.12306" lon="4.15402">
        <ele>176.4</ele>
        <time>2024-04-16T14:24:06Z</time>
      </trkpt>
      <trkpt lat="50.12298" lon="4.15416">
        <ele>175.6</ele>
        <time>2024-04-16T14:24:07Z</time>
      </trkpt>
      <trkpt lat="50.12291" lon="4.1543">
        <ele>175.2</ele>
        <time>2024-04-16T14:24:08Z</time>
      </trkpt>
      <trkpt lat="50.12284" lon="4.15444">
        <ele>175</ele>
        <time>2024-04-16T14:24:09Z</time>
      </trkpt>
      <trkpt lat="50.12277" lon="4.15456">
        <ele>175</ele>
        <time>2024-04-16T14:24:10Z</time>
      </trkpt>
      <trkpt lat="50.12272" lon="4.15468">
        <ele>174.8</ele>
        <time>2024-04-16T14:24:11Z</time>
      </trkpt>
      <trkpt lat="50.12266" lon="4.15479">
        <ele>174.8</ele>
        <time>2024-04-16T14:24:12Z</time>
      </trkpt>
      <trkpt lat="50.12261" lon="4.1549">
        <ele>174.8</ele>
        <time>2024-04-16T14:24:13Z</time>
      </trkpt>
      <trkpt lat="50.12257" lon="4.15499">
        <ele>175</ele>
        <time>2024-04-16T14:24:14Z</time>
      </trkpt>
      <trkpt lat="50.12253" lon="4.15509">
        <ele>174.8</ele>
        <time>2024-04-16T14:24:15Z</time>
      </trkpt>
      <trkpt lat="50.12249" lon="4.15518">
        <ele>174.8</ele>
        <time>2024-04-16T14:24:16Z</time>
      </trkpt>
      <trkpt lat="50.12246" lon="4.15527">
        <ele>174.8</ele>
        <time>2024-04-16T14:24:17Z</time>
      </trkpt>
      <trkpt lat="50.12243" lon="4.15535">
        <ele>175</ele>
        <time>2024-04-16T14:24:18Z</time>
      </trkpt>
      <trkpt lat="50.12241" lon="4.15544">
        <ele>175.2</ele>
        <time>2024-04-16T14:24:19Z</time>
      </trkpt>
      <trkpt lat="50.12238" lon="4.15553">
        <ele>176.2</ele>
        <time>2024-04-16T14:24:20Z</time>
      </trkpt>
      <trkpt lat="50.12236" lon="4.15562">
        <ele>177.2</ele>
        <time>2024-04-16T14:24:21Z</time>
      </trkpt>
      <trkpt lat="50.12235" lon="4.15571">
        <ele>178.4</ele>
        <time>2024-04-16T14:24:22Z</time>
      </trkpt>
      <trkpt lat="50.12233" lon="4.15579">
        <ele>179.6</ele>
        <time>2024-04-16T14:24:23Z</time>
      </trkpt>
      <trkpt lat="50.12232" lon="4.15587">
        <ele>180.4</ele>
        <time>2024-04-16T14:24:24Z</time>
      </trkpt>
      <trkpt lat="50.1223" lon="4.15596">
        <ele>180.8</ele>
        <time>2024-04-16T14:24:25Z</time>
      </trkpt>
      <trkpt lat="50.12229" lon="4.15604">
        <ele>181.4</ele>
        <time>2024-04-16T14:24:26Z</time>
      </trkpt>
      <trkpt lat="50.12228" lon="4.15612">
        <ele>181.6</ele>
        <time>2024-04-16T14:24:27Z</time>
      </trkpt>
      <trkpt lat="50.12227" lon="4.1562">
        <ele>181.6</ele>
        <time>2024-04-16T14:24:28Z</time>
      </trkpt>
      <trkpt lat="50.12226" lon="4.15628">
        <ele>182</ele>
        <time>2024-04-16T14:24:29Z</time>
      </trkpt>
      <trkpt lat="50.12225" lon="4.15636">
        <ele>182.2</ele>
        <time>2024-04-16T14:24:30Z</time>
      </trkpt>
      <trkpt lat="50.12224" lon="4.15644">
        <ele>182.8</ele>
        <time>2024-04-16T14:24:31Z</time>
      </trkpt>
      <trkpt lat="50.12223" lon="4.15652">
        <ele>183.2</ele>
        <time>2024-04-16T14:24:32Z</time>
      </trkpt>
      <trkpt lat="50.12221" lon="4.15659">
        <ele>183.6</ele>
        <time>2024-04-16T14:24:33Z</time>
      </trkpt>
      <trkpt lat="50.1222" lon="4.15667">
        <ele>184.4</ele>
        <time>2024-04-16T14:24:34Z</time>
      </trkpt>
      <trkpt lat="50.12219" lon="4.15674">
        <ele>185.4</ele>
        <time>2024-04-16T14:24:35Z</time>
      </trkpt>
      <trkpt lat="50.12217" lon="4.15681">
        <ele>186.4</ele>
        <time>2024-04-16T14:24:36Z</time>
      </trkpt>
      <trkpt lat="50.12216" lon="4.15689">
        <ele>186.6</ele>
        <time>2024-04-16T14:24:37Z</time>
      </trkpt>
      <trkpt lat="50.12214" lon="4.15696">
        <ele>186.6</ele>
        <time>2024-04-16T14:24:38Z</time>
      </trkpt>
      <trkpt lat="50.12212" lon="4.15703">
        <ele>187.4</ele>
        <time>2024-04-16T14:24:39Z</time>
      </trkpt>
      <trkpt lat="50.1221" lon="4.1571">
        <ele>187.6</ele>
        <time>2024-04-16T14:24:40Z</time>
      </trkpt>
      <trkpt lat="50.12209" lon="4.15718">
        <ele>187.8</ele>
        <time>2024-04-16T14:24:41Z</time>
      </trkpt>
      <trkpt lat="50.12207" lon="4.15725">
        <ele>188.2</ele>
        <time>2024-04-16T14:24:42Z</time>
      </trkpt>
      <trkpt lat="50.12205" lon="4.15732">
        <ele>189</ele>
        <time>2024-04-16T14:24:43Z</time>
      </trkpt>
      <trkpt lat="50.12203" lon="4.15739">
        <ele>189.6</ele>
        <time>2024-04-16T14:24:44Z</time>
      </trkpt>
      <trkpt lat="50.12201" lon="4.15745">
        <ele>190.2</ele>
        <time>2024-04-16T14:24:45Z</time>
      </trkpt>
      <trkpt lat="50.12199" lon="4.15752">
        <ele>190.8</ele>
        <time>2024-04-16T14:24:46Z</time>
      </trkpt>
      <trkpt lat="50.12198" lon="4.15759">
        <ele>191.2</ele>
        <time>2024-04-16T14:24:47Z</time>
      </trkpt>
      <trkpt lat="50.12196" lon="4.15766">
        <ele>191.6</ele>
        <time>2024-04-16T14:24:48Z</time>
      </trkpt>
      <trkpt lat="50.12194" lon="4.15773">
        <ele>191.8</ele>
        <time>2024-04-16T14:24:49Z</time>
      </trkpt>
      <trkpt lat="50.12192" lon="4.1578">
        <ele>192.4</ele>
        <time>2024-04-16T14:24:50Z</time>
      </trkpt>
      <trkpt lat="50.1219" lon="4.15787">
        <ele>192.8</ele>
        <time>2024-04-16T14:24:51Z</time>
      </trkpt>
      <trkpt lat="50.12188" lon="4.15794">
        <ele>193</ele>
        <time>2024-04-16T14:24:52Z</time>
      </trkpt>
      <trkpt lat="50.12186" lon="4.15801">
        <ele>193.2</ele>
        <time>2024-04-16T14:24:53Z</time>
      </trkpt>
      <trkpt lat="50.12184" lon="4.15808">
        <ele>193.8</ele>
        <time>2024-04-16T14:24:54Z</time>
      </trkpt>
      <trkpt lat="50.12182" lon="4.15815">
        <ele>193.8</ele>
        <time>2024-04-16T14:24:55Z</time>
      </trkpt>
      <trkpt lat="50.1218" lon="4.15823">
        <ele>194.2</ele>
        <time>2024-04-16T14:24:56Z</time>
      </trkpt>
      <trkpt lat="50.12178" lon="4.1583">
        <ele>194.4</ele>
        <time>2024-04-16T14:24:57Z</time>
      </trkpt>
      <trkpt lat="50.12175" lon="4.15838">
        <ele>194.6</ele>
        <time>2024-04-16T14:24:58Z</time>
      </trkpt>
      <trkpt lat="50.12173" lon="4.15846">
        <ele>194.8</ele>
        <time>2024-04-16T14:24:59Z</time>
      </trkpt>
      <trkpt lat="50.12171" lon="4.15854">
        <ele>194.8</ele>
        <time>2024-04-16T14:25:00Z</time>
      </trkpt>
      <trkpt lat="50.12168" lon="4.15862">
        <ele>195</ele>
        <time>2024-04-16T14:25:01Z</time>
      </trkpt>
      <trkpt lat="50.12166" lon="4.15871">
        <ele>195</ele>
        <time>2024-04-16T14:25:02Z</time>
      </trkpt>
      <trkpt lat="50.12164" lon="4.1588">
        <ele>195</ele>
        <time>2024-04-16T14:25:03Z</time>
      </trkpt>
      <trkpt lat="50.12161" lon="4.1589">
        <ele>195.4</ele>
        <time>2024-04-16T14:25:04Z</time>
      </trkpt>
      <trkpt lat="50.12159" lon="4.159">
        <ele>195.8</ele>
        <time>2024-04-16T14:25:05Z</time>
      </trkpt>
      <trkpt lat="50.12157" lon="4.15911">
        <ele>196</ele>
        <time>2024-04-16T14:25:06Z</time>
      </trkpt>
      <trkpt lat="50.12156" lon="4.15922">
        <ele>196</ele>
        <time>2024-04-16T14:25:07Z</time>
      </trkpt>
      <trkpt lat="50.12156" lon="4.15933">
        <ele>196.2</ele>
        <time>2024-04-16T14:25:08Z</time>
      </trkpt>
      <trkpt lat="50.12156" lon="4.15945">
        <ele>196.2</ele>
        <time>2024-04-16T14:25:09Z</time>
      </trkpt>
      <trkpt lat="50.12157" lon="4.15957">
        <ele>196.2</ele>
        <time>2024-04-16T14:25:10Z</time>
      </trkpt>
      <trkpt lat="50.12159" lon="4.1597">
        <ele>196.2</ele>
        <time>2024-04-16T14:25:11Z</time>
      </trkpt>
      <trkpt lat="50.12162" lon="4.15982">
        <ele>196.4</ele>
        <time>2024-04-16T14:25:12Z</time>
      </trkpt>
      <trkpt lat="50.12166" lon="4.15995">
        <ele>196.4</ele>
        <time>2024-04-16T14:25:13Z</time>
      </trkpt>
      <trkpt lat="50.12172" lon="4.16007">
        <ele>196.4</ele>
        <time>2024-04-16T14:25:14Z</time>
      </trkpt>
      <trkpt lat="50.12177" lon="4.16018">
        <ele>196.4</ele>
        <time>2024-04-16T14:25:15Z</time>
      </trkpt>
      <trkpt lat="50.12183" lon="4.16028">
        <ele>196.4</ele>
        <time>2024-04-16T14:25:16Z</time>
      </trkpt>
      <trkpt lat="50.1219" lon="4.16038">
        <ele>196.2</ele>
        <time>2024-04-16T14:25:17Z</time>
      </trkpt>
      <trkpt lat="50.12196" lon="4.16048">
        <ele>195.8</ele>
        <time>2024-04-16T14:25:18Z</time>
      </trkpt>
      <trkpt lat="50.12202" lon="4.16057">
        <ele>195.2</ele>
        <time>2024-04-16T14:25:19Z</time>
      </trkpt>
      <trkpt lat="50.12208" lon="4.16067">
        <ele>194.8</ele>
        <time>2024-04-16T14:25:20Z</time>
      </trkpt>
      <trkpt lat="50.12215" lon="4.16076">
        <ele>193.8</ele>
        <time>2024-04-16T14:25:21Z</time>
      </trkpt>
      <trkpt lat="50.1222" lon="4.16085">
        <ele>193.8</ele>
        <time>2024-04-16T14:25:22Z</time>
      </trkpt>
      <trkpt lat="50.12226" lon="4.16095">
        <ele>192.6</ele>
        <time>2024-04-16T14:25:23Z</time>
      </trkpt>
      <trkpt lat="50.12232" lon="4.16104">
        <ele>192</ele>
        <time>2024-04-16T14:25:24Z</time>
      </trkpt>
      <trkpt lat="50.12238" lon="4.16113">
        <ele>192</ele>
        <time>2024-04-16T14:25:25Z</time>
      </trkpt>
      <trkpt lat="50.12243" lon="4.16122">
        <ele>191.6</ele>
        <time>2024-04-16T14:25:26Z</time>
      </trkpt>
      <trkpt lat="50.12249" lon="4.1613">
        <ele>191.6</ele>
        <time>2024-04-16T14:25:27Z</time>
      </trkpt>
      <trkpt lat="50.12254" lon="4.16139">
        <ele>191.6</ele>
        <time>2024-04-16T14:25:28Z</time>
      </trkpt>
      <trkpt lat="50.1226" lon="4.16147">
        <ele>191.4</ele>
        <time>2024-04-16T14:25:29Z</time>
      </trkpt>
      <trkpt lat="50.12266" lon="4.16156">
        <ele>191.2</ele>
        <time>2024-04-16T14:25:30Z</time>
      </trkpt>
      <trkpt lat="50.12271" lon="4.16165">
        <ele>191.4</ele>
        <time>2024-04-16T14:25:31Z</time>
      </trkpt>
      <trkpt lat="50.12277" lon="4.16174">
        <ele>191.4</ele>
        <time>2024-04-16T14:25:32Z</time>
      </trkpt>
      <trkpt lat="50.12283" lon="4.16182">
        <ele>191.2</ele>
        <time>2024-04-16T14:25:33Z</time>
      </trkpt>
      <trkpt lat="50.12288" lon="4.16192">
        <ele>191.2</ele>
        <time>2024-04-16T14:25:34Z</time>
      </trkpt>
      <trkpt lat="50.12294" lon="4.16201">
        <ele>191</ele>
        <time>2024-04-16T14:25:35Z</time>
      </trkpt>
      <trkpt lat="50.123" lon="4.16211">
        <ele>191.2</ele>
        <time>2024-04-16T14:25:36Z</time>
      </trkpt>
      <trkpt lat="50.12305" lon="4.16223">
        <ele>191</ele>
        <time>2024-04-16T14:25:37Z</time>
      </trkpt>
      <trkpt lat="50.12309" lon="4.16235">
        <ele>191</ele>
        <time>2024-04-16T14:25:38Z</time>
      </trkpt>
      <trkpt lat="50.12313" lon="4.16248">
        <ele>190.6</ele>
        <time>2024-04-16T14:25:39Z</time>
      </trkpt>
      <trkpt lat="50.12316" lon="4.16262">
        <ele>190.2</ele>
        <time>2024-04-16T14:25:40Z</time>
      </trkpt>
      <trkpt lat="50.12318" lon="4.16276">
        <ele>190.2</ele>
        <time>2024-04-16T14:25:41Z</time>
      </trkpt>
      <trkpt lat="50.12318" lon="4.16291">
        <ele>189.8</ele>
        <time>2024-04-16T14:25:42Z</time>
      </trkpt>
      <trkpt lat="50.12318" lon="4.16306">
        <ele>189.4</ele>
        <time>2024-04-16T14:25:43Z</time>
      </trkpt>
      <trkpt lat="50.12317" lon="4.16322">
        <ele>189.4</ele>
        <time>2024-04-16T14:25:44Z</time>
      </trkpt>
      <trkpt lat="50.12314" lon="4.16337">
        <ele>188.8</ele>
        <time>2024-04-16T14:25:45Z</time>
      </trkpt>
      <trkpt lat="50.1231" lon="4.16351">
        <ele>187.6</ele>
        <time>2024-04-16T14:25:46Z</time>
      </trkpt>
      <trkpt lat="50.12306" lon="4.16365">
        <ele>187</ele>
        <time>2024-04-16T14:25:47Z</time>
      </trkpt>
      <trkpt lat="50.123" lon="4.16379">
        <ele>186.6</ele>
        <time>2024-04-16T14:25:48Z</time>
      </trkpt>
      <trkpt lat="50.12295" lon="4.16392">
        <ele>186.2</ele>
        <time>2024-04-16T14:25:49Z</time>
      </trkpt>
      <trkpt lat="50.12289" lon="4.16405">
        <ele>185.8</ele>
        <time>2024-04-16T14:25:50Z</time>
      </trkpt>
      <trkpt lat="50.12284" lon="4.16418">
        <ele>185.2</ele>
        <time>2024-04-16T14:25:51Z</time>
      </trkpt>
      <trkpt lat="50.12278" lon="4.1643">
        <ele>184.2</ele>
        <time>2024-04-16T14:25:52Z</time>
      </trkpt>
      <trkpt lat="50.12273" lon="4.16443">
        <ele>183.6</ele>
        <time>2024-04-16T14:25:53Z</time>
      </trkpt>
      <trkpt lat="50.12268" lon="4.16456">
        <ele>182.8</ele>
        <time>2024-04-16T14:25:54Z</time>
      </trkpt>
      <trkpt lat="50.12263" lon="4.16469">
        <ele>182.4</ele>
        <time>2024-04-16T14:25:55Z</time>
      </trkpt>
      <trkpt lat="50.1226" lon="4.16482">
        <ele>182</ele>
        <time>2024-04-16T14:25:56Z</time>
      </trkpt>
      <trkpt lat="50.12257" lon="4.16496">
        <ele>181.6</ele>
        <time>2024-04-16T14:25:57Z</time>
      </trkpt>
      <trkpt lat="50.12254" lon="4.1651">
        <ele>181.2</ele>
        <time>2024-04-16T14:25:58Z</time>
      </trkpt>
      <trkpt lat="50.12252" lon="4.16524">
        <ele>181</ele>
        <time>2024-04-16T14:25:59Z</time>
      </trkpt>
      <trkpt lat="50.12251" lon="4.16539">
        <ele>181</ele>
        <time>2024-04-16T14:26:00Z</time>
      </trkpt>
      <trkpt lat="50.12248" lon="4.16553">
        <ele>180.8</ele>
        <time>2024-04-16T14:26:01Z</time>
      </trkpt>
      <trkpt lat="50.12245" lon="4.16568">
        <ele>180.8</ele>
        <time>2024-04-16T14:26:02Z</time>
      </trkpt>
      <trkpt lat="50.12241" lon="4.16582">
        <ele>180.8</ele>
        <time>2024-04-16T14:26:03Z</time>
      </trkpt>
      <trkpt lat="50.12236" lon="4.16596">
        <ele>180.6</ele>
        <time>2024-04-16T14:26:04Z</time>
      </trkpt>
      <trkpt lat="50.1223" lon="4.16609">
        <ele>180.6</ele>
        <time>2024-04-16T14:26:05Z</time>
      </trkpt>
      <trkpt lat="50.12223" lon="4.16622">
        <ele>180.6</ele>
        <time>2024-04-16T14:26:06Z</time>
      </trkpt>
      <trkpt lat="50.12216" lon="4.16635">
        <ele>180.4</ele>
        <time>2024-04-16T14:26:07Z</time>
      </trkpt>
      <trkpt lat="50.12208" lon="4.16649">
        <ele>180.4</ele>
        <time>2024-04-16T14:26:08Z</time>
      </trkpt>
      <trkpt lat="50.12201" lon="4.16662">
        <ele>180.2</ele>
        <time>2024-04-16T14:26:09Z</time>
      </trkpt>
      <trkpt lat="50.12194" lon="4.16676">
        <ele>180.2</ele>
        <time>2024-04-16T14:26:10Z</time>
      </trkpt>
      <trkpt lat="50.12187" lon="4.1669">
        <ele>179.6</ele>
        <time>2024-04-16T14:26:11Z</time>
      </trkpt>
      <trkpt lat="50.1218" lon="4.16705">
        <ele>178.6</ele>
        <time>2024-04-16T14:26:12Z</time>
      </trkpt>
      <trkpt lat="50.12174" lon="4.1672">
        <ele>177.4</ele>
        <time>2024-04-16T14:26:13Z</time>
      </trkpt>
      <trkpt lat="50.12168" lon="4.16735">
        <ele>176.4</ele>
        <time>2024-04-16T14:26:14Z</time>
      </trkpt>
      <trkpt lat="50.12161" lon="4.1675">
        <ele>175.6</ele>
        <time>2024-04-16T14:26:15Z</time>
      </trkpt>
      <trkpt lat="50.12155" lon="4.16764">
        <ele>175.2</ele>
        <time>2024-04-16T14:26:16Z</time>
      </trkpt>
      <trkpt lat="50.1215" lon="4.16779">
        <ele>175</ele>
        <time>2024-04-16T14:26:17Z</time>
      </trkpt>
      <trkpt lat="50.12144" lon="4.16793">
        <ele>174.6</ele>
        <time>2024-04-16T14:26:18Z</time>
      </trkpt>
      <trkpt lat="50.1214" lon="4.16807">
        <ele>174.6</ele>
        <time>2024-04-16T14:26:19Z</time>
      </trkpt>
      <trkpt lat="50.12136" lon="4.16821">
        <ele>174.4</ele>
        <time>2024-04-16T14:26:20Z</time>
      </trkpt>
      <trkpt lat="50.12132" lon="4.16834">
        <ele>174.4</ele>
        <time>2024-04-16T14:26:21Z</time>
      </trkpt>
      <trkpt lat="50.12129" lon="4.16848">
        <ele>174.4</ele>
        <time>2024-04-16T14:26:22Z</time>
      </trkpt>
      <trkpt lat="50.12126" lon="4.1686">
        <ele>174.2</ele>
        <time>2024-04-16T14:26:23Z</time>
      </trkpt>
      <trkpt lat="50.12124" lon="4.16873">
        <ele>174.4</ele>
        <time>2024-04-16T14:26:24Z</time>
      </trkpt>
      <trkpt lat="50.12122" lon="4.16885">
        <ele>174.4</ele>
        <time>2024-04-16T14:26:25Z</time>
      </trkpt>
      <trkpt lat="50.1212" lon="4.16897">
        <ele>174.4</ele>
        <time>2024-04-16T14:26:26Z</time>
      </trkpt>
      <trkpt lat="50.12119" lon="4.16908">
        <ele>174.4</ele>
        <time>2024-04-16T14:26:27Z</time>
      </trkpt>
      <trkpt lat="50.12117" lon="4.16919">
        <ele>174.6</ele>
        <time>2024-04-16T14:26:28Z</time>
      </trkpt>
      <trkpt lat="50.12116" lon="4.16931">
        <ele>174.6</ele>
        <time>2024-04-16T14:26:29Z</time>
      </trkpt>
      <trkpt lat="50.12115" lon="4.16942">
        <ele>175.2</ele>
        <time>2024-04-16T14:26:30Z</time>
      </trkpt>
      <trkpt lat="50.12113" lon="4.16953">
        <ele>175.6</ele>
        <time>2024-04-16T14:26:31Z</time>
      </trkpt>
      <trkpt lat="50.12112" lon="4.16963">
        <ele>176</ele>
        <time>2024-04-16T14:26:32Z</time>
      </trkpt>
      <trkpt lat="50.1211" lon="4.16974">
        <ele>176.4</ele>
        <time>2024-04-16T14:26:33Z</time>
      </trkpt>
      <trkpt lat="50.1211" lon="4.16984">
        <ele>176.6</ele>
        <time>2024-04-16T14:26:34Z</time>
      </trkpt>
      <trkpt lat="50.12108" lon="4.16995">
        <ele>176.8</ele>
        <time>2024-04-16T14:26:35Z</time>
      </trkpt>
      <trkpt lat="50.12107" lon="4.17005">
        <ele>177</ele>
        <time>2024-04-16T14:26:36Z</time>
      </trkpt>
      <trkpt lat="50.12105" lon="4.17016">
        <ele>177.4</ele>
        <time>2024-04-16T14:26:37Z</time>
      </trkpt>
      <trkpt lat="50.12103" lon="4.17026">
        <ele>177.8</ele>
        <time>2024-04-16T14:26:38Z</time>
      </trkpt>
      <trkpt lat="50.12101" lon="4.17037">
        <ele>178</ele>
        <time>2024-04-16T14:26:39Z</time>
      </trkpt>
      <trkpt lat="50.12099" lon="4.17048">
        <ele>178.4</ele>
        <time>2024-04-16T14:26:40Z</time>
      </trkpt>
      <trkpt lat="50.12096" lon="4.17058">
        <ele>178.4</ele>
        <time>2024-04-16T14:26:41Z</time>
      </trkpt>
      <trkpt lat="50.12094" lon="4.17069">
        <ele>178.4</ele>
        <time>2024-04-16T14:26:42Z</time>
      </trkpt>
      <trkpt lat="50.12092" lon="4.1708">
        <ele>178.6</ele>
        <time>2024-04-16T14:26:43Z</time>
      </trkpt>
      <trkpt lat="50.12089" lon="4.1709">
        <ele>178.6</ele>
        <time>2024-04-16T14:26:44Z</time>
      </trkpt>
      <trkpt lat="50.12088" lon="4.17101">
        <ele>178.6</ele>
        <time>2024-04-16T14:26:45Z</time>
      </trkpt>
      <trkpt lat="50.12086" lon="4.17113">
        <ele>178.6</ele>
        <time>2024-04-16T14:26:46Z</time>
      </trkpt>
      <trkpt lat="50.12085" lon="4.17124">
        <ele>178.8</ele>
        <time>2024-04-16T14:26:47Z</time>
      </trkpt>
      <trkpt lat="50.12083" lon="4.17136">
        <ele>178.8</ele>
        <time>2024-04-16T14:26:48Z</time>
      </trkpt>
      <trkpt lat="50.12082" lon="4.17147">
        <ele>178.6</ele>
        <time>2024-04-16T14:26:49Z</time>
      </trkpt>
      <trkpt lat="50.12081" lon="4.17159">
        <ele>178.6</ele>
        <time>2024-04-16T14:26:50Z</time>
      </trkpt>
      <trkpt lat="50.1208" lon="4.1717">
        <ele>178.6</ele>
        <time>2024-04-16T14:26:51Z</time>
      </trkpt>
      <trkpt lat="50.12079" lon="4.17182">
        <ele>178.6</ele>
        <time>2024-04-16T14:26:52Z</time>
      </trkpt>
      <trkpt lat="50.12078" lon="4.17193">
        <ele>178.6</ele>
        <time>2024-04-16T14:26:53Z</time>
      </trkpt>
      <trkpt lat="50.12077" lon="4.17204">
        <ele>178.6</ele>
        <time>2024-04-16T14:26:54Z</time>
      </trkpt>
      <trkpt lat="50.12076" lon="4.17214">
        <ele>178.6</ele>
        <time>2024-04-16T14:26:55Z</time>
      </trkpt>
      <trkpt lat="50.12075" lon="4.17225">
        <ele>178.6</ele>
        <time>2024-04-16T14:26:56Z</time>
      </trkpt>
      <trkpt lat="50.12073" lon="4.17235">
        <ele>178.6</ele>
        <time>2024-04-16T14:26:57Z</time>
      </trkpt>
      <trkpt lat="50.12072" lon="4.17245">
        <ele>178.6</ele>
        <time>2024-04-16T14:26:58Z</time>
      </trkpt>
      <trkpt lat="50.1207" lon="4.17256">
        <ele>178.6</ele>
        <time>2024-04-16T14:26:59Z</time>
      </trkpt>
      <trkpt lat="50.12068" lon="4.17266">
        <ele>178.6</ele>
        <time>2024-04-16T14:27:00Z</time>
      </trkpt>
      <trkpt lat="50.12067" lon="4.17276">
        <ele>178.6</ele>
        <time>2024-04-16T14:27:01Z</time>
      </trkpt>
      <trkpt lat="50.12065" lon="4.17286">
        <ele>178.6</ele>
        <time>2024-04-16T14:27:02Z</time>
      </trkpt>
      <trkpt lat="50.12063" lon="4.17297">
        <ele>178.6</ele>
        <time>2024-04-16T14:27:03Z</time>
      </trkpt>
      <trkpt lat="50.12062" lon="4.17307">
        <ele>178.6</ele>
        <time>2024-04-16T14:27:04Z</time>
      </trkpt>
      <trkpt lat="50.1206" lon="4.17318">
        <ele>178.6</ele>
        <time>2024-04-16T14:27:05Z</time>
      </trkpt>
      <trkpt lat="50.12058" lon="4.17328">
        <ele>178.6</ele>
        <time>2024-04-16T14:27:06Z</time>
      </trkpt>
      <trkpt lat="50.12057" lon="4.17339">
        <ele>178.8</ele>
        <time>2024-04-16T14:27:07Z</time>
      </trkpt>
      <trkpt lat="50.12055" lon="4.1735">
        <ele>179</ele>
        <time>2024-04-16T14:27:08Z</time>
      </trkpt>
      <trkpt lat="50.12053" lon="4.17361">
        <ele>179.2</ele>
        <time>2024-04-16T14:27:09Z</time>
      </trkpt>
      <trkpt lat="50.12051" lon="4.17373">
        <ele>179</ele>
        <time>2024-04-16T14:27:10Z</time>
      </trkpt>
      <trkpt lat="50.12048" lon="4.17384">
        <ele>179</ele>
        <time>2024-04-16T14:27:11Z</time>
      </trkpt>
      <trkpt lat="50.12046" lon="4.17395">
        <ele>179.2</ele>
        <time>2024-04-16T14:27:12Z</time>
      </trkpt>
      <trkpt lat="50.12044" lon="4.17406">
        <ele>179.2</ele>
        <time>2024-04-16T14:27:13Z</time>
      </trkpt>
      <trkpt lat="50.12041" lon="4.17417">
        <ele>179.2</ele>
        <time>2024-04-16T14:27:14Z</time>
      </trkpt>
      <trkpt lat="50.12039" lon="4.17427">
        <ele>179.2</ele>
        <time>2024-04-16T14:27:15Z</time>
      </trkpt>
      <trkpt lat="50.12036" lon="4.17438">
        <ele>179.2</ele>
        <time>2024-04-16T14:27:16Z</time>
      </trkpt>
      <trkpt lat="50.12034" lon="4.17448">
        <ele>179.4</ele>
        <time>2024-04-16T14:27:17Z</time>
      </trkpt>
      <trkpt lat="50.12031" lon="4.17458">
        <ele>179.4</ele>
        <time>2024-04-16T14:27:18Z</time>
      </trkpt>
      <trkpt lat="50.12029" lon="4.17468">
        <ele>179.4</ele>
        <time>2024-04-16T14:27:19Z</time>
      </trkpt>
      <trkpt lat="50.12027" lon="4.17478">
        <ele>179.4</ele>
        <time>2024-04-16T14:27:20Z</time>
      </trkpt>
      <trkpt lat="50.12024" lon="4.17488">
        <ele>179.4</ele>
        <time>2024-04-16T14:27:21Z</time>
      </trkpt>
      <trkpt lat="50.12022" lon="4.17498">
        <ele>179.4</ele>
        <time>2024-04-16T14:27:22Z</time>
      </trkpt>
      <trkpt lat="50.12019" lon="4.17508">
        <ele>179.6</ele>
        <time>2024-04-16T14:27:23Z</time>
      </trkpt>
      <trkpt lat="50.12017" lon="4.17518">
        <ele>179.6</ele>
        <time>2024-04-16T14:27:24Z</time>
      </trkpt>
      <trkpt lat="50.12015" lon="4.17527">
        <ele>179.6</ele>
        <time>2024-04-16T14:27:25Z</time>
      </trkpt>
      <trkpt lat="50.12013" lon="4.17537">
        <ele>179.6</ele>
        <time>2024-04-16T14:27:26Z</time>
      </trkpt>
      <trkpt lat="50.12011" lon="4.17547">
        <ele>179.8</ele>
        <time>2024-04-16T14:27:27Z</time>
      </trkpt>
      <trkpt lat="50.12009" lon="4.17556">
        <ele>179.8</ele>
        <time>2024-04-16T14:27:28Z</time>
      </trkpt>
      <trkpt lat="50.12007" lon="4.17566">
        <ele>180.2</ele>
        <time>2024-04-16T14:27:29Z</time>
      </trkpt>
      <trkpt lat="50.12005" lon="4.17576">
        <ele>180.2</ele>
        <time>2024-04-16T14:27:30Z</time>
      </trkpt>
      <trkpt lat="50.12003" lon="4.17585">
        <ele>180.6</ele>
        <time>2024-04-16T14:27:31Z</time>
      </trkpt>
      <trkpt lat="50.12002" lon="4.17595">
        <ele>180.6</ele>
        <time>2024-04-16T14:27:32Z</time>
      </trkpt>
      <trkpt lat="50.12" lon="4.17605">
        <ele>180.8</ele>
        <time>2024-04-16T14:27:33Z</time>
      </trkpt>
      <trkpt lat="50.11998" lon="4.17615">
        <ele>180.8</ele>
        <time>2024-04-16T14:27:34Z</time>
      </trkpt>
      <trkpt lat="50.11996" lon="4.17625">
        <ele>180.8</ele>
        <time>2024-04-16T14:27:35Z</time>
      </trkpt>
      <trkpt lat="50.11995" lon="4.17635">
        <ele>180.8</ele>
        <time>2024-04-16T14:27:36Z</time>
      </trkpt>
      <trkpt lat="50.11994" lon="4.17646">
        <ele>180.8</ele>
        <time>2024-04-16T14:27:37Z</time>
      </trkpt>
      <trkpt lat="50.11992" lon="4.17656">
        <ele>181</ele>
        <time>2024-04-16T14:27:38Z</time>
      </trkpt>
      <trkpt lat="50.11991" lon="4.17667">
        <ele>180.8</ele>
        <time>2024-04-16T14:27:39Z</time>
      </trkpt>
      <trkpt lat="50.1199" lon="4.17678">
        <ele>180.8</ele>
        <time>2024-04-16T14:27:40Z</time>
      </trkpt>
      <trkpt lat="50.11988" lon="4.17689">
        <ele>180.8</ele>
        <time>2024-04-16T14:27:41Z</time>
      </trkpt>
      <trkpt lat="50.11987" lon="4.177">
        <ele>181</ele>
        <time>2024-04-16T14:27:42Z</time>
      </trkpt>
      <trkpt lat="50.11986" lon="4.17712">
        <ele>181</ele>
        <time>2024-04-16T14:27:43Z</time>
      </trkpt>
      <trkpt lat="50.11984" lon="4.17724">
        <ele>180.8</ele>
        <time>2024-04-16T14:27:44Z</time>
      </trkpt>
      <trkpt lat="50.11982" lon="4.17736">
        <ele>180.6</ele>
        <time>2024-04-16T14:27:45Z</time>
      </trkpt>
      <trkpt lat="50.1198" lon="4.17748">
        <ele>180.6</ele>
        <time>2024-04-16T14:27:46Z</time>
      </trkpt>
      <trkpt lat="50.11975" lon="4.1776">
        <ele>180.6</ele>
        <time>2024-04-16T14:27:47Z</time>
      </trkpt>
      <trkpt lat="50.1197" lon="4.17771">
        <ele>180.2</ele>
        <time>2024-04-16T14:27:48Z</time>
      </trkpt>
      <trkpt lat="50.11962" lon="4.17781">
        <ele>180</ele>
        <time>2024-04-16T14:27:49Z</time>
      </trkpt>
      <trkpt lat="50.11953" lon="4.17788">
        <ele>179.8</ele>
        <time>2024-04-16T14:27:50Z</time>
      </trkpt>
      <trkpt lat="50.11943" lon="4.17792">
        <ele>179.6</ele>
        <time>2024-04-16T14:27:51Z</time>
      </trkpt>
      <trkpt lat="50.11933" lon="4.17794">
        <ele>179.4</ele>
        <time>2024-04-16T14:27:52Z</time>
      </trkpt>
      <trkpt lat="50.11922" lon="4.17795">
        <ele>179.4</ele>
        <time>2024-04-16T14:27:53Z</time>
      </trkpt>
      <trkpt lat="50.11911" lon="4.17793">
        <ele>179.2</ele>
        <time>2024-04-16T14:27:54Z</time>
      </trkpt>
      <trkpt lat="50.119" lon="4.17791">
        <ele>178.6</ele>
        <time>2024-04-16T14:27:55Z</time>
      </trkpt>
      <trkpt lat="50.11889" lon="4.17789">
        <ele>178.6</ele>
        <time>2024-04-16T14:27:56Z</time>
      </trkpt>
      <trkpt lat="50.11878" lon="4.17788">
        <ele>177.8</ele>
        <time>2024-04-16T14:27:57Z</time>
      </trkpt>
      <trkpt lat="50.11868" lon="4.17788">
        <ele>176.6</ele>
        <time>2024-04-16T14:27:58Z</time>
      </trkpt>
      <trkpt lat="50.11858" lon="4.1779">
        <ele>175.6</ele>
        <time>2024-04-16T14:27:59Z</time>
      </trkpt>
      <trkpt lat="50.11848" lon="4.17792">
        <ele>174.6</ele>
        <time>2024-04-16T14:28:00Z</time>
      </trkpt>
      <trkpt lat="50.11839" lon="4.17796">
        <ele>174.2</ele>
        <time>2024-04-16T14:28:01Z</time>
      </trkpt>
      <trkpt lat="50.1183" lon="4.17801">
        <ele>173.6</ele>
        <time>2024-04-16T14:28:02Z</time>
      </trkpt>
      <trkpt lat="50.11822" lon="4.17807">
        <ele>173</ele>
        <time>2024-04-16T14:28:03Z</time>
      </trkpt>
      <trkpt lat="50.11815" lon="4.17814">
        <ele>172.6</ele>
        <time>2024-04-16T14:28:04Z</time>
      </trkpt>
      <trkpt lat="50.11808" lon="4.17822">
        <ele>172.4</ele>
        <time>2024-04-16T14:28:05Z</time>
      </trkpt>
      <trkpt lat="50.11802" lon="4.17829">
        <ele>172.4</ele>
        <time>2024-04-16T14:28:06Z</time>
      </trkpt>
      <trkpt lat="50.11796" lon="4.17835">
        <ele>172.2</ele>
        <time>2024-04-16T14:28:07Z</time>
      </trkpt>
      <trkpt lat="50.11789" lon="4.17842">
        <ele>172.4</ele>
        <time>2024-04-16T14:28:08Z</time>
      </trkpt>
      <trkpt lat="50.11783" lon="4.17848">
        <ele>172.2</ele>
        <time>2024-04-16T14:28:09Z</time>
      </trkpt>
      <trkpt lat="50.11776" lon="4.17855">
        <ele>172.2</ele>
        <time>2024-04-16T14:28:10Z</time>
      </trkpt>
      <trkpt lat="50.1177" lon="4.17861">
        <ele>172.2</ele>
        <time>2024-04-16T14:28:11Z</time>
      </trkpt>
      <trkpt lat="50.11762" lon="4.17866">
        <ele>172.2</ele>
        <time>2024-04-16T14:28:12Z</time>
      </trkpt>
      <trkpt lat="50.11755" lon="4.17871">
        <ele>172.2</ele>
        <time>2024-04-16T14:28:13Z</time>
      </trkpt>
      <trkpt lat="50.11747" lon="4.17874">
        <ele>172.2</ele>
        <time>2024-04-16T14:28:14Z</time>
      </trkpt>
      <trkpt lat="50.1174" lon="4.17877">
        <ele>172.2</ele>
        <time>2024-04-16T14:28:15Z</time>
      </trkpt>
      <trkpt lat="50.11733" lon="4.1788">
        <ele>172.4</ele>
        <time>2024-04-16T14:28:16Z</time>
      </trkpt>
      <trkpt lat="50.11725" lon="4.17882">
        <ele>172.4</ele>
        <time>2024-04-16T14:28:17Z</time>
      </trkpt>
      <trkpt lat="50.11719" lon="4.17885">
        <ele>172.4</ele>
        <time>2024-04-16T14:28:18Z</time>
      </trkpt>
      <trkpt lat="50.11712" lon="4.17888">
        <ele>172.6</ele>
        <time>2024-04-16T14:28:19Z</time>
      </trkpt>
      <trkpt lat="50.11706" lon="4.17891">
        <ele>172.6</ele>
        <time>2024-04-16T14:28:20Z</time>
      </trkpt>
      <trkpt lat="50.117" lon="4.17894">
        <ele>172.8</ele>
        <time>2024-04-16T14:28:21Z</time>
      </trkpt>
      <trkpt lat="50.11694" lon="4.17898">
        <ele>172.8</ele>
        <time>2024-04-16T14:28:22Z</time>
      </trkpt>
      <trkpt lat="50.11688" lon="4.17901">
        <ele>172.8</ele>
        <time>2024-04-16T14:28:23Z</time>
      </trkpt>
      <trkpt lat="50.11682" lon="4.17905">
        <ele>173</ele>
        <time>2024-04-16T14:28:24Z</time>
      </trkpt>
      <trkpt lat="50.11677" lon="4.17909">
        <ele>173</ele>
        <time>2024-04-16T14:28:25Z</time>
      </trkpt>
      <trkpt lat="50.11672" lon="4.17913">
        <ele>173</ele>
        <time>2024-04-16T14:28:26Z</time>
      </trkpt>
      <trkpt lat="50.11668" lon="4.17916">
        <ele>173</ele>
        <time>2024-04-16T14:28:27Z</time>
      </trkpt>
      <trkpt lat="50.11663" lon="4.1792">
        <ele>173</ele>
        <time>2024-04-16T14:28:28Z</time>
      </trkpt>
      <trkpt lat="50.11659" lon="4.17924">
        <ele>173.2</ele>
        <time>2024-04-16T14:28:29Z</time>
      </trkpt>
      <trkpt lat="50.11654" lon="4.17928">
        <ele>173.8</ele>
        <time>2024-04-16T14:28:30Z</time>
      </trkpt>
      <trkpt lat="50.1165" lon="4.17932">
        <ele>174.2</ele>
        <time>2024-04-16T14:28:31Z</time>
      </trkpt>
      <trkpt lat="50.11646" lon="4.17936">
        <ele>174.6</ele>
        <time>2024-04-16T14:28:32Z</time>
      </trkpt>
      <trkpt lat="50.11642" lon="4.17939">
        <ele>175.2</ele>
        <time>2024-04-16T14:28:33Z</time>
      </trkpt>
      <trkpt lat="50.11639" lon="4.17943">
        <ele>175.6</ele>
        <time>2024-04-16T14:28:34Z</time>
      </trkpt>
      <trkpt lat="50.11635" lon="4.17946">
        <ele>176.6</ele>
        <time>2024-04-16T14:28:35Z</time>
      </trkpt>
      <trkpt lat="50.11631" lon="4.1795">
        <ele>177.2</ele>
        <time>2024-04-16T14:28:36Z</time>
      </trkpt>
      <trkpt lat="50.11628" lon="4.17953">
        <ele>177.6</ele>
        <time>2024-04-16T14:28:37Z</time>
      </trkpt>
      <trkpt lat="50.11624" lon="4.17957">
        <ele>177.8</ele>
        <time>2024-04-16T14:28:38Z</time>
      </trkpt>
      <trkpt lat="50.11621" lon="4.17961">
        <ele>177.8</ele>
        <time>2024-04-16T14:28:39Z</time>
      </trkpt>
      <trkpt lat="50.11617" lon="4.17964">
        <ele>178.6</ele>
        <time>2024-04-16T14:28:40Z</time>
      </trkpt>
      <trkpt lat="50.11614" lon="4.17968">
        <ele>179</ele>
        <time>2024-04-16T14:28:41Z</time>
      </trkpt>
      <trkpt lat="50.1161" lon="4.17972">
        <ele>179.6</ele>
        <time>2024-04-16T14:28:42Z</time>
      </trkpt>
      <trkpt lat="50.11607" lon="4.17975">
        <ele>180.2</ele>
        <time>2024-04-16T14:28:43Z</time>
      </trkpt>
      <trkpt lat="50.11603" lon="4.17979">
        <ele>181</ele>
        <time>2024-04-16T14:28:44Z</time>
      </trkpt>
      <trkpt lat="50.116" lon="4.17983">
        <ele>181.6</ele>
        <time>2024-04-16T14:28:45Z</time>
      </trkpt>
      <trkpt lat="50.11597" lon="4.17987">
        <ele>182</ele>
        <time>2024-04-16T14:28:46Z</time>
      </trkpt>
      <trkpt lat="50.11594" lon="4.17992">
        <ele>182.4</ele>
        <time>2024-04-16T14:28:47Z</time>
      </trkpt>
      <trkpt lat="50.11591" lon="4.17996">
        <ele>182.6</ele>
        <time>2024-04-16T14:28:48Z</time>
      </trkpt>
      <trkpt lat="50.11588" lon="4.18001">
        <ele>183</ele>
        <time>2024-04-16T14:28:49Z</time>
      </trkpt>
      <trkpt lat="50.11585" lon="4.18005">
        <ele>183.4</ele>
        <time>2024-04-16T14:28:50Z</time>
      </trkpt>
      <trkpt lat="50.11582" lon="4.1801">
        <ele>183.8</ele>
        <time>2024-04-16T14:28:51Z</time>
      </trkpt>
      <trkpt lat="50.11579" lon="4.18014">
        <ele>184.2</ele>
        <time>2024-04-16T14:28:52Z</time>
      </trkpt>
      <trkpt lat="50.11576" lon="4.18019">
        <ele>184.6</ele>
        <time>2024-04-16T14:28:53Z</time>
      </trkpt>
      <trkpt lat="50.11573" lon="4.18024">
        <ele>185.2</ele>
        <time>2024-04-16T14:28:54Z</time>
      </trkpt>
      <trkpt lat="50.1157" lon="4.18029">
        <ele>185.4</ele>
        <time>2024-04-16T14:28:55Z</time>
      </trkpt>
      <trkpt lat="50.11567" lon="4.18034">
        <ele>185.6</ele>
        <time>2024-04-16T14:28:56Z</time>
      </trkpt>
      <trkpt lat="50.11564" lon="4.18039">
        <ele>186</ele>
        <time>2024-04-16T14:28:57Z</time>
      </trkpt>
      <trkpt lat="50.11561" lon="4.18044">
        <ele>186.2</ele>
        <time>2024-04-16T14:28:58Z</time>
      </trkpt>
      <trkpt lat="50.11557" lon="4.1805">
        <ele>186.4</ele>
        <time>2024-04-16T14:28:59Z</time>
      </trkpt>
      <trkpt lat="50.11554" lon="4.18055">
        <ele>186.6</ele>
        <time>2024-04-16T14:29:00Z</time>
      </trkpt>
      <trkpt lat="50.11549" lon="4.18061">
        <ele>186.6</ele>
        <time>2024-04-16T14:29:01Z</time>
      </trkpt>
      <trkpt lat="50.11544" lon="4.18067">
        <ele>187</ele>
        <time>2024-04-16T14:29:02Z</time>
      </trkpt>
      <trkpt lat="50.11539" lon="4.18073">
        <ele>187.2</ele>
        <time>2024-04-16T14:29:03Z</time>
      </trkpt>
      <trkpt lat="50.11532" lon="4.18078">
        <ele>187.4</ele>
        <time>2024-04-16T14:29:04Z</time>
      </trkpt>
      <trkpt lat="50.11525" lon="4.18084">
        <ele>187.8</ele>
        <time>2024-04-16T14:29:05Z</time>
      </trkpt>
      <trkpt lat="50.11518" lon="4.1809">
        <ele>187.8</ele>
        <time>2024-04-16T14:29:06Z</time>
      </trkpt>
      <trkpt lat="50.11511" lon="4.18096">
        <ele>187.8</ele>
        <time>2024-04-16T14:29:07Z</time>
      </trkpt>
      <trkpt lat="50.11504" lon="4.18104">
        <ele>187.8</ele>
        <time>2024-04-16T14:29:08Z</time>
      </trkpt>
      <trkpt lat="50.11498" lon="4.18113">
        <ele>187.6</ele>
        <time>2024-04-16T14:29:09Z</time>
      </trkpt>
      <trkpt lat="50.11491" lon="4.18123">
        <ele>187.8</ele>
        <time>2024-04-16T14:29:10Z</time>
      </trkpt>
      <trkpt lat="50.11483" lon="4.18133">
        <ele>187.8</ele>
        <time>2024-04-16T14:29:11Z</time>
      </trkpt>
      <trkpt lat="50.11476" lon="4.18143">
        <ele>187.8</ele>
        <time>2024-04-16T14:29:12Z</time>
      </trkpt>
      <trkpt lat="50.11467" lon="4.18153">
        <ele>187.4</ele>
        <time>2024-04-16T14:29:13Z</time>
      </trkpt>
      <trkpt lat="50.11457" lon="4.18161">
        <ele>187</ele>
        <time>2024-04-16T14:29:14Z</time>
      </trkpt>
      <trkpt lat="50.11447" lon="4.1817">
        <ele>186.8</ele>
        <time>2024-04-16T14:29:15Z</time>
      </trkpt>
      <trkpt lat="50.11436" lon="4.18178">
        <ele>186</ele>
        <time>2024-04-16T14:29:16Z</time>
      </trkpt>
      <trkpt lat="50.11426" lon="4.18186">
        <ele>185.2</ele>
        <time>2024-04-16T14:29:17Z</time>
      </trkpt>
      <trkpt lat="50.11415" lon="4.18194">
        <ele>184.2</ele>
        <time>2024-04-16T14:29:18Z</time>
      </trkpt>
      <trkpt lat="50.11405" lon="4.18203">
        <ele>183.6</ele>
        <time>2024-04-16T14:29:19Z</time>
      </trkpt>
      <trkpt lat="50.11395" lon="4.18211">
        <ele>182.4</ele>
        <time>2024-04-16T14:29:20Z</time>
      </trkpt>
      <trkpt lat="50.11385" lon="4.18219">
        <ele>181.2</ele>
        <time>2024-04-16T14:29:21Z</time>
      </trkpt>
      <trkpt lat="50.11375" lon="4.18227">
        <ele>179.6</ele>
        <time>2024-04-16T14:29:22Z</time>
      </trkpt>
      <trkpt lat="50.11366" lon="4.18235">
        <ele>179.6</ele>
        <time>2024-04-16T14:29:23Z</time>
      </trkpt>
      <trkpt lat="50.11357" lon="4.18242">
        <ele>177.6</ele>
        <time>2024-04-16T14:29:24Z</time>
      </trkpt>
      <trkpt lat="50.1135" lon="4.18249">
        <ele>176.8</ele>
        <time>2024-04-16T14:29:25Z</time>
      </trkpt>
      <trkpt lat="50.11342" lon="4.18256">
        <ele>176.2</ele>
        <time>2024-04-16T14:29:26Z</time>
      </trkpt>
      <trkpt lat="50.11335" lon="4.18263">
        <ele>176</ele>
        <time>2024-04-16T14:29:27Z</time>
      </trkpt>
      <trkpt lat="50.11329" lon="4.1827">
        <ele>176</ele>
        <time>2024-04-16T14:29:28Z</time>
      </trkpt>
      <trkpt lat="50.11323" lon="4.18276">
        <ele>176</ele>
        <time>2024-04-16T14:29:29Z</time>
      </trkpt>
      <trkpt lat="50.11317" lon="4.18281">
        <ele>176</ele>
        <time>2024-04-16T14:29:30Z</time>
      </trkpt>
      <trkpt lat="50.1131" lon="4.18287">
        <ele>175.8</ele>
        <time>2024-04-16T14:29:31Z</time>
      </trkpt>
      <trkpt lat="50.11304" lon="4.18293">
        <ele>175.8</ele>
        <time>2024-04-16T14:29:32Z</time>
      </trkpt>
      <trkpt lat="50.11298" lon="4.18298">
        <ele>175.8</ele>
        <time>2024-04-16T14:29:33Z</time>
      </trkpt>
      <trkpt lat="50.11291" lon="4.18303">
        <ele>176</ele>
        <time>2024-04-16T14:29:34Z</time>
      </trkpt>
      <trkpt lat="50.11284" lon="4.18307">
        <ele>176.4</ele>
        <time>2024-04-16T14:29:35Z</time>
      </trkpt>
      <trkpt lat="50.11277" lon="4.18311">
        <ele>176.6</ele>
        <time>2024-04-16T14:29:36Z</time>
      </trkpt>
      <trkpt lat="50.1127" lon="4.18314">
        <ele>176.8</ele>
        <time>2024-04-16T14:29:37Z</time>
      </trkpt>
      <trkpt lat="50.11262" lon="4.18318">
        <ele>176.8</ele>
        <time>2024-04-16T14:29:38Z</time>
      </trkpt>
      <trkpt lat="50.11255" lon="4.18321">
        <ele>176.8</ele>
        <time>2024-04-16T14:29:39Z</time>
      </trkpt>
      <trkpt lat="50.11247" lon="4.18324">
        <ele>177</ele>
        <time>2024-04-16T14:29:40Z</time>
      </trkpt>
      <trkpt lat="50.1124" lon="4.18326">
        <ele>176.8</ele>
        <time>2024-04-16T14:29:41Z</time>
      </trkpt>
      <trkpt lat="50.11232" lon="4.18329">
        <ele>177</ele>
        <time>2024-04-16T14:29:42Z</time>
      </trkpt>
      <trkpt lat="50.11225" lon="4.18331">
        <ele>177</ele>
        <time>2024-04-16T14:29:43Z</time>
      </trkpt>
      <trkpt lat="50.11218" lon="4.18334">
        <ele>177</ele>
        <time>2024-04-16T14:29:44Z</time>
      </trkpt>
      <trkpt lat="50.11212" lon="4.18336">
        <ele>177</ele>
        <time>2024-04-16T14:29:45Z</time>
      </trkpt>
      <trkpt lat="50.11205" lon="4.18338">
        <ele>176.8</ele>
        <time>2024-04-16T14:29:46Z</time>
      </trkpt>
      <trkpt lat="50.11199" lon="4.18339">
        <ele>176.8</ele>
        <time>2024-04-16T14:29:47Z</time>
      </trkpt>
      <trkpt lat="50.11192" lon="4.1834">
        <ele>176.6</ele>
        <time>2024-04-16T14:29:48Z</time>
      </trkpt>
      <trkpt lat="50.11186" lon="4.18341">
        <ele>176.6</ele>
        <time>2024-04-16T14:29:49Z</time>
      </trkpt>
      <trkpt lat="50.1118" lon="4.18342">
        <ele>176.6</ele>
        <time>2024-04-16T14:29:50Z</time>
      </trkpt>
      <trkpt lat="50.11175" lon="4.18343">
        <ele>176.6</ele>
        <time>2024-04-16T14:29:51Z</time>
      </trkpt>
      <trkpt lat="50.11169" lon="4.18345">
        <ele>176.8</ele>
        <time>2024-04-16T14:29:52Z</time>
      </trkpt>
      <trkpt lat="50.11164" lon="4.18346">
        <ele>176.8</ele>
        <time>2024-04-16T14:29:53Z</time>
      </trkpt>
      <trkpt lat="50.11159" lon="4.18347">
        <ele>176.8</ele>
        <time>2024-04-16T14:29:54Z</time>
      </trkpt>
      <trkpt lat="50.11154" lon="4.18349">
        <ele>176.6</ele>
        <time>2024-04-16T14:29:55Z</time>
      </trkpt>
      <trkpt lat="50.11149" lon="4.18351">
        <ele>176.6</ele>
        <time>2024-04-16T14:29:56Z</time>
      </trkpt>
      <trkpt lat="50.11145" lon="4.18353">
        <ele>177</ele>
        <time>2024-04-16T14:29:57Z</time>
      </trkpt>
      <trkpt lat="50.1114" lon="4.18356">
        <ele>177.4</ele>
        <time>2024-04-16T14:29:58Z</time>
      </trkpt>
      <trkpt lat="50.11136" lon="4.18358">
        <ele>177.6</ele>
        <time>2024-04-16T14:29:59Z</time>
      </trkpt>
      <trkpt lat="50.11131" lon="4.1836">
        <ele>178.2</ele>
        <time>2024-04-16T14:30:00Z</time>
      </trkpt>
      <trkpt lat="50.11127" lon="4.18363">
        <ele>179.6</ele>
        <time>2024-04-16T14:30:01Z</time>
      </trkpt>
      <trkpt lat="50.11122" lon="4.18365">
        <ele>180.4</ele>
        <time>2024-04-16T14:30:02Z</time>
      </trkpt>
      <trkpt lat="50.11118" lon="4.18368">
        <ele>181</ele>
        <time>2024-04-16T14:30:03Z</time>
      </trkpt>
      <trkpt lat="50.11113" lon="4.18371">
        <ele>181.4</ele>
        <time>2024-04-16T14:30:04Z</time>
      </trkpt>
      <trkpt lat="50.11108" lon="4.18374">
        <ele>181.8</ele>
        <time>2024-04-16T14:30:05Z</time>
      </trkpt>
      <trkpt lat="50.11104" lon="4.18377">
        <ele>182.4</ele>
        <time>2024-04-16T14:30:06Z</time>
      </trkpt>
      <trkpt lat="50.11099" lon="4.18381">
        <ele>182.4</ele>
        <time>2024-04-16T14:30:07Z</time>
      </trkpt>
      <trkpt lat="50.11095" lon="4.18384">
        <ele>182.4</ele>
        <time>2024-04-16T14:30:08Z</time>
      </trkpt>
      <trkpt lat="50.1109" lon="4.18388">
        <ele>182.8</ele>
        <time>2024-04-16T14:30:09Z</time>
      </trkpt>
      <trkpt lat="50.11086" lon="4.18392">
        <ele>183</ele>
        <time>2024-04-16T14:30:10Z</time>
      </trkpt>
      <trkpt lat="50.11081" lon="4.18397">
        <ele>183</ele>
        <time>2024-04-16T14:30:11Z</time>
      </trkpt>
      <trkpt lat="50.11077" lon="4.18402">
        <ele>183.2</ele>
        <time>2024-04-16T14:30:12Z</time>
      </trkpt>
      <trkpt lat="50.11073" lon="4.18407">
        <ele>183.2</ele>
        <time>2024-04-16T14:30:13Z</time>
      </trkpt>
      <trkpt lat="50.11069" lon="4.18414">
        <ele>183.6</ele>
        <time>2024-04-16T14:30:14Z</time>
      </trkpt>
      <trkpt lat="50.11065" lon="4.1842">
        <ele>183.8</ele>
        <time>2024-04-16T14:30:15Z</time>
      </trkpt>
      <trkpt lat="50.11061" lon="4.18427">
        <ele>184.4</ele>
        <time>2024-04-16T14:30:16Z</time>
      </trkpt>
      <trkpt lat="50.11057" lon="4.18434">
        <ele>184.6</ele>
        <time>2024-04-16T14:30:17Z</time>
      </trkpt>
      <trkpt lat="50.11054" lon="4.18441">
        <ele>185</ele>
        <time>2024-04-16T14:30:18Z</time>
      </trkpt>
      <trkpt lat="50.1105" lon="4.18449">
        <ele>185.2</ele>
        <time>2024-04-16T14:30:19Z</time>
      </trkpt>
      <trkpt lat="50.11045" lon="4.18456">
        <ele>185.6</ele>
        <time>2024-04-16T14:30:20Z</time>
      </trkpt>
      <trkpt lat="50.11041" lon="4.18464">
        <ele>186</ele>
        <time>2024-04-16T14:30:21Z</time>
      </trkpt>
      <trkpt lat="50.11037" lon="4.18472">
        <ele>186</ele>
        <time>2024-04-16T14:30:22Z</time>
      </trkpt>
      <trkpt lat="50.11032" lon="4.1848">
        <ele>186.4</ele>
        <time>2024-04-16T14:30:23Z</time>
      </trkpt>
      <trkpt lat="50.11027" lon="4.18487">
        <ele>186.6</ele>
        <time>2024-04-16T14:30:24Z</time>
      </trkpt>
      <trkpt lat="50.11023" lon="4.18495">
        <ele>186.4</ele>
        <time>2024-04-16T14:30:25Z</time>
      </trkpt>
      <trkpt lat="50.11018" lon="4.18502">
        <ele>186.6</ele>
        <time>2024-04-16T14:30:26Z</time>
      </trkpt>
      <trkpt lat="50.11013" lon="4.18509">
        <ele>186.4</ele>
        <time>2024-04-16T14:30:27Z</time>
      </trkpt>
      <trkpt lat="50.11008" lon="4.18517">
        <ele>186.6</ele>
        <time>2024-04-16T14:30:28Z</time>
      </trkpt>
      <trkpt lat="50.11003" lon="4.18525">
        <ele>186.6</ele>
        <time>2024-04-16T14:30:29Z</time>
      </trkpt>
      <trkpt lat="50.10998" lon="4.18533">
        <ele>186.4</ele>
        <time>2024-04-16T14:30:30Z</time>
      </trkpt>
      <trkpt lat="50.10993" lon="4.18541">
        <ele>186.6</ele>
        <time>2024-04-16T14:30:31Z</time>
      </trkpt>
      <trkpt lat="50.10988" lon="4.1855">
        <ele>186.4</ele>
        <time>2024-04-16T14:30:32Z</time>
      </trkpt>
      <trkpt lat="50.10982" lon="4.18558">
        <ele>186.6</ele>
        <time>2024-04-16T14:30:33Z</time>
      </trkpt>
      <trkpt lat="50.10976" lon="4.18566">
        <ele>186.4</ele>
        <time>2024-04-16T14:30:34Z</time>
      </trkpt>
      <trkpt lat="50.10971" lon="4.18574">
        <ele>186.2</ele>
        <time>2024-04-16T14:30:35Z</time>
      </trkpt>
      <trkpt lat="50.10965" lon="4.18583">
        <ele>185.6</ele>
        <time>2024-04-16T14:30:36Z</time>
      </trkpt>
      <trkpt lat="50.10959" lon="4.18592">
        <ele>184.8</ele>
        <time>2024-04-16T14:30:37Z</time>
      </trkpt>
      <trkpt lat="50.10954" lon="4.18601">
        <ele>184.4</ele>
        <time>2024-04-16T14:30:38Z</time>
      </trkpt>
      <trkpt lat="50.10949" lon="4.18611">
        <ele>184.2</ele>
        <time>2024-04-16T14:30:39Z</time>
      </trkpt>
      <trkpt lat="50.10944" lon="4.18621">
        <ele>184</ele>
        <time>2024-04-16T14:30:40Z</time>
      </trkpt>
      <trkpt lat="50.10939" lon="4.18632">
        <ele>183.6</ele>
        <time>2024-04-16T14:30:41Z</time>
      </trkpt>
      <trkpt lat="50.10934" lon="4.18643">
        <ele>183.4</ele>
        <time>2024-04-16T14:30:42Z</time>
      </trkpt>
      <trkpt lat="50.10928" lon="4.18654">
        <ele>183</ele>
        <time>2024-04-16T14:30:43Z</time>
      </trkpt>
      <trkpt lat="50.10923" lon="4.18666">
        <ele>182.2</ele>
        <time>2024-04-16T14:30:44Z</time>
      </trkpt>
      <trkpt lat="50.10918" lon="4.18677">
        <ele>181.8</ele>
        <time>2024-04-16T14:30:45Z</time>
      </trkpt>
      <trkpt lat="50.10913" lon="4.18689">
        <ele>181.6</ele>
        <time>2024-04-16T14:30:46Z</time>
      </trkpt>
      <trkpt lat="50.10908" lon="4.187">
        <ele>181.2</ele>
        <time>2024-04-16T14:30:47Z</time>
      </trkpt>
      <trkpt lat="50.10903" lon="4.18712">
        <ele>181.2</ele>
        <time>2024-04-16T14:30:48Z</time>
      </trkpt>
      <trkpt lat="50.10898" lon="4.18723">
        <ele>181</ele>
        <time>2024-04-16T14:30:49Z</time>
      </trkpt>
      <trkpt lat="50.10892" lon="4.18735">
        <ele>181</ele>
        <time>2024-04-16T14:30:50Z</time>
      </trkpt>
      <trkpt lat="50.10887" lon="4.18746">
        <ele>181</ele>
        <time>2024-04-16T14:30:51Z</time>
      </trkpt>
      <trkpt lat="50.10882" lon="4.18757">
        <ele>180.8</ele>
        <time>2024-04-16T14:30:52Z</time>
      </trkpt>
      <trkpt lat="50.10877" lon="4.18768">
        <ele>180.2</ele>
        <time>2024-04-16T14:30:53Z</time>
      </trkpt>
      <trkpt lat="50.10872" lon="4.18779">
        <ele>179.8</ele>
        <time>2024-04-16T14:30:54Z</time>
      </trkpt>
      <trkpt lat="50.10867" lon="4.18789">
        <ele>179.2</ele>
        <time>2024-04-16T14:30:55Z</time>
      </trkpt>
      <trkpt lat="50.10862" lon="4.188">
        <ele>178.8</ele>
        <time>2024-04-16T14:30:56Z</time>
      </trkpt>
      <trkpt lat="50.10857" lon="4.18812">
        <ele>178.4</ele>
        <time>2024-04-16T14:30:57Z</time>
      </trkpt>
      <trkpt lat="50.10852" lon="4.18823">
        <ele>178</ele>
        <time>2024-04-16T14:30:58Z</time>
      </trkpt>
      <trkpt lat="50.10848" lon="4.18834">
        <ele>177.6</ele>
        <time>2024-04-16T14:30:59Z</time>
      </trkpt>
      <trkpt lat="50.10843" lon="4.18845">
        <ele>177.2</ele>
        <time>2024-04-16T14:31:00Z</time>
      </trkpt>
      <trkpt lat="50.10839" lon="4.18856">
        <ele>177</ele>
        <time>2024-04-16T14:31:01Z</time>
      </trkpt>
      <trkpt lat="50.10834" lon="4.18868">
        <ele>176.8</ele>
        <time>2024-04-16T14:31:02Z</time>
      </trkpt>
      <trkpt lat="50.1083" lon="4.18879">
        <ele>176.6</ele>
        <time>2024-04-16T14:31:03Z</time>
      </trkpt>
      <trkpt lat="50.10827" lon="4.18891">
        <ele>176.6</ele>
        <time>2024-04-16T14:31:04Z</time>
      </trkpt>
      <trkpt lat="50.10825" lon="4.18904">
        <ele>176.4</ele>
        <time>2024-04-16T14:31:05Z</time>
      </trkpt>
      <trkpt lat="50.10823" lon="4.18916">
        <ele>176.4</ele>
        <time>2024-04-16T14:31:06Z</time>
      </trkpt>
      <trkpt lat="50.10821" lon="4.18928">
        <ele>176.2</ele>
        <time>2024-04-16T14:31:07Z</time>
      </trkpt>
      <trkpt lat="50.10819" lon="4.1894">
        <ele>176.2</ele>
        <time>2024-04-16T14:31:08Z</time>
      </trkpt>
      <trkpt lat="50.10818" lon="4.18952">
        <ele>176.2</ele>
        <time>2024-04-16T14:31:09Z</time>
      </trkpt>
      <trkpt lat="50.10817" lon="4.18964">
        <ele>176.4</ele>
        <time>2024-04-16T14:31:10Z</time>
      </trkpt>
      <trkpt lat="50.10815" lon="4.18975">
        <ele>176.4</ele>
        <time>2024-04-16T14:31:11Z</time>
      </trkpt>
      <trkpt lat="50.10814" lon="4.18986">
        <ele>176.4</ele>
        <time>2024-04-16T14:31:12Z</time>
      </trkpt>
      <trkpt lat="50.10812" lon="4.18997">
        <ele>176.4</ele>
        <time>2024-04-16T14:31:13Z</time>
      </trkpt>
      <trkpt lat="50.10811" lon="4.19007">
        <ele>176.4</ele>
        <time>2024-04-16T14:31:14Z</time>
      </trkpt>
      <trkpt lat="50.10809" lon="4.19018">
        <ele>176.4</ele>
        <time>2024-04-16T14:31:15Z</time>
      </trkpt>
      <trkpt lat="50.10807" lon="4.19028">
        <ele>176.4</ele>
        <time>2024-04-16T14:31:16Z</time>
      </trkpt>
      <trkpt lat="50.10805" lon="4.19038">
        <ele>176.4</ele>
        <time>2024-04-16T14:31:17Z</time>
      </trkpt>
      <trkpt lat="50.10802" lon="4.19048">
        <ele>176.8</ele>
        <time>2024-04-16T14:31:18Z</time>
      </trkpt>
      <trkpt lat="50.108" lon="4.19057">
        <ele>177</ele>
        <time>2024-04-16T14:31:19Z</time>
      </trkpt>
      <trkpt lat="50.10797" lon="4.19066">
        <ele>177.2</ele>
        <time>2024-04-16T14:31:20Z</time>
      </trkpt>
      <trkpt lat="50.10794" lon="4.19076">
        <ele>177.4</ele>
        <time>2024-04-16T14:31:21Z</time>
      </trkpt>
      <trkpt lat="50.10791" lon="4.19085">
        <ele>177.6</ele>
        <time>2024-04-16T14:31:22Z</time>
      </trkpt>
      <trkpt lat="50.10788" lon="4.19094">
        <ele>177.8</ele>
        <time>2024-04-16T14:31:23Z</time>
      </trkpt>
      <trkpt lat="50.10785" lon="4.19102">
        <ele>178</ele>
        <time>2024-04-16T14:31:24Z</time>
      </trkpt>
      <trkpt lat="50.10782" lon="4.19111">
        <ele>178</ele>
        <time>2024-04-16T14:31:25Z</time>
      </trkpt>
      <trkpt lat="50.10779" lon="4.19119">
        <ele>178.2</ele>
        <time>2024-04-16T14:31:26Z</time>
      </trkpt>
      <trkpt lat="50.10776" lon="4.19128">
        <ele>178.4</ele>
        <time>2024-04-16T14:31:27Z</time>
      </trkpt>
      <trkpt lat="50.10772" lon="4.19136">
        <ele>178.2</ele>
        <time>2024-04-16T14:31:28Z</time>
      </trkpt>
      <trkpt lat="50.10768" lon="4.19144">
        <ele>178.4</ele>
        <time>2024-04-16T14:31:29Z</time>
      </trkpt>
      <trkpt lat="50.10765" lon="4.19152">
        <ele>179</ele>
        <time>2024-04-16T14:31:30Z</time>
      </trkpt>
      <trkpt lat="50.10761" lon="4.1916">
        <ele>179.2</ele>
        <time>2024-04-16T14:31:31Z</time>
      </trkpt>
      <trkpt lat="50.10757" lon="4.19169">
        <ele>179.6</ele>
        <time>2024-04-16T14:31:32Z</time>
      </trkpt>
      <trkpt lat="50.10752" lon="4.19177">
        <ele>179.8</ele>
        <time>2024-04-16T14:31:33Z</time>
      </trkpt>
      <trkpt lat="50.10747" lon="4.19185">
        <ele>180.2</ele>
        <time>2024-04-16T14:31:34Z</time>
      </trkpt>
      <trkpt lat="50.10742" lon="4.19192">
        <ele>180.2</ele>
        <time>2024-04-16T14:31:35Z</time>
      </trkpt>
      <trkpt lat="50.10737" lon="4.192">
        <ele>180.4</ele>
        <time>2024-04-16T14:31:36Z</time>
      </trkpt>
      <trkpt lat="50.10732" lon="4.19207">
        <ele>180.4</ele>
        <time>2024-04-16T14:31:37Z</time>
      </trkpt>
      <trkpt lat="50.10726" lon="4.19214">
        <ele>180.6</ele>
        <time>2024-04-16T14:31:38Z</time>
      </trkpt>
      <trkpt lat="50.10721" lon="4.19222">
        <ele>180.4</ele>
        <time>2024-04-16T14:31:39Z</time>
      </trkpt>
      <trkpt lat="50.10715" lon="4.1923">
        <ele>180.6</ele>
        <time>2024-04-16T14:31:40Z</time>
      </trkpt>
      <trkpt lat="50.10709" lon="4.19238">
        <ele>180.6</ele>
        <time>2024-04-16T14:31:41Z</time>
      </trkpt>
      <trkpt lat="50.10703" lon="4.19247">
        <ele>180.4</ele>
        <time>2024-04-16T14:31:42Z</time>
      </trkpt>
      <trkpt lat="50.10698" lon="4.19257">
        <ele>180.6</ele>
        <time>2024-04-16T14:31:43Z</time>
      </trkpt>
      <trkpt lat="50.10693" lon="4.19266">
        <ele>180.6</ele>
        <time>2024-04-16T14:31:44Z</time>
      </trkpt>
      <trkpt lat="50.10688" lon="4.19276">
        <ele>180.4</ele>
        <time>2024-04-16T14:31:45Z</time>
      </trkpt>
      <trkpt lat="50.10683" lon="4.19286">
        <ele>180</ele>
        <time>2024-04-16T14:31:46Z</time>
      </trkpt>
      <trkpt lat="50.10678" lon="4.19296">
        <ele>179.8</ele>
        <time>2024-04-16T14:31:47Z</time>
      </trkpt>
      <trkpt lat="50.10672" lon="4.19306">
        <ele>179.4</ele>
        <time>2024-04-16T14:31:48Z</time>
      </trkpt>
      <trkpt lat="50.10667" lon="4.19314">
        <ele>179.4</ele>
        <time>2024-04-16T14:31:49Z</time>
      </trkpt>
      <trkpt lat="50.10661" lon="4.19323">
        <ele>179</ele>
        <time>2024-04-16T14:31:50Z</time>
      </trkpt>
      <trkpt lat="50.10654" lon="4.19329">
        <ele>178.8</ele>
        <time>2024-04-16T14:31:51Z</time>
      </trkpt>
      <trkpt lat="50.10646" lon="4.19334">
        <ele>178.6</ele>
        <time>2024-04-16T14:31:52Z</time>
      </trkpt>
      <trkpt lat="50.10639" lon="4.19338">
        <ele>178.4</ele>
        <time>2024-04-16T14:31:53Z</time>
      </trkpt>
      <trkpt lat="50.10632" lon="4.1934">
        <ele>178.4</ele>
        <time>2024-04-16T14:31:54Z</time>
      </trkpt>
      <trkpt lat="50.10624" lon="4.19341">
        <ele>178.2</ele>
        <time>2024-04-16T14:31:55Z</time>
      </trkpt>
      <trkpt lat="50.10617" lon="4.19342">
        <ele>177.8</ele>
        <time>2024-04-16T14:31:56Z</time>
      </trkpt>
      <trkpt lat="50.1061" lon="4.19343">
        <ele>177.8</ele>
        <time>2024-04-16T14:31:57Z</time>
      </trkpt>
      <trkpt lat="50.10602" lon="4.19343">
        <ele>177.8</ele>
        <time>2024-04-16T14:31:58Z</time>
      </trkpt>
      <trkpt lat="50.10595" lon="4.19344">
        <ele>177.8</ele>
        <time>2024-04-16T14:31:59Z</time>
      </trkpt>
      <trkpt lat="50.10588" lon="4.19345">
        <ele>177.8</ele>
        <time>2024-04-16T14:32:00Z</time>
      </trkpt>
      <trkpt lat="50.10581" lon="4.19345">
        <ele>177.6</ele>
        <time>2024-04-16T14:32:01Z</time>
      </trkpt>
      <trkpt lat="50.10574" lon="4.19344">
        <ele>177.6</ele>
        <time>2024-04-16T14:32:02Z</time>
      </trkpt>
      <trkpt lat="50.10567" lon="4.19344">
        <ele>177.6</ele>
        <time>2024-04-16T14:32:03Z</time>
      </trkpt>
      <trkpt lat="50.10561" lon="4.19343">
        <ele>177.6</ele>
        <time>2024-04-16T14:32:04Z</time>
      </trkpt>
      <trkpt lat="50.10554" lon="4.19342">
        <ele>177.6</ele>
        <time>2024-04-16T14:32:05Z</time>
      </trkpt>
      <trkpt lat="50.10548" lon="4.1934">
        <ele>177.6</ele>
        <time>2024-04-16T14:32:06Z</time>
      </trkpt>
      <trkpt lat="50.10542" lon="4.19339">
        <ele>177.8</ele>
        <time>2024-04-16T14:32:07Z</time>
      </trkpt>
      <trkpt lat="50.10536" lon="4.19338">
        <ele>177.6</ele>
        <time>2024-04-16T14:32:08Z</time>
      </trkpt>
      <trkpt lat="50.1053" lon="4.19337">
        <ele>177.6</ele>
        <time>2024-04-16T14:32:09Z</time>
      </trkpt>
      <trkpt lat="50.10523" lon="4.19336">
        <ele>177.8</ele>
        <time>2024-04-16T14:32:10Z</time>
      </trkpt>
      <trkpt lat="50.10517" lon="4.19335">
        <ele>178.2</ele>
        <time>2024-04-16T14:32:11Z</time>
      </trkpt>
      <trkpt lat="50.1051" lon="4.19334">
        <ele>178.2</ele>
        <time>2024-04-16T14:32:12Z</time>
      </trkpt>
      <trkpt lat="50.10502" lon="4.19333">
        <ele>178.2</ele>
        <time>2024-04-16T14:32:13Z</time>
      </trkpt>
      <trkpt lat="50.10495" lon="4.19332">
        <ele>178.2</ele>
        <time>2024-04-16T14:32:14Z</time>
      </trkpt>
      <trkpt lat="50.10487" lon="4.19331">
        <ele>178.2</ele>
        <time>2024-04-16T14:32:15Z</time>
      </trkpt>
      <trkpt lat="50.10478" lon="4.1933">
        <ele>178.2</ele>
        <time>2024-04-16T14:32:16Z</time>
      </trkpt>
      <trkpt lat="50.1047" lon="4.19328">
        <ele>178.2</ele>
        <time>2024-04-16T14:32:17Z</time>
      </trkpt>
      <trkpt lat="50.10462" lon="4.19327">
        <ele>178.2</ele>
        <time>2024-04-16T14:32:18Z</time>
      </trkpt>
      <trkpt lat="50.10453" lon="4.19326">
        <ele>178.2</ele>
        <time>2024-04-16T14:32:19Z</time>
      </trkpt>
      <trkpt lat="50.10445" lon="4.19324">
        <ele>178.4</ele>
        <time>2024-04-16T14:32:20Z</time>
      </trkpt>
      <trkpt lat="50.10436" lon="4.19323">
        <ele>178.4</ele>
        <time>2024-04-16T14:32:21Z</time>
      </trkpt>
      <trkpt lat="50.10428" lon="4.19321">
        <ele>178.2</ele>
        <time>2024-04-16T14:32:22Z</time>
      </trkpt>
      <trkpt lat="50.1042" lon="4.1932">
        <ele>178.2</ele>
        <time>2024-04-16T14:32:23Z</time>
      </trkpt>
      <trkpt lat="50.10412" lon="4.19318">
        <ele>177.4</ele>
        <time>2024-04-16T14:32:24Z</time>
      </trkpt>
      <trkpt lat="50.10404" lon="4.19318">
        <ele>177</ele>
        <time>2024-04-16T14:32:25Z</time>
      </trkpt>
      <trkpt lat="50.10396" lon="4.19317">
        <ele>176.4</ele>
        <time>2024-04-16T14:32:26Z</time>
      </trkpt>
      <trkpt lat="50.10388" lon="4.19317">
        <ele>176.2</ele>
        <time>2024-04-16T14:32:27Z</time>
      </trkpt>
      <trkpt lat="50.1038" lon="4.19317">
        <ele>176.2</ele>
        <time>2024-04-16T14:32:28Z</time>
      </trkpt>
      <trkpt lat="50.10372" lon="4.19317">
        <ele>176.2</ele>
        <time>2024-04-16T14:32:29Z</time>
      </trkpt>
      <trkpt lat="50.10364" lon="4.19317">
        <ele>176</ele>
        <time>2024-04-16T14:32:30Z</time>
      </trkpt>
      <trkpt lat="50.10357" lon="4.19317">
        <ele>176</ele>
        <time>2024-04-16T14:32:31Z</time>
      </trkpt>
      <trkpt lat="50.1035" lon="4.19317">
        <ele>176.2</ele>
        <time>2024-04-16T14:32:32Z</time>
      </trkpt>
      <trkpt lat="50.10343" lon="4.19317">
        <ele>176</ele>
        <time>2024-04-16T14:32:33Z</time>
      </trkpt>
      <trkpt lat="50.10336" lon="4.19317">
        <ele>176</ele>
        <time>2024-04-16T14:32:34Z</time>
      </trkpt>
      <trkpt lat="50.10329" lon="4.19318">
        <ele>176</ele>
        <time>2024-04-16T14:32:35Z</time>
      </trkpt>
      <trkpt lat="50.10322" lon="4.19318">
        <ele>176</ele>
        <time>2024-04-16T14:32:36Z</time>
      </trkpt>
      <trkpt lat="50.10316" lon="4.19318">
        <ele>176.2</ele>
        <time>2024-04-16T14:32:37Z</time>
      </trkpt>
      <trkpt lat="50.10309" lon="4.19318">
        <ele>176.4</ele>
        <time>2024-04-16T14:32:38Z</time>
      </trkpt>
      <trkpt lat="50.10303" lon="4.19318">
        <ele>176.6</ele>
        <time>2024-04-16T14:32:39Z</time>
      </trkpt>
      <trkpt lat="50.10297" lon="4.19318">
        <ele>176.6</ele>
        <time>2024-04-16T14:32:40Z</time>
      </trkpt>
      <trkpt lat="50.1029" lon="4.19318">
        <ele>176.6</ele>
        <time>2024-04-16T14:32:41Z</time>
      </trkpt>
      <trkpt lat="50.10284" lon="4.19318">
        <ele>177</ele>
        <time>2024-04-16T14:32:42Z</time>
      </trkpt>
      <trkpt lat="50.10278" lon="4.19317">
        <ele>177.2</ele>
        <time>2024-04-16T14:32:43Z</time>
      </trkpt>
      <trkpt lat="50.10271" lon="4.19317">
        <ele>177.6</ele>
        <time>2024-04-16T14:32:44Z</time>
      </trkpt>
      <trkpt lat="50.10265" lon="4.19317">
        <ele>177.8</ele>
        <time>2024-04-16T14:32:45Z</time>
      </trkpt>
      <trkpt lat="50.10259" lon="4.19317">
        <ele>178.2</ele>
        <time>2024-04-16T14:32:46Z</time>
      </trkpt>
      <trkpt lat="50.10252" lon="4.19317">
        <ele>178.6</ele>
        <time>2024-04-16T14:32:47Z</time>
      </trkpt>
      <trkpt lat="50.10246" lon="4.19317">
        <ele>178.8</ele>
        <time>2024-04-16T14:32:48Z</time>
      </trkpt>
      <trkpt lat="50.10239" lon="4.19317">
        <ele>179.4</ele>
        <time>2024-04-16T14:32:49Z</time>
      </trkpt>
      <trkpt lat="50.10233" lon="4.19317">
        <ele>179.6</ele>
        <time>2024-04-16T14:32:50Z</time>
      </trkpt>
      <trkpt lat="50.10226" lon="4.19317">
        <ele>179.8</ele>
        <time>2024-04-16T14:32:51Z</time>
      </trkpt>
      <trkpt lat="50.1022" lon="4.19317">
        <ele>179.8</ele>
        <time>2024-04-16T14:32:52Z</time>
      </trkpt>
      <trkpt lat="50.10213" lon="4.19317">
        <ele>180.2</ele>
        <time>2024-04-16T14:32:53Z</time>
      </trkpt>
      <trkpt lat="50.10206" lon="4.19317">
        <ele>180.4</ele>
        <time>2024-04-16T14:32:54Z</time>
      </trkpt>
      <trkpt lat="50.102" lon="4.19317">
        <ele>180.6</ele>
        <time>2024-04-16T14:32:55Z</time>
      </trkpt>
      <trkpt lat="50.10193" lon="4.19317">
        <ele>180.8</ele>
        <time>2024-04-16T14:32:56Z</time>
      </trkpt>
      <trkpt lat="50.10186" lon="4.19316">
        <ele>181.2</ele>
        <time>2024-04-16T14:32:57Z</time>
      </trkpt>
      <trkpt lat="50.1018" lon="4.19316">
        <ele>181.2</ele>
        <time>2024-04-16T14:32:58Z</time>
      </trkpt>
      <trkpt lat="50.10173" lon="4.19316">
        <ele>181.4</ele>
        <time>2024-04-16T14:32:59Z</time>
      </trkpt>
      <trkpt lat="50.10166" lon="4.19316">
        <ele>181.6</ele>
        <time>2024-04-16T14:33:00Z</time>
      </trkpt>
      <trkpt lat="50.1016" lon="4.19316">
        <ele>181.8</ele>
        <time>2024-04-16T14:33:01Z</time>
      </trkpt>
      <trkpt lat="50.10153" lon="4.19317">
        <ele>181.8</ele>
        <time>2024-04-16T14:33:02Z</time>
      </trkpt>
      <trkpt lat="50.10146" lon="4.19317">
        <ele>181.8</ele>
        <time>2024-04-16T14:33:03Z</time>
      </trkpt>
      <trkpt lat="50.1014" lon="4.19318">
        <ele>182.2</ele>
        <time>2024-04-16T14:33:04Z</time>
      </trkpt>
      <trkpt lat="50.10133" lon="4.1932">
        <ele>182.4</ele>
        <time>2024-04-16T14:33:05Z</time>
      </trkpt>
      <trkpt lat="50.10127" lon="4.19322">
        <ele>182.6</ele>
        <time>2024-04-16T14:33:06Z</time>
      </trkpt>
      <trkpt lat="50.1012" lon="4.19324">
        <ele>182.4</ele>
        <time>2024-04-16T14:33:07Z</time>
      </trkpt>
      <trkpt lat="50.10114" lon="4.19327">
        <ele>182.6</ele>
        <time>2024-04-16T14:33:08Z</time>
      </trkpt>
      <trkpt lat="50.10108" lon="4.1933">
        <ele>182.8</ele>
        <time>2024-04-16T14:33:09Z</time>
      </trkpt>
      <trkpt lat="50.10102" lon="4.19334">
        <ele>183</ele>
        <time>2024-04-16T14:33:10Z</time>
      </trkpt>
      <trkpt lat="50.10096" lon="4.19338">
        <ele>183</ele>
        <time>2024-04-16T14:33:11Z</time>
      </trkpt>
      <trkpt lat="50.10091" lon="4.19343">
        <ele>183.2</ele>
        <time>2024-04-16T14:33:12Z</time>
      </trkpt>
      <trkpt lat="50.10085" lon="4.19347">
        <ele>183.4</ele>
        <time>2024-04-16T14:33:13Z</time>
      </trkpt>
      <trkpt lat="50.10079" lon="4.19352">
        <ele>184</ele>
        <time>2024-04-16T14:33:14Z</time>
      </trkpt>
      <trkpt lat="50.10073" lon="4.19356">
        <ele>184.2</ele>
        <time>2024-04-16T14:33:15Z</time>
      </trkpt>
      <trkpt lat="50.10067" lon="4.19361">
        <ele>184.6</ele>
        <time>2024-04-16T14:33:16Z</time>
      </trkpt>
      <trkpt lat="50.10061" lon="4.19366">
        <ele>185.4</ele>
        <time>2024-04-16T14:33:17Z</time>
      </trkpt>
      <trkpt lat="50.10055" lon="4.1937">
        <ele>185.8</ele>
        <time>2024-04-16T14:33:18Z</time>
      </trkpt>
      <trkpt lat="50.10049" lon="4.19375">
        <ele>186.2</ele>
        <time>2024-04-16T14:33:19Z</time>
      </trkpt>
      <trkpt lat="50.10042" lon="4.19379">
        <ele>186.4</ele>
        <time>2024-04-16T14:33:20Z</time>
      </trkpt>
      <trkpt lat="50.10035" lon="4.19382">
        <ele>186.4</ele>
        <time>2024-04-16T14:33:21Z</time>
      </trkpt>
      <trkpt lat="50.10028" lon="4.19385">
        <ele>186.4</ele>
        <time>2024-04-16T14:33:22Z</time>
      </trkpt>
      <trkpt lat="50.10022" lon="4.19388">
        <ele>186.4</ele>
        <time>2024-04-16T14:33:23Z</time>
      </trkpt>
      <trkpt lat="50.10014" lon="4.1939">
        <ele>186.4</ele>
        <time>2024-04-16T14:33:24Z</time>
      </trkpt>
      <trkpt lat="50.10007" lon="4.19392">
        <ele>186.4</ele>
        <time>2024-04-16T14:33:25Z</time>
      </trkpt>
      <trkpt lat="50.1" lon="4.19393">
        <ele>186.6</ele>
        <time>2024-04-16T14:33:26Z</time>
      </trkpt>
      <trkpt lat="50.09993" lon="4.19394">
        <ele>186.4</ele>
        <time>2024-04-16T14:33:27Z</time>
      </trkpt>
      <trkpt lat="50.09985" lon="4.19395">
        <ele>186.4</ele>
        <time>2024-04-16T14:33:28Z</time>
      </trkpt>
      <trkpt lat="50.09978" lon="4.19396">
        <ele>186.4</ele>
        <time>2024-04-16T14:33:29Z</time>
      </trkpt>
      <trkpt lat="50.0997" lon="4.19396">
        <ele>186.4</ele>
        <time>2024-04-16T14:33:30Z</time>
      </trkpt>
      <trkpt lat="50.09962" lon="4.19397">
        <ele>186.2</ele>
        <time>2024-04-16T14:33:31Z</time>
      </trkpt>
      <trkpt lat="50.09954" lon="4.19398">
        <ele>186</ele>
        <time>2024-04-16T14:33:32Z</time>
      </trkpt>
      <trkpt lat="50.09945" lon="4.19399">
        <ele>186</ele>
        <time>2024-04-16T14:33:33Z</time>
      </trkpt>
      <trkpt lat="50.09937" lon="4.194">
        <ele>185.8</ele>
        <time>2024-04-16T14:33:34Z</time>
      </trkpt>
      <trkpt lat="50.09928" lon="4.19401">
        <ele>185.4</ele>
        <time>2024-04-16T14:33:35Z</time>
      </trkpt>
      <trkpt lat="50.0992" lon="4.19402">
        <ele>185.4</ele>
        <time>2024-04-16T14:33:36Z</time>
      </trkpt>
      <trkpt lat="50.09911" lon="4.19403">
        <ele>185.4</ele>
        <time>2024-04-16T14:33:37Z</time>
      </trkpt>
      <trkpt lat="50.09901" lon="4.19403">
        <ele>185.2</ele>
        <time>2024-04-16T14:33:38Z</time>
      </trkpt>
      <trkpt lat="50.09892" lon="4.19403">
        <ele>184.8</ele>
        <time>2024-04-16T14:33:39Z</time>
      </trkpt>
      <trkpt lat="50.09883" lon="4.19403">
        <ele>184.4</ele>
        <time>2024-04-16T14:33:40Z</time>
      </trkpt>
      <trkpt lat="50.09873" lon="4.19403">
        <ele>184</ele>
        <time>2024-04-16T14:33:41Z</time>
      </trkpt>
      <trkpt lat="50.09863" lon="4.19403">
        <ele>183.4</ele>
        <time>2024-04-16T14:33:42Z</time>
      </trkpt>
      <trkpt lat="50.09853" lon="4.19403">
        <ele>182.4</ele>
        <time>2024-04-16T14:33:43Z</time>
      </trkpt>
      <trkpt lat="50.09843" lon="4.19403">
        <ele>182</ele>
        <time>2024-04-16T14:33:44Z</time>
      </trkpt>
      <trkpt lat="50.09833" lon="4.19403">
        <ele>181.8</ele>
        <time>2024-04-16T14:33:45Z</time>
      </trkpt>
      <trkpt lat="50.09823" lon="4.19403">
        <ele>181.2</ele>
        <time>2024-04-16T14:33:46Z</time>
      </trkpt>
      <trkpt lat="50.09813" lon="4.19402">
        <ele>181.2</ele>
        <time>2024-04-16T14:33:47Z</time>
      </trkpt>
      <trkpt lat="50.09803" lon="4.19402">
        <ele>180.4</ele>
        <time>2024-04-16T14:33:48Z</time>
      </trkpt>
      <trkpt lat="50.09794" lon="4.19402">
        <ele>179.6</ele>
        <time>2024-04-16T14:33:49Z</time>
      </trkpt>
      <trkpt lat="50.09784" lon="4.19401">
        <ele>179.2</ele>
        <time>2024-04-16T14:33:50Z</time>
      </trkpt>
      <trkpt lat="50.09775" lon="4.19401">
        <ele>178.8</ele>
        <time>2024-04-16T14:33:51Z</time>
      </trkpt>
      <trkpt lat="50.09767" lon="4.19401">
        <ele>178.6</ele>
        <time>2024-04-16T14:33:52Z</time>
      </trkpt>
      <trkpt lat="50.09759" lon="4.194">
        <ele>178.4</ele>
        <time>2024-04-16T14:33:53Z</time>
      </trkpt>
      <trkpt lat="50.09751" lon="4.194">
        <ele>178.2</ele>
        <time>2024-04-16T14:33:54Z</time>
      </trkpt>
      <trkpt lat="50.09743" lon="4.194">
        <ele>178</ele>
        <time>2024-04-16T14:33:55Z</time>
      </trkpt>
      <trkpt lat="50.09735" lon="4.19401">
        <ele>177.6</ele>
        <time>2024-04-16T14:33:56Z</time>
      </trkpt>
      <trkpt lat="50.09727" lon="4.19404">
        <ele>177.6</ele>
        <time>2024-04-16T14:33:57Z</time>
      </trkpt>
      <trkpt lat="50.09719" lon="4.19408">
        <ele>177.6</ele>
        <time>2024-04-16T14:33:58Z</time>
      </trkpt>
      <trkpt lat="50.09712" lon="4.19412">
        <ele>177.4</ele>
        <time>2024-04-16T14:33:59Z</time>
      </trkpt>
      <trkpt lat="50.09705" lon="4.19418">
        <ele>177.4</ele>
        <time>2024-04-16T14:34:00Z</time>
      </trkpt>
      <trkpt lat="50.09698" lon="4.19424">
        <ele>177.4</ele>
        <time>2024-04-16T14:34:01Z</time>
      </trkpt>
      <trkpt lat="50.09692" lon="4.1943">
        <ele>177.4</ele>
        <time>2024-04-16T14:34:02Z</time>
      </trkpt>
      <trkpt lat="50.09685" lon="4.19437">
        <ele>177.4</ele>
        <time>2024-04-16T14:34:03Z</time>
      </trkpt>
      <trkpt lat="50.09679" lon="4.19443">
        <ele>177.2</ele>
        <time>2024-04-16T14:34:04Z</time>
      </trkpt>
      <trkpt lat="50.09673" lon="4.19449">
        <ele>177.2</ele>
        <time>2024-04-16T14:34:05Z</time>
      </trkpt>
      <trkpt lat="50.09666" lon="4.19456">
        <ele>177.4</ele>
        <time>2024-04-16T14:34:06Z</time>
      </trkpt>
      <trkpt lat="50.0966" lon="4.19462">
        <ele>177.4</ele>
        <time>2024-04-16T14:34:07Z</time>
      </trkpt>
      <trkpt lat="50.09654" lon="4.19468">
        <ele>177.4</ele>
        <time>2024-04-16T14:34:08Z</time>
      </trkpt>
      <trkpt lat="50.09648" lon="4.19474">
        <ele>177.4</ele>
        <time>2024-04-16T14:34:09Z</time>
      </trkpt>
      <trkpt lat="50.09643" lon="4.19481">
        <ele>177.4</ele>
        <time>2024-04-16T14:34:10Z</time>
      </trkpt>
      <trkpt lat="50.09637" lon="4.19488">
        <ele>177.6</ele>
        <time>2024-04-16T14:34:11Z</time>
      </trkpt>
      <trkpt lat="50.09632" lon="4.19495">
        <ele>177.4</ele>
        <time>2024-04-16T14:34:12Z</time>
      </trkpt>
      <trkpt lat="50.09626" lon="4.19502">
        <ele>177.6</ele>
        <time>2024-04-16T14:34:13Z</time>
      </trkpt>
      <trkpt lat="50.09621" lon="4.1951">
        <ele>177.4</ele>
        <time>2024-04-16T14:34:14Z</time>
      </trkpt>
      <trkpt lat="50.09616" lon="4.19517">
        <ele>177.2</ele>
        <time>2024-04-16T14:34:15Z</time>
      </trkpt>
      <trkpt lat="50.09611" lon="4.19525">
        <ele>177.4</ele>
        <time>2024-04-16T14:34:16Z</time>
      </trkpt>
      <trkpt lat="50.09605" lon="4.19531">
        <ele>177.4</ele>
        <time>2024-04-16T14:34:17Z</time>
      </trkpt>
      <trkpt lat="50.09599" lon="4.19536">
        <ele>177.4</ele>
        <time>2024-04-16T14:34:18Z</time>
      </trkpt>
      <trkpt lat="50.09592" lon="4.1954">
        <ele>177.4</ele>
        <time>2024-04-16T14:34:19Z</time>
      </trkpt>
      <trkpt lat="50.09586" lon="4.19542">
        <ele>177.4</ele>
        <time>2024-04-16T14:34:20Z</time>
      </trkpt>
      <trkpt lat="50.09579" lon="4.19544">
        <ele>177.4</ele>
        <time>2024-04-16T14:34:21Z</time>
      </trkpt>
      <trkpt lat="50.09572" lon="4.19545">
        <ele>177.6</ele>
        <time>2024-04-16T14:34:22Z</time>
      </trkpt>
      <trkpt lat="50.09566" lon="4.19545">
        <ele>177.6</ele>
        <time>2024-04-16T14:34:23Z</time>
      </trkpt>
      <trkpt lat="50.09559" lon="4.19546">
        <ele>177.6</ele>
        <time>2024-04-16T14:34:24Z</time>
      </trkpt>
      <trkpt lat="50.09552" lon="4.19546">
        <ele>177.6</ele>
        <time>2024-04-16T14:34:25Z</time>
      </trkpt>
      <trkpt lat="50.09545" lon="4.19546">
        <ele>177.6</ele>
        <time>2024-04-16T14:34:26Z</time>
      </trkpt>
      <trkpt lat="50.09539" lon="4.19545">
        <ele>177.6</ele>
        <time>2024-04-16T14:34:27Z</time>
      </trkpt>
      <trkpt lat="50.09532" lon="4.19545">
        <ele>177.8</ele>
        <time>2024-04-16T14:34:28Z</time>
      </trkpt>
      <trkpt lat="50.09525" lon="4.19544">
        <ele>177.8</ele>
        <time>2024-04-16T14:34:29Z</time>
      </trkpt>
      <trkpt lat="50.09519" lon="4.19542">
        <ele>177.8</ele>
        <time>2024-04-16T14:34:30Z</time>
      </trkpt>
      <trkpt lat="50.09513" lon="4.19539">
        <ele>177.8</ele>
        <time>2024-04-16T14:34:31Z</time>
      </trkpt>
      <trkpt lat="50.09507" lon="4.19535">
        <ele>178.2</ele>
        <time>2024-04-16T14:34:32Z</time>
      </trkpt>
      <trkpt lat="50.09501" lon="4.19529">
        <ele>178.6</ele>
        <time>2024-04-16T14:34:33Z</time>
      </trkpt>
      <trkpt lat="50.09496" lon="4.19523">
        <ele>178.8</ele>
        <time>2024-04-16T14:34:34Z</time>
      </trkpt>
      <trkpt lat="50.0949" lon="4.19516">
        <ele>179.2</ele>
        <time>2024-04-16T14:34:35Z</time>
      </trkpt>
      <trkpt lat="50.09486" lon="4.19508">
        <ele>179.4</ele>
        <time>2024-04-16T14:34:36Z</time>
      </trkpt>
      <trkpt lat="50.09481" lon="4.19499">
        <ele>179.8</ele>
        <time>2024-04-16T14:34:37Z</time>
      </trkpt>
      <trkpt lat="50.09476" lon="4.19491">
        <ele>179.6</ele>
        <time>2024-04-16T14:34:38Z</time>
      </trkpt>
      <trkpt lat="50.09472" lon="4.19483">
        <ele>179.6</ele>
        <time>2024-04-16T14:34:39Z</time>
      </trkpt>
      <trkpt lat="50.09467" lon="4.19475">
        <ele>179.8</ele>
        <time>2024-04-16T14:34:40Z</time>
      </trkpt>
      <trkpt lat="50.09463" lon="4.19467">
        <ele>179.8</ele>
        <time>2024-04-16T14:34:41Z</time>
      </trkpt>
      <trkpt lat="50.09458" lon="4.19459">
        <ele>179.8</ele>
        <time>2024-04-16T14:34:42Z</time>
      </trkpt>
      <trkpt lat="50.09453" lon="4.19451">
        <ele>179.6</ele>
        <time>2024-04-16T14:34:43Z</time>
      </trkpt>
      <trkpt lat="50.09448" lon="4.19443">
        <ele>179.6</ele>
        <time>2024-04-16T14:34:44Z</time>
      </trkpt>
      <trkpt lat="50.09444" lon="4.19436">
        <ele>179.8</ele>
        <time>2024-04-16T14:34:45Z</time>
      </trkpt>
      <trkpt lat="50.09439" lon="4.19428">
        <ele>179.8</ele>
        <time>2024-04-16T14:34:46Z</time>
      </trkpt>
      <trkpt lat="50.09434" lon="4.1942">
        <ele>179.8</ele>
        <time>2024-04-16T14:34:47Z</time>
      </trkpt>
      <trkpt lat="50.09429" lon="4.19412">
        <ele>179.8</ele>
        <time>2024-04-16T14:34:48Z</time>
      </trkpt>
      <trkpt lat="50.09425" lon="4.19404">
        <ele>179.8</ele>
        <time>2024-04-16T14:34:49Z</time>
      </trkpt>
      <trkpt lat="50.0942" lon="4.19397">
        <ele>179.8</ele>
        <time>2024-04-16T14:34:50Z</time>
      </trkpt>
      <trkpt lat="50.09415" lon="4.19389">
        <ele>179.8</ele>
        <time>2024-04-16T14:34:51Z</time>
      </trkpt>
      <trkpt lat="50.09411" lon="4.19382">
        <ele>179.8</ele>
        <time>2024-04-16T14:34:52Z</time>
      </trkpt>
      <trkpt lat="50.09406" lon="4.19375">
        <ele>179.8</ele>
        <time>2024-04-16T14:34:53Z</time>
      </trkpt>
      <trkpt lat="50.09401" lon="4.19367">
        <ele>179.8</ele>
        <time>2024-04-16T14:34:54Z</time>
      </trkpt>
      <trkpt lat="50.09396" lon="4.1936">
        <ele>179.6</ele>
        <time>2024-04-16T14:34:55Z</time>
      </trkpt>
      <trkpt lat="50.0939" lon="4.19354">
        <ele>179.8</ele>
        <time>2024-04-16T14:34:56Z</time>
      </trkpt>
      <trkpt lat="50.09385" lon="4.19347">
        <ele>179.8</ele>
        <time>2024-04-16T14:34:57Z</time>
      </trkpt>
      <trkpt lat="50.09379" lon="4.19342">
        <ele>180</ele>
        <time>2024-04-16T14:34:58Z</time>
      </trkpt>
      <trkpt lat="50.09373" lon="4.19338">
        <ele>180</ele>
        <time>2024-04-16T14:34:59Z</time>
      </trkpt>
      <trkpt lat="50.09366" lon="4.19335">
        <ele>180</ele>
        <time>2024-04-16T14:35:00Z</time>
      </trkpt>
      <trkpt lat="50.0936" lon="4.19332">
        <ele>180.2</ele>
        <time>2024-04-16T14:35:01Z</time>
      </trkpt>
      <trkpt lat="50.09354" lon="4.1933">
        <ele>180.4</ele>
        <time>2024-04-16T14:35:02Z</time>
      </trkpt>
      <trkpt lat="50.09347" lon="4.19328">
        <ele>180.8</ele>
        <time>2024-04-16T14:35:03Z</time>
      </trkpt>
      <trkpt lat="50.0934" lon="4.19327">
        <ele>181</ele>
        <time>2024-04-16T14:35:04Z</time>
      </trkpt>
      <trkpt lat="50.09334" lon="4.19326">
        <ele>181.4</ele>
        <time>2024-04-16T14:35:05Z</time>
      </trkpt>
      <trkpt lat="50.09327" lon="4.19326">
        <ele>181.4</ele>
        <time>2024-04-16T14:35:06Z</time>
      </trkpt>
      <trkpt lat="50.0932" lon="4.19326">
        <ele>181.8</ele>
        <time>2024-04-16T14:35:07Z</time>
      </trkpt>
      <trkpt lat="50.09313" lon="4.19326">
        <ele>181.8</ele>
        <time>2024-04-16T14:35:08Z</time>
      </trkpt>
      <trkpt lat="50.09306" lon="4.19326">
        <ele>181.8</ele>
        <time>2024-04-16T14:35:09Z</time>
      </trkpt>
      <trkpt lat="50.09299" lon="4.19326">
        <ele>181.8</ele>
        <time>2024-04-16T14:35:10Z</time>
      </trkpt>
      <trkpt lat="50.09292" lon="4.19327">
        <ele>182</ele>
        <time>2024-04-16T14:35:11Z</time>
      </trkpt>
      <trkpt lat="50.09285" lon="4.19328">
        <ele>182</ele>
        <time>2024-04-16T14:35:12Z</time>
      </trkpt>
      <trkpt lat="50.09279" lon="4.19329">
        <ele>182.2</ele>
        <time>2024-04-16T14:35:13Z</time>
      </trkpt>
      <trkpt lat="50.09272" lon="4.19331">
        <ele>182.2</ele>
        <time>2024-04-16T14:35:14Z</time>
      </trkpt>
      <trkpt lat="50.09265" lon="4.19333">
        <ele>182.2</ele>
        <time>2024-04-16T14:35:15Z</time>
      </trkpt>
      <trkpt lat="50.09259" lon="4.19335">
        <ele>182.4</ele>
        <time>2024-04-16T14:35:16Z</time>
      </trkpt>
      <trkpt lat="50.09252" lon="4.19337">
        <ele>182.4</ele>
        <time>2024-04-16T14:35:17Z</time>
      </trkpt>
      <trkpt lat="50.09245" lon="4.1934">
        <ele>182.6</ele>
        <time>2024-04-16T14:35:18Z</time>
      </trkpt>
      <trkpt lat="50.09238" lon="4.19342">
        <ele>182.8</ele>
        <time>2024-04-16T14:35:19Z</time>
      </trkpt>
      <trkpt lat="50.09232" lon="4.19345">
        <ele>182.8</ele>
        <time>2024-04-16T14:35:20Z</time>
      </trkpt>
      <trkpt lat="50.09225" lon="4.19347">
        <ele>183</ele>
        <time>2024-04-16T14:35:21Z</time>
      </trkpt>
      <trkpt lat="50.09218" lon="4.19349">
        <ele>183.2</ele>
        <time>2024-04-16T14:35:22Z</time>
      </trkpt>
      <trkpt lat="50.09212" lon="4.19351">
        <ele>183.4</ele>
        <time>2024-04-16T14:35:23Z</time>
      </trkpt>
      <trkpt lat="50.09205" lon="4.19353">
        <ele>183.4</ele>
        <time>2024-04-16T14:35:24Z</time>
      </trkpt>
      <trkpt lat="50.09198" lon="4.19354">
        <ele>183.4</ele>
        <time>2024-04-16T14:35:25Z</time>
      </trkpt>
      <trkpt lat="50.09191" lon="4.19355">
        <ele>183.8</ele>
        <time>2024-04-16T14:35:26Z</time>
      </trkpt>
      <trkpt lat="50.09185" lon="4.19356">
        <ele>184</ele>
        <time>2024-04-16T14:35:27Z</time>
      </trkpt>
      <trkpt lat="50.09178" lon="4.19357">
        <ele>184</ele>
        <time>2024-04-16T14:35:28Z</time>
      </trkpt>
      <trkpt lat="50.09171" lon="4.19358">
        <ele>184.2</ele>
        <time>2024-04-16T14:35:29Z</time>
      </trkpt>
      <trkpt lat="50.09165" lon="4.19358">
        <ele>184.4</ele>
        <time>2024-04-16T14:35:30Z</time>
      </trkpt>
      <trkpt lat="50.09159" lon="4.19358">
        <ele>184.4</ele>
        <time>2024-04-16T14:35:31Z</time>
      </trkpt>
      <trkpt lat="50.09153" lon="4.19359">
        <ele>184.4</ele>
        <time>2024-04-16T14:35:32Z</time>
      </trkpt>
      <trkpt lat="50.09147" lon="4.19358">
        <ele>184.6</ele>
        <time>2024-04-16T14:35:33Z</time>
      </trkpt>
      <trkpt lat="50.09141" lon="4.19358">
        <ele>184.6</ele>
        <time>2024-04-16T14:35:34Z</time>
      </trkpt>
      <trkpt lat="50.09135" lon="4.19358">
        <ele>184.8</ele>
        <time>2024-04-16T14:35:35Z</time>
      </trkpt>
      <trkpt lat="50.09128" lon="4.19358">
        <ele>184.6</ele>
        <time>2024-04-16T14:35:36Z</time>
      </trkpt>
      <trkpt lat="50.09122" lon="4.19358">
        <ele>184.6</ele>
        <time>2024-04-16T14:35:37Z</time>
      </trkpt>
      <trkpt lat="50.09115" lon="4.19357">
        <ele>184.8</ele>
        <time>2024-04-16T14:35:38Z</time>
      </trkpt>
      <trkpt lat="50.09108" lon="4.19357">
        <ele>185</ele>
        <time>2024-04-16T14:35:39Z</time>
      </trkpt>
      <trkpt lat="50.091" lon="4.19357">
        <ele>185</ele>
        <time>2024-04-16T14:35:40Z</time>
      </trkpt>
      <trkpt lat="50.09093" lon="4.19357">
        <ele>185</ele>
        <time>2024-04-16T14:35:41Z</time>
      </trkpt>
      <trkpt lat="50.09086" lon="4.19357">
        <ele>185</ele>
        <time>2024-04-16T14:35:42Z</time>
      </trkpt>
      <trkpt lat="50.09078" lon="4.19357">
        <ele>185</ele>
        <time>2024-04-16T14:35:43Z</time>
      </trkpt>
      <trkpt lat="50.09071" lon="4.19357">
        <ele>185</ele>
        <time>2024-04-16T14:35:44Z</time>
      </trkpt>
      <trkpt lat="50.09063" lon="4.19357">
        <ele>185</ele>
        <time>2024-04-16T14:35:45Z</time>
      </trkpt>
      <trkpt lat="50.09056" lon="4.19357">
        <ele>185.2</ele>
        <time>2024-04-16T14:35:46Z</time>
      </trkpt>
      <trkpt lat="50.09048" lon="4.19357">
        <ele>185</ele>
        <time>2024-04-16T14:35:47Z</time>
      </trkpt>
      <trkpt lat="50.0904" lon="4.19356">
        <ele>185.2</ele>
        <time>2024-04-16T14:35:48Z</time>
      </trkpt>
      <trkpt lat="50.09032" lon="4.19356">
        <ele>185.2</ele>
        <time>2024-04-16T14:35:49Z</time>
      </trkpt>
      <trkpt lat="50.09025" lon="4.19355">
        <ele>185</ele>
        <time>2024-04-16T14:35:50Z</time>
      </trkpt>
      <trkpt lat="50.09017" lon="4.19355">
        <ele>184.8</ele>
        <time>2024-04-16T14:35:51Z</time>
      </trkpt>
      <trkpt lat="50.09009" lon="4.19354">
        <ele>184.8</ele>
        <time>2024-04-16T14:35:52Z</time>
      </trkpt>
      <trkpt lat="50.09001" lon="4.19352">
        <ele>184.8</ele>
        <time>2024-04-16T14:35:53Z</time>
      </trkpt>
      <trkpt lat="50.08993" lon="4.1935">
        <ele>184.8</ele>
        <time>2024-04-16T14:35:54Z</time>
      </trkpt>
      <trkpt lat="50.08985" lon="4.19347">
        <ele>184.8</ele>
        <time>2024-04-16T14:35:55Z</time>
      </trkpt>
      <trkpt lat="50.08977" lon="4.19344">
        <ele>184.4</ele>
        <time>2024-04-16T14:35:56Z</time>
      </trkpt>
      <trkpt lat="50.08969" lon="4.1934">
        <ele>184.4</ele>
        <time>2024-04-16T14:35:57Z</time>
      </trkpt>
      <trkpt lat="50.0896" lon="4.19336">
        <ele>184.4</ele>
        <time>2024-04-16T14:35:58Z</time>
      </trkpt>
      <trkpt lat="50.08952" lon="4.19333">
        <ele>184.4</ele>
        <time>2024-04-16T14:35:59Z</time>
      </trkpt>
      <trkpt lat="50.08944" lon="4.19329">
        <ele>184.2</ele>
        <time>2024-04-16T14:36:00Z</time>
      </trkpt>
      <trkpt lat="50.08936" lon="4.19325">
        <ele>184.2</ele>
        <time>2024-04-16T14:36:01Z</time>
      </trkpt>
      <trkpt lat="50.08928" lon="4.19322">
        <ele>184</ele>
        <time>2024-04-16T14:36:02Z</time>
      </trkpt>
      <trkpt lat="50.0892" lon="4.19319">
        <ele>183.8</ele>
        <time>2024-04-16T14:36:03Z</time>
      </trkpt>
      <trkpt lat="50.08912" lon="4.19316">
        <ele>183.6</ele>
        <time>2024-04-16T14:36:04Z</time>
      </trkpt>
      <trkpt lat="50.08904" lon="4.19313">
        <ele>183.6</ele>
        <time>2024-04-16T14:36:05Z</time>
      </trkpt>
      <trkpt lat="50.08896" lon="4.19312">
        <ele>183.2</ele>
        <time>2024-04-16T14:36:06Z</time>
      </trkpt>
      <trkpt lat="50.08888" lon="4.19311">
        <ele>183</ele>
        <time>2024-04-16T14:36:07Z</time>
      </trkpt>
      <trkpt lat="50.08881" lon="4.19311">
        <ele>182.6</ele>
        <time>2024-04-16T14:36:08Z</time>
      </trkpt>
      <trkpt lat="50.08873" lon="4.19312">
        <ele>181.6</ele>
        <time>2024-04-16T14:36:09Z</time>
      </trkpt>
      <trkpt lat="50.08866" lon="4.19313">
        <ele>181.2</ele>
        <time>2024-04-16T14:36:10Z</time>
      </trkpt>
      <trkpt lat="50.08858" lon="4.19314">
        <ele>180.8</ele>
        <time>2024-04-16T14:36:11Z</time>
      </trkpt>
      <trkpt lat="50.08851" lon="4.19315">
        <ele>180.6</ele>
        <time>2024-04-16T14:36:12Z</time>
      </trkpt>
      <trkpt lat="50.08843" lon="4.19316">
        <ele>180.6</ele>
        <time>2024-04-16T14:36:13Z</time>
      </trkpt>
      <trkpt lat="50.08836" lon="4.19317">
        <ele>180.4</ele>
        <time>2024-04-16T14:36:14Z</time>
      </trkpt>
      <trkpt lat="50.08828" lon="4.19319">
        <ele>180.2</ele>
        <time>2024-04-16T14:36:15Z</time>
      </trkpt>
      <trkpt lat="50.08821" lon="4.1932">
        <ele>180</ele>
        <time>2024-04-16T14:36:16Z</time>
      </trkpt>
      <trkpt lat="50.08814" lon="4.19321">
        <ele>180.2</ele>
        <time>2024-04-16T14:36:17Z</time>
      </trkpt>
      <trkpt lat="50.08807" lon="4.19321">
        <ele>180</ele>
        <time>2024-04-16T14:36:18Z</time>
      </trkpt>
      <trkpt lat="50.088" lon="4.19322">
        <ele>180</ele>
        <time>2024-04-16T14:36:19Z</time>
      </trkpt>
      <trkpt lat="50.08793" lon="4.19323">
        <ele>180</ele>
        <time>2024-04-16T14:36:20Z</time>
      </trkpt>
      <trkpt lat="50.08786" lon="4.19324">
        <ele>179.8</ele>
        <time>2024-04-16T14:36:21Z</time>
      </trkpt>
      <trkpt lat="50.08779" lon="4.19324">
        <ele>179.8</ele>
        <time>2024-04-16T14:36:22Z</time>
      </trkpt>
      <trkpt lat="50.08772" lon="4.19325">
        <ele>180</ele>
        <time>2024-04-16T14:36:23Z</time>
      </trkpt>
      <trkpt lat="50.08765" lon="4.19326">
        <ele>180</ele>
        <time>2024-04-16T14:36:24Z</time>
      </trkpt>
      <trkpt lat="50.08758" lon="4.19327">
        <ele>180</ele>
        <time>2024-04-16T14:36:25Z</time>
      </trkpt>
      <trkpt lat="50.08751" lon="4.19327">
        <ele>180.2</ele>
        <time>2024-04-16T14:36:26Z</time>
      </trkpt>
      <trkpt lat="50.08745" lon="4.19328">
        <ele>180.4</ele>
        <time>2024-04-16T14:36:27Z</time>
      </trkpt>
      <trkpt lat="50.08738" lon="4.19328">
        <ele>180.4</ele>
        <time>2024-04-16T14:36:28Z</time>
      </trkpt>
      <trkpt lat="50.08732" lon="4.19329">
        <ele>180.4</ele>
        <time>2024-04-16T14:36:29Z</time>
      </trkpt>
      <trkpt lat="50.08725" lon="4.19329">
        <ele>180.6</ele>
        <time>2024-04-16T14:36:30Z</time>
      </trkpt>
      <trkpt lat="50.08719" lon="4.19329">
        <ele>180.6</ele>
        <time>2024-04-16T14:36:31Z</time>
      </trkpt>
      <trkpt lat="50.08712" lon="4.19329">
        <ele>180.8</ele>
        <time>2024-04-16T14:36:32Z</time>
      </trkpt>
      <trkpt lat="50.08706" lon="4.19328">
        <ele>181</ele>
        <time>2024-04-16T14:36:33Z</time>
      </trkpt>
      <trkpt lat="50.08699" lon="4.19327">
        <ele>181.2</ele>
        <time>2024-04-16T14:36:34Z</time>
      </trkpt>
      <trkpt lat="50.08693" lon="4.19325">
        <ele>181.2</ele>
        <time>2024-04-16T14:36:35Z</time>
      </trkpt>
      <trkpt lat="50.08687" lon="4.19324">
        <ele>181.2</ele>
        <time>2024-04-16T14:36:36Z</time>
      </trkpt>
      <trkpt lat="50.08681" lon="4.19322">
        <ele>181.2</ele>
        <time>2024-04-16T14:36:37Z</time>
      </trkpt>
      <trkpt lat="50.08675" lon="4.1932">
        <ele>181.4</ele>
        <time>2024-04-16T14:36:38Z</time>
      </trkpt>
      <trkpt lat="50.08669" lon="4.19319">
        <ele>181.4</ele>
        <time>2024-04-16T14:36:39Z</time>
      </trkpt>
      <trkpt lat="50.08663" lon="4.19317">
        <ele>181.4</ele>
        <time>2024-04-16T14:36:40Z</time>
      </trkpt>
      <trkpt lat="50.08657" lon="4.19315">
        <ele>181.6</ele>
        <time>2024-04-16T14:36:41Z</time>
      </trkpt>
      <trkpt lat="50.08651" lon="4.19313">
        <ele>181.6</ele>
        <time>2024-04-16T14:36:42Z</time>
      </trkpt>
      <trkpt lat="50.08645" lon="4.1931">
        <ele>181.6</ele>
        <time>2024-04-16T14:36:43Z</time>
      </trkpt>
      <trkpt lat="50.08639" lon="4.19308">
        <ele>181.6</ele>
        <time>2024-04-16T14:36:44Z</time>
      </trkpt>
      <trkpt lat="50.08633" lon="4.19306">
        <ele>181.6</ele>
        <time>2024-04-16T14:36:45Z</time>
      </trkpt>
      <trkpt lat="50.08628" lon="4.19303">
        <ele>181.6</ele>
        <time>2024-04-16T14:36:46Z</time>
      </trkpt>
      <trkpt lat="50.08622" lon="4.193">
        <ele>181.8</ele>
        <time>2024-04-16T14:36:47Z</time>
      </trkpt>
      <trkpt lat="50.08616" lon="4.19298">
        <ele>181.8</ele>
        <time>2024-04-16T14:36:48Z</time>
      </trkpt>
      <trkpt lat="50.0861" lon="4.19295">
        <ele>181.8</ele>
        <time>2024-04-16T14:36:49Z</time>
      </trkpt>
      <trkpt lat="50.08604" lon="4.19292">
        <ele>182</ele>
        <time>2024-04-16T14:36:50Z</time>
      </trkpt>
      <trkpt lat="50.08599" lon="4.1929">
        <ele>182.2</ele>
        <time>2024-04-16T14:36:51Z</time>
      </trkpt>
      <trkpt lat="50.08593" lon="4.19287">
        <ele>182.2</ele>
        <time>2024-04-16T14:36:52Z</time>
      </trkpt>
      <trkpt lat="50.08588" lon="4.19283">
        <ele>182.4</ele>
        <time>2024-04-16T14:36:53Z</time>
      </trkpt>
      <trkpt lat="50.08582" lon="4.1928">
        <ele>182.4</ele>
        <time>2024-04-16T14:36:54Z</time>
      </trkpt>
      <trkpt lat="50.08577" lon="4.19277">
        <ele>182.6</ele>
        <time>2024-04-16T14:36:55Z</time>
      </trkpt>
      <trkpt lat="50.08572" lon="4.19273">
        <ele>182.6</ele>
        <time>2024-04-16T14:36:56Z</time>
      </trkpt>
      <trkpt lat="50.08566" lon="4.1927">
        <ele>183.6</ele>
        <time>2024-04-16T14:36:57Z</time>
      </trkpt>
      <trkpt lat="50.08561" lon="4.19266">
        <ele>184</ele>
        <time>2024-04-16T14:36:58Z</time>
      </trkpt>
      <trkpt lat="50.08556" lon="4.19263">
        <ele>184.4</ele>
        <time>2024-04-16T14:36:59Z</time>
      </trkpt>
      <trkpt lat="50.08551" lon="4.1926">
        <ele>184.6</ele>
        <time>2024-04-16T14:37:00Z</time>
      </trkpt>
      <trkpt lat="50.08545" lon="4.19256">
        <ele>184.6</ele>
        <time>2024-04-16T14:37:01Z</time>
      </trkpt>
      <trkpt lat="50.0854" lon="4.19253">
        <ele>185</ele>
        <time>2024-04-16T14:37:02Z</time>
      </trkpt>
      <trkpt lat="50.08535" lon="4.19251">
        <ele>185.6</ele>
        <time>2024-04-16T14:37:03Z</time>
      </trkpt>
      <trkpt lat="50.0853" lon="4.19248">
        <ele>185.6</ele>
        <time>2024-04-16T14:37:04Z</time>
      </trkpt>
      <trkpt lat="50.08525" lon="4.19245">
        <ele>186</ele>
        <time>2024-04-16T14:37:05Z</time>
      </trkpt>
      <trkpt lat="50.0852" lon="4.19242">
        <ele>186.4</ele>
        <time>2024-04-16T14:37:06Z</time>
      </trkpt>
      <trkpt lat="50.08515" lon="4.19239">
        <ele>186.4</ele>
        <time>2024-04-16T14:37:07Z</time>
      </trkpt>
      <trkpt lat="50.08509" lon="4.19236">
        <ele>186.8</ele>
        <time>2024-04-16T14:37:08Z</time>
      </trkpt>
      <trkpt lat="50.08504" lon="4.19233">
        <ele>187.2</ele>
        <time>2024-04-16T14:37:09Z</time>
      </trkpt>
      <trkpt lat="50.08498" lon="4.19231">
        <ele>187.6</ele>
        <time>2024-04-16T14:37:10Z</time>
      </trkpt>
      <trkpt lat="50.08493" lon="4.19228">
        <ele>187.8</ele>
        <time>2024-04-16T14:37:11Z</time>
      </trkpt>
      <trkpt lat="50.08488" lon="4.19225">
        <ele>188</ele>
        <time>2024-04-16T14:37:12Z</time>
      </trkpt>
      <trkpt lat="50.08483" lon="4.19222">
        <ele>188</ele>
        <time>2024-04-16T14:37:13Z</time>
      </trkpt>
      <trkpt lat="50.08477" lon="4.19219">
        <ele>188.2</ele>
        <time>2024-04-16T14:37:14Z</time>
      </trkpt>
      <trkpt lat="50.08472" lon="4.19216">
        <ele>188.4</ele>
        <time>2024-04-16T14:37:15Z</time>
      </trkpt>
      <trkpt lat="50.08467" lon="4.19214">
        <ele>188.4</ele>
        <time>2024-04-16T14:37:16Z</time>
      </trkpt>
      <trkpt lat="50.08461" lon="4.19212">
        <ele>188.6</ele>
        <time>2024-04-16T14:37:17Z</time>
      </trkpt>
      <trkpt lat="50.08455" lon="4.1921">
        <ele>188.8</ele>
        <time>2024-04-16T14:37:18Z</time>
      </trkpt>
      <trkpt lat="50.08449" lon="4.19208">
        <ele>188.8</ele>
        <time>2024-04-16T14:37:19Z</time>
      </trkpt>
      <trkpt lat="50.08443" lon="4.19206">
        <ele>189</ele>
        <time>2024-04-16T14:37:20Z</time>
      </trkpt>
      <trkpt lat="50.08437" lon="4.19204">
        <ele>189</ele>
        <time>2024-04-16T14:37:21Z</time>
      </trkpt>
      <trkpt lat="50.0843" lon="4.19203">
        <ele>189.2</ele>
        <time>2024-04-16T14:37:22Z</time>
      </trkpt>
      <trkpt lat="50.08424" lon="4.19201">
        <ele>189.4</ele>
        <time>2024-04-16T14:37:23Z</time>
      </trkpt>
      <trkpt lat="50.08417" lon="4.19199">
        <ele>189.6</ele>
        <time>2024-04-16T14:37:24Z</time>
      </trkpt>
      <trkpt lat="50.0841" lon="4.19197">
        <ele>190</ele>
        <time>2024-04-16T14:37:25Z</time>
      </trkpt>
      <trkpt lat="50.08403" lon="4.19195">
        <ele>190</ele>
        <time>2024-04-16T14:37:26Z</time>
      </trkpt>
      <trkpt lat="50.08396" lon="4.19193">
        <ele>190.4</ele>
        <time>2024-04-16T14:37:27Z</time>
      </trkpt>
      <trkpt lat="50.08389" lon="4.19192">
        <ele>190.6</ele>
        <time>2024-04-16T14:37:28Z</time>
      </trkpt>
      <trkpt lat="50.08382" lon="4.19191">
        <ele>190.8</ele>
        <time>2024-04-16T14:37:29Z</time>
      </trkpt>
      <trkpt lat="50.08375" lon="4.19189">
        <ele>190.8</ele>
        <time>2024-04-16T14:37:30Z</time>
      </trkpt>
      <trkpt lat="50.08368" lon="4.19187">
        <ele>190.8</ele>
        <time>2024-04-16T14:37:31Z</time>
      </trkpt>
      <trkpt lat="50.08361" lon="4.19185">
        <ele>190.8</ele>
        <time>2024-04-16T14:37:32Z</time>
      </trkpt>
      <trkpt lat="50.08354" lon="4.19183">
        <ele>190.8</ele>
        <time>2024-04-16T14:37:33Z</time>
      </trkpt>
      <trkpt lat="50.08346" lon="4.1918">
        <ele>190.8</ele>
        <time>2024-04-16T14:37:34Z</time>
      </trkpt>
      <trkpt lat="50.08339" lon="4.19176">
        <ele>190.6</ele>
        <time>2024-04-16T14:37:35Z</time>
      </trkpt>
      <trkpt lat="50.08331" lon="4.19173">
        <ele>190.8</ele>
        <time>2024-04-16T14:37:36Z</time>
      </trkpt>
      <trkpt lat="50.08324" lon="4.19169">
        <ele>190.6</ele>
        <time>2024-04-16T14:37:37Z</time>
      </trkpt>
      <trkpt lat="50.08317" lon="4.19164">
        <ele>190.8</ele>
        <time>2024-04-16T14:37:38Z</time>
      </trkpt>
      <trkpt lat="50.0831" lon="4.19159">
        <ele>190.6</ele>
        <time>2024-04-16T14:37:39Z</time>
      </trkpt>
      <trkpt lat="50.08302" lon="4.19153">
        <ele>190.4</ele>
        <time>2024-04-16T14:37:40Z</time>
      </trkpt>
      <trkpt lat="50.08295" lon="4.19148">
        <ele>190.4</ele>
        <time>2024-04-16T14:37:41Z</time>
      </trkpt>
      <trkpt lat="50.08288" lon="4.19143">
        <ele>190</ele>
        <time>2024-04-16T14:37:42Z</time>
      </trkpt>
      <trkpt lat="50.08281" lon="4.19137">
        <ele>189.8</ele>
        <time>2024-04-16T14:37:43Z</time>
      </trkpt>
      <trkpt lat="50.08274" lon="4.19132">
        <ele>189.6</ele>
        <time>2024-04-16T14:37:44Z</time>
      </trkpt>
      <trkpt lat="50.08267" lon="4.19127">
        <ele>189.2</ele>
        <time>2024-04-16T14:37:45Z</time>
      </trkpt>
      <trkpt lat="50.0826" lon="4.19123">
        <ele>189</ele>
        <time>2024-04-16T14:37:46Z</time>
      </trkpt>
      <trkpt lat="50.08253" lon="4.19118">
        <ele>188.8</ele>
        <time>2024-04-16T14:37:47Z</time>
      </trkpt>
      <trkpt lat="50.08246" lon="4.19114">
        <ele>188.8</ele>
        <time>2024-04-16T14:37:48Z</time>
      </trkpt>
      <trkpt lat="50.08239" lon="4.1911">
        <ele>188.8</ele>
        <time>2024-04-16T14:37:49Z</time>
      </trkpt>
      <trkpt lat="50.08231" lon="4.19106">
        <ele>188.6</ele>
        <time>2024-04-16T14:37:50Z</time>
      </trkpt>
      <trkpt lat="50.08224" lon="4.19102">
        <ele>188.4</ele>
        <time>2024-04-16T14:37:51Z</time>
      </trkpt>
      <trkpt lat="50.08216" lon="4.19098">
        <ele>188.2</ele>
        <time>2024-04-16T14:37:52Z</time>
      </trkpt>
      <trkpt lat="50.08209" lon="4.19093">
        <ele>188.2</ele>
        <time>2024-04-16T14:37:53Z</time>
      </trkpt>
      <trkpt lat="50.08201" lon="4.19089">
        <ele>188</ele>
        <time>2024-04-16T14:37:54Z</time>
      </trkpt>
      <trkpt lat="50.08194" lon="4.19085">
        <ele>188</ele>
        <time>2024-04-16T14:37:55Z</time>
      </trkpt>
      <trkpt lat="50.08186" lon="4.19082">
        <ele>188</ele>
        <time>2024-04-16T14:37:56Z</time>
      </trkpt>
      <trkpt lat="50.08178" lon="4.19079">
        <ele>187.6</ele>
        <time>2024-04-16T14:37:57Z</time>
      </trkpt>
      <trkpt lat="50.0817" lon="4.19077">
        <ele>187.2</ele>
        <time>2024-04-16T14:37:58Z</time>
      </trkpt>
      <trkpt lat="50.08162" lon="4.19076">
        <ele>187.2</ele>
        <time>2024-04-16T14:37:59Z</time>
      </trkpt>
      <trkpt lat="50.08154" lon="4.19075">
        <ele>187.2</ele>
        <time>2024-04-16T14:38:00Z</time>
      </trkpt>
      <trkpt lat="50.08146" lon="4.19076">
        <ele>187</ele>
        <time>2024-04-16T14:38:01Z</time>
      </trkpt>
      <trkpt lat="50.08138" lon="4.19077">
        <ele>186.8</ele>
        <time>2024-04-16T14:38:02Z</time>
      </trkpt>
      <trkpt lat="50.0813" lon="4.19078">
        <ele>186.6</ele>
        <time>2024-04-16T14:38:03Z</time>
      </trkpt>
      <trkpt lat="50.08122" lon="4.19078">
        <ele>186.2</ele>
        <time>2024-04-16T14:38:04Z</time>
      </trkpt>
      <trkpt lat="50.08114" lon="4.19079">
        <ele>185.4</ele>
        <time>2024-04-16T14:38:05Z</time>
      </trkpt>
      <trkpt lat="50.08107" lon="4.1908">
        <ele>185</ele>
        <time>2024-04-16T14:38:06Z</time>
      </trkpt>
      <trkpt lat="50.08099" lon="4.19081">
        <ele>184.6</ele>
        <time>2024-04-16T14:38:07Z</time>
      </trkpt>
      <trkpt lat="50.08092" lon="4.19082">
        <ele>184.6</ele>
        <time>2024-04-16T14:38:08Z</time>
      </trkpt>
      <trkpt lat="50.08084" lon="4.19083">
        <ele>184.4</ele>
        <time>2024-04-16T14:38:09Z</time>
      </trkpt>
      <trkpt lat="50.08077" lon="4.19084">
        <ele>184.6</ele>
        <time>2024-04-16T14:38:10Z</time>
      </trkpt>
      <trkpt lat="50.0807" lon="4.19084">
        <ele>184.6</ele>
        <time>2024-04-16T14:38:11Z</time>
      </trkpt>
      <trkpt lat="50.08063" lon="4.19085">
        <ele>184.4</ele>
        <time>2024-04-16T14:38:12Z</time>
      </trkpt>
      <trkpt lat="50.08056" lon="4.19086">
        <ele>184.4</ele>
        <time>2024-04-16T14:38:13Z</time>
      </trkpt>
      <trkpt lat="50.08049" lon="4.19086">
        <ele>184.6</ele>
        <time>2024-04-16T14:38:14Z</time>
      </trkpt>
      <trkpt lat="50.08042" lon="4.19087">
        <ele>184.4</ele>
        <time>2024-04-16T14:38:15Z</time>
      </trkpt>
      <trkpt lat="50.08036" lon="4.19088">
        <ele>184.4</ele>
        <time>2024-04-16T14:38:16Z</time>
      </trkpt>
      <trkpt lat="50.08029" lon="4.1909">
        <ele>184.4</ele>
        <time>2024-04-16T14:38:17Z</time>
      </trkpt>
      <trkpt lat="50.08022" lon="4.19092">
        <ele>184.4</ele>
        <time>2024-04-16T14:38:18Z</time>
      </trkpt>
      <trkpt lat="50.08015" lon="4.19094">
        <ele>184.6</ele>
        <time>2024-04-16T14:38:19Z</time>
      </trkpt>
      <trkpt lat="50.08008" lon="4.19097">
        <ele>184.6</ele>
        <time>2024-04-16T14:38:20Z</time>
      </trkpt>
      <trkpt lat="50.08001" lon="4.19099">
        <ele>184.8</ele>
        <time>2024-04-16T14:38:21Z</time>
      </trkpt>
      <trkpt lat="50.07994" lon="4.19101">
        <ele>184.8</ele>
        <time>2024-04-16T14:38:22Z</time>
      </trkpt>
      <trkpt lat="50.07987" lon="4.19104">
        <ele>184.6</ele>
        <time>2024-04-16T14:38:23Z</time>
      </trkpt>
      <trkpt lat="50.0798" lon="4.19107">
        <ele>184.8</ele>
        <time>2024-04-16T14:38:24Z</time>
      </trkpt>
      <trkpt lat="50.07973" lon="4.1911">
        <ele>184.6</ele>
        <time>2024-04-16T14:38:25Z</time>
      </trkpt>
      <trkpt lat="50.07966" lon="4.19113">
        <ele>184.6</ele>
        <time>2024-04-16T14:38:26Z</time>
      </trkpt>
      <trkpt lat="50.07959" lon="4.19117">
        <ele>184.8</ele>
        <time>2024-04-16T14:38:27Z</time>
      </trkpt>
      <trkpt lat="50.07952" lon="4.19121">
        <ele>184.8</ele>
        <time>2024-04-16T14:38:28Z</time>
      </trkpt>
      <trkpt lat="50.07946" lon="4.19125">
        <ele>184.8</ele>
        <time>2024-04-16T14:38:29Z</time>
      </trkpt>
      <trkpt lat="50.07939" lon="4.19129">
        <ele>184.8</ele>
        <time>2024-04-16T14:38:30Z</time>
      </trkpt>
      <trkpt lat="50.07933" lon="4.19133">
        <ele>184.8</ele>
        <time>2024-04-16T14:38:31Z</time>
      </trkpt>
      <trkpt lat="50.07926" lon="4.19138">
        <ele>184.6</ele>
        <time>2024-04-16T14:38:32Z</time>
      </trkpt>
      <trkpt lat="50.0792" lon="4.19142">
        <ele>184.6</ele>
        <time>2024-04-16T14:38:33Z</time>
      </trkpt>
      <trkpt lat="50.07914" lon="4.19146">
        <ele>184.6</ele>
        <time>2024-04-16T14:38:34Z</time>
      </trkpt>
      <trkpt lat="50.07908" lon="4.1915">
        <ele>184.6</ele>
        <time>2024-04-16T14:38:35Z</time>
      </trkpt>
      <trkpt lat="50.07901" lon="4.19155">
        <ele>184.6</ele>
        <time>2024-04-16T14:38:36Z</time>
      </trkpt>
      <trkpt lat="50.07895" lon="4.19159">
        <ele>184.6</ele>
        <time>2024-04-16T14:38:37Z</time>
      </trkpt>
      <trkpt lat="50.07889" lon="4.19162">
        <ele>184.6</ele>
        <time>2024-04-16T14:38:38Z</time>
      </trkpt>
      <trkpt lat="50.07883" lon="4.19166">
        <ele>184.8</ele>
        <time>2024-04-16T14:38:39Z</time>
      </trkpt>
      <trkpt lat="50.07877" lon="4.1917">
        <ele>184.8</ele>
        <time>2024-04-16T14:38:40Z</time>
      </trkpt>
      <trkpt lat="50.07871" lon="4.19174">
        <ele>185</ele>
        <time>2024-04-16T14:38:41Z</time>
      </trkpt>
      <trkpt lat="50.07865" lon="4.19178">
        <ele>185.4</ele>
        <time>2024-04-16T14:38:42Z</time>
      </trkpt>
      <trkpt lat="50.07859" lon="4.19182">
        <ele>185.8</ele>
        <time>2024-04-16T14:38:43Z</time>
      </trkpt>
      <trkpt lat="50.07853" lon="4.19186">
        <ele>186</ele>
        <time>2024-04-16T14:38:44Z</time>
      </trkpt>
      <trkpt lat="50.07846" lon="4.1919">
        <ele>186</ele>
        <time>2024-04-16T14:38:45Z</time>
      </trkpt>
      <trkpt lat="50.0784" lon="4.19195">
        <ele>186.4</ele>
        <time>2024-04-16T14:38:46Z</time>
      </trkpt>
      <trkpt lat="50.07834" lon="4.192">
        <ele>186.6</ele>
        <time>2024-04-16T14:38:47Z</time>
      </trkpt>
      <trkpt lat="50.07828" lon="4.19205">
        <ele>187</ele>
        <time>2024-04-16T14:38:48Z</time>
      </trkpt>
      <trkpt lat="50.07822" lon="4.19209">
        <ele>187.4</ele>
        <time>2024-04-16T14:38:49Z</time>
      </trkpt>
      <trkpt lat="50.07816" lon="4.19214">
        <ele>187.8</ele>
        <time>2024-04-16T14:38:50Z</time>
      </trkpt>
      <trkpt lat="50.0781" lon="4.19219">
        <ele>187.8</ele>
        <time>2024-04-16T14:38:51Z</time>
      </trkpt>
      <trkpt lat="50.07804" lon="4.19225">
        <ele>188</ele>
        <time>2024-04-16T14:38:52Z</time>
      </trkpt>
      <trkpt lat="50.07798" lon="4.1923">
        <ele>187.8</ele>
        <time>2024-04-16T14:38:53Z</time>
      </trkpt>
      <trkpt lat="50.07791" lon="4.19235">
        <ele>187.8</ele>
        <time>2024-04-16T14:38:54Z</time>
      </trkpt>
      <trkpt lat="50.07785" lon="4.1924">
        <ele>188</ele>
        <time>2024-04-16T14:38:55Z</time>
      </trkpt>
      <trkpt lat="50.07779" lon="4.19245">
        <ele>188.2</ele>
        <time>2024-04-16T14:38:56Z</time>
      </trkpt>
      <trkpt lat="50.07772" lon="4.1925">
        <ele>188.4</ele>
        <time>2024-04-16T14:38:57Z</time>
      </trkpt>
      <trkpt lat="50.07766" lon="4.19254">
        <ele>188.4</ele>
        <time>2024-04-16T14:38:58Z</time>
      </trkpt>
      <trkpt lat="50.0776" lon="4.19259">
        <ele>188.2</ele>
        <time>2024-04-16T14:38:59Z</time>
      </trkpt>
      <trkpt lat="50.07754" lon="4.19264">
        <ele>188.4</ele>
        <time>2024-04-16T14:39:00Z</time>
      </trkpt>
      <trkpt lat="50.07748" lon="4.19269">
        <ele>188.4</ele>
        <time>2024-04-16T14:39:01Z</time>
      </trkpt>
      <trkpt lat="50.07741" lon="4.19273">
        <ele>188.4</ele>
        <time>2024-04-16T14:39:02Z</time>
      </trkpt>
      <trkpt lat="50.07735" lon="4.19277">
        <ele>188.4</ele>
        <time>2024-04-16T14:39:03Z</time>
      </trkpt>
      <trkpt lat="50.07728" lon="4.1928">
        <ele>188.4</ele>
        <time>2024-04-16T14:39:04Z</time>
      </trkpt>
      <trkpt lat="50.07721" lon="4.19284">
        <ele>188.6</ele>
        <time>2024-04-16T14:39:05Z</time>
      </trkpt>
      <trkpt lat="50.07714" lon="4.19288">
        <ele>188.4</ele>
        <time>2024-04-16T14:39:06Z</time>
      </trkpt>
      <trkpt lat="50.07707" lon="4.19292">
        <ele>188.6</ele>
        <time>2024-04-16T14:39:07Z</time>
      </trkpt>
      <trkpt lat="50.077" lon="4.19297">
        <ele>188.4</ele>
        <time>2024-04-16T14:39:08Z</time>
      </trkpt>
      <trkpt lat="50.07692" lon="4.19301">
        <ele>188.6</ele>
        <time>2024-04-16T14:39:09Z</time>
      </trkpt>
      <trkpt lat="50.07685" lon="4.19306">
        <ele>188.4</ele>
        <time>2024-04-16T14:39:10Z</time>
      </trkpt>
      <trkpt lat="50.07677" lon="4.19312">
        <ele>188.4</ele>
        <time>2024-04-16T14:39:11Z</time>
      </trkpt>
      <trkpt lat="50.07669" lon="4.19318">
        <ele>188.4</ele>
        <time>2024-04-16T14:39:12Z</time>
      </trkpt>
      <trkpt lat="50.07662" lon="4.19324">
        <ele>188.4</ele>
        <time>2024-04-16T14:39:13Z</time>
      </trkpt>
      <trkpt lat="50.07654" lon="4.19331">
        <ele>188.2</ele>
        <time>2024-04-16T14:39:14Z</time>
      </trkpt>
      <trkpt lat="50.07647" lon="4.19338">
        <ele>188</ele>
        <time>2024-04-16T14:39:15Z</time>
      </trkpt>
      <trkpt lat="50.07639" lon="4.19345">
        <ele>187.6</ele>
        <time>2024-04-16T14:39:16Z</time>
      </trkpt>
      <trkpt lat="50.07631" lon="4.19351">
        <ele>187.6</ele>
        <time>2024-04-16T14:39:17Z</time>
      </trkpt>
      <trkpt lat="50.07622" lon="4.19358">
        <ele>187.2</ele>
        <time>2024-04-16T14:39:18Z</time>
      </trkpt>
      <trkpt lat="50.07614" lon="4.19364">
        <ele>186.8</ele>
        <time>2024-04-16T14:39:19Z</time>
      </trkpt>
      <trkpt lat="50.07606" lon="4.19371">
        <ele>186.6</ele>
        <time>2024-04-16T14:39:20Z</time>
      </trkpt>
      <trkpt lat="50.07598" lon="4.19379">
        <ele>185.8</ele>
        <time>2024-04-16T14:39:21Z</time>
      </trkpt>
      <trkpt lat="50.0759" lon="4.19388">
        <ele>185</ele>
        <time>2024-04-16T14:39:22Z</time>
      </trkpt>
      <trkpt lat="50.07584" lon="4.19397">
        <ele>184.2</ele>
        <time>2024-04-16T14:39:23Z</time>
      </trkpt>
      <trkpt lat="50.07578" lon="4.19407">
        <ele>183.6</ele>
        <time>2024-04-16T14:39:24Z</time>
      </trkpt>
      <trkpt lat="50.07572" lon="4.19418">
        <ele>183.4</ele>
        <time>2024-04-16T14:39:25Z</time>
      </trkpt>
      <trkpt lat="50.07567" lon="4.19428">
        <ele>182.8</ele>
        <time>2024-04-16T14:39:26Z</time>
      </trkpt>
      <trkpt lat="50.07563" lon="4.19439">
        <ele>182</ele>
        <time>2024-04-16T14:39:27Z</time>
      </trkpt>
      <trkpt lat="50.07559" lon="4.1945">
        <ele>181.8</ele>
        <time>2024-04-16T14:39:28Z</time>
      </trkpt>
      <trkpt lat="50.07555" lon="4.1946">
        <ele>181.4</ele>
        <time>2024-04-16T14:39:29Z</time>
      </trkpt>
      <trkpt lat="50.07551" lon="4.19471">
        <ele>181.6</ele>
        <time>2024-04-16T14:39:30Z</time>
      </trkpt>
      <trkpt lat="50.07547" lon="4.19481">
        <ele>181.4</ele>
        <time>2024-04-16T14:39:31Z</time>
      </trkpt>
      <trkpt lat="50.07543" lon="4.19492">
        <ele>181.4</ele>
        <time>2024-04-16T14:39:32Z</time>
      </trkpt>
      <trkpt lat="50.0754" lon="4.19503">
        <ele>181.4</ele>
        <time>2024-04-16T14:39:33Z</time>
      </trkpt>
      <trkpt lat="50.07536" lon="4.19514">
        <ele>181.2</ele>
        <time>2024-04-16T14:39:34Z</time>
      </trkpt>
      <trkpt lat="50.07532" lon="4.19524">
        <ele>181.4</ele>
        <time>2024-04-16T14:39:35Z</time>
      </trkpt>
      <trkpt lat="50.07527" lon="4.19533">
        <ele>181.4</ele>
        <time>2024-04-16T14:39:36Z</time>
      </trkpt>
      <trkpt lat="50.07522" lon="4.19542">
        <ele>181.4</ele>
        <time>2024-04-16T14:39:37Z</time>
      </trkpt>
      <trkpt lat="50.07516" lon="4.19549">
        <ele>181.4</ele>
        <time>2024-04-16T14:39:38Z</time>
      </trkpt>
      <trkpt lat="50.0751" lon="4.19555">
        <ele>181.4</ele>
        <time>2024-04-16T14:39:39Z</time>
      </trkpt>
      <trkpt lat="50.07503" lon="4.19559">
        <ele>181.4</ele>
        <time>2024-04-16T14:39:40Z</time>
      </trkpt>
      <trkpt lat="50.07496" lon="4.19561">
        <ele>181.6</ele>
        <time>2024-04-16T14:39:41Z</time>
      </trkpt>
      <trkpt lat="50.07489" lon="4.19562">
        <ele>181.6</ele>
        <time>2024-04-16T14:39:42Z</time>
      </trkpt>
      <trkpt lat="50.07482" lon="4.19562">
        <ele>181.8</ele>
        <time>2024-04-16T14:39:43Z</time>
      </trkpt>
      <trkpt lat="50.07475" lon="4.19562">
        <ele>181.8</ele>
        <time>2024-04-16T14:39:44Z</time>
      </trkpt>
      <trkpt lat="50.07467" lon="4.19562">
        <ele>181.8</ele>
        <time>2024-04-16T14:39:45Z</time>
      </trkpt>
      <trkpt lat="50.0746" lon="4.19561">
        <ele>182</ele>
        <time>2024-04-16T14:39:46Z</time>
      </trkpt>
      <trkpt lat="50.07453" lon="4.1956">
        <ele>182</ele>
        <time>2024-04-16T14:39:47Z</time>
      </trkpt>
      <trkpt lat="50.07446" lon="4.19559">
        <ele>182.2</ele>
        <time>2024-04-16T14:39:48Z</time>
      </trkpt>
      <trkpt lat="50.07439" lon="4.19558">
        <ele>182.2</ele>
        <time>2024-04-16T14:39:49Z</time>
      </trkpt>
      <trkpt lat="50.07433" lon="4.19557">
        <ele>182.4</ele>
        <time>2024-04-16T14:39:50Z</time>
      </trkpt>
      <trkpt lat="50.07426" lon="4.19556">
        <ele>182.6</ele>
        <time>2024-04-16T14:39:51Z</time>
      </trkpt>
      <trkpt lat="50.07419" lon="4.19555">
        <ele>182.8</ele>
        <time>2024-04-16T14:39:52Z</time>
      </trkpt>
      <trkpt lat="50.07412" lon="4.19554">
        <ele>183.2</ele>
        <time>2024-04-16T14:39:53Z</time>
      </trkpt>
      <trkpt lat="50.07406" lon="4.19553">
        <ele>183.4</ele>
        <time>2024-04-16T14:39:54Z</time>
      </trkpt>
      <trkpt lat="50.07399" lon="4.19553">
        <ele>183.6</ele>
        <time>2024-04-16T14:39:55Z</time>
      </trkpt>
      <trkpt lat="50.07392" lon="4.19552">
        <ele>183.6</ele>
        <time>2024-04-16T14:39:56Z</time>
      </trkpt>
      <trkpt lat="50.07386" lon="4.19552">
        <ele>183.6</ele>
        <time>2024-04-16T14:39:57Z</time>
      </trkpt>
      <trkpt lat="50.07379" lon="4.19552">
        <ele>183.8</ele>
        <time>2024-04-16T14:39:58Z</time>
      </trkpt>
      <trkpt lat="50.07372" lon="4.19553">
        <ele>184</ele>
        <time>2024-04-16T14:39:59Z</time>
      </trkpt>
      <trkpt lat="50.07365" lon="4.19553">
        <ele>184.2</ele>
        <time>2024-04-16T14:40:00Z</time>
      </trkpt>
      <trkpt lat="50.07358" lon="4.19553">
        <ele>184.6</ele>
        <time>2024-04-16T14:40:01Z</time>
      </trkpt>
      <trkpt lat="50.07351" lon="4.19554">
        <ele>184.6</ele>
        <time>2024-04-16T14:40:02Z</time>
      </trkpt>
      <trkpt lat="50.07344" lon="4.19554">
        <ele>184.6</ele>
        <time>2024-04-16T14:40:03Z</time>
      </trkpt>
      <trkpt lat="50.07338" lon="4.19555">
        <ele>185</ele>
        <time>2024-04-16T14:40:04Z</time>
      </trkpt>
      <trkpt lat="50.07331" lon="4.19555">
        <ele>185.4</ele>
        <time>2024-04-16T14:40:05Z</time>
      </trkpt>
      <trkpt lat="50.07324" lon="4.19555">
        <ele>185.6</ele>
        <time>2024-04-16T14:40:06Z</time>
      </trkpt>
      <trkpt lat="50.07317" lon="4.19556">
        <ele>185.6</ele>
        <time>2024-04-16T14:40:07Z</time>
      </trkpt>
      <trkpt lat="50.0731" lon="4.19556">
        <ele>185.6</ele>
        <time>2024-04-16T14:40:08Z</time>
      </trkpt>
      <trkpt lat="50.07304" lon="4.19557">
        <ele>185.6</ele>
        <time>2024-04-16T14:40:09Z</time>
      </trkpt>
      <trkpt lat="50.07297" lon="4.19557">
        <ele>185.8</ele>
        <time>2024-04-16T14:40:10Z</time>
      </trkpt>
      <trkpt lat="50.0729" lon="4.19558">
        <ele>185.8</ele>
        <time>2024-04-16T14:40:11Z</time>
      </trkpt>
      <trkpt lat="50.07283" lon="4.19559">
        <ele>185.8</ele>
        <time>2024-04-16T14:40:12Z</time>
      </trkpt>
      <trkpt lat="50.07277" lon="4.19559">
        <ele>186</ele>
        <time>2024-04-16T14:40:13Z</time>
      </trkpt>
      <trkpt lat="50.0727" lon="4.1956">
        <ele>185.8</ele>
        <time>2024-04-16T14:40:14Z</time>
      </trkpt>
      <trkpt lat="50.07263" lon="4.19561">
        <ele>185.8</ele>
        <time>2024-04-16T14:40:15Z</time>
      </trkpt>
      <trkpt lat="50.07256" lon="4.19561">
        <ele>186</ele>
        <time>2024-04-16T14:40:16Z</time>
      </trkpt>
      <trkpt lat="50.07249" lon="4.19562">
        <ele>186</ele>
        <time>2024-04-16T14:40:17Z</time>
      </trkpt>
      <trkpt lat="50.07243" lon="4.19562">
        <ele>186</ele>
        <time>2024-04-16T14:40:18Z</time>
      </trkpt>
      <trkpt lat="50.07236" lon="4.19563">
        <ele>186</ele>
        <time>2024-04-16T14:40:19Z</time>
      </trkpt>
      <trkpt lat="50.07229" lon="4.19564">
        <ele>186</ele>
        <time>2024-04-16T14:40:20Z</time>
      </trkpt>
      <trkpt lat="50.07222" lon="4.19564">
        <ele>186</ele>
        <time>2024-04-16T14:40:21Z</time>
      </trkpt>
      <trkpt lat="50.07215" lon="4.19565">
        <ele>186</ele>
        <time>2024-04-16T14:40:22Z</time>
      </trkpt>
      <trkpt lat="50.07208" lon="4.19566">
        <ele>186.2</ele>
        <time>2024-04-16T14:40:23Z</time>
      </trkpt>
      <trkpt lat="50.07202" lon="4.19566">
        <ele>186.2</ele>
        <time>2024-04-16T14:40:24Z</time>
      </trkpt>
      <trkpt lat="50.07195" lon="4.19567">
        <ele>186.4</ele>
        <time>2024-04-16T14:40:25Z</time>
      </trkpt>
      <trkpt lat="50.07188" lon="4.19568">
        <ele>186.4</ele>
        <time>2024-04-16T14:40:26Z</time>
      </trkpt>
      <trkpt lat="50.07181" lon="4.19568">
        <ele>186.4</ele>
        <time>2024-04-16T14:40:27Z</time>
      </trkpt>
      <trkpt lat="50.07175" lon="4.19569">
        <ele>186.6</ele>
        <time>2024-04-16T14:40:28Z</time>
      </trkpt>
      <trkpt lat="50.07168" lon="4.1957">
        <ele>186.6</ele>
        <time>2024-04-16T14:40:29Z</time>
      </trkpt>
      <trkpt lat="50.07161" lon="4.1957">
        <ele>186.6</ele>
        <time>2024-04-16T14:40:30Z</time>
      </trkpt>
      <trkpt lat="50.07155" lon="4.19571">
        <ele>186.4</ele>
        <time>2024-04-16T14:40:31Z</time>
      </trkpt>
      <trkpt lat="50.07148" lon="4.19572">
        <ele>186.4</ele>
        <time>2024-04-16T14:40:32Z</time>
      </trkpt>
      <trkpt lat="50.07141" lon="4.19573">
        <ele>186.4</ele>
        <time>2024-04-16T14:40:33Z</time>
      </trkpt>
      <trkpt lat="50.07135" lon="4.19574">
        <ele>186.6</ele>
        <time>2024-04-16T14:40:34Z</time>
      </trkpt>
      <trkpt lat="50.07128" lon="4.19575">
        <ele>186.6</ele>
        <time>2024-04-16T14:40:35Z</time>
      </trkpt>
      <trkpt lat="50.07122" lon="4.19576">
        <ele>186.6</ele>
        <time>2024-04-16T14:40:36Z</time>
      </trkpt>
      <trkpt lat="50.07115" lon="4.19577">
        <ele>186.6</ele>
        <time>2024-04-16T14:40:37Z</time>
      </trkpt>
      <trkpt lat="50.07109" lon="4.19578">
        <ele>186.6</ele>
        <time>2024-04-16T14:40:38Z</time>
      </trkpt>
      <trkpt lat="50.07102" lon="4.19579">
        <ele>186.6</ele>
        <time>2024-04-16T14:40:39Z</time>
      </trkpt>
      <trkpt lat="50.07095" lon="4.1958">
        <ele>186.6</ele>
        <time>2024-04-16T14:40:40Z</time>
      </trkpt>
      <trkpt lat="50.07089" lon="4.19581">
        <ele>186.8</ele>
        <time>2024-04-16T14:40:41Z</time>
      </trkpt>
      <trkpt lat="50.07082" lon="4.19582">
        <ele>187.4</ele>
        <time>2024-04-16T14:40:42Z</time>
      </trkpt>
      <trkpt lat="50.07076" lon="4.19583">
        <ele>187.6</ele>
        <time>2024-04-16T14:40:43Z</time>
      </trkpt>
      <trkpt lat="50.07069" lon="4.19584">
        <ele>188</ele>
        <time>2024-04-16T14:40:44Z</time>
      </trkpt>
      <trkpt lat="50.07063" lon="4.19585">
        <ele>188.2</ele>
        <time>2024-04-16T14:40:45Z</time>
      </trkpt>
      <trkpt lat="50.07056" lon="4.19586">
        <ele>188.2</ele>
        <time>2024-04-16T14:40:46Z</time>
      </trkpt>
      <trkpt lat="50.0705" lon="4.19587">
        <ele>188.6</ele>
        <time>2024-04-16T14:40:47Z</time>
      </trkpt>
      <trkpt lat="50.07043" lon="4.19588">
        <ele>188.6</ele>
        <time>2024-04-16T14:40:48Z</time>
      </trkpt>
      <trkpt lat="50.07037" lon="4.19589">
        <ele>188.6</ele>
        <time>2024-04-16T14:40:49Z</time>
      </trkpt>
      <trkpt lat="50.0703" lon="4.1959">
        <ele>188.8</ele>
        <time>2024-04-16T14:40:50Z</time>
      </trkpt>
      <trkpt lat="50.07023" lon="4.19591">
        <ele>188.8</ele>
        <time>2024-04-16T14:40:51Z</time>
      </trkpt>
      <trkpt lat="50.07016" lon="4.19592">
        <ele>189</ele>
        <time>2024-04-16T14:40:52Z</time>
      </trkpt>
      <trkpt lat="50.07009" lon="4.19593">
        <ele>189</ele>
        <time>2024-04-16T14:40:53Z</time>
      </trkpt>
      <trkpt lat="50.07003" lon="4.19595">
        <ele>189.2</ele>
        <time>2024-04-16T14:40:54Z</time>
      </trkpt>
      <trkpt lat="50.06996" lon="4.19596">
        <ele>189</ele>
        <time>2024-04-16T14:40:55Z</time>
      </trkpt>
      <trkpt lat="50.06989" lon="4.19597">
        <ele>189.4</ele>
        <time>2024-04-16T14:40:56Z</time>
      </trkpt>
      <trkpt lat="50.06982" lon="4.19598">
        <ele>189.4</ele>
        <time>2024-04-16T14:40:57Z</time>
      </trkpt>
      <trkpt lat="50.06975" lon="4.19599">
        <ele>189.6</ele>
        <time>2024-04-16T14:40:58Z</time>
      </trkpt>
      <trkpt lat="50.06968" lon="4.196">
        <ele>189.6</ele>
        <time>2024-04-16T14:40:59Z</time>
      </trkpt>
      <trkpt lat="50.06961" lon="4.19601">
        <ele>190</ele>
        <time>2024-04-16T14:41:00Z</time>
      </trkpt>
      <trkpt lat="50.06954" lon="4.19602">
        <ele>190</ele>
        <time>2024-04-16T14:41:01Z</time>
      </trkpt>
      <trkpt lat="50.06947" lon="4.19603">
        <ele>190.2</ele>
        <time>2024-04-16T14:41:02Z</time>
      </trkpt>
      <trkpt lat="50.0694" lon="4.19604">
        <ele>190</ele>
        <time>2024-04-16T14:41:03Z</time>
      </trkpt>
      <trkpt lat="50.06933" lon="4.19604">
        <ele>190.2</ele>
        <time>2024-04-16T14:41:04Z</time>
      </trkpt>
      <trkpt lat="50.06926" lon="4.19604">
        <ele>190.4</ele>
        <time>2024-04-16T14:41:05Z</time>
      </trkpt>
      <trkpt lat="50.06919" lon="4.19603">
        <ele>190.6</ele>
        <time>2024-04-16T14:41:06Z</time>
      </trkpt>
      <trkpt lat="50.06912" lon="4.19603">
        <ele>190.6</ele>
        <time>2024-04-16T14:41:07Z</time>
      </trkpt>
      <trkpt lat="50.06905" lon="4.19602">
        <ele>190.6</ele>
        <time>2024-04-16T14:41:08Z</time>
      </trkpt>
      <trkpt lat="50.06898" lon="4.196">
        <ele>191.2</ele>
        <time>2024-04-16T14:41:09Z</time>
      </trkpt>
      <trkpt lat="50.06891" lon="4.19599">
        <ele>191.4</ele>
        <time>2024-04-16T14:41:10Z</time>
      </trkpt>
      <trkpt lat="50.06884" lon="4.19597">
        <ele>191.4</ele>
        <time>2024-04-16T14:41:11Z</time>
      </trkpt>
      <trkpt lat="50.06877" lon="4.19595">
        <ele>191.6</ele>
        <time>2024-04-16T14:41:12Z</time>
      </trkpt>
      <trkpt lat="50.06871" lon="4.19593">
        <ele>191.6</ele>
        <time>2024-04-16T14:41:13Z</time>
      </trkpt>
      <trkpt lat="50.06864" lon="4.19591">
        <ele>191.8</ele>
        <time>2024-04-16T14:41:14Z</time>
      </trkpt>
      <trkpt lat="50.06858" lon="4.19588">
        <ele>191.8</ele>
        <time>2024-04-16T14:41:15Z</time>
      </trkpt>
      <trkpt lat="50.06851" lon="4.19586">
        <ele>192</ele>
        <time>2024-04-16T14:41:16Z</time>
      </trkpt>
      <trkpt lat="50.06845" lon="4.19584">
        <ele>192</ele>
        <time>2024-04-16T14:41:17Z</time>
      </trkpt>
      <trkpt lat="50.06838" lon="4.19582">
        <ele>192.4</ele>
        <time>2024-04-16T14:41:18Z</time>
      </trkpt>
      <trkpt lat="50.06832" lon="4.19579">
        <ele>192.4</ele>
        <time>2024-04-16T14:41:19Z</time>
      </trkpt>
      <trkpt lat="50.06825" lon="4.19577">
        <ele>192.4</ele>
        <time>2024-04-16T14:41:20Z</time>
      </trkpt>
      <trkpt lat="50.06819" lon="4.19574">
        <ele>192.6</ele>
        <time>2024-04-16T14:41:21Z</time>
      </trkpt>
      <trkpt lat="50.06813" lon="4.19572">
        <ele>192.8</ele>
        <time>2024-04-16T14:41:22Z</time>
      </trkpt>
      <trkpt lat="50.06806" lon="4.1957">
        <ele>192.8</ele>
        <time>2024-04-16T14:41:23Z</time>
      </trkpt>
      <trkpt lat="50.06799" lon="4.19567">
        <ele>193</ele>
        <time>2024-04-16T14:41:24Z</time>
      </trkpt>
      <trkpt lat="50.06793" lon="4.19565">
        <ele>193</ele>
        <time>2024-04-16T14:41:25Z</time>
      </trkpt>
      <trkpt lat="50.06786" lon="4.19562">
        <ele>193.2</ele>
        <time>2024-04-16T14:41:26Z</time>
      </trkpt>
      <trkpt lat="50.06779" lon="4.19559">
        <ele>193</ele>
        <time>2024-04-16T14:41:27Z</time>
      </trkpt>
      <trkpt lat="50.06772" lon="4.19557">
        <ele>193</ele>
        <time>2024-04-16T14:41:28Z</time>
      </trkpt>
      <trkpt lat="50.06765" lon="4.19554">
        <ele>193</ele>
        <time>2024-04-16T14:41:29Z</time>
      </trkpt>
      <trkpt lat="50.06758" lon="4.19552">
        <ele>193</ele>
        <time>2024-04-16T14:41:30Z</time>
      </trkpt>
      <trkpt lat="50.06751" lon="4.19549">
        <ele>193</ele>
        <time>2024-04-16T14:41:31Z</time>
      </trkpt>
      <trkpt lat="50.06743" lon="4.19547">
        <ele>193</ele>
        <time>2024-04-16T14:41:32Z</time>
      </trkpt>
      <trkpt lat="50.06735" lon="4.19546">
        <ele>193</ele>
        <time>2024-04-16T14:41:33Z</time>
      </trkpt>
      <trkpt lat="50.06728" lon="4.19544">
        <ele>193</ele>
        <time>2024-04-16T14:41:34Z</time>
      </trkpt>
      <trkpt lat="50.0672" lon="4.19543">
        <ele>193</ele>
        <time>2024-04-16T14:41:35Z</time>
      </trkpt>
      <trkpt lat="50.06712" lon="4.19541">
        <ele>193</ele>
        <time>2024-04-16T14:41:36Z</time>
      </trkpt>
      <trkpt lat="50.06704" lon="4.1954">
        <ele>193</ele>
        <time>2024-04-16T14:41:37Z</time>
      </trkpt>
      <trkpt lat="50.06696" lon="4.1954">
        <ele>192.8</ele>
        <time>2024-04-16T14:41:38Z</time>
      </trkpt>
      <trkpt lat="50.06688" lon="4.1954">
        <ele>192.4</ele>
        <time>2024-04-16T14:41:39Z</time>
      </trkpt>
      <trkpt lat="50.0668" lon="4.1954">
        <ele>192.4</ele>
        <time>2024-04-16T14:41:40Z</time>
      </trkpt>
      <trkpt lat="50.06673" lon="4.1954">
        <ele>192.4</ele>
        <time>2024-04-16T14:41:41Z</time>
      </trkpt>
      <trkpt lat="50.06665" lon="4.1954">
        <ele>192</ele>
        <time>2024-04-16T14:41:42Z</time>
      </trkpt>
      <trkpt lat="50.06657" lon="4.1954">
        <ele>191.8</ele>
        <time>2024-04-16T14:41:43Z</time>
      </trkpt>
      <trkpt lat="50.0665" lon="4.19541">
        <ele>191.6</ele>
        <time>2024-04-16T14:41:44Z</time>
      </trkpt>
      <trkpt lat="50.06642" lon="4.19541">
        <ele>191.2</ele>
        <time>2024-04-16T14:41:45Z</time>
      </trkpt>
      <trkpt lat="50.06634" lon="4.19541">
        <ele>190.8</ele>
        <time>2024-04-16T14:41:46Z</time>
      </trkpt>
      <trkpt lat="50.06627" lon="4.19542">
        <ele>190.6</ele>
        <time>2024-04-16T14:41:47Z</time>
      </trkpt>
      <trkpt lat="50.06619" lon="4.19542">
        <ele>190.6</ele>
        <time>2024-04-16T14:41:48Z</time>
      </trkpt>
      <trkpt lat="50.06612" lon="4.19542">
        <ele>190.6</ele>
        <time>2024-04-16T14:41:49Z</time>
      </trkpt>
      <trkpt lat="50.06605" lon="4.19543">
        <ele>190.6</ele>
        <time>2024-04-16T14:41:50Z</time>
      </trkpt>
      <trkpt lat="50.06598" lon="4.19543">
        <ele>190.4</ele>
        <time>2024-04-16T14:41:51Z</time>
      </trkpt>
      <trkpt lat="50.06591" lon="4.19543">
        <ele>190.6</ele>
        <time>2024-04-16T14:41:52Z</time>
      </trkpt>
      <trkpt lat="50.06584" lon="4.19544">
        <ele>190.6</ele>
        <time>2024-04-16T14:41:53Z</time>
      </trkpt>
      <trkpt lat="50.06577" lon="4.19544">
        <ele>190.4</ele>
        <time>2024-04-16T14:41:54Z</time>
      </trkpt>
      <trkpt lat="50.0657" lon="4.19544">
        <ele>190.4</ele>
        <time>2024-04-16T14:41:55Z</time>
      </trkpt>
      <trkpt lat="50.06563" lon="4.19545">
        <ele>190.6</ele>
        <time>2024-04-16T14:41:56Z</time>
      </trkpt>
      <trkpt lat="50.06556" lon="4.19545">
        <ele>190.6</ele>
        <time>2024-04-16T14:41:57Z</time>
      </trkpt>
      <trkpt lat="50.06549" lon="4.19545">
        <ele>190.6</ele>
        <time>2024-04-16T14:41:58Z</time>
      </trkpt>
      <trkpt lat="50.06542" lon="4.19545">
        <ele>190.6</ele>
        <time>2024-04-16T14:41:59Z</time>
      </trkpt>
      <trkpt lat="50.06536" lon="4.19545">
        <ele>190.6</ele>
        <time>2024-04-16T14:42:00Z</time>
      </trkpt>
      <trkpt lat="50.0653" lon="4.19545">
        <ele>190.8</ele>
        <time>2024-04-16T14:42:01Z</time>
      </trkpt>
      <trkpt lat="50.06524" lon="4.19546">
        <ele>190.8</ele>
        <time>2024-04-16T14:42:02Z</time>
      </trkpt>
      <trkpt lat="50.06518" lon="4.19545">
        <ele>190.8</ele>
        <time>2024-04-16T14:42:03Z</time>
      </trkpt>
      <trkpt lat="50.06512" lon="4.19544">
        <ele>191.2</ele>
        <time>2024-04-16T14:42:04Z</time>
      </trkpt>
      <trkpt lat="50.06507" lon="4.19544">
        <ele>191.4</ele>
        <time>2024-04-16T14:42:05Z</time>
      </trkpt>
      <trkpt lat="50.06502" lon="4.19545">
        <ele>191.4</ele>
        <time>2024-04-16T14:42:06Z</time>
      </trkpt>
      <trkpt lat="50.06497" lon="4.19548">
        <ele>191.6</ele>
        <time>2024-04-16T14:42:07Z</time>
      </trkpt>
      <trkpt lat="50.06492" lon="4.19552">
        <ele>191.6</ele>
        <time>2024-04-16T14:42:08Z</time>
      </trkpt>
      <trkpt lat="50.06487" lon="4.19557">
        <ele>191.6</ele>
        <time>2024-04-16T14:42:09Z</time>
      </trkpt>
      <trkpt lat="50.06482" lon="4.19564">
        <ele>191.8</ele>
        <time>2024-04-16T14:42:10Z</time>
      </trkpt>
      <trkpt lat="50.06477" lon="4.19571">
        <ele>191.8</ele>
        <time>2024-04-16T14:42:11Z</time>
      </trkpt>
      <trkpt lat="50.06472" lon="4.19579">
        <ele>191.8</ele>
        <time>2024-04-16T14:42:12Z</time>
      </trkpt>
      <trkpt lat="50.06467" lon="4.19587">
        <ele>191.6</ele>
        <time>2024-04-16T14:42:13Z</time>
      </trkpt>
      <trkpt lat="50.06462" lon="4.19596">
        <ele>191.8</ele>
        <time>2024-04-16T14:42:14Z</time>
      </trkpt>
      <trkpt lat="50.06458" lon="4.19605">
        <ele>191.8</ele>
        <time>2024-04-16T14:42:15Z</time>
      </trkpt>
      <trkpt lat="50.06454" lon="4.19615">
        <ele>191.8</ele>
        <time>2024-04-16T14:42:16Z</time>
      </trkpt>
      <trkpt lat="50.0645" lon="4.19627">
        <ele>191.8</ele>
        <time>2024-04-16T14:42:17Z</time>
      </trkpt>
      <trkpt lat="50.06447" lon="4.19639">
        <ele>191.8</ele>
        <time>2024-04-16T14:42:18Z</time>
      </trkpt>
      <trkpt lat="50.06445" lon="4.19651">
        <ele>191.6</ele>
        <time>2024-04-16T14:42:19Z</time>
      </trkpt>
      <trkpt lat="50.06444" lon="4.19664">
        <ele>191</ele>
        <time>2024-04-16T14:42:20Z</time>
      </trkpt>
      <trkpt lat="50.06442" lon="4.19677">
        <ele>190.8</ele>
        <time>2024-04-16T14:42:21Z</time>
      </trkpt>
      <trkpt lat="50.06442" lon="4.1969">
        <ele>190.6</ele>
        <time>2024-04-16T14:42:22Z</time>
      </trkpt>
      <trkpt lat="50.06441" lon="4.19704">
        <ele>190.2</ele>
        <time>2024-04-16T14:42:23Z</time>
      </trkpt>
      <trkpt lat="50.0644" lon="4.19717">
        <ele>189.8</ele>
        <time>2024-04-16T14:42:24Z</time>
      </trkpt>
      <trkpt lat="50.06438" lon="4.1973">
        <ele>189.2</ele>
        <time>2024-04-16T14:42:25Z</time>
      </trkpt>
      <trkpt lat="50.06437" lon="4.19742">
        <ele>189</ele>
        <time>2024-04-16T14:42:26Z</time>
      </trkpt>
      <trkpt lat="50.06435" lon="4.19755">
        <ele>188.6</ele>
        <time>2024-04-16T14:42:27Z</time>
      </trkpt>
      <trkpt lat="50.06432" lon="4.19767">
        <ele>188.4</ele>
        <time>2024-04-16T14:42:28Z</time>
      </trkpt>
      <trkpt lat="50.0643" lon="4.19779">
        <ele>188.2</ele>
        <time>2024-04-16T14:42:29Z</time>
      </trkpt>
      <trkpt lat="50.06428" lon="4.1979">
        <ele>188</ele>
        <time>2024-04-16T14:42:30Z</time>
      </trkpt>
      <trkpt lat="50.06426" lon="4.19802">
        <ele>188.2</ele>
        <time>2024-04-16T14:42:31Z</time>
      </trkpt>
      <trkpt lat="50.06423" lon="4.19813">
        <ele>187.8</ele>
        <time>2024-04-16T14:42:32Z</time>
      </trkpt>
      <trkpt lat="50.06421" lon="4.19824">
        <ele>187.8</ele>
        <time>2024-04-16T14:42:33Z</time>
      </trkpt>
      <trkpt lat="50.06419" lon="4.19835">
        <ele>187.8</ele>
        <time>2024-04-16T14:42:34Z</time>
      </trkpt>
      <trkpt lat="50.06417" lon="4.19846">
        <ele>187.8</ele>
        <time>2024-04-16T14:42:35Z</time>
      </trkpt>
      <trkpt lat="50.06414" lon="4.19856">
        <ele>187.8</ele>
        <time>2024-04-16T14:42:36Z</time>
      </trkpt>
      <trkpt lat="50.06412" lon="4.19867">
        <ele>187.6</ele>
        <time>2024-04-16T14:42:37Z</time>
      </trkpt>
      <trkpt lat="50.06409" lon="4.19877">
        <ele>187.4</ele>
        <time>2024-04-16T14:42:38Z</time>
      </trkpt>
      <trkpt lat="50.06404" lon="4.19886">
        <ele>187.4</ele>
        <time>2024-04-16T14:42:39Z</time>
      </trkpt>
      <trkpt lat="50.06398" lon="4.19892">
        <ele>187.4</ele>
        <time>2024-04-16T14:42:40Z</time>
      </trkpt>
      <trkpt lat="50.06391" lon="4.19896">
        <ele>187.2</ele>
        <time>2024-04-16T14:42:41Z</time>
      </trkpt>
      <trkpt lat="50.06384" lon="4.19899">
        <ele>187.4</ele>
        <time>2024-04-16T14:42:42Z</time>
      </trkpt>
      <trkpt lat="50.06377" lon="4.19903">
        <ele>187.2</ele>
        <time>2024-04-16T14:42:43Z</time>
      </trkpt>
      <trkpt lat="50.06371" lon="4.19906">
        <ele>187.2</ele>
        <time>2024-04-16T14:42:44Z</time>
      </trkpt>
      <trkpt lat="50.06364" lon="4.1991">
        <ele>187.2</ele>
        <time>2024-04-16T14:42:45Z</time>
      </trkpt>
      <trkpt lat="50.06357" lon="4.19913">
        <ele>187.4</ele>
        <time>2024-04-16T14:42:46Z</time>
      </trkpt>
      <trkpt lat="50.06351" lon="4.19917">
        <ele>187.4</ele>
        <time>2024-04-16T14:42:47Z</time>
      </trkpt>
      <trkpt lat="50.06345" lon="4.19921">
        <ele>187.4</ele>
        <time>2024-04-16T14:42:48Z</time>
      </trkpt>
      <trkpt lat="50.06339" lon="4.19925">
        <ele>187.4</ele>
        <time>2024-04-16T14:42:49Z</time>
      </trkpt>
      <trkpt lat="50.06334" lon="4.1993">
        <ele>187.4</ele>
        <time>2024-04-16T14:42:50Z</time>
      </trkpt>
      <trkpt lat="50.06329" lon="4.19935">
        <ele>187.6</ele>
        <time>2024-04-16T14:42:51Z</time>
      </trkpt>
      <trkpt lat="50.06324" lon="4.19941">
        <ele>187.8</ele>
        <time>2024-04-16T14:42:52Z</time>
      </trkpt>
      <trkpt lat="50.0632" lon="4.19947">
        <ele>187.8</ele>
        <time>2024-04-16T14:42:53Z</time>
      </trkpt>
      <trkpt lat="50.06317" lon="4.19954">
        <ele>188</ele>
        <time>2024-04-16T14:42:54Z</time>
      </trkpt>
      <trkpt lat="50.06315" lon="4.19962">
        <ele>188</ele>
        <time>2024-04-16T14:42:55Z</time>
      </trkpt>
      <trkpt lat="50.06313" lon="4.19969">
        <ele>188.2</ele>
        <time>2024-04-16T14:42:56Z</time>
      </trkpt>
      <trkpt lat="50.06313" lon="4.19977">
        <ele>188.4</ele>
        <time>2024-04-16T14:42:57Z</time>
      </trkpt>
      <trkpt lat="50.06312" lon="4.19985">
        <ele>188.4</ele>
        <time>2024-04-16T14:42:58Z</time>
      </trkpt>
      <trkpt lat="50.06312" lon="4.19993">
        <ele>188.8</ele>
        <time>2024-04-16T14:42:59Z</time>
      </trkpt>
      <trkpt lat="50.06313" lon="4.20001">
        <ele>189</ele>
        <time>2024-04-16T14:43:00Z</time>
      </trkpt>
      <trkpt lat="50.06313" lon="4.2001">
        <ele>189.8</ele>
        <time>2024-04-16T14:43:01Z</time>
      </trkpt>
      <trkpt lat="50.06314" lon="4.20018">
        <ele>190.4</ele>
        <time>2024-04-16T14:43:02Z</time>
      </trkpt>
      <trkpt lat="50.06314" lon="4.20027">
        <ele>190.8</ele>
        <time>2024-04-16T14:43:03Z</time>
      </trkpt>
      <trkpt lat="50.06313" lon="4.20036">
        <ele>191.2</ele>
        <time>2024-04-16T14:43:04Z</time>
      </trkpt>
      <trkpt lat="50.06311" lon="4.20045">
        <ele>191.8</ele>
        <time>2024-04-16T14:43:05Z</time>
      </trkpt>
      <trkpt lat="50.06309" lon="4.20054">
        <ele>192</ele>
        <time>2024-04-16T14:43:06Z</time>
      </trkpt>
      <trkpt lat="50.06306" lon="4.20063">
        <ele>192</ele>
        <time>2024-04-16T14:43:07Z</time>
      </trkpt>
      <trkpt lat="50.06304" lon="4.20072">
        <ele>192.4</ele>
        <time>2024-04-16T14:43:08Z</time>
      </trkpt>
      <trkpt lat="50.06302" lon="4.20081">
        <ele>192.6</ele>
        <time>2024-04-16T14:43:09Z</time>
      </trkpt>
      <trkpt lat="50.063" lon="4.2009">
        <ele>192.6</ele>
        <time>2024-04-16T14:43:10Z</time>
      </trkpt>
      <trkpt lat="50.06299" lon="4.201">
        <ele>192.6</ele>
        <time>2024-04-16T14:43:11Z</time>
      </trkpt>
      <trkpt lat="50.06298" lon="4.2011">
        <ele>192.8</ele>
        <time>2024-04-16T14:43:12Z</time>
      </trkpt>
      <trkpt lat="50.06298" lon="4.2012">
        <ele>192.8</ele>
        <time>2024-04-16T14:43:13Z</time>
      </trkpt>
      <trkpt lat="50.06298" lon="4.2013">
        <ele>193</ele>
        <time>2024-04-16T14:43:14Z</time>
      </trkpt>
      <trkpt lat="50.06298" lon="4.2014">
        <ele>193</ele>
        <time>2024-04-16T14:43:15Z</time>
      </trkpt>
      <trkpt lat="50.06299" lon="4.2015">
        <ele>193.2</ele>
        <time>2024-04-16T14:43:16Z</time>
      </trkpt>
      <trkpt lat="50.06298" lon="4.2016">
        <ele>193.4</ele>
        <time>2024-04-16T14:43:17Z</time>
      </trkpt>
      <trkpt lat="50.06297" lon="4.2017">
        <ele>193.4</ele>
        <time>2024-04-16T14:43:18Z</time>
      </trkpt>
      <trkpt lat="50.06297" lon="4.2018">
        <ele>193.4</ele>
        <time>2024-04-16T14:43:19Z</time>
      </trkpt>
      <trkpt lat="50.06296" lon="4.2019">
        <ele>193.4</ele>
        <time>2024-04-16T14:43:20Z</time>
      </trkpt>
      <trkpt lat="50.06295" lon="4.20199">
        <ele>193.4</ele>
        <time>2024-04-16T14:43:21Z</time>
      </trkpt>
      <trkpt lat="50.06295" lon="4.20209">
        <ele>193.4</ele>
        <time>2024-04-16T14:43:22Z</time>
      </trkpt>
      <trkpt lat="50.06294" lon="4.20219">
        <ele>193.8</ele>
        <time>2024-04-16T14:43:23Z</time>
      </trkpt>
      <trkpt lat="50.06293" lon="4.20228">
        <ele>193.8</ele>
        <time>2024-04-16T14:43:24Z</time>
      </trkpt>
      <trkpt lat="50.06293" lon="4.20239">
        <ele>194</ele>
        <time>2024-04-16T14:43:25Z</time>
      </trkpt>
      <trkpt lat="50.06292" lon="4.20249">
        <ele>194.2</ele>
        <time>2024-04-16T14:43:26Z</time>
      </trkpt>
      <trkpt lat="50.06292" lon="4.20259">
        <ele>194.4</ele>
        <time>2024-04-16T14:43:27Z</time>
      </trkpt>
      <trkpt lat="50.06292" lon="4.20269">
        <ele>194.6</ele>
        <time>2024-04-16T14:43:28Z</time>
      </trkpt>
      <trkpt lat="50.06292" lon="4.20279">
        <ele>194.8</ele>
        <time>2024-04-16T14:43:29Z</time>
      </trkpt>
      <trkpt lat="50.06291" lon="4.20289">
        <ele>195.2</ele>
        <time>2024-04-16T14:43:30Z</time>
      </trkpt>
      <trkpt lat="50.06291" lon="4.20298">
        <ele>195.2</ele>
        <time>2024-04-16T14:43:31Z</time>
      </trkpt>
      <trkpt lat="50.06291" lon="4.20306">
        <ele>195.4</ele>
        <time>2024-04-16T14:43:32Z</time>
      </trkpt>
      <trkpt lat="50.06291" lon="4.20315">
        <ele>195.4</ele>
        <time>2024-04-16T14:43:33Z</time>
      </trkpt>
      <trkpt lat="50.06291" lon="4.20323">
        <ele>195.8</ele>
        <time>2024-04-16T14:43:34Z</time>
      </trkpt>
      <trkpt lat="50.06291" lon="4.2033">
        <ele>195.8</ele>
        <time>2024-04-16T14:43:35Z</time>
      </trkpt>
      <trkpt lat="50.0629" lon="4.20339">
        <ele>196</ele>
        <time>2024-04-16T14:43:36Z</time>
      </trkpt>
      <trkpt lat="50.0629" lon="4.20347">
        <ele>196</ele>
        <time>2024-04-16T14:43:37Z</time>
      </trkpt>
      <trkpt lat="50.06289" lon="4.20356">
        <ele>196</ele>
        <time>2024-04-16T14:43:38Z</time>
      </trkpt>
      <trkpt lat="50.06289" lon="4.20365">
        <ele>196</ele>
        <time>2024-04-16T14:43:39Z</time>
      </trkpt>
      <trkpt lat="50.06289" lon="4.20375">
        <ele>196.2</ele>
        <time>2024-04-16T14:43:40Z</time>
      </trkpt>
      <trkpt lat="50.06289" lon="4.20384">
        <ele>196.2</ele>
        <time>2024-04-16T14:43:41Z</time>
      </trkpt>
      <trkpt lat="50.06288" lon="4.20394">
        <ele>196.4</ele>
        <time>2024-04-16T14:43:42Z</time>
      </trkpt>
      <trkpt lat="50.06285" lon="4.20402">
        <ele>196.6</ele>
        <time>2024-04-16T14:43:43Z</time>
      </trkpt>
      <trkpt lat="50.0628" lon="4.20409">
        <ele>196.8</ele>
        <time>2024-04-16T14:43:44Z</time>
      </trkpt>
      <trkpt lat="50.06274" lon="4.20414">
        <ele>196.8</ele>
        <time>2024-04-16T14:43:45Z</time>
      </trkpt>
      <trkpt lat="50.06267" lon="4.20418">
        <ele>196.8</ele>
        <time>2024-04-16T14:43:46Z</time>
      </trkpt>
      <trkpt lat="50.0626" lon="4.20422">
        <ele>197</ele>
        <time>2024-04-16T14:43:47Z</time>
      </trkpt>
      <trkpt lat="50.06253" lon="4.20426">
        <ele>197.2</ele>
        <time>2024-04-16T14:43:48Z</time>
      </trkpt>
      <trkpt lat="50.06246" lon="4.20431">
        <ele>197.2</ele>
        <time>2024-04-16T14:43:49Z</time>
      </trkpt>
      <trkpt lat="50.06238" lon="4.20435">
        <ele>197.2</ele>
        <time>2024-04-16T14:43:50Z</time>
      </trkpt>
      <trkpt lat="50.0623" lon="4.20439">
        <ele>197.4</ele>
        <time>2024-04-16T14:43:51Z</time>
      </trkpt>
      <trkpt lat="50.06222" lon="4.20443">
        <ele>197.2</ele>
        <time>2024-04-16T14:43:52Z</time>
      </trkpt>
      <trkpt lat="50.06214" lon="4.20448">
        <ele>197.2</ele>
        <time>2024-04-16T14:43:53Z</time>
      </trkpt>
      <trkpt lat="50.06206" lon="4.20453">
        <ele>197</ele>
        <time>2024-04-16T14:43:54Z</time>
      </trkpt>
      <trkpt lat="50.06198" lon="4.20457">
        <ele>197</ele>
        <time>2024-04-16T14:43:55Z</time>
      </trkpt>
      <trkpt lat="50.0619" lon="4.20461">
        <ele>197</ele>
        <time>2024-04-16T14:43:56Z</time>
      </trkpt>
      <trkpt lat="50.06183" lon="4.20465">
        <ele>197</ele>
        <time>2024-04-16T14:43:57Z</time>
      </trkpt>
      <trkpt lat="50.06175" lon="4.20469">
        <ele>196.8</ele>
        <time>2024-04-16T14:43:58Z</time>
      </trkpt>
      <trkpt lat="50.06167" lon="4.20474">
        <ele>196.4</ele>
        <time>2024-04-16T14:43:59Z</time>
      </trkpt>
      <trkpt lat="50.0616" lon="4.20478">
        <ele>195.6</ele>
        <time>2024-04-16T14:44:00Z</time>
      </trkpt>
      <trkpt lat="50.06153" lon="4.20482">
        <ele>195</ele>
        <time>2024-04-16T14:44:01Z</time>
      </trkpt>
      <trkpt lat="50.06146" lon="4.20486">
        <ele>194.8</ele>
        <time>2024-04-16T14:44:02Z</time>
      </trkpt>
      <trkpt lat="50.06139" lon="4.2049">
        <ele>194.6</ele>
        <time>2024-04-16T14:44:03Z</time>
      </trkpt>
      <trkpt lat="50.06132" lon="4.20493">
        <ele>194.6</ele>
        <time>2024-04-16T14:44:04Z</time>
      </trkpt>
      <trkpt lat="50.06125" lon="4.20497">
        <ele>194.4</ele>
        <time>2024-04-16T14:44:05Z</time>
      </trkpt>
      <trkpt lat="50.06119" lon="4.20501">
        <ele>194.6</ele>
        <time>2024-04-16T14:44:06Z</time>
      </trkpt>
      <trkpt lat="50.06112" lon="4.20505">
        <ele>194.6</ele>
        <time>2024-04-16T14:44:07Z</time>
      </trkpt>
      <trkpt lat="50.06106" lon="4.20509">
        <ele>194.6</ele>
        <time>2024-04-16T14:44:08Z</time>
      </trkpt>
      <trkpt lat="50.06099" lon="4.20512">
        <ele>194.4</ele>
        <time>2024-04-16T14:44:09Z</time>
      </trkpt>
      <trkpt lat="50.06093" lon="4.20516">
        <ele>194.4</ele>
        <time>2024-04-16T14:44:10Z</time>
      </trkpt>
      <trkpt lat="50.06087" lon="4.2052">
        <ele>194.4</ele>
        <time>2024-04-16T14:44:11Z</time>
      </trkpt>
      <trkpt lat="50.0608" lon="4.20523">
        <ele>194.8</ele>
        <time>2024-04-16T14:44:12Z</time>
      </trkpt>
      <trkpt lat="50.06074" lon="4.20526">
        <ele>194.8</ele>
        <time>2024-04-16T14:44:13Z</time>
      </trkpt>
      <trkpt lat="50.06069" lon="4.2053">
        <ele>195</ele>
        <time>2024-04-16T14:44:14Z</time>
      </trkpt>
      <trkpt lat="50.06063" lon="4.20533">
        <ele>195.4</ele>
        <time>2024-04-16T14:44:15Z</time>
      </trkpt>
      <trkpt lat="50.06057" lon="4.20536">
        <ele>195.4</ele>
        <time>2024-04-16T14:44:16Z</time>
      </trkpt>
      <trkpt lat="50.06052" lon="4.20539">
        <ele>195.6</ele>
        <time>2024-04-16T14:44:17Z</time>
      </trkpt>
      <trkpt lat="50.06047" lon="4.20542">
        <ele>195.6</ele>
        <time>2024-04-16T14:44:18Z</time>
      </trkpt>
      <trkpt lat="50.06041" lon="4.20545">
        <ele>196</ele>
        <time>2024-04-16T14:44:19Z</time>
      </trkpt>
      <trkpt lat="50.06036" lon="4.20548">
        <ele>196.2</ele>
        <time>2024-04-16T14:44:20Z</time>
      </trkpt>
      <trkpt lat="50.06031" lon="4.20551">
        <ele>196.6</ele>
        <time>2024-04-16T14:44:21Z</time>
      </trkpt>
      <trkpt lat="50.06026" lon="4.20554">
        <ele>197.4</ele>
        <time>2024-04-16T14:44:22Z</time>
      </trkpt>
      <trkpt lat="50.06021" lon="4.20557">
        <ele>197.8</ele>
        <time>2024-04-16T14:44:23Z</time>
      </trkpt>
      <trkpt lat="50.06016" lon="4.2056">
        <ele>198.4</ele>
        <time>2024-04-16T14:44:24Z</time>
      </trkpt>
      <trkpt lat="50.06012" lon="4.20563">
        <ele>199</ele>
        <time>2024-04-16T14:44:25Z</time>
      </trkpt>
      <trkpt lat="50.06007" lon="4.20565">
        <ele>199</ele>
        <time>2024-04-16T14:44:26Z</time>
      </trkpt>
      <trkpt lat="50.06002" lon="4.20568">
        <ele>199.4</ele>
        <time>2024-04-16T14:44:27Z</time>
      </trkpt>
      <trkpt lat="50.05997" lon="4.20571">
        <ele>199.8</ele>
        <time>2024-04-16T14:44:28Z</time>
      </trkpt>
      <trkpt lat="50.05993" lon="4.20573">
        <ele>200.6</ele>
        <time>2024-04-16T14:44:29Z</time>
      </trkpt>
      <trkpt lat="50.05988" lon="4.20576">
        <ele>200.8</ele>
        <time>2024-04-16T14:44:30Z</time>
      </trkpt>
      <trkpt lat="50.05984" lon="4.20578">
        <ele>201.2</ele>
        <time>2024-04-16T14:44:31Z</time>
      </trkpt>
      <trkpt lat="50.0598" lon="4.20581">
        <ele>201.8</ele>
        <time>2024-04-16T14:44:32Z</time>
      </trkpt>
      <trkpt lat="50.05975" lon="4.20583">
        <ele>202.2</ele>
        <time>2024-04-16T14:44:33Z</time>
      </trkpt>
      <trkpt lat="50.05971" lon="4.20586">
        <ele>202.4</ele>
        <time>2024-04-16T14:44:34Z</time>
      </trkpt>
      <trkpt lat="50.05967" lon="4.20588">
        <ele>202.4</ele>
        <time>2024-04-16T14:44:35Z</time>
      </trkpt>
      <trkpt lat="50.05962" lon="4.20591">
        <ele>202.8</ele>
        <time>2024-04-16T14:44:36Z</time>
      </trkpt>
      <trkpt lat="50.05958" lon="4.20593">
        <ele>203</ele>
        <time>2024-04-16T14:44:37Z</time>
      </trkpt>
      <trkpt lat="50.05954" lon="4.20596">
        <ele>203.2</ele>
        <time>2024-04-16T14:44:38Z</time>
      </trkpt>
      <trkpt lat="50.05949" lon="4.20598">
        <ele>203.6</ele>
        <time>2024-04-16T14:44:39Z</time>
      </trkpt>
      <trkpt lat="50.05945" lon="4.20601">
        <ele>204</ele>
        <time>2024-04-16T14:44:40Z</time>
      </trkpt>
      <trkpt lat="50.05941" lon="4.20603">
        <ele>204.6</ele>
        <time>2024-04-16T14:44:41Z</time>
      </trkpt>
      <trkpt lat="50.05937" lon="4.20606">
        <ele>204.8</ele>
        <time>2024-04-16T14:44:42Z</time>
      </trkpt>
      <trkpt lat="50.05933" lon="4.20608">
        <ele>205.4</ele>
        <time>2024-04-16T14:44:43Z</time>
      </trkpt>
      <trkpt lat="50.05929" lon="4.2061">
        <ele>206</ele>
        <time>2024-04-16T14:44:44Z</time>
      </trkpt>
      <trkpt lat="50.05925" lon="4.20613">
        <ele>206.4</ele>
        <time>2024-04-16T14:44:45Z</time>
      </trkpt>
      <trkpt lat="50.05921" lon="4.20615">
        <ele>206.6</ele>
        <time>2024-04-16T14:44:46Z</time>
      </trkpt>
      <trkpt lat="50.05917" lon="4.20618">
        <ele>206.8</ele>
        <time>2024-04-16T14:44:47Z</time>
      </trkpt>
      <trkpt lat="50.05913" lon="4.2062">
        <ele>207.2</ele>
        <time>2024-04-16T14:44:48Z</time>
      </trkpt>
      <trkpt lat="50.05909" lon="4.20623">
        <ele>207.2</ele>
        <time>2024-04-16T14:44:49Z</time>
      </trkpt>
      <trkpt lat="50.05906" lon="4.20626">
        <ele>207.6</ele>
        <time>2024-04-16T14:44:50Z</time>
      </trkpt>
      <trkpt lat="50.05902" lon="4.20628">
        <ele>208.2</ele>
        <time>2024-04-16T14:44:51Z</time>
      </trkpt>
      <trkpt lat="50.05897" lon="4.20631">
        <ele>208.6</ele>
        <time>2024-04-16T14:44:52Z</time>
      </trkpt>
      <trkpt lat="50.05893" lon="4.20634">
        <ele>209</ele>
        <time>2024-04-16T14:44:53Z</time>
      </trkpt>
      <trkpt lat="50.05889" lon="4.20637">
        <ele>209.6</ele>
        <time>2024-04-16T14:44:54Z</time>
      </trkpt>
      <trkpt lat="50.05885" lon="4.2064">
        <ele>210</ele>
        <time>2024-04-16T14:44:55Z</time>
      </trkpt>
      <trkpt lat="50.05881" lon="4.20643">
        <ele>210.8</ele>
        <time>2024-04-16T14:44:56Z</time>
      </trkpt>
      <trkpt lat="50.05877" lon="4.20646">
        <ele>211.2</ele>
        <time>2024-04-16T14:44:57Z</time>
      </trkpt>
      <trkpt lat="50.05873" lon="4.2065">
        <ele>211.4</ele>
        <time>2024-04-16T14:44:58Z</time>
      </trkpt>
      <trkpt lat="50.05869" lon="4.20653">
        <ele>211.6</ele>
        <time>2024-04-16T14:44:59Z</time>
      </trkpt>
      <trkpt lat="50.05865" lon="4.20656">
        <ele>212</ele>
        <time>2024-04-16T14:45:00Z</time>
      </trkpt>
      <trkpt lat="50.05861" lon="4.2066">
        <ele>212.4</ele>
        <time>2024-04-16T14:45:01Z</time>
      </trkpt>
      <trkpt lat="50.05857" lon="4.20663">
        <ele>212.6</ele>
        <time>2024-04-16T14:45:02Z</time>
      </trkpt>
      <trkpt lat="50.05853" lon="4.20666">
        <ele>212.8</ele>
        <time>2024-04-16T14:45:03Z</time>
      </trkpt>
      <trkpt lat="50.05849" lon="4.2067">
        <ele>213</ele>
        <time>2024-04-16T14:45:04Z</time>
      </trkpt>
      <trkpt lat="50.05845" lon="4.20673">
        <ele>213.4</ele>
        <time>2024-04-16T14:45:05Z</time>
      </trkpt>
      <trkpt lat="50.05841" lon="4.20677">
        <ele>213.8</ele>
        <time>2024-04-16T14:45:06Z</time>
      </trkpt>
      <trkpt lat="50.05836" lon="4.2068">
        <ele>213.8</ele>
        <time>2024-04-16T14:45:07Z</time>
      </trkpt>
      <trkpt lat="50.05832" lon="4.20684">
        <ele>214</ele>
        <time>2024-04-16T14:45:08Z</time>
      </trkpt>
      <trkpt lat="50.05827" lon="4.20688">
        <ele>214.2</ele>
        <time>2024-04-16T14:45:09Z</time>
      </trkpt>
      <trkpt lat="50.05822" lon="4.20692">
        <ele>214.4</ele>
        <time>2024-04-16T14:45:10Z</time>
      </trkpt>
      <trkpt lat="50.05817" lon="4.20696">
        <ele>214.4</ele>
        <time>2024-04-16T14:45:11Z</time>
      </trkpt>
      <trkpt lat="50.05811" lon="4.20701">
        <ele>214.4</ele>
        <time>2024-04-16T14:45:12Z</time>
      </trkpt>
      <trkpt lat="50.05806" lon="4.20705">
        <ele>214.4</ele>
        <time>2024-04-16T14:45:13Z</time>
      </trkpt>
      <trkpt lat="50.058" lon="4.2071">
        <ele>214.6</ele>
        <time>2024-04-16T14:45:14Z</time>
      </trkpt>
      <trkpt lat="50.05794" lon="4.20715">
        <ele>214.6</ele>
        <time>2024-04-16T14:45:15Z</time>
      </trkpt>
      <trkpt lat="50.05788" lon="4.20721">
        <ele>214.6</ele>
        <time>2024-04-16T14:45:16Z</time>
      </trkpt>
      <trkpt lat="50.05782" lon="4.20726">
        <ele>214.6</ele>
        <time>2024-04-16T14:45:17Z</time>
      </trkpt>
      <trkpt lat="50.05776" lon="4.20731">
        <ele>214.8</ele>
        <time>2024-04-16T14:45:18Z</time>
      </trkpt>
      <trkpt lat="50.05769" lon="4.20736">
        <ele>214.8</ele>
        <time>2024-04-16T14:45:19Z</time>
      </trkpt>
      <trkpt lat="50.05762" lon="4.20741">
        <ele>214.6</ele>
        <time>2024-04-16T14:45:20Z</time>
      </trkpt>
      <trkpt lat="50.05755" lon="4.20747">
        <ele>214.6</ele>
        <time>2024-04-16T14:45:21Z</time>
      </trkpt>
      <trkpt lat="50.05747" lon="4.20753">
        <ele>214.6</ele>
        <time>2024-04-16T14:45:22Z</time>
      </trkpt>
      <trkpt lat="50.0574" lon="4.20759">
        <ele>214.6</ele>
        <time>2024-04-16T14:45:23Z</time>
      </trkpt>
      <trkpt lat="50.05732" lon="4.20765">
        <ele>214.6</ele>
        <time>2024-04-16T14:45:24Z</time>
      </trkpt>
      <trkpt lat="50.05724" lon="4.20771">
        <ele>214.4</ele>
        <time>2024-04-16T14:45:25Z</time>
      </trkpt>
      <trkpt lat="50.05716" lon="4.20778">
        <ele>214.4</ele>
        <time>2024-04-16T14:45:26Z</time>
      </trkpt>
      <trkpt lat="50.05707" lon="4.20784">
        <ele>213.8</ele>
        <time>2024-04-16T14:45:27Z</time>
      </trkpt>
      <trkpt lat="50.05699" lon="4.20791">
        <ele>213.6</ele>
        <time>2024-04-16T14:45:28Z</time>
      </trkpt>
      <trkpt lat="50.05691" lon="4.20798">
        <ele>213.4</ele>
        <time>2024-04-16T14:45:29Z</time>
      </trkpt>
      <trkpt lat="50.05683" lon="4.20805">
        <ele>213</ele>
        <time>2024-04-16T14:45:30Z</time>
      </trkpt>
      <trkpt lat="50.05675" lon="4.20811">
        <ele>211.6</ele>
        <time>2024-04-16T14:45:31Z</time>
      </trkpt>
      <trkpt lat="50.05668" lon="4.20817">
        <ele>210.4</ele>
        <time>2024-04-16T14:45:32Z</time>
      </trkpt>
      <trkpt lat="50.05661" lon="4.20823">
        <ele>210.4</ele>
        <time>2024-04-16T14:45:33Z</time>
      </trkpt>
      <trkpt lat="50.05654" lon="4.20829">
        <ele>209.8</ele>
        <time>2024-04-16T14:45:34Z</time>
      </trkpt>
      <trkpt lat="50.05647" lon="4.20834">
        <ele>209.2</ele>
        <time>2024-04-16T14:45:35Z</time>
      </trkpt>
      <trkpt lat="50.05641" lon="4.20838">
        <ele>208.8</ele>
        <time>2024-04-16T14:45:36Z</time>
      </trkpt>
      <trkpt lat="50.05635" lon="4.20843">
        <ele>208.8</ele>
        <time>2024-04-16T14:45:37Z</time>
      </trkpt>
      <trkpt lat="50.05629" lon="4.20847">
        <ele>208.6</ele>
        <time>2024-04-16T14:45:38Z</time>
      </trkpt>
      <trkpt lat="50.05623" lon="4.20852">
        <ele>208.4</ele>
        <time>2024-04-16T14:45:39Z</time>
      </trkpt>
      <trkpt lat="50.05617" lon="4.20856">
        <ele>208.4</ele>
        <time>2024-04-16T14:45:40Z</time>
      </trkpt>
      <trkpt lat="50.05612" lon="4.20861">
        <ele>208.4</ele>
        <time>2024-04-16T14:45:41Z</time>
      </trkpt>
      <trkpt lat="50.05606" lon="4.20865">
        <ele>208.4</ele>
        <time>2024-04-16T14:45:42Z</time>
      </trkpt>
      <trkpt lat="50.05601" lon="4.2087">
        <ele>208.4</ele>
        <time>2024-04-16T14:45:43Z</time>
      </trkpt>
      <trkpt lat="50.05596" lon="4.20874">
        <ele>208.4</ele>
        <time>2024-04-16T14:45:44Z</time>
      </trkpt>
      <trkpt lat="50.05591" lon="4.20878">
        <ele>208.6</ele>
        <time>2024-04-16T14:45:45Z</time>
      </trkpt>
      <trkpt lat="50.05585" lon="4.20882">
        <ele>208.6</ele>
        <time>2024-04-16T14:45:46Z</time>
      </trkpt>
      <trkpt lat="50.0558" lon="4.20887">
        <ele>209</ele>
        <time>2024-04-16T14:45:47Z</time>
      </trkpt>
      <trkpt lat="50.05574" lon="4.20891">
        <ele>209</ele>
        <time>2024-04-16T14:45:48Z</time>
      </trkpt>
      <trkpt lat="50.05569" lon="4.20895">
        <ele>209.2</ele>
        <time>2024-04-16T14:45:49Z</time>
      </trkpt>
      <trkpt lat="50.05564" lon="4.20899">
        <ele>209.6</ele>
        <time>2024-04-16T14:45:50Z</time>
      </trkpt>
      <trkpt lat="50.05558" lon="4.20904">
        <ele>209.6</ele>
        <time>2024-04-16T14:45:51Z</time>
      </trkpt>
      <trkpt lat="50.05553" lon="4.20908">
        <ele>209.8</ele>
        <time>2024-04-16T14:45:52Z</time>
      </trkpt>
      <trkpt lat="50.05547" lon="4.20912">
        <ele>210</ele>
        <time>2024-04-16T14:45:53Z</time>
      </trkpt>
      <trkpt lat="50.05542" lon="4.20916">
        <ele>210.2</ele>
        <time>2024-04-16T14:45:54Z</time>
      </trkpt>
      <trkpt lat="50.05537" lon="4.2092">
        <ele>210.6</ele>
        <time>2024-04-16T14:45:55Z</time>
      </trkpt>
      <trkpt lat="50.05532" lon="4.20925">
        <ele>210.6</ele>
        <time>2024-04-16T14:45:56Z</time>
      </trkpt>
      <trkpt lat="50.05526" lon="4.20929">
        <ele>211.4</ele>
        <time>2024-04-16T14:45:57Z</time>
      </trkpt>
      <trkpt lat="50.05521" lon="4.20933">
        <ele>211.6</ele>
        <time>2024-04-16T14:45:58Z</time>
      </trkpt>
      <trkpt lat="50.05516" lon="4.20937">
        <ele>211.8</ele>
        <time>2024-04-16T14:45:59Z</time>
      </trkpt>
      <trkpt lat="50.05511" lon="4.20941">
        <ele>212</ele>
        <time>2024-04-16T14:46:00Z</time>
      </trkpt>
      <trkpt lat="50.05505" lon="4.20945">
        <ele>212.2</ele>
        <time>2024-04-16T14:46:01Z</time>
      </trkpt>
      <trkpt lat="50.055" lon="4.20949">
        <ele>212.6</ele>
        <time>2024-04-16T14:46:02Z</time>
      </trkpt>
      <trkpt lat="50.05495" lon="4.20954">
        <ele>213.2</ele>
        <time>2024-04-16T14:46:03Z</time>
      </trkpt>
      <trkpt lat="50.05489" lon="4.20958">
        <ele>213.8</ele>
        <time>2024-04-16T14:46:04Z</time>
      </trkpt>
      <trkpt lat="50.05483" lon="4.20962">
        <ele>214</ele>
        <time>2024-04-16T14:46:05Z</time>
      </trkpt>
      <trkpt lat="50.05478" lon="4.20966">
        <ele>214.2</ele>
        <time>2024-04-16T14:46:06Z</time>
      </trkpt>
      <trkpt lat="50.05472" lon="4.2097">
        <ele>214.2</ele>
        <time>2024-04-16T14:46:07Z</time>
      </trkpt>
      <trkpt lat="50.05466" lon="4.20975">
        <ele>214.6</ele>
        <time>2024-04-16T14:46:08Z</time>
      </trkpt>
      <trkpt lat="50.0546" lon="4.20979">
        <ele>214.6</ele>
        <time>2024-04-16T14:46:09Z</time>
      </trkpt>
      <trkpt lat="50.05454" lon="4.20984">
        <ele>214.8</ele>
        <time>2024-04-16T14:46:10Z</time>
      </trkpt>
      <trkpt lat="50.05448" lon="4.20989">
        <ele>214.8</ele>
        <time>2024-04-16T14:46:11Z</time>
      </trkpt>
      <trkpt lat="50.05441" lon="4.20991">
        <ele>214.8</ele>
        <time>2024-04-16T14:46:12Z</time>
      </trkpt>
      <trkpt lat="50.05433" lon="4.20992">
        <ele>215</ele>
        <time>2024-04-16T14:46:13Z</time>
      </trkpt>
      <trkpt lat="50.05425" lon="4.20991">
        <ele>214.8</ele>
        <time>2024-04-16T14:46:14Z</time>
      </trkpt>
      <trkpt lat="50.05417" lon="4.20991">
        <ele>215</ele>
        <time>2024-04-16T14:46:15Z</time>
      </trkpt>
      <trkpt lat="50.05408" lon="4.2099">
        <ele>214.8</ele>
        <time>2024-04-16T14:46:16Z</time>
      </trkpt>
      <trkpt lat="50.054" lon="4.20989">
        <ele>214.8</ele>
        <time>2024-04-16T14:46:17Z</time>
      </trkpt>
      <trkpt lat="50.05391" lon="4.20989">
        <ele>214.8</ele>
        <time>2024-04-16T14:46:18Z</time>
      </trkpt>
      <trkpt lat="50.05382" lon="4.20988">
        <ele>214.8</ele>
        <time>2024-04-16T14:46:19Z</time>
      </trkpt>
      <trkpt lat="50.05373" lon="4.20988">
        <ele>214.6</ele>
        <time>2024-04-16T14:46:20Z</time>
      </trkpt>
      <trkpt lat="50.05364" lon="4.20988">
        <ele>214</ele>
        <time>2024-04-16T14:46:21Z</time>
      </trkpt>
      <trkpt lat="50.05355" lon="4.20988">
        <ele>213.8</ele>
        <time>2024-04-16T14:46:22Z</time>
      </trkpt>
      <trkpt lat="50.05346" lon="4.20988">
        <ele>213.6</ele>
        <time>2024-04-16T14:46:23Z</time>
      </trkpt>
      <trkpt lat="50.05337" lon="4.20989">
        <ele>213.2</ele>
        <time>2024-04-16T14:46:24Z</time>
      </trkpt>
      <trkpt lat="50.05328" lon="4.2099">
        <ele>212.6</ele>
        <time>2024-04-16T14:46:25Z</time>
      </trkpt>
      <trkpt lat="50.05319" lon="4.20991">
        <ele>212.4</ele>
        <time>2024-04-16T14:46:26Z</time>
      </trkpt>
      <trkpt lat="50.0531" lon="4.20992">
        <ele>211.6</ele>
        <time>2024-04-16T14:46:27Z</time>
      </trkpt>
      <trkpt lat="50.05302" lon="4.20993">
        <ele>210.8</ele>
        <time>2024-04-16T14:46:28Z</time>
      </trkpt>
      <trkpt lat="50.05293" lon="4.20994">
        <ele>209.8</ele>
        <time>2024-04-16T14:46:29Z</time>
      </trkpt>
      <trkpt lat="50.05285" lon="4.20995">
        <ele>209.2</ele>
        <time>2024-04-16T14:46:30Z</time>
      </trkpt>
      <trkpt lat="50.05277" lon="4.20995">
        <ele>209</ele>
        <time>2024-04-16T14:46:31Z</time>
      </trkpt>
      <trkpt lat="50.05269" lon="4.20996">
        <ele>209</ele>
        <time>2024-04-16T14:46:32Z</time>
      </trkpt>
      <trkpt lat="50.05261" lon="4.20997">
        <ele>208.8</ele>
        <time>2024-04-16T14:46:33Z</time>
      </trkpt>
      <trkpt lat="50.05254" lon="4.20997">
        <ele>208.8</ele>
        <time>2024-04-16T14:46:34Z</time>
      </trkpt>
      <trkpt lat="50.05247" lon="4.20997">
        <ele>208.8</ele>
        <time>2024-04-16T14:46:35Z</time>
      </trkpt>
      <trkpt lat="50.0524" lon="4.20998">
        <ele>208.6</ele>
        <time>2024-04-16T14:46:36Z</time>
      </trkpt>
      <trkpt lat="50.05233" lon="4.21">
        <ele>208.6</ele>
        <time>2024-04-16T14:46:37Z</time>
      </trkpt>
      <trkpt lat="50.05227" lon="4.21002">
        <ele>208.6</ele>
        <time>2024-04-16T14:46:38Z</time>
      </trkpt>
      <trkpt lat="50.0522" lon="4.21002">
        <ele>208.6</ele>
        <time>2024-04-16T14:46:39Z</time>
      </trkpt>
      <trkpt lat="50.05213" lon="4.21002">
        <ele>208.6</ele>
        <time>2024-04-16T14:46:40Z</time>
      </trkpt>
      <trkpt lat="50.05206" lon="4.21003">
        <ele>208.4</ele>
        <time>2024-04-16T14:46:41Z</time>
      </trkpt>
      <trkpt lat="50.05199" lon="4.21003">
        <ele>208.6</ele>
        <time>2024-04-16T14:46:42Z</time>
      </trkpt>
      <trkpt lat="50.05192" lon="4.21004">
        <ele>208.4</ele>
        <time>2024-04-16T14:46:43Z</time>
      </trkpt>
      <trkpt lat="50.05184" lon="4.21004">
        <ele>208.4</ele>
        <time>2024-04-16T14:46:44Z</time>
      </trkpt>
      <trkpt lat="50.05175" lon="4.21004">
        <ele>208.4</ele>
        <time>2024-04-16T14:46:45Z</time>
      </trkpt>
      <trkpt lat="50.05166" lon="4.21001">
        <ele>208.4</ele>
        <time>2024-04-16T14:46:46Z</time>
      </trkpt>
      <trkpt lat="50.05158" lon="4.20996">
        <ele>208.4</ele>
        <time>2024-04-16T14:46:47Z</time>
      </trkpt>
      <trkpt lat="50.05149" lon="4.2099">
        <ele>208</ele>
        <time>2024-04-16T14:46:48Z</time>
      </trkpt>
      <trkpt lat="50.05141" lon="4.20982">
        <ele>207.8</ele>
        <time>2024-04-16T14:46:49Z</time>
      </trkpt>
      <trkpt lat="50.05133" lon="4.20973">
        <ele>207.6</ele>
        <time>2024-04-16T14:46:50Z</time>
      </trkpt>
      <trkpt lat="50.05125" lon="4.20965">
        <ele>207.6</ele>
        <time>2024-04-16T14:46:51Z</time>
      </trkpt>
      <trkpt lat="50.05117" lon="4.20956">
        <ele>207.4</ele>
        <time>2024-04-16T14:46:52Z</time>
      </trkpt>
      <trkpt lat="50.05109" lon="4.20948">
        <ele>207</ele>
        <time>2024-04-16T14:46:53Z</time>
      </trkpt>
      <trkpt lat="50.05101" lon="4.20939">
        <ele>206.8</ele>
        <time>2024-04-16T14:46:54Z</time>
      </trkpt>
      <trkpt lat="50.05094" lon="4.2093">
        <ele>206.2</ele>
        <time>2024-04-16T14:46:55Z</time>
      </trkpt>
      <trkpt lat="50.05088" lon="4.2092">
        <ele>205.2</ele>
        <time>2024-04-16T14:46:56Z</time>
      </trkpt>
      <trkpt lat="50.05081" lon="4.20912">
        <ele>204</ele>
        <time>2024-04-16T14:46:57Z</time>
      </trkpt>
      <trkpt lat="50.05074" lon="4.20905">
        <ele>203.4</ele>
        <time>2024-04-16T14:46:58Z</time>
      </trkpt>
      <trkpt lat="50.05067" lon="4.209">
        <ele>202.6</ele>
        <time>2024-04-16T14:46:59Z</time>
      </trkpt>
      <trkpt lat="50.0506" lon="4.20896">
        <ele>202.4</ele>
        <time>2024-04-16T14:47:00Z</time>
      </trkpt>
      <trkpt lat="50.05053" lon="4.20892">
        <ele>202.2</ele>
        <time>2024-04-16T14:47:01Z</time>
      </trkpt>
      <trkpt lat="50.05046" lon="4.20887">
        <ele>202.2</ele>
        <time>2024-04-16T14:47:02Z</time>
      </trkpt>
      <trkpt lat="50.0504" lon="4.20882">
        <ele>202</ele>
        <time>2024-04-16T14:47:03Z</time>
      </trkpt>
      <trkpt lat="50.05034" lon="4.20877">
        <ele>202.2</ele>
        <time>2024-04-16T14:47:04Z</time>
      </trkpt>
      <trkpt lat="50.05028" lon="4.20872">
        <ele>202.2</ele>
        <time>2024-04-16T14:47:05Z</time>
      </trkpt>
      <trkpt lat="50.05022" lon="4.20868">
        <ele>202</ele>
        <time>2024-04-16T14:47:06Z</time>
      </trkpt>
      <trkpt lat="50.05016" lon="4.20865">
        <ele>202.2</ele>
        <time>2024-04-16T14:47:07Z</time>
      </trkpt>
      <trkpt lat="50.05011" lon="4.20861">
        <ele>202.2</ele>
        <time>2024-04-16T14:47:08Z</time>
      </trkpt>
      <trkpt lat="50.05005" lon="4.20857">
        <ele>202</ele>
        <time>2024-04-16T14:47:09Z</time>
      </trkpt>
      <trkpt lat="50.05" lon="4.20854">
        <ele>202.6</ele>
        <time>2024-04-16T14:47:10Z</time>
      </trkpt>
      <trkpt lat="50.04995" lon="4.2085">
        <ele>203.2</ele>
        <time>2024-04-16T14:47:11Z</time>
      </trkpt>
      <trkpt lat="50.0499" lon="4.20847">
        <ele>203.8</ele>
        <time>2024-04-16T14:47:12Z</time>
      </trkpt>
      <trkpt lat="50.04985" lon="4.20845">
        <ele>204.4</ele>
        <time>2024-04-16T14:47:13Z</time>
      </trkpt>
      <trkpt lat="50.04979" lon="4.20843">
        <ele>204.8</ele>
        <time>2024-04-16T14:47:14Z</time>
      </trkpt>
      <trkpt lat="50.04974" lon="4.20841">
        <ele>205</ele>
        <time>2024-04-16T14:47:15Z</time>
      </trkpt>
      <trkpt lat="50.04969" lon="4.2084">
        <ele>205.4</ele>
        <time>2024-04-16T14:47:16Z</time>
      </trkpt>
      <trkpt lat="50.04964" lon="4.20839">
        <ele>205.8</ele>
        <time>2024-04-16T14:47:17Z</time>
      </trkpt>
      <trkpt lat="50.04959" lon="4.2084">
        <ele>206</ele>
        <time>2024-04-16T14:47:18Z</time>
      </trkpt>
      <trkpt lat="50.04954" lon="4.2084">
        <ele>206.4</ele>
        <time>2024-04-16T14:47:19Z</time>
      </trkpt>
      <trkpt lat="50.04949" lon="4.20841">
        <ele>206.6</ele>
        <time>2024-04-16T14:47:20Z</time>
      </trkpt>
      <trkpt lat="50.04945" lon="4.20842">
        <ele>207</ele>
        <time>2024-04-16T14:47:21Z</time>
      </trkpt>
      <trkpt lat="50.0494" lon="4.20845">
        <ele>207.2</ele>
        <time>2024-04-16T14:47:22Z</time>
      </trkpt>
      <trkpt lat="50.04936" lon="4.20848">
        <ele>208</ele>
        <time>2024-04-16T14:47:23Z</time>
      </trkpt>
      <trkpt lat="50.04932" lon="4.20852">
        <ele>208</ele>
        <time>2024-04-16T14:47:24Z</time>
      </trkpt>
      <trkpt lat="50.04928" lon="4.20856">
        <ele>208.4</ele>
        <time>2024-04-16T14:47:25Z</time>
      </trkpt>
      <trkpt lat="50.04924" lon="4.20859">
        <ele>209</ele>
        <time>2024-04-16T14:47:26Z</time>
      </trkpt>
      <trkpt lat="50.0492" lon="4.20863">
        <ele>209.4</ele>
        <time>2024-04-16T14:47:27Z</time>
      </trkpt>
      <trkpt lat="50.04916" lon="4.20868">
        <ele>209.8</ele>
        <time>2024-04-16T14:47:28Z</time>
      </trkpt>
      <trkpt lat="50.04913" lon="4.20872">
        <ele>210.2</ele>
        <time>2024-04-16T14:47:29Z</time>
      </trkpt>
      <trkpt lat="50.04909" lon="4.20877">
        <ele>211</ele>
        <time>2024-04-16T14:47:30Z</time>
      </trkpt>
      <trkpt lat="50.04906" lon="4.20882">
        <ele>211.6</ele>
        <time>2024-04-16T14:47:31Z</time>
      </trkpt>
      <trkpt lat="50.04902" lon="4.20887">
        <ele>212</ele>
        <time>2024-04-16T14:47:32Z</time>
      </trkpt>
      <trkpt lat="50.04899" lon="4.20892">
        <ele>212.4</ele>
        <time>2024-04-16T14:47:33Z</time>
      </trkpt>
      <trkpt lat="50.04896" lon="4.20897">
        <ele>213</ele>
        <time>2024-04-16T14:47:34Z</time>
      </trkpt>
      <trkpt lat="50.04893" lon="4.20902">
        <ele>213.2</ele>
        <time>2024-04-16T14:47:35Z</time>
      </trkpt>
      <trkpt lat="50.04889" lon="4.20907">
        <ele>213.6</ele>
        <time>2024-04-16T14:47:36Z</time>
      </trkpt>
      <trkpt lat="50.04886" lon="4.20912">
        <ele>214</ele>
        <time>2024-04-16T14:47:37Z</time>
      </trkpt>
      <trkpt lat="50.04882" lon="4.20917">
        <ele>214</ele>
        <time>2024-04-16T14:47:38Z</time>
      </trkpt>
      <trkpt lat="50.04879" lon="4.20922">
        <ele>214.2</ele>
        <time>2024-04-16T14:47:39Z</time>
      </trkpt>
      <trkpt lat="50.04875" lon="4.20927">
        <ele>214.6</ele>
        <time>2024-04-16T14:47:40Z</time>
      </trkpt>
      <trkpt lat="50.04871" lon="4.20932">
        <ele>214.8</ele>
        <time>2024-04-16T14:47:41Z</time>
      </trkpt>
      <trkpt lat="50.04867" lon="4.20937">
        <ele>215</ele>
        <time>2024-04-16T14:47:42Z</time>
      </trkpt>
      <trkpt lat="50.04863" lon="4.20942">
        <ele>215.4</ele>
        <time>2024-04-16T14:47:43Z</time>
      </trkpt>
      <trkpt lat="50.04859" lon="4.20946">
        <ele>215.8</ele>
        <time>2024-04-16T14:47:44Z</time>
      </trkpt>
      <trkpt lat="50.04855" lon="4.20951">
        <ele>216</ele>
        <time>2024-04-16T14:47:45Z</time>
      </trkpt>
      <trkpt lat="50.04851" lon="4.20955">
        <ele>216</ele>
        <time>2024-04-16T14:47:46Z</time>
      </trkpt>
      <trkpt lat="50.04846" lon="4.2096">
        <ele>216.4</ele>
        <time>2024-04-16T14:47:47Z</time>
      </trkpt>
      <trkpt lat="50.04842" lon="4.20964">
        <ele>217</ele>
        <time>2024-04-16T14:47:48Z</time>
      </trkpt>
      <trkpt lat="50.04837" lon="4.20969">
        <ele>217.2</ele>
        <time>2024-04-16T14:47:49Z</time>
      </trkpt>
      <trkpt lat="50.04832" lon="4.20973">
        <ele>217.6</ele>
        <time>2024-04-16T14:47:50Z</time>
      </trkpt>
      <trkpt lat="50.04828" lon="4.20978">
        <ele>218.6</ele>
        <time>2024-04-16T14:47:51Z</time>
      </trkpt>
      <trkpt lat="50.04823" lon="4.20983">
        <ele>219</ele>
        <time>2024-04-16T14:47:52Z</time>
      </trkpt>
      <trkpt lat="50.04818" lon="4.20988">
        <ele>219.4</ele>
        <time>2024-04-16T14:47:53Z</time>
      </trkpt>
      <trkpt lat="50.04813" lon="4.20992">
        <ele>219.8</ele>
        <time>2024-04-16T14:47:54Z</time>
      </trkpt>
      <trkpt lat="50.04808" lon="4.20997">
        <ele>219.8</ele>
        <time>2024-04-16T14:47:55Z</time>
      </trkpt>
      <trkpt lat="50.04803" lon="4.21001">
        <ele>220.2</ele>
        <time>2024-04-16T14:47:56Z</time>
      </trkpt>
      <trkpt lat="50.04798" lon="4.21006">
        <ele>220.2</ele>
        <time>2024-04-16T14:47:57Z</time>
      </trkpt>
      <trkpt lat="50.04792" lon="4.2101">
        <ele>220.2</ele>
        <time>2024-04-16T14:47:58Z</time>
      </trkpt>
      <trkpt lat="50.04786" lon="4.21015">
        <ele>220.2</ele>
        <time>2024-04-16T14:47:59Z</time>
      </trkpt>
      <trkpt lat="50.04781" lon="4.2102">
        <ele>220.4</ele>
        <time>2024-04-16T14:48:00Z</time>
      </trkpt>
      <trkpt lat="50.04775" lon="4.21024">
        <ele>220.4</ele>
        <time>2024-04-16T14:48:01Z</time>
      </trkpt>
      <trkpt lat="50.04769" lon="4.21029">
        <ele>220.6</ele>
        <time>2024-04-16T14:48:02Z</time>
      </trkpt>
      <trkpt lat="50.04763" lon="4.21033">
        <ele>220.6</ele>
        <time>2024-04-16T14:48:03Z</time>
      </trkpt>
      <trkpt lat="50.04757" lon="4.21037">
        <ele>220.6</ele>
        <time>2024-04-16T14:48:04Z</time>
      </trkpt>
      <trkpt lat="50.04751" lon="4.21041">
        <ele>220.6</ele>
        <time>2024-04-16T14:48:05Z</time>
      </trkpt>
      <trkpt lat="50.04744" lon="4.21044">
        <ele>220.8</ele>
        <time>2024-04-16T14:48:06Z</time>
      </trkpt>
      <trkpt lat="50.04738" lon="4.21047">
        <ele>220.8</ele>
        <time>2024-04-16T14:48:07Z</time>
      </trkpt>
      <trkpt lat="50.04731" lon="4.2105">
        <ele>220.8</ele>
        <time>2024-04-16T14:48:08Z</time>
      </trkpt>
      <trkpt lat="50.04725" lon="4.21053">
        <ele>220.8</ele>
        <time>2024-04-16T14:48:09Z</time>
      </trkpt>
      <trkpt lat="50.04718" lon="4.21056">
        <ele>220.8</ele>
        <time>2024-04-16T14:48:10Z</time>
      </trkpt>
      <trkpt lat="50.04711" lon="4.21058">
        <ele>220.8</ele>
        <time>2024-04-16T14:48:11Z</time>
      </trkpt>
      <trkpt lat="50.04705" lon="4.21061">
        <ele>221</ele>
        <time>2024-04-16T14:48:12Z</time>
      </trkpt>
      <trkpt lat="50.04698" lon="4.21064">
        <ele>221.2</ele>
        <time>2024-04-16T14:48:13Z</time>
      </trkpt>
      <trkpt lat="50.04692" lon="4.21066">
        <ele>221.2</ele>
        <time>2024-04-16T14:48:14Z</time>
      </trkpt>
      <trkpt lat="50.04685" lon="4.21069">
        <ele>221.4</ele>
        <time>2024-04-16T14:48:15Z</time>
      </trkpt>
      <trkpt lat="50.04679" lon="4.21072">
        <ele>221.4</ele>
        <time>2024-04-16T14:48:16Z</time>
      </trkpt>
      <trkpt lat="50.04673" lon="4.21075">
        <ele>221.6</ele>
        <time>2024-04-16T14:48:17Z</time>
      </trkpt>
      <trkpt lat="50.04666" lon="4.21077">
        <ele>221.4</ele>
        <time>2024-04-16T14:48:18Z</time>
      </trkpt>
      <trkpt lat="50.0466" lon="4.2108">
        <ele>221.6</ele>
        <time>2024-04-16T14:48:19Z</time>
      </trkpt>
      <trkpt lat="50.04653" lon="4.21083">
        <ele>221.6</ele>
        <time>2024-04-16T14:48:20Z</time>
      </trkpt>
      <trkpt lat="50.04647" lon="4.21085">
        <ele>221.8</ele>
        <time>2024-04-16T14:48:21Z</time>
      </trkpt>
      <trkpt lat="50.0464" lon="4.21088">
        <ele>222.2</ele>
        <time>2024-04-16T14:48:22Z</time>
      </trkpt>
      <trkpt lat="50.04634" lon="4.21091">
        <ele>222.4</ele>
        <time>2024-04-16T14:48:23Z</time>
      </trkpt>
      <trkpt lat="50.04627" lon="4.21094">
        <ele>222.4</ele>
        <time>2024-04-16T14:48:24Z</time>
      </trkpt>
      <trkpt lat="50.0462" lon="4.21097">
        <ele>222.6</ele>
        <time>2024-04-16T14:48:25Z</time>
      </trkpt>
      <trkpt lat="50.04614" lon="4.211">
        <ele>222.8</ele>
        <time>2024-04-16T14:48:26Z</time>
      </trkpt>
      <trkpt lat="50.04607" lon="4.21103">
        <ele>223</ele>
        <time>2024-04-16T14:48:27Z</time>
      </trkpt>
      <trkpt lat="50.046" lon="4.21106">
        <ele>223</ele>
        <time>2024-04-16T14:48:28Z</time>
      </trkpt>
      <trkpt lat="50.04593" lon="4.21109">
        <ele>223</ele>
        <time>2024-04-16T14:48:29Z</time>
      </trkpt>
      <trkpt lat="50.04586" lon="4.21112">
        <ele>223.2</ele>
        <time>2024-04-16T14:48:30Z</time>
      </trkpt>
      <trkpt lat="50.0458" lon="4.21116">
        <ele>223.2</ele>
        <time>2024-04-16T14:48:31Z</time>
      </trkpt>
      <trkpt lat="50.04573" lon="4.21119">
        <ele>223.2</ele>
        <time>2024-04-16T14:48:32Z</time>
      </trkpt>
      <trkpt lat="50.04566" lon="4.21123">
        <ele>223.2</ele>
        <time>2024-04-16T14:48:33Z</time>
      </trkpt>
      <trkpt lat="50.0456" lon="4.21128">
        <ele>223.2</ele>
        <time>2024-04-16T14:48:34Z</time>
      </trkpt>
      <trkpt lat="50.04554" lon="4.21132">
        <ele>223.2</ele>
        <time>2024-04-16T14:48:35Z</time>
      </trkpt>
      <trkpt lat="50.04548" lon="4.21137">
        <ele>223.4</ele>
        <time>2024-04-16T14:48:36Z</time>
      </trkpt>
      <trkpt lat="50.04541" lon="4.21142">
        <ele>223.4</ele>
        <time>2024-04-16T14:48:37Z</time>
      </trkpt>
      <trkpt lat="50.04535" lon="4.21148">
        <ele>223.4</ele>
        <time>2024-04-16T14:48:38Z</time>
      </trkpt>
      <trkpt lat="50.0453" lon="4.21154">
        <ele>223.4</ele>
        <time>2024-04-16T14:48:39Z</time>
      </trkpt>
      <trkpt lat="50.04524" lon="4.21159">
        <ele>223.6</ele>
        <time>2024-04-16T14:48:40Z</time>
      </trkpt>
      <trkpt lat="50.04518" lon="4.21165">
        <ele>223.8</ele>
        <time>2024-04-16T14:48:41Z</time>
      </trkpt>
      <trkpt lat="50.04512" lon="4.21172">
        <ele>224.2</ele>
        <time>2024-04-16T14:48:42Z</time>
      </trkpt>
      <trkpt lat="50.04507" lon="4.21178">
        <ele>224.4</ele>
        <time>2024-04-16T14:48:43Z</time>
      </trkpt>
      <trkpt lat="50.04501" lon="4.21185">
        <ele>224.6</ele>
        <time>2024-04-16T14:48:44Z</time>
      </trkpt>
      <trkpt lat="50.04496" lon="4.21192">
        <ele>224.6</ele>
        <time>2024-04-16T14:48:45Z</time>
      </trkpt>
      <trkpt lat="50.04491" lon="4.21199">
        <ele>224.6</ele>
        <time>2024-04-16T14:48:46Z</time>
      </trkpt>
      <trkpt lat="50.04485" lon="4.21205">
        <ele>224.6</ele>
        <time>2024-04-16T14:48:47Z</time>
      </trkpt>
      <trkpt lat="50.0448" lon="4.21212">
        <ele>224.8</ele>
        <time>2024-04-16T14:48:48Z</time>
      </trkpt>
      <trkpt lat="50.04475" lon="4.21219">
        <ele>224.8</ele>
        <time>2024-04-16T14:48:49Z</time>
      </trkpt>
      <trkpt lat="50.0447" lon="4.21226">
        <ele>224.8</ele>
        <time>2024-04-16T14:48:50Z</time>
      </trkpt>
      <trkpt lat="50.04465" lon="4.21233">
        <ele>224.8</ele>
        <time>2024-04-16T14:48:51Z</time>
      </trkpt>
      <trkpt lat="50.0446" lon="4.21241">
        <ele>224.8</ele>
        <time>2024-04-16T14:48:52Z</time>
      </trkpt>
      <trkpt lat="50.04456" lon="4.21248">
        <ele>224.8</ele>
        <time>2024-04-16T14:48:53Z</time>
      </trkpt>
      <trkpt lat="50.04452" lon="4.21256">
        <ele>225</ele>
        <time>2024-04-16T14:48:54Z</time>
      </trkpt>
      <trkpt lat="50.04447" lon="4.21264">
        <ele>225</ele>
        <time>2024-04-16T14:48:55Z</time>
      </trkpt>
      <trkpt lat="50.04443" lon="4.21273">
        <ele>225</ele>
        <time>2024-04-16T14:48:56Z</time>
      </trkpt>
      <trkpt lat="50.04439" lon="4.21281">
        <ele>225.2</ele>
        <time>2024-04-16T14:48:57Z</time>
      </trkpt>
      <trkpt lat="50.04436" lon="4.2129">
        <ele>225.2</ele>
        <time>2024-04-16T14:48:58Z</time>
      </trkpt>
      <trkpt lat="50.04432" lon="4.21298">
        <ele>225.2</ele>
        <time>2024-04-16T14:48:59Z</time>
      </trkpt>
      <trkpt lat="50.04428" lon="4.21307">
        <ele>225</ele>
        <time>2024-04-16T14:49:00Z</time>
      </trkpt>
      <trkpt lat="50.04424" lon="4.21315">
        <ele>225.2</ele>
        <time>2024-04-16T14:49:01Z</time>
      </trkpt>
      <trkpt lat="50.0442" lon="4.21324">
        <ele>225.6</ele>
        <time>2024-04-16T14:49:02Z</time>
      </trkpt>
      <trkpt lat="50.04417" lon="4.21333">
        <ele>225.6</ele>
        <time>2024-04-16T14:49:03Z</time>
      </trkpt>
      <trkpt lat="50.04413" lon="4.21342">
        <ele>225.8</ele>
        <time>2024-04-16T14:49:04Z</time>
      </trkpt>
      <trkpt lat="50.0441" lon="4.2135">
        <ele>225.8</ele>
        <time>2024-04-16T14:49:05Z</time>
      </trkpt>
      <trkpt lat="50.04407" lon="4.21358">
        <ele>225.8</ele>
        <time>2024-04-16T14:49:06Z</time>
      </trkpt>
      <trkpt lat="50.04404" lon="4.21367">
        <ele>226.2</ele>
        <time>2024-04-16T14:49:07Z</time>
      </trkpt>
      <trkpt lat="50.04401" lon="4.21375">
        <ele>226.6</ele>
        <time>2024-04-16T14:49:08Z</time>
      </trkpt>
      <trkpt lat="50.04398" lon="4.21382">
        <ele>226.6</ele>
        <time>2024-04-16T14:49:09Z</time>
      </trkpt>
      <trkpt lat="50.04395" lon="4.2139">
        <ele>227.2</ele>
        <time>2024-04-16T14:49:10Z</time>
      </trkpt>
      <trkpt lat="50.04392" lon="4.21398">
        <ele>227.2</ele>
        <time>2024-04-16T14:49:11Z</time>
      </trkpt>
      <trkpt lat="50.04389" lon="4.21405">
        <ele>227.2</ele>
        <time>2024-04-16T14:49:12Z</time>
      </trkpt>
      <trkpt lat="50.04386" lon="4.21412">
        <ele>227.4</ele>
        <time>2024-04-16T14:49:13Z</time>
      </trkpt>
      <trkpt lat="50.04383" lon="4.21419">
        <ele>227.6</ele>
        <time>2024-04-16T14:49:14Z</time>
      </trkpt>
      <trkpt lat="50.0438" lon="4.21425">
        <ele>228</ele>
        <time>2024-04-16T14:49:15Z</time>
      </trkpt>
      <trkpt lat="50.04377" lon="4.21432">
        <ele>228.6</ele>
        <time>2024-04-16T14:49:16Z</time>
      </trkpt>
      <trkpt lat="50.04374" lon="4.21438">
        <ele>229</ele>
        <time>2024-04-16T14:49:17Z</time>
      </trkpt>
      <trkpt lat="50.04371" lon="4.21445">
        <ele>229.4</ele>
        <time>2024-04-16T14:49:18Z</time>
      </trkpt>
      <trkpt lat="50.04368" lon="4.21451">
        <ele>230.6</ele>
        <time>2024-04-16T14:49:19Z</time>
      </trkpt>
      <trkpt lat="50.04365" lon="4.21457">
        <ele>231.2</ele>
        <time>2024-04-16T14:49:20Z</time>
      </trkpt>
      <trkpt lat="50.04362" lon="4.21462">
        <ele>231.6</ele>
        <time>2024-04-16T14:49:21Z</time>
      </trkpt>
      <trkpt lat="50.04358" lon="4.21468">
        <ele>231.8</ele>
        <time>2024-04-16T14:49:22Z</time>
      </trkpt>
      <trkpt lat="50.04355" lon="4.21473">
        <ele>232</ele>
        <time>2024-04-16T14:49:23Z</time>
      </trkpt>
      <trkpt lat="50.04353" lon="4.21478">
        <ele>232.4</ele>
        <time>2024-04-16T14:49:24Z</time>
      </trkpt>
      <trkpt lat="50.0435" lon="4.21483">
        <ele>232.8</ele>
        <time>2024-04-16T14:49:25Z</time>
      </trkpt>
      <trkpt lat="50.04347" lon="4.21488">
        <ele>233.4</ele>
        <time>2024-04-16T14:49:26Z</time>
      </trkpt>
      <trkpt lat="50.04344" lon="4.21493">
        <ele>234</ele>
        <time>2024-04-16T14:49:27Z</time>
      </trkpt>
      <trkpt lat="50.04341" lon="4.21498">
        <ele>234.6</ele>
        <time>2024-04-16T14:49:28Z</time>
      </trkpt>
      <trkpt lat="50.04338" lon="4.21503">
        <ele>235</ele>
        <time>2024-04-16T14:49:29Z</time>
      </trkpt>
      <trkpt lat="50.04335" lon="4.21508">
        <ele>235.6</ele>
        <time>2024-04-16T14:49:30Z</time>
      </trkpt>
      <trkpt lat="50.04332" lon="4.21513">
        <ele>235.8</ele>
        <time>2024-04-16T14:49:31Z</time>
      </trkpt>
      <trkpt lat="50.04329" lon="4.21518">
        <ele>236.2</ele>
        <time>2024-04-16T14:49:32Z</time>
      </trkpt>
      <trkpt lat="50.04326" lon="4.21522">
        <ele>236.4</ele>
        <time>2024-04-16T14:49:33Z</time>
      </trkpt>
      <trkpt lat="50.04322" lon="4.21527">
        <ele>236.4</ele>
        <time>2024-04-16T14:49:34Z</time>
      </trkpt>
      <trkpt lat="50.04319" lon="4.21531">
        <ele>236.6</ele>
        <time>2024-04-16T14:49:35Z</time>
      </trkpt>
      <trkpt lat="50.04315" lon="4.21535">
        <ele>237</ele>
        <time>2024-04-16T14:49:36Z</time>
      </trkpt>
      <trkpt lat="50.04312" lon="4.21539">
        <ele>237.2</ele>
        <time>2024-04-16T14:49:37Z</time>
      </trkpt>
      <trkpt lat="50.04308" lon="4.21542">
        <ele>237.6</ele>
        <time>2024-04-16T14:49:38Z</time>
      </trkpt>
      <trkpt lat="50.04304" lon="4.21545">
        <ele>237.8</ele>
        <time>2024-04-16T14:49:39Z</time>
      </trkpt>
      <trkpt lat="50.043" lon="4.21547">
        <ele>238.8</ele>
        <time>2024-04-16T14:49:40Z</time>
      </trkpt>
      <trkpt lat="50.04295" lon="4.21548">
        <ele>239.6</ele>
        <time>2024-04-16T14:49:41Z</time>
      </trkpt>
      <trkpt lat="50.04291" lon="4.2155">
        <ele>240</ele>
        <time>2024-04-16T14:49:42Z</time>
      </trkpt>
      <trkpt lat="50.04287" lon="4.2155">
        <ele>240.6</ele>
        <time>2024-04-16T14:49:43Z</time>
      </trkpt>
      <trkpt lat="50.04282" lon="4.21551">
        <ele>241.2</ele>
        <time>2024-04-16T14:49:44Z</time>
      </trkpt>
      <trkpt lat="50.04278" lon="4.21552">
        <ele>241.6</ele>
        <time>2024-04-16T14:49:45Z</time>
      </trkpt>
      <trkpt lat="50.04273" lon="4.21552">
        <ele>241.8</ele>
        <time>2024-04-16T14:49:46Z</time>
      </trkpt>
      <trkpt lat="50.04269" lon="4.21552">
        <ele>241.8</ele>
        <time>2024-04-16T14:49:47Z</time>
      </trkpt>
      <trkpt lat="50.04264" lon="4.21552">
        <ele>242.2</ele>
        <time>2024-04-16T14:49:48Z</time>
      </trkpt>
      <trkpt lat="50.0426" lon="4.21552">
        <ele>242.6</ele>
        <time>2024-04-16T14:49:49Z</time>
      </trkpt>
      <trkpt lat="50.04255" lon="4.21552">
        <ele>243</ele>
        <time>2024-04-16T14:49:50Z</time>
      </trkpt>
      <trkpt lat="50.0425" lon="4.21552">
        <ele>243</ele>
        <time>2024-04-16T14:49:51Z</time>
      </trkpt>
      <trkpt lat="50.04245" lon="4.21552">
        <ele>243.2</ele>
        <time>2024-04-16T14:49:52Z</time>
      </trkpt>
      <trkpt lat="50.04241" lon="4.21552">
        <ele>243</ele>
        <time>2024-04-16T14:49:53Z</time>
      </trkpt>
      <trkpt lat="50.04236" lon="4.21552">
        <ele>243.2</ele>
        <time>2024-04-16T14:49:54Z</time>
      </trkpt>
      <trkpt lat="50.04231" lon="4.21552">
        <ele>243.2</ele>
        <time>2024-04-16T14:49:55Z</time>
      </trkpt>
      <trkpt lat="50.04226" lon="4.21552">
        <ele>243.2</ele>
        <time>2024-04-16T14:49:56Z</time>
      </trkpt>
      <trkpt lat="50.04222" lon="4.21552">
        <ele>243.4</ele>
        <time>2024-04-16T14:49:57Z</time>
      </trkpt>
      <trkpt lat="50.04217" lon="4.21552">
        <ele>243.6</ele>
        <time>2024-04-16T14:49:58Z</time>
      </trkpt>
      <trkpt lat="50.04212" lon="4.21552">
        <ele>243.8</ele>
        <time>2024-04-16T14:49:59Z</time>
      </trkpt>
      <trkpt lat="50.04208" lon="4.21552">
        <ele>244.2</ele>
        <time>2024-04-16T14:50:00Z</time>
      </trkpt>
      <trkpt lat="50.04203" lon="4.21552">
        <ele>244.6</ele>
        <time>2024-04-16T14:50:01Z</time>
      </trkpt>
      <trkpt lat="50.04199" lon="4.21551">
        <ele>245</ele>
        <time>2024-04-16T14:50:02Z</time>
      </trkpt>
      <trkpt lat="50.04194" lon="4.21551">
        <ele>245.4</ele>
        <time>2024-04-16T14:50:03Z</time>
      </trkpt>
      <trkpt lat="50.04189" lon="4.21551">
        <ele>245.8</ele>
        <time>2024-04-16T14:50:04Z</time>
      </trkpt>
      <trkpt lat="50.04185" lon="4.21551">
        <ele>245.8</ele>
        <time>2024-04-16T14:50:05Z</time>
      </trkpt>
      <trkpt lat="50.0418" lon="4.21551">
        <ele>246.8</ele>
        <time>2024-04-16T14:50:06Z</time>
      </trkpt>
      <trkpt lat="50.04176" lon="4.2155">
        <ele>247.4</ele>
        <time>2024-04-16T14:50:07Z</time>
      </trkpt>
      <trkpt lat="50.04171" lon="4.2155">
        <ele>247.8</ele>
        <time>2024-04-16T14:50:08Z</time>
      </trkpt>
      <trkpt lat="50.04167" lon="4.2155">
        <ele>248.2</ele>
        <time>2024-04-16T14:50:09Z</time>
      </trkpt>
      <trkpt lat="50.04163" lon="4.2155">
        <ele>248.6</ele>
        <time>2024-04-16T14:50:10Z</time>
      </trkpt>
      <trkpt lat="50.04158" lon="4.2155">
        <ele>249</ele>
        <time>2024-04-16T14:50:11Z</time>
      </trkpt>
      <trkpt lat="50.04154" lon="4.2155">
        <ele>249.4</ele>
        <time>2024-04-16T14:50:12Z</time>
      </trkpt>
      <trkpt lat="50.0415" lon="4.2155">
        <ele>249.8</ele>
        <time>2024-04-16T14:50:13Z</time>
      </trkpt>
      <trkpt lat="50.04145" lon="4.2155">
        <ele>250.2</ele>
        <time>2024-04-16T14:50:14Z</time>
      </trkpt>
      <trkpt lat="50.04141" lon="4.2155">
        <ele>250.6</ele>
        <time>2024-04-16T14:50:15Z</time>
      </trkpt>
      <trkpt lat="50.04137" lon="4.2155">
        <ele>250.8</ele>
        <time>2024-04-16T14:50:16Z</time>
      </trkpt>
      <trkpt lat="50.04133" lon="4.21549">
        <ele>250.8</ele>
        <time>2024-04-16T14:50:17Z</time>
      </trkpt>
      <trkpt lat="50.04128" lon="4.21549">
        <ele>251.2</ele>
        <time>2024-04-16T14:50:18Z</time>
      </trkpt>
      <trkpt lat="50.04124" lon="4.21549">
        <ele>251.6</ele>
        <time>2024-04-16T14:50:19Z</time>
      </trkpt>
      <trkpt lat="50.0412" lon="4.21549">
        <ele>252</ele>
        <time>2024-04-16T14:50:20Z</time>
      </trkpt>
      <trkpt lat="50.04116" lon="4.21549">
        <ele>252.2</ele>
        <time>2024-04-16T14:50:21Z</time>
      </trkpt>
      <trkpt lat="50.04112" lon="4.21549">
        <ele>252.6</ele>
        <time>2024-04-16T14:50:22Z</time>
      </trkpt>
      <trkpt lat="50.04108" lon="4.21549">
        <ele>253.2</ele>
        <time>2024-04-16T14:50:23Z</time>
      </trkpt>
      <trkpt lat="50.04103" lon="4.2155">
        <ele>253.6</ele>
        <time>2024-04-16T14:50:24Z</time>
      </trkpt>
      <trkpt lat="50.04099" lon="4.2155">
        <ele>254.2</ele>
        <time>2024-04-16T14:50:25Z</time>
      </trkpt>
      <trkpt lat="50.04095" lon="4.21551">
        <ele>254.6</ele>
        <time>2024-04-16T14:50:26Z</time>
      </trkpt>
      <trkpt lat="50.04091" lon="4.21553">
        <ele>254.8</ele>
        <time>2024-04-16T14:50:27Z</time>
      </trkpt>
      <trkpt lat="50.04087" lon="4.21554">
        <ele>255.2</ele>
        <time>2024-04-16T14:50:28Z</time>
      </trkpt>
      <trkpt lat="50.04082" lon="4.21557">
        <ele>255.6</ele>
        <time>2024-04-16T14:50:29Z</time>
      </trkpt>
      <trkpt lat="50.04078" lon="4.2156">
        <ele>256</ele>
        <time>2024-04-16T14:50:30Z</time>
      </trkpt>
      <trkpt lat="50.04074" lon="4.21563">
        <ele>256.4</ele>
        <time>2024-04-16T14:50:31Z</time>
      </trkpt>
      <trkpt lat="50.04069" lon="4.21567">
        <ele>257.2</ele>
        <time>2024-04-16T14:50:32Z</time>
      </trkpt>
      <trkpt lat="50.04065" lon="4.21571">
        <ele>257.6</ele>
        <time>2024-04-16T14:50:33Z</time>
      </trkpt>
      <trkpt lat="50.04061" lon="4.21576">
        <ele>257.8</ele>
        <time>2024-04-16T14:50:34Z</time>
      </trkpt>
      <trkpt lat="50.04057" lon="4.21582">
        <ele>258</ele>
        <time>2024-04-16T14:50:35Z</time>
      </trkpt>
      <trkpt lat="50.04053" lon="4.21587">
        <ele>258.2</ele>
        <time>2024-04-16T14:50:36Z</time>
      </trkpt>
      <trkpt lat="50.0405" lon="4.21594">
        <ele>258</ele>
        <time>2024-04-16T14:50:37Z</time>
      </trkpt>
      <trkpt lat="50.04046" lon="4.216">
        <ele>258</ele>
        <time>2024-04-16T14:50:38Z</time>
      </trkpt>
      <trkpt lat="50.04042" lon="4.21607">
        <ele>258.2</ele>
        <time>2024-04-16T14:50:39Z</time>
      </trkpt>
      <trkpt lat="50.04038" lon="4.21613">
        <ele>258.2</ele>
        <time>2024-04-16T14:50:40Z</time>
      </trkpt>
      <trkpt lat="50.04035" lon="4.2162">
        <ele>258.4</ele>
        <time>2024-04-16T14:50:41Z</time>
      </trkpt>
      <trkpt lat="50.04031" lon="4.21627">
        <ele>258.4</ele>
        <time>2024-04-16T14:50:42Z</time>
      </trkpt>
      <trkpt lat="50.04026" lon="4.21634">
        <ele>258.4</ele>
        <time>2024-04-16T14:50:43Z</time>
      </trkpt>
      <trkpt lat="50.04021" lon="4.21639">
        <ele>258.8</ele>
        <time>2024-04-16T14:50:44Z</time>
      </trkpt>
      <trkpt lat="50.04016" lon="4.21643">
        <ele>259</ele>
        <time>2024-04-16T14:50:45Z</time>
      </trkpt>
      <trkpt lat="50.0401" lon="4.21645">
        <ele>258.8</ele>
        <time>2024-04-16T14:50:46Z</time>
      </trkpt>
      <trkpt lat="50.04003" lon="4.21646">
        <ele>259.8</ele>
        <time>2024-04-16T14:50:47Z</time>
      </trkpt>
      <trkpt lat="50.03997" lon="4.21646">
        <ele>260.2</ele>
        <time>2024-04-16T14:50:48Z</time>
      </trkpt>
      <trkpt lat="50.03991" lon="4.21646">
        <ele>260.4</ele>
        <time>2024-04-16T14:50:49Z</time>
      </trkpt>
      <trkpt lat="50.03984" lon="4.21646">
        <ele>260.4</ele>
        <time>2024-04-16T14:50:50Z</time>
      </trkpt>
      <trkpt lat="50.03978" lon="4.21646">
        <ele>260.6</ele>
        <time>2024-04-16T14:50:51Z</time>
      </trkpt>
      <trkpt lat="50.03971" lon="4.21647">
        <ele>260.8</ele>
        <time>2024-04-16T14:50:52Z</time>
      </trkpt>
      <trkpt lat="50.03965" lon="4.21648">
        <ele>261</ele>
        <time>2024-04-16T14:50:53Z</time>
      </trkpt>
      <trkpt lat="50.03959" lon="4.21651">
        <ele>261</ele>
        <time>2024-04-16T14:50:54Z</time>
      </trkpt>
      <trkpt lat="50.03953" lon="4.21654">
        <ele>261</ele>
        <time>2024-04-16T14:50:55Z</time>
      </trkpt>
      <trkpt lat="50.03947" lon="4.21659">
        <ele>261.4</ele>
        <time>2024-04-16T14:50:56Z</time>
      </trkpt>
      <trkpt lat="50.03942" lon="4.21665">
        <ele>261.6</ele>
        <time>2024-04-16T14:50:57Z</time>
      </trkpt>
      <trkpt lat="50.03937" lon="4.21671">
        <ele>261.8</ele>
        <time>2024-04-16T14:50:58Z</time>
      </trkpt>
      <trkpt lat="50.03932" lon="4.21678">
        <ele>262.2</ele>
        <time>2024-04-16T14:50:59Z</time>
      </trkpt>
      <trkpt lat="50.03927" lon="4.21686">
        <ele>262.2</ele>
        <time>2024-04-16T14:51:00Z</time>
      </trkpt>
      <trkpt lat="50.03922" lon="4.21694">
        <ele>262.4</ele>
        <time>2024-04-16T14:51:01Z</time>
      </trkpt>
      <trkpt lat="50.03918" lon="4.21701">
        <ele>262.4</ele>
        <time>2024-04-16T14:51:02Z</time>
      </trkpt>
      <trkpt lat="50.03913" lon="4.21709">
        <ele>262.6</ele>
        <time>2024-04-16T14:51:03Z</time>
      </trkpt>
      <trkpt lat="50.03909" lon="4.21717">
        <ele>262.8</ele>
        <time>2024-04-16T14:51:04Z</time>
      </trkpt>
      <trkpt lat="50.03904" lon="4.21725">
        <ele>262.8</ele>
        <time>2024-04-16T14:51:05Z</time>
      </trkpt>
      <trkpt lat="50.039" lon="4.21733">
        <ele>262.8</ele>
        <time>2024-04-16T14:51:06Z</time>
      </trkpt>
      <trkpt lat="50.03895" lon="4.21741">
        <ele>262.8</ele>
        <time>2024-04-16T14:51:07Z</time>
      </trkpt>
      <trkpt lat="50.03891" lon="4.21749">
        <ele>262.8</ele>
        <time>2024-04-16T14:51:08Z</time>
      </trkpt>
      <trkpt lat="50.03886" lon="4.21757">
        <ele>262.8</ele>
        <time>2024-04-16T14:51:09Z</time>
      </trkpt>
      <trkpt lat="50.03883" lon="4.21765">
        <ele>263</ele>
        <time>2024-04-16T14:51:10Z</time>
      </trkpt>
      <trkpt lat="50.03879" lon="4.21774">
        <ele>263</ele>
        <time>2024-04-16T14:51:11Z</time>
      </trkpt>
      <trkpt lat="50.03876" lon="4.21783">
        <ele>263.2</ele>
        <time>2024-04-16T14:51:12Z</time>
      </trkpt>
      <trkpt lat="50.03873" lon="4.21793">
        <ele>263</ele>
        <time>2024-04-16T14:51:13Z</time>
      </trkpt>
      <trkpt lat="50.03871" lon="4.21803">
        <ele>263.2</ele>
        <time>2024-04-16T14:51:14Z</time>
      </trkpt>
      <trkpt lat="50.03869" lon="4.21813">
        <ele>263.2</ele>
        <time>2024-04-16T14:51:15Z</time>
      </trkpt>
      <trkpt lat="50.03867" lon="4.21823">
        <ele>263.4</ele>
        <time>2024-04-16T14:51:16Z</time>
      </trkpt>
      <trkpt lat="50.03865" lon="4.21833">
        <ele>263.4</ele>
        <time>2024-04-16T14:51:17Z</time>
      </trkpt>
      <trkpt lat="50.03863" lon="4.21844">
        <ele>263.4</ele>
        <time>2024-04-16T14:51:18Z</time>
      </trkpt>
      <trkpt lat="50.03861" lon="4.21854">
        <ele>263.8</ele>
        <time>2024-04-16T14:51:19Z</time>
      </trkpt>
      <trkpt lat="50.03859" lon="4.21864">
        <ele>263.6</ele>
        <time>2024-04-16T14:51:20Z</time>
      </trkpt>
      <trkpt lat="50.03858" lon="4.21875">
        <ele>263.8</ele>
        <time>2024-04-16T14:51:21Z</time>
      </trkpt>
      <trkpt lat="50.03856" lon="4.21885">
        <ele>263.8</ele>
        <time>2024-04-16T14:51:22Z</time>
      </trkpt>
      <trkpt lat="50.03854" lon="4.21896">
        <ele>263.8</ele>
        <time>2024-04-16T14:51:23Z</time>
      </trkpt>
      <trkpt lat="50.03852" lon="4.21906">
        <ele>263.8</ele>
        <time>2024-04-16T14:51:24Z</time>
      </trkpt>
      <trkpt lat="50.03851" lon="4.21917">
        <ele>264</ele>
        <time>2024-04-16T14:51:25Z</time>
      </trkpt>
      <trkpt lat="50.03849" lon="4.21928">
        <ele>264.2</ele>
        <time>2024-04-16T14:51:26Z</time>
      </trkpt>
      <trkpt lat="50.03847" lon="4.21938">
        <ele>264.2</ele>
        <time>2024-04-16T14:51:27Z</time>
      </trkpt>
      <trkpt lat="50.03845" lon="4.21949">
        <ele>264</ele>
        <time>2024-04-16T14:51:28Z</time>
      </trkpt>
      <trkpt lat="50.03843" lon="4.2196">
        <ele>264.2</ele>
        <time>2024-04-16T14:51:29Z</time>
      </trkpt>
      <trkpt lat="50.03841" lon="4.21972">
        <ele>264.2</ele>
        <time>2024-04-16T14:51:30Z</time>
      </trkpt>
      <trkpt lat="50.03839" lon="4.21983">
        <ele>264</ele>
        <time>2024-04-16T14:51:31Z</time>
      </trkpt>
      <trkpt lat="50.03837" lon="4.21995">
        <ele>264.2</ele>
        <time>2024-04-16T14:51:32Z</time>
      </trkpt>
      <trkpt lat="50.03834" lon="4.22008">
        <ele>263.8</ele>
        <time>2024-04-16T14:51:33Z</time>
      </trkpt>
      <trkpt lat="50.03832" lon="4.2202">
        <ele>264</ele>
        <time>2024-04-16T14:51:34Z</time>
      </trkpt>
      <trkpt lat="50.0383" lon="4.22033">
        <ele>264</ele>
        <time>2024-04-16T14:51:35Z</time>
      </trkpt>
      <trkpt lat="50.03828" lon="4.22045">
        <ele>263.8</ele>
        <time>2024-04-16T14:51:36Z</time>
      </trkpt>
      <trkpt lat="50.03826" lon="4.22058">
        <ele>263.8</ele>
        <time>2024-04-16T14:51:37Z</time>
      </trkpt>
      <trkpt lat="50.03823" lon="4.22071">
        <ele>263.2</ele>
        <time>2024-04-16T14:51:38Z</time>
      </trkpt>
      <trkpt lat="50.03821" lon="4.22085">
        <ele>262.6</ele>
        <time>2024-04-16T14:51:39Z</time>
      </trkpt>
      <trkpt lat="50.03818" lon="4.22098">
        <ele>262.2</ele>
        <time>2024-04-16T14:51:40Z</time>
      </trkpt>
      <trkpt lat="50.03815" lon="4.22111">
        <ele>261.4</ele>
        <time>2024-04-16T14:51:41Z</time>
      </trkpt>
      <trkpt lat="50.03812" lon="4.22125">
        <ele>261.2</ele>
        <time>2024-04-16T14:51:42Z</time>
      </trkpt>
      <trkpt lat="50.03808" lon="4.22138">
        <ele>260.6</ele>
        <time>2024-04-16T14:51:43Z</time>
      </trkpt>
      <trkpt lat="50.03804" lon="4.22151">
        <ele>260.6</ele>
        <time>2024-04-16T14:51:44Z</time>
      </trkpt>
      <trkpt lat="50.038" lon="4.22165">
        <ele>259.8</ele>
        <time>2024-04-16T14:51:45Z</time>
      </trkpt>
      <trkpt lat="50.03797" lon="4.22179">
        <ele>259.4</ele>
        <time>2024-04-16T14:51:46Z</time>
      </trkpt>
      <trkpt lat="50.03793" lon="4.22194">
        <ele>258.6</ele>
        <time>2024-04-16T14:51:47Z</time>
      </trkpt>
      <trkpt lat="50.03791" lon="4.2221">
        <ele>258</ele>
        <time>2024-04-16T14:51:48Z</time>
      </trkpt>
      <trkpt lat="50.03789" lon="4.22227">
        <ele>257.4</ele>
        <time>2024-04-16T14:51:49Z</time>
      </trkpt>
      <trkpt lat="50.03787" lon="4.22243">
        <ele>257</ele>
        <time>2024-04-16T14:51:50Z</time>
      </trkpt>
      <trkpt lat="50.03784" lon="4.22259">
        <ele>256.8</ele>
        <time>2024-04-16T14:51:51Z</time>
      </trkpt>
      <trkpt lat="50.0378" lon="4.22275">
        <ele>256.6</ele>
        <time>2024-04-16T14:51:52Z</time>
      </trkpt>
      <trkpt lat="50.03774" lon="4.22289">
        <ele>255.6</ele>
        <time>2024-04-16T14:51:53Z</time>
      </trkpt>
      <trkpt lat="50.03766" lon="4.223">
        <ele>255.2</ele>
        <time>2024-04-16T14:51:54Z</time>
      </trkpt>
      <trkpt lat="50.03757" lon="4.22309">
        <ele>254.6</ele>
        <time>2024-04-16T14:51:55Z</time>
      </trkpt>
      <trkpt lat="50.03748" lon="4.22316">
        <ele>253.2</ele>
        <time>2024-04-16T14:51:56Z</time>
      </trkpt>
      <trkpt lat="50.03738" lon="4.22321">
        <ele>252</ele>
        <time>2024-04-16T14:51:57Z</time>
      </trkpt>
      <trkpt lat="50.03729" lon="4.22326">
        <ele>250.6</ele>
        <time>2024-04-16T14:51:58Z</time>
      </trkpt>
      <trkpt lat="50.0372" lon="4.22332">
        <ele>249.6</ele>
        <time>2024-04-16T14:51:59Z</time>
      </trkpt>
      <trkpt lat="50.03711" lon="4.22337">
        <ele>248.8</ele>
        <time>2024-04-16T14:52:00Z</time>
      </trkpt>
      <trkpt lat="50.03703" lon="4.22343">
        <ele>248.2</ele>
        <time>2024-04-16T14:52:01Z</time>
      </trkpt>
      <trkpt lat="50.03695" lon="4.22349">
        <ele>248</ele>
        <time>2024-04-16T14:52:02Z</time>
      </trkpt>
      <trkpt lat="50.03688" lon="4.22355">
        <ele>248</ele>
        <time>2024-04-16T14:52:03Z</time>
      </trkpt>
      <trkpt lat="50.03681" lon="4.22363">
        <ele>247.8</ele>
        <time>2024-04-16T14:52:04Z</time>
      </trkpt>
      <trkpt lat="50.03675" lon="4.2237">
        <ele>248</ele>
        <time>2024-04-16T14:52:05Z</time>
      </trkpt>
      <trkpt lat="50.03669" lon="4.22378">
        <ele>248</ele>
        <time>2024-04-16T14:52:06Z</time>
      </trkpt>
      <trkpt lat="50.03663" lon="4.22385">
        <ele>248</ele>
        <time>2024-04-16T14:52:07Z</time>
      </trkpt>
      <trkpt lat="50.03657" lon="4.22392">
        <ele>248</ele>
        <time>2024-04-16T14:52:08Z</time>
      </trkpt>
      <trkpt lat="50.03652" lon="4.22399">
        <ele>247.8</ele>
        <time>2024-04-16T14:52:09Z</time>
      </trkpt>
      <trkpt lat="50.03646" lon="4.22406">
        <ele>248.2</ele>
        <time>2024-04-16T14:52:10Z</time>
      </trkpt>
      <trkpt lat="50.0364" lon="4.22413">
        <ele>248.4</ele>
        <time>2024-04-16T14:52:11Z</time>
      </trkpt>
      <trkpt lat="50.03634" lon="4.22418">
        <ele>248.4</ele>
        <time>2024-04-16T14:52:12Z</time>
      </trkpt>
      <trkpt lat="50.03628" lon="4.22421">
        <ele>248.8</ele>
        <time>2024-04-16T14:52:13Z</time>
      </trkpt>
      <trkpt lat="50.03621" lon="4.22421">
        <ele>248.8</ele>
        <time>2024-04-16T14:52:14Z</time>
      </trkpt>
      <trkpt lat="50.03614" lon="4.22419">
        <ele>249</ele>
        <time>2024-04-16T14:52:15Z</time>
      </trkpt>
      <trkpt lat="50.03608" lon="4.22415">
        <ele>249.2</ele>
        <time>2024-04-16T14:52:16Z</time>
      </trkpt>
      <trkpt lat="50.03601" lon="4.2241">
        <ele>249.2</ele>
        <time>2024-04-16T14:52:17Z</time>
      </trkpt>
      <trkpt lat="50.03595" lon="4.22404">
        <ele>249.4</ele>
        <time>2024-04-16T14:52:18Z</time>
      </trkpt>
      <trkpt lat="50.03589" lon="4.22398">
        <ele>249.6</ele>
        <time>2024-04-16T14:52:19Z</time>
      </trkpt>
      <trkpt lat="50.03583" lon="4.22392">
        <ele>249.6</ele>
        <time>2024-04-16T14:52:20Z</time>
      </trkpt>
      <trkpt lat="50.03577" lon="4.22387">
        <ele>249.8</ele>
        <time>2024-04-16T14:52:21Z</time>
      </trkpt>
      <trkpt lat="50.03571" lon="4.22383">
        <ele>250</ele>
        <time>2024-04-16T14:52:22Z</time>
      </trkpt>
      <trkpt lat="50.03564" lon="4.22382">
        <ele>250.2</ele>
        <time>2024-04-16T14:52:23Z</time>
      </trkpt>
      <trkpt lat="50.03558" lon="4.22384">
        <ele>250.2</ele>
        <time>2024-04-16T14:52:24Z</time>
      </trkpt>
      <trkpt lat="50.03552" lon="4.22388">
        <ele>250.2</ele>
        <time>2024-04-16T14:52:25Z</time>
      </trkpt>
      <trkpt lat="50.03546" lon="4.22393">
        <ele>250.4</ele>
        <time>2024-04-16T14:52:26Z</time>
      </trkpt>
      <trkpt lat="50.03541" lon="4.22399">
        <ele>250.4</ele>
        <time>2024-04-16T14:52:27Z</time>
      </trkpt>
      <trkpt lat="50.03536" lon="4.22405">
        <ele>250.6</ele>
        <time>2024-04-16T14:52:28Z</time>
      </trkpt>
      <trkpt lat="50.03531" lon="4.22412">
        <ele>251</ele>
        <time>2024-04-16T14:52:29Z</time>
      </trkpt>
      <trkpt lat="50.03527" lon="4.22419">
        <ele>251</ele>
        <time>2024-04-16T14:52:30Z</time>
      </trkpt>
      <trkpt lat="50.03523" lon="4.22427">
        <ele>251.6</ele>
        <time>2024-04-16T14:52:31Z</time>
      </trkpt>
      <trkpt lat="50.03519" lon="4.22434">
        <ele>251.8</ele>
        <time>2024-04-16T14:52:32Z</time>
      </trkpt>
      <trkpt lat="50.03515" lon="4.22441">
        <ele>252.2</ele>
        <time>2024-04-16T14:52:33Z</time>
      </trkpt>
      <trkpt lat="50.0351" lon="4.22448">
        <ele>252.4</ele>
        <time>2024-04-16T14:52:34Z</time>
      </trkpt>
      <trkpt lat="50.03506" lon="4.22454">
        <ele>252.6</ele>
        <time>2024-04-16T14:52:35Z</time>
      </trkpt>
      <trkpt lat="50.03501" lon="4.22459">
        <ele>252.6</ele>
        <time>2024-04-16T14:52:36Z</time>
      </trkpt>
      <trkpt lat="50.03496" lon="4.22463">
        <ele>253</ele>
        <time>2024-04-16T14:52:37Z</time>
      </trkpt>
      <trkpt lat="50.03492" lon="4.22467">
        <ele>253</ele>
        <time>2024-04-16T14:52:38Z</time>
      </trkpt>
      <trkpt lat="50.03487" lon="4.2247">
        <ele>253</ele>
        <time>2024-04-16T14:52:39Z</time>
      </trkpt>
      <trkpt lat="50.03481" lon="4.22473">
        <ele>253</ele>
        <time>2024-04-16T14:52:40Z</time>
      </trkpt>
      <trkpt lat="50.03476" lon="4.22475">
        <ele>253.2</ele>
        <time>2024-04-16T14:52:41Z</time>
      </trkpt>
      <trkpt lat="50.03471" lon="4.22476">
        <ele>253.6</ele>
        <time>2024-04-16T14:52:42Z</time>
      </trkpt>
      <trkpt lat="50.03466" lon="4.22477">
        <ele>254</ele>
        <time>2024-04-16T14:52:43Z</time>
      </trkpt>
      <trkpt lat="50.0346" lon="4.22478">
        <ele>254.4</ele>
        <time>2024-04-16T14:52:44Z</time>
      </trkpt>
      <trkpt lat="50.03455" lon="4.22478">
        <ele>254.8</ele>
        <time>2024-04-16T14:52:45Z</time>
      </trkpt>
      <trkpt lat="50.0345" lon="4.22479">
        <ele>255</ele>
        <time>2024-04-16T14:52:46Z</time>
      </trkpt>
      <trkpt lat="50.03444" lon="4.2248">
        <ele>255.4</ele>
        <time>2024-04-16T14:52:47Z</time>
      </trkpt>
      <trkpt lat="50.03439" lon="4.2248">
        <ele>255.6</ele>
        <time>2024-04-16T14:52:48Z</time>
      </trkpt>
      <trkpt lat="50.03433" lon="4.22481">
        <ele>255.6</ele>
        <time>2024-04-16T14:52:49Z</time>
      </trkpt>
      <trkpt lat="50.03427" lon="4.22481">
        <ele>256</ele>
        <time>2024-04-16T14:52:50Z</time>
      </trkpt>
      <trkpt lat="50.03422" lon="4.22481">
        <ele>256.4</ele>
        <time>2024-04-16T14:52:51Z</time>
      </trkpt>
      <trkpt lat="50.03416" lon="4.2248">
        <ele>256.8</ele>
        <time>2024-04-16T14:52:52Z</time>
      </trkpt>
      <trkpt lat="50.03409" lon="4.2248">
        <ele>257.2</ele>
        <time>2024-04-16T14:52:53Z</time>
      </trkpt>
      <trkpt lat="50.03403" lon="4.2248">
        <ele>257.8</ele>
        <time>2024-04-16T14:52:54Z</time>
      </trkpt>
      <trkpt lat="50.03397" lon="4.2248">
        <ele>258.4</ele>
        <time>2024-04-16T14:52:55Z</time>
      </trkpt>
      <trkpt lat="50.03391" lon="4.2248">
        <ele>259.4</ele>
        <time>2024-04-16T14:52:56Z</time>
      </trkpt>
      <trkpt lat="50.03385" lon="4.2248">
        <ele>260.2</ele>
        <time>2024-04-16T14:52:57Z</time>
      </trkpt>
      <trkpt lat="50.03378" lon="4.2248">
        <ele>261.2</ele>
        <time>2024-04-16T14:52:58Z</time>
      </trkpt>
      <trkpt lat="50.03372" lon="4.2248">
        <ele>261.8</ele>
        <time>2024-04-16T14:52:59Z</time>
      </trkpt>
      <trkpt lat="50.03366" lon="4.2248">
        <ele>262.4</ele>
        <time>2024-04-16T14:53:00Z</time>
      </trkpt>
      <trkpt lat="50.0336" lon="4.2248">
        <ele>262.8</ele>
        <time>2024-04-16T14:53:01Z</time>
      </trkpt>
      <trkpt lat="50.03354" lon="4.2248">
        <ele>263</ele>
        <time>2024-04-16T14:53:02Z</time>
      </trkpt>
      <trkpt lat="50.03348" lon="4.2248">
        <ele>263.2</ele>
        <time>2024-04-16T14:53:03Z</time>
      </trkpt>
      <trkpt lat="50.03342" lon="4.2248">
        <ele>263.4</ele>
        <time>2024-04-16T14:53:04Z</time>
      </trkpt>
      <trkpt lat="50.03336" lon="4.22481">
        <ele>263.6</ele>
        <time>2024-04-16T14:53:05Z</time>
      </trkpt>
      <trkpt lat="50.0333" lon="4.22483">
        <ele>263.6</ele>
        <time>2024-04-16T14:53:06Z</time>
      </trkpt>
      <trkpt lat="50.03324" lon="4.22485">
        <ele>263.8</ele>
        <time>2024-04-16T14:53:07Z</time>
      </trkpt>
      <trkpt lat="50.03318" lon="4.22487">
        <ele>264</ele>
        <time>2024-04-16T14:53:08Z</time>
      </trkpt>
      <trkpt lat="50.03313" lon="4.22491">
        <ele>264.6</ele>
        <time>2024-04-16T14:53:09Z</time>
      </trkpt>
      <trkpt lat="50.03308" lon="4.22495">
        <ele>265.2</ele>
        <time>2024-04-16T14:53:10Z</time>
      </trkpt>
      <trkpt lat="50.03303" lon="4.22499">
        <ele>265.2</ele>
        <time>2024-04-16T14:53:11Z</time>
      </trkpt>
      <trkpt lat="50.03298" lon="4.22503">
        <ele>265.6</ele>
        <time>2024-04-16T14:53:12Z</time>
      </trkpt>
      <trkpt lat="50.03293" lon="4.22508">
        <ele>266</ele>
        <time>2024-04-16T14:53:13Z</time>
      </trkpt>
      <trkpt lat="50.03289" lon="4.22513">
        <ele>266.2</ele>
        <time>2024-04-16T14:53:14Z</time>
      </trkpt>
      <trkpt lat="50.03284" lon="4.22518">
        <ele>266.4</ele>
        <time>2024-04-16T14:53:15Z</time>
      </trkpt>
      <trkpt lat="50.0328" lon="4.22524">
        <ele>266.4</ele>
        <time>2024-04-16T14:53:16Z</time>
      </trkpt>
      <trkpt lat="50.03275" lon="4.22529">
        <ele>266.6</ele>
        <time>2024-04-16T14:53:17Z</time>
      </trkpt>
      <trkpt lat="50.03271" lon="4.22534">
        <ele>266.6</ele>
        <time>2024-04-16T14:53:18Z</time>
      </trkpt>
      <trkpt lat="50.03266" lon="4.22539">
        <ele>267</ele>
        <time>2024-04-16T14:53:19Z</time>
      </trkpt>
      <trkpt lat="50.03262" lon="4.22545">
        <ele>267.2</ele>
        <time>2024-04-16T14:53:20Z</time>
      </trkpt>
      <trkpt lat="50.03258" lon="4.2255">
        <ele>267.6</ele>
        <time>2024-04-16T14:53:21Z</time>
      </trkpt>
      <trkpt lat="50.03253" lon="4.22556">
        <ele>268.2</ele>
        <time>2024-04-16T14:53:22Z</time>
      </trkpt>
      <trkpt lat="50.03248" lon="4.22561">
        <ele>268.8</ele>
        <time>2024-04-16T14:53:23Z</time>
      </trkpt>
      <trkpt lat="50.03244" lon="4.22566">
        <ele>269</ele>
        <time>2024-04-16T14:53:24Z</time>
      </trkpt>
      <trkpt lat="50.03239" lon="4.22572">
        <ele>269.2</ele>
        <time>2024-04-16T14:53:25Z</time>
      </trkpt>
      <trkpt lat="50.03235" lon="4.22577">
        <ele>269.4</ele>
        <time>2024-04-16T14:53:26Z</time>
      </trkpt>
      <trkpt lat="50.0323" lon="4.22583">
        <ele>269.8</ele>
        <time>2024-04-16T14:53:27Z</time>
      </trkpt>
      <trkpt lat="50.03225" lon="4.22589">
        <ele>270</ele>
        <time>2024-04-16T14:53:28Z</time>
      </trkpt>
      <trkpt lat="50.03221" lon="4.22594">
        <ele>270.2</ele>
        <time>2024-04-16T14:53:29Z</time>
      </trkpt>
      <trkpt lat="50.03216" lon="4.226">
        <ele>270.4</ele>
        <time>2024-04-16T14:53:30Z</time>
      </trkpt>
      <trkpt lat="50.03211" lon="4.22605">
        <ele>270.8</ele>
        <time>2024-04-16T14:53:31Z</time>
      </trkpt>
      <trkpt lat="50.03207" lon="4.2261">
        <ele>270.8</ele>
        <time>2024-04-16T14:53:32Z</time>
      </trkpt>
      <trkpt lat="50.03202" lon="4.22616">
        <ele>270.8</ele>
        <time>2024-04-16T14:53:33Z</time>
      </trkpt>
      <trkpt lat="50.03197" lon="4.22622">
        <ele>271.2</ele>
        <time>2024-04-16T14:53:34Z</time>
      </trkpt>
      <trkpt lat="50.03193" lon="4.22627">
        <ele>271.4</ele>
        <time>2024-04-16T14:53:35Z</time>
      </trkpt>
      <trkpt lat="50.03188" lon="4.22633">
        <ele>271.4</ele>
        <time>2024-04-16T14:53:36Z</time>
      </trkpt>
      <trkpt lat="50.03183" lon="4.22638">
        <ele>271.6</ele>
        <time>2024-04-16T14:53:37Z</time>
      </trkpt>
      <trkpt lat="50.03178" lon="4.22644">
        <ele>271.6</ele>
        <time>2024-04-16T14:53:38Z</time>
      </trkpt>
      <trkpt lat="50.03173" lon="4.22649">
        <ele>271.6</ele>
        <time>2024-04-16T14:53:39Z</time>
      </trkpt>
      <trkpt lat="50.03168" lon="4.22655">
        <ele>271.6</ele>
        <time>2024-04-16T14:53:40Z</time>
      </trkpt>
      <trkpt lat="50.03163" lon="4.2266">
        <ele>271.6</ele>
        <time>2024-04-16T14:53:41Z</time>
      </trkpt>
      <trkpt lat="50.03158" lon="4.22665">
        <ele>271.8</ele>
        <time>2024-04-16T14:53:42Z</time>
      </trkpt>
      <trkpt lat="50.03153" lon="4.2267">
        <ele>272</ele>
        <time>2024-04-16T14:53:43Z</time>
      </trkpt>
      <trkpt lat="50.03148" lon="4.22675">
        <ele>272.2</ele>
        <time>2024-04-16T14:53:44Z</time>
      </trkpt>
      <trkpt lat="50.03142" lon="4.22678">
        <ele>272.4</ele>
        <time>2024-04-16T14:53:45Z</time>
      </trkpt>
      <trkpt lat="50.03136" lon="4.22682">
        <ele>272.8</ele>
        <time>2024-04-16T14:53:46Z</time>
      </trkpt>
      <trkpt lat="50.0313" lon="4.22685">
        <ele>273.8</ele>
        <time>2024-04-16T14:53:47Z</time>
      </trkpt>
      <trkpt lat="50.03124" lon="4.22687">
        <ele>274.2</ele>
        <time>2024-04-16T14:53:48Z</time>
      </trkpt>
      <trkpt lat="50.03118" lon="4.2269">
        <ele>274.6</ele>
        <time>2024-04-16T14:53:49Z</time>
      </trkpt>
      <trkpt lat="50.03112" lon="4.22692">
        <ele>275.2</ele>
        <time>2024-04-16T14:53:50Z</time>
      </trkpt>
      <trkpt lat="50.03106" lon="4.22695">
        <ele>275.4</ele>
        <time>2024-04-16T14:53:51Z</time>
      </trkpt>
      <trkpt lat="50.031" lon="4.22697">
        <ele>275.6</ele>
        <time>2024-04-16T14:53:52Z</time>
      </trkpt>
      <trkpt lat="50.03094" lon="4.227">
        <ele>275.8</ele>
        <time>2024-04-16T14:53:53Z</time>
      </trkpt>
      <trkpt lat="50.03087" lon="4.22703">
        <ele>275.8</ele>
        <time>2024-04-16T14:53:54Z</time>
      </trkpt>
      <trkpt lat="50.03081" lon="4.22706">
        <ele>275.8</ele>
        <time>2024-04-16T14:53:55Z</time>
      </trkpt>
      <trkpt lat="50.03075" lon="4.22708">
        <ele>276</ele>
        <time>2024-04-16T14:53:56Z</time>
      </trkpt>
      <trkpt lat="50.03069" lon="4.22711">
        <ele>276</ele>
        <time>2024-04-16T14:53:57Z</time>
      </trkpt>
      <trkpt lat="50.03063" lon="4.22714">
        <ele>276</ele>
        <time>2024-04-16T14:53:58Z</time>
      </trkpt>
      <trkpt lat="50.03056" lon="4.22716">
        <ele>276.2</ele>
        <time>2024-04-16T14:53:59Z</time>
      </trkpt>
      <trkpt lat="50.0305" lon="4.22719">
        <ele>276.2</ele>
        <time>2024-04-16T14:54:00Z</time>
      </trkpt>
      <trkpt lat="50.03043" lon="4.22722">
        <ele>276.4</ele>
        <time>2024-04-16T14:54:01Z</time>
      </trkpt>
      <trkpt lat="50.03037" lon="4.22724">
        <ele>276.4</ele>
        <time>2024-04-16T14:54:02Z</time>
      </trkpt>
      <trkpt lat="50.0303" lon="4.22727">
        <ele>276.4</ele>
        <time>2024-04-16T14:54:03Z</time>
      </trkpt>
      <trkpt lat="50.03024" lon="4.2273">
        <ele>276.6</ele>
        <time>2024-04-16T14:54:04Z</time>
      </trkpt>
      <trkpt lat="50.03017" lon="4.22733">
        <ele>276.4</ele>
        <time>2024-04-16T14:54:05Z</time>
      </trkpt>
      <trkpt lat="50.0301" lon="4.22735">
        <ele>276.6</ele>
        <time>2024-04-16T14:54:06Z</time>
      </trkpt>
      <trkpt lat="50.03004" lon="4.22739">
        <ele>276.4</ele>
        <time>2024-04-16T14:54:07Z</time>
      </trkpt>
      <trkpt lat="50.02998" lon="4.22741">
        <ele>276.4</ele>
        <time>2024-04-16T14:54:08Z</time>
      </trkpt>
      <trkpt lat="50.02992" lon="4.22744">
        <ele>276.4</ele>
        <time>2024-04-16T14:54:09Z</time>
      </trkpt>
      <trkpt lat="50.02985" lon="4.22746">
        <ele>276.4</ele>
        <time>2024-04-16T14:54:10Z</time>
      </trkpt>
      <trkpt lat="50.02979" lon="4.22748">
        <ele>276.4</ele>
        <time>2024-04-16T14:54:11Z</time>
      </trkpt>
      <trkpt lat="50.02973" lon="4.22751">
        <ele>276.2</ele>
        <time>2024-04-16T14:54:12Z</time>
      </trkpt>
      <trkpt lat="50.02966" lon="4.22753">
        <ele>276.4</ele>
        <time>2024-04-16T14:54:13Z</time>
      </trkpt>
      <trkpt lat="50.0296" lon="4.22756">
        <ele>276</ele>
        <time>2024-04-16T14:54:14Z</time>
      </trkpt>
      <trkpt lat="50.02953" lon="4.22758">
        <ele>275.8</ele>
        <time>2024-04-16T14:54:15Z</time>
      </trkpt>
      <trkpt lat="50.02946" lon="4.2276">
        <ele>275.8</ele>
        <time>2024-04-16T14:54:16Z</time>
      </trkpt>
      <trkpt lat="50.02939" lon="4.22763">
        <ele>275.8</ele>
        <time>2024-04-16T14:54:17Z</time>
      </trkpt>
      <trkpt lat="50.02931" lon="4.22765">
        <ele>275.8</ele>
        <time>2024-04-16T14:54:18Z</time>
      </trkpt>
      <trkpt lat="50.02924" lon="4.22768">
        <ele>275.8</ele>
        <time>2024-04-16T14:54:19Z</time>
      </trkpt>
      <trkpt lat="50.02917" lon="4.22771">
        <ele>275.8</ele>
        <time>2024-04-16T14:54:20Z</time>
      </trkpt>
      <trkpt lat="50.0291" lon="4.22775">
        <ele>275.6</ele>
        <time>2024-04-16T14:54:21Z</time>
      </trkpt>
      <trkpt lat="50.02903" lon="4.22777">
        <ele>275</ele>
        <time>2024-04-16T14:54:22Z</time>
      </trkpt>
      <trkpt lat="50.02895" lon="4.2278">
        <ele>274.8</ele>
        <time>2024-04-16T14:54:23Z</time>
      </trkpt>
      <trkpt lat="50.02888" lon="4.22783">
        <ele>274.6</ele>
        <time>2024-04-16T14:54:24Z</time>
      </trkpt>
      <trkpt lat="50.02881" lon="4.22786">
        <ele>274.4</ele>
        <time>2024-04-16T14:54:25Z</time>
      </trkpt>
      <trkpt lat="50.02874" lon="4.2279">
        <ele>274.2</ele>
        <time>2024-04-16T14:54:26Z</time>
      </trkpt>
      <trkpt lat="50.02867" lon="4.22793">
        <ele>274.2</ele>
        <time>2024-04-16T14:54:27Z</time>
      </trkpt>
      <trkpt lat="50.0286" lon="4.22797">
        <ele>273.8</ele>
        <time>2024-04-16T14:54:28Z</time>
      </trkpt>
      <trkpt lat="50.02852" lon="4.228">
        <ele>273.6</ele>
        <time>2024-04-16T14:54:29Z</time>
      </trkpt>
      <trkpt lat="50.02844" lon="4.22803">
        <ele>273.4</ele>
        <time>2024-04-16T14:54:30Z</time>
      </trkpt>
      <trkpt lat="50.02837" lon="4.22806">
        <ele>273.2</ele>
        <time>2024-04-16T14:54:31Z</time>
      </trkpt>
      <trkpt lat="50.02831" lon="4.22809">
        <ele>273</ele>
        <time>2024-04-16T14:54:32Z</time>
      </trkpt>
      <trkpt lat="50.02824" lon="4.22812">
        <ele>272.8</ele>
        <time>2024-04-16T14:54:33Z</time>
      </trkpt>
      <trkpt lat="50.02818" lon="4.22814">
        <ele>272.4</ele>
        <time>2024-04-16T14:54:34Z</time>
      </trkpt>
      <trkpt lat="50.02811" lon="4.22817">
        <ele>272.2</ele>
        <time>2024-04-16T14:54:35Z</time>
      </trkpt>
      <trkpt lat="50.02805" lon="4.2282">
        <ele>272</ele>
        <time>2024-04-16T14:54:36Z</time>
      </trkpt>
      <trkpt lat="50.02799" lon="4.22823">
        <ele>272</ele>
        <time>2024-04-16T14:54:37Z</time>
      </trkpt>
      <trkpt lat="50.02793" lon="4.22825">
        <ele>272</ele>
        <time>2024-04-16T14:54:38Z</time>
      </trkpt>
      <trkpt lat="50.02786" lon="4.22828">
        <ele>272</ele>
        <time>2024-04-16T14:54:39Z</time>
      </trkpt>
      <trkpt lat="50.0278" lon="4.2283">
        <ele>272</ele>
        <time>2024-04-16T14:54:40Z</time>
      </trkpt>
      <trkpt lat="50.02774" lon="4.22832">
        <ele>272</ele>
        <time>2024-04-16T14:54:41Z</time>
      </trkpt>
      <trkpt lat="50.02768" lon="4.22834">
        <ele>272</ele>
        <time>2024-04-16T14:54:42Z</time>
      </trkpt>
      <trkpt lat="50.02762" lon="4.22837">
        <ele>272</ele>
        <time>2024-04-16T14:54:43Z</time>
      </trkpt>
      <trkpt lat="50.02756" lon="4.22839">
        <ele>272</ele>
        <time>2024-04-16T14:54:44Z</time>
      </trkpt>
      <trkpt lat="50.0275" lon="4.22841">
        <ele>272</ele>
        <time>2024-04-16T14:54:45Z</time>
      </trkpt>
      <trkpt lat="50.02745" lon="4.22843">
        <ele>272</ele>
        <time>2024-04-16T14:54:46Z</time>
      </trkpt>
      <trkpt lat="50.02739" lon="4.22845">
        <ele>272</ele>
        <time>2024-04-16T14:54:47Z</time>
      </trkpt>
      <trkpt lat="50.02733" lon="4.22848">
        <ele>272.2</ele>
        <time>2024-04-16T14:54:48Z</time>
      </trkpt>
      <trkpt lat="50.02728" lon="4.22851">
        <ele>272.6</ele>
        <time>2024-04-16T14:54:49Z</time>
      </trkpt>
      <trkpt lat="50.02723" lon="4.22854">
        <ele>272.6</ele>
        <time>2024-04-16T14:54:50Z</time>
      </trkpt>
      <trkpt lat="50.02719" lon="4.22856">
        <ele>272.6</ele>
        <time>2024-04-16T14:54:51Z</time>
      </trkpt>
      <trkpt lat="50.02714" lon="4.22859">
        <ele>273</ele>
        <time>2024-04-16T14:54:52Z</time>
      </trkpt>
      <trkpt lat="50.02709" lon="4.22862">
        <ele>273.2</ele>
        <time>2024-04-16T14:54:53Z</time>
      </trkpt>
      <trkpt lat="50.02704" lon="4.22865">
        <ele>274</ele>
        <time>2024-04-16T14:54:54Z</time>
      </trkpt>
      <trkpt lat="50.02698" lon="4.22867">
        <ele>274.6</ele>
        <time>2024-04-16T14:54:55Z</time>
      </trkpt>
      <trkpt lat="50.02693" lon="4.2287">
        <ele>274.8</ele>
        <time>2024-04-16T14:54:56Z</time>
      </trkpt>
      <trkpt lat="50.02687" lon="4.22873">
        <ele>275</ele>
        <time>2024-04-16T14:54:57Z</time>
      </trkpt>
      <trkpt lat="50.02682" lon="4.22875">
        <ele>275.2</ele>
        <time>2024-04-16T14:54:58Z</time>
      </trkpt>
      <trkpt lat="50.02675" lon="4.22878">
        <ele>275.6</ele>
        <time>2024-04-16T14:54:59Z</time>
      </trkpt>
      <trkpt lat="50.0267" lon="4.22881">
        <ele>275.6</ele>
        <time>2024-04-16T14:55:00Z</time>
      </trkpt>
      <trkpt lat="50.02663" lon="4.22884">
        <ele>275.6</ele>
        <time>2024-04-16T14:55:01Z</time>
      </trkpt>
      <trkpt lat="50.02658" lon="4.22886">
        <ele>275.8</ele>
        <time>2024-04-16T14:55:02Z</time>
      </trkpt>
      <trkpt lat="50.02652" lon="4.22889">
        <ele>276.2</ele>
        <time>2024-04-16T14:55:03Z</time>
      </trkpt>
      <trkpt lat="50.02646" lon="4.22891">
        <ele>276.2</ele>
        <time>2024-04-16T14:55:04Z</time>
      </trkpt>
      <trkpt lat="50.0264" lon="4.22894">
        <ele>276.8</ele>
        <time>2024-04-16T14:55:05Z</time>
      </trkpt>
      <trkpt lat="50.02634" lon="4.22896">
        <ele>277.2</ele>
        <time>2024-04-16T14:55:06Z</time>
      </trkpt>
      <trkpt lat="50.02628" lon="4.22897">
        <ele>277.2</ele>
        <time>2024-04-16T14:55:07Z</time>
      </trkpt>
      <trkpt lat="50.02622" lon="4.22899">
        <ele>277.4</ele>
        <time>2024-04-16T14:55:08Z</time>
      </trkpt>
      <trkpt lat="50.02616" lon="4.22901">
        <ele>277.6</ele>
        <time>2024-04-16T14:55:09Z</time>
      </trkpt>
      <trkpt lat="50.02609" lon="4.22903">
        <ele>277.6</ele>
        <time>2024-04-16T14:55:10Z</time>
      </trkpt>
      <trkpt lat="50.02603" lon="4.22905">
        <ele>278</ele>
        <time>2024-04-16T14:55:11Z</time>
      </trkpt>
      <trkpt lat="50.02597" lon="4.22907">
        <ele>278</ele>
        <time>2024-04-16T14:55:12Z</time>
      </trkpt>
      <trkpt lat="50.0259" lon="4.2291">
        <ele>278</ele>
        <time>2024-04-16T14:55:13Z</time>
      </trkpt>
      <trkpt lat="50.02584" lon="4.22912">
        <ele>278</ele>
        <time>2024-04-16T14:55:14Z</time>
      </trkpt>
      <trkpt lat="50.02577" lon="4.22914">
        <ele>278.2</ele>
        <time>2024-04-16T14:55:15Z</time>
      </trkpt>
      <trkpt lat="50.0257" lon="4.22916">
        <ele>278.2</ele>
        <time>2024-04-16T14:55:16Z</time>
      </trkpt>
      <trkpt lat="50.02564" lon="4.22918">
        <ele>278.2</ele>
        <time>2024-04-16T14:55:17Z</time>
      </trkpt>
      <trkpt lat="50.02557" lon="4.2292">
        <ele>278.4</ele>
        <time>2024-04-16T14:55:18Z</time>
      </trkpt>
      <trkpt lat="50.02551" lon="4.22922">
        <ele>278.6</ele>
        <time>2024-04-16T14:55:19Z</time>
      </trkpt>
      <trkpt lat="50.02545" lon="4.22924">
        <ele>278.6</ele>
        <time>2024-04-16T14:55:20Z</time>
      </trkpt>
      <trkpt lat="50.02538" lon="4.22926">
        <ele>278.6</ele>
        <time>2024-04-16T14:55:21Z</time>
      </trkpt>
      <trkpt lat="50.02532" lon="4.22929">
        <ele>278.6</ele>
        <time>2024-04-16T14:55:22Z</time>
      </trkpt>
      <trkpt lat="50.02526" lon="4.22932">
        <ele>278.6</ele>
        <time>2024-04-16T14:55:23Z</time>
      </trkpt>
      <trkpt lat="50.02519" lon="4.22934">
        <ele>278.8</ele>
        <time>2024-04-16T14:55:24Z</time>
      </trkpt>
      <trkpt lat="50.02512" lon="4.22937">
        <ele>278.8</ele>
        <time>2024-04-16T14:55:25Z</time>
      </trkpt>
      <trkpt lat="50.02506" lon="4.22939">
        <ele>278.8</ele>
        <time>2024-04-16T14:55:26Z</time>
      </trkpt>
      <trkpt lat="50.02499" lon="4.22941">
        <ele>278.8</ele>
        <time>2024-04-16T14:55:27Z</time>
      </trkpt>
      <trkpt lat="50.02493" lon="4.22943">
        <ele>279.2</ele>
        <time>2024-04-16T14:55:28Z</time>
      </trkpt>
      <trkpt lat="50.02487" lon="4.22946">
        <ele>279.2</ele>
        <time>2024-04-16T14:55:29Z</time>
      </trkpt>
      <trkpt lat="50.02481" lon="4.22949">
        <ele>279.2</ele>
        <time>2024-04-16T14:55:30Z</time>
      </trkpt>
      <trkpt lat="50.02475" lon="4.22952">
        <ele>279.8</ele>
        <time>2024-04-16T14:55:31Z</time>
      </trkpt>
      <trkpt lat="50.02469" lon="4.22955">
        <ele>280.2</ele>
        <time>2024-04-16T14:55:32Z</time>
      </trkpt>
      <trkpt lat="50.02463" lon="4.22958">
        <ele>280.2</ele>
        <time>2024-04-16T14:55:33Z</time>
      </trkpt>
      <trkpt lat="50.02457" lon="4.22961">
        <ele>280.4</ele>
        <time>2024-04-16T14:55:34Z</time>
      </trkpt>
      <trkpt lat="50.02451" lon="4.22963">
        <ele>280.6</ele>
        <time>2024-04-16T14:55:35Z</time>
      </trkpt>
      <trkpt lat="50.02445" lon="4.22966">
        <ele>280.8</ele>
        <time>2024-04-16T14:55:36Z</time>
      </trkpt>
      <trkpt lat="50.02438" lon="4.22968">
        <ele>280.8</ele>
        <time>2024-04-16T14:55:37Z</time>
      </trkpt>
      <trkpt lat="50.02432" lon="4.2297">
        <ele>280.8</ele>
        <time>2024-04-16T14:55:38Z</time>
      </trkpt>
      <trkpt lat="50.02426" lon="4.22973">
        <ele>280.8</ele>
        <time>2024-04-16T14:55:39Z</time>
      </trkpt>
      <trkpt lat="50.0242" lon="4.22975">
        <ele>280.8</ele>
        <time>2024-04-16T14:55:40Z</time>
      </trkpt>
      <trkpt lat="50.02413" lon="4.22978">
        <ele>281</ele>
        <time>2024-04-16T14:55:41Z</time>
      </trkpt>
      <trkpt lat="50.02406" lon="4.2298">
        <ele>281.2</ele>
        <time>2024-04-16T14:55:42Z</time>
      </trkpt>
      <trkpt lat="50.02401" lon="4.22984">
        <ele>281.2</ele>
        <time>2024-04-16T14:55:43Z</time>
      </trkpt>
      <trkpt lat="50.02394" lon="4.22987">
        <ele>281.2</ele>
        <time>2024-04-16T14:55:44Z</time>
      </trkpt>
      <trkpt lat="50.02386" lon="4.22988">
        <ele>281.6</ele>
        <time>2024-04-16T14:55:45Z</time>
      </trkpt>
      <trkpt lat="50.0238" lon="4.22991">
        <ele>281.6</ele>
        <time>2024-04-16T14:55:46Z</time>
      </trkpt>
      <trkpt lat="50.02373" lon="4.22994">
        <ele>281.8</ele>
        <time>2024-04-16T14:55:47Z</time>
      </trkpt>
      <trkpt lat="50.02367" lon="4.22997">
        <ele>281.8</ele>
        <time>2024-04-16T14:55:48Z</time>
      </trkpt>
      <trkpt lat="50.0236" lon="4.22999">
        <ele>282</ele>
        <time>2024-04-16T14:55:49Z</time>
      </trkpt>
      <trkpt lat="50.02353" lon="4.23">
        <ele>282.2</ele>
        <time>2024-04-16T14:55:50Z</time>
      </trkpt>
      <trkpt lat="50.02346" lon="4.23003">
        <ele>282.6</ele>
        <time>2024-04-16T14:55:51Z</time>
      </trkpt>
      <trkpt lat="50.0234" lon="4.23006">
        <ele>283</ele>
        <time>2024-04-16T14:55:52Z</time>
      </trkpt>
      <trkpt lat="50.02334" lon="4.23008">
        <ele>283.6</ele>
        <time>2024-04-16T14:55:53Z</time>
      </trkpt>
      <trkpt lat="50.02328" lon="4.23011">
        <ele>284</ele>
        <time>2024-04-16T14:55:54Z</time>
      </trkpt>
      <trkpt lat="50.02321" lon="4.23013">
        <ele>284.2</ele>
        <time>2024-04-16T14:55:55Z</time>
      </trkpt>
      <trkpt lat="50.02315" lon="4.23016">
        <ele>284.2</ele>
        <time>2024-04-16T14:55:56Z</time>
      </trkpt>
      <trkpt lat="50.02309" lon="4.23019">
        <ele>284.4</ele>
        <time>2024-04-16T14:55:57Z</time>
      </trkpt>
      <trkpt lat="50.02302" lon="4.23022">
        <ele>284.6</ele>
        <time>2024-04-16T14:55:58Z</time>
      </trkpt>
      <trkpt lat="50.02295" lon="4.23024">
        <ele>284.6</ele>
        <time>2024-04-16T14:55:59Z</time>
      </trkpt>
      <trkpt lat="50.02289" lon="4.23027">
        <ele>284.6</ele>
        <time>2024-04-16T14:56:00Z</time>
      </trkpt>
      <trkpt lat="50.02282" lon="4.2303">
        <ele>284.6</ele>
        <time>2024-04-16T14:56:01Z</time>
      </trkpt>
      <trkpt lat="50.02275" lon="4.23033">
        <ele>284.8</ele>
        <time>2024-04-16T14:56:02Z</time>
      </trkpt>
      <trkpt lat="50.02268" lon="4.23035">
        <ele>285</ele>
        <time>2024-04-16T14:56:03Z</time>
      </trkpt>
      <trkpt lat="50.02262" lon="4.23037">
        <ele>284.8</ele>
        <time>2024-04-16T14:56:04Z</time>
      </trkpt>
      <trkpt lat="50.02254" lon="4.23039">
        <ele>284.8</ele>
        <time>2024-04-16T14:56:05Z</time>
      </trkpt>
      <trkpt lat="50.02247" lon="4.23041">
        <ele>285</ele>
        <time>2024-04-16T14:56:06Z</time>
      </trkpt>
      <trkpt lat="50.0224" lon="4.23044">
        <ele>285</ele>
        <time>2024-04-16T14:56:07Z</time>
      </trkpt>
      <trkpt lat="50.02233" lon="4.23046">
        <ele>285</ele>
        <time>2024-04-16T14:56:08Z</time>
      </trkpt>
      <trkpt lat="50.02226" lon="4.23049">
        <ele>285</ele>
        <time>2024-04-16T14:56:09Z</time>
      </trkpt>
      <trkpt lat="50.02218" lon="4.23052">
        <ele>285</ele>
        <time>2024-04-16T14:56:10Z</time>
      </trkpt>
      <trkpt lat="50.02211" lon="4.23054">
        <ele>285.2</ele>
        <time>2024-04-16T14:56:11Z</time>
      </trkpt>
      <trkpt lat="50.02204" lon="4.23057">
        <ele>285.2</ele>
        <time>2024-04-16T14:56:12Z</time>
      </trkpt>
      <trkpt lat="50.02196" lon="4.23059">
        <ele>285.2</ele>
        <time>2024-04-16T14:56:13Z</time>
      </trkpt>
      <trkpt lat="50.02189" lon="4.23062">
        <ele>285</ele>
        <time>2024-04-16T14:56:14Z</time>
      </trkpt>
      <trkpt lat="50.02181" lon="4.23064">
        <ele>285.2</ele>
        <time>2024-04-16T14:56:15Z</time>
      </trkpt>
      <trkpt lat="50.02175" lon="4.23067">
        <ele>285</ele>
        <time>2024-04-16T14:56:16Z</time>
      </trkpt>
      <trkpt lat="50.02168" lon="4.2307">
        <ele>285.2</ele>
        <time>2024-04-16T14:56:17Z</time>
      </trkpt>
      <trkpt lat="50.02161" lon="4.23073">
        <ele>285</ele>
        <time>2024-04-16T14:56:18Z</time>
      </trkpt>
      <trkpt lat="50.02154" lon="4.23075">
        <ele>285.2</ele>
        <time>2024-04-16T14:56:19Z</time>
      </trkpt>
      <trkpt lat="50.02146" lon="4.23077">
        <ele>285.2</ele>
        <time>2024-04-16T14:56:20Z</time>
      </trkpt>
      <trkpt lat="50.0214" lon="4.2308">
        <ele>285.4</ele>
        <time>2024-04-16T14:56:21Z</time>
      </trkpt>
      <trkpt lat="50.02132" lon="4.23083">
        <ele>285.4</ele>
        <time>2024-04-16T14:56:22Z</time>
      </trkpt>
      <trkpt lat="50.02125" lon="4.23086">
        <ele>285.2</ele>
        <time>2024-04-16T14:56:23Z</time>
      </trkpt>
      <trkpt lat="50.02118" lon="4.23089">
        <ele>285.2</ele>
        <time>2024-04-16T14:56:24Z</time>
      </trkpt>
      <trkpt lat="50.0211" lon="4.23091">
        <ele>285.2</ele>
        <time>2024-04-16T14:56:25Z</time>
      </trkpt>
      <trkpt lat="50.02102" lon="4.23093">
        <ele>285.2</ele>
        <time>2024-04-16T14:56:26Z</time>
      </trkpt>
      <trkpt lat="50.02095" lon="4.23095">
        <ele>285.2</ele>
        <time>2024-04-16T14:56:27Z</time>
      </trkpt>
      <trkpt lat="50.02087" lon="4.23098">
        <ele>285.4</ele>
        <time>2024-04-16T14:56:28Z</time>
      </trkpt>
      <trkpt lat="50.0208" lon="4.23101">
        <ele>285.2</ele>
        <time>2024-04-16T14:56:29Z</time>
      </trkpt>
      <trkpt lat="50.02073" lon="4.23103">
        <ele>285.2</ele>
        <time>2024-04-16T14:56:30Z</time>
      </trkpt>
      <trkpt lat="50.02066" lon="4.23106">
        <ele>285.2</ele>
        <time>2024-04-16T14:56:31Z</time>
      </trkpt>
      <trkpt lat="50.02058" lon="4.23109">
        <ele>285.4</ele>
        <time>2024-04-16T14:56:32Z</time>
      </trkpt>
      <trkpt lat="50.02051" lon="4.23112">
        <ele>285.6</ele>
        <time>2024-04-16T14:56:33Z</time>
      </trkpt>
      <trkpt lat="50.02044" lon="4.23114">
        <ele>285.4</ele>
        <time>2024-04-16T14:56:34Z</time>
      </trkpt>
      <trkpt lat="50.02036" lon="4.23116">
        <ele>285.4</ele>
        <time>2024-04-16T14:56:35Z</time>
      </trkpt>
      <trkpt lat="50.02029" lon="4.23119">
        <ele>285.4</ele>
        <time>2024-04-16T14:56:36Z</time>
      </trkpt>
      <trkpt lat="50.02021" lon="4.23122">
        <ele>285.4</ele>
        <time>2024-04-16T14:56:37Z</time>
      </trkpt>
      <trkpt lat="50.02014" lon="4.23124">
        <ele>285.4</ele>
        <time>2024-04-16T14:56:38Z</time>
      </trkpt>
      <trkpt lat="50.02007" lon="4.23127">
        <ele>285.4</ele>
        <time>2024-04-16T14:56:39Z</time>
      </trkpt>
      <trkpt lat="50.01999" lon="4.2313">
        <ele>285.6</ele>
        <time>2024-04-16T14:56:40Z</time>
      </trkpt>
      <trkpt lat="50.01992" lon="4.23132">
        <ele>285.6</ele>
        <time>2024-04-16T14:56:41Z</time>
      </trkpt>
      <trkpt lat="50.01985" lon="4.23135">
        <ele>285.6</ele>
        <time>2024-04-16T14:56:42Z</time>
      </trkpt>
      <trkpt lat="50.01978" lon="4.23137">
        <ele>285.4</ele>
        <time>2024-04-16T14:56:43Z</time>
      </trkpt>
      <trkpt lat="50.01971" lon="4.2314">
        <ele>285.4</ele>
        <time>2024-04-16T14:56:44Z</time>
      </trkpt>
      <trkpt lat="50.01964" lon="4.23142">
        <ele>285.2</ele>
        <time>2024-04-16T14:56:45Z</time>
      </trkpt>
      <trkpt lat="50.01957" lon="4.23145">
        <ele>285.4</ele>
        <time>2024-04-16T14:56:46Z</time>
      </trkpt>
      <trkpt lat="50.0195" lon="4.23147">
        <ele>285.4</ele>
        <time>2024-04-16T14:56:47Z</time>
      </trkpt>
      <trkpt lat="50.01943" lon="4.2315">
        <ele>285.2</ele>
        <time>2024-04-16T14:56:48Z</time>
      </trkpt>
      <trkpt lat="50.01936" lon="4.23153">
        <ele>285.2</ele>
        <time>2024-04-16T14:56:49Z</time>
      </trkpt>
      <trkpt lat="50.01928" lon="4.23155">
        <ele>285</ele>
        <time>2024-04-16T14:56:50Z</time>
      </trkpt>
      <trkpt lat="50.01921" lon="4.23158">
        <ele>285</ele>
        <time>2024-04-16T14:56:51Z</time>
      </trkpt>
      <trkpt lat="50.01914" lon="4.23161">
        <ele>285</ele>
        <time>2024-04-16T14:56:52Z</time>
      </trkpt>
      <trkpt lat="50.01908" lon="4.23165">
        <ele>284.8</ele>
        <time>2024-04-16T14:56:53Z</time>
      </trkpt>
      <trkpt lat="50.01901" lon="4.2317">
        <ele>284.8</ele>
        <time>2024-04-16T14:56:54Z</time>
      </trkpt>
      <trkpt lat="50.01895" lon="4.23175">
        <ele>284.8</ele>
        <time>2024-04-16T14:56:55Z</time>
      </trkpt>
      <trkpt lat="50.01889" lon="4.23181">
        <ele>284.8</ele>
        <time>2024-04-16T14:56:56Z</time>
      </trkpt>
      <trkpt lat="50.01883" lon="4.23188">
        <ele>284.8</ele>
        <time>2024-04-16T14:56:57Z</time>
      </trkpt>
      <trkpt lat="50.01877" lon="4.23195">
        <ele>284.8</ele>
        <time>2024-04-16T14:56:58Z</time>
      </trkpt>
      <trkpt lat="50.01872" lon="4.23203">
        <ele>284.6</ele>
        <time>2024-04-16T14:56:59Z</time>
      </trkpt>
      <trkpt lat="50.01867" lon="4.23212">
        <ele>284.2</ele>
        <time>2024-04-16T14:57:00Z</time>
      </trkpt>
      <trkpt lat="50.01862" lon="4.23222">
        <ele>284.2</ele>
        <time>2024-04-16T14:57:01Z</time>
      </trkpt>
      <trkpt lat="50.01857" lon="4.23232">
        <ele>284.2</ele>
        <time>2024-04-16T14:57:02Z</time>
      </trkpt>
      <trkpt lat="50.01853" lon="4.23242">
        <ele>283.8</ele>
        <time>2024-04-16T14:57:03Z</time>
      </trkpt>
      <trkpt lat="50.0185" lon="4.23253">
        <ele>283.8</ele>
        <time>2024-04-16T14:57:04Z</time>
      </trkpt>
      <trkpt lat="50.01846" lon="4.23265">
        <ele>283.8</ele>
        <time>2024-04-16T14:57:05Z</time>
      </trkpt>
      <trkpt lat="50.01843" lon="4.23277">
        <ele>283.6</ele>
        <time>2024-04-16T14:57:06Z</time>
      </trkpt>
      <trkpt lat="50.0184" lon="4.2329">
        <ele>283.6</ele>
        <time>2024-04-16T14:57:07Z</time>
      </trkpt>
      <trkpt lat="50.01836" lon="4.23302">
        <ele>283</ele>
        <time>2024-04-16T14:57:08Z</time>
      </trkpt>
      <trkpt lat="50.01833" lon="4.23315">
        <ele>282</ele>
        <time>2024-04-16T14:57:09Z</time>
      </trkpt>
      <trkpt lat="50.0183" lon="4.23328">
        <ele>281.4</ele>
        <time>2024-04-16T14:57:10Z</time>
      </trkpt>
      <trkpt lat="50.01828" lon="4.23342">
        <ele>281.4</ele>
        <time>2024-04-16T14:57:11Z</time>
      </trkpt>
      <trkpt lat="50.01824" lon="4.23355">
        <ele>281.2</ele>
        <time>2024-04-16T14:57:12Z</time>
      </trkpt>
      <trkpt lat="50.01821" lon="4.23368">
        <ele>280.6</ele>
        <time>2024-04-16T14:57:13Z</time>
      </trkpt>
      <trkpt lat="50.01818" lon="4.23381">
        <ele>279.8</ele>
        <time>2024-04-16T14:57:14Z</time>
      </trkpt>
      <trkpt lat="50.01815" lon="4.23395">
        <ele>279</ele>
        <time>2024-04-16T14:57:15Z</time>
      </trkpt>
      <trkpt lat="50.01812" lon="4.23408">
        <ele>278.4</ele>
        <time>2024-04-16T14:57:16Z</time>
      </trkpt>
      <trkpt lat="50.01808" lon="4.23421">
        <ele>278</ele>
        <time>2024-04-16T14:57:17Z</time>
      </trkpt>
      <trkpt lat="50.01805" lon="4.23435">
        <ele>277.4</ele>
        <time>2024-04-16T14:57:18Z</time>
      </trkpt>
      <trkpt lat="50.01801" lon="4.23448">
        <ele>277.2</ele>
        <time>2024-04-16T14:57:19Z</time>
      </trkpt>
      <trkpt lat="50.01798" lon="4.23462">
        <ele>276.8</ele>
        <time>2024-04-16T14:57:20Z</time>
      </trkpt>
      <trkpt lat="50.01794" lon="4.23476">
        <ele>276.6</ele>
        <time>2024-04-16T14:57:21Z</time>
      </trkpt>
      <trkpt lat="50.0179" lon="4.2349">
        <ele>276.4</ele>
        <time>2024-04-16T14:57:22Z</time>
      </trkpt>
      <trkpt lat="50.01787" lon="4.23504">
        <ele>276.4</ele>
        <time>2024-04-16T14:57:23Z</time>
      </trkpt>
      <trkpt lat="50.01783" lon="4.23519">
        <ele>276.2</ele>
        <time>2024-04-16T14:57:24Z</time>
      </trkpt>
      <trkpt lat="50.0178" lon="4.23534">
        <ele>275.4</ele>
        <time>2024-04-16T14:57:25Z</time>
      </trkpt>
      <trkpt lat="50.01776" lon="4.2355">
        <ele>275</ele>
        <time>2024-04-16T14:57:26Z</time>
      </trkpt>
      <trkpt lat="50.01773" lon="4.23565">
        <ele>274.6</ele>
        <time>2024-04-16T14:57:27Z</time>
      </trkpt>
      <trkpt lat="50.01769" lon="4.2358">
        <ele>274</ele>
        <time>2024-04-16T14:57:28Z</time>
      </trkpt>
      <trkpt lat="50.01765" lon="4.23595">
        <ele>273.8</ele>
        <time>2024-04-16T14:57:29Z</time>
      </trkpt>
      <trkpt lat="50.01761" lon="4.2361">
        <ele>273.6</ele>
        <time>2024-04-16T14:57:30Z</time>
      </trkpt>
      <trkpt lat="50.01756" lon="4.23624">
        <ele>273.6</ele>
        <time>2024-04-16T14:57:31Z</time>
      </trkpt>
      <trkpt lat="50.01752" lon="4.23637">
        <ele>273.6</ele>
        <time>2024-04-16T14:57:32Z</time>
      </trkpt>
      <trkpt lat="50.01748" lon="4.2365">
        <ele>273.4</ele>
        <time>2024-04-16T14:57:33Z</time>
      </trkpt>
      <trkpt lat="50.01744" lon="4.23662">
        <ele>273.2</ele>
        <time>2024-04-16T14:57:34Z</time>
      </trkpt>
      <trkpt lat="50.0174" lon="4.23674">
        <ele>273</ele>
        <time>2024-04-16T14:57:35Z</time>
      </trkpt>
      <trkpt lat="50.01736" lon="4.23686">
        <ele>272.2</ele>
        <time>2024-04-16T14:57:36Z</time>
      </trkpt>
      <trkpt lat="50.01732" lon="4.23697">
        <ele>271.8</ele>
        <time>2024-04-16T14:57:37Z</time>
      </trkpt>
      <trkpt lat="50.01728" lon="4.23708">
        <ele>271.2</ele>
        <time>2024-04-16T14:57:38Z</time>
      </trkpt>
      <trkpt lat="50.01724" lon="4.23719">
        <ele>271</ele>
        <time>2024-04-16T14:57:39Z</time>
      </trkpt>
      <trkpt lat="50.01719" lon="4.23729">
        <ele>270.8</ele>
        <time>2024-04-16T14:57:40Z</time>
      </trkpt>
      <trkpt lat="50.01715" lon="4.2374">
        <ele>270.8</ele>
        <time>2024-04-16T14:57:41Z</time>
      </trkpt>
      <trkpt lat="50.01711" lon="4.2375">
        <ele>270.6</ele>
        <time>2024-04-16T14:57:42Z</time>
      </trkpt>
      <trkpt lat="50.01707" lon="4.23761">
        <ele>270.6</ele>
        <time>2024-04-16T14:57:43Z</time>
      </trkpt>
      <trkpt lat="50.01703" lon="4.23772">
        <ele>270.6</ele>
        <time>2024-04-16T14:57:44Z</time>
      </trkpt>
      <trkpt lat="50.01699" lon="4.23783">
        <ele>270.6</ele>
        <time>2024-04-16T14:57:45Z</time>
      </trkpt>
      <trkpt lat="50.01695" lon="4.23795">
        <ele>270.4</ele>
        <time>2024-04-16T14:57:46Z</time>
      </trkpt>
      <trkpt lat="50.01691" lon="4.23806">
        <ele>270.4</ele>
        <time>2024-04-16T14:57:47Z</time>
      </trkpt>
      <trkpt lat="50.01687" lon="4.23817">
        <ele>270.4</ele>
        <time>2024-04-16T14:57:48Z</time>
      </trkpt>
      <trkpt lat="50.01682" lon="4.23826">
        <ele>270.2</ele>
        <time>2024-04-16T14:57:49Z</time>
      </trkpt>
      <trkpt lat="50.01676" lon="4.23834">
        <ele>270.2</ele>
        <time>2024-04-16T14:57:50Z</time>
      </trkpt>
      <trkpt lat="50.01671" lon="4.23841">
        <ele>270.4</ele>
        <time>2024-04-16T14:57:51Z</time>
      </trkpt>
      <trkpt lat="50.01669" lon="4.2385">
        <ele>270.4</ele>
        <time>2024-04-16T14:57:52Z</time>
      </trkpt>
      <trkpt lat="50.01668" lon="4.2386">
        <ele>270.6</ele>
        <time>2024-04-16T14:57:53Z</time>
      </trkpt>
      <trkpt lat="50.0167" lon="4.2387">
        <ele>270.6</ele>
        <time>2024-04-16T14:57:54Z</time>
      </trkpt>
      <trkpt lat="50.01671" lon="4.2388">
        <ele>270.4</ele>
        <time>2024-04-16T14:57:55Z</time>
      </trkpt>
      <trkpt lat="50.01673" lon="4.2389">
        <ele>270.6</ele>
        <time>2024-04-16T14:57:56Z</time>
      </trkpt>
      <trkpt lat="50.01674" lon="4.23901">
        <ele>270.4</ele>
        <time>2024-04-16T14:57:57Z</time>
      </trkpt>
      <trkpt lat="50.01676" lon="4.23911">
        <ele>270</ele>
        <time>2024-04-16T14:57:58Z</time>
      </trkpt>
      <trkpt lat="50.01678" lon="4.23921">
        <ele>269.8</ele>
        <time>2024-04-16T14:57:59Z</time>
      </trkpt>
      <trkpt lat="50.01679" lon="4.23932">
        <ele>269.4</ele>
        <time>2024-04-16T14:58:00Z</time>
      </trkpt>
      <trkpt lat="50.0168" lon="4.23942">
        <ele>269.2</ele>
        <time>2024-04-16T14:58:01Z</time>
      </trkpt>
      <trkpt lat="50.01682" lon="4.23953">
        <ele>269.2</ele>
        <time>2024-04-16T14:58:02Z</time>
      </trkpt>
      <trkpt lat="50.01683" lon="4.23962">
        <ele>269</ele>
        <time>2024-04-16T14:58:03Z</time>
      </trkpt>
      <trkpt lat="50.01685" lon="4.23972">
        <ele>269</ele>
        <time>2024-04-16T14:58:04Z</time>
      </trkpt>
      <trkpt lat="50.01688" lon="4.23981">
        <ele>269</ele>
        <time>2024-04-16T14:58:05Z</time>
      </trkpt>
      <trkpt lat="50.01691" lon="4.2399">
        <ele>269</ele>
        <time>2024-04-16T14:58:06Z</time>
      </trkpt>
      <trkpt lat="50.01694" lon="4.23998">
        <ele>269</ele>
        <time>2024-04-16T14:58:07Z</time>
      </trkpt>
      <trkpt lat="50.01698" lon="4.24006">
        <ele>269</ele>
        <time>2024-04-16T14:58:08Z</time>
      </trkpt>
      <trkpt lat="50.01701" lon="4.24013">
        <ele>269</ele>
        <time>2024-04-16T14:58:09Z</time>
      </trkpt>
      <trkpt lat="50.01705" lon="4.2402">
        <ele>269</ele>
        <time>2024-04-16T14:58:10Z</time>
      </trkpt>
      <trkpt lat="50.01708" lon="4.24027">
        <ele>268.8</ele>
        <time>2024-04-16T14:58:11Z</time>
      </trkpt>
      <trkpt lat="50.01712" lon="4.24034">
        <ele>269</ele>
        <time>2024-04-16T14:58:12Z</time>
      </trkpt>
      <trkpt lat="50.01715" lon="4.24041">
        <ele>269</ele>
        <time>2024-04-16T14:58:13Z</time>
      </trkpt>
      <trkpt lat="50.01719" lon="4.24048">
        <ele>269</ele>
        <time>2024-04-16T14:58:14Z</time>
      </trkpt>
      <trkpt lat="50.01723" lon="4.24054">
        <ele>269</ele>
        <time>2024-04-16T14:58:15Z</time>
      </trkpt>
      <trkpt lat="50.01726" lon="4.24061">
        <ele>269.2</ele>
        <time>2024-04-16T14:58:16Z</time>
      </trkpt>
      <trkpt lat="50.0173" lon="4.24068">
        <ele>269.6</ele>
        <time>2024-04-16T14:58:17Z</time>
      </trkpt>
      <trkpt lat="50.01733" lon="4.24074">
        <ele>269.4</ele>
        <time>2024-04-16T14:58:18Z</time>
      </trkpt>
      <trkpt lat="50.01736" lon="4.24081">
        <ele>269.6</ele>
        <time>2024-04-16T14:58:19Z</time>
      </trkpt>
      <trkpt lat="50.0174" lon="4.24087">
        <ele>270.2</ele>
        <time>2024-04-16T14:58:20Z</time>
      </trkpt>
      <trkpt lat="50.01743" lon="4.24093">
        <ele>270.6</ele>
        <time>2024-04-16T14:58:21Z</time>
      </trkpt>
      <trkpt lat="50.01746" lon="4.241">
        <ele>270.8</ele>
        <time>2024-04-16T14:58:22Z</time>
      </trkpt>
      <trkpt lat="50.01749" lon="4.24106">
        <ele>271.2</ele>
        <time>2024-04-16T14:58:23Z</time>
      </trkpt>
      <trkpt lat="50.01752" lon="4.24113">
        <ele>271.4</ele>
        <time>2024-04-16T14:58:24Z</time>
      </trkpt>
      <trkpt lat="50.01755" lon="4.2412">
        <ele>271.4</ele>
        <time>2024-04-16T14:58:25Z</time>
      </trkpt>
      <trkpt lat="50.01757" lon="4.24126">
        <ele>271.8</ele>
        <time>2024-04-16T14:58:26Z</time>
      </trkpt>
      <trkpt lat="50.0176" lon="4.24133">
        <ele>272</ele>
        <time>2024-04-16T14:58:27Z</time>
      </trkpt>
      <trkpt lat="50.01762" lon="4.2414">
        <ele>272.2</ele>
        <time>2024-04-16T14:58:28Z</time>
      </trkpt>
      <trkpt lat="50.01764" lon="4.24147">
        <ele>272.4</ele>
        <time>2024-04-16T14:58:29Z</time>
      </trkpt>
      <trkpt lat="50.01766" lon="4.24155">
        <ele>272.6</ele>
        <time>2024-04-16T14:58:30Z</time>
      </trkpt>
      <trkpt lat="50.01769" lon="4.24162">
        <ele>272.8</ele>
        <time>2024-04-16T14:58:31Z</time>
      </trkpt>
      <trkpt lat="50.01771" lon="4.24169">
        <ele>273</ele>
        <time>2024-04-16T14:58:32Z</time>
      </trkpt>
      <trkpt lat="50.01773" lon="4.24176">
        <ele>273</ele>
        <time>2024-04-16T14:58:33Z</time>
      </trkpt>
      <trkpt lat="50.01774" lon="4.24183">
        <ele>273.2</ele>
        <time>2024-04-16T14:58:34Z</time>
      </trkpt>
      <trkpt lat="50.01776" lon="4.2419">
        <ele>273.4</ele>
        <time>2024-04-16T14:58:35Z</time>
      </trkpt>
      <trkpt lat="50.01778" lon="4.24197">
        <ele>273.6</ele>
        <time>2024-04-16T14:58:36Z</time>
      </trkpt>
      <trkpt lat="50.0178" lon="4.24204">
        <ele>273.6</ele>
        <time>2024-04-16T14:58:37Z</time>
      </trkpt>
      <trkpt lat="50.01782" lon="4.24212">
        <ele>274.4</ele>
        <time>2024-04-16T14:58:38Z</time>
      </trkpt>
      <trkpt lat="50.01785" lon="4.24219">
        <ele>274.8</ele>
        <time>2024-04-16T14:58:39Z</time>
      </trkpt>
      <trkpt lat="50.01787" lon="4.24227">
        <ele>275.2</ele>
        <time>2024-04-16T14:58:40Z</time>
      </trkpt>
      <trkpt lat="50.01789" lon="4.24234">
        <ele>275.6</ele>
        <time>2024-04-16T14:58:41Z</time>
      </trkpt>
      <trkpt lat="50.01791" lon="4.24242">
        <ele>275.6</ele>
        <time>2024-04-16T14:58:42Z</time>
      </trkpt>
      <trkpt lat="50.01793" lon="4.2425">
        <ele>276</ele>
        <time>2024-04-16T14:58:43Z</time>
      </trkpt>
      <trkpt lat="50.01795" lon="4.24258">
        <ele>276.4</ele>
        <time>2024-04-16T14:58:44Z</time>
      </trkpt>
      <trkpt lat="50.01798" lon="4.24266">
        <ele>276.8</ele>
        <time>2024-04-16T14:58:45Z</time>
      </trkpt>
      <trkpt lat="50.018" lon="4.24274">
        <ele>276.8</ele>
        <time>2024-04-16T14:58:46Z</time>
      </trkpt>
      <trkpt lat="50.01802" lon="4.24282">
        <ele>277</ele>
        <time>2024-04-16T14:58:47Z</time>
      </trkpt>
      <trkpt lat="50.01804" lon="4.24291">
        <ele>277.2</ele>
        <time>2024-04-16T14:58:48Z</time>
      </trkpt>
      <trkpt lat="50.01807" lon="4.24299">
        <ele>277.4</ele>
        <time>2024-04-16T14:58:49Z</time>
      </trkpt>
      <trkpt lat="50.01809" lon="4.24307">
        <ele>277.4</ele>
        <time>2024-04-16T14:58:50Z</time>
      </trkpt>
      <trkpt lat="50.01811" lon="4.24315">
        <ele>277.6</ele>
        <time>2024-04-16T14:58:51Z</time>
      </trkpt>
      <trkpt lat="50.01814" lon="4.24324">
        <ele>277.8</ele>
        <time>2024-04-16T14:58:52Z</time>
      </trkpt>
      <trkpt lat="50.01816" lon="4.24333">
        <ele>278.2</ele>
        <time>2024-04-16T14:58:53Z</time>
      </trkpt>
      <trkpt lat="50.01818" lon="4.24341">
        <ele>278.4</ele>
        <time>2024-04-16T14:58:54Z</time>
      </trkpt>
      <trkpt lat="50.01821" lon="4.2435">
        <ele>278.6</ele>
        <time>2024-04-16T14:58:55Z</time>
      </trkpt>
      <trkpt lat="50.01823" lon="4.24359">
        <ele>278.6</ele>
        <time>2024-04-16T14:58:56Z</time>
      </trkpt>
      <trkpt lat="50.01826" lon="4.24368">
        <ele>278.8</ele>
        <time>2024-04-16T14:58:57Z</time>
      </trkpt>
      <trkpt lat="50.01829" lon="4.24378">
        <ele>279</ele>
        <time>2024-04-16T14:58:58Z</time>
      </trkpt>
      <trkpt lat="50.01831" lon="4.24387">
        <ele>279</ele>
        <time>2024-04-16T14:58:59Z</time>
      </trkpt>
      <trkpt lat="50.01834" lon="4.24396">
        <ele>279</ele>
        <time>2024-04-16T14:59:00Z</time>
      </trkpt>
      <trkpt lat="50.01837" lon="4.24406">
        <ele>279.2</ele>
        <time>2024-04-16T14:59:01Z</time>
      </trkpt>
      <trkpt lat="50.01839" lon="4.24415">
        <ele>279.8</ele>
        <time>2024-04-16T14:59:02Z</time>
      </trkpt>
      <trkpt lat="50.01842" lon="4.24425">
        <ele>280.4</ele>
        <time>2024-04-16T14:59:03Z</time>
      </trkpt>
      <trkpt lat="50.01844" lon="4.24435">
        <ele>280.6</ele>
        <time>2024-04-16T14:59:04Z</time>
      </trkpt>
      <trkpt lat="50.01847" lon="4.24444">
        <ele>280.6</ele>
        <time>2024-04-16T14:59:05Z</time>
      </trkpt>
      <trkpt lat="50.01849" lon="4.24454">
        <ele>280.8</ele>
        <time>2024-04-16T14:59:06Z</time>
      </trkpt>
      <trkpt lat="50.0185" lon="4.24464">
        <ele>280.8</ele>
        <time>2024-04-16T14:59:07Z</time>
      </trkpt>
      <trkpt lat="50.01852" lon="4.24475">
        <ele>280.8</ele>
        <time>2024-04-16T14:59:08Z</time>
      </trkpt>
      <trkpt lat="50.01854" lon="4.24485">
        <ele>281.2</ele>
        <time>2024-04-16T14:59:09Z</time>
      </trkpt>
      <trkpt lat="50.01855" lon="4.24495">
        <ele>281.4</ele>
        <time>2024-04-16T14:59:10Z</time>
      </trkpt>
      <trkpt lat="50.01856" lon="4.24506">
        <ele>281.4</ele>
        <time>2024-04-16T14:59:11Z</time>
      </trkpt>
      <trkpt lat="50.01856" lon="4.24516">
        <ele>281.6</ele>
        <time>2024-04-16T14:59:12Z</time>
      </trkpt>
      <trkpt lat="50.01857" lon="4.24526">
        <ele>281.6</ele>
        <time>2024-04-16T14:59:13Z</time>
      </trkpt>
      <trkpt lat="50.01857" lon="4.24537">
        <ele>281.6</ele>
        <time>2024-04-16T14:59:14Z</time>
      </trkpt>
      <trkpt lat="50.01857" lon="4.24547">
        <ele>281.6</ele>
        <time>2024-04-16T14:59:15Z</time>
      </trkpt>
      <trkpt lat="50.01857" lon="4.24558">
        <ele>281.8</ele>
        <time>2024-04-16T14:59:16Z</time>
      </trkpt>
      <trkpt lat="50.01857" lon="4.24568">
        <ele>281.8</ele>
        <time>2024-04-16T14:59:17Z</time>
      </trkpt>
      <trkpt lat="50.01857" lon="4.24578">
        <ele>281.8</ele>
        <time>2024-04-16T14:59:18Z</time>
      </trkpt>
      <trkpt lat="50.01857" lon="4.24589">
        <ele>281.8</ele>
        <time>2024-04-16T14:59:19Z</time>
      </trkpt>
      <trkpt lat="50.01857" lon="4.24599">
        <ele>282</ele>
        <time>2024-04-16T14:59:20Z</time>
      </trkpt>
      <trkpt lat="50.01856" lon="4.2461">
        <ele>282</ele>
        <time>2024-04-16T14:59:21Z</time>
      </trkpt>
      <trkpt lat="50.01856" lon="4.24621">
        <ele>282</ele>
        <time>2024-04-16T14:59:22Z</time>
      </trkpt>
      <trkpt lat="50.01855" lon="4.24631">
        <ele>282</ele>
        <time>2024-04-16T14:59:23Z</time>
      </trkpt>
      <trkpt lat="50.01853" lon="4.24642">
        <ele>282</ele>
        <time>2024-04-16T14:59:24Z</time>
      </trkpt>
      <trkpt lat="50.01851" lon="4.24652">
        <ele>282</ele>
        <time>2024-04-16T14:59:25Z</time>
      </trkpt>
      <trkpt lat="50.01849" lon="4.24662">
        <ele>282</ele>
        <time>2024-04-16T14:59:26Z</time>
      </trkpt>
      <trkpt lat="50.01846" lon="4.24672">
        <ele>282.2</ele>
        <time>2024-04-16T14:59:27Z</time>
      </trkpt>
      <trkpt lat="50.01843" lon="4.24682">
        <ele>282.2</ele>
        <time>2024-04-16T14:59:28Z</time>
      </trkpt>
      <trkpt lat="50.0184" lon="4.24691">
        <ele>282.6</ele>
        <time>2024-04-16T14:59:29Z</time>
      </trkpt>
      <trkpt lat="50.01836" lon="4.247">
        <ele>283</ele>
        <time>2024-04-16T14:59:30Z</time>
      </trkpt>
      <trkpt lat="50.01832" lon="4.24709">
        <ele>283.2</ele>
        <time>2024-04-16T14:59:31Z</time>
      </trkpt>
      <trkpt lat="50.01828" lon="4.24717">
        <ele>283.6</ele>
        <time>2024-04-16T14:59:32Z</time>
      </trkpt>
      <trkpt lat="50.01824" lon="4.24725">
        <ele>283.8</ele>
        <time>2024-04-16T14:59:33Z</time>
      </trkpt>
      <trkpt lat="50.01819" lon="4.24732">
        <ele>284.2</ele>
        <time>2024-04-16T14:59:34Z</time>
      </trkpt>
      <trkpt lat="50.01815" lon="4.2474">
        <ele>284.2</ele>
        <time>2024-04-16T14:59:35Z</time>
      </trkpt>
      <trkpt lat="50.0181" lon="4.24748">
        <ele>284.4</ele>
        <time>2024-04-16T14:59:36Z</time>
      </trkpt>
      <trkpt lat="50.01805" lon="4.24755">
        <ele>284.6</ele>
        <time>2024-04-16T14:59:37Z</time>
      </trkpt>
      <trkpt lat="50.018" lon="4.24763">
        <ele>284.8</ele>
        <time>2024-04-16T14:59:38Z</time>
      </trkpt>
      <trkpt lat="50.01795" lon="4.2477">
        <ele>285</ele>
        <time>2024-04-16T14:59:39Z</time>
      </trkpt>
      <trkpt lat="50.0179" lon="4.24777">
        <ele>285.2</ele>
        <time>2024-04-16T14:59:40Z</time>
      </trkpt>
      <trkpt lat="50.01785" lon="4.24784">
        <ele>285.6</ele>
        <time>2024-04-16T14:59:41Z</time>
      </trkpt>
      <trkpt lat="50.0178" lon="4.2479">
        <ele>285.6</ele>
        <time>2024-04-16T14:59:42Z</time>
      </trkpt>
      <trkpt lat="50.01774" lon="4.24797">
        <ele>285.6</ele>
        <time>2024-04-16T14:59:43Z</time>
      </trkpt>
      <trkpt lat="50.01769" lon="4.24803">
        <ele>285.8</ele>
        <time>2024-04-16T14:59:44Z</time>
      </trkpt>
      <trkpt lat="50.01763" lon="4.24809">
        <ele>285.8</ele>
        <time>2024-04-16T14:59:45Z</time>
      </trkpt>
      <trkpt lat="50.01757" lon="4.24815">
        <ele>286</ele>
        <time>2024-04-16T14:59:46Z</time>
      </trkpt>
      <trkpt lat="50.01752" lon="4.24821">
        <ele>286</ele>
        <time>2024-04-16T14:59:47Z</time>
      </trkpt>
      <trkpt lat="50.01746" lon="4.24827">
        <ele>286.4</ele>
        <time>2024-04-16T14:59:48Z</time>
      </trkpt>
      <trkpt lat="50.0174" lon="4.24833">
        <ele>286.6</ele>
        <time>2024-04-16T14:59:49Z</time>
      </trkpt>
      <trkpt lat="50.01734" lon="4.24839">
        <ele>286.8</ele>
        <time>2024-04-16T14:59:50Z</time>
      </trkpt>
      <trkpt lat="50.01729" lon="4.24845">
        <ele>287.2</ele>
        <time>2024-04-16T14:59:51Z</time>
      </trkpt>
      <trkpt lat="50.01723" lon="4.24851">
        <ele>287.6</ele>
        <time>2024-04-16T14:59:52Z</time>
      </trkpt>
      <trkpt lat="50.01717" lon="4.24857">
        <ele>287.8</ele>
        <time>2024-04-16T14:59:53Z</time>
      </trkpt>
      <trkpt lat="50.01711" lon="4.24862">
        <ele>288</ele>
        <time>2024-04-16T14:59:54Z</time>
      </trkpt>
      <trkpt lat="50.01706" lon="4.24868">
        <ele>288.4</ele>
        <time>2024-04-16T14:59:55Z</time>
      </trkpt>
      <trkpt lat="50.017" lon="4.24875">
        <ele>288.6</ele>
        <time>2024-04-16T14:59:56Z</time>
      </trkpt>
      <trkpt lat="50.01695" lon="4.24882">
        <ele>288.6</ele>
        <time>2024-04-16T14:59:57Z</time>
      </trkpt>
      <trkpt lat="50.0169" lon="4.24889">
        <ele>288.8</ele>
        <time>2024-04-16T14:59:58Z</time>
      </trkpt>
      <trkpt lat="50.01685" lon="4.24897">
        <ele>289</ele>
        <time>2024-04-16T14:59:59Z</time>
      </trkpt>
      <trkpt lat="50.0168" lon="4.24905">
        <ele>289</ele>
        <time>2024-04-16T15:00:00Z</time>
      </trkpt>
      <trkpt lat="50.01675" lon="4.24913">
        <ele>289.2</ele>
        <time>2024-04-16T15:00:01Z</time>
      </trkpt>
      <trkpt lat="50.01671" lon="4.24922">
        <ele>289</ele>
        <time>2024-04-16T15:00:02Z</time>
      </trkpt>
      <trkpt lat="50.01666" lon="4.24931">
        <ele>289</ele>
        <time>2024-04-16T15:00:03Z</time>
      </trkpt>
      <trkpt lat="50.01662" lon="4.24941">
        <ele>289</ele>
        <time>2024-04-16T15:00:04Z</time>
      </trkpt>
      <trkpt lat="50.01659" lon="4.24951">
        <ele>289</ele>
        <time>2024-04-16T15:00:05Z</time>
      </trkpt>
      <trkpt lat="50.01655" lon="4.24961">
        <ele>289.2</ele>
        <time>2024-04-16T15:00:06Z</time>
      </trkpt>
      <trkpt lat="50.01652" lon="4.24972">
        <ele>289.2</ele>
        <time>2024-04-16T15:00:07Z</time>
      </trkpt>
      <trkpt lat="50.01649" lon="4.24983">
        <ele>289.2</ele>
        <time>2024-04-16T15:00:08Z</time>
      </trkpt>
      <trkpt lat="50.01646" lon="4.24994">
        <ele>289</ele>
        <time>2024-04-16T15:00:09Z</time>
      </trkpt>
      <trkpt lat="50.01644" lon="4.25005">
        <ele>289</ele>
        <time>2024-04-16T15:00:10Z</time>
      </trkpt>
      <trkpt lat="50.01641" lon="4.25016">
        <ele>288.8</ele>
        <time>2024-04-16T15:00:11Z</time>
      </trkpt>
      <trkpt lat="50.01639" lon="4.25028">
        <ele>288.6</ele>
        <time>2024-04-16T15:00:12Z</time>
      </trkpt>
      <trkpt lat="50.01636" lon="4.25039">
        <ele>288.4</ele>
        <time>2024-04-16T15:00:13Z</time>
      </trkpt>
      <trkpt lat="50.01634" lon="4.2505">
        <ele>288</ele>
        <time>2024-04-16T15:00:14Z</time>
      </trkpt>
      <trkpt lat="50.01631" lon="4.25062">
        <ele>287.8</ele>
        <time>2024-04-16T15:00:15Z</time>
      </trkpt>
      <trkpt lat="50.01629" lon="4.25073">
        <ele>287.6</ele>
        <time>2024-04-16T15:00:16Z</time>
      </trkpt>
      <trkpt lat="50.01626" lon="4.25084">
        <ele>287.4</ele>
        <time>2024-04-16T15:00:17Z</time>
      </trkpt>
      <trkpt lat="50.01624" lon="4.25096">
        <ele>287.2</ele>
        <time>2024-04-16T15:00:18Z</time>
      </trkpt>
      <trkpt lat="50.01621" lon="4.25108">
        <ele>287</ele>
        <time>2024-04-16T15:00:19Z</time>
      </trkpt>
      <trkpt lat="50.01618" lon="4.25119">
        <ele>286.8</ele>
        <time>2024-04-16T15:00:20Z</time>
      </trkpt>
      <trkpt lat="50.01616" lon="4.25131">
        <ele>286.6</ele>
        <time>2024-04-16T15:00:21Z</time>
      </trkpt>
      <trkpt lat="50.01613" lon="4.25143">
        <ele>286.6</ele>
        <time>2024-04-16T15:00:22Z</time>
      </trkpt>
      <trkpt lat="50.01611" lon="4.25155">
        <ele>286.6</ele>
        <time>2024-04-16T15:00:23Z</time>
      </trkpt>
      <trkpt lat="50.01609" lon="4.25167">
        <ele>286.2</ele>
        <time>2024-04-16T15:00:24Z</time>
      </trkpt>
      <trkpt lat="50.01606" lon="4.25179">
        <ele>286.2</ele>
        <time>2024-04-16T15:00:25Z</time>
      </trkpt>
      <trkpt lat="50.01603" lon="4.25191">
        <ele>286.2</ele>
        <time>2024-04-16T15:00:26Z</time>
      </trkpt>
      <trkpt lat="50.016" lon="4.25204">
        <ele>285.8</ele>
        <time>2024-04-16T15:00:27Z</time>
      </trkpt>
      <trkpt lat="50.01597" lon="4.25216">
        <ele>285.8</ele>
        <time>2024-04-16T15:00:28Z</time>
      </trkpt>
      <trkpt lat="50.01595" lon="4.25228">
        <ele>285.6</ele>
        <time>2024-04-16T15:00:29Z</time>
      </trkpt>
      <trkpt lat="50.01592" lon="4.25241">
        <ele>285.2</ele>
        <time>2024-04-16T15:00:30Z</time>
      </trkpt>
      <trkpt lat="50.0159" lon="4.25254">
        <ele>285.2</ele>
        <time>2024-04-16T15:00:31Z</time>
      </trkpt>
      <trkpt lat="50.01587" lon="4.25267">
        <ele>285</ele>
        <time>2024-04-16T15:00:32Z</time>
      </trkpt>
      <trkpt lat="50.01584" lon="4.2528">
        <ele>284.4</ele>
        <time>2024-04-16T15:00:33Z</time>
      </trkpt>
      <trkpt lat="50.01581" lon="4.25293">
        <ele>284</ele>
        <time>2024-04-16T15:00:34Z</time>
      </trkpt>
      <trkpt lat="50.01578" lon="4.25306">
        <ele>283.8</ele>
        <time>2024-04-16T15:00:35Z</time>
      </trkpt>
      <trkpt lat="50.01575" lon="4.25319">
        <ele>283.4</ele>
        <time>2024-04-16T15:00:36Z</time>
      </trkpt>
      <trkpt lat="50.01573" lon="4.25332">
        <ele>283.2</ele>
        <time>2024-04-16T15:00:37Z</time>
      </trkpt>
      <trkpt lat="50.0157" lon="4.25346">
        <ele>283.2</ele>
        <time>2024-04-16T15:00:38Z</time>
      </trkpt>
      <trkpt lat="50.01566" lon="4.25358">
        <ele>283</ele>
        <time>2024-04-16T15:00:39Z</time>
      </trkpt>
      <trkpt lat="50.01563" lon="4.2537">
        <ele>282.8</ele>
        <time>2024-04-16T15:00:40Z</time>
      </trkpt>
      <trkpt lat="50.01561" lon="4.25381">
        <ele>282.4</ele>
        <time>2024-04-16T15:00:41Z</time>
      </trkpt>
      <trkpt lat="50.01558" lon="4.25392">
        <ele>282.2</ele>
        <time>2024-04-16T15:00:42Z</time>
      </trkpt>
      <trkpt lat="50.01556" lon="4.25402">
        <ele>281.6</ele>
        <time>2024-04-16T15:00:43Z</time>
      </trkpt>
      <trkpt lat="50.01554" lon="4.25411">
        <ele>281.2</ele>
        <time>2024-04-16T15:00:44Z</time>
      </trkpt>
      <trkpt lat="50.01554" lon="4.25419">
        <ele>280.8</ele>
        <time>2024-04-16T15:00:45Z</time>
      </trkpt>
      <trkpt lat="50.01555" lon="4.25428">
        <ele>280.6</ele>
        <time>2024-04-16T15:00:46Z</time>
      </trkpt>
      <trkpt lat="50.01558" lon="4.25436">
        <ele>280.6</ele>
        <time>2024-04-16T15:00:47Z</time>
      </trkpt>
      <trkpt lat="50.01562" lon="4.25443">
        <ele>280.4</ele>
        <time>2024-04-16T15:00:48Z</time>
      </trkpt>
      <trkpt lat="50.01566" lon="4.2545">
        <ele>280.2</ele>
        <time>2024-04-16T15:00:49Z</time>
      </trkpt>
      <trkpt lat="50.01572" lon="4.25457">
        <ele>280.2</ele>
        <time>2024-04-16T15:00:50Z</time>
      </trkpt>
      <trkpt lat="50.01577" lon="4.25464">
        <ele>280.2</ele>
        <time>2024-04-16T15:00:51Z</time>
      </trkpt>
      <trkpt lat="50.01581" lon="4.25473">
        <ele>280</ele>
        <time>2024-04-16T15:00:52Z</time>
      </trkpt>
      <trkpt lat="50.01584" lon="4.25482">
        <ele>279.6</ele>
        <time>2024-04-16T15:00:53Z</time>
      </trkpt>
      <trkpt lat="50.01586" lon="4.25493">
        <ele>279.2</ele>
        <time>2024-04-16T15:00:54Z</time>
      </trkpt>
      <trkpt lat="50.01585" lon="4.25504">
        <ele>279.2</ele>
        <time>2024-04-16T15:00:55Z</time>
      </trkpt>
      <trkpt lat="50.01583" lon="4.25514">
        <ele>278.8</ele>
        <time>2024-04-16T15:00:56Z</time>
      </trkpt>
      <trkpt lat="50.01581" lon="4.25524">
        <ele>278.4</ele>
        <time>2024-04-16T15:00:57Z</time>
      </trkpt>
      <trkpt lat="50.01578" lon="4.25535">
        <ele>278.4</ele>
        <time>2024-04-16T15:00:58Z</time>
      </trkpt>
      <trkpt lat="50.01576" lon="4.25545">
        <ele>278.2</ele>
        <time>2024-04-16T15:00:59Z</time>
      </trkpt>
      <trkpt lat="50.01573" lon="4.25556">
        <ele>278.2</ele>
        <time>2024-04-16T15:01:00Z</time>
      </trkpt>
      <trkpt lat="50.0157" lon="4.25566">
        <ele>278</ele>
        <time>2024-04-16T15:01:01Z</time>
      </trkpt>
      <trkpt lat="50.01567" lon="4.25577">
        <ele>277.6</ele>
        <time>2024-04-16T15:01:02Z</time>
      </trkpt>
      <trkpt lat="50.01564" lon="4.25588">
        <ele>277.8</ele>
        <time>2024-04-16T15:01:03Z</time>
      </trkpt>
      <trkpt lat="50.01561" lon="4.25598">
        <ele>277.6</ele>
        <time>2024-04-16T15:01:04Z</time>
      </trkpt>
      <trkpt lat="50.01559" lon="4.25607">
        <ele>277.6</ele>
        <time>2024-04-16T15:01:05Z</time>
      </trkpt>
      <trkpt lat="50.01556" lon="4.25614">
        <ele>277.2</ele>
        <time>2024-04-16T15:01:06Z</time>
      </trkpt>
      <trkpt lat="50.01552" lon="4.2562">
        <ele>277</ele>
        <time>2024-04-16T15:01:07Z</time>
      </trkpt>
      <trkpt lat="50.01547" lon="4.25624">
        <ele>276.8</ele>
        <time>2024-04-16T15:01:08Z</time>
      </trkpt>
      <trkpt lat="50.01541" lon="4.25626">
        <ele>276.6</ele>
        <time>2024-04-16T15:01:09Z</time>
      </trkpt>
      <trkpt lat="50.01535" lon="4.25626">
        <ele>276.2</ele>
        <time>2024-04-16T15:01:10Z</time>
      </trkpt>
      <trkpt lat="50.01529" lon="4.25629">
        <ele>275.2</ele>
        <time>2024-04-16T15:01:11Z</time>
      </trkpt>
      <trkpt lat="50.01524" lon="4.25634">
        <ele>274.6</ele>
        <time>2024-04-16T15:01:12Z</time>
      </trkpt>
      <trkpt lat="50.01519" lon="4.25641">
        <ele>274.6</ele>
        <time>2024-04-16T15:01:13Z</time>
      </trkpt>
      <trkpt lat="50.01515" lon="4.2565">
        <ele>274.2</ele>
        <time>2024-04-16T15:01:14Z</time>
      </trkpt>
      <trkpt lat="50.0151" lon="4.2566">
        <ele>274</ele>
        <time>2024-04-16T15:01:15Z</time>
      </trkpt>
      <trkpt lat="50.01505" lon="4.2567">
        <ele>273.8</ele>
        <time>2024-04-16T15:01:16Z</time>
      </trkpt>
      <trkpt lat="50.015" lon="4.25681">
        <ele>273.6</ele>
        <time>2024-04-16T15:01:17Z</time>
      </trkpt>
      <trkpt lat="50.01495" lon="4.25692">
        <ele>273.2</ele>
        <time>2024-04-16T15:01:18Z</time>
      </trkpt>
      <trkpt lat="50.0149" lon="4.25703">
        <ele>273</ele>
        <time>2024-04-16T15:01:19Z</time>
      </trkpt>
      <trkpt lat="50.01484" lon="4.25714">
        <ele>273</ele>
        <time>2024-04-16T15:01:20Z</time>
      </trkpt>
      <trkpt lat="50.01479" lon="4.25725">
        <ele>272.8</ele>
        <time>2024-04-16T15:01:21Z</time>
      </trkpt>
      <trkpt lat="50.01474" lon="4.25737">
        <ele>272.6</ele>
        <time>2024-04-16T15:01:22Z</time>
      </trkpt>
      <trkpt lat="50.0147" lon="4.25749">
        <ele>272.4</ele>
        <time>2024-04-16T15:01:23Z</time>
      </trkpt>
      <trkpt lat="50.01466" lon="4.25761">
        <ele>271.4</ele>
        <time>2024-04-16T15:01:24Z</time>
      </trkpt>
      <trkpt lat="50.01463" lon="4.25773">
        <ele>270.6</ele>
        <time>2024-04-16T15:01:25Z</time>
      </trkpt>
      <trkpt lat="50.0146" lon="4.25785">
        <ele>269.4</ele>
        <time>2024-04-16T15:01:26Z</time>
      </trkpt>
      <trkpt lat="50.01458" lon="4.25796">
        <ele>268.8</ele>
        <time>2024-04-16T15:01:27Z</time>
      </trkpt>
      <trkpt lat="50.01455" lon="4.25808">
        <ele>268.4</ele>
        <time>2024-04-16T15:01:28Z</time>
      </trkpt>
      <trkpt lat="50.01454" lon="4.25819">
        <ele>268.2</ele>
        <time>2024-04-16T15:01:29Z</time>
      </trkpt>
      <trkpt lat="50.01452" lon="4.2583">
        <ele>268.2</ele>
        <time>2024-04-16T15:01:30Z</time>
      </trkpt>
      <trkpt lat="50.01452" lon="4.25841">
        <ele>268</ele>
        <time>2024-04-16T15:01:31Z</time>
      </trkpt>
      <trkpt lat="50.01451" lon="4.25851">
        <ele>268.2</ele>
        <time>2024-04-16T15:01:32Z</time>
      </trkpt>
      <trkpt lat="50.01451" lon="4.25862">
        <ele>268</ele>
        <time>2024-04-16T15:01:33Z</time>
      </trkpt>
      <trkpt lat="50.0145" lon="4.25872">
        <ele>268.2</ele>
        <time>2024-04-16T15:01:34Z</time>
      </trkpt>
      <trkpt lat="50.0145" lon="4.25883">
        <ele>268.2</ele>
        <time>2024-04-16T15:01:35Z</time>
      </trkpt>
      <trkpt lat="50.0145" lon="4.25893">
        <ele>268</ele>
        <time>2024-04-16T15:01:36Z</time>
      </trkpt>
      <trkpt lat="50.01449" lon="4.25904">
        <ele>268.2</ele>
        <time>2024-04-16T15:01:37Z</time>
      </trkpt>
      <trkpt lat="50.01449" lon="4.25914">
        <ele>268.2</ele>
        <time>2024-04-16T15:01:38Z</time>
      </trkpt>
      <trkpt lat="50.01448" lon="4.25925">
        <ele>268.4</ele>
        <time>2024-04-16T15:01:39Z</time>
      </trkpt>
      <trkpt lat="50.01448" lon="4.25935">
        <ele>268.8</ele>
        <time>2024-04-16T15:01:40Z</time>
      </trkpt>
      <trkpt lat="50.01447" lon="4.25945">
        <ele>269.4</ele>
        <time>2024-04-16T15:01:41Z</time>
      </trkpt>
      <trkpt lat="50.01445" lon="4.25955">
        <ele>269.4</ele>
        <time>2024-04-16T15:01:42Z</time>
      </trkpt>
      <trkpt lat="50.01444" lon="4.25965">
        <ele>269.8</ele>
        <time>2024-04-16T15:01:43Z</time>
      </trkpt>
      <trkpt lat="50.01442" lon="4.25975">
        <ele>269.8</ele>
        <time>2024-04-16T15:01:44Z</time>
      </trkpt>
      <trkpt lat="50.0144" lon="4.25985">
        <ele>270</ele>
        <time>2024-04-16T15:01:45Z</time>
      </trkpt>
      <trkpt lat="50.01437" lon="4.25995">
        <ele>270</ele>
        <time>2024-04-16T15:01:46Z</time>
      </trkpt>
      <trkpt lat="50.01435" lon="4.26004">
        <ele>270.2</ele>
        <time>2024-04-16T15:01:47Z</time>
      </trkpt>
      <trkpt lat="50.01431" lon="4.26013">
        <ele>270.2</ele>
        <time>2024-04-16T15:01:48Z</time>
      </trkpt>
      <trkpt lat="50.01428" lon="4.26022">
        <ele>270.4</ele>
        <time>2024-04-16T15:01:49Z</time>
      </trkpt>
      <trkpt lat="50.01425" lon="4.26031">
        <ele>270.6</ele>
        <time>2024-04-16T15:01:50Z</time>
      </trkpt>
      <trkpt lat="50.01422" lon="4.2604">
        <ele>270.6</ele>
        <time>2024-04-16T15:01:51Z</time>
      </trkpt>
      <trkpt lat="50.01418" lon="4.26049">
        <ele>270.6</ele>
        <time>2024-04-16T15:01:52Z</time>
      </trkpt>
      <trkpt lat="50.01415" lon="4.26058">
        <ele>270.8</ele>
        <time>2024-04-16T15:01:53Z</time>
      </trkpt>
      <trkpt lat="50.01412" lon="4.26067">
        <ele>271</ele>
        <time>2024-04-16T15:01:54Z</time>
      </trkpt>
      <trkpt lat="50.01409" lon="4.26075">
        <ele>271.4</ele>
        <time>2024-04-16T15:01:55Z</time>
      </trkpt>
      <trkpt lat="50.01405" lon="4.26084">
        <ele>271.4</ele>
        <time>2024-04-16T15:01:56Z</time>
      </trkpt>
      <trkpt lat="50.01402" lon="4.26093">
        <ele>271.4</ele>
        <time>2024-04-16T15:01:57Z</time>
      </trkpt>
      <trkpt lat="50.01399" lon="4.26102">
        <ele>271.8</ele>
        <time>2024-04-16T15:01:58Z</time>
      </trkpt>
      <trkpt lat="50.01395" lon="4.26111">
        <ele>271.8</ele>
        <time>2024-04-16T15:01:59Z</time>
      </trkpt>
      <trkpt lat="50.01392" lon="4.2612">
        <ele>272</ele>
        <time>2024-04-16T15:02:00Z</time>
      </trkpt>
      <trkpt lat="50.01388" lon="4.26129">
        <ele>272.2</ele>
        <time>2024-04-16T15:02:01Z</time>
      </trkpt>
      <trkpt lat="50.01384" lon="4.26139">
        <ele>272.4</ele>
        <time>2024-04-16T15:02:02Z</time>
      </trkpt>
      <trkpt lat="50.01381" lon="4.26148">
        <ele>272.4</ele>
        <time>2024-04-16T15:02:03Z</time>
      </trkpt>
      <trkpt lat="50.01377" lon="4.26158">
        <ele>272.4</ele>
        <time>2024-04-16T15:02:04Z</time>
      </trkpt>
      <trkpt lat="50.01373" lon="4.26168">
        <ele>272.2</ele>
        <time>2024-04-16T15:02:05Z</time>
      </trkpt>
      <trkpt lat="50.01369" lon="4.26178">
        <ele>272.4</ele>
        <time>2024-04-16T15:02:06Z</time>
      </trkpt>
      <trkpt lat="50.01366" lon="4.26189">
        <ele>272.4</ele>
        <time>2024-04-16T15:02:07Z</time>
      </trkpt>
      <trkpt lat="50.01362" lon="4.26199">
        <ele>272.4</ele>
        <time>2024-04-16T15:02:08Z</time>
      </trkpt>
      <trkpt lat="50.01358" lon="4.26209">
        <ele>272.4</ele>
        <time>2024-04-16T15:02:09Z</time>
      </trkpt>
      <trkpt lat="50.01354" lon="4.26219">
        <ele>272.2</ele>
        <time>2024-04-16T15:02:10Z</time>
      </trkpt>
      <trkpt lat="50.0135" lon="4.2623">
        <ele>272.2</ele>
        <time>2024-04-16T15:02:11Z</time>
      </trkpt>
      <trkpt lat="50.01346" lon="4.2624">
        <ele>272.2</ele>
        <time>2024-04-16T15:02:12Z</time>
      </trkpt>
      <trkpt lat="50.01343" lon="4.26251">
        <ele>272</ele>
        <time>2024-04-16T15:02:13Z</time>
      </trkpt>
      <trkpt lat="50.01339" lon="4.26261">
        <ele>272</ele>
        <time>2024-04-16T15:02:14Z</time>
      </trkpt>
      <trkpt lat="50.01335" lon="4.26271">
        <ele>271.8</ele>
        <time>2024-04-16T15:02:15Z</time>
      </trkpt>
      <trkpt lat="50.01331" lon="4.26282">
        <ele>271.8</ele>
        <time>2024-04-16T15:02:16Z</time>
      </trkpt>
      <trkpt lat="50.01327" lon="4.26293">
        <ele>271.4</ele>
        <time>2024-04-16T15:02:17Z</time>
      </trkpt>
      <trkpt lat="50.01324" lon="4.26304">
        <ele>271.2</ele>
        <time>2024-04-16T15:02:18Z</time>
      </trkpt>
      <trkpt lat="50.01321" lon="4.26315">
        <ele>271.2</ele>
        <time>2024-04-16T15:02:19Z</time>
      </trkpt>
      <trkpt lat="50.01318" lon="4.26326">
        <ele>271</ele>
        <time>2024-04-16T15:02:20Z</time>
      </trkpt>
      <trkpt lat="50.01315" lon="4.26337">
        <ele>271.2</ele>
        <time>2024-04-16T15:02:21Z</time>
      </trkpt>
      <trkpt lat="50.01312" lon="4.26349">
        <ele>270.8</ele>
        <time>2024-04-16T15:02:22Z</time>
      </trkpt>
      <trkpt lat="50.0131" lon="4.26361">
        <ele>271</ele>
        <time>2024-04-16T15:02:23Z</time>
      </trkpt>
      <trkpt lat="50.01307" lon="4.26372">
        <ele>270.8</ele>
        <time>2024-04-16T15:02:24Z</time>
      </trkpt>
      <trkpt lat="50.01305" lon="4.26384">
        <ele>270.8</ele>
        <time>2024-04-16T15:02:25Z</time>
      </trkpt>
      <trkpt lat="50.01303" lon="4.26396">
        <ele>270.6</ele>
        <time>2024-04-16T15:02:26Z</time>
      </trkpt>
      <trkpt lat="50.01302" lon="4.26408">
        <ele>270.8</ele>
        <time>2024-04-16T15:02:27Z</time>
      </trkpt>
      <trkpt lat="50.013" lon="4.2642">
        <ele>270.6</ele>
        <time>2024-04-16T15:02:28Z</time>
      </trkpt>
      <trkpt lat="50.01299" lon="4.26432">
        <ele>270.6</ele>
        <time>2024-04-16T15:02:29Z</time>
      </trkpt>
      <trkpt lat="50.01297" lon="4.26444">
        <ele>270.6</ele>
        <time>2024-04-16T15:02:30Z</time>
      </trkpt>
      <trkpt lat="50.01296" lon="4.26455">
        <ele>270.4</ele>
        <time>2024-04-16T15:02:31Z</time>
      </trkpt>
      <trkpt lat="50.01294" lon="4.26466">
        <ele>270.2</ele>
        <time>2024-04-16T15:02:32Z</time>
      </trkpt>
      <trkpt lat="50.01293" lon="4.26477">
        <ele>270.4</ele>
        <time>2024-04-16T15:02:33Z</time>
      </trkpt>
      <trkpt lat="50.01291" lon="4.26488">
        <ele>270.2</ele>
        <time>2024-04-16T15:02:34Z</time>
      </trkpt>
      <trkpt lat="50.0129" lon="4.26498">
        <ele>270</ele>
        <time>2024-04-16T15:02:35Z</time>
      </trkpt>
      <trkpt lat="50.01288" lon="4.26507">
        <ele>270</ele>
        <time>2024-04-16T15:02:36Z</time>
      </trkpt>
      <trkpt lat="50.01287" lon="4.26517">
        <ele>270.2</ele>
        <time>2024-04-16T15:02:37Z</time>
      </trkpt>
      <trkpt lat="50.01285" lon="4.26526">
        <ele>270</ele>
        <time>2024-04-16T15:02:38Z</time>
      </trkpt>
      <trkpt lat="50.01283" lon="4.26535">
        <ele>270</ele>
        <time>2024-04-16T15:02:39Z</time>
      </trkpt>
      <trkpt lat="50.01281" lon="4.26544">
        <ele>270</ele>
        <time>2024-04-16T15:02:40Z</time>
      </trkpt>
      <trkpt lat="50.01278" lon="4.26553">
        <ele>270</ele>
        <time>2024-04-16T15:02:41Z</time>
      </trkpt>
      <trkpt lat="50.01276" lon="4.26561">
        <ele>270.2</ele>
        <time>2024-04-16T15:02:42Z</time>
      </trkpt>
      <trkpt lat="50.01273" lon="4.26569">
        <ele>270.2</ele>
        <time>2024-04-16T15:02:43Z</time>
      </trkpt>
      <trkpt lat="50.01271" lon="4.26577">
        <ele>270.2</ele>
        <time>2024-04-16T15:02:44Z</time>
      </trkpt>
      <trkpt lat="50.01268" lon="4.26585">
        <ele>270.4</ele>
        <time>2024-04-16T15:02:45Z</time>
      </trkpt>
      <trkpt lat="50.01265" lon="4.26593">
        <ele>270.8</ele>
        <time>2024-04-16T15:02:46Z</time>
      </trkpt>
      <trkpt lat="50.01262" lon="4.266">
        <ele>271.4</ele>
        <time>2024-04-16T15:02:47Z</time>
      </trkpt>
      <trkpt lat="50.01259" lon="4.26608">
        <ele>271.6</ele>
        <time>2024-04-16T15:02:48Z</time>
      </trkpt>
      <trkpt lat="50.01256" lon="4.26615">
        <ele>272</ele>
        <time>2024-04-16T15:02:49Z</time>
      </trkpt>
      <trkpt lat="50.01253" lon="4.26622">
        <ele>272</ele>
        <time>2024-04-16T15:02:50Z</time>
      </trkpt>
      <trkpt lat="50.01251" lon="4.26629">
        <ele>272.4</ele>
        <time>2024-04-16T15:02:51Z</time>
      </trkpt>
      <trkpt lat="50.01247" lon="4.26637">
        <ele>272.6</ele>
        <time>2024-04-16T15:02:52Z</time>
      </trkpt>
      <trkpt lat="50.01244" lon="4.26644">
        <ele>273.2</ele>
        <time>2024-04-16T15:02:53Z</time>
      </trkpt>
      <trkpt lat="50.01242" lon="4.26651">
        <ele>273.4</ele>
        <time>2024-04-16T15:02:54Z</time>
      </trkpt>
      <trkpt lat="50.01239" lon="4.26658">
        <ele>274.4</ele>
        <time>2024-04-16T15:02:55Z</time>
      </trkpt>
      <trkpt lat="50.01236" lon="4.26666">
        <ele>275</ele>
        <time>2024-04-16T15:02:56Z</time>
      </trkpt>
      <trkpt lat="50.01233" lon="4.26673">
        <ele>275.6</ele>
        <time>2024-04-16T15:02:57Z</time>
      </trkpt>
      <trkpt lat="50.0123" lon="4.2668">
        <ele>276</ele>
        <time>2024-04-16T15:02:58Z</time>
      </trkpt>
      <trkpt lat="50.01227" lon="4.26687">
        <ele>276.4</ele>
        <time>2024-04-16T15:02:59Z</time>
      </trkpt>
      <trkpt lat="50.01224" lon="4.26695">
        <ele>276.8</ele>
        <time>2024-04-16T15:03:00Z</time>
      </trkpt>
      <trkpt lat="50.01221" lon="4.26702">
        <ele>276.8</ele>
        <time>2024-04-16T15:03:01Z</time>
      </trkpt>
      <trkpt lat="50.01218" lon="4.26709">
        <ele>277</ele>
        <time>2024-04-16T15:03:02Z</time>
      </trkpt>
      <trkpt lat="50.01215" lon="4.26717">
        <ele>277</ele>
        <time>2024-04-16T15:03:03Z</time>
      </trkpt>
      <trkpt lat="50.01212" lon="4.26724">
        <ele>277.2</ele>
        <time>2024-04-16T15:03:04Z</time>
      </trkpt>
      <trkpt lat="50.01209" lon="4.26731">
        <ele>277.6</ele>
        <time>2024-04-16T15:03:05Z</time>
      </trkpt>
      <trkpt lat="50.01206" lon="4.26739">
        <ele>277.8</ele>
        <time>2024-04-16T15:03:06Z</time>
      </trkpt>
      <trkpt lat="50.01203" lon="4.26746">
        <ele>278</ele>
        <time>2024-04-16T15:03:07Z</time>
      </trkpt>
      <trkpt lat="50.012" lon="4.26754">
        <ele>278.4</ele>
        <time>2024-04-16T15:03:08Z</time>
      </trkpt>
      <trkpt lat="50.01196" lon="4.26761">
        <ele>278.8</ele>
        <time>2024-04-16T15:03:09Z</time>
      </trkpt>
      <trkpt lat="50.01193" lon="4.26769">
        <ele>279.2</ele>
        <time>2024-04-16T15:03:10Z</time>
      </trkpt>
      <trkpt lat="50.0119" lon="4.26776">
        <ele>279.4</ele>
        <time>2024-04-16T15:03:11Z</time>
      </trkpt>
      <trkpt lat="50.01187" lon="4.26784">
        <ele>279.8</ele>
        <time>2024-04-16T15:03:12Z</time>
      </trkpt>
      <trkpt lat="50.01184" lon="4.26791">
        <ele>279.6</ele>
        <time>2024-04-16T15:03:13Z</time>
      </trkpt>
      <trkpt lat="50.01181" lon="4.26799">
        <ele>280</ele>
        <time>2024-04-16T15:03:14Z</time>
      </trkpt>
      <trkpt lat="50.01178" lon="4.26806">
        <ele>280.2</ele>
        <time>2024-04-16T15:03:15Z</time>
      </trkpt>
      <trkpt lat="50.01175" lon="4.26813">
        <ele>280.2</ele>
        <time>2024-04-16T15:03:16Z</time>
      </trkpt>
      <trkpt lat="50.01172" lon="4.26821">
        <ele>280</ele>
        <time>2024-04-16T15:03:17Z</time>
      </trkpt>
      <trkpt lat="50.01169" lon="4.26828">
        <ele>280.4</ele>
        <time>2024-04-16T15:03:18Z</time>
      </trkpt>
      <trkpt lat="50.01166" lon="4.26836">
        <ele>281</ele>
        <time>2024-04-16T15:03:19Z</time>
      </trkpt>
      <trkpt lat="50.01163" lon="4.26843">
        <ele>281.4</ele>
        <time>2024-04-16T15:03:20Z</time>
      </trkpt>
      <trkpt lat="50.0116" lon="4.26851">
        <ele>281.6</ele>
        <time>2024-04-16T15:03:21Z</time>
      </trkpt>
      <trkpt lat="50.01156" lon="4.26859">
        <ele>281.8</ele>
        <time>2024-04-16T15:03:22Z</time>
      </trkpt>
      <trkpt lat="50.01153" lon="4.26866">
        <ele>282.2</ele>
        <time>2024-04-16T15:03:23Z</time>
      </trkpt>
      <trkpt lat="50.0115" lon="4.26874">
        <ele>282.2</ele>
        <time>2024-04-16T15:03:24Z</time>
      </trkpt>
      <trkpt lat="50.01147" lon="4.26882">
        <ele>282.2</ele>
        <time>2024-04-16T15:03:25Z</time>
      </trkpt>
      <trkpt lat="50.01144" lon="4.2689">
        <ele>282.6</ele>
        <time>2024-04-16T15:03:26Z</time>
      </trkpt>
      <trkpt lat="50.0114" lon="4.26899">
        <ele>283</ele>
        <time>2024-04-16T15:03:27Z</time>
      </trkpt>
      <trkpt lat="50.01137" lon="4.26907">
        <ele>283.4</ele>
        <time>2024-04-16T15:03:28Z</time>
      </trkpt>
      <trkpt lat="50.01133" lon="4.26916">
        <ele>283.4</ele>
        <time>2024-04-16T15:03:29Z</time>
      </trkpt>
      <trkpt lat="50.0113" lon="4.26924">
        <ele>283.8</ele>
        <time>2024-04-16T15:03:30Z</time>
      </trkpt>
      <trkpt lat="50.01126" lon="4.26933">
        <ele>284</ele>
        <time>2024-04-16T15:03:31Z</time>
      </trkpt>
      <trkpt lat="50.01123" lon="4.26942">
        <ele>284.2</ele>
        <time>2024-04-16T15:03:32Z</time>
      </trkpt>
      <trkpt lat="50.01119" lon="4.26951">
        <ele>284.4</ele>
        <time>2024-04-16T15:03:33Z</time>
      </trkpt>
      <trkpt lat="50.01115" lon="4.2696">
        <ele>284.4</ele>
        <time>2024-04-16T15:03:34Z</time>
      </trkpt>
      <trkpt lat="50.01111" lon="4.26969">
        <ele>284.4</ele>
        <time>2024-04-16T15:03:35Z</time>
      </trkpt>
      <trkpt lat="50.01108" lon="4.26977">
        <ele>284.4</ele>
        <time>2024-04-16T15:03:36Z</time>
      </trkpt>
      <trkpt lat="50.01104" lon="4.26986">
        <ele>284.4</ele>
        <time>2024-04-16T15:03:37Z</time>
      </trkpt>
      <trkpt lat="50.01101" lon="4.26996">
        <ele>284.4</ele>
        <time>2024-04-16T15:03:38Z</time>
      </trkpt>
      <trkpt lat="50.01098" lon="4.27005">
        <ele>284.6</ele>
        <time>2024-04-16T15:03:39Z</time>
      </trkpt>
      <trkpt lat="50.01095" lon="4.27015">
        <ele>284.6</ele>
        <time>2024-04-16T15:03:40Z</time>
      </trkpt>
      <trkpt lat="50.01092" lon="4.27025">
        <ele>284.8</ele>
        <time>2024-04-16T15:03:41Z</time>
      </trkpt>
      <trkpt lat="50.01089" lon="4.27036">
        <ele>285</ele>
        <time>2024-04-16T15:03:42Z</time>
      </trkpt>
      <trkpt lat="50.01086" lon="4.27046">
        <ele>285.2</ele>
        <time>2024-04-16T15:03:43Z</time>
      </trkpt>
      <trkpt lat="50.01084" lon="4.27057">
        <ele>285.4</ele>
        <time>2024-04-16T15:03:44Z</time>
      </trkpt>
      <trkpt lat="50.01081" lon="4.27068">
        <ele>285.4</ele>
        <time>2024-04-16T15:03:45Z</time>
      </trkpt>
      <trkpt lat="50.0108" lon="4.27079">
        <ele>285.4</ele>
        <time>2024-04-16T15:03:46Z</time>
      </trkpt>
      <trkpt lat="50.01078" lon="4.2709">
        <ele>285.6</ele>
        <time>2024-04-16T15:03:47Z</time>
      </trkpt>
      <trkpt lat="50.01077" lon="4.27101">
        <ele>285.4</ele>
        <time>2024-04-16T15:03:48Z</time>
      </trkpt>
      <trkpt lat="50.01075" lon="4.27112">
        <ele>285.6</ele>
        <time>2024-04-16T15:03:49Z</time>
      </trkpt>
      <trkpt lat="50.01075" lon="4.27124">
        <ele>285.4</ele>
        <time>2024-04-16T15:03:50Z</time>
      </trkpt>
      <trkpt lat="50.01074" lon="4.27135">
        <ele>285.6</ele>
        <time>2024-04-16T15:03:51Z</time>
      </trkpt>
      <trkpt lat="50.01074" lon="4.27147">
        <ele>285.4</ele>
        <time>2024-04-16T15:03:52Z</time>
      </trkpt>
      <trkpt lat="50.01074" lon="4.27159">
        <ele>285.6</ele>
        <time>2024-04-16T15:03:53Z</time>
      </trkpt>
      <trkpt lat="50.01074" lon="4.27172">
        <ele>285.4</ele>
        <time>2024-04-16T15:03:54Z</time>
      </trkpt>
      <trkpt lat="50.01075" lon="4.27184">
        <ele>284.8</ele>
        <time>2024-04-16T15:03:55Z</time>
      </trkpt>
      <trkpt lat="50.01076" lon="4.27197">
        <ele>284.8</ele>
        <time>2024-04-16T15:03:56Z</time>
      </trkpt>
      <trkpt lat="50.01077" lon="4.27211">
        <ele>284.2</ele>
        <time>2024-04-16T15:03:57Z</time>
      </trkpt>
      <trkpt lat="50.01078" lon="4.27224">
        <ele>284</ele>
        <time>2024-04-16T15:03:58Z</time>
      </trkpt>
      <trkpt lat="50.0108" lon="4.27237">
        <ele>283.8</ele>
        <time>2024-04-16T15:03:59Z</time>
      </trkpt>
      <trkpt lat="50.01083" lon="4.2725">
        <ele>283.4</ele>
        <time>2024-04-16T15:04:00Z</time>
      </trkpt>
      <trkpt lat="50.01085" lon="4.27264">
        <ele>282.8</ele>
        <time>2024-04-16T15:04:01Z</time>
      </trkpt>
      <trkpt lat="50.01088" lon="4.27277">
        <ele>282.6</ele>
        <time>2024-04-16T15:04:02Z</time>
      </trkpt>
      <trkpt lat="50.01091" lon="4.2729">
        <ele>282.2</ele>
        <time>2024-04-16T15:04:03Z</time>
      </trkpt>
      <trkpt lat="50.01094" lon="4.27303">
        <ele>281.6</ele>
        <time>2024-04-16T15:04:04Z</time>
      </trkpt>
      <trkpt lat="50.01096" lon="4.27317">
        <ele>280.8</ele>
        <time>2024-04-16T15:04:05Z</time>
      </trkpt>
      <trkpt lat="50.01099" lon="4.27331">
        <ele>280.2</ele>
        <time>2024-04-16T15:04:06Z</time>
      </trkpt>
      <trkpt lat="50.01102" lon="4.27344">
        <ele>280.2</ele>
        <time>2024-04-16T15:04:07Z</time>
      </trkpt>
      <trkpt lat="50.01105" lon="4.27358">
        <ele>279.8</ele>
        <time>2024-04-16T15:04:08Z</time>
      </trkpt>
      <trkpt lat="50.01108" lon="4.27371">
        <ele>279</ele>
        <time>2024-04-16T15:04:09Z</time>
      </trkpt>
      <trkpt lat="50.01111" lon="4.27384">
        <ele>278.8</ele>
        <time>2024-04-16T15:04:10Z</time>
      </trkpt>
      <trkpt lat="50.01113" lon="4.27396">
        <ele>278.2</ele>
        <time>2024-04-16T15:04:11Z</time>
      </trkpt>
      <trkpt lat="50.01116" lon="4.27408">
        <ele>277.4</ele>
        <time>2024-04-16T15:04:12Z</time>
      </trkpt>
      <trkpt lat="50.01119" lon="4.2742">
        <ele>277</ele>
        <time>2024-04-16T15:04:13Z</time>
      </trkpt>
      <trkpt lat="50.01121" lon="4.27431">
        <ele>276.8</ele>
        <time>2024-04-16T15:04:14Z</time>
      </trkpt>
      <trkpt lat="50.01124" lon="4.27443">
        <ele>276.6</ele>
        <time>2024-04-16T15:04:15Z</time>
      </trkpt>
      <trkpt lat="50.01126" lon="4.27454">
        <ele>276.4</ele>
        <time>2024-04-16T15:04:16Z</time>
      </trkpt>
      <trkpt lat="50.01128" lon="4.27465">
        <ele>276.2</ele>
        <time>2024-04-16T15:04:17Z</time>
      </trkpt>
      <trkpt lat="50.01131" lon="4.27476">
        <ele>276.2</ele>
        <time>2024-04-16T15:04:18Z</time>
      </trkpt>
      <trkpt lat="50.01133" lon="4.27487">
        <ele>276.2</ele>
        <time>2024-04-16T15:04:19Z</time>
      </trkpt>
      <trkpt lat="50.01135" lon="4.27498">
        <ele>276.2</ele>
        <time>2024-04-16T15:04:20Z</time>
      </trkpt>
      <trkpt lat="50.01137" lon="4.27509">
        <ele>276</ele>
        <time>2024-04-16T15:04:21Z</time>
      </trkpt>
      <trkpt lat="50.01138" lon="4.27519">
        <ele>276</ele>
        <time>2024-04-16T15:04:22Z</time>
      </trkpt>
      <trkpt lat="50.01141" lon="4.27529">
        <ele>275.8</ele>
        <time>2024-04-16T15:04:23Z</time>
      </trkpt>
      <trkpt lat="50.01142" lon="4.27539">
        <ele>275.8</ele>
        <time>2024-04-16T15:04:24Z</time>
      </trkpt>
      <trkpt lat="50.01145" lon="4.27549">
        <ele>275.8</ele>
        <time>2024-04-16T15:04:25Z</time>
      </trkpt>
      <trkpt lat="50.01147" lon="4.27559">
        <ele>275.8</ele>
        <time>2024-04-16T15:04:26Z</time>
      </trkpt>
      <trkpt lat="50.01149" lon="4.27569">
        <ele>276</ele>
        <time>2024-04-16T15:04:27Z</time>
      </trkpt>
      <trkpt lat="50.01151" lon="4.27579">
        <ele>276</ele>
        <time>2024-04-16T15:04:28Z</time>
      </trkpt>
      <trkpt lat="50.01153" lon="4.27588">
        <ele>276</ele>
        <time>2024-04-16T15:04:29Z</time>
      </trkpt>
      <trkpt lat="50.01155" lon="4.27598">
        <ele>275.8</ele>
        <time>2024-04-16T15:04:30Z</time>
      </trkpt>
      <trkpt lat="50.01157" lon="4.27608">
        <ele>276</ele>
        <time>2024-04-16T15:04:31Z</time>
      </trkpt>
      <trkpt lat="50.01159" lon="4.27618">
        <ele>275.8</ele>
        <time>2024-04-16T15:04:32Z</time>
      </trkpt>
      <trkpt lat="50.01161" lon="4.27629">
        <ele>276</ele>
        <time>2024-04-16T15:04:33Z</time>
      </trkpt>
      <trkpt lat="50.01163" lon="4.27638">
        <ele>276</ele>
        <time>2024-04-16T15:04:34Z</time>
      </trkpt>
      <trkpt lat="50.01165" lon="4.27648">
        <ele>276</ele>
        <time>2024-04-16T15:04:35Z</time>
      </trkpt>
      <trkpt lat="50.01167" lon="4.27658">
        <ele>276</ele>
        <time>2024-04-16T15:04:36Z</time>
      </trkpt>
      <trkpt lat="50.01169" lon="4.27668">
        <ele>275.8</ele>
        <time>2024-04-16T15:04:37Z</time>
      </trkpt>
      <trkpt lat="50.01171" lon="4.27678">
        <ele>275.8</ele>
        <time>2024-04-16T15:04:38Z</time>
      </trkpt>
      <trkpt lat="50.01173" lon="4.27689">
        <ele>276</ele>
        <time>2024-04-16T15:04:39Z</time>
      </trkpt>
      <trkpt lat="50.01176" lon="4.27699">
        <ele>276</ele>
        <time>2024-04-16T15:04:40Z</time>
      </trkpt>
      <trkpt lat="50.01178" lon="4.27709">
        <ele>276</ele>
        <time>2024-04-16T15:04:41Z</time>
      </trkpt>
      <trkpt lat="50.0118" lon="4.27719">
        <ele>276</ele>
        <time>2024-04-16T15:04:42Z</time>
      </trkpt>
      <trkpt lat="50.01182" lon="4.27729">
        <ele>276</ele>
        <time>2024-04-16T15:04:43Z</time>
      </trkpt>
      <trkpt lat="50.01185" lon="4.2774">
        <ele>276.2</ele>
        <time>2024-04-16T15:04:44Z</time>
      </trkpt>
      <trkpt lat="50.01188" lon="4.2775">
        <ele>276</ele>
        <time>2024-04-16T15:04:45Z</time>
      </trkpt>
      <trkpt lat="50.01191" lon="4.27761">
        <ele>276</ele>
        <time>2024-04-16T15:04:46Z</time>
      </trkpt>
      <trkpt lat="50.01195" lon="4.27771">
        <ele>276.2</ele>
        <time>2024-04-16T15:04:47Z</time>
      </trkpt>
      <trkpt lat="50.01197" lon="4.27781">
        <ele>276.2</ele>
        <time>2024-04-16T15:04:48Z</time>
      </trkpt>
      <trkpt lat="50.01199" lon="4.27791">
        <ele>276.2</ele>
        <time>2024-04-16T15:04:49Z</time>
      </trkpt>
      <trkpt lat="50.01202" lon="4.27801">
        <ele>276.4</ele>
        <time>2024-04-16T15:04:50Z</time>
      </trkpt>
      <trkpt lat="50.01204" lon="4.27812">
        <ele>276.4</ele>
        <time>2024-04-16T15:04:51Z</time>
      </trkpt>
      <trkpt lat="50.01206" lon="4.27822">
        <ele>276.4</ele>
        <time>2024-04-16T15:04:52Z</time>
      </trkpt>
      <trkpt lat="50.01209" lon="4.27832">
        <ele>276.2</ele>
        <time>2024-04-16T15:04:53Z</time>
      </trkpt>
      <trkpt lat="50.01211" lon="4.27843">
        <ele>276.2</ele>
        <time>2024-04-16T15:04:54Z</time>
      </trkpt>
      <trkpt lat="50.01213" lon="4.27853">
        <ele>276.4</ele>
        <time>2024-04-16T15:04:55Z</time>
      </trkpt>
      <trkpt lat="50.01215" lon="4.27863">
        <ele>276.2</ele>
        <time>2024-04-16T15:04:56Z</time>
      </trkpt>
      <trkpt lat="50.01217" lon="4.27874">
        <ele>276.4</ele>
        <time>2024-04-16T15:04:57Z</time>
      </trkpt>
      <trkpt lat="50.01219" lon="4.27883">
        <ele>276.4</ele>
        <time>2024-04-16T15:04:58Z</time>
      </trkpt>
      <trkpt lat="50.01221" lon="4.27893">
        <ele>276.2</ele>
        <time>2024-04-16T15:04:59Z</time>
      </trkpt>
      <trkpt lat="50.01223" lon="4.27903">
        <ele>276.2</ele>
        <time>2024-04-16T15:05:00Z</time>
      </trkpt>
      <trkpt lat="50.01225" lon="4.27914">
        <ele>276</ele>
        <time>2024-04-16T15:05:01Z</time>
      </trkpt>
      <trkpt lat="50.01227" lon="4.27924">
        <ele>276</ele>
        <time>2024-04-16T15:05:02Z</time>
      </trkpt>
      <trkpt lat="50.01229" lon="4.27934">
        <ele>276</ele>
        <time>2024-04-16T15:05:03Z</time>
      </trkpt>
      <trkpt lat="50.01231" lon="4.27944">
        <ele>276</ele>
        <time>2024-04-16T15:05:04Z</time>
      </trkpt>
      <trkpt lat="50.01233" lon="4.27954">
        <ele>276</ele>
        <time>2024-04-16T15:05:05Z</time>
      </trkpt>
      <trkpt lat="50.01234" lon="4.27964">
        <ele>276</ele>
        <time>2024-04-16T15:05:06Z</time>
      </trkpt>
      <trkpt lat="50.01236" lon="4.27974">
        <ele>276</ele>
        <time>2024-04-16T15:05:07Z</time>
      </trkpt>
      <trkpt lat="50.01237" lon="4.27985">
        <ele>276</ele>
        <time>2024-04-16T15:05:08Z</time>
      </trkpt>
      <trkpt lat="50.0124" lon="4.27995">
        <ele>276</ele>
        <time>2024-04-16T15:05:09Z</time>
      </trkpt>
      <trkpt lat="50.01242" lon="4.28005">
        <ele>276</ele>
        <time>2024-04-16T15:05:10Z</time>
      </trkpt>
      <trkpt lat="50.01244" lon="4.28015">
        <ele>276</ele>
        <time>2024-04-16T15:05:11Z</time>
      </trkpt>
      <trkpt lat="50.01247" lon="4.28026">
        <ele>276</ele>
        <time>2024-04-16T15:05:12Z</time>
      </trkpt>
      <trkpt lat="50.01249" lon="4.28036">
        <ele>276</ele>
        <time>2024-04-16T15:05:13Z</time>
      </trkpt>
      <trkpt lat="50.01252" lon="4.28047">
        <ele>276.2</ele>
        <time>2024-04-16T15:05:14Z</time>
      </trkpt>
      <trkpt lat="50.01254" lon="4.28057">
        <ele>276.8</ele>
        <time>2024-04-16T15:05:15Z</time>
      </trkpt>
      <trkpt lat="50.01257" lon="4.28068">
        <ele>277</ele>
        <time>2024-04-16T15:05:16Z</time>
      </trkpt>
      <trkpt lat="50.0126" lon="4.28078">
        <ele>277.2</ele>
        <time>2024-04-16T15:05:17Z</time>
      </trkpt>
      <trkpt lat="50.01262" lon="4.28089">
        <ele>277.4</ele>
        <time>2024-04-16T15:05:18Z</time>
      </trkpt>
      <trkpt lat="50.01265" lon="4.281">
        <ele>277.6</ele>
        <time>2024-04-16T15:05:19Z</time>
      </trkpt>
      <trkpt lat="50.01267" lon="4.2811">
        <ele>277.6</ele>
        <time>2024-04-16T15:05:20Z</time>
      </trkpt>
      <trkpt lat="50.0127" lon="4.28121">
        <ele>277.6</ele>
        <time>2024-04-16T15:05:21Z</time>
      </trkpt>
      <trkpt lat="50.01272" lon="4.28132">
        <ele>277.6</ele>
        <time>2024-04-16T15:05:22Z</time>
      </trkpt>
      <trkpt lat="50.01275" lon="4.28142">
        <ele>277.6</ele>
        <time>2024-04-16T15:05:23Z</time>
      </trkpt>
      <trkpt lat="50.01277" lon="4.28153">
        <ele>277.6</ele>
        <time>2024-04-16T15:05:24Z</time>
      </trkpt>
      <trkpt lat="50.0128" lon="4.28163">
        <ele>277.6</ele>
        <time>2024-04-16T15:05:25Z</time>
      </trkpt>
      <trkpt lat="50.01282" lon="4.28173">
        <ele>277.6</ele>
        <time>2024-04-16T15:05:26Z</time>
      </trkpt>
      <trkpt lat="50.01285" lon="4.28184">
        <ele>277.6</ele>
        <time>2024-04-16T15:05:27Z</time>
      </trkpt>
      <trkpt lat="50.01287" lon="4.28194">
        <ele>277.6</ele>
        <time>2024-04-16T15:05:28Z</time>
      </trkpt>
      <trkpt lat="50.01289" lon="4.28204">
        <ele>277.8</ele>
        <time>2024-04-16T15:05:29Z</time>
      </trkpt>
      <trkpt lat="50.01292" lon="4.28213">
        <ele>277.6</ele>
        <time>2024-04-16T15:05:30Z</time>
      </trkpt>
      <trkpt lat="50.01294" lon="4.28223">
        <ele>277.8</ele>
        <time>2024-04-16T15:05:31Z</time>
      </trkpt>
      <trkpt lat="50.01296" lon="4.28233">
        <ele>277.6</ele>
        <time>2024-04-16T15:05:32Z</time>
      </trkpt>
      <trkpt lat="50.01298" lon="4.28243">
        <ele>277.8</ele>
        <time>2024-04-16T15:05:33Z</time>
      </trkpt>
      <trkpt lat="50.013" lon="4.28253">
        <ele>277.8</ele>
        <time>2024-04-16T15:05:34Z</time>
      </trkpt>
      <trkpt lat="50.01302" lon="4.28262">
        <ele>277.8</ele>
        <time>2024-04-16T15:05:35Z</time>
      </trkpt>
      <trkpt lat="50.01304" lon="4.28271">
        <ele>277.8</ele>
        <time>2024-04-16T15:05:36Z</time>
      </trkpt>
      <trkpt lat="50.01307" lon="4.2828">
        <ele>278</ele>
        <time>2024-04-16T15:05:37Z</time>
      </trkpt>
      <trkpt lat="50.01309" lon="4.28289">
        <ele>278</ele>
        <time>2024-04-16T15:05:38Z</time>
      </trkpt>
      <trkpt lat="50.01312" lon="4.28299">
        <ele>278.2</ele>
        <time>2024-04-16T15:05:39Z</time>
      </trkpt>
      <trkpt lat="50.01314" lon="4.28308">
        <ele>278.2</ele>
        <time>2024-04-16T15:05:40Z</time>
      </trkpt>
      <trkpt lat="50.01316" lon="4.28317">
        <ele>278.6</ele>
        <time>2024-04-16T15:05:41Z</time>
      </trkpt>
      <trkpt lat="50.01318" lon="4.28327">
        <ele>278.8</ele>
        <time>2024-04-16T15:05:42Z</time>
      </trkpt>
      <trkpt lat="50.0132" lon="4.28336">
        <ele>279</ele>
        <time>2024-04-16T15:05:43Z</time>
      </trkpt>
      <trkpt lat="50.01322" lon="4.28345">
        <ele>279.2</ele>
        <time>2024-04-16T15:05:44Z</time>
      </trkpt>
      <trkpt lat="50.01323" lon="4.28355">
        <ele>279.6</ele>
        <time>2024-04-16T15:05:45Z</time>
      </trkpt>
      <trkpt lat="50.01325" lon="4.28364">
        <ele>280</ele>
        <time>2024-04-16T15:05:46Z</time>
      </trkpt>
      <trkpt lat="50.01327" lon="4.28373">
        <ele>280.2</ele>
        <time>2024-04-16T15:05:47Z</time>
      </trkpt>
      <trkpt lat="50.01329" lon="4.28383">
        <ele>280.4</ele>
        <time>2024-04-16T15:05:48Z</time>
      </trkpt>
      <trkpt lat="50.01331" lon="4.28392">
        <ele>280.6</ele>
        <time>2024-04-16T15:05:49Z</time>
      </trkpt>
      <trkpt lat="50.01333" lon="4.28401">
        <ele>280.8</ele>
        <time>2024-04-16T15:05:50Z</time>
      </trkpt>
      <trkpt lat="50.01335" lon="4.28411">
        <ele>281</ele>
        <time>2024-04-16T15:05:51Z</time>
      </trkpt>
      <trkpt lat="50.01337" lon="4.2842">
        <ele>281.2</ele>
        <time>2024-04-16T15:05:52Z</time>
      </trkpt>
      <trkpt lat="50.01339" lon="4.2843">
        <ele>281.2</ele>
        <time>2024-04-16T15:05:53Z</time>
      </trkpt>
      <trkpt lat="50.01341" lon="4.28439">
        <ele>281.6</ele>
        <time>2024-04-16T15:05:54Z</time>
      </trkpt>
      <trkpt lat="50.01343" lon="4.28448">
        <ele>281.8</ele>
        <time>2024-04-16T15:05:55Z</time>
      </trkpt>
      <trkpt lat="50.01345" lon="4.28457">
        <ele>281.8</ele>
        <time>2024-04-16T15:05:56Z</time>
      </trkpt>
      <trkpt lat="50.01347" lon="4.28467">
        <ele>282.2</ele>
        <time>2024-04-16T15:05:57Z</time>
      </trkpt>
      <trkpt lat="50.01349" lon="4.28476">
        <ele>282.4</ele>
        <time>2024-04-16T15:05:58Z</time>
      </trkpt>
      <trkpt lat="50.0135" lon="4.28485">
        <ele>282.6</ele>
        <time>2024-04-16T15:05:59Z</time>
      </trkpt>
      <trkpt lat="50.01352" lon="4.28495">
        <ele>282.8</ele>
        <time>2024-04-16T15:06:00Z</time>
      </trkpt>
      <trkpt lat="50.01353" lon="4.28503">
        <ele>283</ele>
        <time>2024-04-16T15:06:01Z</time>
      </trkpt>
      <trkpt lat="50.01355" lon="4.28512">
        <ele>283.2</ele>
        <time>2024-04-16T15:06:02Z</time>
      </trkpt>
      <trkpt lat="50.01357" lon="4.28521">
        <ele>283.6</ele>
        <time>2024-04-16T15:06:03Z</time>
      </trkpt>
      <trkpt lat="50.01359" lon="4.28529">
        <ele>284</ele>
        <time>2024-04-16T15:06:04Z</time>
      </trkpt>
      <trkpt lat="50.0136" lon="4.28538">
        <ele>284.4</ele>
        <time>2024-04-16T15:06:05Z</time>
      </trkpt>
      <trkpt lat="50.01362" lon="4.28547">
        <ele>284.6</ele>
        <time>2024-04-16T15:06:06Z</time>
      </trkpt>
      <trkpt lat="50.01364" lon="4.28555">
        <ele>284.8</ele>
        <time>2024-04-16T15:06:07Z</time>
      </trkpt>
      <trkpt lat="50.01365" lon="4.28564">
        <ele>285.2</ele>
        <time>2024-04-16T15:06:08Z</time>
      </trkpt>
      <trkpt lat="50.01368" lon="4.28573">
        <ele>285.4</ele>
        <time>2024-04-16T15:06:09Z</time>
      </trkpt>
      <trkpt lat="50.0137" lon="4.28581">
        <ele>285.6</ele>
        <time>2024-04-16T15:06:10Z</time>
      </trkpt>
      <trkpt lat="50.01372" lon="4.2859">
        <ele>285.8</ele>
        <time>2024-04-16T15:06:11Z</time>
      </trkpt>
      <trkpt lat="50.01374" lon="4.28599">
        <ele>285.8</ele>
        <time>2024-04-16T15:06:12Z</time>
      </trkpt>
      <trkpt lat="50.01376" lon="4.28607">
        <ele>286.4</ele>
        <time>2024-04-16T15:06:13Z</time>
      </trkpt>
      <trkpt lat="50.01377" lon="4.28616">
        <ele>286.6</ele>
        <time>2024-04-16T15:06:14Z</time>
      </trkpt>
      <trkpt lat="50.01379" lon="4.28625">
        <ele>287</ele>
        <time>2024-04-16T15:06:15Z</time>
      </trkpt>
      <trkpt lat="50.01381" lon="4.28634">
        <ele>287.2</ele>
        <time>2024-04-16T15:06:16Z</time>
      </trkpt>
      <trkpt lat="50.01383" lon="4.28642">
        <ele>287.2</ele>
        <time>2024-04-16T15:06:17Z</time>
      </trkpt>
      <trkpt lat="50.01385" lon="4.28651">
        <ele>287.2</ele>
        <time>2024-04-16T15:06:18Z</time>
      </trkpt>
      <trkpt lat="50.01386" lon="4.2866">
        <ele>287.6</ele>
        <time>2024-04-16T15:06:19Z</time>
      </trkpt>
      <trkpt lat="50.01388" lon="4.28668">
        <ele>287.8</ele>
        <time>2024-04-16T15:06:20Z</time>
      </trkpt>
      <trkpt lat="50.0139" lon="4.28677">
        <ele>288</ele>
        <time>2024-04-16T15:06:21Z</time>
      </trkpt>
      <trkpt lat="50.01392" lon="4.28686">
        <ele>288.2</ele>
        <time>2024-04-16T15:06:22Z</time>
      </trkpt>
      <trkpt lat="50.01394" lon="4.28695">
        <ele>288.2</ele>
        <time>2024-04-16T15:06:23Z</time>
      </trkpt>
      <trkpt lat="50.01396" lon="4.28704">
        <ele>288</ele>
        <time>2024-04-16T15:06:24Z</time>
      </trkpt>
      <trkpt lat="50.01398" lon="4.28713">
        <ele>288.2</ele>
        <time>2024-04-16T15:06:25Z</time>
      </trkpt>
      <trkpt lat="50.01401" lon="4.28723">
        <ele>288.2</ele>
        <time>2024-04-16T15:06:26Z</time>
      </trkpt>
      <trkpt lat="50.01403" lon="4.28732">
        <ele>288.2</ele>
        <time>2024-04-16T15:06:27Z</time>
      </trkpt>
      <trkpt lat="50.01405" lon="4.28742">
        <ele>288.2</ele>
        <time>2024-04-16T15:06:28Z</time>
      </trkpt>
      <trkpt lat="50.01407" lon="4.28751">
        <ele>288.4</ele>
        <time>2024-04-16T15:06:29Z</time>
      </trkpt>
      <trkpt lat="50.01409" lon="4.28761">
        <ele>288.4</ele>
        <time>2024-04-16T15:06:30Z</time>
      </trkpt>
      <trkpt lat="50.01411" lon="4.28771">
        <ele>288.6</ele>
        <time>2024-04-16T15:06:31Z</time>
      </trkpt>
      <trkpt lat="50.01413" lon="4.28781">
        <ele>288.6</ele>
        <time>2024-04-16T15:06:32Z</time>
      </trkpt>
      <trkpt lat="50.01415" lon="4.28791">
        <ele>288.6</ele>
        <time>2024-04-16T15:06:33Z</time>
      </trkpt>
      <trkpt lat="50.01418" lon="4.28801">
        <ele>288.6</ele>
        <time>2024-04-16T15:06:34Z</time>
      </trkpt>
      <trkpt lat="50.0142" lon="4.28811">
        <ele>288.6</ele>
        <time>2024-04-16T15:06:35Z</time>
      </trkpt>
      <trkpt lat="50.01422" lon="4.2882">
        <ele>289</ele>
        <time>2024-04-16T15:06:36Z</time>
      </trkpt>
      <trkpt lat="50.01425" lon="4.2883">
        <ele>289.4</ele>
        <time>2024-04-16T15:06:37Z</time>
      </trkpt>
      <trkpt lat="50.01427" lon="4.2884">
        <ele>289.6</ele>
        <time>2024-04-16T15:06:38Z</time>
      </trkpt>
      <trkpt lat="50.01429" lon="4.2885">
        <ele>289.6</ele>
        <time>2024-04-16T15:06:39Z</time>
      </trkpt>
      <trkpt lat="50.01431" lon="4.2886">
        <ele>289.4</ele>
        <time>2024-04-16T15:06:40Z</time>
      </trkpt>
      <trkpt lat="50.01433" lon="4.2887">
        <ele>289.6</ele>
        <time>2024-04-16T15:06:41Z</time>
      </trkpt>
      <trkpt lat="50.01435" lon="4.2888">
        <ele>289.6</ele>
        <time>2024-04-16T15:06:42Z</time>
      </trkpt>
      <trkpt lat="50.01437" lon="4.2889">
        <ele>289.8</ele>
        <time>2024-04-16T15:06:43Z</time>
      </trkpt>
      <trkpt lat="50.0144" lon="4.289">
        <ele>289.8</ele>
        <time>2024-04-16T15:06:44Z</time>
      </trkpt>
      <trkpt lat="50.01442" lon="4.28911">
        <ele>289.6</ele>
        <time>2024-04-16T15:06:45Z</time>
      </trkpt>
      <trkpt lat="50.01444" lon="4.28921">
        <ele>289.8</ele>
        <time>2024-04-16T15:06:46Z</time>
      </trkpt>
      <trkpt lat="50.01446" lon="4.28931">
        <ele>289.8</ele>
        <time>2024-04-16T15:06:47Z</time>
      </trkpt>
      <trkpt lat="50.01448" lon="4.28941">
        <ele>289.8</ele>
        <time>2024-04-16T15:06:48Z</time>
      </trkpt>
      <trkpt lat="50.01451" lon="4.28951">
        <ele>289.8</ele>
        <time>2024-04-16T15:06:49Z</time>
      </trkpt>
      <trkpt lat="50.01453" lon="4.28961">
        <ele>289.8</ele>
        <time>2024-04-16T15:06:50Z</time>
      </trkpt>
      <trkpt lat="50.01455" lon="4.28971">
        <ele>289.8</ele>
        <time>2024-04-16T15:06:51Z</time>
      </trkpt>
      <trkpt lat="50.01457" lon="4.28981">
        <ele>289.8</ele>
        <time>2024-04-16T15:06:52Z</time>
      </trkpt>
      <trkpt lat="50.0146" lon="4.28991">
        <ele>289.8</ele>
        <time>2024-04-16T15:06:53Z</time>
      </trkpt>
      <trkpt lat="50.01462" lon="4.29002">
        <ele>290</ele>
        <time>2024-04-16T15:06:54Z</time>
      </trkpt>
      <trkpt lat="50.01464" lon="4.29012">
        <ele>290</ele>
        <time>2024-04-16T15:06:55Z</time>
      </trkpt>
      <trkpt lat="50.01466" lon="4.29022">
        <ele>290</ele>
        <time>2024-04-16T15:06:56Z</time>
      </trkpt>
      <trkpt lat="50.01468" lon="4.29032">
        <ele>290</ele>
        <time>2024-04-16T15:06:57Z</time>
      </trkpt>
      <trkpt lat="50.0147" lon="4.29042">
        <ele>290.2</ele>
        <time>2024-04-16T15:06:58Z</time>
      </trkpt>
      <trkpt lat="50.01472" lon="4.29052">
        <ele>290.2</ele>
        <time>2024-04-16T15:06:59Z</time>
      </trkpt>
      <trkpt lat="50.01474" lon="4.29062">
        <ele>290</ele>
        <time>2024-04-16T15:07:00Z</time>
      </trkpt>
      <trkpt lat="50.01476" lon="4.29073">
        <ele>290</ele>
        <time>2024-04-16T15:07:01Z</time>
      </trkpt>
      <trkpt lat="50.01478" lon="4.29083">
        <ele>290.2</ele>
        <time>2024-04-16T15:07:02Z</time>
      </trkpt>
      <trkpt lat="50.0148" lon="4.29093">
        <ele>290.2</ele>
        <time>2024-04-16T15:07:03Z</time>
      </trkpt>
      <trkpt lat="50.01482" lon="4.29103">
        <ele>290.4</ele>
        <time>2024-04-16T15:07:04Z</time>
      </trkpt>
      <trkpt lat="50.01485" lon="4.29113">
        <ele>290.2</ele>
        <time>2024-04-16T15:07:05Z</time>
      </trkpt>
      <trkpt lat="50.01487" lon="4.29124">
        <ele>290.4</ele>
        <time>2024-04-16T15:07:06Z</time>
      </trkpt>
      <trkpt lat="50.01489" lon="4.29134">
        <ele>290.4</ele>
        <time>2024-04-16T15:07:07Z</time>
      </trkpt>
      <trkpt lat="50.01491" lon="4.29144">
        <ele>290.4</ele>
        <time>2024-04-16T15:07:08Z</time>
      </trkpt>
      <trkpt lat="50.01494" lon="4.29154">
        <ele>290.4</ele>
        <time>2024-04-16T15:07:09Z</time>
      </trkpt>
      <trkpt lat="50.01496" lon="4.29164">
        <ele>290.4</ele>
        <time>2024-04-16T15:07:10Z</time>
      </trkpt>
      <trkpt lat="50.01498" lon="4.29174">
        <ele>290.8</ele>
        <time>2024-04-16T15:07:11Z</time>
      </trkpt>
      <trkpt lat="50.015" lon="4.29184">
        <ele>290.8</ele>
        <time>2024-04-16T15:07:12Z</time>
      </trkpt>
      <trkpt lat="50.01503" lon="4.29195">
        <ele>291</ele>
        <time>2024-04-16T15:07:13Z</time>
      </trkpt>
      <trkpt lat="50.01505" lon="4.29204">
        <ele>291.2</ele>
        <time>2024-04-16T15:07:14Z</time>
      </trkpt>
      <trkpt lat="50.01507" lon="4.29214">
        <ele>291</ele>
        <time>2024-04-16T15:07:15Z</time>
      </trkpt>
      <trkpt lat="50.01509" lon="4.29225">
        <ele>291.2</ele>
        <time>2024-04-16T15:07:16Z</time>
      </trkpt>
      <trkpt lat="50.01512" lon="4.29235">
        <ele>291.2</ele>
        <time>2024-04-16T15:07:17Z</time>
      </trkpt>
      <trkpt lat="50.01514" lon="4.29244">
        <ele>291.4</ele>
        <time>2024-04-16T15:07:18Z</time>
      </trkpt>
      <trkpt lat="50.01516" lon="4.29254">
        <ele>291.2</ele>
        <time>2024-04-16T15:07:19Z</time>
      </trkpt>
      <trkpt lat="50.01518" lon="4.29264">
        <ele>291.4</ele>
        <time>2024-04-16T15:07:20Z</time>
      </trkpt>
      <trkpt lat="50.0152" lon="4.29275">
        <ele>291.2</ele>
        <time>2024-04-16T15:07:21Z</time>
      </trkpt>
      <trkpt lat="50.01522" lon="4.29285">
        <ele>291.4</ele>
        <time>2024-04-16T15:07:22Z</time>
      </trkpt>
      <trkpt lat="50.01524" lon="4.29295">
        <ele>291.4</ele>
        <time>2024-04-16T15:07:23Z</time>
      </trkpt>
      <trkpt lat="50.01526" lon="4.29305">
        <ele>291.2</ele>
        <time>2024-04-16T15:07:24Z</time>
      </trkpt>
      <trkpt lat="50.01529" lon="4.29314">
        <ele>291</ele>
        <time>2024-04-16T15:07:25Z</time>
      </trkpt>
      <trkpt lat="50.01531" lon="4.29324">
        <ele>290.8</ele>
        <time>2024-04-16T15:07:26Z</time>
      </trkpt>
      <trkpt lat="50.01533" lon="4.29334">
        <ele>291</ele>
        <time>2024-04-16T15:07:27Z</time>
      </trkpt>
      <trkpt lat="50.01535" lon="4.29344">
        <ele>290.8</ele>
        <time>2024-04-16T15:07:28Z</time>
      </trkpt>
      <trkpt lat="50.01537" lon="4.29354">
        <ele>291</ele>
        <time>2024-04-16T15:07:29Z</time>
      </trkpt>
      <trkpt lat="50.01539" lon="4.29364">
        <ele>291.2</ele>
        <time>2024-04-16T15:07:30Z</time>
      </trkpt>
      <trkpt lat="50.01541" lon="4.29374">
        <ele>291.2</ele>
        <time>2024-04-16T15:07:31Z</time>
      </trkpt>
      <trkpt lat="50.01543" lon="4.29384">
        <ele>291.2</ele>
        <time>2024-04-16T15:07:32Z</time>
      </trkpt>
      <trkpt lat="50.01545" lon="4.29394">
        <ele>291</ele>
        <time>2024-04-16T15:07:33Z</time>
      </trkpt>
      <trkpt lat="50.01547" lon="4.29404">
        <ele>291</ele>
        <time>2024-04-16T15:07:34Z</time>
      </trkpt>
      <trkpt lat="50.01549" lon="4.29413">
        <ele>291</ele>
        <time>2024-04-16T15:07:35Z</time>
      </trkpt>
      <trkpt lat="50.01552" lon="4.29423">
        <ele>291</ele>
        <time>2024-04-16T15:07:36Z</time>
      </trkpt>
      <trkpt lat="50.01553" lon="4.29433">
        <ele>291</ele>
        <time>2024-04-16T15:07:37Z</time>
      </trkpt>
      <trkpt lat="50.01555" lon="4.29443">
        <ele>291</ele>
        <time>2024-04-16T15:07:38Z</time>
      </trkpt>
      <trkpt lat="50.01558" lon="4.29453">
        <ele>291</ele>
        <time>2024-04-16T15:07:39Z</time>
      </trkpt>
      <trkpt lat="50.0156" lon="4.29463">
        <ele>291.2</ele>
        <time>2024-04-16T15:07:40Z</time>
      </trkpt>
      <trkpt lat="50.01562" lon="4.29473">
        <ele>291.2</ele>
        <time>2024-04-16T15:07:41Z</time>
      </trkpt>
      <trkpt lat="50.01564" lon="4.29483">
        <ele>291.2</ele>
        <time>2024-04-16T15:07:42Z</time>
      </trkpt>
      <trkpt lat="50.01566" lon="4.29493">
        <ele>291.2</ele>
        <time>2024-04-16T15:07:43Z</time>
      </trkpt>
      <trkpt lat="50.01568" lon="4.29503">
        <ele>291.4</ele>
        <time>2024-04-16T15:07:44Z</time>
      </trkpt>
      <trkpt lat="50.0157" lon="4.29513">
        <ele>291.2</ele>
        <time>2024-04-16T15:07:45Z</time>
      </trkpt>
      <trkpt lat="50.01572" lon="4.29523">
        <ele>291.4</ele>
        <time>2024-04-16T15:07:46Z</time>
      </trkpt>
      <trkpt lat="50.01575" lon="4.29532">
        <ele>291.6</ele>
        <time>2024-04-16T15:07:47Z</time>
      </trkpt>
      <trkpt lat="50.01577" lon="4.29542">
        <ele>291.6</ele>
        <time>2024-04-16T15:07:48Z</time>
      </trkpt>
      <trkpt lat="50.01579" lon="4.29552">
        <ele>291.6</ele>
        <time>2024-04-16T15:07:49Z</time>
      </trkpt>
      <trkpt lat="50.01581" lon="4.29562">
        <ele>291.6</ele>
        <time>2024-04-16T15:07:50Z</time>
      </trkpt>
      <trkpt lat="50.01584" lon="4.29572">
        <ele>291.8</ele>
        <time>2024-04-16T15:07:51Z</time>
      </trkpt>
      <trkpt lat="50.01586" lon="4.29582">
        <ele>292</ele>
        <time>2024-04-16T15:07:52Z</time>
      </trkpt>
      <trkpt lat="50.01588" lon="4.29593">
        <ele>292</ele>
        <time>2024-04-16T15:07:53Z</time>
      </trkpt>
      <trkpt lat="50.01591" lon="4.29603">
        <ele>292.2</ele>
        <time>2024-04-16T15:07:54Z</time>
      </trkpt>
      <trkpt lat="50.01593" lon="4.29614">
        <ele>292.4</ele>
        <time>2024-04-16T15:07:55Z</time>
      </trkpt>
      <trkpt lat="50.01596" lon="4.29624">
        <ele>292.4</ele>
        <time>2024-04-16T15:07:56Z</time>
      </trkpt>
      <trkpt lat="50.01598" lon="4.29634">
        <ele>292.6</ele>
        <time>2024-04-16T15:07:57Z</time>
      </trkpt>
      <trkpt lat="50.016" lon="4.29644">
        <ele>292.8</ele>
        <time>2024-04-16T15:07:58Z</time>
      </trkpt>
      <trkpt lat="50.01602" lon="4.29655">
        <ele>293</ele>
        <time>2024-04-16T15:07:59Z</time>
      </trkpt>
      <trkpt lat="50.01604" lon="4.29665">
        <ele>293.2</ele>
        <time>2024-04-16T15:08:00Z</time>
      </trkpt>
      <trkpt lat="50.01607" lon="4.29675">
        <ele>293.4</ele>
        <time>2024-04-16T15:08:01Z</time>
      </trkpt>
      <trkpt lat="50.01609" lon="4.29685">
        <ele>293.4</ele>
        <time>2024-04-16T15:08:02Z</time>
      </trkpt>
      <trkpt lat="50.01612" lon="4.29696">
        <ele>293.4</ele>
        <time>2024-04-16T15:08:03Z</time>
      </trkpt>
      <trkpt lat="50.01614" lon="4.29706">
        <ele>293.8</ele>
        <time>2024-04-16T15:08:04Z</time>
      </trkpt>
      <trkpt lat="50.01617" lon="4.29716">
        <ele>293.6</ele>
        <time>2024-04-16T15:08:05Z</time>
      </trkpt>
      <trkpt lat="50.01619" lon="4.29727">
        <ele>293.6</ele>
        <time>2024-04-16T15:08:06Z</time>
      </trkpt>
      <trkpt lat="50.01621" lon="4.29737">
        <ele>293.8</ele>
        <time>2024-04-16T15:08:07Z</time>
      </trkpt>
      <trkpt lat="50.01623" lon="4.29747">
        <ele>294</ele>
        <time>2024-04-16T15:08:08Z</time>
      </trkpt>
      <trkpt lat="50.01625" lon="4.29758">
        <ele>294.2</ele>
        <time>2024-04-16T15:08:09Z</time>
      </trkpt>
      <trkpt lat="50.01628" lon="4.29768">
        <ele>294.2</ele>
        <time>2024-04-16T15:08:10Z</time>
      </trkpt>
      <trkpt lat="50.0163" lon="4.29777">
        <ele>294.2</ele>
        <time>2024-04-16T15:08:11Z</time>
      </trkpt>
      <trkpt lat="50.01632" lon="4.29787">
        <ele>294.2</ele>
        <time>2024-04-16T15:08:12Z</time>
      </trkpt>
      <trkpt lat="50.01634" lon="4.29797">
        <ele>294.4</ele>
        <time>2024-04-16T15:08:13Z</time>
      </trkpt>
      <trkpt lat="50.01636" lon="4.29807">
        <ele>294.6</ele>
        <time>2024-04-16T15:08:14Z</time>
      </trkpt>
      <trkpt lat="50.01638" lon="4.29817">
        <ele>294.6</ele>
        <time>2024-04-16T15:08:15Z</time>
      </trkpt>
      <trkpt lat="50.0164" lon="4.29827">
        <ele>294.6</ele>
        <time>2024-04-16T15:08:16Z</time>
      </trkpt>
      <trkpt lat="50.01642" lon="4.29837">
        <ele>294.8</ele>
        <time>2024-04-16T15:08:17Z</time>
      </trkpt>
      <trkpt lat="50.01644" lon="4.29847">
        <ele>294.8</ele>
        <time>2024-04-16T15:08:18Z</time>
      </trkpt>
      <trkpt lat="50.01647" lon="4.29857">
        <ele>294.8</ele>
        <time>2024-04-16T15:08:19Z</time>
      </trkpt>
      <trkpt lat="50.01649" lon="4.29867">
        <ele>294.8</ele>
        <time>2024-04-16T15:08:20Z</time>
      </trkpt>
      <trkpt lat="50.0165" lon="4.29878">
        <ele>295</ele>
        <time>2024-04-16T15:08:21Z</time>
      </trkpt>
      <trkpt lat="50.01652" lon="4.29888">
        <ele>295</ele>
        <time>2024-04-16T15:08:22Z</time>
      </trkpt>
      <trkpt lat="50.01655" lon="4.29898">
        <ele>294.8</ele>
        <time>2024-04-16T15:08:23Z</time>
      </trkpt>
      <trkpt lat="50.01657" lon="4.29908">
        <ele>294.8</ele>
        <time>2024-04-16T15:08:24Z</time>
      </trkpt>
      <trkpt lat="50.01659" lon="4.29918">
        <ele>295</ele>
        <time>2024-04-16T15:08:25Z</time>
      </trkpt>
      <trkpt lat="50.01661" lon="4.29928">
        <ele>295</ele>
        <time>2024-04-16T15:08:26Z</time>
      </trkpt>
      <trkpt lat="50.01663" lon="4.29937">
        <ele>295.2</ele>
        <time>2024-04-16T15:08:27Z</time>
      </trkpt>
      <trkpt lat="50.01665" lon="4.29947">
        <ele>295.2</ele>
        <time>2024-04-16T15:08:28Z</time>
      </trkpt>
      <trkpt lat="50.01667" lon="4.29957">
        <ele>295.2</ele>
        <time>2024-04-16T15:08:29Z</time>
      </trkpt>
      <trkpt lat="50.01669" lon="4.29967">
        <ele>295.4</ele>
        <time>2024-04-16T15:08:30Z</time>
      </trkpt>
      <trkpt lat="50.01671" lon="4.29977">
        <ele>295.2</ele>
        <time>2024-04-16T15:08:31Z</time>
      </trkpt>
      <trkpt lat="50.01673" lon="4.29987">
        <ele>295.2</ele>
        <time>2024-04-16T15:08:32Z</time>
      </trkpt>
      <trkpt lat="50.01674" lon="4.29997">
        <ele>295.2</ele>
        <time>2024-04-16T15:08:33Z</time>
      </trkpt>
      <trkpt lat="50.01676" lon="4.30007">
        <ele>295.2</ele>
        <time>2024-04-16T15:08:34Z</time>
      </trkpt>
      <trkpt lat="50.01678" lon="4.30017">
        <ele>295.4</ele>
        <time>2024-04-16T15:08:35Z</time>
      </trkpt>
      <trkpt lat="50.01681" lon="4.30026">
        <ele>295.4</ele>
        <time>2024-04-16T15:08:36Z</time>
      </trkpt>
      <trkpt lat="50.01683" lon="4.30036">
        <ele>295.4</ele>
        <time>2024-04-16T15:08:37Z</time>
      </trkpt>
      <trkpt lat="50.01684" lon="4.30046">
        <ele>295.4</ele>
        <time>2024-04-16T15:08:38Z</time>
      </trkpt>
      <trkpt lat="50.01686" lon="4.30056">
        <ele>295.4</ele>
        <time>2024-04-16T15:08:39Z</time>
      </trkpt>
      <trkpt lat="50.01688" lon="4.30066">
        <ele>295.4</ele>
        <time>2024-04-16T15:08:40Z</time>
      </trkpt>
      <trkpt lat="50.0169" lon="4.30076">
        <ele>295.6</ele>
        <time>2024-04-16T15:08:41Z</time>
      </trkpt>
      <trkpt lat="50.01692" lon="4.30086">
        <ele>295.6</ele>
        <time>2024-04-16T15:08:42Z</time>
      </trkpt>
      <trkpt lat="50.01694" lon="4.30096">
        <ele>295.6</ele>
        <time>2024-04-16T15:08:43Z</time>
      </trkpt>
      <trkpt lat="50.01696" lon="4.30106">
        <ele>295.8</ele>
        <time>2024-04-16T15:08:44Z</time>
      </trkpt>
      <trkpt lat="50.01698" lon="4.30116">
        <ele>295.6</ele>
        <time>2024-04-16T15:08:45Z</time>
      </trkpt>
      <trkpt lat="50.017" lon="4.30126">
        <ele>295.8</ele>
        <time>2024-04-16T15:08:46Z</time>
      </trkpt>
      <trkpt lat="50.01702" lon="4.30136">
        <ele>295.8</ele>
        <time>2024-04-16T15:08:47Z</time>
      </trkpt>
      <trkpt lat="50.01705" lon="4.30146">
        <ele>295.8</ele>
        <time>2024-04-16T15:08:48Z</time>
      </trkpt>
      <trkpt lat="50.01707" lon="4.30156">
        <ele>295.8</ele>
        <time>2024-04-16T15:08:49Z</time>
      </trkpt>
      <trkpt lat="50.01709" lon="4.30166">
        <ele>295.8</ele>
        <time>2024-04-16T15:08:50Z</time>
      </trkpt>
      <trkpt lat="50.01711" lon="4.30176">
        <ele>295.8</ele>
        <time>2024-04-16T15:08:51Z</time>
      </trkpt>
      <trkpt lat="50.01714" lon="4.30185">
        <ele>295.8</ele>
        <time>2024-04-16T15:08:52Z</time>
      </trkpt>
      <trkpt lat="50.01716" lon="4.30194">
        <ele>295.8</ele>
        <time>2024-04-16T15:08:53Z</time>
      </trkpt>
      <trkpt lat="50.01718" lon="4.30202">
        <ele>295.8</ele>
        <time>2024-04-16T15:08:54Z</time>
      </trkpt>
      <trkpt lat="50.01719" lon="4.30211">
        <ele>295.6</ele>
        <time>2024-04-16T15:08:55Z</time>
      </trkpt>
      <trkpt lat="50.01721" lon="4.30219">
        <ele>295.8</ele>
        <time>2024-04-16T15:08:56Z</time>
      </trkpt>
      <trkpt lat="50.01722" lon="4.30226">
        <ele>295.8</ele>
        <time>2024-04-16T15:08:57Z</time>
      </trkpt>
      <trkpt lat="50.01724" lon="4.30234">
        <ele>295.8</ele>
        <time>2024-04-16T15:08:58Z</time>
      </trkpt>
      <trkpt lat="50.01726" lon="4.30242">
        <ele>295.8</ele>
        <time>2024-04-16T15:08:59Z</time>
      </trkpt>
      <trkpt lat="50.01727" lon="4.3025">
        <ele>295.8</ele>
        <time>2024-04-16T15:09:00Z</time>
      </trkpt>
      <trkpt lat="50.01729" lon="4.30258">
        <ele>295.6</ele>
        <time>2024-04-16T15:09:01Z</time>
      </trkpt>
      <trkpt lat="50.01731" lon="4.30265">
        <ele>295.6</ele>
        <time>2024-04-16T15:09:02Z</time>
      </trkpt>
      <trkpt lat="50.01732" lon="4.30272">
        <ele>295.6</ele>
        <time>2024-04-16T15:09:03Z</time>
      </trkpt>
      <trkpt lat="50.01734" lon="4.3028">
        <ele>295.6</ele>
        <time>2024-04-16T15:09:04Z</time>
      </trkpt>
      <trkpt lat="50.01736" lon="4.30288">
        <ele>295.2</ele>
        <time>2024-04-16T15:09:05Z</time>
      </trkpt>
      <trkpt lat="50.01738" lon="4.30296">
        <ele>295.4</ele>
        <time>2024-04-16T15:09:06Z</time>
      </trkpt>
      <trkpt lat="50.01739" lon="4.30304">
        <ele>295.2</ele>
        <time>2024-04-16T15:09:07Z</time>
      </trkpt>
      <trkpt lat="50.01741" lon="4.30312">
        <ele>295.2</ele>
        <time>2024-04-16T15:09:08Z</time>
      </trkpt>
      <trkpt lat="50.01743" lon="4.3032">
        <ele>295</ele>
        <time>2024-04-16T15:09:09Z</time>
      </trkpt>
      <trkpt lat="50.01745" lon="4.30328">
        <ele>295.2</ele>
        <time>2024-04-16T15:09:10Z</time>
      </trkpt>
      <trkpt lat="50.01747" lon="4.30336">
        <ele>295.2</ele>
        <time>2024-04-16T15:09:11Z</time>
      </trkpt>
      <trkpt lat="50.01749" lon="4.30344">
        <ele>295.2</ele>
        <time>2024-04-16T15:09:12Z</time>
      </trkpt>
      <trkpt lat="50.01751" lon="4.30353">
        <ele>295.2</ele>
        <time>2024-04-16T15:09:13Z</time>
      </trkpt>
      <trkpt lat="50.01752" lon="4.30361">
        <ele>295</ele>
        <time>2024-04-16T15:09:14Z</time>
      </trkpt>
      <trkpt lat="50.01754" lon="4.3037">
        <ele>295.2</ele>
        <time>2024-04-16T15:09:15Z</time>
      </trkpt>
      <trkpt lat="50.01755" lon="4.30378">
        <ele>295.2</ele>
        <time>2024-04-16T15:09:16Z</time>
      </trkpt>
      <trkpt lat="50.01756" lon="4.30386">
        <ele>295.2</ele>
        <time>2024-04-16T15:09:17Z</time>
      </trkpt>
      <trkpt lat="50.01756" lon="4.30395">
        <ele>295.2</ele>
        <time>2024-04-16T15:09:18Z</time>
      </trkpt>
      <trkpt lat="50.01757" lon="4.30404">
        <ele>295.2</ele>
        <time>2024-04-16T15:09:19Z</time>
      </trkpt>
      <trkpt lat="50.01757" lon="4.30413">
        <ele>295.2</ele>
        <time>2024-04-16T15:09:20Z</time>
      </trkpt>
      <trkpt lat="50.01756" lon="4.30422">
        <ele>295.2</ele>
        <time>2024-04-16T15:09:21Z</time>
      </trkpt>
      <trkpt lat="50.01755" lon="4.30431">
        <ele>295</ele>
        <time>2024-04-16T15:09:22Z</time>
      </trkpt>
      <trkpt lat="50.01753" lon="4.3044">
        <ele>295.2</ele>
        <time>2024-04-16T15:09:23Z</time>
      </trkpt>
      <trkpt lat="50.01751" lon="4.3045">
        <ele>295.2</ele>
        <time>2024-04-16T15:09:24Z</time>
      </trkpt>
      <trkpt lat="50.01748" lon="4.3046">
        <ele>295</ele>
        <time>2024-04-16T15:09:25Z</time>
      </trkpt>
      <trkpt lat="50.01746" lon="4.30471">
        <ele>295</ele>
        <time>2024-04-16T15:09:26Z</time>
      </trkpt>
      <trkpt lat="50.01744" lon="4.30482">
        <ele>294.8</ele>
        <time>2024-04-16T15:09:27Z</time>
      </trkpt>
      <trkpt lat="50.01742" lon="4.30493">
        <ele>294.8</ele>
        <time>2024-04-16T15:09:28Z</time>
      </trkpt>
      <trkpt lat="50.01739" lon="4.30504">
        <ele>294.8</ele>
        <time>2024-04-16T15:09:29Z</time>
      </trkpt>
      <trkpt lat="50.01737" lon="4.30515">
        <ele>294.8</ele>
        <time>2024-04-16T15:09:30Z</time>
      </trkpt>
      <trkpt lat="50.01735" lon="4.30526">
        <ele>294.6</ele>
        <time>2024-04-16T15:09:31Z</time>
      </trkpt>
      <trkpt lat="50.01733" lon="4.30537">
        <ele>294.4</ele>
        <time>2024-04-16T15:09:32Z</time>
      </trkpt>
      <trkpt lat="50.0173" lon="4.30547">
        <ele>294.4</ele>
        <time>2024-04-16T15:09:33Z</time>
      </trkpt>
      <trkpt lat="50.01728" lon="4.30558">
        <ele>294.4</ele>
        <time>2024-04-16T15:09:34Z</time>
      </trkpt>
      <trkpt lat="50.01726" lon="4.30569">
        <ele>294.2</ele>
        <time>2024-04-16T15:09:35Z</time>
      </trkpt>
      <trkpt lat="50.01724" lon="4.3058">
        <ele>294.2</ele>
        <time>2024-04-16T15:09:36Z</time>
      </trkpt>
      <trkpt lat="50.01722" lon="4.30591">
        <ele>294</ele>
        <time>2024-04-16T15:09:37Z</time>
      </trkpt>
      <trkpt lat="50.0172" lon="4.30603">
        <ele>293.8</ele>
        <time>2024-04-16T15:09:38Z</time>
      </trkpt>
      <trkpt lat="50.01718" lon="4.30614">
        <ele>293</ele>
        <time>2024-04-16T15:09:39Z</time>
      </trkpt>
      <trkpt lat="50.01715" lon="4.30625">
        <ele>292.2</ele>
        <time>2024-04-16T15:09:40Z</time>
      </trkpt>
      <trkpt lat="50.01713" lon="4.30636">
        <ele>292</ele>
        <time>2024-04-16T15:09:41Z</time>
      </trkpt>
      <trkpt lat="50.01711" lon="4.30647">
        <ele>291.6</ele>
        <time>2024-04-16T15:09:42Z</time>
      </trkpt>
      <trkpt lat="50.01708" lon="4.30658">
        <ele>291.4</ele>
        <time>2024-04-16T15:09:43Z</time>
      </trkpt>
      <trkpt lat="50.01706" lon="4.30669">
        <ele>291.4</ele>
        <time>2024-04-16T15:09:44Z</time>
      </trkpt>
      <trkpt lat="50.01704" lon="4.3068">
        <ele>291.4</ele>
        <time>2024-04-16T15:09:45Z</time>
      </trkpt>
      <trkpt lat="50.01702" lon="4.3069">
        <ele>291.2</ele>
        <time>2024-04-16T15:09:46Z</time>
      </trkpt>
      <trkpt lat="50.01699" lon="4.30701">
        <ele>291.4</ele>
        <time>2024-04-16T15:09:47Z</time>
      </trkpt>
      <trkpt lat="50.01697" lon="4.30712">
        <ele>291.2</ele>
        <time>2024-04-16T15:09:48Z</time>
      </trkpt>
      <trkpt lat="50.01695" lon="4.30723">
        <ele>291</ele>
        <time>2024-04-16T15:09:49Z</time>
      </trkpt>
      <trkpt lat="50.01692" lon="4.30734">
        <ele>291</ele>
        <time>2024-04-16T15:09:50Z</time>
      </trkpt>
      <trkpt lat="50.0169" lon="4.30744">
        <ele>291.2</ele>
        <time>2024-04-16T15:09:51Z</time>
      </trkpt>
      <trkpt lat="50.01688" lon="4.30755">
        <ele>291</ele>
        <time>2024-04-16T15:09:52Z</time>
      </trkpt>
      <trkpt lat="50.01686" lon="4.30766">
        <ele>291</ele>
        <time>2024-04-16T15:09:53Z</time>
      </trkpt>
      <trkpt lat="50.01684" lon="4.30777">
        <ele>291</ele>
        <time>2024-04-16T15:09:54Z</time>
      </trkpt>
      <trkpt lat="50.01681" lon="4.30787">
        <ele>291</ele>
        <time>2024-04-16T15:09:55Z</time>
      </trkpt>
      <trkpt lat="50.01679" lon="4.30798">
        <ele>291</ele>
        <time>2024-04-16T15:09:56Z</time>
      </trkpt>
      <trkpt lat="50.01677" lon="4.30808">
        <ele>290.6</ele>
        <time>2024-04-16T15:09:57Z</time>
      </trkpt>
      <trkpt lat="50.01675" lon="4.30819">
        <ele>290.8</ele>
        <time>2024-04-16T15:09:58Z</time>
      </trkpt>
      <trkpt lat="50.01673" lon="4.30829">
        <ele>290.6</ele>
        <time>2024-04-16T15:09:59Z</time>
      </trkpt>
      <trkpt lat="50.01671" lon="4.3084">
        <ele>290.6</ele>
        <time>2024-04-16T15:10:00Z</time>
      </trkpt>
      <trkpt lat="50.01668" lon="4.3085">
        <ele>290.4</ele>
        <time>2024-04-16T15:10:01Z</time>
      </trkpt>
      <trkpt lat="50.01666" lon="4.3086">
        <ele>290.4</ele>
        <time>2024-04-16T15:10:02Z</time>
      </trkpt>
      <trkpt lat="50.01664" lon="4.3087">
        <ele>290.4</ele>
        <time>2024-04-16T15:10:03Z</time>
      </trkpt>
      <trkpt lat="50.01662" lon="4.3088">
        <ele>290.4</ele>
        <time>2024-04-16T15:10:04Z</time>
      </trkpt>
      <trkpt lat="50.0166" lon="4.30889">
        <ele>290.4</ele>
        <time>2024-04-16T15:10:05Z</time>
      </trkpt>
      <trkpt lat="50.01658" lon="4.30899">
        <ele>290.4</ele>
        <time>2024-04-16T15:10:06Z</time>
      </trkpt>
      <trkpt lat="50.01656" lon="4.30908">
        <ele>290.4</ele>
        <time>2024-04-16T15:10:07Z</time>
      </trkpt>
      <trkpt lat="50.01654" lon="4.30918">
        <ele>290.4</ele>
        <time>2024-04-16T15:10:08Z</time>
      </trkpt>
      <trkpt lat="50.01652" lon="4.30927">
        <ele>290.4</ele>
        <time>2024-04-16T15:10:09Z</time>
      </trkpt>
      <trkpt lat="50.0165" lon="4.30936">
        <ele>290.4</ele>
        <time>2024-04-16T15:10:10Z</time>
      </trkpt>
      <trkpt lat="50.01648" lon="4.30945">
        <ele>290.4</ele>
        <time>2024-04-16T15:10:11Z</time>
      </trkpt>
      <trkpt lat="50.01646" lon="4.30954">
        <ele>290.6</ele>
        <time>2024-04-16T15:10:12Z</time>
      </trkpt>
      <trkpt lat="50.01644" lon="4.30963">
        <ele>291</ele>
        <time>2024-04-16T15:10:13Z</time>
      </trkpt>
      <trkpt lat="50.01642" lon="4.30972">
        <ele>290.8</ele>
        <time>2024-04-16T15:10:14Z</time>
      </trkpt>
      <trkpt lat="50.01641" lon="4.3098">
        <ele>291.2</ele>
        <time>2024-04-16T15:10:15Z</time>
      </trkpt>
      <trkpt lat="50.01639" lon="4.30989">
        <ele>291.2</ele>
        <time>2024-04-16T15:10:16Z</time>
      </trkpt>
      <trkpt lat="50.01637" lon="4.30997">
        <ele>291.2</ele>
        <time>2024-04-16T15:10:17Z</time>
      </trkpt>
      <trkpt lat="50.01635" lon="4.31006">
        <ele>291.4</ele>
        <time>2024-04-16T15:10:18Z</time>
      </trkpt>
      <trkpt lat="50.01633" lon="4.31015">
        <ele>291.6</ele>
        <time>2024-04-16T15:10:19Z</time>
      </trkpt>
      <trkpt lat="50.01631" lon="4.31023">
        <ele>291.8</ele>
        <time>2024-04-16T15:10:20Z</time>
      </trkpt>
      <trkpt lat="50.0163" lon="4.31032">
        <ele>291.8</ele>
        <time>2024-04-16T15:10:21Z</time>
      </trkpt>
      <trkpt lat="50.01628" lon="4.3104">
        <ele>292</ele>
        <time>2024-04-16T15:10:22Z</time>
      </trkpt>
      <trkpt lat="50.01626" lon="4.31049">
        <ele>292.2</ele>
        <time>2024-04-16T15:10:23Z</time>
      </trkpt>
      <trkpt lat="50.01624" lon="4.31057">
        <ele>292.6</ele>
        <time>2024-04-16T15:10:24Z</time>
      </trkpt>
      <trkpt lat="50.01622" lon="4.31066">
        <ele>292.6</ele>
        <time>2024-04-16T15:10:25Z</time>
      </trkpt>
      <trkpt lat="50.01621" lon="4.31074">
        <ele>293</ele>
        <time>2024-04-16T15:10:26Z</time>
      </trkpt>
      <trkpt lat="50.01619" lon="4.31083">
        <ele>293</ele>
        <time>2024-04-16T15:10:27Z</time>
      </trkpt>
      <trkpt lat="50.01617" lon="4.31091">
        <ele>293.4</ele>
        <time>2024-04-16T15:10:28Z</time>
      </trkpt>
      <trkpt lat="50.01615" lon="4.311">
        <ele>293.4</ele>
        <time>2024-04-16T15:10:29Z</time>
      </trkpt>
      <trkpt lat="50.01613" lon="4.31108">
        <ele>293.6</ele>
        <time>2024-04-16T15:10:30Z</time>
      </trkpt>
      <trkpt lat="50.01611" lon="4.31116">
        <ele>293.6</ele>
        <time>2024-04-16T15:10:31Z</time>
      </trkpt>
      <trkpt lat="50.0161" lon="4.31125">
        <ele>294</ele>
        <time>2024-04-16T15:10:32Z</time>
      </trkpt>
      <trkpt lat="50.01608" lon="4.31133">
        <ele>294.2</ele>
        <time>2024-04-16T15:10:33Z</time>
      </trkpt>
      <trkpt lat="50.01606" lon="4.31141">
        <ele>294.2</ele>
        <time>2024-04-16T15:10:34Z</time>
      </trkpt>
      <trkpt lat="50.01604" lon="4.3115">
        <ele>294.4</ele>
        <time>2024-04-16T15:10:35Z</time>
      </trkpt>
      <trkpt lat="50.01603" lon="4.31158">
        <ele>294.2</ele>
        <time>2024-04-16T15:10:36Z</time>
      </trkpt>
      <trkpt lat="50.01601" lon="4.31166">
        <ele>294.4</ele>
        <time>2024-04-16T15:10:37Z</time>
      </trkpt>
      <trkpt lat="50.01599" lon="4.31174">
        <ele>294.6</ele>
        <time>2024-04-16T15:10:38Z</time>
      </trkpt>
      <trkpt lat="50.01598" lon="4.31183">
        <ele>294.6</ele>
        <time>2024-04-16T15:10:39Z</time>
      </trkpt>
      <trkpt lat="50.01596" lon="4.31191">
        <ele>294.6</ele>
        <time>2024-04-16T15:10:40Z</time>
      </trkpt>
      <trkpt lat="50.01594" lon="4.312">
        <ele>294.6</ele>
        <time>2024-04-16T15:10:41Z</time>
      </trkpt>
      <trkpt lat="50.01592" lon="4.31208">
        <ele>294.8</ele>
        <time>2024-04-16T15:10:42Z</time>
      </trkpt>
      <trkpt lat="50.01591" lon="4.31217">
        <ele>294.8</ele>
        <time>2024-04-16T15:10:43Z</time>
      </trkpt>
      <trkpt lat="50.0159" lon="4.31226">
        <ele>294.8</ele>
        <time>2024-04-16T15:10:44Z</time>
      </trkpt>
      <trkpt lat="50.01588" lon="4.31235">
        <ele>294.8</ele>
        <time>2024-04-16T15:10:45Z</time>
      </trkpt>
      <trkpt lat="50.01587" lon="4.31244">
        <ele>294.8</ele>
        <time>2024-04-16T15:10:46Z</time>
      </trkpt>
      <trkpt lat="50.01586" lon="4.31253">
        <ele>294.8</ele>
        <time>2024-04-16T15:10:47Z</time>
      </trkpt>
      <trkpt lat="50.01585" lon="4.31262">
        <ele>295</ele>
        <time>2024-04-16T15:10:48Z</time>
      </trkpt>
      <trkpt lat="50.01585" lon="4.3127">
        <ele>295.4</ele>
        <time>2024-04-16T15:10:49Z</time>
      </trkpt>
      <trkpt lat="50.01586" lon="4.31279">
        <ele>295.4</ele>
        <time>2024-04-16T15:10:50Z</time>
      </trkpt>
      <trkpt lat="50.01589" lon="4.31286">
        <ele>295.6</ele>
        <time>2024-04-16T15:10:51Z</time>
      </trkpt>
      <trkpt lat="50.01592" lon="4.31292">
        <ele>295.6</ele>
        <time>2024-04-16T15:10:52Z</time>
      </trkpt>
      <trkpt lat="50.01597" lon="4.31298">
        <ele>295.6</ele>
        <time>2024-04-16T15:10:53Z</time>
      </trkpt>
      <trkpt lat="50.01602" lon="4.31302">
        <ele>295.6</ele>
        <time>2024-04-16T15:10:54Z</time>
      </trkpt>
      <trkpt lat="50.01608" lon="4.31307">
        <ele>295.8</ele>
        <time>2024-04-16T15:10:55Z</time>
      </trkpt>
      <trkpt lat="50.01614" lon="4.31313">
        <ele>295.6</ele>
        <time>2024-04-16T15:10:56Z</time>
      </trkpt>
      <trkpt lat="50.0162" lon="4.31319">
        <ele>295.6</ele>
        <time>2024-04-16T15:10:57Z</time>
      </trkpt>
      <trkpt lat="50.01626" lon="4.31326">
        <ele>295.6</ele>
        <time>2024-04-16T15:10:58Z</time>
      </trkpt>
      <trkpt lat="50.01633" lon="4.31332">
        <ele>295.6</ele>
        <time>2024-04-16T15:10:59Z</time>
      </trkpt>
      <trkpt lat="50.0164" lon="4.31338">
        <ele>295.6</ele>
        <time>2024-04-16T15:11:00Z</time>
      </trkpt>
      <trkpt lat="50.01647" lon="4.31343">
        <ele>295.6</ele>
        <time>2024-04-16T15:11:01Z</time>
      </trkpt>
      <trkpt lat="50.01654" lon="4.31349">
        <ele>295.6</ele>
        <time>2024-04-16T15:11:02Z</time>
      </trkpt>
      <trkpt lat="50.01661" lon="4.31354">
        <ele>295.4</ele>
        <time>2024-04-16T15:11:03Z</time>
      </trkpt>
      <trkpt lat="50.01668" lon="4.31359">
        <ele>295.4</ele>
        <time>2024-04-16T15:11:04Z</time>
      </trkpt>
      <trkpt lat="50.01675" lon="4.31363">
        <ele>295</ele>
        <time>2024-04-16T15:11:05Z</time>
      </trkpt>
      <trkpt lat="50.01683" lon="4.31366">
        <ele>294.6</ele>
        <time>2024-04-16T15:11:06Z</time>
      </trkpt>
      <trkpt lat="50.0169" lon="4.31369">
        <ele>294.4</ele>
        <time>2024-04-16T15:11:07Z</time>
      </trkpt>
      <trkpt lat="50.01698" lon="4.31372">
        <ele>294.2</ele>
        <time>2024-04-16T15:11:08Z</time>
      </trkpt>
      <trkpt lat="50.01706" lon="4.31376">
        <ele>294</ele>
        <time>2024-04-16T15:11:09Z</time>
      </trkpt>
      <trkpt lat="50.01713" lon="4.3138">
        <ele>294</ele>
        <time>2024-04-16T15:11:10Z</time>
      </trkpt>
      <trkpt lat="50.0172" lon="4.31384">
        <ele>294</ele>
        <time>2024-04-16T15:11:11Z</time>
      </trkpt>
      <trkpt lat="50.01728" lon="4.31389">
        <ele>293.8</ele>
        <time>2024-04-16T15:11:12Z</time>
      </trkpt>
      <trkpt lat="50.01735" lon="4.31395">
        <ele>293.8</ele>
        <time>2024-04-16T15:11:13Z</time>
      </trkpt>
      <trkpt lat="50.01741" lon="4.31401">
        <ele>293.6</ele>
        <time>2024-04-16T15:11:14Z</time>
      </trkpt>
      <trkpt lat="50.01748" lon="4.31408">
        <ele>293.6</ele>
        <time>2024-04-16T15:11:15Z</time>
      </trkpt>
      <trkpt lat="50.01755" lon="4.31414">
        <ele>293.4</ele>
        <time>2024-04-16T15:11:16Z</time>
      </trkpt>
      <trkpt lat="50.01763" lon="4.31421">
        <ele>293</ele>
        <time>2024-04-16T15:11:17Z</time>
      </trkpt>
      <trkpt lat="50.0177" lon="4.31427">
        <ele>292.6</ele>
        <time>2024-04-16T15:11:18Z</time>
      </trkpt>
      <trkpt lat="50.01777" lon="4.31432">
        <ele>292.4</ele>
        <time>2024-04-16T15:11:19Z</time>
      </trkpt>
      <trkpt lat="50.01785" lon="4.31438">
        <ele>292.2</ele>
        <time>2024-04-16T15:11:20Z</time>
      </trkpt>
      <trkpt lat="50.01793" lon="4.31442">
        <ele>291.4</ele>
        <time>2024-04-16T15:11:21Z</time>
      </trkpt>
      <trkpt lat="50.01801" lon="4.31447">
        <ele>291.4</ele>
        <time>2024-04-16T15:11:22Z</time>
      </trkpt>
      <trkpt lat="50.01809" lon="4.31452">
        <ele>291</ele>
        <time>2024-04-16T15:11:23Z</time>
      </trkpt>
      <trkpt lat="50.01817" lon="4.31456">
        <ele>290.8</ele>
        <time>2024-04-16T15:11:24Z</time>
      </trkpt>
      <trkpt lat="50.01825" lon="4.3146">
        <ele>290.6</ele>
        <time>2024-04-16T15:11:25Z</time>
      </trkpt>
      <trkpt lat="50.01834" lon="4.31464">
        <ele>290.4</ele>
        <time>2024-04-16T15:11:26Z</time>
      </trkpt>
      <trkpt lat="50.01842" lon="4.31467">
        <ele>290.2</ele>
        <time>2024-04-16T15:11:27Z</time>
      </trkpt>
      <trkpt lat="50.0185" lon="4.31471">
        <ele>290</ele>
        <time>2024-04-16T15:11:28Z</time>
      </trkpt>
      <trkpt lat="50.01858" lon="4.31475">
        <ele>289.8</ele>
        <time>2024-04-16T15:11:29Z</time>
      </trkpt>
      <trkpt lat="50.01867" lon="4.31479">
        <ele>289.6</ele>
        <time>2024-04-16T15:11:30Z</time>
      </trkpt>
      <trkpt lat="50.01875" lon="4.31482">
        <ele>289</ele>
        <time>2024-04-16T15:11:31Z</time>
      </trkpt>
      <trkpt lat="50.01883" lon="4.31486">
        <ele>288.6</ele>
        <time>2024-04-16T15:11:32Z</time>
      </trkpt>
      <trkpt lat="50.01891" lon="4.31489">
        <ele>288.2</ele>
        <time>2024-04-16T15:11:33Z</time>
      </trkpt>
      <trkpt lat="50.01899" lon="4.31491">
        <ele>288</ele>
        <time>2024-04-16T15:11:34Z</time>
      </trkpt>
      <trkpt lat="50.01908" lon="4.31494">
        <ele>288</ele>
        <time>2024-04-16T15:11:35Z</time>
      </trkpt>
      <trkpt lat="50.01916" lon="4.31496">
        <ele>287.6</ele>
        <time>2024-04-16T15:11:36Z</time>
      </trkpt>
      <trkpt lat="50.01924" lon="4.31499">
        <ele>287.2</ele>
        <time>2024-04-16T15:11:37Z</time>
      </trkpt>
      <trkpt lat="50.01932" lon="4.31502">
        <ele>287</ele>
        <time>2024-04-16T15:11:38Z</time>
      </trkpt>
      <trkpt lat="50.0194" lon="4.31504">
        <ele>287</ele>
        <time>2024-04-16T15:11:39Z</time>
      </trkpt>
      <trkpt lat="50.01947" lon="4.31507">
        <ele>286.8</ele>
        <time>2024-04-16T15:11:40Z</time>
      </trkpt>
      <trkpt lat="50.01955" lon="4.3151">
        <ele>286.6</ele>
        <time>2024-04-16T15:11:41Z</time>
      </trkpt>
      <trkpt lat="50.01962" lon="4.31513">
        <ele>286.6</ele>
        <time>2024-04-16T15:11:42Z</time>
      </trkpt>
      <trkpt lat="50.0197" lon="4.31516">
        <ele>286.4</ele>
        <time>2024-04-16T15:11:43Z</time>
      </trkpt>
      <trkpt lat="50.01978" lon="4.31518">
        <ele>286.4</ele>
        <time>2024-04-16T15:11:44Z</time>
      </trkpt>
      <trkpt lat="50.01986" lon="4.31521">
        <ele>286.4</ele>
        <time>2024-04-16T15:11:45Z</time>
      </trkpt>
      <trkpt lat="50.01994" lon="4.31524">
        <ele>286.2</ele>
        <time>2024-04-16T15:11:46Z</time>
      </trkpt>
      <trkpt lat="50.02001" lon="4.31528">
        <ele>285.6</ele>
        <time>2024-04-16T15:11:47Z</time>
      </trkpt>
      <trkpt lat="50.02009" lon="4.31531">
        <ele>285.2</ele>
        <time>2024-04-16T15:11:48Z</time>
      </trkpt>
      <trkpt lat="50.02017" lon="4.31534">
        <ele>285</ele>
        <time>2024-04-16T15:11:49Z</time>
      </trkpt>
      <trkpt lat="50.02025" lon="4.31537">
        <ele>284.6</ele>
        <time>2024-04-16T15:11:50Z</time>
      </trkpt>
      <trkpt lat="50.02034" lon="4.3154">
        <ele>284.6</ele>
        <time>2024-04-16T15:11:51Z</time>
      </trkpt>
      <trkpt lat="50.02042" lon="4.31544">
        <ele>284.4</ele>
        <time>2024-04-16T15:11:52Z</time>
      </trkpt>
      <trkpt lat="50.0205" lon="4.31547">
        <ele>284.2</ele>
        <time>2024-04-16T15:11:53Z</time>
      </trkpt>
      <trkpt lat="50.02059" lon="4.31551">
        <ele>284</ele>
        <time>2024-04-16T15:11:54Z</time>
      </trkpt>
      <trkpt lat="50.02067" lon="4.31554">
        <ele>284</ele>
        <time>2024-04-16T15:11:55Z</time>
      </trkpt>
      <trkpt lat="50.02075" lon="4.31558">
        <ele>283.6</ele>
        <time>2024-04-16T15:11:56Z</time>
      </trkpt>
      <trkpt lat="50.02083" lon="4.31562">
        <ele>283.2</ele>
        <time>2024-04-16T15:11:57Z</time>
      </trkpt>
      <trkpt lat="50.02092" lon="4.31565">
        <ele>282.8</ele>
        <time>2024-04-16T15:11:58Z</time>
      </trkpt>
      <trkpt lat="50.021" lon="4.31569">
        <ele>282.6</ele>
        <time>2024-04-16T15:11:59Z</time>
      </trkpt>
      <trkpt lat="50.02109" lon="4.31573">
        <ele>282.4</ele>
        <time>2024-04-16T15:12:00Z</time>
      </trkpt>
      <trkpt lat="50.02117" lon="4.31577">
        <ele>282.2</ele>
        <time>2024-04-16T15:12:01Z</time>
      </trkpt>
      <trkpt lat="50.02126" lon="4.31581">
        <ele>281.4</ele>
        <time>2024-04-16T15:12:02Z</time>
      </trkpt>
      <trkpt lat="50.02135" lon="4.31585">
        <ele>280.8</ele>
        <time>2024-04-16T15:12:03Z</time>
      </trkpt>
      <trkpt lat="50.02143" lon="4.31589">
        <ele>280.2</ele>
        <time>2024-04-16T15:12:04Z</time>
      </trkpt>
      <trkpt lat="50.02152" lon="4.31593">
        <ele>280</ele>
        <time>2024-04-16T15:12:05Z</time>
      </trkpt>
      <trkpt lat="50.02161" lon="4.31597">
        <ele>280</ele>
        <time>2024-04-16T15:12:06Z</time>
      </trkpt>
      <trkpt lat="50.02169" lon="4.31601">
        <ele>279.8</ele>
        <time>2024-04-16T15:12:07Z</time>
      </trkpt>
      <trkpt lat="50.02177" lon="4.31607">
        <ele>279.6</ele>
        <time>2024-04-16T15:12:08Z</time>
      </trkpt>
      <trkpt lat="50.02185" lon="4.31613">
        <ele>279.4</ele>
        <time>2024-04-16T15:12:09Z</time>
      </trkpt>
      <trkpt lat="50.02193" lon="4.3162">
        <ele>278.6</ele>
        <time>2024-04-16T15:12:10Z</time>
      </trkpt>
      <trkpt lat="50.022" lon="4.31628">
        <ele>277.8</ele>
        <time>2024-04-16T15:12:11Z</time>
      </trkpt>
      <trkpt lat="50.02207" lon="4.31637">
        <ele>277.4</ele>
        <time>2024-04-16T15:12:12Z</time>
      </trkpt>
      <trkpt lat="50.02213" lon="4.31648">
        <ele>276.6</ele>
        <time>2024-04-16T15:12:13Z</time>
      </trkpt>
      <trkpt lat="50.02219" lon="4.31659">
        <ele>275.8</ele>
        <time>2024-04-16T15:12:14Z</time>
      </trkpt>
      <trkpt lat="50.02224" lon="4.31671">
        <ele>275.6</ele>
        <time>2024-04-16T15:12:15Z</time>
      </trkpt>
      <trkpt lat="50.02229" lon="4.31684">
        <ele>275.2</ele>
        <time>2024-04-16T15:12:16Z</time>
      </trkpt>
      <trkpt lat="50.02235" lon="4.31696">
        <ele>275</ele>
        <time>2024-04-16T15:12:17Z</time>
      </trkpt>
      <trkpt lat="50.0224" lon="4.31708">
        <ele>275</ele>
        <time>2024-04-16T15:12:18Z</time>
      </trkpt>
      <trkpt lat="50.02246" lon="4.3172">
        <ele>274.8</ele>
        <time>2024-04-16T15:12:19Z</time>
      </trkpt>
      <trkpt lat="50.02251" lon="4.31733">
        <ele>274.6</ele>
        <time>2024-04-16T15:12:20Z</time>
      </trkpt>
      <trkpt lat="50.02257" lon="4.31747">
        <ele>274.4</ele>
        <time>2024-04-16T15:12:21Z</time>
      </trkpt>
      <trkpt lat="50.02263" lon="4.3176">
        <ele>274.2</ele>
        <time>2024-04-16T15:12:22Z</time>
      </trkpt>
      <trkpt lat="50.02269" lon="4.31772">
        <ele>274</ele>
        <time>2024-04-16T15:12:23Z</time>
      </trkpt>
      <trkpt lat="50.02276" lon="4.31785">
        <ele>273.6</ele>
        <time>2024-04-16T15:12:24Z</time>
      </trkpt>
      <trkpt lat="50.02282" lon="4.31797">
        <ele>273.4</ele>
        <time>2024-04-16T15:12:25Z</time>
      </trkpt>
      <trkpt lat="50.02288" lon="4.31808">
        <ele>273</ele>
        <time>2024-04-16T15:12:26Z</time>
      </trkpt>
      <trkpt lat="50.02293" lon="4.31817">
        <ele>272.2</ele>
        <time>2024-04-16T15:12:27Z</time>
      </trkpt>
      <trkpt lat="50.02298" lon="4.31826">
        <ele>272.2</ele>
        <time>2024-04-16T15:12:28Z</time>
      </trkpt>
      <trkpt lat="50.02302" lon="4.31834">
        <ele>271.4</ele>
        <time>2024-04-16T15:12:29Z</time>
      </trkpt>
      <trkpt lat="50.02306" lon="4.31841">
        <ele>270.4</ele>
        <time>2024-04-16T15:12:30Z</time>
      </trkpt>
      <trkpt lat="50.02307" lon="4.31849">
        <ele>269.8</ele>
        <time>2024-04-16T15:12:31Z</time>
      </trkpt>
      <trkpt lat="50.02306" lon="4.31858">
        <ele>269</ele>
        <time>2024-04-16T15:12:32Z</time>
      </trkpt>
      <trkpt lat="50.02303" lon="4.31867">
        <ele>268.2</ele>
        <time>2024-04-16T15:12:33Z</time>
      </trkpt>
      <trkpt lat="50.02299" lon="4.31876">
        <ele>267.4</ele>
        <time>2024-04-16T15:12:34Z</time>
      </trkpt>
      <trkpt lat="50.02295" lon="4.31885">
        <ele>266.8</ele>
        <time>2024-04-16T15:12:35Z</time>
      </trkpt>
      <trkpt lat="50.0229" lon="4.31895">
        <ele>266.8</ele>
        <time>2024-04-16T15:12:36Z</time>
      </trkpt>
      <trkpt lat="50.02286" lon="4.31904">
        <ele>266.6</ele>
        <time>2024-04-16T15:12:37Z</time>
      </trkpt>
      <trkpt lat="50.0228" lon="4.31915">
        <ele>266.4</ele>
        <time>2024-04-16T15:12:38Z</time>
      </trkpt>
      <trkpt lat="50.02275" lon="4.31925">
        <ele>266</ele>
        <time>2024-04-16T15:12:39Z</time>
      </trkpt>
      <trkpt lat="50.0227" lon="4.31934">
        <ele>265.4</ele>
        <time>2024-04-16T15:12:40Z</time>
      </trkpt>
      <trkpt lat="50.02266" lon="4.31944">
        <ele>265</ele>
        <time>2024-04-16T15:12:41Z</time>
      </trkpt>
      <trkpt lat="50.02262" lon="4.31952">
        <ele>264.6</ele>
        <time>2024-04-16T15:12:42Z</time>
      </trkpt>
      <trkpt lat="50.02259" lon="4.3196">
        <ele>263.8</ele>
        <time>2024-04-16T15:12:43Z</time>
      </trkpt>
      <trkpt lat="50.02258" lon="4.31968">
        <ele>263.2</ele>
        <time>2024-04-16T15:12:44Z</time>
      </trkpt>
      <trkpt lat="50.02258" lon="4.31976">
        <ele>263</ele>
        <time>2024-04-16T15:12:45Z</time>
      </trkpt>
      <trkpt lat="50.0226" lon="4.31982">
        <ele>262</ele>
        <time>2024-04-16T15:12:46Z</time>
      </trkpt>
      <trkpt lat="50.02262" lon="4.31989">
        <ele>261.4</ele>
        <time>2024-04-16T15:12:47Z</time>
      </trkpt>
      <trkpt lat="50.02265" lon="4.31995">
        <ele>260.8</ele>
        <time>2024-04-16T15:12:48Z</time>
      </trkpt>
      <trkpt lat="50.02268" lon="4.32002">
        <ele>260.8</ele>
        <time>2024-04-16T15:12:49Z</time>
      </trkpt>
      <trkpt lat="50.02269" lon="4.32009">
        <ele>260.6</ele>
        <time>2024-04-16T15:12:50Z</time>
      </trkpt>
      <trkpt lat="50.0227" lon="4.32017">
        <ele>260.6</ele>
        <time>2024-04-16T15:12:51Z</time>
      </trkpt>
      <trkpt lat="50.02271" lon="4.32025">
        <ele>260.4</ele>
        <time>2024-04-16T15:12:52Z</time>
      </trkpt>
      <trkpt lat="50.02271" lon="4.32034">
        <ele>260.2</ele>
        <time>2024-04-16T15:12:53Z</time>
      </trkpt>
      <trkpt lat="50.0227" lon="4.32043">
        <ele>260</ele>
        <time>2024-04-16T15:12:54Z</time>
      </trkpt>
      <trkpt lat="50.0227" lon="4.3205">
        <ele>259.8</ele>
        <time>2024-04-16T15:12:55Z</time>
      </trkpt>
      <trkpt lat="50.02271" lon="4.32057">
        <ele>259.6</ele>
        <time>2024-04-16T15:12:56Z</time>
      </trkpt>
      <trkpt lat="50.02271" lon="4.32062">
        <ele>259.4</ele>
        <time>2024-04-16T15:12:57Z</time>
      </trkpt>
      <trkpt lat="50.02271" lon="4.32067">
        <ele>259.4</ele>
        <time>2024-04-16T15:12:58Z</time>
      </trkpt>
      <trkpt lat="50.02272" lon="4.32072">
        <ele>259.2</ele>
        <time>2024-04-16T15:12:59Z</time>
      </trkpt>
      <trkpt lat="50.02273" lon="4.32077">
        <ele>259.2</ele>
        <time>2024-04-16T15:13:00Z</time>
      </trkpt>
      <trkpt lat="50.02273" lon="4.32083">
        <ele>259.2</ele>
        <time>2024-04-16T15:13:01Z</time>
      </trkpt>
      <trkpt lat="50.02274" lon="4.32088">
        <ele>259</ele>
        <time>2024-04-16T15:13:02Z</time>
      </trkpt>
      <trkpt lat="50.02275" lon="4.32092">
        <ele>258.8</ele>
        <time>2024-04-16T15:13:03Z</time>
      </trkpt>
      <trkpt lat="50.02275" lon="4.32096">
        <ele>258.8</ele>
        <time>2024-04-16T15:13:04Z</time>
      </trkpt>
      <trkpt lat="50.02276" lon="4.321">
        <ele>258.6</ele>
        <time>2024-04-16T15:13:05Z</time>
      </trkpt>
      <trkpt lat="50.02277" lon="4.32103">
        <ele>258.4</ele>
        <time>2024-04-16T15:13:06Z</time>
      </trkpt>
      <trkpt lat="50.02278" lon="4.32105">
        <ele>258.2</ele>
        <time>2024-04-16T15:13:07Z</time>
      </trkpt>
      <trkpt lat="50.02279" lon="4.32107">
        <ele>257.8</ele>
        <time>2024-04-16T15:13:08Z</time>
      </trkpt>
      <trkpt lat="50.0228" lon="4.32107">
        <ele>257.4</ele>
        <time>2024-04-16T15:13:09Z</time>
      </trkpt>
      <trkpt lat="50.02282" lon="4.32106">
        <ele>257.4</ele>
        <time>2024-04-16T15:13:10Z</time>
      </trkpt>
      <trkpt lat="50.02283" lon="4.32104">
        <ele>257</ele>
        <time>2024-04-16T15:13:11Z</time>
      </trkpt>
      <trkpt lat="50.02285" lon="4.32101">
        <ele>256.4</ele>
        <time>2024-04-16T15:13:12Z</time>
      </trkpt>
      <trkpt lat="50.02286" lon="4.32098">
        <ele>255.8</ele>
        <time>2024-04-16T15:13:13Z</time>
      </trkpt>
      <trkpt lat="50.02287" lon="4.32096">
        <ele>255.4</ele>
        <time>2024-04-16T15:13:14Z</time>
      </trkpt>
      <trkpt lat="50.02288" lon="4.32094">
        <ele>255</ele>
        <time>2024-04-16T15:13:15Z</time>
      </trkpt>
      <trkpt lat="50.0229" lon="4.32093">
        <ele>254.8</ele>
        <time>2024-04-16T15:13:16Z</time>
      </trkpt>
      <trkpt lat="50.02291" lon="4.32091">
        <ele>254.6</ele>
        <time>2024-04-16T15:13:17Z</time>
      </trkpt>
      <trkpt lat="50.02294" lon="4.32088">
        <ele>254.4</ele>
        <time>2024-04-16T15:13:18Z</time>
      </trkpt>
    </trkseg>
  </trk>
</gpx>